<?xml version="1.0" encoding="utf-8"?>
<gpx xmlns:xsi="http://www.w3.org/2001/XMLSchema-instance" xmlns:xsd="http://www.w3.org/2001/XMLSchema" version="1.1" creator="Shapelink.com" xmlns="http://www.topografix.com/GPX/1/1" xmlns:gpxtpx="http://www.garmin.com/xmlschemas/TrackPointExtension/v1">
  <metadata>
    <name>Sykling 96.36 km, 2013-04-21</name>
    <desc></desc>
    <author><name>Mikael Blom</name></author> 
    <time>2013-04-21T10:25:31Z</time>
  </metadata>
  <trk>
    <name>Sykling 96.36 km, 2013-04-21</name>
    <trkseg>
      <trkpt lat="59.9788768" lon="17.7392714">
        <ele>31.3801</ele>
        <time>2013-04-21T10:25:31Z</time>
      </trkpt>
      <trkpt lat="59.9788867" lon="17.7392305">
        <ele>32.3416</ele>
        <time>2013-04-21T10:25:32Z</time>
      </trkpt>
      <trkpt lat="59.9788977" lon="17.739203">
        <ele>33.3029</ele>
        <time>2013-04-21T10:25:33Z</time>
      </trkpt>
      <trkpt lat="59.9789193" lon="17.7391818">
        <ele>33.3029</ele>
        <time>2013-04-21T10:25:34Z</time>
      </trkpt>
      <trkpt lat="59.9789561" lon="17.7391616">
        <ele>35.2255</ele>
        <time>2013-04-21T10:25:35Z</time>
      </trkpt>
      <trkpt lat="59.9789925" lon="17.7391575">
        <ele>37.1481</ele>
        <time>2013-04-21T10:25:36Z</time>
      </trkpt>
      <trkpt lat="59.9790288" lon="17.7391502">
        <ele>37.6287</ele>
        <time>2013-04-21T10:25:37Z</time>
      </trkpt>
      <trkpt lat="59.9790651" lon="17.7391394">
        <ele>38.1094</ele>
        <time>2013-04-21T10:25:38Z</time>
      </trkpt>
      <trkpt lat="59.9791017" lon="17.7391254">
        <ele>38.5901</ele>
        <time>2013-04-21T10:25:39Z</time>
      </trkpt>
      <trkpt lat="59.9791381" lon="17.7391077">
        <ele>38.5901</ele>
        <time>2013-04-21T10:25:40Z</time>
      </trkpt>
      <trkpt lat="59.9791749" lon="17.7390899">
        <ele>38.5901</ele>
        <time>2013-04-21T10:25:41Z</time>
      </trkpt>
      <trkpt lat="59.9792116" lon="17.7390715">
        <ele>39.0707</ele>
        <time>2013-04-21T10:25:42Z</time>
      </trkpt>
      <trkpt lat="59.9792473" lon="17.7390523">
        <ele>39.0707</ele>
        <time>2013-04-21T10:25:43Z</time>
      </trkpt>
      <trkpt lat="59.9792821" lon="17.7390298">
        <ele>39.0707</ele>
        <time>2013-04-21T10:25:44Z</time>
      </trkpt>
      <trkpt lat="59.9793184" lon="17.7390093">
        <ele>39.0707</ele>
        <time>2013-04-21T10:25:45Z</time>
      </trkpt>
      <trkpt lat="59.9793553" lon="17.7389896">
        <ele>39.0707</ele>
        <time>2013-04-21T10:25:46Z</time>
      </trkpt>
      <trkpt lat="59.9793914" lon="17.7389659">
        <ele>39.5513</ele>
        <time>2013-04-21T10:25:47Z</time>
      </trkpt>
      <trkpt lat="59.9794273" lon="17.7389451">
        <ele>39.5513</ele>
        <time>2013-04-21T10:25:48Z</time>
      </trkpt>
      <trkpt lat="59.9794644" lon="17.7389248">
        <ele>39.5513</ele>
        <time>2013-04-21T10:25:49Z</time>
      </trkpt>
      <trkpt lat="59.9795003" lon="17.7389035">
        <ele>39.5513</ele>
        <time>2013-04-21T10:25:50Z</time>
      </trkpt>
      <trkpt lat="59.9795363" lon="17.7388793">
        <ele>40.0321</ele>
        <time>2013-04-21T10:25:51Z</time>
      </trkpt>
      <trkpt lat="59.9795751" lon="17.7388611">
        <ele>39.5513</ele>
        <time>2013-04-21T10:25:52Z</time>
      </trkpt>
      <trkpt lat="59.9796156" lon="17.7388472">
        <ele>40.0321</ele>
        <time>2013-04-21T10:25:53Z</time>
      </trkpt>
      <trkpt lat="59.9796523" lon="17.7388337">
        <ele>40.5128</ele>
        <time>2013-04-21T10:25:54Z</time>
      </trkpt>
      <trkpt lat="59.9796889" lon="17.7388223">
        <ele>40.9934</ele>
        <time>2013-04-21T10:25:55Z</time>
      </trkpt>
      <trkpt lat="59.9797276" lon="17.738809">
        <ele>40.5128</ele>
        <time>2013-04-21T10:25:56Z</time>
      </trkpt>
      <trkpt lat="59.9797654" lon="17.7387933">
        <ele>40.5128</ele>
        <time>2013-04-21T10:25:57Z</time>
      </trkpt>
      <trkpt lat="59.9798035" lon="17.7387761">
        <ele>40.0321</ele>
        <time>2013-04-21T10:25:58Z</time>
      </trkpt>
      <trkpt lat="59.9798422" lon="17.738759">
        <ele>40.0321</ele>
        <time>2013-04-21T10:25:59Z</time>
      </trkpt>
      <trkpt lat="59.9798819" lon="17.7387452">
        <ele>40.0321</ele>
        <time>2013-04-21T10:26:00Z</time>
      </trkpt>
      <trkpt lat="59.9799232" lon="17.7387361">
        <ele>39.5513</ele>
        <time>2013-04-21T10:26:01Z</time>
      </trkpt>
      <trkpt lat="59.9799664" lon="17.7387389">
        <ele>39.5513</ele>
        <time>2013-04-21T10:26:02Z</time>
      </trkpt>
      <trkpt lat="59.9800099" lon="17.7387451">
        <ele>39.0707</ele>
        <time>2013-04-21T10:26:03Z</time>
      </trkpt>
      <trkpt lat="59.9800529" lon="17.7387499">
        <ele>39.0707</ele>
        <time>2013-04-21T10:26:04Z</time>
      </trkpt>
      <trkpt lat="59.9800945" lon="17.7387542">
        <ele>38.5901</ele>
        <time>2013-04-21T10:26:05Z</time>
      </trkpt>
      <trkpt lat="59.9801306" lon="17.7387653">
        <ele>37.6287</ele>
        <time>2013-04-21T10:26:06Z</time>
      </trkpt>
      <trkpt lat="59.9801698" lon="17.7387714">
        <ele>37.6287</ele>
        <time>2013-04-21T10:26:07Z</time>
      </trkpt>
      <trkpt lat="59.9802066" lon="17.7387853">
        <ele>36.6675</ele>
        <time>2013-04-21T10:26:08Z</time>
      </trkpt>
      <trkpt lat="59.9802469" lon="17.7387916">
        <ele>35.7061</ele>
        <time>2013-04-21T10:26:09Z</time>
      </trkpt>
      <trkpt lat="59.9802881" lon="17.7387897">
        <ele>36.1868</ele>
        <time>2013-04-21T10:26:10Z</time>
      </trkpt>
      <trkpt lat="59.9803303" lon="17.7387876">
        <ele>37.1481</ele>
        <time>2013-04-21T10:26:11Z</time>
      </trkpt>
      <trkpt lat="59.9803715" lon="17.7387798">
        <ele>37.6287</ele>
        <time>2013-04-21T10:26:12Z</time>
      </trkpt>
      <trkpt lat="59.9804075" lon="17.7387753">
        <ele>37.1481</ele>
        <time>2013-04-21T10:26:13Z</time>
      </trkpt>
      <trkpt lat="59.9804433" lon="17.7387691">
        <ele>37.6287</ele>
        <time>2013-04-21T10:26:14Z</time>
      </trkpt>
      <trkpt lat="59.9804823" lon="17.7387585">
        <ele>38.5901</ele>
        <time>2013-04-21T10:26:15Z</time>
      </trkpt>
      <trkpt lat="59.980521" lon="17.7387467">
        <ele>39.0707</ele>
        <time>2013-04-21T10:26:16Z</time>
      </trkpt>
      <trkpt lat="59.9805655" lon="17.7387352">
        <ele>40.5128</ele>
        <time>2013-04-21T10:26:17Z</time>
      </trkpt>
      <trkpt lat="59.9806137" lon="17.7387191">
        <ele>40.9934</ele>
        <time>2013-04-21T10:26:18Z</time>
      </trkpt>
      <trkpt lat="59.9806619" lon="17.7386989">
        <ele>41.474</ele>
        <time>2013-04-21T10:26:19Z</time>
      </trkpt>
      <trkpt lat="59.9807093" lon="17.7386857">
        <ele>41.9547</ele>
        <time>2013-04-21T10:26:20Z</time>
      </trkpt>
      <trkpt lat="59.9807507" lon="17.7386743">
        <ele>42.4354</ele>
        <time>2013-04-21T10:26:21Z</time>
      </trkpt>
      <trkpt lat="59.9807971" lon="17.7386606">
        <ele>44.358</ele>
        <time>2013-04-21T10:26:22Z</time>
      </trkpt>
      <trkpt lat="59.9808399" lon="17.7386462">
        <ele>44.358</ele>
        <time>2013-04-21T10:26:23Z</time>
      </trkpt>
      <trkpt lat="59.9808853" lon="17.7386331">
        <ele>44.358</ele>
        <time>2013-04-21T10:26:24Z</time>
      </trkpt>
      <trkpt lat="59.9809271" lon="17.7386258">
        <ele>43.3966</ele>
        <time>2013-04-21T10:26:25Z</time>
      </trkpt>
      <trkpt lat="59.9809765" lon="17.7386233">
        <ele>44.358</ele>
        <time>2013-04-21T10:26:26Z</time>
      </trkpt>
      <trkpt lat="59.9810199" lon="17.7386162">
        <ele>44.358</ele>
        <time>2013-04-21T10:26:27Z</time>
      </trkpt>
      <trkpt lat="59.9811074" lon="17.7385959">
        <ele>43.3966</ele>
        <time>2013-04-21T10:26:29Z</time>
      </trkpt>
      <trkpt lat="59.9811483" lon="17.7385897">
        <ele>41.9547</ele>
        <time>2013-04-21T10:26:30Z</time>
      </trkpt>
      <trkpt lat="59.9811909" lon="17.7385726">
        <ele>41.474</ele>
        <time>2013-04-21T10:26:31Z</time>
      </trkpt>
      <trkpt lat="59.9812381" lon="17.7385607">
        <ele>41.474</ele>
        <time>2013-04-21T10:26:32Z</time>
      </trkpt>
      <trkpt lat="59.981283" lon="17.7385436">
        <ele>41.474</ele>
        <time>2013-04-21T10:26:33Z</time>
      </trkpt>
      <trkpt lat="59.9813278" lon="17.7385322">
        <ele>41.474</ele>
        <time>2013-04-21T10:26:34Z</time>
      </trkpt>
      <trkpt lat="59.9813723" lon="17.73851">
        <ele>41.474</ele>
        <time>2013-04-21T10:26:35Z</time>
      </trkpt>
      <trkpt lat="59.9814137" lon="17.7384939">
        <ele>40.5128</ele>
        <time>2013-04-21T10:26:36Z</time>
      </trkpt>
      <trkpt lat="59.9814511" lon="17.7384784">
        <ele>40.0321</ele>
        <time>2013-04-21T10:26:37Z</time>
      </trkpt>
      <trkpt lat="59.9814915" lon="17.7384697">
        <ele>39.5513</ele>
        <time>2013-04-21T10:26:38Z</time>
      </trkpt>
      <trkpt lat="59.9815329" lon="17.7384695">
        <ele>39.5513</ele>
        <time>2013-04-21T10:26:39Z</time>
      </trkpt>
      <trkpt lat="59.9815682" lon="17.7384617">
        <ele>40.0321</ele>
        <time>2013-04-21T10:26:40Z</time>
      </trkpt>
      <trkpt lat="59.9816186" lon="17.7384519">
        <ele>43.3966</ele>
        <time>2013-04-21T10:26:41Z</time>
      </trkpt>
      <trkpt lat="59.9816685" lon="17.7384395">
        <ele>46.2806</ele>
        <time>2013-04-21T10:26:42Z</time>
      </trkpt>
      <trkpt lat="59.9817171" lon="17.7384287">
        <ele>48.2034</ele>
        <time>2013-04-21T10:26:43Z</time>
      </trkpt>
      <trkpt lat="59.9817541" lon="17.7384227">
        <ele>49.1646</ele>
        <time>2013-04-21T10:26:44Z</time>
      </trkpt>
      <trkpt lat="59.9817912" lon="17.7384155">
        <ele>50.6066</ele>
        <time>2013-04-21T10:26:45Z</time>
      </trkpt>
      <trkpt lat="59.981828" lon="17.7384073">
        <ele>51.5679</ele>
        <time>2013-04-21T10:26:46Z</time>
      </trkpt>
      <trkpt lat="59.9818515" lon="17.7383953">
        <ele>51.5679</ele>
        <time>2013-04-21T10:26:47Z</time>
      </trkpt>
      <trkpt lat="59.9818836" lon="17.7383798">
        <ele>51.5679</ele>
        <time>2013-04-21T10:26:48Z</time>
      </trkpt>
      <trkpt lat="59.9819203" lon="17.7383639">
        <ele>52.0486</ele>
        <time>2013-04-21T10:26:49Z</time>
      </trkpt>
      <trkpt lat="59.9819507" lon="17.7383461">
        <ele>51.5679</ele>
        <time>2013-04-21T10:26:50Z</time>
      </trkpt>
      <trkpt lat="59.9819847" lon="17.7383259">
        <ele>51.5679</ele>
        <time>2013-04-21T10:26:51Z</time>
      </trkpt>
      <trkpt lat="59.9820214" lon="17.7383088">
        <ele>50.6066</ele>
        <time>2013-04-21T10:26:52Z</time>
      </trkpt>
      <trkpt lat="59.9820592" lon="17.7382953">
        <ele>49.1646</ele>
        <time>2013-04-21T10:26:53Z</time>
      </trkpt>
      <trkpt lat="59.9820962" lon="17.7382787">
        <ele>47.7225</ele>
        <time>2013-04-21T10:26:54Z</time>
      </trkpt>
      <trkpt lat="59.982132" lon="17.7382634">
        <ele>45.3192</ele>
        <time>2013-04-21T10:26:55Z</time>
      </trkpt>
      <trkpt lat="59.9821807" lon="17.7382483">
        <ele>45.7999</ele>
        <time>2013-04-21T10:26:56Z</time>
      </trkpt>
      <trkpt lat="59.9822306" lon="17.7382276">
        <ele>47.7225</ele>
        <time>2013-04-21T10:26:57Z</time>
      </trkpt>
      <trkpt lat="59.9822802" lon="17.7382079">
        <ele>47.7225</ele>
        <time>2013-04-21T10:26:58Z</time>
      </trkpt>
      <trkpt lat="59.9823431" lon="17.7381955">
        <ele>49.6453</ele>
        <time>2013-04-21T10:26:59Z</time>
      </trkpt>
      <trkpt lat="59.9823885" lon="17.7381883">
        <ele>48.2034</ele>
        <time>2013-04-21T10:27:00Z</time>
      </trkpt>
      <trkpt lat="59.9824371" lon="17.7381795">
        <ele>48.2034</ele>
        <time>2013-04-21T10:27:01Z</time>
      </trkpt>
      <trkpt lat="59.982498" lon="17.7381717">
        <ele>49.6453</ele>
        <time>2013-04-21T10:27:02Z</time>
      </trkpt>
      <trkpt lat="59.9825542" lon="17.7381692">
        <ele>50.6066</ele>
        <time>2013-04-21T10:27:03Z</time>
      </trkpt>
      <trkpt lat="59.9826016" lon="17.7381696">
        <ele>50.126</ele>
        <time>2013-04-21T10:27:04Z</time>
      </trkpt>
      <trkpt lat="59.9826466" lon="17.7381787">
        <ele>48.684</ele>
        <time>2013-04-21T10:27:05Z</time>
      </trkpt>
      <trkpt lat="59.9826927" lon="17.7381883">
        <ele>48.2034</ele>
        <time>2013-04-21T10:27:06Z</time>
      </trkpt>
      <trkpt lat="59.9827331" lon="17.7381998">
        <ele>46.7612</ele>
        <time>2013-04-21T10:27:07Z</time>
      </trkpt>
      <trkpt lat="59.982787" lon="17.7382134">
        <ele>47.2418</ele>
        <time>2013-04-21T10:27:08Z</time>
      </trkpt>
      <trkpt lat="59.9828358" lon="17.7382266">
        <ele>45.7999</ele>
        <time>2013-04-21T10:27:09Z</time>
      </trkpt>
      <trkpt lat="59.9828855" lon="17.7382395">
        <ele>45.3192</ele>
        <time>2013-04-21T10:27:10Z</time>
      </trkpt>
      <trkpt lat="59.9829228" lon="17.7382552">
        <ele>41.9547</ele>
        <time>2013-04-21T10:27:11Z</time>
      </trkpt>
      <trkpt lat="59.9829671" lon="17.7382655">
        <ele>40.5128</ele>
        <time>2013-04-21T10:27:12Z</time>
      </trkpt>
      <trkpt lat="59.9830211" lon="17.7382705">
        <ele>40.9934</ele>
        <time>2013-04-21T10:27:13Z</time>
      </trkpt>
      <trkpt lat="59.9830692" lon="17.7382682">
        <ele>40.5128</ele>
        <time>2013-04-21T10:27:14Z</time>
      </trkpt>
      <trkpt lat="59.9831139" lon="17.7382621">
        <ele>39.0707</ele>
        <time>2013-04-21T10:27:15Z</time>
      </trkpt>
      <trkpt lat="59.9831582" lon="17.738264">
        <ele>37.1481</ele>
        <time>2013-04-21T10:27:16Z</time>
      </trkpt>
      <trkpt lat="59.9832136" lon="17.7382516">
        <ele>37.1481</ele>
        <time>2013-04-21T10:27:17Z</time>
      </trkpt>
      <trkpt lat="59.9832744" lon="17.7382378">
        <ele>37.6287</ele>
        <time>2013-04-21T10:27:18Z</time>
      </trkpt>
      <trkpt lat="59.9833386" lon="17.7382282">
        <ele>38.5901</ele>
        <time>2013-04-21T10:27:19Z</time>
      </trkpt>
      <trkpt lat="59.9834018" lon="17.7382163">
        <ele>39.0707</ele>
        <time>2013-04-21T10:27:20Z</time>
      </trkpt>
      <trkpt lat="59.9834714" lon="17.7382034">
        <ele>40.0321</ele>
        <time>2013-04-21T10:27:21Z</time>
      </trkpt>
      <trkpt lat="59.983535" lon="17.7381862">
        <ele>40.9934</ele>
        <time>2013-04-21T10:27:22Z</time>
      </trkpt>
      <trkpt lat="59.9836044" lon="17.7381687">
        <ele>41.9547</ele>
        <time>2013-04-21T10:27:23Z</time>
      </trkpt>
      <trkpt lat="59.9836599" lon="17.7381567">
        <ele>40.5128</ele>
        <time>2013-04-21T10:27:24Z</time>
      </trkpt>
      <trkpt lat="59.9837272" lon="17.7381406">
        <ele>41.9547</ele>
        <time>2013-04-21T10:27:25Z</time>
      </trkpt>
      <trkpt lat="59.9837915" lon="17.7381229">
        <ele>42.4354</ele>
        <time>2013-04-21T10:27:26Z</time>
      </trkpt>
      <trkpt lat="59.9838504" lon="17.7381042">
        <ele>42.916</ele>
        <time>2013-04-21T10:27:27Z</time>
      </trkpt>
      <trkpt lat="59.9839026" lon="17.738094">
        <ele>42.4354</ele>
        <time>2013-04-21T10:27:28Z</time>
      </trkpt>
      <trkpt lat="59.9839486" lon="17.7380852">
        <ele>41.9547</ele>
        <time>2013-04-21T10:27:29Z</time>
      </trkpt>
      <trkpt lat="59.9839973" lon="17.7380733">
        <ele>41.9547</ele>
        <time>2013-04-21T10:27:30Z</time>
      </trkpt>
      <trkpt lat="59.984051" lon="17.7380661">
        <ele>42.916</ele>
        <time>2013-04-21T10:27:31Z</time>
      </trkpt>
      <trkpt lat="59.9841079" lon="17.7380608">
        <ele>44.358</ele>
        <time>2013-04-21T10:27:32Z</time>
      </trkpt>
      <trkpt lat="59.9841544" lon="17.7380603">
        <ele>44.8386</ele>
        <time>2013-04-21T10:27:33Z</time>
      </trkpt>
      <trkpt lat="59.9842097" lon="17.7380607">
        <ele>46.7612</ele>
        <time>2013-04-21T10:27:34Z</time>
      </trkpt>
      <trkpt lat="59.9842621" lon="17.7380671">
        <ele>48.2034</ele>
        <time>2013-04-21T10:27:35Z</time>
      </trkpt>
      <trkpt lat="59.9843006" lon="17.7380712">
        <ele>48.684</ele>
        <time>2013-04-21T10:27:36Z</time>
      </trkpt>
      <trkpt lat="59.9843508" lon="17.7380759">
        <ele>49.6453</ele>
        <time>2013-04-21T10:27:37Z</time>
      </trkpt>
      <trkpt lat="59.9843972" lon="17.7380816">
        <ele>50.126</ele>
        <time>2013-04-21T10:27:38Z</time>
      </trkpt>
      <trkpt lat="59.9844463" lon="17.7380857">
        <ele>50.126</ele>
        <time>2013-04-21T10:27:39Z</time>
      </trkpt>
      <trkpt lat="59.9845008" lon="17.7380938">
        <ele>51.5679</ele>
        <time>2013-04-21T10:27:40Z</time>
      </trkpt>
      <trkpt lat="59.9845471" lon="17.7381132">
        <ele>50.6066</ele>
        <time>2013-04-21T10:27:41Z</time>
      </trkpt>
      <trkpt lat="59.9846067" lon="17.7381246">
        <ele>51.5679</ele>
        <time>2013-04-21T10:27:42Z</time>
      </trkpt>
      <trkpt lat="59.9846673" lon="17.7381387">
        <ele>53.0098</ele>
        <time>2013-04-21T10:27:43Z</time>
      </trkpt>
      <trkpt lat="59.9847191" lon="17.7381577">
        <ele>53.0098</ele>
        <time>2013-04-21T10:27:44Z</time>
      </trkpt>
      <trkpt lat="59.98477" lon="17.7381806">
        <ele>51.5679</ele>
        <time>2013-04-21T10:27:45Z</time>
      </trkpt>
      <trkpt lat="59.9848248" lon="17.7381997">
        <ele>50.6066</ele>
        <time>2013-04-21T10:27:46Z</time>
      </trkpt>
      <trkpt lat="59.9848692" lon="17.7382197">
        <ele>49.1646</ele>
        <time>2013-04-21T10:27:47Z</time>
      </trkpt>
      <trkpt lat="59.9849173" lon="17.7382303">
        <ele>48.684</ele>
        <time>2013-04-21T10:27:48Z</time>
      </trkpt>
      <trkpt lat="59.9849679" lon="17.7382426">
        <ele>48.684</ele>
        <time>2013-04-21T10:27:49Z</time>
      </trkpt>
      <trkpt lat="59.9850225" lon="17.7382499">
        <ele>49.6453</ele>
        <time>2013-04-21T10:27:50Z</time>
      </trkpt>
      <trkpt lat="59.9850651" lon="17.7382623">
        <ele>48.2034</ele>
        <time>2013-04-21T10:27:51Z</time>
      </trkpt>
      <trkpt lat="59.985101" lon="17.7382726">
        <ele>47.7225</ele>
        <time>2013-04-21T10:27:52Z</time>
      </trkpt>
      <trkpt lat="59.9851413" lon="17.7382861">
        <ele>46.7612</ele>
        <time>2013-04-21T10:27:53Z</time>
      </trkpt>
      <trkpt lat="59.9851849" lon="17.7382956">
        <ele>46.7612</ele>
        <time>2013-04-21T10:27:54Z</time>
      </trkpt>
      <trkpt lat="59.9852257" lon="17.7383069">
        <ele>46.2806</ele>
        <time>2013-04-21T10:27:55Z</time>
      </trkpt>
      <trkpt lat="59.9852599" lon="17.7383204">
        <ele>44.358</ele>
        <time>2013-04-21T10:27:56Z</time>
      </trkpt>
      <trkpt lat="59.9853014" lon="17.7383347">
        <ele>43.3966</ele>
        <time>2013-04-21T10:27:57Z</time>
      </trkpt>
      <trkpt lat="59.9853496" lon="17.738351">
        <ele>42.916</ele>
        <time>2013-04-21T10:27:58Z</time>
      </trkpt>
      <trkpt lat="59.9853971" lon="17.7383665">
        <ele>41.9547</ele>
        <time>2013-04-21T10:27:59Z</time>
      </trkpt>
      <trkpt lat="59.9854479" lon="17.7383862">
        <ele>41.9547</ele>
        <time>2013-04-21T10:28:00Z</time>
      </trkpt>
      <trkpt lat="59.9854967" lon="17.7384069">
        <ele>41.9547</ele>
        <time>2013-04-21T10:28:01Z</time>
      </trkpt>
      <trkpt lat="59.9855472" lon="17.7384253">
        <ele>42.4354</ele>
        <time>2013-04-21T10:28:02Z</time>
      </trkpt>
      <trkpt lat="59.9855996" lon="17.7384451">
        <ele>43.3966</ele>
        <time>2013-04-21T10:28:03Z</time>
      </trkpt>
      <trkpt lat="59.9856624" lon="17.7384664">
        <ele>45.7999</ele>
        <time>2013-04-21T10:28:04Z</time>
      </trkpt>
      <trkpt lat="59.9857043" lon="17.7384866">
        <ele>46.2806</ele>
        <time>2013-04-21T10:28:05Z</time>
      </trkpt>
      <trkpt lat="59.9857479" lon="17.7385097">
        <ele>45.3192</ele>
        <time>2013-04-21T10:28:06Z</time>
      </trkpt>
      <trkpt lat="59.9857986" lon="17.7385326">
        <ele>44.358</ele>
        <time>2013-04-21T10:28:07Z</time>
      </trkpt>
      <trkpt lat="59.9858467" lon="17.7385586">
        <ele>43.8773</ele>
        <time>2013-04-21T10:28:08Z</time>
      </trkpt>
      <trkpt lat="59.9858986" lon="17.7385856">
        <ele>42.916</ele>
        <time>2013-04-21T10:28:09Z</time>
      </trkpt>
      <trkpt lat="59.985962" lon="17.7386084">
        <ele>44.358</ele>
        <time>2013-04-21T10:28:10Z</time>
      </trkpt>
      <trkpt lat="59.9860079" lon="17.7386354">
        <ele>43.8773</ele>
        <time>2013-04-21T10:28:11Z</time>
      </trkpt>
      <trkpt lat="59.9860433" lon="17.7386706">
        <ele>42.4354</ele>
        <time>2013-04-21T10:28:12Z</time>
      </trkpt>
      <trkpt lat="59.9860856" lon="17.7386962">
        <ele>42.916</ele>
        <time>2013-04-21T10:28:13Z</time>
      </trkpt>
      <trkpt lat="59.9861225" lon="17.7387292">
        <ele>42.4354</ele>
        <time>2013-04-21T10:28:14Z</time>
      </trkpt>
      <trkpt lat="59.9861619" lon="17.7387603">
        <ele>42.916</ele>
        <time>2013-04-21T10:28:15Z</time>
      </trkpt>
      <trkpt lat="59.9862058" lon="17.7387885">
        <ele>43.3966</ele>
        <time>2013-04-21T10:28:16Z</time>
      </trkpt>
      <trkpt lat="59.9862405" lon="17.7388326">
        <ele>41.474</ele>
        <time>2013-04-21T10:28:17Z</time>
      </trkpt>
      <trkpt lat="59.9862746" lon="17.7388669">
        <ele>40.0321</ele>
        <time>2013-04-21T10:28:18Z</time>
      </trkpt>
      <trkpt lat="59.9863182" lon="17.7389036">
        <ele>39.0707</ele>
        <time>2013-04-21T10:28:19Z</time>
      </trkpt>
      <trkpt lat="59.9863724" lon="17.7389316">
        <ele>42.4354</ele>
        <time>2013-04-21T10:28:20Z</time>
      </trkpt>
      <trkpt lat="59.986424" lon="17.7389642">
        <ele>44.358</ele>
        <time>2013-04-21T10:28:21Z</time>
      </trkpt>
      <trkpt lat="59.9864637" lon="17.739002">
        <ele>42.916</ele>
        <time>2013-04-21T10:28:22Z</time>
      </trkpt>
      <trkpt lat="59.9865079" lon="17.7390363">
        <ele>44.358</ele>
        <time>2013-04-21T10:28:23Z</time>
      </trkpt>
      <trkpt lat="59.986541" lon="17.7390754">
        <ele>44.358</ele>
        <time>2013-04-21T10:28:24Z</time>
      </trkpt>
      <trkpt lat="59.9865762" lon="17.7391058">
        <ele>44.358</ele>
        <time>2013-04-21T10:28:25Z</time>
      </trkpt>
      <trkpt lat="59.9866025" lon="17.7391506">
        <ele>42.4354</ele>
        <time>2013-04-21T10:28:26Z</time>
      </trkpt>
      <trkpt lat="59.9866404" lon="17.7391885">
        <ele>43.3966</ele>
        <time>2013-04-21T10:28:27Z</time>
      </trkpt>
      <trkpt lat="59.9866839" lon="17.7392248">
        <ele>43.8773</ele>
        <time>2013-04-21T10:28:28Z</time>
      </trkpt>
      <trkpt lat="59.986725" lon="17.7392611">
        <ele>45.3192</ele>
        <time>2013-04-21T10:28:29Z</time>
      </trkpt>
      <trkpt lat="59.9867637" lon="17.7393019">
        <ele>44.8386</ele>
        <time>2013-04-21T10:28:30Z</time>
      </trkpt>
      <trkpt lat="59.9868075" lon="17.7393351">
        <ele>45.7999</ele>
        <time>2013-04-21T10:28:31Z</time>
      </trkpt>
      <trkpt lat="59.9868445" lon="17.7393687">
        <ele>46.7612</ele>
        <time>2013-04-21T10:28:32Z</time>
      </trkpt>
      <trkpt lat="59.9868834" lon="17.7393989">
        <ele>48.2034</ele>
        <time>2013-04-21T10:28:33Z</time>
      </trkpt>
      <trkpt lat="59.9869268" lon="17.7394243">
        <ele>48.684</ele>
        <time>2013-04-21T10:28:34Z</time>
      </trkpt>
      <trkpt lat="59.9869864" lon="17.7394495">
        <ele>50.126</ele>
        <time>2013-04-21T10:28:35Z</time>
      </trkpt>
      <trkpt lat="59.9870495" lon="17.7394666">
        <ele>50.6066</ele>
        <time>2013-04-21T10:28:36Z</time>
      </trkpt>
      <trkpt lat="59.987108" lon="17.7394766">
        <ele>50.6066</ele>
        <time>2013-04-21T10:28:37Z</time>
      </trkpt>
      <trkpt lat="59.9871784" lon="17.7394776">
        <ele>52.0486</ele>
        <time>2013-04-21T10:28:38Z</time>
      </trkpt>
      <trkpt lat="59.987244" lon="17.7394767">
        <ele>52.5292</ele>
        <time>2013-04-21T10:28:39Z</time>
      </trkpt>
      <trkpt lat="59.9873204" lon="17.7394688">
        <ele>54.9324</ele>
        <time>2013-04-21T10:28:40Z</time>
      </trkpt>
      <trkpt lat="59.9874024" lon="17.7394564">
        <ele>57.8165</ele>
        <time>2013-04-21T10:28:41Z</time>
      </trkpt>
      <trkpt lat="59.9874727" lon="17.7394486">
        <ele>59.7391</ele>
        <time>2013-04-21T10:28:42Z</time>
      </trkpt>
      <trkpt lat="59.9875359" lon="17.7394417">
        <ele>59.7391</ele>
        <time>2013-04-21T10:28:43Z</time>
      </trkpt>
      <trkpt lat="59.9875972" lon="17.7394336">
        <ele>59.7391</ele>
        <time>2013-04-21T10:28:44Z</time>
      </trkpt>
      <trkpt lat="59.9876588" lon="17.7394278">
        <ele>60.2197</ele>
        <time>2013-04-21T10:28:45Z</time>
      </trkpt>
      <trkpt lat="59.9877115" lon="17.7394201">
        <ele>59.2584</ele>
        <time>2013-04-21T10:28:46Z</time>
      </trkpt>
      <trkpt lat="59.9877634" lon="17.7394138">
        <ele>59.2584</ele>
        <time>2013-04-21T10:28:47Z</time>
      </trkpt>
      <trkpt lat="59.9878168" lon="17.7394076">
        <ele>59.2584</ele>
        <time>2013-04-21T10:28:48Z</time>
      </trkpt>
      <trkpt lat="59.9878696" lon="17.7393989">
        <ele>58.7777</ele>
        <time>2013-04-21T10:28:49Z</time>
      </trkpt>
      <trkpt lat="59.9879264" lon="17.7393902">
        <ele>59.2584</ele>
        <time>2013-04-21T10:28:50Z</time>
      </trkpt>
      <trkpt lat="59.9879733" lon="17.7393816">
        <ele>58.2971</ele>
        <time>2013-04-21T10:28:51Z</time>
      </trkpt>
      <trkpt lat="59.9880183" lon="17.7393677">
        <ele>58.2971</ele>
        <time>2013-04-21T10:28:52Z</time>
      </trkpt>
      <trkpt lat="59.9880655" lon="17.7393557">
        <ele>57.8165</ele>
        <time>2013-04-21T10:28:53Z</time>
      </trkpt>
      <trkpt lat="59.9881256" lon="17.7393459">
        <ele>59.7391</ele>
        <time>2013-04-21T10:28:54Z</time>
      </trkpt>
      <trkpt lat="59.9881821" lon="17.7393349">
        <ele>60.2197</ele>
        <time>2013-04-21T10:28:55Z</time>
      </trkpt>
      <trkpt lat="59.9882424" lon="17.7393186">
        <ele>61.181</ele>
        <time>2013-04-21T10:28:56Z</time>
      </trkpt>
      <trkpt lat="59.9882946" lon="17.7393008">
        <ele>60.7003</ele>
        <time>2013-04-21T10:28:57Z</time>
      </trkpt>
      <trkpt lat="59.988353" lon="17.7392811">
        <ele>61.6617</ele>
        <time>2013-04-21T10:28:58Z</time>
      </trkpt>
      <trkpt lat="59.988408" lon="17.7392596">
        <ele>62.6229</ele>
        <time>2013-04-21T10:28:59Z</time>
      </trkpt>
      <trkpt lat="59.9884623" lon="17.7392398">
        <ele>63.5844</ele>
        <time>2013-04-21T10:29:00Z</time>
      </trkpt>
      <trkpt lat="59.9885166" lon="17.7392124">
        <ele>65.0264</ele>
        <time>2013-04-21T10:29:01Z</time>
      </trkpt>
      <trkpt lat="59.9885628" lon="17.7391839">
        <ele>65.5071</ele>
        <time>2013-04-21T10:29:02Z</time>
      </trkpt>
      <trkpt lat="59.9886182" lon="17.7391569">
        <ele>66.949</ele>
        <time>2013-04-21T10:29:03Z</time>
      </trkpt>
      <trkpt lat="59.988673" lon="17.7391277">
        <ele>67.9103</ele>
        <time>2013-04-21T10:29:04Z</time>
      </trkpt>
      <trkpt lat="59.9887332" lon="17.7390969">
        <ele>68.8716</ele>
        <time>2013-04-21T10:29:05Z</time>
      </trkpt>
      <trkpt lat="59.9887727" lon="17.739069">
        <ele>67.4297</ele>
        <time>2013-04-21T10:29:06Z</time>
      </trkpt>
      <trkpt lat="59.9888233" lon="17.7390392">
        <ele>67.9103</ele>
        <time>2013-04-21T10:29:07Z</time>
      </trkpt>
      <trkpt lat="59.9888705" lon="17.7390067">
        <ele>68.3909</ele>
        <time>2013-04-21T10:29:08Z</time>
      </trkpt>
      <trkpt lat="59.9889104" lon="17.7389772">
        <ele>67.4297</ele>
        <time>2013-04-21T10:29:09Z</time>
      </trkpt>
      <trkpt lat="59.9889622" lon="17.738949">
        <ele>67.9103</ele>
        <time>2013-04-21T10:29:10Z</time>
      </trkpt>
      <trkpt lat="59.9890022" lon="17.7389166">
        <ele>66.949</ele>
        <time>2013-04-21T10:29:11Z</time>
      </trkpt>
      <trkpt lat="59.9890476" lon="17.7388784">
        <ele>66.4683</ele>
        <time>2013-04-21T10:29:12Z</time>
      </trkpt>
      <trkpt lat="59.9890885" lon="17.738855">
        <ele>65.5071</ele>
        <time>2013-04-21T10:29:13Z</time>
      </trkpt>
      <trkpt lat="59.9891258" lon="17.7388288">
        <ele>64.0651</ele>
        <time>2013-04-21T10:29:14Z</time>
      </trkpt>
      <trkpt lat="59.9891559" lon="17.7387908">
        <ele>62.6229</ele>
        <time>2013-04-21T10:29:15Z</time>
      </trkpt>
      <trkpt lat="59.9892002" lon="17.73876">
        <ele>61.6617</ele>
        <time>2013-04-21T10:29:16Z</time>
      </trkpt>
      <trkpt lat="59.9892387" lon="17.7387333">
        <ele>59.7391</ele>
        <time>2013-04-21T10:29:17Z</time>
      </trkpt>
      <trkpt lat="59.9892898" lon="17.7387067">
        <ele>59.7391</ele>
        <time>2013-04-21T10:29:18Z</time>
      </trkpt>
      <trkpt lat="59.9893466" lon="17.7386799">
        <ele>60.2197</ele>
        <time>2013-04-21T10:29:19Z</time>
      </trkpt>
      <trkpt lat="59.9894066" lon="17.738659">
        <ele>60.7003</ele>
        <time>2013-04-21T10:29:20Z</time>
      </trkpt>
      <trkpt lat="59.9894589" lon="17.7386379">
        <ele>59.7391</ele>
        <time>2013-04-21T10:29:21Z</time>
      </trkpt>
      <trkpt lat="59.9895152" lon="17.7386135">
        <ele>59.2584</ele>
        <time>2013-04-21T10:29:22Z</time>
      </trkpt>
      <trkpt lat="59.9895748" lon="17.7385825">
        <ele>59.7391</ele>
        <time>2013-04-21T10:29:23Z</time>
      </trkpt>
      <trkpt lat="59.9896325" lon="17.7385607">
        <ele>59.2584</ele>
        <time>2013-04-21T10:29:24Z</time>
      </trkpt>
      <trkpt lat="59.9896904" lon="17.7385466">
        <ele>57.8165</ele>
        <time>2013-04-21T10:29:25Z</time>
      </trkpt>
      <trkpt lat="59.9897486" lon="17.7385295">
        <ele>56.8551</ele>
        <time>2013-04-21T10:29:26Z</time>
      </trkpt>
      <trkpt lat="59.9898068" lon="17.7385125">
        <ele>55.4131</ele>
        <time>2013-04-21T10:29:27Z</time>
      </trkpt>
      <trkpt lat="59.9898778" lon="17.7384878">
        <ele>56.3745</ele>
        <time>2013-04-21T10:29:28Z</time>
      </trkpt>
      <trkpt lat="59.989952" lon="17.7384593">
        <ele>57.3358</ele>
        <time>2013-04-21T10:29:29Z</time>
      </trkpt>
      <trkpt lat="59.9900169" lon="17.7384316">
        <ele>56.8551</ele>
        <time>2013-04-21T10:29:30Z</time>
      </trkpt>
      <trkpt lat="59.9900852" lon="17.7383981">
        <ele>57.3358</ele>
        <time>2013-04-21T10:29:31Z</time>
      </trkpt>
      <trkpt lat="59.9901452" lon="17.7383649">
        <ele>56.8551</ele>
        <time>2013-04-21T10:29:32Z</time>
      </trkpt>
      <trkpt lat="59.9902095" lon="17.7383306">
        <ele>57.3358</ele>
        <time>2013-04-21T10:29:33Z</time>
      </trkpt>
      <trkpt lat="59.9902666" lon="17.7383002">
        <ele>57.3358</ele>
        <time>2013-04-21T10:29:34Z</time>
      </trkpt>
      <trkpt lat="59.9903223" lon="17.7382753">
        <ele>56.8551</ele>
        <time>2013-04-21T10:29:35Z</time>
      </trkpt>
      <trkpt lat="59.9903774" lon="17.7382504">
        <ele>55.8938</ele>
        <time>2013-04-21T10:29:36Z</time>
      </trkpt>
      <trkpt lat="59.9904384" lon="17.7382255">
        <ele>56.8551</ele>
        <time>2013-04-21T10:29:37Z</time>
      </trkpt>
      <trkpt lat="59.9904872" lon="17.7382127">
        <ele>55.8938</ele>
        <time>2013-04-21T10:29:38Z</time>
      </trkpt>
      <trkpt lat="59.9905403" lon="17.7381879">
        <ele>55.8938</ele>
        <time>2013-04-21T10:29:39Z</time>
      </trkpt>
      <trkpt lat="59.9906027" lon="17.7381524">
        <ele>56.8551</ele>
        <time>2013-04-21T10:29:40Z</time>
      </trkpt>
      <trkpt lat="59.9906586" lon="17.7381132">
        <ele>56.8551</ele>
        <time>2013-04-21T10:29:41Z</time>
      </trkpt>
      <trkpt lat="59.990724" lon="17.7380743">
        <ele>58.2971</ele>
        <time>2013-04-21T10:29:42Z</time>
      </trkpt>
      <trkpt lat="59.9907871" lon="17.7380349">
        <ele>58.7777</ele>
        <time>2013-04-21T10:29:43Z</time>
      </trkpt>
      <trkpt lat="59.9908555" lon="17.7379957">
        <ele>60.2197</ele>
        <time>2013-04-21T10:29:44Z</time>
      </trkpt>
      <trkpt lat="59.9909202" lon="17.7379607">
        <ele>60.2197</ele>
        <time>2013-04-21T10:29:45Z</time>
      </trkpt>
      <trkpt lat="59.9909898" lon="17.7379211">
        <ele>61.181</ele>
        <time>2013-04-21T10:29:46Z</time>
      </trkpt>
      <trkpt lat="59.9910554" lon="17.7378848">
        <ele>60.7003</ele>
        <time>2013-04-21T10:29:47Z</time>
      </trkpt>
      <trkpt lat="59.9911186" lon="17.7378473">
        <ele>59.7391</ele>
        <time>2013-04-21T10:29:48Z</time>
      </trkpt>
      <trkpt lat="59.9911838" lon="17.7378169">
        <ele>60.2197</ele>
        <time>2013-04-21T10:29:49Z</time>
      </trkpt>
      <trkpt lat="59.9912434" lon="17.7377874">
        <ele>59.2584</ele>
        <time>2013-04-21T10:29:50Z</time>
      </trkpt>
      <trkpt lat="59.9913015" lon="17.7377677">
        <ele>57.8165</ele>
        <time>2013-04-21T10:29:51Z</time>
      </trkpt>
      <trkpt lat="59.9913656" lon="17.7377568">
        <ele>57.8165</ele>
        <time>2013-04-21T10:29:52Z</time>
      </trkpt>
      <trkpt lat="59.9914274" lon="17.7377434">
        <ele>57.8165</ele>
        <time>2013-04-21T10:29:53Z</time>
      </trkpt>
      <trkpt lat="59.9914853" lon="17.7377408">
        <ele>57.3358</ele>
        <time>2013-04-21T10:29:54Z</time>
      </trkpt>
      <trkpt lat="59.9915495" lon="17.7377439">
        <ele>58.2971</ele>
        <time>2013-04-21T10:29:55Z</time>
      </trkpt>
      <trkpt lat="59.9916101" lon="17.737746">
        <ele>58.2971</ele>
        <time>2013-04-21T10:29:56Z</time>
      </trkpt>
      <trkpt lat="59.9916698" lon="17.7377417">
        <ele>58.2971</ele>
        <time>2013-04-21T10:29:57Z</time>
      </trkpt>
      <trkpt lat="59.991738" lon="17.7377386">
        <ele>59.7391</ele>
        <time>2013-04-21T10:29:58Z</time>
      </trkpt>
      <trkpt lat="59.9917932" lon="17.7377359">
        <ele>59.7391</ele>
        <time>2013-04-21T10:29:59Z</time>
      </trkpt>
      <trkpt lat="59.9918381" lon="17.737723">
        <ele>58.7777</ele>
        <time>2013-04-21T10:30:00Z</time>
      </trkpt>
      <trkpt lat="59.9918914" lon="17.7377069">
        <ele>59.7391</ele>
        <time>2013-04-21T10:30:01Z</time>
      </trkpt>
      <trkpt lat="59.9919359" lon="17.7376937">
        <ele>58.2971</ele>
        <time>2013-04-21T10:30:02Z</time>
      </trkpt>
      <trkpt lat="59.9919906" lon="17.737677">
        <ele>58.2971</ele>
        <time>2013-04-21T10:30:03Z</time>
      </trkpt>
      <trkpt lat="59.9920546" lon="17.7376585">
        <ele>59.2584</ele>
        <time>2013-04-21T10:30:04Z</time>
      </trkpt>
      <trkpt lat="59.9921085" lon="17.7376396">
        <ele>58.2971</ele>
        <time>2013-04-21T10:30:05Z</time>
      </trkpt>
      <trkpt lat="59.992161" lon="17.7376159">
        <ele>57.8165</ele>
        <time>2013-04-21T10:30:06Z</time>
      </trkpt>
      <trkpt lat="59.9922122" lon="17.7375867">
        <ele>57.8165</ele>
        <time>2013-04-21T10:30:07Z</time>
      </trkpt>
      <trkpt lat="59.9922712" lon="17.7375501">
        <ele>58.2971</ele>
        <time>2013-04-21T10:30:08Z</time>
      </trkpt>
      <trkpt lat="59.9923235" lon="17.7375074">
        <ele>57.8165</ele>
        <time>2013-04-21T10:30:09Z</time>
      </trkpt>
      <trkpt lat="59.99238" lon="17.7374605">
        <ele>57.8165</ele>
        <time>2013-04-21T10:30:10Z</time>
      </trkpt>
      <trkpt lat="59.9924467" lon="17.7374097">
        <ele>59.2584</ele>
        <time>2013-04-21T10:30:11Z</time>
      </trkpt>
      <trkpt lat="59.9925122" lon="17.7373495">
        <ele>60.2197</ele>
        <time>2013-04-21T10:30:12Z</time>
      </trkpt>
      <trkpt lat="59.9925629" lon="17.7372847">
        <ele>59.7391</ele>
        <time>2013-04-21T10:30:13Z</time>
      </trkpt>
      <trkpt lat="59.9926136" lon="17.7372192">
        <ele>59.2584</ele>
        <time>2013-04-21T10:30:14Z</time>
      </trkpt>
      <trkpt lat="59.9926742" lon="17.7371463">
        <ele>60.7003</ele>
        <time>2013-04-21T10:30:15Z</time>
      </trkpt>
      <trkpt lat="59.9927198" lon="17.737069">
        <ele>60.2197</ele>
        <time>2013-04-21T10:30:16Z</time>
      </trkpt>
      <trkpt lat="59.9927727" lon="17.7369865">
        <ele>60.7003</ele>
        <time>2013-04-21T10:30:17Z</time>
      </trkpt>
      <trkpt lat="59.9928197" lon="17.7368863">
        <ele>59.7391</ele>
        <time>2013-04-21T10:30:18Z</time>
      </trkpt>
      <trkpt lat="59.9928653" lon="17.7367938">
        <ele>59.2584</ele>
        <time>2013-04-21T10:30:19Z</time>
      </trkpt>
      <trkpt lat="59.9929191" lon="17.7366834">
        <ele>59.7391</ele>
        <time>2013-04-21T10:30:20Z</time>
      </trkpt>
      <trkpt lat="59.9929768" lon="17.7365683">
        <ele>60.7003</ele>
        <time>2013-04-21T10:30:21Z</time>
      </trkpt>
      <trkpt lat="59.9930265" lon="17.7364567">
        <ele>60.2197</ele>
        <time>2013-04-21T10:30:22Z</time>
      </trkpt>
      <trkpt lat="59.9930688" lon="17.7363479">
        <ele>58.2971</ele>
        <time>2013-04-21T10:30:23Z</time>
      </trkpt>
      <trkpt lat="59.9931115" lon="17.7362318">
        <ele>57.3358</ele>
        <time>2013-04-21T10:30:24Z</time>
      </trkpt>
      <trkpt lat="59.9931529" lon="17.7361239">
        <ele>54.9324</ele>
        <time>2013-04-21T10:30:25Z</time>
      </trkpt>
      <trkpt lat="59.9932005" lon="17.7360036">
        <ele>53.4905</ele>
        <time>2013-04-21T10:30:26Z</time>
      </trkpt>
      <trkpt lat="59.9932565" lon="17.735893">
        <ele>53.0098</ele>
        <time>2013-04-21T10:30:27Z</time>
      </trkpt>
      <trkpt lat="59.9933119" lon="17.7357886">
        <ele>51.5679</ele>
        <time>2013-04-21T10:30:28Z</time>
      </trkpt>
      <trkpt lat="59.993375" lon="17.7356873">
        <ele>50.6066</ele>
        <time>2013-04-21T10:30:29Z</time>
      </trkpt>
      <trkpt lat="59.9934368" lon="17.7356163">
        <ele>49.1646</ele>
        <time>2013-04-21T10:30:30Z</time>
      </trkpt>
      <trkpt lat="59.9935082" lon="17.7355615">
        <ele>48.684</ele>
        <time>2013-04-21T10:30:31Z</time>
      </trkpt>
      <trkpt lat="59.9935829" lon="17.7355094">
        <ele>48.2034</ele>
        <time>2013-04-21T10:30:32Z</time>
      </trkpt>
      <trkpt lat="59.9936577" lon="17.7354973">
        <ele>47.2418</ele>
        <time>2013-04-21T10:30:33Z</time>
      </trkpt>
      <trkpt lat="59.9937323" lon="17.7355216">
        <ele>46.7612</ele>
        <time>2013-04-21T10:30:34Z</time>
      </trkpt>
      <trkpt lat="59.9938175" lon="17.7355226">
        <ele>46.2806</ele>
        <time>2013-04-21T10:30:35Z</time>
      </trkpt>
      <trkpt lat="59.9939019" lon="17.7355494">
        <ele>45.7999</ele>
        <time>2013-04-21T10:30:36Z</time>
      </trkpt>
      <trkpt lat="59.9939801" lon="17.7355879">
        <ele>45.3192</ele>
        <time>2013-04-21T10:30:37Z</time>
      </trkpt>
      <trkpt lat="59.9940511" lon="17.735621">
        <ele>44.358</ele>
        <time>2013-04-21T10:30:38Z</time>
      </trkpt>
      <trkpt lat="59.9941215" lon="17.7356531">
        <ele>43.3966</ele>
        <time>2013-04-21T10:30:39Z</time>
      </trkpt>
      <trkpt lat="59.9942037" lon="17.7356786">
        <ele>42.916</ele>
        <time>2013-04-21T10:30:40Z</time>
      </trkpt>
      <trkpt lat="59.9942807" lon="17.7356972">
        <ele>42.916</ele>
        <time>2013-04-21T10:30:41Z</time>
      </trkpt>
      <trkpt lat="59.9943558" lon="17.7357187">
        <ele>42.916</ele>
        <time>2013-04-21T10:30:42Z</time>
      </trkpt>
      <trkpt lat="59.994422" lon="17.7357591">
        <ele>41.9547</ele>
        <time>2013-04-21T10:30:43Z</time>
      </trkpt>
      <trkpt lat="59.9944919" lon="17.7357965">
        <ele>41.9547</ele>
        <time>2013-04-21T10:30:44Z</time>
      </trkpt>
      <trkpt lat="59.9945546" lon="17.7358427">
        <ele>41.9547</ele>
        <time>2013-04-21T10:30:45Z</time>
      </trkpt>
      <trkpt lat="59.9946169" lon="17.7358899">
        <ele>41.9547</ele>
        <time>2013-04-21T10:30:46Z</time>
      </trkpt>
      <trkpt lat="59.9946818" lon="17.7359374">
        <ele>41.9547</ele>
        <time>2013-04-21T10:30:47Z</time>
      </trkpt>
      <trkpt lat="59.9947519" lon="17.7359772">
        <ele>42.916</ele>
        <time>2013-04-21T10:30:48Z</time>
      </trkpt>
      <trkpt lat="59.9948059" lon="17.7360251">
        <ele>41.474</ele>
        <time>2013-04-21T10:30:49Z</time>
      </trkpt>
      <trkpt lat="59.9948671" lon="17.7360602">
        <ele>39.5513</ele>
        <time>2013-04-21T10:30:50Z</time>
      </trkpt>
      <trkpt lat="59.9949286" lon="17.7360865">
        <ele>38.5901</ele>
        <time>2013-04-21T10:30:51Z</time>
      </trkpt>
      <trkpt lat="59.9949876" lon="17.7361131">
        <ele>38.1094</ele>
        <time>2013-04-21T10:30:52Z</time>
      </trkpt>
      <trkpt lat="59.9950442" lon="17.7361319">
        <ele>38.1094</ele>
        <time>2013-04-21T10:30:53Z</time>
      </trkpt>
      <trkpt lat="59.9951108" lon="17.7361472">
        <ele>36.6675</ele>
        <time>2013-04-21T10:30:54Z</time>
      </trkpt>
      <trkpt lat="59.9951855" lon="17.7361593">
        <ele>36.1868</ele>
        <time>2013-04-21T10:30:55Z</time>
      </trkpt>
      <trkpt lat="59.9952599" lon="17.7361687">
        <ele>35.7061</ele>
        <time>2013-04-21T10:30:56Z</time>
      </trkpt>
      <trkpt lat="59.9953306" lon="17.7361732">
        <ele>35.7061</ele>
        <time>2013-04-21T10:30:57Z</time>
      </trkpt>
      <trkpt lat="59.9954072" lon="17.7361762">
        <ele>35.7061</ele>
        <time>2013-04-21T10:30:58Z</time>
      </trkpt>
      <trkpt lat="59.9954713" lon="17.7361805">
        <ele>35.2255</ele>
        <time>2013-04-21T10:30:59Z</time>
      </trkpt>
      <trkpt lat="59.99553" lon="17.7361832">
        <ele>35.7061</ele>
        <time>2013-04-21T10:31:00Z</time>
      </trkpt>
      <trkpt lat="59.9955852" lon="17.7361836">
        <ele>35.2255</ele>
        <time>2013-04-21T10:31:01Z</time>
      </trkpt>
      <trkpt lat="59.9956427" lon="17.736183">
        <ele>35.2255</ele>
        <time>2013-04-21T10:31:02Z</time>
      </trkpt>
      <trkpt lat="59.9956938" lon="17.7361768">
        <ele>35.7061</ele>
        <time>2013-04-21T10:31:03Z</time>
      </trkpt>
      <trkpt lat="59.9957396" lon="17.7361772">
        <ele>35.7061</ele>
        <time>2013-04-21T10:31:04Z</time>
      </trkpt>
      <trkpt lat="59.9957942" lon="17.7361816">
        <ele>36.1868</ele>
        <time>2013-04-21T10:31:05Z</time>
      </trkpt>
      <trkpt lat="59.9958518" lon="17.7361811">
        <ele>36.6675</ele>
        <time>2013-04-21T10:31:06Z</time>
      </trkpt>
      <trkpt lat="59.9959139" lon="17.736182">
        <ele>37.6287</ele>
        <time>2013-04-21T10:31:07Z</time>
      </trkpt>
      <trkpt lat="59.9959781" lon="17.7361811">
        <ele>38.5901</ele>
        <time>2013-04-21T10:31:08Z</time>
      </trkpt>
      <trkpt lat="59.9960437" lon="17.7361846">
        <ele>40.0321</ele>
        <time>2013-04-21T10:31:09Z</time>
      </trkpt>
      <trkpt lat="59.9961094" lon="17.736198">
        <ele>40.9934</ele>
        <time>2013-04-21T10:31:10Z</time>
      </trkpt>
      <trkpt lat="59.9961748" lon="17.7362153">
        <ele>41.474</ele>
        <time>2013-04-21T10:31:11Z</time>
      </trkpt>
      <trkpt lat="59.9962324" lon="17.7362372">
        <ele>41.9547</ele>
        <time>2013-04-21T10:31:12Z</time>
      </trkpt>
      <trkpt lat="59.9962911" lon="17.7362695">
        <ele>41.9547</ele>
        <time>2013-04-21T10:31:13Z</time>
      </trkpt>
      <trkpt lat="59.9963457" lon="17.73631">
        <ele>41.474</ele>
        <time>2013-04-21T10:31:14Z</time>
      </trkpt>
      <trkpt lat="59.9964009" lon="17.7363488">
        <ele>41.474</ele>
        <time>2013-04-21T10:31:15Z</time>
      </trkpt>
      <trkpt lat="59.9964608" lon="17.7363866">
        <ele>41.9547</ele>
        <time>2013-04-21T10:31:16Z</time>
      </trkpt>
      <trkpt lat="59.9965079" lon="17.7364303">
        <ele>40.5128</ele>
        <time>2013-04-21T10:31:17Z</time>
      </trkpt>
      <trkpt lat="59.9965603" lon="17.7364654">
        <ele>40.5128</ele>
        <time>2013-04-21T10:31:18Z</time>
      </trkpt>
      <trkpt lat="59.9966192" lon="17.7364994">
        <ele>40.5128</ele>
        <time>2013-04-21T10:31:19Z</time>
      </trkpt>
      <trkpt lat="59.9966774" lon="17.7365242">
        <ele>40.5128</ele>
        <time>2013-04-21T10:31:20Z</time>
      </trkpt>
      <trkpt lat="59.9967329" lon="17.7365493">
        <ele>40.5128</ele>
        <time>2013-04-21T10:31:21Z</time>
      </trkpt>
      <trkpt lat="59.9967837" lon="17.7365729">
        <ele>40.0321</ele>
        <time>2013-04-21T10:31:22Z</time>
      </trkpt>
      <trkpt lat="59.9968378" lon="17.7365928">
        <ele>40.5128</ele>
        <time>2013-04-21T10:31:23Z</time>
      </trkpt>
      <trkpt lat="59.9968907" lon="17.7366089">
        <ele>40.9934</ele>
        <time>2013-04-21T10:31:24Z</time>
      </trkpt>
      <trkpt lat="59.9969452" lon="17.7366269">
        <ele>41.474</ele>
        <time>2013-04-21T10:31:25Z</time>
      </trkpt>
      <trkpt lat="59.9970069" lon="17.7366425">
        <ele>41.9547</ele>
        <time>2013-04-21T10:31:26Z</time>
      </trkpt>
      <trkpt lat="59.9970757" lon="17.7366564">
        <ele>41.9547</ele>
        <time>2013-04-21T10:31:27Z</time>
      </trkpt>
      <trkpt lat="59.997141" lon="17.7366638">
        <ele>43.3966</ele>
        <time>2013-04-21T10:31:28Z</time>
      </trkpt>
      <trkpt lat="59.997215" lon="17.7366699">
        <ele>44.8386</ele>
        <time>2013-04-21T10:31:29Z</time>
      </trkpt>
      <trkpt lat="59.9972788" lon="17.7366797">
        <ele>45.3192</ele>
        <time>2013-04-21T10:31:30Z</time>
      </trkpt>
      <trkpt lat="59.9973418" lon="17.7366874">
        <ele>45.7999</ele>
        <time>2013-04-21T10:31:31Z</time>
      </trkpt>
      <trkpt lat="59.9973974" lon="17.7366967">
        <ele>46.7612</ele>
        <time>2013-04-21T10:31:32Z</time>
      </trkpt>
      <trkpt lat="59.9974568" lon="17.736702">
        <ele>47.7225</ele>
        <time>2013-04-21T10:31:33Z</time>
      </trkpt>
      <trkpt lat="59.9975087" lon="17.7367113">
        <ele>47.7225</ele>
        <time>2013-04-21T10:31:34Z</time>
      </trkpt>
      <trkpt lat="59.9975694" lon="17.7367205">
        <ele>47.2418</ele>
        <time>2013-04-21T10:31:35Z</time>
      </trkpt>
      <trkpt lat="59.9976249" lon="17.7367239">
        <ele>46.7612</ele>
        <time>2013-04-21T10:31:36Z</time>
      </trkpt>
      <trkpt lat="59.9976849" lon="17.7367197">
        <ele>47.7225</ele>
        <time>2013-04-21T10:31:37Z</time>
      </trkpt>
      <trkpt lat="59.9977542" lon="17.7367164">
        <ele>49.1646</ele>
        <time>2013-04-21T10:31:38Z</time>
      </trkpt>
      <trkpt lat="59.9978174" lon="17.7367146">
        <ele>49.1646</ele>
        <time>2013-04-21T10:31:39Z</time>
      </trkpt>
      <trkpt lat="59.9978777" lon="17.7367151">
        <ele>49.1646</ele>
        <time>2013-04-21T10:31:40Z</time>
      </trkpt>
      <trkpt lat="59.9979387" lon="17.736719">
        <ele>48.684</ele>
        <time>2013-04-21T10:31:41Z</time>
      </trkpt>
      <trkpt lat="59.9979979" lon="17.7367229">
        <ele>48.684</ele>
        <time>2013-04-21T10:31:42Z</time>
      </trkpt>
      <trkpt lat="59.9980596" lon="17.7367236">
        <ele>48.684</ele>
        <time>2013-04-21T10:31:43Z</time>
      </trkpt>
      <trkpt lat="59.9981178" lon="17.7367322">
        <ele>49.1646</ele>
        <time>2013-04-21T10:31:44Z</time>
      </trkpt>
      <trkpt lat="59.9981787" lon="17.7367413">
        <ele>49.1646</ele>
        <time>2013-04-21T10:31:45Z</time>
      </trkpt>
      <trkpt lat="59.9982447" lon="17.7367467">
        <ele>50.126</ele>
        <time>2013-04-21T10:31:46Z</time>
      </trkpt>
      <trkpt lat="59.9983086" lon="17.7367533">
        <ele>50.126</ele>
        <time>2013-04-21T10:31:47Z</time>
      </trkpt>
      <trkpt lat="59.9983703" lon="17.7367663">
        <ele>50.126</ele>
        <time>2013-04-21T10:31:48Z</time>
      </trkpt>
      <trkpt lat="59.9984338" lon="17.7367766">
        <ele>49.6453</ele>
        <time>2013-04-21T10:31:49Z</time>
      </trkpt>
      <trkpt lat="59.9984978" lon="17.736783">
        <ele>50.126</ele>
        <time>2013-04-21T10:31:50Z</time>
      </trkpt>
      <trkpt lat="59.9985682" lon="17.7367835">
        <ele>50.6066</ele>
        <time>2013-04-21T10:31:51Z</time>
      </trkpt>
      <trkpt lat="59.9986401" lon="17.7367829">
        <ele>50.6066</ele>
        <time>2013-04-21T10:31:52Z</time>
      </trkpt>
      <trkpt lat="59.9987184" lon="17.7367776">
        <ele>50.6066</ele>
        <time>2013-04-21T10:31:53Z</time>
      </trkpt>
      <trkpt lat="59.9987933" lon="17.7367784">
        <ele>51.0872</ele>
        <time>2013-04-21T10:31:54Z</time>
      </trkpt>
      <trkpt lat="59.9988585" lon="17.7367938">
        <ele>50.6066</ele>
        <time>2013-04-21T10:31:55Z</time>
      </trkpt>
      <trkpt lat="59.9989199" lon="17.7368109">
        <ele>49.6453</ele>
        <time>2013-04-21T10:31:56Z</time>
      </trkpt>
      <trkpt lat="59.9989863" lon="17.7368245">
        <ele>50.126</ele>
        <time>2013-04-21T10:31:57Z</time>
      </trkpt>
      <trkpt lat="59.9990524" lon="17.7368377">
        <ele>50.126</ele>
        <time>2013-04-21T10:31:58Z</time>
      </trkpt>
      <trkpt lat="59.9991157" lon="17.7368519">
        <ele>50.126</ele>
        <time>2013-04-21T10:31:59Z</time>
      </trkpt>
      <trkpt lat="59.9991813" lon="17.7368596">
        <ele>50.126</ele>
        <time>2013-04-21T10:32:00Z</time>
      </trkpt>
      <trkpt lat="59.9992411" lon="17.7368663">
        <ele>50.126</ele>
        <time>2013-04-21T10:32:01Z</time>
      </trkpt>
      <trkpt lat="59.9993026" lon="17.7368786">
        <ele>49.6453</ele>
        <time>2013-04-21T10:32:02Z</time>
      </trkpt>
      <trkpt lat="59.9993648" lon="17.7368879">
        <ele>48.684</ele>
        <time>2013-04-21T10:32:03Z</time>
      </trkpt>
      <trkpt lat="59.9994275" lon="17.7368954">
        <ele>48.2034</ele>
        <time>2013-04-21T10:32:04Z</time>
      </trkpt>
      <trkpt lat="59.9994869" lon="17.7369046">
        <ele>47.2418</ele>
        <time>2013-04-21T10:32:05Z</time>
      </trkpt>
      <trkpt lat="59.9995487" lon="17.7369134">
        <ele>46.7612</ele>
        <time>2013-04-21T10:32:06Z</time>
      </trkpt>
      <trkpt lat="59.9996093" lon="17.736919">
        <ele>46.7612</ele>
        <time>2013-04-21T10:32:07Z</time>
      </trkpt>
      <trkpt lat="59.9996641" lon="17.7369262">
        <ele>45.7999</ele>
        <time>2013-04-21T10:32:08Z</time>
      </trkpt>
      <trkpt lat="59.9997212" lon="17.7369315">
        <ele>45.7999</ele>
        <time>2013-04-21T10:32:09Z</time>
      </trkpt>
      <trkpt lat="59.9997734" lon="17.7369391">
        <ele>44.8386</ele>
        <time>2013-04-21T10:32:10Z</time>
      </trkpt>
      <trkpt lat="59.9998258" lon="17.7369368">
        <ele>44.358</ele>
        <time>2013-04-21T10:32:11Z</time>
      </trkpt>
      <trkpt lat="59.9998771" lon="17.7369352">
        <ele>43.8773</ele>
        <time>2013-04-21T10:32:12Z</time>
      </trkpt>
      <trkpt lat="59.9999299" lon="17.7369414">
        <ele>43.3966</ele>
        <time>2013-04-21T10:32:13Z</time>
      </trkpt>
      <trkpt lat="59.9999858" lon="17.7369456">
        <ele>42.916</ele>
        <time>2013-04-21T10:32:14Z</time>
      </trkpt>
      <trkpt lat="60.0000453" lon="17.7369434">
        <ele>42.4354</ele>
        <time>2013-04-21T10:32:15Z</time>
      </trkpt>
      <trkpt lat="60.0001095" lon="17.7369352">
        <ele>41.9547</ele>
        <time>2013-04-21T10:32:16Z</time>
      </trkpt>
      <trkpt lat="60.0001784" lon="17.7369208">
        <ele>41.9547</ele>
        <time>2013-04-21T10:32:17Z</time>
      </trkpt>
      <trkpt lat="60.0002511" lon="17.7368965">
        <ele>41.9547</ele>
        <time>2013-04-21T10:32:18Z</time>
      </trkpt>
      <trkpt lat="60.0003247" lon="17.7368673">
        <ele>41.474</ele>
        <time>2013-04-21T10:32:19Z</time>
      </trkpt>
      <trkpt lat="60.0003983" lon="17.7368265">
        <ele>41.474</ele>
        <time>2013-04-21T10:32:20Z</time>
      </trkpt>
      <trkpt lat="60.0004728" lon="17.7367698">
        <ele>41.9547</ele>
        <time>2013-04-21T10:32:21Z</time>
      </trkpt>
      <trkpt lat="60.0005438" lon="17.7367134">
        <ele>41.9547</ele>
        <time>2013-04-21T10:32:22Z</time>
      </trkpt>
      <trkpt lat="60.0006143" lon="17.7366415">
        <ele>42.4354</ele>
        <time>2013-04-21T10:32:23Z</time>
      </trkpt>
      <trkpt lat="60.0006785" lon="17.7365809">
        <ele>42.4354</ele>
        <time>2013-04-21T10:32:24Z</time>
      </trkpt>
      <trkpt lat="60.0007464" lon="17.7365258">
        <ele>42.916</ele>
        <time>2013-04-21T10:32:25Z</time>
      </trkpt>
      <trkpt lat="60.0008182" lon="17.7364851">
        <ele>43.8773</ele>
        <time>2013-04-21T10:32:26Z</time>
      </trkpt>
      <trkpt lat="60.0008779" lon="17.7364546">
        <ele>43.3966</ele>
        <time>2013-04-21T10:32:27Z</time>
      </trkpt>
      <trkpt lat="60.0009385" lon="17.7364155">
        <ele>44.358</ele>
        <time>2013-04-21T10:32:28Z</time>
      </trkpt>
      <trkpt lat="60.000998" lon="17.7363856">
        <ele>44.358</ele>
        <time>2013-04-21T10:32:29Z</time>
      </trkpt>
      <trkpt lat="60.0010554" lon="17.7363514">
        <ele>42.916</ele>
        <time>2013-04-21T10:32:30Z</time>
      </trkpt>
      <trkpt lat="60.0011163" lon="17.7363188">
        <ele>42.916</ele>
        <time>2013-04-21T10:32:31Z</time>
      </trkpt>
      <trkpt lat="60.0011748" lon="17.7362849">
        <ele>42.4354</ele>
        <time>2013-04-21T10:32:32Z</time>
      </trkpt>
      <trkpt lat="60.001229" lon="17.7362461">
        <ele>41.9547</ele>
        <time>2013-04-21T10:32:33Z</time>
      </trkpt>
      <trkpt lat="60.001282" lon="17.7362012">
        <ele>41.9547</ele>
        <time>2013-04-21T10:32:34Z</time>
      </trkpt>
      <trkpt lat="60.0013339" lon="17.7361554">
        <ele>41.9547</ele>
        <time>2013-04-21T10:32:35Z</time>
      </trkpt>
      <trkpt lat="60.0013773" lon="17.7361219">
        <ele>40.0321</ele>
        <time>2013-04-21T10:32:36Z</time>
      </trkpt>
      <trkpt lat="60.0014211" lon="17.7360716">
        <ele>40.0321</ele>
        <time>2013-04-21T10:32:37Z</time>
      </trkpt>
      <trkpt lat="60.0014714" lon="17.7360117">
        <ele>40.9934</ele>
        <time>2013-04-21T10:32:38Z</time>
      </trkpt>
      <trkpt lat="60.0015217" lon="17.7359575">
        <ele>41.474</ele>
        <time>2013-04-21T10:32:39Z</time>
      </trkpt>
      <trkpt lat="60.0015768" lon="17.7358957">
        <ele>41.474</ele>
        <time>2013-04-21T10:32:40Z</time>
      </trkpt>
      <trkpt lat="60.0016201" lon="17.735839">
        <ele>39.5513</ele>
        <time>2013-04-21T10:32:41Z</time>
      </trkpt>
      <trkpt lat="60.0016731" lon="17.7357511">
        <ele>38.5901</ele>
        <time>2013-04-21T10:32:42Z</time>
      </trkpt>
      <trkpt lat="60.0017332" lon="17.7356408">
        <ele>37.6287</ele>
        <time>2013-04-21T10:32:43Z</time>
      </trkpt>
      <trkpt lat="60.0017848" lon="17.7355438">
        <ele>34.7449</ele>
        <time>2013-04-21T10:32:44Z</time>
      </trkpt>
      <trkpt lat="60.001842" lon="17.73542">
        <ele>33.7834</ele>
        <time>2013-04-21T10:32:45Z</time>
      </trkpt>
      <trkpt lat="60.0019003" lon="17.735294">
        <ele>33.7834</ele>
        <time>2013-04-21T10:32:46Z</time>
      </trkpt>
      <trkpt lat="60.001947" lon="17.7351289">
        <ele>32.8223</ele>
        <time>2013-04-21T10:32:47Z</time>
      </trkpt>
      <trkpt lat="60.0019844" lon="17.7349584">
        <ele>32.3416</ele>
        <time>2013-04-21T10:32:48Z</time>
      </trkpt>
      <trkpt lat="60.0020166" lon="17.7347778">
        <ele>32.8223</ele>
        <time>2013-04-21T10:32:49Z</time>
      </trkpt>
      <trkpt lat="60.0020439" lon="17.7346212">
        <ele>31.8607</ele>
        <time>2013-04-21T10:32:50Z</time>
      </trkpt>
      <trkpt lat="60.0020761" lon="17.7344726">
        <ele>31.8607</ele>
        <time>2013-04-21T10:32:51Z</time>
      </trkpt>
      <trkpt lat="60.0021092" lon="17.7343337">
        <ele>31.8607</ele>
        <time>2013-04-21T10:32:52Z</time>
      </trkpt>
      <trkpt lat="60.0021382" lon="17.7342069">
        <ele>31.3801</ele>
        <time>2013-04-21T10:32:53Z</time>
      </trkpt>
      <trkpt lat="60.0021662" lon="17.7340821">
        <ele>30.8995</ele>
        <time>2013-04-21T10:32:54Z</time>
      </trkpt>
      <trkpt lat="60.0021916" lon="17.7339561">
        <ele>30.4188</ele>
        <time>2013-04-21T10:32:55Z</time>
      </trkpt>
      <trkpt lat="60.0022164" lon="17.733822">
        <ele>30.8995</ele>
        <time>2013-04-21T10:32:56Z</time>
      </trkpt>
      <trkpt lat="60.0022314" lon="17.7336827">
        <ele>29.4575</ele>
        <time>2013-04-21T10:32:57Z</time>
      </trkpt>
      <trkpt lat="60.0022449" lon="17.7335345">
        <ele>28.4962</ele>
        <time>2013-04-21T10:32:58Z</time>
      </trkpt>
      <trkpt lat="60.0022534" lon="17.7333832">
        <ele>27.5349</ele>
        <time>2013-04-21T10:32:59Z</time>
      </trkpt>
      <trkpt lat="60.0022717" lon="17.7332112">
        <ele>28.4962</ele>
        <time>2013-04-21T10:33:00Z</time>
      </trkpt>
      <trkpt lat="60.002275" lon="17.7330367">
        <ele>27.5349</ele>
        <time>2013-04-21T10:33:01Z</time>
      </trkpt>
      <trkpt lat="60.0022797" lon="17.7328611">
        <ele>27.0543</ele>
        <time>2013-04-21T10:33:02Z</time>
      </trkpt>
      <trkpt lat="60.0022994" lon="17.7326926">
        <ele>26.5736</ele>
        <time>2013-04-21T10:33:03Z</time>
      </trkpt>
      <trkpt lat="60.0023237" lon="17.7325216">
        <ele>26.0929</ele>
        <time>2013-04-21T10:33:04Z</time>
      </trkpt>
      <trkpt lat="60.00236" lon="17.7323646">
        <ele>25.6123</ele>
        <time>2013-04-21T10:33:05Z</time>
      </trkpt>
      <trkpt lat="60.0024024" lon="17.7321954">
        <ele>25.6123</ele>
        <time>2013-04-21T10:33:06Z</time>
      </trkpt>
      <trkpt lat="60.0024453" lon="17.732026">
        <ele>26.0929</ele>
        <time>2013-04-21T10:33:07Z</time>
      </trkpt>
      <trkpt lat="60.0024869" lon="17.7318603">
        <ele>25.6123</ele>
        <time>2013-04-21T10:33:08Z</time>
      </trkpt>
      <trkpt lat="60.0025314" lon="17.7316903">
        <ele>26.0929</ele>
        <time>2013-04-21T10:33:09Z</time>
      </trkpt>
      <trkpt lat="60.0025813" lon="17.7315394">
        <ele>26.5736</ele>
        <time>2013-04-21T10:33:10Z</time>
      </trkpt>
      <trkpt lat="60.0026293" lon="17.7313762">
        <ele>26.5736</ele>
        <time>2013-04-21T10:33:11Z</time>
      </trkpt>
      <trkpt lat="60.0026778" lon="17.7311107">
        <ele>27.0543</ele>
        <time>2013-04-21T10:33:12Z</time>
      </trkpt>
      <trkpt lat="60.0027271" lon="17.7309164">
        <ele>27.5349</ele>
        <time>2013-04-21T10:33:13Z</time>
      </trkpt>
      <trkpt lat="60.0027809" lon="17.7307596">
        <ele>27.5349</ele>
        <time>2013-04-21T10:33:14Z</time>
      </trkpt>
      <trkpt lat="60.0028403" lon="17.7306699">
        <ele>27.0543</ele>
        <time>2013-04-21T10:33:15Z</time>
      </trkpt>
      <trkpt lat="60.0029029" lon="17.7305914">
        <ele>27.0543</ele>
        <time>2013-04-21T10:33:16Z</time>
      </trkpt>
      <trkpt lat="60.0029672" lon="17.7305202">
        <ele>26.5736</ele>
        <time>2013-04-21T10:33:17Z</time>
      </trkpt>
      <trkpt lat="60.0030303" lon="17.7304288">
        <ele>26.0929</ele>
        <time>2013-04-21T10:33:18Z</time>
      </trkpt>
      <trkpt lat="60.0030918" lon="17.7303297">
        <ele>26.0929</ele>
        <time>2013-04-21T10:33:19Z</time>
      </trkpt>
      <trkpt lat="60.0031468" lon="17.7302285">
        <ele>26.0929</ele>
        <time>2013-04-21T10:33:20Z</time>
      </trkpt>
      <trkpt lat="60.0031966" lon="17.7301166">
        <ele>26.0929</ele>
        <time>2013-04-21T10:33:21Z</time>
      </trkpt>
      <trkpt lat="60.0032431" lon="17.7300338">
        <ele>24.651</ele>
        <time>2013-04-21T10:33:22Z</time>
      </trkpt>
      <trkpt lat="60.0032854" lon="17.7299535">
        <ele>22.7283</ele>
        <time>2013-04-21T10:33:23Z</time>
      </trkpt>
      <trkpt lat="60.0033333" lon="17.7298688">
        <ele>22.2476</ele>
        <time>2013-04-21T10:33:24Z</time>
      </trkpt>
      <trkpt lat="60.0033846" lon="17.7297852">
        <ele>20.8057</ele>
        <time>2013-04-21T10:33:25Z</time>
      </trkpt>
      <trkpt lat="60.0034415" lon="17.729698">
        <ele>20.325</ele>
        <time>2013-04-21T10:33:26Z</time>
      </trkpt>
      <trkpt lat="60.0034985" lon="17.7296063">
        <ele>20.325</ele>
        <time>2013-04-21T10:33:27Z</time>
      </trkpt>
      <trkpt lat="60.0035597" lon="17.7295142">
        <ele>20.325</ele>
        <time>2013-04-21T10:33:28Z</time>
      </trkpt>
      <trkpt lat="60.0036203" lon="17.7294221">
        <ele>20.325</ele>
        <time>2013-04-21T10:33:29Z</time>
      </trkpt>
      <trkpt lat="60.0036794" lon="17.7293395">
        <ele>20.325</ele>
        <time>2013-04-21T10:33:30Z</time>
      </trkpt>
      <trkpt lat="60.0037363" lon="17.7292473">
        <ele>20.325</ele>
        <time>2013-04-21T10:33:31Z</time>
      </trkpt>
      <trkpt lat="60.0037912" lon="17.7291609">
        <ele>20.8057</ele>
        <time>2013-04-21T10:33:32Z</time>
      </trkpt>
      <trkpt lat="60.003845" lon="17.7290786">
        <ele>21.2864</ele>
        <time>2013-04-21T10:33:33Z</time>
      </trkpt>
      <trkpt lat="60.0038972" lon="17.7290058">
        <ele>21.767</ele>
        <time>2013-04-21T10:33:34Z</time>
      </trkpt>
      <trkpt lat="60.0039451" lon="17.728931">
        <ele>22.2476</ele>
        <time>2013-04-21T10:33:35Z</time>
      </trkpt>
      <trkpt lat="60.0039814" lon="17.7288921">
        <ele>22.2476</ele>
        <time>2013-04-21T10:33:36Z</time>
      </trkpt>
      <trkpt lat="60.004013" lon="17.7288675">
        <ele>22.7283</ele>
        <time>2013-04-21T10:33:37Z</time>
      </trkpt>
      <trkpt lat="60.0040487" lon="17.7288382">
        <ele>24.651</ele>
        <time>2013-04-21T10:33:38Z</time>
      </trkpt>
      <trkpt lat="60.0040782" lon="17.7288045">
        <ele>26.0929</ele>
        <time>2013-04-21T10:33:39Z</time>
      </trkpt>
      <trkpt lat="60.0040992" lon="17.7287653">
        <ele>26.0929</ele>
        <time>2013-04-21T10:33:40Z</time>
      </trkpt>
      <trkpt lat="60.0040994" lon="17.7287066">
        <ele>24.651</ele>
        <time>2013-04-21T10:33:41Z</time>
      </trkpt>
      <trkpt lat="60.0040896" lon="17.7286422">
        <ele>23.209</ele>
        <time>2013-04-21T10:33:42Z</time>
      </trkpt>
      <trkpt lat="60.0040699" lon="17.7285791">
        <ele>22.7283</ele>
        <time>2013-04-21T10:33:43Z</time>
      </trkpt>
      <trkpt lat="60.0040518" lon="17.7285014">
        <ele>22.7283</ele>
        <time>2013-04-21T10:33:44Z</time>
      </trkpt>
      <trkpt lat="60.0040383" lon="17.7284274">
        <ele>22.2476</ele>
        <time>2013-04-21T10:33:45Z</time>
      </trkpt>
      <trkpt lat="60.0040332" lon="17.7283651">
        <ele>22.2476</ele>
        <time>2013-04-21T10:33:46Z</time>
      </trkpt>
      <trkpt lat="60.0040293" lon="17.7283607">
        <ele>20.8057</ele>
        <time>2013-04-21T10:33:47Z</time>
      </trkpt>
      <trkpt lat="60.0040415" lon="17.7283684">
        <ele>20.325</ele>
        <time>2013-04-21T10:33:48Z</time>
      </trkpt>
      <trkpt lat="60.0040526" lon="17.7283906">
        <ele>18.8831</ele>
        <time>2013-04-21T10:33:49Z</time>
      </trkpt>
      <trkpt lat="60.0040808" lon="17.7284159">
        <ele>19.8444</ele>
        <time>2013-04-21T10:33:50Z</time>
      </trkpt>
      <trkpt lat="60.004102" lon="17.7284518">
        <ele>19.8444</ele>
        <time>2013-04-21T10:33:51Z</time>
      </trkpt>
      <trkpt lat="60.0041317" lon="17.7284667">
        <ele>20.8057</ele>
        <time>2013-04-21T10:33:52Z</time>
      </trkpt>
      <trkpt lat="60.0041549" lon="17.7284643">
        <ele>22.2476</ele>
        <time>2013-04-21T10:33:53Z</time>
      </trkpt>
      <trkpt lat="60.0041749" lon="17.7284607">
        <ele>21.767</ele>
        <time>2013-04-21T10:33:54Z</time>
      </trkpt>
      <trkpt lat="60.0042119" lon="17.7284317">
        <ele>23.209</ele>
        <time>2013-04-21T10:33:55Z</time>
      </trkpt>
      <trkpt lat="60.004244" lon="17.7284137">
        <ele>24.651</ele>
        <time>2013-04-21T10:33:56Z</time>
      </trkpt>
      <trkpt lat="60.004279" lon="17.7284">
        <ele>25.6123</ele>
        <time>2013-04-21T10:33:57Z</time>
      </trkpt>
      <trkpt lat="60.0043096" lon="17.7283813">
        <ele>26.0929</ele>
        <time>2013-04-21T10:33:58Z</time>
      </trkpt>
      <trkpt lat="60.0043383" lon="17.7283548">
        <ele>26.0929</ele>
        <time>2013-04-21T10:33:59Z</time>
      </trkpt>
      <trkpt lat="60.0043679" lon="17.7283264">
        <ele>26.0929</ele>
        <time>2013-04-21T10:34:00Z</time>
      </trkpt>
      <trkpt lat="60.004419" lon="17.7283052">
        <ele>24.651</ele>
        <time>2013-04-21T10:34:01Z</time>
      </trkpt>
      <trkpt lat="60.0044761" lon="17.7282803">
        <ele>24.1703</ele>
        <time>2013-04-21T10:34:02Z</time>
      </trkpt>
      <trkpt lat="60.0045335" lon="17.7282441">
        <ele>24.651</ele>
        <time>2013-04-21T10:34:03Z</time>
      </trkpt>
      <trkpt lat="60.0045874" lon="17.7282166">
        <ele>23.6896</ele>
        <time>2013-04-21T10:34:04Z</time>
      </trkpt>
      <trkpt lat="60.0046459" lon="17.7282034">
        <ele>23.209</ele>
        <time>2013-04-21T10:34:05Z</time>
      </trkpt>
      <trkpt lat="60.0047058" lon="17.7281848">
        <ele>22.7283</ele>
        <time>2013-04-21T10:34:06Z</time>
      </trkpt>
      <trkpt lat="60.004763" lon="17.72817">
        <ele>21.767</ele>
        <time>2013-04-21T10:34:07Z</time>
      </trkpt>
      <trkpt lat="60.0048317" lon="17.7281392">
        <ele>22.7283</ele>
        <time>2013-04-21T10:34:08Z</time>
      </trkpt>
      <trkpt lat="60.0049016" lon="17.7281084">
        <ele>24.1703</ele>
        <time>2013-04-21T10:34:09Z</time>
      </trkpt>
      <trkpt lat="60.0049646" lon="17.7280793">
        <ele>25.1317</ele>
        <time>2013-04-21T10:34:10Z</time>
      </trkpt>
      <trkpt lat="60.0050288" lon="17.7280568">
        <ele>25.1317</ele>
        <time>2013-04-21T10:34:11Z</time>
      </trkpt>
      <trkpt lat="60.005092" lon="17.7280287">
        <ele>25.1317</ele>
        <time>2013-04-21T10:34:12Z</time>
      </trkpt>
      <trkpt lat="60.0051572" lon="17.7280094">
        <ele>26.5736</ele>
        <time>2013-04-21T10:34:13Z</time>
      </trkpt>
      <trkpt lat="60.0052184" lon="17.7279985">
        <ele>27.0543</ele>
        <time>2013-04-21T10:34:14Z</time>
      </trkpt>
      <trkpt lat="60.0052815" lon="17.7279995">
        <ele>27.0543</ele>
        <time>2013-04-21T10:34:15Z</time>
      </trkpt>
      <trkpt lat="60.0053448" lon="17.7280074">
        <ele>27.0543</ele>
        <time>2013-04-21T10:34:16Z</time>
      </trkpt>
      <trkpt lat="60.0054064" lon="17.7280274">
        <ele>27.0543</ele>
        <time>2013-04-21T10:34:17Z</time>
      </trkpt>
      <trkpt lat="60.0054701" lon="17.7280384">
        <ele>27.0543</ele>
        <time>2013-04-21T10:34:18Z</time>
      </trkpt>
      <trkpt lat="60.0055301" lon="17.7280527">
        <ele>27.5349</ele>
        <time>2013-04-21T10:34:19Z</time>
      </trkpt>
      <trkpt lat="60.0055965" lon="17.7280651">
        <ele>28.0155</ele>
        <time>2013-04-21T10:34:20Z</time>
      </trkpt>
      <trkpt lat="60.0056582" lon="17.7280796">
        <ele>28.0155</ele>
        <time>2013-04-21T10:34:21Z</time>
      </trkpt>
      <trkpt lat="60.0057208" lon="17.7280866">
        <ele>28.4962</ele>
        <time>2013-04-21T10:34:22Z</time>
      </trkpt>
      <trkpt lat="60.0057767" lon="17.728074">
        <ele>28.0155</ele>
        <time>2013-04-21T10:34:23Z</time>
      </trkpt>
      <trkpt lat="60.0058312" lon="17.7280367">
        <ele>28.4962</ele>
        <time>2013-04-21T10:34:24Z</time>
      </trkpt>
      <trkpt lat="60.0058833" lon="17.7279902">
        <ele>28.0155</ele>
        <time>2013-04-21T10:34:25Z</time>
      </trkpt>
      <trkpt lat="60.0059325" lon="17.7279213">
        <ele>27.5349</ele>
        <time>2013-04-21T10:34:26Z</time>
      </trkpt>
      <trkpt lat="60.0059813" lon="17.7278411">
        <ele>27.5349</ele>
        <time>2013-04-21T10:34:27Z</time>
      </trkpt>
      <trkpt lat="60.0060342" lon="17.7277856">
        <ele>27.0543</ele>
        <time>2013-04-21T10:34:28Z</time>
      </trkpt>
      <trkpt lat="60.0060938" lon="17.7277272">
        <ele>27.5349</ele>
        <time>2013-04-21T10:34:29Z</time>
      </trkpt>
      <trkpt lat="60.0061461" lon="17.7276768">
        <ele>27.5349</ele>
        <time>2013-04-21T10:34:30Z</time>
      </trkpt>
      <trkpt lat="60.006203" lon="17.7276262">
        <ele>28.0155</ele>
        <time>2013-04-21T10:34:31Z</time>
      </trkpt>
      <trkpt lat="60.0062638" lon="17.7275681">
        <ele>28.0155</ele>
        <time>2013-04-21T10:34:32Z</time>
      </trkpt>
      <trkpt lat="60.0063275" lon="17.7275081">
        <ele>28.0155</ele>
        <time>2013-04-21T10:34:33Z</time>
      </trkpt>
      <trkpt lat="60.0063927" lon="17.7274504">
        <ele>28.4962</ele>
        <time>2013-04-21T10:34:34Z</time>
      </trkpt>
      <trkpt lat="60.0064598" lon="17.7274116">
        <ele>28.9769</ele>
        <time>2013-04-21T10:34:35Z</time>
      </trkpt>
      <trkpt lat="60.0065221" lon="17.7273658">
        <ele>28.9769</ele>
        <time>2013-04-21T10:34:36Z</time>
      </trkpt>
      <trkpt lat="60.0065841" lon="17.727321">
        <ele>28.9769</ele>
        <time>2013-04-21T10:34:37Z</time>
      </trkpt>
      <trkpt lat="60.0066464" lon="17.7272769">
        <ele>28.4962</ele>
        <time>2013-04-21T10:34:38Z</time>
      </trkpt>
      <trkpt lat="60.0067015" lon="17.7272322">
        <ele>27.5349</ele>
        <time>2013-04-21T10:34:39Z</time>
      </trkpt>
      <trkpt lat="60.0067574" lon="17.7271884">
        <ele>27.0543</ele>
        <time>2013-04-21T10:34:40Z</time>
      </trkpt>
      <trkpt lat="60.0068149" lon="17.7271521">
        <ele>26.5736</ele>
        <time>2013-04-21T10:34:41Z</time>
      </trkpt>
      <trkpt lat="60.0068782" lon="17.7271236">
        <ele>26.5736</ele>
        <time>2013-04-21T10:34:42Z</time>
      </trkpt>
      <trkpt lat="60.0069397" lon="17.7271028">
        <ele>26.5736</ele>
        <time>2013-04-21T10:34:43Z</time>
      </trkpt>
      <trkpt lat="60.0070034" lon="17.7270755">
        <ele>26.5736</ele>
        <time>2013-04-21T10:34:44Z</time>
      </trkpt>
      <trkpt lat="60.0070634" lon="17.7270472">
        <ele>25.6123</ele>
        <time>2013-04-21T10:34:45Z</time>
      </trkpt>
      <trkpt lat="60.007123" lon="17.7270261">
        <ele>25.6123</ele>
        <time>2013-04-21T10:34:46Z</time>
      </trkpt>
      <trkpt lat="60.0071796" lon="17.7270023">
        <ele>25.1317</ele>
        <time>2013-04-21T10:34:47Z</time>
      </trkpt>
      <trkpt lat="60.0072348" lon="17.7269638">
        <ele>24.651</ele>
        <time>2013-04-21T10:34:48Z</time>
      </trkpt>
      <trkpt lat="60.0072923" lon="17.7269433">
        <ele>24.1703</ele>
        <time>2013-04-21T10:34:49Z</time>
      </trkpt>
      <trkpt lat="60.0073449" lon="17.7269138">
        <ele>23.6896</ele>
        <time>2013-04-21T10:34:50Z</time>
      </trkpt>
      <trkpt lat="60.0074049" lon="17.7268849">
        <ele>22.7283</ele>
        <time>2013-04-21T10:34:51Z</time>
      </trkpt>
      <trkpt lat="60.0074716" lon="17.7268554">
        <ele>21.2864</ele>
        <time>2013-04-21T10:34:52Z</time>
      </trkpt>
      <trkpt lat="60.0075473" lon="17.7268407">
        <ele>20.325</ele>
        <time>2013-04-21T10:34:53Z</time>
      </trkpt>
      <trkpt lat="60.0076286" lon="17.7268509">
        <ele>19.8444</ele>
        <time>2013-04-21T10:34:54Z</time>
      </trkpt>
      <trkpt lat="60.0077131" lon="17.7268826">
        <ele>18.8831</ele>
        <time>2013-04-21T10:34:55Z</time>
      </trkpt>
      <trkpt lat="60.007798" lon="17.7269324">
        <ele>18.8831</ele>
        <time>2013-04-21T10:34:56Z</time>
      </trkpt>
      <trkpt lat="60.0078814" lon="17.7269981">
        <ele>18.4023</ele>
        <time>2013-04-21T10:34:57Z</time>
      </trkpt>
      <trkpt lat="60.007962" lon="17.7270765">
        <ele>18.4023</ele>
        <time>2013-04-21T10:34:58Z</time>
      </trkpt>
      <trkpt lat="60.008039" lon="17.7271651">
        <ele>18.4023</ele>
        <time>2013-04-21T10:34:59Z</time>
      </trkpt>
      <trkpt lat="60.0081146" lon="17.727263">
        <ele>18.8831</ele>
        <time>2013-04-21T10:35:00Z</time>
      </trkpt>
      <trkpt lat="60.008185" lon="17.7273661">
        <ele>18.8831</ele>
        <time>2013-04-21T10:35:01Z</time>
      </trkpt>
      <trkpt lat="60.0082502" lon="17.7274696">
        <ele>18.8831</ele>
        <time>2013-04-21T10:35:02Z</time>
      </trkpt>
      <trkpt lat="60.0083117" lon="17.7275722">
        <ele>18.8831</ele>
        <time>2013-04-21T10:35:03Z</time>
      </trkpt>
      <trkpt lat="60.0083704" lon="17.7276719">
        <ele>18.8831</ele>
        <time>2013-04-21T10:35:04Z</time>
      </trkpt>
      <trkpt lat="60.008427" lon="17.7277623">
        <ele>18.8831</ele>
        <time>2013-04-21T10:35:05Z</time>
      </trkpt>
      <trkpt lat="60.0084834" lon="17.72784">
        <ele>18.8831</ele>
        <time>2013-04-21T10:35:06Z</time>
      </trkpt>
      <trkpt lat="60.0085383" lon="17.72791">
        <ele>18.4023</ele>
        <time>2013-04-21T10:35:07Z</time>
      </trkpt>
      <trkpt lat="60.0085921" lon="17.7279772">
        <ele>17.9218</ele>
        <time>2013-04-21T10:35:08Z</time>
      </trkpt>
      <trkpt lat="60.0086459" lon="17.7280429">
        <ele>17.9218</ele>
        <time>2013-04-21T10:35:09Z</time>
      </trkpt>
      <trkpt lat="60.0086964" lon="17.7281125">
        <ele>17.9218</ele>
        <time>2013-04-21T10:35:10Z</time>
      </trkpt>
      <trkpt lat="60.0087475" lon="17.728183">
        <ele>17.4412</ele>
        <time>2013-04-21T10:35:11Z</time>
      </trkpt>
      <trkpt lat="60.0087977" lon="17.7282589">
        <ele>17.9218</ele>
        <time>2013-04-21T10:35:12Z</time>
      </trkpt>
      <trkpt lat="60.0088452" lon="17.728342">
        <ele>17.9218</ele>
        <time>2013-04-21T10:35:13Z</time>
      </trkpt>
      <trkpt lat="60.0088888" lon="17.7284321">
        <ele>17.9218</ele>
        <time>2013-04-21T10:35:14Z</time>
      </trkpt>
      <trkpt lat="60.008929" lon="17.7285264">
        <ele>17.9218</ele>
        <time>2013-04-21T10:35:15Z</time>
      </trkpt>
      <trkpt lat="60.0089642" lon="17.7286248">
        <ele>17.9218</ele>
        <time>2013-04-21T10:35:16Z</time>
      </trkpt>
      <trkpt lat="60.0089982" lon="17.7287211">
        <ele>17.9218</ele>
        <time>2013-04-21T10:35:17Z</time>
      </trkpt>
      <trkpt lat="60.0090297" lon="17.7288222">
        <ele>17.9218</ele>
        <time>2013-04-21T10:35:18Z</time>
      </trkpt>
      <trkpt lat="60.0090602" lon="17.7289211">
        <ele>17.9218</ele>
        <time>2013-04-21T10:35:19Z</time>
      </trkpt>
      <trkpt lat="60.0090885" lon="17.729017">
        <ele>17.9218</ele>
        <time>2013-04-21T10:35:20Z</time>
      </trkpt>
      <trkpt lat="60.0091221" lon="17.7291106">
        <ele>18.8831</ele>
        <time>2013-04-21T10:35:21Z</time>
      </trkpt>
      <trkpt lat="60.0091536" lon="17.7292019">
        <ele>18.8831</ele>
        <time>2013-04-21T10:35:22Z</time>
      </trkpt>
      <trkpt lat="60.009184" lon="17.7292939">
        <ele>18.8831</ele>
        <time>2013-04-21T10:35:23Z</time>
      </trkpt>
      <trkpt lat="60.0092133" lon="17.7293816">
        <ele>19.3638</ele>
        <time>2013-04-21T10:35:24Z</time>
      </trkpt>
      <trkpt lat="60.0092522" lon="17.7294651">
        <ele>20.8057</ele>
        <time>2013-04-21T10:35:25Z</time>
      </trkpt>
      <trkpt lat="60.0092884" lon="17.729553">
        <ele>22.2476</ele>
        <time>2013-04-21T10:35:26Z</time>
      </trkpt>
      <trkpt lat="60.0093267" lon="17.7296383">
        <ele>23.6896</ele>
        <time>2013-04-21T10:35:27Z</time>
      </trkpt>
      <trkpt lat="60.0093671" lon="17.7297215">
        <ele>25.6123</ele>
        <time>2013-04-21T10:35:28Z</time>
      </trkpt>
      <trkpt lat="60.0094038" lon="17.7298054">
        <ele>27.0543</ele>
        <time>2013-04-21T10:35:29Z</time>
      </trkpt>
      <trkpt lat="60.0094364" lon="17.7298893">
        <ele>28.0155</ele>
        <time>2013-04-21T10:35:30Z</time>
      </trkpt>
      <trkpt lat="60.0094659" lon="17.7299726">
        <ele>28.4962</ele>
        <time>2013-04-21T10:35:31Z</time>
      </trkpt>
      <trkpt lat="60.0094986" lon="17.7300498">
        <ele>29.4575</ele>
        <time>2013-04-21T10:35:32Z</time>
      </trkpt>
      <trkpt lat="60.0095302" lon="17.7301217">
        <ele>30.4188</ele>
        <time>2013-04-21T10:35:33Z</time>
      </trkpt>
      <trkpt lat="60.0095562" lon="17.7301884">
        <ele>31.3801</ele>
        <time>2013-04-21T10:35:34Z</time>
      </trkpt>
      <trkpt lat="60.0095805" lon="17.7302584">
        <ele>31.3801</ele>
        <time>2013-04-21T10:35:35Z</time>
      </trkpt>
      <trkpt lat="60.0096015" lon="17.7303363">
        <ele>30.8995</ele>
        <time>2013-04-21T10:35:36Z</time>
      </trkpt>
      <trkpt lat="60.0096217" lon="17.7304039">
        <ele>31.3801</ele>
        <time>2013-04-21T10:35:37Z</time>
      </trkpt>
      <trkpt lat="60.0096425" lon="17.730471">
        <ele>31.3801</ele>
        <time>2013-04-21T10:35:38Z</time>
      </trkpt>
      <trkpt lat="60.0096706" lon="17.7305352">
        <ele>31.8607</ele>
        <time>2013-04-21T10:35:39Z</time>
      </trkpt>
      <trkpt lat="60.0097017" lon="17.7305974">
        <ele>32.3416</ele>
        <time>2013-04-21T10:35:40Z</time>
      </trkpt>
      <trkpt lat="60.0097349" lon="17.7306575">
        <ele>33.3029</ele>
        <time>2013-04-21T10:35:41Z</time>
      </trkpt>
      <trkpt lat="60.0097603" lon="17.7307199">
        <ele>33.7834</ele>
        <time>2013-04-21T10:35:42Z</time>
      </trkpt>
      <trkpt lat="60.0097839" lon="17.7307792">
        <ele>34.2642</ele>
        <time>2013-04-21T10:35:43Z</time>
      </trkpt>
      <trkpt lat="60.0097991" lon="17.7308351">
        <ele>34.7449</ele>
        <time>2013-04-21T10:35:44Z</time>
      </trkpt>
      <trkpt lat="60.0098199" lon="17.730889">
        <ele>35.2255</ele>
        <time>2013-04-21T10:35:45Z</time>
      </trkpt>
      <trkpt lat="60.0098424" lon="17.7309447">
        <ele>34.7449</ele>
        <time>2013-04-21T10:35:46Z</time>
      </trkpt>
      <trkpt lat="60.0098673" lon="17.7309988">
        <ele>34.7449</ele>
        <time>2013-04-21T10:35:47Z</time>
      </trkpt>
      <trkpt lat="60.0098959" lon="17.7310594">
        <ele>33.7834</ele>
        <time>2013-04-21T10:35:48Z</time>
      </trkpt>
      <trkpt lat="60.0099311" lon="17.7311216">
        <ele>32.3416</ele>
        <time>2013-04-21T10:35:49Z</time>
      </trkpt>
      <trkpt lat="60.0099706" lon="17.7311878">
        <ele>31.3801</ele>
        <time>2013-04-21T10:35:50Z</time>
      </trkpt>
      <trkpt lat="60.0100116" lon="17.7312552">
        <ele>30.4188</ele>
        <time>2013-04-21T10:35:51Z</time>
      </trkpt>
      <trkpt lat="60.010053" lon="17.7313208">
        <ele>29.9381</ele>
        <time>2013-04-21T10:35:52Z</time>
      </trkpt>
      <trkpt lat="60.0100953" lon="17.7313843">
        <ele>28.9769</ele>
        <time>2013-04-21T10:35:53Z</time>
      </trkpt>
      <trkpt lat="60.0101379" lon="17.7314469">
        <ele>28.0155</ele>
        <time>2013-04-21T10:35:54Z</time>
      </trkpt>
      <trkpt lat="60.0101829" lon="17.731507">
        <ele>27.5349</ele>
        <time>2013-04-21T10:35:55Z</time>
      </trkpt>
      <trkpt lat="60.0102299" lon="17.7315655">
        <ele>27.5349</ele>
        <time>2013-04-21T10:35:56Z</time>
      </trkpt>
      <trkpt lat="60.0102734" lon="17.7316282">
        <ele>27.5349</ele>
        <time>2013-04-21T10:35:57Z</time>
      </trkpt>
      <trkpt lat="60.010314" lon="17.7316943">
        <ele>27.0543</ele>
        <time>2013-04-21T10:35:58Z</time>
      </trkpt>
      <trkpt lat="60.0103569" lon="17.7317587">
        <ele>27.0543</ele>
        <time>2013-04-21T10:35:59Z</time>
      </trkpt>
      <trkpt lat="60.0104021" lon="17.731823">
        <ele>27.0543</ele>
        <time>2013-04-21T10:36:00Z</time>
      </trkpt>
      <trkpt lat="60.0104481" lon="17.7318882">
        <ele>27.0543</ele>
        <time>2013-04-21T10:36:01Z</time>
      </trkpt>
      <trkpt lat="60.0104958" lon="17.731952">
        <ele>27.0543</ele>
        <time>2013-04-21T10:36:02Z</time>
      </trkpt>
      <trkpt lat="60.0105439" lon="17.7320176">
        <ele>27.0543</ele>
        <time>2013-04-21T10:36:03Z</time>
      </trkpt>
      <trkpt lat="60.0105928" lon="17.7320815">
        <ele>27.0543</ele>
        <time>2013-04-21T10:36:04Z</time>
      </trkpt>
      <trkpt lat="60.0106393" lon="17.7321422">
        <ele>27.0543</ele>
        <time>2013-04-21T10:36:05Z</time>
      </trkpt>
      <trkpt lat="60.0106804" lon="17.7322107">
        <ele>27.0543</ele>
        <time>2013-04-21T10:36:06Z</time>
      </trkpt>
      <trkpt lat="60.0107153" lon="17.7322905">
        <ele>27.5349</ele>
        <time>2013-04-21T10:36:07Z</time>
      </trkpt>
      <trkpt lat="60.0107484" lon="17.7323685">
        <ele>28.0155</ele>
        <time>2013-04-21T10:36:08Z</time>
      </trkpt>
      <trkpt lat="60.0107842" lon="17.732439">
        <ele>28.0155</ele>
        <time>2013-04-21T10:36:09Z</time>
      </trkpt>
      <trkpt lat="60.0108238" lon="17.7325008">
        <ele>28.0155</ele>
        <time>2013-04-21T10:36:10Z</time>
      </trkpt>
      <trkpt lat="60.0108662" lon="17.7325566">
        <ele>28.0155</ele>
        <time>2013-04-21T10:36:11Z</time>
      </trkpt>
      <trkpt lat="60.0109124" lon="17.7326057">
        <ele>28.0155</ele>
        <time>2013-04-21T10:36:12Z</time>
      </trkpt>
      <trkpt lat="60.010961" lon="17.7326449">
        <ele>28.0155</ele>
        <time>2013-04-21T10:36:13Z</time>
      </trkpt>
      <trkpt lat="60.0110183" lon="17.7326795">
        <ele>28.9769</ele>
        <time>2013-04-21T10:36:14Z</time>
      </trkpt>
      <trkpt lat="60.011072" lon="17.7327076">
        <ele>28.9769</ele>
        <time>2013-04-21T10:36:15Z</time>
      </trkpt>
      <trkpt lat="60.0111262" lon="17.7327352">
        <ele>28.9769</ele>
        <time>2013-04-21T10:36:16Z</time>
      </trkpt>
      <trkpt lat="60.0111822" lon="17.732762">
        <ele>28.9769</ele>
        <time>2013-04-21T10:36:17Z</time>
      </trkpt>
      <trkpt lat="60.0112433" lon="17.7327813">
        <ele>28.9769</ele>
        <time>2013-04-21T10:36:18Z</time>
      </trkpt>
      <trkpt lat="60.0113069" lon="17.7327989">
        <ele>28.9769</ele>
        <time>2013-04-21T10:36:19Z</time>
      </trkpt>
      <trkpt lat="60.0113708" lon="17.7328142">
        <ele>28.9769</ele>
        <time>2013-04-21T10:36:20Z</time>
      </trkpt>
      <trkpt lat="60.0114341" lon="17.7328241">
        <ele>28.9769</ele>
        <time>2013-04-21T10:36:21Z</time>
      </trkpt>
      <trkpt lat="60.0114981" lon="17.7328291">
        <ele>28.9769</ele>
        <time>2013-04-21T10:36:22Z</time>
      </trkpt>
      <trkpt lat="60.0115613" lon="17.7328337">
        <ele>29.4575</ele>
        <time>2013-04-21T10:36:23Z</time>
      </trkpt>
      <trkpt lat="60.0116235" lon="17.7328379">
        <ele>29.9381</ele>
        <time>2013-04-21T10:36:24Z</time>
      </trkpt>
      <trkpt lat="60.011684" lon="17.732841">
        <ele>29.9381</ele>
        <time>2013-04-21T10:36:25Z</time>
      </trkpt>
      <trkpt lat="60.0117431" lon="17.7328429">
        <ele>29.9381</ele>
        <time>2013-04-21T10:36:26Z</time>
      </trkpt>
      <trkpt lat="60.0118054" lon="17.7328422">
        <ele>29.9381</ele>
        <time>2013-04-21T10:36:27Z</time>
      </trkpt>
      <trkpt lat="60.011864" lon="17.7328379">
        <ele>29.9381</ele>
        <time>2013-04-21T10:36:28Z</time>
      </trkpt>
      <trkpt lat="60.0119215" lon="17.7328311">
        <ele>30.4188</ele>
        <time>2013-04-21T10:36:29Z</time>
      </trkpt>
      <trkpt lat="60.0119773" lon="17.7328264">
        <ele>29.9381</ele>
        <time>2013-04-21T10:36:30Z</time>
      </trkpt>
      <trkpt lat="60.0120344" lon="17.7328173">
        <ele>30.4188</ele>
        <time>2013-04-21T10:36:31Z</time>
      </trkpt>
      <trkpt lat="60.0120919" lon="17.7328078">
        <ele>30.4188</ele>
        <time>2013-04-21T10:36:32Z</time>
      </trkpt>
      <trkpt lat="60.012155" lon="17.7327813">
        <ele>30.8995</ele>
        <time>2013-04-21T10:36:33Z</time>
      </trkpt>
      <trkpt lat="60.0122178" lon="17.7327549">
        <ele>30.8995</ele>
        <time>2013-04-21T10:36:34Z</time>
      </trkpt>
      <trkpt lat="60.01228" lon="17.7327339">
        <ele>30.8995</ele>
        <time>2013-04-21T10:36:35Z</time>
      </trkpt>
      <trkpt lat="60.0123415" lon="17.7327148">
        <ele>30.4188</ele>
        <time>2013-04-21T10:36:36Z</time>
      </trkpt>
      <trkpt lat="60.0124032" lon="17.7326942">
        <ele>30.4188</ele>
        <time>2013-04-21T10:36:37Z</time>
      </trkpt>
      <trkpt lat="60.0124646" lon="17.7326725">
        <ele>29.4575</ele>
        <time>2013-04-21T10:36:38Z</time>
      </trkpt>
      <trkpt lat="60.0125253" lon="17.7326518">
        <ele>28.9769</ele>
        <time>2013-04-21T10:36:39Z</time>
      </trkpt>
      <trkpt lat="60.0125853" lon="17.7326327">
        <ele>28.4962</ele>
        <time>2013-04-21T10:36:40Z</time>
      </trkpt>
      <trkpt lat="60.0126454" lon="17.7326129">
        <ele>28.0155</ele>
        <time>2013-04-21T10:36:41Z</time>
      </trkpt>
      <trkpt lat="60.0127025" lon="17.732593">
        <ele>27.5349</ele>
        <time>2013-04-21T10:36:42Z</time>
      </trkpt>
      <trkpt lat="60.0127627" lon="17.7325685">
        <ele>26.5736</ele>
        <time>2013-04-21T10:36:43Z</time>
      </trkpt>
      <trkpt lat="60.0128238" lon="17.732548">
        <ele>25.6123</ele>
        <time>2013-04-21T10:36:44Z</time>
      </trkpt>
      <trkpt lat="60.0128885" lon="17.7325293">
        <ele>25.1317</ele>
        <time>2013-04-21T10:36:45Z</time>
      </trkpt>
      <trkpt lat="60.0129555" lon="17.732514">
        <ele>24.1703</ele>
        <time>2013-04-21T10:36:46Z</time>
      </trkpt>
      <trkpt lat="60.0130242" lon="17.7325025">
        <ele>23.6896</ele>
        <time>2013-04-21T10:36:47Z</time>
      </trkpt>
      <trkpt lat="60.0130943" lon="17.7324958">
        <ele>22.7283</ele>
        <time>2013-04-21T10:36:48Z</time>
      </trkpt>
      <trkpt lat="60.0131671" lon="17.7324916">
        <ele>22.2476</ele>
        <time>2013-04-21T10:36:49Z</time>
      </trkpt>
      <trkpt lat="60.0132409" lon="17.7324912">
        <ele>21.767</ele>
        <time>2013-04-21T10:36:50Z</time>
      </trkpt>
      <trkpt lat="60.0133149" lon="17.7324964">
        <ele>21.2864</ele>
        <time>2013-04-21T10:36:51Z</time>
      </trkpt>
      <trkpt lat="60.01339" lon="17.7325052">
        <ele>20.8057</ele>
        <time>2013-04-21T10:36:52Z</time>
      </trkpt>
      <trkpt lat="60.0134666" lon="17.7325148">
        <ele>20.8057</ele>
        <time>2013-04-21T10:36:53Z</time>
      </trkpt>
      <trkpt lat="60.0135434" lon="17.7325263">
        <ele>20.325</ele>
        <time>2013-04-21T10:36:54Z</time>
      </trkpt>
      <trkpt lat="60.0136203" lon="17.7325399">
        <ele>19.8444</ele>
        <time>2013-04-21T10:36:55Z</time>
      </trkpt>
      <trkpt lat="60.0136965" lon="17.7325573">
        <ele>19.8444</ele>
        <time>2013-04-21T10:36:56Z</time>
      </trkpt>
      <trkpt lat="60.0137718" lon="17.7325776">
        <ele>19.8444</ele>
        <time>2013-04-21T10:36:57Z</time>
      </trkpt>
      <trkpt lat="60.0138474" lon="17.7325988">
        <ele>19.8444</ele>
        <time>2013-04-21T10:36:58Z</time>
      </trkpt>
      <trkpt lat="60.0139187" lon="17.7326229">
        <ele>19.8444</ele>
        <time>2013-04-21T10:36:59Z</time>
      </trkpt>
      <trkpt lat="60.0139873" lon="17.7326482">
        <ele>20.325</ele>
        <time>2013-04-21T10:37:00Z</time>
      </trkpt>
      <trkpt lat="60.0140535" lon="17.7326745">
        <ele>20.325</ele>
        <time>2013-04-21T10:37:01Z</time>
      </trkpt>
      <trkpt lat="60.0141167" lon="17.732702">
        <ele>20.325</ele>
        <time>2013-04-21T10:37:02Z</time>
      </trkpt>
      <trkpt lat="60.0141778" lon="17.7327314">
        <ele>20.8057</ele>
        <time>2013-04-21T10:37:03Z</time>
      </trkpt>
      <trkpt lat="60.0142378" lon="17.7327622">
        <ele>20.8057</ele>
        <time>2013-04-21T10:37:04Z</time>
      </trkpt>
      <trkpt lat="60.0142974" lon="17.7327968">
        <ele>20.8057</ele>
        <time>2013-04-21T10:37:05Z</time>
      </trkpt>
      <trkpt lat="60.0143569" lon="17.7328346">
        <ele>21.2864</ele>
        <time>2013-04-21T10:37:06Z</time>
      </trkpt>
      <trkpt lat="60.0144166" lon="17.732873">
        <ele>20.8057</ele>
        <time>2013-04-21T10:37:07Z</time>
      </trkpt>
      <trkpt lat="60.0144788" lon="17.7329144">
        <ele>20.8057</ele>
        <time>2013-04-21T10:37:08Z</time>
      </trkpt>
      <trkpt lat="60.0145418" lon="17.732965">
        <ele>20.8057</ele>
        <time>2013-04-21T10:37:09Z</time>
      </trkpt>
      <trkpt lat="60.0146056" lon="17.7330225">
        <ele>20.8057</ele>
        <time>2013-04-21T10:37:10Z</time>
      </trkpt>
      <trkpt lat="60.014668" lon="17.7330834">
        <ele>20.8057</ele>
        <time>2013-04-21T10:37:11Z</time>
      </trkpt>
      <trkpt lat="60.0147342" lon="17.7331426">
        <ele>20.8057</ele>
        <time>2013-04-21T10:37:12Z</time>
      </trkpt>
      <trkpt lat="60.0148011" lon="17.7332002">
        <ele>20.8057</ele>
        <time>2013-04-21T10:37:13Z</time>
      </trkpt>
      <trkpt lat="60.0148684" lon="17.7332514">
        <ele>20.8057</ele>
        <time>2013-04-21T10:37:14Z</time>
      </trkpt>
      <trkpt lat="60.0149382" lon="17.7332945">
        <ele>21.2864</ele>
        <time>2013-04-21T10:37:15Z</time>
      </trkpt>
      <trkpt lat="60.0150073" lon="17.7333324">
        <ele>21.2864</ele>
        <time>2013-04-21T10:37:16Z</time>
      </trkpt>
      <trkpt lat="60.0150775" lon="17.7333623">
        <ele>21.767</ele>
        <time>2013-04-21T10:37:17Z</time>
      </trkpt>
      <trkpt lat="60.0151469" lon="17.7333879">
        <ele>21.2864</ele>
        <time>2013-04-21T10:37:18Z</time>
      </trkpt>
      <trkpt lat="60.0152165" lon="17.7334103">
        <ele>21.767</ele>
        <time>2013-04-21T10:37:19Z</time>
      </trkpt>
      <trkpt lat="60.0152854" lon="17.7334338">
        <ele>21.767</ele>
        <time>2013-04-21T10:37:20Z</time>
      </trkpt>
      <trkpt lat="60.0153548" lon="17.7334567">
        <ele>22.2476</ele>
        <time>2013-04-21T10:37:21Z</time>
      </trkpt>
      <trkpt lat="60.0154245" lon="17.7334771">
        <ele>22.2476</ele>
        <time>2013-04-21T10:37:22Z</time>
      </trkpt>
      <trkpt lat="60.015494" lon="17.7334951">
        <ele>22.7283</ele>
        <time>2013-04-21T10:37:23Z</time>
      </trkpt>
      <trkpt lat="60.015563" lon="17.7335121">
        <ele>22.7283</ele>
        <time>2013-04-21T10:37:24Z</time>
      </trkpt>
      <trkpt lat="60.0156315" lon="17.7335265">
        <ele>23.209</ele>
        <time>2013-04-21T10:37:25Z</time>
      </trkpt>
      <trkpt lat="60.0156993" lon="17.7335397">
        <ele>23.209</ele>
        <time>2013-04-21T10:37:26Z</time>
      </trkpt>
      <trkpt lat="60.0157666" lon="17.7335551">
        <ele>23.6896</ele>
        <time>2013-04-21T10:37:27Z</time>
      </trkpt>
      <trkpt lat="60.015833" lon="17.7335703">
        <ele>23.6896</ele>
        <time>2013-04-21T10:37:28Z</time>
      </trkpt>
      <trkpt lat="60.0158981" lon="17.7335835">
        <ele>23.6896</ele>
        <time>2013-04-21T10:37:29Z</time>
      </trkpt>
      <trkpt lat="60.0159624" lon="17.7335949">
        <ele>24.651</ele>
        <time>2013-04-21T10:37:30Z</time>
      </trkpt>
      <trkpt lat="60.0160234" lon="17.7336132">
        <ele>24.651</ele>
        <time>2013-04-21T10:37:31Z</time>
      </trkpt>
      <trkpt lat="60.016084" lon="17.7336355">
        <ele>25.1317</ele>
        <time>2013-04-21T10:37:32Z</time>
      </trkpt>
      <trkpt lat="60.0161456" lon="17.7336575">
        <ele>25.1317</ele>
        <time>2013-04-21T10:37:33Z</time>
      </trkpt>
      <trkpt lat="60.0162083" lon="17.7336806">
        <ele>25.1317</ele>
        <time>2013-04-21T10:37:34Z</time>
      </trkpt>
      <trkpt lat="60.0162722" lon="17.7337037">
        <ele>25.1317</ele>
        <time>2013-04-21T10:37:35Z</time>
      </trkpt>
      <trkpt lat="60.0163395" lon="17.733726">
        <ele>25.1317</ele>
        <time>2013-04-21T10:37:36Z</time>
      </trkpt>
      <trkpt lat="60.0164068" lon="17.7337477">
        <ele>25.6123</ele>
        <time>2013-04-21T10:37:37Z</time>
      </trkpt>
      <trkpt lat="60.0164726" lon="17.7337681">
        <ele>25.6123</ele>
        <time>2013-04-21T10:37:38Z</time>
      </trkpt>
      <trkpt lat="60.0165374" lon="17.7337887">
        <ele>25.6123</ele>
        <time>2013-04-21T10:37:39Z</time>
      </trkpt>
      <trkpt lat="60.0166025" lon="17.7338091">
        <ele>25.6123</ele>
        <time>2013-04-21T10:37:40Z</time>
      </trkpt>
      <trkpt lat="60.0166675" lon="17.7338292">
        <ele>26.0929</ele>
        <time>2013-04-21T10:37:41Z</time>
      </trkpt>
      <trkpt lat="60.0167327" lon="17.73385">
        <ele>26.0929</ele>
        <time>2013-04-21T10:37:42Z</time>
      </trkpt>
      <trkpt lat="60.0167973" lon="17.7338707">
        <ele>26.5736</ele>
        <time>2013-04-21T10:37:43Z</time>
      </trkpt>
      <trkpt lat="60.016862" lon="17.7338909">
        <ele>26.5736</ele>
        <time>2013-04-21T10:37:44Z</time>
      </trkpt>
      <trkpt lat="60.0169263" lon="17.7339131">
        <ele>27.0543</ele>
        <time>2013-04-21T10:37:45Z</time>
      </trkpt>
      <trkpt lat="60.0169901" lon="17.7339375">
        <ele>27.0543</ele>
        <time>2013-04-21T10:37:46Z</time>
      </trkpt>
      <trkpt lat="60.0170541" lon="17.7339624">
        <ele>27.0543</ele>
        <time>2013-04-21T10:37:47Z</time>
      </trkpt>
      <trkpt lat="60.0171215" lon="17.7339855">
        <ele>27.5349</ele>
        <time>2013-04-21T10:37:48Z</time>
      </trkpt>
      <trkpt lat="60.0171886" lon="17.7340033">
        <ele>28.0155</ele>
        <time>2013-04-21T10:37:49Z</time>
      </trkpt>
      <trkpt lat="60.0172542" lon="17.7340207">
        <ele>28.4962</ele>
        <time>2013-04-21T10:37:50Z</time>
      </trkpt>
      <trkpt lat="60.0173195" lon="17.7340406">
        <ele>28.4962</ele>
        <time>2013-04-21T10:37:51Z</time>
      </trkpt>
      <trkpt lat="60.0173853" lon="17.7340617">
        <ele>28.4962</ele>
        <time>2013-04-21T10:37:52Z</time>
      </trkpt>
      <trkpt lat="60.0174512" lon="17.7340842">
        <ele>28.9769</ele>
        <time>2013-04-21T10:37:53Z</time>
      </trkpt>
      <trkpt lat="60.0175169" lon="17.7341106">
        <ele>28.9769</ele>
        <time>2013-04-21T10:37:54Z</time>
      </trkpt>
      <trkpt lat="60.0175827" lon="17.7341407">
        <ele>29.4575</ele>
        <time>2013-04-21T10:37:55Z</time>
      </trkpt>
      <trkpt lat="60.0176486" lon="17.7341743">
        <ele>29.4575</ele>
        <time>2013-04-21T10:37:56Z</time>
      </trkpt>
      <trkpt lat="60.0177142" lon="17.7342125">
        <ele>29.9381</ele>
        <time>2013-04-21T10:37:57Z</time>
      </trkpt>
      <trkpt lat="60.0177794" lon="17.734255">
        <ele>30.4188</ele>
        <time>2013-04-21T10:37:58Z</time>
      </trkpt>
      <trkpt lat="60.0178444" lon="17.7343011">
        <ele>30.4188</ele>
        <time>2013-04-21T10:37:59Z</time>
      </trkpt>
      <trkpt lat="60.0179054" lon="17.7343499">
        <ele>30.4188</ele>
        <time>2013-04-21T10:38:00Z</time>
      </trkpt>
      <trkpt lat="60.0179651" lon="17.7344016">
        <ele>30.4188</ele>
        <time>2013-04-21T10:38:01Z</time>
      </trkpt>
      <trkpt lat="60.0180233" lon="17.7344542">
        <ele>30.4188</ele>
        <time>2013-04-21T10:38:02Z</time>
      </trkpt>
      <trkpt lat="60.0180778" lon="17.7345095">
        <ele>30.4188</ele>
        <time>2013-04-21T10:38:03Z</time>
      </trkpt>
      <trkpt lat="60.0181296" lon="17.7345675">
        <ele>30.4188</ele>
        <time>2013-04-21T10:38:04Z</time>
      </trkpt>
      <trkpt lat="60.018179" lon="17.7346267">
        <ele>30.4188</ele>
        <time>2013-04-21T10:38:05Z</time>
      </trkpt>
      <trkpt lat="60.0182328" lon="17.7346827">
        <ele>30.4188</ele>
        <time>2013-04-21T10:38:06Z</time>
      </trkpt>
      <trkpt lat="60.0182861" lon="17.7347388">
        <ele>30.4188</ele>
        <time>2013-04-21T10:38:07Z</time>
      </trkpt>
      <trkpt lat="60.0183411" lon="17.7347935">
        <ele>30.8995</ele>
        <time>2013-04-21T10:38:08Z</time>
      </trkpt>
      <trkpt lat="60.018395" lon="17.7348507">
        <ele>30.4188</ele>
        <time>2013-04-21T10:38:09Z</time>
      </trkpt>
      <trkpt lat="60.0184505" lon="17.7349111">
        <ele>29.9381</ele>
        <time>2013-04-21T10:38:10Z</time>
      </trkpt>
      <trkpt lat="60.0185084" lon="17.7349709">
        <ele>29.4575</ele>
        <time>2013-04-21T10:38:11Z</time>
      </trkpt>
      <trkpt lat="60.0185695" lon="17.73503">
        <ele>28.9769</ele>
        <time>2013-04-21T10:38:12Z</time>
      </trkpt>
      <trkpt lat="60.0186315" lon="17.7350922">
        <ele>28.9769</ele>
        <time>2013-04-21T10:38:13Z</time>
      </trkpt>
      <trkpt lat="60.0186933" lon="17.7351588">
        <ele>28.9769</ele>
        <time>2013-04-21T10:38:14Z</time>
      </trkpt>
      <trkpt lat="60.0187527" lon="17.7352279">
        <ele>28.4962</ele>
        <time>2013-04-21T10:38:15Z</time>
      </trkpt>
      <trkpt lat="60.018809" lon="17.7353044">
        <ele>28.4962</ele>
        <time>2013-04-21T10:38:16Z</time>
      </trkpt>
      <trkpt lat="60.0188654" lon="17.7353878">
        <ele>28.0155</ele>
        <time>2013-04-21T10:38:17Z</time>
      </trkpt>
      <trkpt lat="60.0189227" lon="17.7354732">
        <ele>27.5349</ele>
        <time>2013-04-21T10:38:18Z</time>
      </trkpt>
      <trkpt lat="60.0189798" lon="17.7355589">
        <ele>27.0543</ele>
        <time>2013-04-21T10:38:19Z</time>
      </trkpt>
      <trkpt lat="60.01904" lon="17.7356469">
        <ele>27.0543</ele>
        <time>2013-04-21T10:38:20Z</time>
      </trkpt>
      <trkpt lat="60.0190973" lon="17.7357335">
        <ele>27.0543</ele>
        <time>2013-04-21T10:38:21Z</time>
      </trkpt>
      <trkpt lat="60.0191542" lon="17.7358197">
        <ele>27.0543</ele>
        <time>2013-04-21T10:38:22Z</time>
      </trkpt>
      <trkpt lat="60.0192104" lon="17.7359055">
        <ele>27.0543</ele>
        <time>2013-04-21T10:38:23Z</time>
      </trkpt>
      <trkpt lat="60.0192647" lon="17.7359917">
        <ele>26.5736</ele>
        <time>2013-04-21T10:38:24Z</time>
      </trkpt>
      <trkpt lat="60.0193205" lon="17.7360772">
        <ele>26.5736</ele>
        <time>2013-04-21T10:38:25Z</time>
      </trkpt>
      <trkpt lat="60.019377" lon="17.7361616">
        <ele>26.5736</ele>
        <time>2013-04-21T10:38:26Z</time>
      </trkpt>
      <trkpt lat="60.0194341" lon="17.7362468">
        <ele>26.0929</ele>
        <time>2013-04-21T10:38:27Z</time>
      </trkpt>
      <trkpt lat="60.019494" lon="17.736331">
        <ele>26.0929</ele>
        <time>2013-04-21T10:38:28Z</time>
      </trkpt>
      <trkpt lat="60.0195557" lon="17.7364134">
        <ele>25.6123</ele>
        <time>2013-04-21T10:38:29Z</time>
      </trkpt>
      <trkpt lat="60.019617" lon="17.7364952">
        <ele>25.6123</ele>
        <time>2013-04-21T10:38:30Z</time>
      </trkpt>
      <trkpt lat="60.0196781" lon="17.7365746">
        <ele>25.6123</ele>
        <time>2013-04-21T10:38:31Z</time>
      </trkpt>
      <trkpt lat="60.0197431" lon="17.7366566">
        <ele>25.6123</ele>
        <time>2013-04-21T10:38:32Z</time>
      </trkpt>
      <trkpt lat="60.0198058" lon="17.7367462">
        <ele>26.0929</ele>
        <time>2013-04-21T10:38:33Z</time>
      </trkpt>
      <trkpt lat="60.0198616" lon="17.7368407">
        <ele>26.0929</ele>
        <time>2013-04-21T10:38:34Z</time>
      </trkpt>
      <trkpt lat="60.0199154" lon="17.7369422">
        <ele>26.0929</ele>
        <time>2013-04-21T10:38:35Z</time>
      </trkpt>
      <trkpt lat="60.0199641" lon="17.7370549">
        <ele>25.6123</ele>
        <time>2013-04-21T10:38:36Z</time>
      </trkpt>
      <trkpt lat="60.0200149" lon="17.737175">
        <ele>26.5736</ele>
        <time>2013-04-21T10:38:37Z</time>
      </trkpt>
      <trkpt lat="60.0200576" lon="17.7372988">
        <ele>27.0543</ele>
        <time>2013-04-21T10:38:38Z</time>
      </trkpt>
      <trkpt lat="60.0200969" lon="17.737424">
        <ele>27.5349</ele>
        <time>2013-04-21T10:38:39Z</time>
      </trkpt>
      <trkpt lat="60.0201343" lon="17.7375502">
        <ele>27.5349</ele>
        <time>2013-04-21T10:38:40Z</time>
      </trkpt>
      <trkpt lat="60.0201711" lon="17.7376761">
        <ele>28.0155</ele>
        <time>2013-04-21T10:38:41Z</time>
      </trkpt>
      <trkpt lat="60.0202079" lon="17.7378013">
        <ele>28.0155</ele>
        <time>2013-04-21T10:38:42Z</time>
      </trkpt>
      <trkpt lat="60.0202448" lon="17.7379244">
        <ele>28.0155</ele>
        <time>2013-04-21T10:38:43Z</time>
      </trkpt>
      <trkpt lat="60.0202831" lon="17.7380458">
        <ele>28.0155</ele>
        <time>2013-04-21T10:38:44Z</time>
      </trkpt>
      <trkpt lat="60.0203221" lon="17.7381665">
        <ele>28.4962</ele>
        <time>2013-04-21T10:38:45Z</time>
      </trkpt>
      <trkpt lat="60.0203624" lon="17.7382836">
        <ele>28.4962</ele>
        <time>2013-04-21T10:38:46Z</time>
      </trkpt>
      <trkpt lat="60.0204029" lon="17.7383958">
        <ele>28.9769</ele>
        <time>2013-04-21T10:38:47Z</time>
      </trkpt>
      <trkpt lat="60.0204422" lon="17.7385033">
        <ele>28.9769</ele>
        <time>2013-04-21T10:38:48Z</time>
      </trkpt>
      <trkpt lat="60.020481" lon="17.7386048">
        <ele>28.9769</ele>
        <time>2013-04-21T10:38:49Z</time>
      </trkpt>
      <trkpt lat="60.0205209" lon="17.7387015">
        <ele>29.4575</ele>
        <time>2013-04-21T10:38:50Z</time>
      </trkpt>
      <trkpt lat="60.0205626" lon="17.738797">
        <ele>29.4575</ele>
        <time>2013-04-21T10:38:51Z</time>
      </trkpt>
      <trkpt lat="60.0206064" lon="17.738891">
        <ele>29.9381</ele>
        <time>2013-04-21T10:38:52Z</time>
      </trkpt>
      <trkpt lat="60.0206515" lon="17.7389844">
        <ele>29.4575</ele>
        <time>2013-04-21T10:38:53Z</time>
      </trkpt>
      <trkpt lat="60.0207017" lon="17.739074">
        <ele>29.4575</ele>
        <time>2013-04-21T10:38:54Z</time>
      </trkpt>
      <trkpt lat="60.0207545" lon="17.7391626">
        <ele>29.9381</ele>
        <time>2013-04-21T10:38:55Z</time>
      </trkpt>
      <trkpt lat="60.0208097" lon="17.7392466">
        <ele>29.9381</ele>
        <time>2013-04-21T10:38:56Z</time>
      </trkpt>
      <trkpt lat="60.0208649" lon="17.7393258">
        <ele>28.9769</ele>
        <time>2013-04-21T10:38:57Z</time>
      </trkpt>
      <trkpt lat="60.0209243" lon="17.7394075">
        <ele>28.4962</ele>
        <time>2013-04-21T10:38:58Z</time>
      </trkpt>
      <trkpt lat="60.0209867" lon="17.7394896">
        <ele>28.4962</ele>
        <time>2013-04-21T10:38:59Z</time>
      </trkpt>
      <trkpt lat="60.0210496" lon="17.7395694">
        <ele>28.0155</ele>
        <time>2013-04-21T10:39:00Z</time>
      </trkpt>
      <trkpt lat="60.0211109" lon="17.7396439">
        <ele>28.0155</ele>
        <time>2013-04-21T10:39:01Z</time>
      </trkpt>
      <trkpt lat="60.021172" lon="17.7397159">
        <ele>28.0155</ele>
        <time>2013-04-21T10:39:02Z</time>
      </trkpt>
      <trkpt lat="60.0212316" lon="17.7397837">
        <ele>28.0155</ele>
        <time>2013-04-21T10:39:03Z</time>
      </trkpt>
      <trkpt lat="60.0212843" lon="17.7398489">
        <ele>27.5349</ele>
        <time>2013-04-21T10:39:04Z</time>
      </trkpt>
      <trkpt lat="60.0213393" lon="17.7399138">
        <ele>28.0155</ele>
        <time>2013-04-21T10:39:05Z</time>
      </trkpt>
      <trkpt lat="60.0213968" lon="17.7399784">
        <ele>28.0155</ele>
        <time>2013-04-21T10:39:06Z</time>
      </trkpt>
      <trkpt lat="60.0214506" lon="17.7400429">
        <ele>28.0155</ele>
        <time>2013-04-21T10:39:07Z</time>
      </trkpt>
      <trkpt lat="60.0215051" lon="17.7401068">
        <ele>28.0155</ele>
        <time>2013-04-21T10:39:08Z</time>
      </trkpt>
      <trkpt lat="60.0215611" lon="17.7401679">
        <ele>27.5349</ele>
        <time>2013-04-21T10:39:09Z</time>
      </trkpt>
      <trkpt lat="60.0216175" lon="17.7402301">
        <ele>27.0543</ele>
        <time>2013-04-21T10:39:10Z</time>
      </trkpt>
      <trkpt lat="60.0216717" lon="17.7402888">
        <ele>26.5736</ele>
        <time>2013-04-21T10:39:11Z</time>
      </trkpt>
      <trkpt lat="60.0217245" lon="17.7403448">
        <ele>26.0929</ele>
        <time>2013-04-21T10:39:12Z</time>
      </trkpt>
      <trkpt lat="60.0217739" lon="17.7403985">
        <ele>25.6123</ele>
        <time>2013-04-21T10:39:13Z</time>
      </trkpt>
      <trkpt lat="60.0218215" lon="17.7404526">
        <ele>24.651</ele>
        <time>2013-04-21T10:39:14Z</time>
      </trkpt>
      <trkpt lat="60.0218694" lon="17.7405046">
        <ele>24.1703</ele>
        <time>2013-04-21T10:39:15Z</time>
      </trkpt>
      <trkpt lat="60.0219193" lon="17.7405565">
        <ele>24.1703</ele>
        <time>2013-04-21T10:39:16Z</time>
      </trkpt>
      <trkpt lat="60.0219681" lon="17.7406084">
        <ele>23.6896</ele>
        <time>2013-04-21T10:39:17Z</time>
      </trkpt>
      <trkpt lat="60.0220179" lon="17.7406602">
        <ele>23.6896</ele>
        <time>2013-04-21T10:39:18Z</time>
      </trkpt>
      <trkpt lat="60.0220651" lon="17.7407135">
        <ele>23.209</ele>
        <time>2013-04-21T10:39:19Z</time>
      </trkpt>
      <trkpt lat="60.0221105" lon="17.7407705">
        <ele>22.7283</ele>
        <time>2013-04-21T10:39:20Z</time>
      </trkpt>
      <trkpt lat="60.0221553" lon="17.7408291">
        <ele>22.2476</ele>
        <time>2013-04-21T10:39:21Z</time>
      </trkpt>
      <trkpt lat="60.0222001" lon="17.7408882">
        <ele>22.2476</ele>
        <time>2013-04-21T10:39:22Z</time>
      </trkpt>
      <trkpt lat="60.0222441" lon="17.7409512">
        <ele>22.7283</ele>
        <time>2013-04-21T10:39:23Z</time>
      </trkpt>
      <trkpt lat="60.0222857" lon="17.741018">
        <ele>22.7283</ele>
        <time>2013-04-21T10:39:24Z</time>
      </trkpt>
      <trkpt lat="60.0223368" lon="17.7410849">
        <ele>23.6896</ele>
        <time>2013-04-21T10:39:25Z</time>
      </trkpt>
      <trkpt lat="60.0223774" lon="17.741147">
        <ele>23.6896</ele>
        <time>2013-04-21T10:39:26Z</time>
      </trkpt>
      <trkpt lat="60.0224178" lon="17.7411993">
        <ele>23.6896</ele>
        <time>2013-04-21T10:39:27Z</time>
      </trkpt>
      <trkpt lat="60.0224625" lon="17.7412249">
        <ele>23.6896</ele>
        <time>2013-04-21T10:39:28Z</time>
      </trkpt>
      <trkpt lat="60.0225078" lon="17.7412102">
        <ele>23.6896</ele>
        <time>2013-04-21T10:39:29Z</time>
      </trkpt>
      <trkpt lat="60.022549" lon="17.7411482">
        <ele>23.6896</ele>
        <time>2013-04-21T10:39:30Z</time>
      </trkpt>
      <trkpt lat="60.0225805" lon="17.7410632">
        <ele>23.209</ele>
        <time>2013-04-21T10:39:31Z</time>
      </trkpt>
      <trkpt lat="60.0226062" lon="17.7409633">
        <ele>23.209</ele>
        <time>2013-04-21T10:39:32Z</time>
      </trkpt>
      <trkpt lat="60.022624" lon="17.740851">
        <ele>23.209</ele>
        <time>2013-04-21T10:39:33Z</time>
      </trkpt>
      <trkpt lat="60.0226388" lon="17.7407322">
        <ele>22.7283</ele>
        <time>2013-04-21T10:39:34Z</time>
      </trkpt>
      <trkpt lat="60.0226502" lon="17.7406089">
        <ele>22.7283</ele>
        <time>2013-04-21T10:39:35Z</time>
      </trkpt>
      <trkpt lat="60.0226595" lon="17.7404789">
        <ele>22.7283</ele>
        <time>2013-04-21T10:39:36Z</time>
      </trkpt>
      <trkpt lat="60.0226695" lon="17.7403447">
        <ele>22.7283</ele>
        <time>2013-04-21T10:39:37Z</time>
      </trkpt>
      <trkpt lat="60.0226815" lon="17.7402083">
        <ele>22.7283</ele>
        <time>2013-04-21T10:39:38Z</time>
      </trkpt>
      <trkpt lat="60.0226946" lon="17.7400693">
        <ele>22.7283</ele>
        <time>2013-04-21T10:39:39Z</time>
      </trkpt>
      <trkpt lat="60.0227077" lon="17.7399273">
        <ele>22.7283</ele>
        <time>2013-04-21T10:39:40Z</time>
      </trkpt>
      <trkpt lat="60.0227205" lon="17.7397832">
        <ele>22.7283</ele>
        <time>2013-04-21T10:39:41Z</time>
      </trkpt>
      <trkpt lat="60.0227333" lon="17.7396381">
        <ele>22.7283</ele>
        <time>2013-04-21T10:39:42Z</time>
      </trkpt>
      <trkpt lat="60.0227452" lon="17.7394917">
        <ele>22.2476</ele>
        <time>2013-04-21T10:39:43Z</time>
      </trkpt>
      <trkpt lat="60.0227566" lon="17.7393444">
        <ele>22.2476</ele>
        <time>2013-04-21T10:39:44Z</time>
      </trkpt>
      <trkpt lat="60.0227679" lon="17.7391967">
        <ele>22.2476</ele>
        <time>2013-04-21T10:39:45Z</time>
      </trkpt>
      <trkpt lat="60.0227788" lon="17.7390492">
        <ele>22.2476</ele>
        <time>2013-04-21T10:39:46Z</time>
      </trkpt>
      <trkpt lat="60.0227894" lon="17.7389026">
        <ele>21.767</ele>
        <time>2013-04-21T10:39:47Z</time>
      </trkpt>
      <trkpt lat="60.0228005" lon="17.7387575">
        <ele>21.767</ele>
        <time>2013-04-21T10:39:48Z</time>
      </trkpt>
      <trkpt lat="60.0228113" lon="17.7386146">
        <ele>21.767</ele>
        <time>2013-04-21T10:39:49Z</time>
      </trkpt>
      <trkpt lat="60.0228212" lon="17.7384728">
        <ele>21.767</ele>
        <time>2013-04-21T10:39:50Z</time>
      </trkpt>
      <trkpt lat="60.022831" lon="17.7383312">
        <ele>21.2864</ele>
        <time>2013-04-21T10:39:51Z</time>
      </trkpt>
      <trkpt lat="60.0228417" lon="17.738191">
        <ele>21.2864</ele>
        <time>2013-04-21T10:39:52Z</time>
      </trkpt>
      <trkpt lat="60.0228513" lon="17.7380505">
        <ele>20.8057</ele>
        <time>2013-04-21T10:39:53Z</time>
      </trkpt>
      <trkpt lat="60.0228595" lon="17.737908">
        <ele>20.8057</ele>
        <time>2013-04-21T10:39:54Z</time>
      </trkpt>
      <trkpt lat="60.0228684" lon="17.737763">
        <ele>20.8057</ele>
        <time>2013-04-21T10:39:55Z</time>
      </trkpt>
      <trkpt lat="60.0228788" lon="17.7376215">
        <ele>20.325</ele>
        <time>2013-04-21T10:39:56Z</time>
      </trkpt>
      <trkpt lat="60.02289" lon="17.7374742">
        <ele>20.325</ele>
        <time>2013-04-21T10:39:57Z</time>
      </trkpt>
      <trkpt lat="60.0229036" lon="17.7373261">
        <ele>20.325</ele>
        <time>2013-04-21T10:39:58Z</time>
      </trkpt>
      <trkpt lat="60.0229191" lon="17.7371769">
        <ele>19.8444</ele>
        <time>2013-04-21T10:39:59Z</time>
      </trkpt>
      <trkpt lat="60.0229338" lon="17.7370274">
        <ele>19.8444</ele>
        <time>2013-04-21T10:40:00Z</time>
      </trkpt>
      <trkpt lat="60.0229466" lon="17.7368806">
        <ele>19.8444</ele>
        <time>2013-04-21T10:40:01Z</time>
      </trkpt>
      <trkpt lat="60.0229587" lon="17.7367366">
        <ele>19.8444</ele>
        <time>2013-04-21T10:40:02Z</time>
      </trkpt>
      <trkpt lat="60.022972" lon="17.7365955">
        <ele>19.8444</ele>
        <time>2013-04-21T10:40:03Z</time>
      </trkpt>
      <trkpt lat="60.0229841" lon="17.7364564">
        <ele>19.8444</ele>
        <time>2013-04-21T10:40:04Z</time>
      </trkpt>
      <trkpt lat="60.0229947" lon="17.7363175">
        <ele>19.8444</ele>
        <time>2013-04-21T10:40:05Z</time>
      </trkpt>
      <trkpt lat="60.0230046" lon="17.7361779">
        <ele>19.8444</ele>
        <time>2013-04-21T10:40:06Z</time>
      </trkpt>
      <trkpt lat="60.023016" lon="17.7360399">
        <ele>19.8444</ele>
        <time>2013-04-21T10:40:07Z</time>
      </trkpt>
      <trkpt lat="60.0230292" lon="17.7359032">
        <ele>19.3638</ele>
        <time>2013-04-21T10:40:08Z</time>
      </trkpt>
      <trkpt lat="60.023042" lon="17.735765">
        <ele>19.3638</ele>
        <time>2013-04-21T10:40:09Z</time>
      </trkpt>
      <trkpt lat="60.0230541" lon="17.7356271">
        <ele>19.3638</ele>
        <time>2013-04-21T10:40:10Z</time>
      </trkpt>
      <trkpt lat="60.0230679" lon="17.7354887">
        <ele>19.8444</ele>
        <time>2013-04-21T10:40:11Z</time>
      </trkpt>
      <trkpt lat="60.0230819" lon="17.7353502">
        <ele>19.8444</ele>
        <time>2013-04-21T10:40:12Z</time>
      </trkpt>
      <trkpt lat="60.0230962" lon="17.7352117">
        <ele>20.325</ele>
        <time>2013-04-21T10:40:13Z</time>
      </trkpt>
      <trkpt lat="60.0231104" lon="17.7350759">
        <ele>20.325</ele>
        <time>2013-04-21T10:40:14Z</time>
      </trkpt>
      <trkpt lat="60.0231253" lon="17.734944">
        <ele>20.8057</ele>
        <time>2013-04-21T10:40:15Z</time>
      </trkpt>
      <trkpt lat="60.0231415" lon="17.7348158">
        <ele>20.8057</ele>
        <time>2013-04-21T10:40:16Z</time>
      </trkpt>
      <trkpt lat="60.0231576" lon="17.7346903">
        <ele>20.325</ele>
        <time>2013-04-21T10:40:17Z</time>
      </trkpt>
      <trkpt lat="60.0231727" lon="17.7345649">
        <ele>20.325</ele>
        <time>2013-04-21T10:40:18Z</time>
      </trkpt>
      <trkpt lat="60.0231865" lon="17.734441">
        <ele>19.8444</ele>
        <time>2013-04-21T10:40:19Z</time>
      </trkpt>
      <trkpt lat="60.0232012" lon="17.7343165">
        <ele>19.8444</ele>
        <time>2013-04-21T10:40:20Z</time>
      </trkpt>
      <trkpt lat="60.0232136" lon="17.7341918">
        <ele>18.8831</ele>
        <time>2013-04-21T10:40:21Z</time>
      </trkpt>
      <trkpt lat="60.0232291" lon="17.7340643">
        <ele>18.8831</ele>
        <time>2013-04-21T10:40:22Z</time>
      </trkpt>
      <trkpt lat="60.0232456" lon="17.7339359">
        <ele>18.4023</ele>
        <time>2013-04-21T10:40:23Z</time>
      </trkpt>
      <trkpt lat="60.0232617" lon="17.7338074">
        <ele>17.9218</ele>
        <time>2013-04-21T10:40:24Z</time>
      </trkpt>
      <trkpt lat="60.0232772" lon="17.7336796">
        <ele>17.4412</ele>
        <time>2013-04-21T10:40:25Z</time>
      </trkpt>
      <trkpt lat="60.0232911" lon="17.7335536">
        <ele>17.4412</ele>
        <time>2013-04-21T10:40:26Z</time>
      </trkpt>
      <trkpt lat="60.023303" lon="17.7334297">
        <ele>17.4412</ele>
        <time>2013-04-21T10:40:27Z</time>
      </trkpt>
      <trkpt lat="60.0233148" lon="17.7333089">
        <ele>16.9604</ele>
        <time>2013-04-21T10:40:28Z</time>
      </trkpt>
      <trkpt lat="60.0233233" lon="17.7331879">
        <ele>16.9604</ele>
        <time>2013-04-21T10:40:29Z</time>
      </trkpt>
      <trkpt lat="60.0233283" lon="17.7330661">
        <ele>16.9604</ele>
        <time>2013-04-21T10:40:30Z</time>
      </trkpt>
      <trkpt lat="60.0233302" lon="17.7329435">
        <ele>16.9604</ele>
        <time>2013-04-21T10:40:31Z</time>
      </trkpt>
      <trkpt lat="60.0233284" lon="17.7328223">
        <ele>16.9604</ele>
        <time>2013-04-21T10:40:32Z</time>
      </trkpt>
      <trkpt lat="60.0233223" lon="17.7327031">
        <ele>16.9604</ele>
        <time>2013-04-21T10:40:33Z</time>
      </trkpt>
      <trkpt lat="60.0233136" lon="17.7325865">
        <ele>16.9604</ele>
        <time>2013-04-21T10:40:34Z</time>
      </trkpt>
      <trkpt lat="60.0233" lon="17.732472">
        <ele>16.9604</ele>
        <time>2013-04-21T10:40:35Z</time>
      </trkpt>
      <trkpt lat="60.0232788" lon="17.732356">
        <ele>16.9604</ele>
        <time>2013-04-21T10:40:36Z</time>
      </trkpt>
      <trkpt lat="60.0232533" lon="17.7322409">
        <ele>16.4797</ele>
        <time>2013-04-21T10:40:37Z</time>
      </trkpt>
      <trkpt lat="60.0232252" lon="17.732127">
        <ele>16.4797</ele>
        <time>2013-04-21T10:40:38Z</time>
      </trkpt>
      <trkpt lat="60.0231939" lon="17.73201">
        <ele>15.999</ele>
        <time>2013-04-21T10:40:39Z</time>
      </trkpt>
      <trkpt lat="60.0231605" lon="17.7318996">
        <ele>15.999</ele>
        <time>2013-04-21T10:40:40Z</time>
      </trkpt>
      <trkpt lat="60.0231227" lon="17.7317929">
        <ele>15.5184</ele>
        <time>2013-04-21T10:40:41Z</time>
      </trkpt>
      <trkpt lat="60.0230807" lon="17.7316896">
        <ele>15.5184</ele>
        <time>2013-04-21T10:40:42Z</time>
      </trkpt>
      <trkpt lat="60.0230327" lon="17.7315754">
        <ele>15.5184</ele>
        <time>2013-04-21T10:40:43Z</time>
      </trkpt>
      <trkpt lat="60.0229814" lon="17.7314644">
        <ele>15.5184</ele>
        <time>2013-04-21T10:40:44Z</time>
      </trkpt>
      <trkpt lat="60.0229296" lon="17.731355">
        <ele>15.5184</ele>
        <time>2013-04-21T10:40:45Z</time>
      </trkpt>
      <trkpt lat="60.0228795" lon="17.7312443">
        <ele>15.5184</ele>
        <time>2013-04-21T10:40:46Z</time>
      </trkpt>
      <trkpt lat="60.0228328" lon="17.7311377">
        <ele>15.0377</ele>
        <time>2013-04-21T10:40:47Z</time>
      </trkpt>
      <trkpt lat="60.022785" lon="17.7310289">
        <ele>15.0377</ele>
        <time>2013-04-21T10:40:48Z</time>
      </trkpt>
      <trkpt lat="60.0227362" lon="17.730921">
        <ele>14.0764</ele>
        <time>2013-04-21T10:40:49Z</time>
      </trkpt>
      <trkpt lat="60.0226862" lon="17.7308096">
        <ele>14.0764</ele>
        <time>2013-04-21T10:40:50Z</time>
      </trkpt>
      <trkpt lat="60.022635" lon="17.7306896">
        <ele>13.5958</ele>
        <time>2013-04-21T10:40:51Z</time>
      </trkpt>
      <trkpt lat="60.0225857" lon="17.7305628">
        <ele>13.5958</ele>
        <time>2013-04-21T10:40:52Z</time>
      </trkpt>
      <trkpt lat="60.0225384" lon="17.7304272">
        <ele>13.1151</ele>
        <time>2013-04-21T10:40:53Z</time>
      </trkpt>
      <trkpt lat="60.0224958" lon="17.7302881">
        <ele>12.6344</ele>
        <time>2013-04-21T10:40:54Z</time>
      </trkpt>
      <trkpt lat="60.0224546" lon="17.7301425">
        <ele>12.1538</ele>
        <time>2013-04-21T10:40:55Z</time>
      </trkpt>
      <trkpt lat="60.0223961" lon="17.7300384">
        <ele>11.6732</ele>
        <time>2013-04-21T10:40:56Z</time>
      </trkpt>
      <trkpt lat="60.0223634" lon="17.7298199">
        <ele>11.1925</ele>
        <time>2013-04-21T10:40:57Z</time>
      </trkpt>
      <trkpt lat="60.022356" lon="17.7295673">
        <ele>10.7118</ele>
        <time>2013-04-21T10:40:58Z</time>
      </trkpt>
      <trkpt lat="60.0223435" lon="17.7294106">
        <ele>11.6732</ele>
        <time>2013-04-21T10:40:59Z</time>
      </trkpt>
      <trkpt lat="60.0223373" lon="17.7292485">
        <ele>12.1538</ele>
        <time>2013-04-21T10:41:00Z</time>
      </trkpt>
      <trkpt lat="60.0223394" lon="17.72911">
        <ele>13.5958</ele>
        <time>2013-04-21T10:41:01Z</time>
      </trkpt>
      <trkpt lat="60.0223442" lon="17.7289733">
        <ele>15.0377</ele>
        <time>2013-04-21T10:41:02Z</time>
      </trkpt>
      <trkpt lat="60.0223553" lon="17.7288421">
        <ele>15.999</ele>
        <time>2013-04-21T10:41:03Z</time>
      </trkpt>
      <trkpt lat="60.0223679" lon="17.7287021">
        <ele>15.999</ele>
        <time>2013-04-21T10:41:04Z</time>
      </trkpt>
      <trkpt lat="60.0223768" lon="17.7285734">
        <ele>17.4412</ele>
        <time>2013-04-21T10:41:05Z</time>
      </trkpt>
      <trkpt lat="60.0223878" lon="17.7284366">
        <ele>17.4412</ele>
        <time>2013-04-21T10:41:06Z</time>
      </trkpt>
      <trkpt lat="60.0223956" lon="17.7283067">
        <ele>17.9218</ele>
        <time>2013-04-21T10:41:07Z</time>
      </trkpt>
      <trkpt lat="60.0224032" lon="17.728185">
        <ele>18.4023</ele>
        <time>2013-04-21T10:41:08Z</time>
      </trkpt>
      <trkpt lat="60.0224101" lon="17.7280626">
        <ele>18.8831</ele>
        <time>2013-04-21T10:41:09Z</time>
      </trkpt>
      <trkpt lat="60.0224163" lon="17.727941">
        <ele>19.3638</ele>
        <time>2013-04-21T10:41:10Z</time>
      </trkpt>
      <trkpt lat="60.0224198" lon="17.7278198">
        <ele>19.8444</ele>
        <time>2013-04-21T10:41:11Z</time>
      </trkpt>
      <trkpt lat="60.0224236" lon="17.7277016">
        <ele>20.325</ele>
        <time>2013-04-21T10:41:12Z</time>
      </trkpt>
      <trkpt lat="60.0224319" lon="17.7275861">
        <ele>20.325</ele>
        <time>2013-04-21T10:41:13Z</time>
      </trkpt>
      <trkpt lat="60.0224399" lon="17.7274663">
        <ele>20.8057</ele>
        <time>2013-04-21T10:41:14Z</time>
      </trkpt>
      <trkpt lat="60.0224463" lon="17.7273422">
        <ele>21.2864</ele>
        <time>2013-04-21T10:41:15Z</time>
      </trkpt>
      <trkpt lat="60.0224505" lon="17.7272099">
        <ele>21.2864</ele>
        <time>2013-04-21T10:41:16Z</time>
      </trkpt>
      <trkpt lat="60.0224506" lon="17.7270765">
        <ele>21.767</ele>
        <time>2013-04-21T10:41:17Z</time>
      </trkpt>
      <trkpt lat="60.0224478" lon="17.7269465">
        <ele>21.767</ele>
        <time>2013-04-21T10:41:18Z</time>
      </trkpt>
      <trkpt lat="60.0224432" lon="17.7268178">
        <ele>21.2864</ele>
        <time>2013-04-21T10:41:19Z</time>
      </trkpt>
      <trkpt lat="60.0224413" lon="17.7266839">
        <ele>21.767</ele>
        <time>2013-04-21T10:41:20Z</time>
      </trkpt>
      <trkpt lat="60.0224385" lon="17.7265513">
        <ele>22.2476</ele>
        <time>2013-04-21T10:41:21Z</time>
      </trkpt>
      <trkpt lat="60.0224329" lon="17.7264205">
        <ele>22.2476</ele>
        <time>2013-04-21T10:41:22Z</time>
      </trkpt>
      <trkpt lat="60.0224292" lon="17.7262901">
        <ele>22.7283</ele>
        <time>2013-04-21T10:41:23Z</time>
      </trkpt>
      <trkpt lat="60.0224231" lon="17.7261631">
        <ele>22.7283</ele>
        <time>2013-04-21T10:41:24Z</time>
      </trkpt>
      <trkpt lat="60.0224163" lon="17.7260332">
        <ele>22.7283</ele>
        <time>2013-04-21T10:41:25Z</time>
      </trkpt>
      <trkpt lat="60.0224079" lon="17.7259062">
        <ele>22.7283</ele>
        <time>2013-04-21T10:41:26Z</time>
      </trkpt>
      <trkpt lat="60.0223987" lon="17.7257836">
        <ele>22.7283</ele>
        <time>2013-04-21T10:41:27Z</time>
      </trkpt>
      <trkpt lat="60.0223893" lon="17.7256617">
        <ele>22.7283</ele>
        <time>2013-04-21T10:41:28Z</time>
      </trkpt>
      <trkpt lat="60.0223812" lon="17.7255414">
        <ele>22.7283</ele>
        <time>2013-04-21T10:41:29Z</time>
      </trkpt>
      <trkpt lat="60.0223715" lon="17.7254248">
        <ele>23.209</ele>
        <time>2013-04-21T10:41:30Z</time>
      </trkpt>
      <trkpt lat="60.0223601" lon="17.7253127">
        <ele>22.7283</ele>
        <time>2013-04-21T10:41:31Z</time>
      </trkpt>
      <trkpt lat="60.0223485" lon="17.7251982">
        <ele>23.209</ele>
        <time>2013-04-21T10:41:32Z</time>
      </trkpt>
      <trkpt lat="60.0223363" lon="17.7250847">
        <ele>23.209</ele>
        <time>2013-04-21T10:41:33Z</time>
      </trkpt>
      <trkpt lat="60.0223223" lon="17.7249702">
        <ele>23.209</ele>
        <time>2013-04-21T10:41:34Z</time>
      </trkpt>
      <trkpt lat="60.0223059" lon="17.7248562">
        <ele>23.209</ele>
        <time>2013-04-21T10:41:35Z</time>
      </trkpt>
      <trkpt lat="60.0222893" lon="17.7247452">
        <ele>23.6896</ele>
        <time>2013-04-21T10:41:36Z</time>
      </trkpt>
      <trkpt lat="60.0222765" lon="17.7246345">
        <ele>23.6896</ele>
        <time>2013-04-21T10:41:37Z</time>
      </trkpt>
      <trkpt lat="60.0222656" lon="17.7245278">
        <ele>23.6896</ele>
        <time>2013-04-21T10:41:38Z</time>
      </trkpt>
      <trkpt lat="60.0222557" lon="17.7244238">
        <ele>24.1703</ele>
        <time>2013-04-21T10:41:39Z</time>
      </trkpt>
      <trkpt lat="60.0222462" lon="17.7243186">
        <ele>24.651</ele>
        <time>2013-04-21T10:41:40Z</time>
      </trkpt>
      <trkpt lat="60.022236" lon="17.7242142">
        <ele>25.1317</ele>
        <time>2013-04-21T10:41:41Z</time>
      </trkpt>
      <trkpt lat="60.0222246" lon="17.7241089">
        <ele>25.6123</ele>
        <time>2013-04-21T10:41:42Z</time>
      </trkpt>
      <trkpt lat="60.0222131" lon="17.724001">
        <ele>25.6123</ele>
        <time>2013-04-21T10:41:43Z</time>
      </trkpt>
      <trkpt lat="60.0222029" lon="17.7238902">
        <ele>26.0929</ele>
        <time>2013-04-21T10:41:44Z</time>
      </trkpt>
      <trkpt lat="60.0221952" lon="17.7237783">
        <ele>26.0929</ele>
        <time>2013-04-21T10:41:45Z</time>
      </trkpt>
      <trkpt lat="60.0221852" lon="17.7236643">
        <ele>26.0929</ele>
        <time>2013-04-21T10:41:46Z</time>
      </trkpt>
      <trkpt lat="60.0221718" lon="17.7235401">
        <ele>26.5736</ele>
        <time>2013-04-21T10:41:47Z</time>
      </trkpt>
      <trkpt lat="60.0221599" lon="17.7234265">
        <ele>26.5736</ele>
        <time>2013-04-21T10:41:48Z</time>
      </trkpt>
      <trkpt lat="60.0221463" lon="17.7233158">
        <ele>26.5736</ele>
        <time>2013-04-21T10:41:49Z</time>
      </trkpt>
      <trkpt lat="60.0221353" lon="17.7232028">
        <ele>26.5736</ele>
        <time>2013-04-21T10:41:50Z</time>
      </trkpt>
      <trkpt lat="60.0221246" lon="17.7230935">
        <ele>26.5736</ele>
        <time>2013-04-21T10:41:51Z</time>
      </trkpt>
      <trkpt lat="60.0221125" lon="17.7229868">
        <ele>26.5736</ele>
        <time>2013-04-21T10:41:52Z</time>
      </trkpt>
      <trkpt lat="60.0221001" lon="17.7228811">
        <ele>26.5736</ele>
        <time>2013-04-21T10:41:53Z</time>
      </trkpt>
      <trkpt lat="60.0220885" lon="17.7227763">
        <ele>27.0543</ele>
        <time>2013-04-21T10:41:54Z</time>
      </trkpt>
      <trkpt lat="60.022077" lon="17.7226759">
        <ele>26.5736</ele>
        <time>2013-04-21T10:41:55Z</time>
      </trkpt>
      <trkpt lat="60.0220646" lon="17.7225773">
        <ele>26.5736</ele>
        <time>2013-04-21T10:41:56Z</time>
      </trkpt>
      <trkpt lat="60.0220486" lon="17.7224744">
        <ele>26.5736</ele>
        <time>2013-04-21T10:41:57Z</time>
      </trkpt>
      <trkpt lat="60.0220319" lon="17.7223772">
        <ele>26.5736</ele>
        <time>2013-04-21T10:41:58Z</time>
      </trkpt>
      <trkpt lat="60.022012" lon="17.7222827">
        <ele>26.5736</ele>
        <time>2013-04-21T10:41:59Z</time>
      </trkpt>
      <trkpt lat="60.0219889" lon="17.7221878">
        <ele>26.5736</ele>
        <time>2013-04-21T10:42:00Z</time>
      </trkpt>
      <trkpt lat="60.0219621" lon="17.7220937">
        <ele>26.5736</ele>
        <time>2013-04-21T10:42:01Z</time>
      </trkpt>
      <trkpt lat="60.0219324" lon="17.7220049">
        <ele>26.5736</ele>
        <time>2013-04-21T10:42:02Z</time>
      </trkpt>
      <trkpt lat="60.0219003" lon="17.7219217">
        <ele>26.5736</ele>
        <time>2013-04-21T10:42:03Z</time>
      </trkpt>
      <trkpt lat="60.0218611" lon="17.7218378">
        <ele>26.5736</ele>
        <time>2013-04-21T10:42:04Z</time>
      </trkpt>
      <trkpt lat="60.0218184" lon="17.7217631">
        <ele>26.5736</ele>
        <time>2013-04-21T10:42:05Z</time>
      </trkpt>
      <trkpt lat="60.0217729" lon="17.7216948">
        <ele>27.0543</ele>
        <time>2013-04-21T10:42:06Z</time>
      </trkpt>
      <trkpt lat="60.0217253" lon="17.7216377">
        <ele>27.0543</ele>
        <time>2013-04-21T10:42:07Z</time>
      </trkpt>
      <trkpt lat="60.0216758" lon="17.7215927">
        <ele>26.5736</ele>
        <time>2013-04-21T10:42:08Z</time>
      </trkpt>
      <trkpt lat="60.0216245" lon="17.721559">
        <ele>26.5736</ele>
        <time>2013-04-21T10:42:09Z</time>
      </trkpt>
      <trkpt lat="60.0215722" lon="17.7215311">
        <ele>26.5736</ele>
        <time>2013-04-21T10:42:10Z</time>
      </trkpt>
      <trkpt lat="60.0215191" lon="17.7215097">
        <ele>26.5736</ele>
        <time>2013-04-21T10:42:11Z</time>
      </trkpt>
      <trkpt lat="60.0214655" lon="17.7214923">
        <ele>26.5736</ele>
        <time>2013-04-21T10:42:12Z</time>
      </trkpt>
      <trkpt lat="60.0214114" lon="17.7214772">
        <ele>26.5736</ele>
        <time>2013-04-21T10:42:13Z</time>
      </trkpt>
      <trkpt lat="60.0213569" lon="17.7214642">
        <ele>26.0929</ele>
        <time>2013-04-21T10:42:14Z</time>
      </trkpt>
      <trkpt lat="60.0213018" lon="17.7214518">
        <ele>26.0929</ele>
        <time>2013-04-21T10:42:15Z</time>
      </trkpt>
      <trkpt lat="60.0212469" lon="17.7214398">
        <ele>26.0929</ele>
        <time>2013-04-21T10:42:16Z</time>
      </trkpt>
      <trkpt lat="60.0211916" lon="17.7214282">
        <ele>26.0929</ele>
        <time>2013-04-21T10:42:17Z</time>
      </trkpt>
      <trkpt lat="60.0211361" lon="17.7214159">
        <ele>26.0929</ele>
        <time>2013-04-21T10:42:18Z</time>
      </trkpt>
      <trkpt lat="60.0210798" lon="17.721403">
        <ele>26.0929</ele>
        <time>2013-04-21T10:42:19Z</time>
      </trkpt>
      <trkpt lat="60.0210234" lon="17.7213878">
        <ele>25.6123</ele>
        <time>2013-04-21T10:42:20Z</time>
      </trkpt>
      <trkpt lat="60.0209665" lon="17.7213737">
        <ele>25.6123</ele>
        <time>2013-04-21T10:42:21Z</time>
      </trkpt>
      <trkpt lat="60.0209089" lon="17.7213633">
        <ele>25.6123</ele>
        <time>2013-04-21T10:42:22Z</time>
      </trkpt>
      <trkpt lat="60.0208515" lon="17.721355">
        <ele>25.1317</ele>
        <time>2013-04-21T10:42:23Z</time>
      </trkpt>
      <trkpt lat="60.0207965" lon="17.7213472">
        <ele>24.651</ele>
        <time>2013-04-21T10:42:24Z</time>
      </trkpt>
      <trkpt lat="60.0207426" lon="17.7213372">
        <ele>24.1703</ele>
        <time>2013-04-21T10:42:25Z</time>
      </trkpt>
      <trkpt lat="60.0206896" lon="17.7213227">
        <ele>23.6896</ele>
        <time>2013-04-21T10:42:26Z</time>
      </trkpt>
      <trkpt lat="60.0206364" lon="17.721308">
        <ele>23.209</ele>
        <time>2013-04-21T10:42:27Z</time>
      </trkpt>
      <trkpt lat="60.0205834" lon="17.7212948">
        <ele>22.7283</ele>
        <time>2013-04-21T10:42:28Z</time>
      </trkpt>
      <trkpt lat="60.0205305" lon="17.7212838">
        <ele>22.2476</ele>
        <time>2013-04-21T10:42:29Z</time>
      </trkpt>
      <trkpt lat="60.0204768" lon="17.7212711">
        <ele>21.767</ele>
        <time>2013-04-21T10:42:30Z</time>
      </trkpt>
      <trkpt lat="60.0204229" lon="17.7212592">
        <ele>21.767</ele>
        <time>2013-04-21T10:42:31Z</time>
      </trkpt>
      <trkpt lat="60.0203675" lon="17.7212458">
        <ele>21.2864</ele>
        <time>2013-04-21T10:42:32Z</time>
      </trkpt>
      <trkpt lat="60.020312" lon="17.7212313">
        <ele>20.8057</ele>
        <time>2013-04-21T10:42:33Z</time>
      </trkpt>
      <trkpt lat="60.0202556" lon="17.7212149">
        <ele>20.8057</ele>
        <time>2013-04-21T10:42:34Z</time>
      </trkpt>
      <trkpt lat="60.0201972" lon="17.7211985">
        <ele>20.8057</ele>
        <time>2013-04-21T10:42:35Z</time>
      </trkpt>
      <trkpt lat="60.0201368" lon="17.7211856">
        <ele>20.325</ele>
        <time>2013-04-21T10:42:36Z</time>
      </trkpt>
      <trkpt lat="60.0200752" lon="17.7211716">
        <ele>19.8444</ele>
        <time>2013-04-21T10:42:37Z</time>
      </trkpt>
      <trkpt lat="60.0200137" lon="17.721154">
        <ele>19.3638</ele>
        <time>2013-04-21T10:42:38Z</time>
      </trkpt>
      <trkpt lat="60.019952" lon="17.7211359">
        <ele>18.8831</ele>
        <time>2013-04-21T10:42:39Z</time>
      </trkpt>
      <trkpt lat="60.0198884" lon="17.7211184">
        <ele>18.8831</ele>
        <time>2013-04-21T10:42:40Z</time>
      </trkpt>
      <trkpt lat="60.0198231" lon="17.7211013">
        <ele>18.4023</ele>
        <time>2013-04-21T10:42:41Z</time>
      </trkpt>
      <trkpt lat="60.0197564" lon="17.7210847">
        <ele>17.9218</ele>
        <time>2013-04-21T10:42:42Z</time>
      </trkpt>
      <trkpt lat="60.0196888" lon="17.7210685">
        <ele>17.9218</ele>
        <time>2013-04-21T10:42:43Z</time>
      </trkpt>
      <trkpt lat="60.019621" lon="17.7210514">
        <ele>17.4412</ele>
        <time>2013-04-21T10:42:44Z</time>
      </trkpt>
      <trkpt lat="60.0195526" lon="17.7210345">
        <ele>17.4412</ele>
        <time>2013-04-21T10:42:45Z</time>
      </trkpt>
      <trkpt lat="60.0194838" lon="17.7210204">
        <ele>17.4412</ele>
        <time>2013-04-21T10:42:46Z</time>
      </trkpt>
      <trkpt lat="60.0194154" lon="17.7210064">
        <ele>17.4412</ele>
        <time>2013-04-21T10:42:47Z</time>
      </trkpt>
      <trkpt lat="60.0193481" lon="17.7209908">
        <ele>16.9604</ele>
        <time>2013-04-21T10:42:48Z</time>
      </trkpt>
      <trkpt lat="60.0192819" lon="17.7209732">
        <ele>16.9604</ele>
        <time>2013-04-21T10:42:49Z</time>
      </trkpt>
      <trkpt lat="60.0192166" lon="17.7209541">
        <ele>16.9604</ele>
        <time>2013-04-21T10:42:50Z</time>
      </trkpt>
      <trkpt lat="60.0191517" lon="17.7209352">
        <ele>16.9604</ele>
        <time>2013-04-21T10:42:51Z</time>
      </trkpt>
      <trkpt lat="60.0190851" lon="17.7209179">
        <ele>16.9604</ele>
        <time>2013-04-21T10:42:52Z</time>
      </trkpt>
      <trkpt lat="60.019017" lon="17.7209014">
        <ele>16.9604</ele>
        <time>2013-04-21T10:42:53Z</time>
      </trkpt>
      <trkpt lat="60.0189477" lon="17.7208855">
        <ele>16.9604</ele>
        <time>2013-04-21T10:42:54Z</time>
      </trkpt>
      <trkpt lat="60.0188778" lon="17.7208671">
        <ele>16.9604</ele>
        <time>2013-04-21T10:42:55Z</time>
      </trkpt>
      <trkpt lat="60.0188087" lon="17.7208468">
        <ele>16.4797</ele>
        <time>2013-04-21T10:42:56Z</time>
      </trkpt>
      <trkpt lat="60.01874" lon="17.720829">
        <ele>16.4797</ele>
        <time>2013-04-21T10:42:57Z</time>
      </trkpt>
      <trkpt lat="60.0186721" lon="17.720811">
        <ele>16.4797</ele>
        <time>2013-04-21T10:42:58Z</time>
      </trkpt>
      <trkpt lat="60.0186037" lon="17.7207926">
        <ele>16.4797</ele>
        <time>2013-04-21T10:42:59Z</time>
      </trkpt>
      <trkpt lat="60.0185354" lon="17.7207773">
        <ele>15.999</ele>
        <time>2013-04-21T10:43:00Z</time>
      </trkpt>
      <trkpt lat="60.0184688" lon="17.7207614">
        <ele>15.999</ele>
        <time>2013-04-21T10:43:01Z</time>
      </trkpt>
      <trkpt lat="60.0184022" lon="17.7207503">
        <ele>15.999</ele>
        <time>2013-04-21T10:43:02Z</time>
      </trkpt>
      <trkpt lat="60.0183359" lon="17.7207391">
        <ele>15.999</ele>
        <time>2013-04-21T10:43:03Z</time>
      </trkpt>
      <trkpt lat="60.0182717" lon="17.7207179">
        <ele>15.999</ele>
        <time>2013-04-21T10:43:04Z</time>
      </trkpt>
      <trkpt lat="60.0182093" lon="17.7206903">
        <ele>16.4797</ele>
        <time>2013-04-21T10:43:05Z</time>
      </trkpt>
      <trkpt lat="60.0181475" lon="17.7206661">
        <ele>16.4797</ele>
        <time>2013-04-21T10:43:06Z</time>
      </trkpt>
      <trkpt lat="60.0180862" lon="17.7206453">
        <ele>16.4797</ele>
        <time>2013-04-21T10:43:07Z</time>
      </trkpt>
      <trkpt lat="60.0180251" lon="17.7206251">
        <ele>16.4797</ele>
        <time>2013-04-21T10:43:08Z</time>
      </trkpt>
      <trkpt lat="60.017964" lon="17.7206078">
        <ele>16.9604</ele>
        <time>2013-04-21T10:43:09Z</time>
      </trkpt>
      <trkpt lat="60.0179035" lon="17.7205928">
        <ele>16.9604</ele>
        <time>2013-04-21T10:43:10Z</time>
      </trkpt>
      <trkpt lat="60.0178442" lon="17.7205791">
        <ele>16.9604</ele>
        <time>2013-04-21T10:43:11Z</time>
      </trkpt>
      <trkpt lat="60.0177858" lon="17.7205677">
        <ele>17.4412</ele>
        <time>2013-04-21T10:43:12Z</time>
      </trkpt>
      <trkpt lat="60.0177284" lon="17.7205579">
        <ele>16.9604</ele>
        <time>2013-04-21T10:43:13Z</time>
      </trkpt>
      <trkpt lat="60.0176718" lon="17.7205475">
        <ele>16.9604</ele>
        <time>2013-04-21T10:43:14Z</time>
      </trkpt>
      <trkpt lat="60.0176152" lon="17.7205371">
        <ele>17.4412</ele>
        <time>2013-04-21T10:43:15Z</time>
      </trkpt>
      <trkpt lat="60.0175599" lon="17.7205293">
        <ele>17.4412</ele>
        <time>2013-04-21T10:43:16Z</time>
      </trkpt>
      <trkpt lat="60.0175065" lon="17.7205203">
        <ele>17.9218</ele>
        <time>2013-04-21T10:43:17Z</time>
      </trkpt>
      <trkpt lat="60.0174539" lon="17.7205143">
        <ele>17.9218</ele>
        <time>2013-04-21T10:43:18Z</time>
      </trkpt>
      <trkpt lat="60.0174019" lon="17.7205121">
        <ele>18.4023</ele>
        <time>2013-04-21T10:43:19Z</time>
      </trkpt>
      <trkpt lat="60.0173507" lon="17.7205077">
        <ele>18.4023</ele>
        <time>2013-04-21T10:43:20Z</time>
      </trkpt>
      <trkpt lat="60.0173004" lon="17.720503">
        <ele>18.4023</ele>
        <time>2013-04-21T10:43:21Z</time>
      </trkpt>
      <trkpt lat="60.0172511" lon="17.7204993">
        <ele>18.8831</ele>
        <time>2013-04-21T10:43:22Z</time>
      </trkpt>
      <trkpt lat="60.017203" lon="17.7205003">
        <ele>18.8831</ele>
        <time>2013-04-21T10:43:23Z</time>
      </trkpt>
      <trkpt lat="60.0171568" lon="17.7205077">
        <ele>18.8831</ele>
        <time>2013-04-21T10:43:24Z</time>
      </trkpt>
      <trkpt lat="60.0171122" lon="17.7205126">
        <ele>19.3638</ele>
        <time>2013-04-21T10:43:25Z</time>
      </trkpt>
      <trkpt lat="60.0170688" lon="17.7205172">
        <ele>19.3638</ele>
        <time>2013-04-21T10:43:26Z</time>
      </trkpt>
      <trkpt lat="60.0170253" lon="17.7205188">
        <ele>19.3638</ele>
        <time>2013-04-21T10:43:27Z</time>
      </trkpt>
      <trkpt lat="60.0169819" lon="17.7205101">
        <ele>18.8831</ele>
        <time>2013-04-21T10:43:28Z</time>
      </trkpt>
      <trkpt lat="60.0169387" lon="17.7204844">
        <ele>19.3638</ele>
        <time>2013-04-21T10:43:29Z</time>
      </trkpt>
      <trkpt lat="60.0169005" lon="17.7204344">
        <ele>19.3638</ele>
        <time>2013-04-21T10:43:30Z</time>
      </trkpt>
      <trkpt lat="60.0168735" lon="17.7203494">
        <ele>19.3638</ele>
        <time>2013-04-21T10:43:31Z</time>
      </trkpt>
      <trkpt lat="60.016862" lon="17.7202428">
        <ele>19.3638</ele>
        <time>2013-04-21T10:43:32Z</time>
      </trkpt>
      <trkpt lat="60.0168612" lon="17.7201247">
        <ele>19.8444</ele>
        <time>2013-04-21T10:43:33Z</time>
      </trkpt>
      <trkpt lat="60.0168663" lon="17.7199997">
        <ele>19.8444</ele>
        <time>2013-04-21T10:43:34Z</time>
      </trkpt>
      <trkpt lat="60.0168752" lon="17.7198694">
        <ele>19.8444</ele>
        <time>2013-04-21T10:43:35Z</time>
      </trkpt>
      <trkpt lat="60.0168839" lon="17.7197321">
        <ele>19.8444</ele>
        <time>2013-04-21T10:43:36Z</time>
      </trkpt>
      <trkpt lat="60.0168908" lon="17.7195874">
        <ele>19.8444</ele>
        <time>2013-04-21T10:43:37Z</time>
      </trkpt>
      <trkpt lat="60.0168985" lon="17.7194363">
        <ele>19.8444</ele>
        <time>2013-04-21T10:43:38Z</time>
      </trkpt>
      <trkpt lat="60.0169083" lon="17.7192791">
        <ele>19.8444</ele>
        <time>2013-04-21T10:43:39Z</time>
      </trkpt>
      <trkpt lat="60.016917" lon="17.7191156">
        <ele>19.8444</ele>
        <time>2013-04-21T10:43:40Z</time>
      </trkpt>
      <trkpt lat="60.0169238" lon="17.7189483">
        <ele>19.8444</ele>
        <time>2013-04-21T10:43:41Z</time>
      </trkpt>
      <trkpt lat="60.0169316" lon="17.7187806">
        <ele>19.8444</ele>
        <time>2013-04-21T10:43:42Z</time>
      </trkpt>
      <trkpt lat="60.0169404" lon="17.7186119">
        <ele>19.8444</ele>
        <time>2013-04-21T10:43:43Z</time>
      </trkpt>
      <trkpt lat="60.0169491" lon="17.7184432">
        <ele>19.8444</ele>
        <time>2013-04-21T10:43:44Z</time>
      </trkpt>
      <trkpt lat="60.0169588" lon="17.7182742">
        <ele>19.8444</ele>
        <time>2013-04-21T10:43:45Z</time>
      </trkpt>
      <trkpt lat="60.0169693" lon="17.7181028">
        <ele>19.3638</ele>
        <time>2013-04-21T10:43:46Z</time>
      </trkpt>
      <trkpt lat="60.0169817" lon="17.717929">
        <ele>19.3638</ele>
        <time>2013-04-21T10:43:47Z</time>
      </trkpt>
      <trkpt lat="60.0169959" lon="17.7177518">
        <ele>18.8831</ele>
        <time>2013-04-21T10:43:48Z</time>
      </trkpt>
      <trkpt lat="60.0170138" lon="17.7175745">
        <ele>17.9218</ele>
        <time>2013-04-21T10:43:49Z</time>
      </trkpt>
      <trkpt lat="60.017034" lon="17.7173954">
        <ele>17.4412</ele>
        <time>2013-04-21T10:43:50Z</time>
      </trkpt>
      <trkpt lat="60.0170574" lon="17.717215">
        <ele>16.9604</ele>
        <time>2013-04-21T10:43:51Z</time>
      </trkpt>
      <trkpt lat="60.0170838" lon="17.7170317">
        <ele>16.4797</ele>
        <time>2013-04-21T10:43:52Z</time>
      </trkpt>
      <trkpt lat="60.0171145" lon="17.7168504">
        <ele>15.999</ele>
        <time>2013-04-21T10:43:53Z</time>
      </trkpt>
      <trkpt lat="60.0171492" lon="17.7166748">
        <ele>15.999</ele>
        <time>2013-04-21T10:43:54Z</time>
      </trkpt>
      <trkpt lat="60.0171858" lon="17.7165048">
        <ele>15.5184</ele>
        <time>2013-04-21T10:43:55Z</time>
      </trkpt>
      <trkpt lat="60.0172218" lon="17.7163319">
        <ele>15.0377</ele>
        <time>2013-04-21T10:43:56Z</time>
      </trkpt>
      <trkpt lat="60.0172593" lon="17.7161696">
        <ele>15.0377</ele>
        <time>2013-04-21T10:43:57Z</time>
      </trkpt>
      <trkpt lat="60.0172969" lon="17.7160102">
        <ele>15.0377</ele>
        <time>2013-04-21T10:43:58Z</time>
      </trkpt>
      <trkpt lat="60.0173356" lon="17.7158538">
        <ele>15.0377</ele>
        <time>2013-04-21T10:43:59Z</time>
      </trkpt>
      <trkpt lat="60.017374" lon="17.7156993">
        <ele>15.0377</ele>
        <time>2013-04-21T10:44:00Z</time>
      </trkpt>
      <trkpt lat="60.0174113" lon="17.7155479">
        <ele>15.0377</ele>
        <time>2013-04-21T10:44:01Z</time>
      </trkpt>
      <trkpt lat="60.0174461" lon="17.7153999">
        <ele>15.5184</ele>
        <time>2013-04-21T10:44:02Z</time>
      </trkpt>
      <trkpt lat="60.0174772" lon="17.7152554">
        <ele>15.0377</ele>
        <time>2013-04-21T10:44:03Z</time>
      </trkpt>
      <trkpt lat="60.0175076" lon="17.715115">
        <ele>14.557</ele>
        <time>2013-04-21T10:44:04Z</time>
      </trkpt>
      <trkpt lat="60.017536" lon="17.7149776">
        <ele>14.557</ele>
        <time>2013-04-21T10:44:05Z</time>
      </trkpt>
      <trkpt lat="60.0175609" lon="17.7148415">
        <ele>14.557</ele>
        <time>2013-04-21T10:44:06Z</time>
      </trkpt>
      <trkpt lat="60.0175831" lon="17.7147069">
        <ele>14.557</ele>
        <time>2013-04-21T10:44:07Z</time>
      </trkpt>
      <trkpt lat="60.0176034" lon="17.7145743">
        <ele>14.557</ele>
        <time>2013-04-21T10:44:08Z</time>
      </trkpt>
      <trkpt lat="60.0176226" lon="17.7144451">
        <ele>14.557</ele>
        <time>2013-04-21T10:44:09Z</time>
      </trkpt>
      <trkpt lat="60.0176406" lon="17.7143189">
        <ele>14.557</ele>
        <time>2013-04-21T10:44:10Z</time>
      </trkpt>
      <trkpt lat="60.0176564" lon="17.7141945">
        <ele>14.557</ele>
        <time>2013-04-21T10:44:11Z</time>
      </trkpt>
      <trkpt lat="60.0176713" lon="17.7140702">
        <ele>15.0377</ele>
        <time>2013-04-21T10:44:12Z</time>
      </trkpt>
      <trkpt lat="60.0176837" lon="17.7139481">
        <ele>15.5184</ele>
        <time>2013-04-21T10:44:13Z</time>
      </trkpt>
      <trkpt lat="60.0176951" lon="17.7138273">
        <ele>15.999</ele>
        <time>2013-04-21T10:44:14Z</time>
      </trkpt>
      <trkpt lat="60.0177046" lon="17.7137071">
        <ele>15.999</ele>
        <time>2013-04-21T10:44:15Z</time>
      </trkpt>
      <trkpt lat="60.0177128" lon="17.7135879">
        <ele>16.4797</ele>
        <time>2013-04-21T10:44:16Z</time>
      </trkpt>
      <trkpt lat="60.0177211" lon="17.71347">
        <ele>16.4797</ele>
        <time>2013-04-21T10:44:17Z</time>
      </trkpt>
      <trkpt lat="60.01773" lon="17.7133536">
        <ele>16.9604</ele>
        <time>2013-04-21T10:44:18Z</time>
      </trkpt>
      <trkpt lat="60.0177391" lon="17.7132376">
        <ele>17.4412</ele>
        <time>2013-04-21T10:44:19Z</time>
      </trkpt>
      <trkpt lat="60.0177464" lon="17.7131228">
        <ele>17.4412</ele>
        <time>2013-04-21T10:44:20Z</time>
      </trkpt>
      <trkpt lat="60.0177525" lon="17.7130097">
        <ele>17.9218</ele>
        <time>2013-04-21T10:44:21Z</time>
      </trkpt>
      <trkpt lat="60.0177604" lon="17.7128983">
        <ele>17.9218</ele>
        <time>2013-04-21T10:44:22Z</time>
      </trkpt>
      <trkpt lat="60.0177686" lon="17.7127887">
        <ele>18.4023</ele>
        <time>2013-04-21T10:44:23Z</time>
      </trkpt>
      <trkpt lat="60.017776" lon="17.7126809">
        <ele>18.4023</ele>
        <time>2013-04-21T10:44:24Z</time>
      </trkpt>
      <trkpt lat="60.0177831" lon="17.7125742">
        <ele>18.8831</ele>
        <time>2013-04-21T10:44:25Z</time>
      </trkpt>
      <trkpt lat="60.0177899" lon="17.7124684">
        <ele>18.8831</ele>
        <time>2013-04-21T10:44:26Z</time>
      </trkpt>
      <trkpt lat="60.0177967" lon="17.7123629">
        <ele>19.3638</ele>
        <time>2013-04-21T10:44:27Z</time>
      </trkpt>
      <trkpt lat="60.0178035" lon="17.7122582">
        <ele>19.3638</ele>
        <time>2013-04-21T10:44:28Z</time>
      </trkpt>
      <trkpt lat="60.0178107" lon="17.7121541">
        <ele>19.8444</ele>
        <time>2013-04-21T10:44:29Z</time>
      </trkpt>
      <trkpt lat="60.0178178" lon="17.712049">
        <ele>20.325</ele>
        <time>2013-04-21T10:44:30Z</time>
      </trkpt>
      <trkpt lat="60.0178246" lon="17.7119443">
        <ele>20.325</ele>
        <time>2013-04-21T10:44:31Z</time>
      </trkpt>
      <trkpt lat="60.0178315" lon="17.7118412">
        <ele>20.8057</ele>
        <time>2013-04-21T10:44:32Z</time>
      </trkpt>
      <trkpt lat="60.0178381" lon="17.7117382">
        <ele>20.8057</ele>
        <time>2013-04-21T10:44:33Z</time>
      </trkpt>
      <trkpt lat="60.0178452" lon="17.7116341">
        <ele>20.8057</ele>
        <time>2013-04-21T10:44:34Z</time>
      </trkpt>
      <trkpt lat="60.0178542" lon="17.7115305">
        <ele>21.2864</ele>
        <time>2013-04-21T10:44:35Z</time>
      </trkpt>
      <trkpt lat="60.0178619" lon="17.7114272">
        <ele>21.2864</ele>
        <time>2013-04-21T10:44:36Z</time>
      </trkpt>
      <trkpt lat="60.0178679" lon="17.7113233">
        <ele>21.2864</ele>
        <time>2013-04-21T10:44:37Z</time>
      </trkpt>
      <trkpt lat="60.017874" lon="17.7112196">
        <ele>21.767</ele>
        <time>2013-04-21T10:44:38Z</time>
      </trkpt>
      <trkpt lat="60.0178802" lon="17.7111151">
        <ele>21.767</ele>
        <time>2013-04-21T10:44:39Z</time>
      </trkpt>
      <trkpt lat="60.0178873" lon="17.71101">
        <ele>21.767</ele>
        <time>2013-04-21T10:44:40Z</time>
      </trkpt>
      <trkpt lat="60.0178946" lon="17.7109069">
        <ele>22.2476</ele>
        <time>2013-04-21T10:44:41Z</time>
      </trkpt>
      <trkpt lat="60.0179014" lon="17.7108046">
        <ele>22.2476</ele>
        <time>2013-04-21T10:44:42Z</time>
      </trkpt>
      <trkpt lat="60.017908" lon="17.7107017">
        <ele>22.2476</ele>
        <time>2013-04-21T10:44:43Z</time>
      </trkpt>
      <trkpt lat="60.0179149" lon="17.7105985">
        <ele>22.2476</ele>
        <time>2013-04-21T10:44:44Z</time>
      </trkpt>
      <trkpt lat="60.0179225" lon="17.7104925">
        <ele>22.7283</ele>
        <time>2013-04-21T10:44:45Z</time>
      </trkpt>
      <trkpt lat="60.0179301" lon="17.7103855">
        <ele>22.7283</ele>
        <time>2013-04-21T10:44:46Z</time>
      </trkpt>
      <trkpt lat="60.0179371" lon="17.7102778">
        <ele>22.7283</ele>
        <time>2013-04-21T10:44:47Z</time>
      </trkpt>
      <trkpt lat="60.0179438" lon="17.710169">
        <ele>22.7283</ele>
        <time>2013-04-21T10:44:48Z</time>
      </trkpt>
      <trkpt lat="60.01795" lon="17.7100597">
        <ele>22.7283</ele>
        <time>2013-04-21T10:44:49Z</time>
      </trkpt>
      <trkpt lat="60.0179567" lon="17.7099508">
        <ele>22.7283</ele>
        <time>2013-04-21T10:44:50Z</time>
      </trkpt>
      <trkpt lat="60.0179627" lon="17.7098416">
        <ele>22.7283</ele>
        <time>2013-04-21T10:44:51Z</time>
      </trkpt>
      <trkpt lat="60.0179692" lon="17.7097322">
        <ele>22.7283</ele>
        <time>2013-04-21T10:44:52Z</time>
      </trkpt>
      <trkpt lat="60.0179769" lon="17.709623">
        <ele>22.7283</ele>
        <time>2013-04-21T10:44:53Z</time>
      </trkpt>
      <trkpt lat="60.0179846" lon="17.7095133">
        <ele>22.7283</ele>
        <time>2013-04-21T10:44:54Z</time>
      </trkpt>
      <trkpt lat="60.0179905" lon="17.7094038">
        <ele>22.7283</ele>
        <time>2013-04-21T10:44:55Z</time>
      </trkpt>
      <trkpt lat="60.0179972" lon="17.7092951">
        <ele>22.7283</ele>
        <time>2013-04-21T10:44:56Z</time>
      </trkpt>
      <trkpt lat="60.0180066" lon="17.7091881">
        <ele>22.7283</ele>
        <time>2013-04-21T10:44:57Z</time>
      </trkpt>
      <trkpt lat="60.0180149" lon="17.7090803">
        <ele>22.7283</ele>
        <time>2013-04-21T10:44:58Z</time>
      </trkpt>
      <trkpt lat="60.0180218" lon="17.7089719">
        <ele>22.7283</ele>
        <time>2013-04-21T10:44:59Z</time>
      </trkpt>
      <trkpt lat="60.0180281" lon="17.7088633">
        <ele>22.7283</ele>
        <time>2013-04-21T10:45:00Z</time>
      </trkpt>
      <trkpt lat="60.0180342" lon="17.708754">
        <ele>22.7283</ele>
        <time>2013-04-21T10:45:01Z</time>
      </trkpt>
      <trkpt lat="60.0180412" lon="17.7086445">
        <ele>23.209</ele>
        <time>2013-04-21T10:45:02Z</time>
      </trkpt>
      <trkpt lat="60.0180479" lon="17.7085343">
        <ele>23.209</ele>
        <time>2013-04-21T10:45:03Z</time>
      </trkpt>
      <trkpt lat="60.0180544" lon="17.7084237">
        <ele>23.209</ele>
        <time>2013-04-21T10:45:04Z</time>
      </trkpt>
      <trkpt lat="60.0180615" lon="17.7083127">
        <ele>23.209</ele>
        <time>2013-04-21T10:45:05Z</time>
      </trkpt>
      <trkpt lat="60.0180692" lon="17.7082013">
        <ele>23.209</ele>
        <time>2013-04-21T10:45:06Z</time>
      </trkpt>
      <trkpt lat="60.0180757" lon="17.7080884">
        <ele>23.209</ele>
        <time>2013-04-21T10:45:07Z</time>
      </trkpt>
      <trkpt lat="60.0180811" lon="17.7079738">
        <ele>23.209</ele>
        <time>2013-04-21T10:45:08Z</time>
      </trkpt>
      <trkpt lat="60.0180878" lon="17.7078593">
        <ele>23.209</ele>
        <time>2013-04-21T10:45:09Z</time>
      </trkpt>
      <trkpt lat="60.018095" lon="17.7077451">
        <ele>23.209</ele>
        <time>2013-04-21T10:45:10Z</time>
      </trkpt>
      <trkpt lat="60.0181029" lon="17.7076303">
        <ele>23.209</ele>
        <time>2013-04-21T10:45:11Z</time>
      </trkpt>
      <trkpt lat="60.0181102" lon="17.7075179">
        <ele>22.7283</ele>
        <time>2013-04-21T10:45:12Z</time>
      </trkpt>
      <trkpt lat="60.0181176" lon="17.707402">
        <ele>22.2476</ele>
        <time>2013-04-21T10:45:13Z</time>
      </trkpt>
      <trkpt lat="60.0181252" lon="17.7072874">
        <ele>21.767</ele>
        <time>2013-04-21T10:45:14Z</time>
      </trkpt>
      <trkpt lat="60.0181333" lon="17.7071741">
        <ele>21.2864</ele>
        <time>2013-04-21T10:45:15Z</time>
      </trkpt>
      <trkpt lat="60.0181438" lon="17.7070615">
        <ele>21.2864</ele>
        <time>2013-04-21T10:45:16Z</time>
      </trkpt>
      <trkpt lat="60.0181546" lon="17.7069481">
        <ele>20.8057</ele>
        <time>2013-04-21T10:45:17Z</time>
      </trkpt>
      <trkpt lat="60.0181639" lon="17.7068316">
        <ele>20.8057</ele>
        <time>2013-04-21T10:45:18Z</time>
      </trkpt>
      <trkpt lat="60.0181768" lon="17.7067171">
        <ele>20.8057</ele>
        <time>2013-04-21T10:45:19Z</time>
      </trkpt>
      <trkpt lat="60.0181922" lon="17.7066026">
        <ele>20.8057</ele>
        <time>2013-04-21T10:45:20Z</time>
      </trkpt>
      <trkpt lat="60.0182098" lon="17.7064866">
        <ele>21.2864</ele>
        <time>2013-04-21T10:45:21Z</time>
      </trkpt>
      <trkpt lat="60.018229" lon="17.7063685">
        <ele>21.2864</ele>
        <time>2013-04-21T10:45:22Z</time>
      </trkpt>
      <trkpt lat="60.0182489" lon="17.7062488">
        <ele>21.2864</ele>
        <time>2013-04-21T10:45:23Z</time>
      </trkpt>
      <trkpt lat="60.0182705" lon="17.7061323">
        <ele>20.8057</ele>
        <time>2013-04-21T10:45:24Z</time>
      </trkpt>
      <trkpt lat="60.0182932" lon="17.7060105">
        <ele>20.325</ele>
        <time>2013-04-21T10:45:25Z</time>
      </trkpt>
      <trkpt lat="60.0183169" lon="17.7058871">
        <ele>20.325</ele>
        <time>2013-04-21T10:45:26Z</time>
      </trkpt>
      <trkpt lat="60.0183421" lon="17.7057659">
        <ele>20.325</ele>
        <time>2013-04-21T10:45:27Z</time>
      </trkpt>
      <trkpt lat="60.01837" lon="17.7056452">
        <ele>19.8444</ele>
        <time>2013-04-21T10:45:28Z</time>
      </trkpt>
      <trkpt lat="60.0183994" lon="17.7055227">
        <ele>19.8444</ele>
        <time>2013-04-21T10:45:29Z</time>
      </trkpt>
      <trkpt lat="60.0184303" lon="17.7053977">
        <ele>19.3638</ele>
        <time>2013-04-21T10:45:30Z</time>
      </trkpt>
      <trkpt lat="60.0184638" lon="17.7052708">
        <ele>19.3638</ele>
        <time>2013-04-21T10:45:31Z</time>
      </trkpt>
      <trkpt lat="60.0184986" lon="17.7051442">
        <ele>18.8831</ele>
        <time>2013-04-21T10:45:32Z</time>
      </trkpt>
      <trkpt lat="60.0185353" lon="17.7050165">
        <ele>18.8831</ele>
        <time>2013-04-21T10:45:33Z</time>
      </trkpt>
      <trkpt lat="60.0185743" lon="17.70489">
        <ele>18.8831</ele>
        <time>2013-04-21T10:45:34Z</time>
      </trkpt>
      <trkpt lat="60.0186161" lon="17.7047653">
        <ele>18.4023</ele>
        <time>2013-04-21T10:45:35Z</time>
      </trkpt>
      <trkpt lat="60.0186598" lon="17.704642">
        <ele>18.4023</ele>
        <time>2013-04-21T10:45:36Z</time>
      </trkpt>
      <trkpt lat="60.0187056" lon="17.7045196">
        <ele>18.4023</ele>
        <time>2013-04-21T10:45:37Z</time>
      </trkpt>
      <trkpt lat="60.0187525" lon="17.7043989">
        <ele>18.4023</ele>
        <time>2013-04-21T10:45:38Z</time>
      </trkpt>
      <trkpt lat="60.0188001" lon="17.7042823">
        <ele>18.4023</ele>
        <time>2013-04-21T10:45:39Z</time>
      </trkpt>
      <trkpt lat="60.0188493" lon="17.7041722">
        <ele>18.4023</ele>
        <time>2013-04-21T10:45:40Z</time>
      </trkpt>
      <trkpt lat="60.0189003" lon="17.7040659">
        <ele>18.4023</ele>
        <time>2013-04-21T10:45:41Z</time>
      </trkpt>
      <trkpt lat="60.0189522" lon="17.7039611">
        <ele>18.4023</ele>
        <time>2013-04-21T10:45:42Z</time>
      </trkpt>
      <trkpt lat="60.0190046" lon="17.7038577">
        <ele>18.4023</ele>
        <time>2013-04-21T10:45:43Z</time>
      </trkpt>
      <trkpt lat="60.0190576" lon="17.7037581">
        <ele>18.4023</ele>
        <time>2013-04-21T10:45:44Z</time>
      </trkpt>
      <trkpt lat="60.0191114" lon="17.7036613">
        <ele>18.4023</ele>
        <time>2013-04-21T10:45:45Z</time>
      </trkpt>
      <trkpt lat="60.0191652" lon="17.7035661">
        <ele>18.4023</ele>
        <time>2013-04-21T10:45:46Z</time>
      </trkpt>
      <trkpt lat="60.0192191" lon="17.7034731">
        <ele>18.4023</ele>
        <time>2013-04-21T10:45:47Z</time>
      </trkpt>
      <trkpt lat="60.0192729" lon="17.7033816">
        <ele>18.4023</ele>
        <time>2013-04-21T10:45:48Z</time>
      </trkpt>
      <trkpt lat="60.0193272" lon="17.7032934">
        <ele>18.8831</ele>
        <time>2013-04-21T10:45:49Z</time>
      </trkpt>
      <trkpt lat="60.0193816" lon="17.7032077">
        <ele>18.8831</ele>
        <time>2013-04-21T10:45:50Z</time>
      </trkpt>
      <trkpt lat="60.0194351" lon="17.7031227">
        <ele>18.8831</ele>
        <time>2013-04-21T10:45:51Z</time>
      </trkpt>
      <trkpt lat="60.0194885" lon="17.7030386">
        <ele>18.8831</ele>
        <time>2013-04-21T10:45:52Z</time>
      </trkpt>
      <trkpt lat="60.0195427" lon="17.7029548">
        <ele>19.3638</ele>
        <time>2013-04-21T10:45:53Z</time>
      </trkpt>
      <trkpt lat="60.0195957" lon="17.7028714">
        <ele>19.3638</ele>
        <time>2013-04-21T10:45:54Z</time>
      </trkpt>
      <trkpt lat="60.0196475" lon="17.7027853">
        <ele>19.8444</ele>
        <time>2013-04-21T10:45:55Z</time>
      </trkpt>
      <trkpt lat="60.0196983" lon="17.7026973">
        <ele>19.8444</ele>
        <time>2013-04-21T10:45:56Z</time>
      </trkpt>
      <trkpt lat="60.019748" lon="17.7026093">
        <ele>20.325</ele>
        <time>2013-04-21T10:45:57Z</time>
      </trkpt>
      <trkpt lat="60.019797" lon="17.7025191">
        <ele>20.325</ele>
        <time>2013-04-21T10:45:58Z</time>
      </trkpt>
      <trkpt lat="60.0198452" lon="17.7024265">
        <ele>20.8057</ele>
        <time>2013-04-21T10:45:59Z</time>
      </trkpt>
      <trkpt lat="60.019892" lon="17.7023319">
        <ele>20.8057</ele>
        <time>2013-04-21T10:46:00Z</time>
      </trkpt>
      <trkpt lat="60.019938" lon="17.7022363">
        <ele>20.8057</ele>
        <time>2013-04-21T10:46:01Z</time>
      </trkpt>
      <trkpt lat="60.0199835" lon="17.7021423">
        <ele>20.8057</ele>
        <time>2013-04-21T10:46:02Z</time>
      </trkpt>
      <trkpt lat="60.0200284" lon="17.7020462">
        <ele>20.8057</ele>
        <time>2013-04-21T10:46:03Z</time>
      </trkpt>
      <trkpt lat="60.0200711" lon="17.7019463">
        <ele>21.2864</ele>
        <time>2013-04-21T10:46:04Z</time>
      </trkpt>
      <trkpt lat="60.020113" lon="17.7018446">
        <ele>21.2864</ele>
        <time>2013-04-21T10:46:05Z</time>
      </trkpt>
      <trkpt lat="60.0201544" lon="17.7017409">
        <ele>21.2864</ele>
        <time>2013-04-21T10:46:06Z</time>
      </trkpt>
      <trkpt lat="60.0201941" lon="17.7016364">
        <ele>21.2864</ele>
        <time>2013-04-21T10:46:07Z</time>
      </trkpt>
      <trkpt lat="60.0202332" lon="17.7015323">
        <ele>21.767</ele>
        <time>2013-04-21T10:46:08Z</time>
      </trkpt>
      <trkpt lat="60.0202711" lon="17.7014277">
        <ele>21.767</ele>
        <time>2013-04-21T10:46:09Z</time>
      </trkpt>
      <trkpt lat="60.0203081" lon="17.7013225">
        <ele>21.767</ele>
        <time>2013-04-21T10:46:10Z</time>
      </trkpt>
      <trkpt lat="60.020344" lon="17.7012159">
        <ele>21.767</ele>
        <time>2013-04-21T10:46:11Z</time>
      </trkpt>
      <trkpt lat="60.0203774" lon="17.7011071">
        <ele>21.767</ele>
        <time>2013-04-21T10:46:12Z</time>
      </trkpt>
      <trkpt lat="60.0204096" lon="17.7009963">
        <ele>21.767</ele>
        <time>2013-04-21T10:46:13Z</time>
      </trkpt>
      <trkpt lat="60.0204419" lon="17.700886">
        <ele>22.2476</ele>
        <time>2013-04-21T10:46:14Z</time>
      </trkpt>
      <trkpt lat="60.0204732" lon="17.7007771">
        <ele>22.2476</ele>
        <time>2013-04-21T10:46:15Z</time>
      </trkpt>
      <trkpt lat="60.0205027" lon="17.7006683">
        <ele>22.2476</ele>
        <time>2013-04-21T10:46:16Z</time>
      </trkpt>
      <trkpt lat="60.0205333" lon="17.7005609">
        <ele>22.2476</ele>
        <time>2013-04-21T10:46:17Z</time>
      </trkpt>
      <trkpt lat="60.0205627" lon="17.7004557">
        <ele>22.2476</ele>
        <time>2013-04-21T10:46:18Z</time>
      </trkpt>
      <trkpt lat="60.0205898" lon="17.7003547">
        <ele>21.767</ele>
        <time>2013-04-21T10:46:19Z</time>
      </trkpt>
      <trkpt lat="60.0206186" lon="17.7002554">
        <ele>21.767</ele>
        <time>2013-04-21T10:46:20Z</time>
      </trkpt>
      <trkpt lat="60.0206478" lon="17.7001528">
        <ele>21.767</ele>
        <time>2013-04-21T10:46:21Z</time>
      </trkpt>
      <trkpt lat="60.0206763" lon="17.700044">
        <ele>21.2864</ele>
        <time>2013-04-21T10:46:22Z</time>
      </trkpt>
      <trkpt lat="60.0207052" lon="17.6999322">
        <ele>21.2864</ele>
        <time>2013-04-21T10:46:23Z</time>
      </trkpt>
      <trkpt lat="60.0207346" lon="17.6998198">
        <ele>21.767</ele>
        <time>2013-04-21T10:46:24Z</time>
      </trkpt>
      <trkpt lat="60.0207642" lon="17.6997064">
        <ele>21.767</ele>
        <time>2013-04-21T10:46:25Z</time>
      </trkpt>
      <trkpt lat="60.0207943" lon="17.6995933">
        <ele>21.767</ele>
        <time>2013-04-21T10:46:26Z</time>
      </trkpt>
      <trkpt lat="60.0208243" lon="17.6994788">
        <ele>21.767</ele>
        <time>2013-04-21T10:46:27Z</time>
      </trkpt>
      <trkpt lat="60.020854" lon="17.6993637">
        <ele>21.767</ele>
        <time>2013-04-21T10:46:28Z</time>
      </trkpt>
      <trkpt lat="60.0208841" lon="17.6992489">
        <ele>21.767</ele>
        <time>2013-04-21T10:46:29Z</time>
      </trkpt>
      <trkpt lat="60.020914" lon="17.6991334">
        <ele>22.2476</ele>
        <time>2013-04-21T10:46:30Z</time>
      </trkpt>
      <trkpt lat="60.0209425" lon="17.6990159">
        <ele>22.2476</ele>
        <time>2013-04-21T10:46:31Z</time>
      </trkpt>
      <trkpt lat="60.020971" lon="17.6988957">
        <ele>22.2476</ele>
        <time>2013-04-21T10:46:32Z</time>
      </trkpt>
      <trkpt lat="60.021" lon="17.6987734">
        <ele>22.7283</ele>
        <time>2013-04-21T10:46:33Z</time>
      </trkpt>
      <trkpt lat="60.0210312" lon="17.6986489">
        <ele>22.7283</ele>
        <time>2013-04-21T10:46:34Z</time>
      </trkpt>
      <trkpt lat="60.0210642" lon="17.6985248">
        <ele>22.7283</ele>
        <time>2013-04-21T10:46:35Z</time>
      </trkpt>
      <trkpt lat="60.0210985" lon="17.6984015">
        <ele>22.7283</ele>
        <time>2013-04-21T10:46:36Z</time>
      </trkpt>
      <trkpt lat="60.0211342" lon="17.6982744">
        <ele>22.7283</ele>
        <time>2013-04-21T10:46:37Z</time>
      </trkpt>
      <trkpt lat="60.0211698" lon="17.6981438">
        <ele>22.7283</ele>
        <time>2013-04-21T10:46:38Z</time>
      </trkpt>
      <trkpt lat="60.0212047" lon="17.6980117">
        <ele>22.7283</ele>
        <time>2013-04-21T10:46:39Z</time>
      </trkpt>
      <trkpt lat="60.0212377" lon="17.6978782">
        <ele>22.2476</ele>
        <time>2013-04-21T10:46:40Z</time>
      </trkpt>
      <trkpt lat="60.0212714" lon="17.6977441">
        <ele>22.2476</ele>
        <time>2013-04-21T10:46:41Z</time>
      </trkpt>
      <trkpt lat="60.0213057" lon="17.6976105">
        <ele>22.7283</ele>
        <time>2013-04-21T10:46:42Z</time>
      </trkpt>
      <trkpt lat="60.0213386" lon="17.6974737">
        <ele>22.2476</ele>
        <time>2013-04-21T10:46:43Z</time>
      </trkpt>
      <trkpt lat="60.0213752" lon="17.697339">
        <ele>22.2476</ele>
        <time>2013-04-21T10:46:44Z</time>
      </trkpt>
      <trkpt lat="60.0214111" lon="17.6972052">
        <ele>21.767</ele>
        <time>2013-04-21T10:46:45Z</time>
      </trkpt>
      <trkpt lat="60.0214487" lon="17.6970689">
        <ele>21.2864</ele>
        <time>2013-04-21T10:46:46Z</time>
      </trkpt>
      <trkpt lat="60.021487" lon="17.6969277">
        <ele>21.2864</ele>
        <time>2013-04-21T10:46:47Z</time>
      </trkpt>
      <trkpt lat="60.0215259" lon="17.6967846">
        <ele>21.2864</ele>
        <time>2013-04-21T10:46:48Z</time>
      </trkpt>
      <trkpt lat="60.0215656" lon="17.6966391">
        <ele>21.2864</ele>
        <time>2013-04-21T10:46:49Z</time>
      </trkpt>
      <trkpt lat="60.0216041" lon="17.6964903">
        <ele>20.8057</ele>
        <time>2013-04-21T10:46:50Z</time>
      </trkpt>
      <trkpt lat="60.021644" lon="17.6963398">
        <ele>20.8057</ele>
        <time>2013-04-21T10:46:51Z</time>
      </trkpt>
      <trkpt lat="60.0216833" lon="17.6961884">
        <ele>20.325</ele>
        <time>2013-04-21T10:46:52Z</time>
      </trkpt>
      <trkpt lat="60.0217236" lon="17.6960363">
        <ele>20.325</ele>
        <time>2013-04-21T10:46:53Z</time>
      </trkpt>
      <trkpt lat="60.0217641" lon="17.6958827">
        <ele>20.325</ele>
        <time>2013-04-21T10:46:54Z</time>
      </trkpt>
      <trkpt lat="60.0218031" lon="17.695725">
        <ele>20.325</ele>
        <time>2013-04-21T10:46:55Z</time>
      </trkpt>
      <trkpt lat="60.0218416" lon="17.695573">
        <ele>20.325</ele>
        <time>2013-04-21T10:46:56Z</time>
      </trkpt>
      <trkpt lat="60.0218812" lon="17.6954255">
        <ele>20.325</ele>
        <time>2013-04-21T10:46:57Z</time>
      </trkpt>
      <trkpt lat="60.0219201" lon="17.6952784">
        <ele>20.325</ele>
        <time>2013-04-21T10:46:58Z</time>
      </trkpt>
      <trkpt lat="60.0219552" lon="17.6951277">
        <ele>20.325</ele>
        <time>2013-04-21T10:46:59Z</time>
      </trkpt>
      <trkpt lat="60.0219884" lon="17.6949773">
        <ele>20.325</ele>
        <time>2013-04-21T10:47:00Z</time>
      </trkpt>
      <trkpt lat="60.0220209" lon="17.6948281">
        <ele>19.8444</ele>
        <time>2013-04-21T10:47:01Z</time>
      </trkpt>
      <trkpt lat="60.0220526" lon="17.6946783">
        <ele>20.325</ele>
        <time>2013-04-21T10:47:02Z</time>
      </trkpt>
      <trkpt lat="60.0220826" lon="17.6945283">
        <ele>20.325</ele>
        <time>2013-04-21T10:47:03Z</time>
      </trkpt>
      <trkpt lat="60.0221102" lon="17.6943779">
        <ele>20.325</ele>
        <time>2013-04-21T10:47:04Z</time>
      </trkpt>
      <trkpt lat="60.022135" lon="17.6942284">
        <ele>20.325</ele>
        <time>2013-04-21T10:47:05Z</time>
      </trkpt>
      <trkpt lat="60.0221536" lon="17.6940797">
        <ele>19.3638</ele>
        <time>2013-04-21T10:47:06Z</time>
      </trkpt>
      <trkpt lat="60.022175" lon="17.6939311">
        <ele>18.8831</ele>
        <time>2013-04-21T10:47:07Z</time>
      </trkpt>
      <trkpt lat="60.022197" lon="17.6937823">
        <ele>18.8831</ele>
        <time>2013-04-21T10:47:08Z</time>
      </trkpt>
      <trkpt lat="60.0222175" lon="17.6936358">
        <ele>18.8831</ele>
        <time>2013-04-21T10:47:09Z</time>
      </trkpt>
      <trkpt lat="60.022236" lon="17.6934911">
        <ele>18.4023</ele>
        <time>2013-04-21T10:47:10Z</time>
      </trkpt>
      <trkpt lat="60.0222526" lon="17.6933457">
        <ele>18.4023</ele>
        <time>2013-04-21T10:47:11Z</time>
      </trkpt>
      <trkpt lat="60.0222671" lon="17.6932001">
        <ele>18.4023</ele>
        <time>2013-04-21T10:47:12Z</time>
      </trkpt>
      <trkpt lat="60.0222795" lon="17.6930587">
        <ele>17.9218</ele>
        <time>2013-04-21T10:47:13Z</time>
      </trkpt>
      <trkpt lat="60.0222935" lon="17.6929178">
        <ele>17.9218</ele>
        <time>2013-04-21T10:47:14Z</time>
      </trkpt>
      <trkpt lat="60.0223071" lon="17.6927773">
        <ele>17.9218</ele>
        <time>2013-04-21T10:47:15Z</time>
      </trkpt>
      <trkpt lat="60.0223154" lon="17.6926429">
        <ele>17.9218</ele>
        <time>2013-04-21T10:47:16Z</time>
      </trkpt>
      <trkpt lat="60.0223262" lon="17.6925039">
        <ele>17.9218</ele>
        <time>2013-04-21T10:47:17Z</time>
      </trkpt>
      <trkpt lat="60.0223345" lon="17.6923676">
        <ele>17.9218</ele>
        <time>2013-04-21T10:47:18Z</time>
      </trkpt>
      <trkpt lat="60.022343" lon="17.6922321">
        <ele>17.9218</ele>
        <time>2013-04-21T10:47:19Z</time>
      </trkpt>
      <trkpt lat="60.0223498" lon="17.6920972">
        <ele>17.9218</ele>
        <time>2013-04-21T10:47:20Z</time>
      </trkpt>
      <trkpt lat="60.022355" lon="17.691962">
        <ele>17.9218</ele>
        <time>2013-04-21T10:47:21Z</time>
      </trkpt>
      <trkpt lat="60.0223613" lon="17.6918268">
        <ele>17.9218</ele>
        <time>2013-04-21T10:47:22Z</time>
      </trkpt>
      <trkpt lat="60.0223691" lon="17.6916915">
        <ele>17.4412</ele>
        <time>2013-04-21T10:47:23Z</time>
      </trkpt>
      <trkpt lat="60.022376" lon="17.6915565">
        <ele>17.4412</ele>
        <time>2013-04-21T10:47:24Z</time>
      </trkpt>
      <trkpt lat="60.0223817" lon="17.6914223">
        <ele>17.4412</ele>
        <time>2013-04-21T10:47:25Z</time>
      </trkpt>
      <trkpt lat="60.0223865" lon="17.6912882">
        <ele>17.4412</ele>
        <time>2013-04-21T10:47:26Z</time>
      </trkpt>
      <trkpt lat="60.0223909" lon="17.6911543">
        <ele>17.4412</ele>
        <time>2013-04-21T10:47:27Z</time>
      </trkpt>
      <trkpt lat="60.0223961" lon="17.6910199">
        <ele>17.4412</ele>
        <time>2013-04-21T10:47:28Z</time>
      </trkpt>
      <trkpt lat="60.0224023" lon="17.6908852">
        <ele>17.4412</ele>
        <time>2013-04-21T10:47:29Z</time>
      </trkpt>
      <trkpt lat="60.0224089" lon="17.690752">
        <ele>17.4412</ele>
        <time>2013-04-21T10:47:30Z</time>
      </trkpt>
      <trkpt lat="60.0224152" lon="17.6906202">
        <ele>17.4412</ele>
        <time>2013-04-21T10:47:31Z</time>
      </trkpt>
      <trkpt lat="60.0224212" lon="17.6904889">
        <ele>17.4412</ele>
        <time>2013-04-21T10:47:32Z</time>
      </trkpt>
      <trkpt lat="60.0224273" lon="17.6903592">
        <ele>17.9218</ele>
        <time>2013-04-21T10:47:33Z</time>
      </trkpt>
      <trkpt lat="60.0224332" lon="17.690232">
        <ele>17.4412</ele>
        <time>2013-04-21T10:47:34Z</time>
      </trkpt>
      <trkpt lat="60.0224396" lon="17.6901055">
        <ele>17.4412</ele>
        <time>2013-04-21T10:47:35Z</time>
      </trkpt>
      <trkpt lat="60.0224453" lon="17.6899807">
        <ele>17.4412</ele>
        <time>2013-04-21T10:47:36Z</time>
      </trkpt>
      <trkpt lat="60.0224515" lon="17.6898573">
        <ele>17.4412</ele>
        <time>2013-04-21T10:47:37Z</time>
      </trkpt>
      <trkpt lat="60.0224577" lon="17.6897352">
        <ele>17.4412</ele>
        <time>2013-04-21T10:47:38Z</time>
      </trkpt>
      <trkpt lat="60.0224624" lon="17.689614">
        <ele>17.4412</ele>
        <time>2013-04-21T10:47:39Z</time>
      </trkpt>
      <trkpt lat="60.0224672" lon="17.6894933">
        <ele>17.4412</ele>
        <time>2013-04-21T10:47:40Z</time>
      </trkpt>
      <trkpt lat="60.0224734" lon="17.6893731">
        <ele>17.4412</ele>
        <time>2013-04-21T10:47:41Z</time>
      </trkpt>
      <trkpt lat="60.0224798" lon="17.6892534">
        <ele>17.4412</ele>
        <time>2013-04-21T10:47:42Z</time>
      </trkpt>
      <trkpt lat="60.0224852" lon="17.6891323">
        <ele>17.4412</ele>
        <time>2013-04-21T10:47:43Z</time>
      </trkpt>
      <trkpt lat="60.0224898" lon="17.6890105">
        <ele>17.4412</ele>
        <time>2013-04-21T10:47:44Z</time>
      </trkpt>
      <trkpt lat="60.0224945" lon="17.6888897">
        <ele>17.4412</ele>
        <time>2013-04-21T10:47:45Z</time>
      </trkpt>
      <trkpt lat="60.0224988" lon="17.6887691">
        <ele>17.4412</ele>
        <time>2013-04-21T10:47:46Z</time>
      </trkpt>
      <trkpt lat="60.0225028" lon="17.6886484">
        <ele>17.4412</ele>
        <time>2013-04-21T10:47:47Z</time>
      </trkpt>
      <trkpt lat="60.0225075" lon="17.6885288">
        <ele>17.4412</ele>
        <time>2013-04-21T10:47:48Z</time>
      </trkpt>
      <trkpt lat="60.0225137" lon="17.6884101">
        <ele>17.4412</ele>
        <time>2013-04-21T10:47:49Z</time>
      </trkpt>
      <trkpt lat="60.0225199" lon="17.6882918">
        <ele>17.4412</ele>
        <time>2013-04-21T10:47:50Z</time>
      </trkpt>
      <trkpt lat="60.022526" lon="17.6881756">
        <ele>17.4412</ele>
        <time>2013-04-21T10:47:51Z</time>
      </trkpt>
      <trkpt lat="60.0225312" lon="17.6880576">
        <ele>17.4412</ele>
        <time>2013-04-21T10:47:52Z</time>
      </trkpt>
      <trkpt lat="60.0225364" lon="17.687938">
        <ele>16.9604</ele>
        <time>2013-04-21T10:47:53Z</time>
      </trkpt>
      <trkpt lat="60.022541" lon="17.687819">
        <ele>16.9604</ele>
        <time>2013-04-21T10:47:54Z</time>
      </trkpt>
      <trkpt lat="60.0225468" lon="17.6877049">
        <ele>16.9604</ele>
        <time>2013-04-21T10:47:55Z</time>
      </trkpt>
      <trkpt lat="60.0225546" lon="17.6875953">
        <ele>17.4412</ele>
        <time>2013-04-21T10:47:56Z</time>
      </trkpt>
      <trkpt lat="60.0225606" lon="17.6874817">
        <ele>17.4412</ele>
        <time>2013-04-21T10:47:57Z</time>
      </trkpt>
      <trkpt lat="60.0225656" lon="17.6873669">
        <ele>17.4412</ele>
        <time>2013-04-21T10:47:58Z</time>
      </trkpt>
      <trkpt lat="60.0225713" lon="17.6872529">
        <ele>17.4412</ele>
        <time>2013-04-21T10:47:59Z</time>
      </trkpt>
      <trkpt lat="60.0225763" lon="17.6871383">
        <ele>17.4412</ele>
        <time>2013-04-21T10:48:00Z</time>
      </trkpt>
      <trkpt lat="60.0225814" lon="17.6870222">
        <ele>17.4412</ele>
        <time>2013-04-21T10:48:01Z</time>
      </trkpt>
      <trkpt lat="60.0225865" lon="17.6869052">
        <ele>17.4412</ele>
        <time>2013-04-21T10:48:02Z</time>
      </trkpt>
      <trkpt lat="60.022591" lon="17.6867877">
        <ele>17.4412</ele>
        <time>2013-04-21T10:48:03Z</time>
      </trkpt>
      <trkpt lat="60.0225961" lon="17.6866702">
        <ele>16.9604</ele>
        <time>2013-04-21T10:48:04Z</time>
      </trkpt>
      <trkpt lat="60.0226011" lon="17.6865552">
        <ele>16.9604</ele>
        <time>2013-04-21T10:48:05Z</time>
      </trkpt>
      <trkpt lat="60.0226031" lon="17.686442">
        <ele>16.9604</ele>
        <time>2013-04-21T10:48:06Z</time>
      </trkpt>
      <trkpt lat="60.0226095" lon="17.6863312">
        <ele>17.4412</ele>
        <time>2013-04-21T10:48:07Z</time>
      </trkpt>
      <trkpt lat="60.0226184" lon="17.6862156">
        <ele>17.4412</ele>
        <time>2013-04-21T10:48:08Z</time>
      </trkpt>
      <trkpt lat="60.0226264" lon="17.6860963">
        <ele>17.9218</ele>
        <time>2013-04-21T10:48:09Z</time>
      </trkpt>
      <trkpt lat="60.0226333" lon="17.685974">
        <ele>17.9218</ele>
        <time>2013-04-21T10:48:10Z</time>
      </trkpt>
      <trkpt lat="60.0226405" lon="17.6858537">
        <ele>18.4023</ele>
        <time>2013-04-21T10:48:11Z</time>
      </trkpt>
      <trkpt lat="60.0226462" lon="17.685728">
        <ele>18.4023</ele>
        <time>2013-04-21T10:48:12Z</time>
      </trkpt>
      <trkpt lat="60.0226515" lon="17.6856029">
        <ele>18.4023</ele>
        <time>2013-04-21T10:48:13Z</time>
      </trkpt>
      <trkpt lat="60.0226557" lon="17.6854813">
        <ele>18.8831</ele>
        <time>2013-04-21T10:48:14Z</time>
      </trkpt>
      <trkpt lat="60.0226587" lon="17.6853632">
        <ele>18.8831</ele>
        <time>2013-04-21T10:48:15Z</time>
      </trkpt>
      <trkpt lat="60.022665" lon="17.685244">
        <ele>18.8831</ele>
        <time>2013-04-21T10:48:16Z</time>
      </trkpt>
      <trkpt lat="60.0226712" lon="17.6851222">
        <ele>18.8831</ele>
        <time>2013-04-21T10:48:17Z</time>
      </trkpt>
      <trkpt lat="60.0226747" lon="17.6849978">
        <ele>18.4023</ele>
        <time>2013-04-21T10:48:18Z</time>
      </trkpt>
      <trkpt lat="60.0226766" lon="17.6848732">
        <ele>17.9218</ele>
        <time>2013-04-21T10:48:19Z</time>
      </trkpt>
      <trkpt lat="60.0226795" lon="17.6847497">
        <ele>17.9218</ele>
        <time>2013-04-21T10:48:20Z</time>
      </trkpt>
      <trkpt lat="60.0226825" lon="17.6846264">
        <ele>17.9218</ele>
        <time>2013-04-21T10:48:21Z</time>
      </trkpt>
      <trkpt lat="60.0226841" lon="17.6845022">
        <ele>17.9218</ele>
        <time>2013-04-21T10:48:22Z</time>
      </trkpt>
      <trkpt lat="60.0226861" lon="17.6843789">
        <ele>17.4412</ele>
        <time>2013-04-21T10:48:23Z</time>
      </trkpt>
      <trkpt lat="60.0226867" lon="17.6842558">
        <ele>17.4412</ele>
        <time>2013-04-21T10:48:24Z</time>
      </trkpt>
      <trkpt lat="60.0226862" lon="17.6841319">
        <ele>16.9604</ele>
        <time>2013-04-21T10:48:25Z</time>
      </trkpt>
      <trkpt lat="60.0226855" lon="17.684007">
        <ele>16.4797</ele>
        <time>2013-04-21T10:48:26Z</time>
      </trkpt>
      <trkpt lat="60.0226839" lon="17.6838796">
        <ele>15.999</ele>
        <time>2013-04-21T10:48:27Z</time>
      </trkpt>
      <trkpt lat="60.0226825" lon="17.6837522">
        <ele>15.999</ele>
        <time>2013-04-21T10:48:28Z</time>
      </trkpt>
      <trkpt lat="60.0226825" lon="17.6836264">
        <ele>15.999</ele>
        <time>2013-04-21T10:48:29Z</time>
      </trkpt>
      <trkpt lat="60.0226813" lon="17.6834998">
        <ele>16.4797</ele>
        <time>2013-04-21T10:48:30Z</time>
      </trkpt>
      <trkpt lat="60.0226797" lon="17.6833728">
        <ele>16.4797</ele>
        <time>2013-04-21T10:48:31Z</time>
      </trkpt>
      <trkpt lat="60.0226778" lon="17.6832465">
        <ele>16.4797</ele>
        <time>2013-04-21T10:48:32Z</time>
      </trkpt>
      <trkpt lat="60.0226751" lon="17.6831206">
        <ele>16.9604</ele>
        <time>2013-04-21T10:48:33Z</time>
      </trkpt>
      <trkpt lat="60.022672" lon="17.6829959">
        <ele>16.9604</ele>
        <time>2013-04-21T10:48:34Z</time>
      </trkpt>
      <trkpt lat="60.0226685" lon="17.682871">
        <ele>16.9604</ele>
        <time>2013-04-21T10:48:35Z</time>
      </trkpt>
      <trkpt lat="60.0226655" lon="17.682745">
        <ele>17.4412</ele>
        <time>2013-04-21T10:48:36Z</time>
      </trkpt>
      <trkpt lat="60.0226629" lon="17.6826207">
        <ele>17.9218</ele>
        <time>2013-04-21T10:48:37Z</time>
      </trkpt>
      <trkpt lat="60.0226587" lon="17.6824949">
        <ele>17.9218</ele>
        <time>2013-04-21T10:48:38Z</time>
      </trkpt>
      <trkpt lat="60.0226539" lon="17.6823665">
        <ele>18.4023</ele>
        <time>2013-04-21T10:48:39Z</time>
      </trkpt>
      <trkpt lat="60.0226488" lon="17.6822375">
        <ele>18.8831</ele>
        <time>2013-04-21T10:48:40Z</time>
      </trkpt>
      <trkpt lat="60.0226426" lon="17.6821079">
        <ele>19.3638</ele>
        <time>2013-04-21T10:48:41Z</time>
      </trkpt>
      <trkpt lat="60.022635" lon="17.6819784">
        <ele>19.3638</ele>
        <time>2013-04-21T10:48:42Z</time>
      </trkpt>
      <trkpt lat="60.0226274" lon="17.6818504">
        <ele>19.8444</ele>
        <time>2013-04-21T10:48:43Z</time>
      </trkpt>
      <trkpt lat="60.0226174" lon="17.6817243">
        <ele>19.8444</ele>
        <time>2013-04-21T10:48:44Z</time>
      </trkpt>
      <trkpt lat="60.0226067" lon="17.6815986">
        <ele>20.325</ele>
        <time>2013-04-21T10:48:45Z</time>
      </trkpt>
      <trkpt lat="60.0225969" lon="17.6814728">
        <ele>20.325</ele>
        <time>2013-04-21T10:48:46Z</time>
      </trkpt>
      <trkpt lat="60.0225872" lon="17.6813463">
        <ele>20.325</ele>
        <time>2013-04-21T10:48:47Z</time>
      </trkpt>
      <trkpt lat="60.0225775" lon="17.6812194">
        <ele>20.8057</ele>
        <time>2013-04-21T10:48:48Z</time>
      </trkpt>
      <trkpt lat="60.0225665" lon="17.6810936">
        <ele>20.8057</ele>
        <time>2013-04-21T10:48:49Z</time>
      </trkpt>
      <trkpt lat="60.0225541" lon="17.6809694">
        <ele>20.8057</ele>
        <time>2013-04-21T10:48:50Z</time>
      </trkpt>
      <trkpt lat="60.0225412" lon="17.680845">
        <ele>20.8057</ele>
        <time>2013-04-21T10:48:51Z</time>
      </trkpt>
      <trkpt lat="60.0225288" lon="17.680719">
        <ele>21.2864</ele>
        <time>2013-04-21T10:48:52Z</time>
      </trkpt>
      <trkpt lat="60.0225168" lon="17.6805924">
        <ele>21.2864</ele>
        <time>2013-04-21T10:48:53Z</time>
      </trkpt>
      <trkpt lat="60.0225027" lon="17.6804667">
        <ele>21.767</ele>
        <time>2013-04-21T10:48:54Z</time>
      </trkpt>
      <trkpt lat="60.0224862" lon="17.6803421">
        <ele>21.2864</ele>
        <time>2013-04-21T10:48:55Z</time>
      </trkpt>
      <trkpt lat="60.02247" lon="17.6802162">
        <ele>21.2864</ele>
        <time>2013-04-21T10:48:56Z</time>
      </trkpt>
      <trkpt lat="60.0224531" lon="17.6800903">
        <ele>21.2864</ele>
        <time>2013-04-21T10:48:57Z</time>
      </trkpt>
      <trkpt lat="60.0224364" lon="17.6799648">
        <ele>21.2864</ele>
        <time>2013-04-21T10:48:58Z</time>
      </trkpt>
      <trkpt lat="60.022419" lon="17.6798379">
        <ele>21.2864</ele>
        <time>2013-04-21T10:48:59Z</time>
      </trkpt>
      <trkpt lat="60.0224007" lon="17.6797105">
        <ele>21.2864</ele>
        <time>2013-04-21T10:49:00Z</time>
      </trkpt>
      <trkpt lat="60.0223811" lon="17.6795842">
        <ele>21.2864</ele>
        <time>2013-04-21T10:49:01Z</time>
      </trkpt>
      <trkpt lat="60.0223612" lon="17.6794599">
        <ele>21.2864</ele>
        <time>2013-04-21T10:49:02Z</time>
      </trkpt>
      <trkpt lat="60.0223415" lon="17.6793377">
        <ele>21.2864</ele>
        <time>2013-04-21T10:49:03Z</time>
      </trkpt>
      <trkpt lat="60.022323" lon="17.6792171">
        <ele>21.2864</ele>
        <time>2013-04-21T10:49:04Z</time>
      </trkpt>
      <trkpt lat="60.0223053" lon="17.6790967">
        <ele>21.2864</ele>
        <time>2013-04-21T10:49:05Z</time>
      </trkpt>
      <trkpt lat="60.0222864" lon="17.6789766">
        <ele>21.2864</ele>
        <time>2013-04-21T10:49:06Z</time>
      </trkpt>
      <trkpt lat="60.0222662" lon="17.6788576">
        <ele>21.2864</ele>
        <time>2013-04-21T10:49:07Z</time>
      </trkpt>
      <trkpt lat="60.0222458" lon="17.6787372">
        <ele>21.2864</ele>
        <time>2013-04-21T10:49:08Z</time>
      </trkpt>
      <trkpt lat="60.022226" lon="17.6786167">
        <ele>21.2864</ele>
        <time>2013-04-21T10:49:09Z</time>
      </trkpt>
      <trkpt lat="60.0222078" lon="17.6784965">
        <ele>21.2864</ele>
        <time>2013-04-21T10:49:10Z</time>
      </trkpt>
      <trkpt lat="60.022191" lon="17.6783768">
        <ele>21.767</ele>
        <time>2013-04-21T10:49:11Z</time>
      </trkpt>
      <trkpt lat="60.0221734" lon="17.6782564">
        <ele>21.767</ele>
        <time>2013-04-21T10:49:12Z</time>
      </trkpt>
      <trkpt lat="60.0221541" lon="17.6781359">
        <ele>21.767</ele>
        <time>2013-04-21T10:49:13Z</time>
      </trkpt>
      <trkpt lat="60.0221338" lon="17.6780157">
        <ele>21.767</ele>
        <time>2013-04-21T10:49:14Z</time>
      </trkpt>
      <trkpt lat="60.0221138" lon="17.6778944">
        <ele>21.767</ele>
        <time>2013-04-21T10:49:15Z</time>
      </trkpt>
      <trkpt lat="60.0220947" lon="17.6777729">
        <ele>22.2476</ele>
        <time>2013-04-21T10:49:16Z</time>
      </trkpt>
      <trkpt lat="60.0220754" lon="17.6776511">
        <ele>21.767</ele>
        <time>2013-04-21T10:49:17Z</time>
      </trkpt>
      <trkpt lat="60.0220552" lon="17.6775307">
        <ele>22.2476</ele>
        <time>2013-04-21T10:49:18Z</time>
      </trkpt>
      <trkpt lat="60.0220359" lon="17.6774107">
        <ele>22.2476</ele>
        <time>2013-04-21T10:49:19Z</time>
      </trkpt>
      <trkpt lat="60.0220174" lon="17.677291">
        <ele>22.2476</ele>
        <time>2013-04-21T10:49:20Z</time>
      </trkpt>
      <trkpt lat="60.0219992" lon="17.6771718">
        <ele>22.2476</ele>
        <time>2013-04-21T10:49:21Z</time>
      </trkpt>
      <trkpt lat="60.0219809" lon="17.6770531">
        <ele>22.7283</ele>
        <time>2013-04-21T10:49:22Z</time>
      </trkpt>
      <trkpt lat="60.0219623" lon="17.6769346">
        <ele>22.2476</ele>
        <time>2013-04-21T10:49:23Z</time>
      </trkpt>
      <trkpt lat="60.0219453" lon="17.6768143">
        <ele>22.2476</ele>
        <time>2013-04-21T10:49:24Z</time>
      </trkpt>
      <trkpt lat="60.0219291" lon="17.6766912">
        <ele>22.2476</ele>
        <time>2013-04-21T10:49:25Z</time>
      </trkpt>
      <trkpt lat="60.0219131" lon="17.676569">
        <ele>22.2476</ele>
        <time>2013-04-21T10:49:26Z</time>
      </trkpt>
      <trkpt lat="60.0218981" lon="17.6764473">
        <ele>22.7283</ele>
        <time>2013-04-21T10:49:27Z</time>
      </trkpt>
      <trkpt lat="60.0218838" lon="17.6763266">
        <ele>22.7283</ele>
        <time>2013-04-21T10:49:28Z</time>
      </trkpt>
      <trkpt lat="60.0218703" lon="17.6762066">
        <ele>22.7283</ele>
        <time>2013-04-21T10:49:29Z</time>
      </trkpt>
      <trkpt lat="60.0218572" lon="17.6760861">
        <ele>22.7283</ele>
        <time>2013-04-21T10:49:30Z</time>
      </trkpt>
      <trkpt lat="60.0218447" lon="17.6759649">
        <ele>22.7283</ele>
        <time>2013-04-21T10:49:31Z</time>
      </trkpt>
      <trkpt lat="60.0218338" lon="17.6758446">
        <ele>22.7283</ele>
        <time>2013-04-21T10:49:32Z</time>
      </trkpt>
      <trkpt lat="60.0218257" lon="17.6757234">
        <ele>23.209</ele>
        <time>2013-04-21T10:49:33Z</time>
      </trkpt>
      <trkpt lat="60.0218169" lon="17.6756043">
        <ele>23.209</ele>
        <time>2013-04-21T10:49:34Z</time>
      </trkpt>
      <trkpt lat="60.0218084" lon="17.6754858">
        <ele>23.209</ele>
        <time>2013-04-21T10:49:35Z</time>
      </trkpt>
      <trkpt lat="60.0218012" lon="17.6753666">
        <ele>23.6896</ele>
        <time>2013-04-21T10:49:36Z</time>
      </trkpt>
      <trkpt lat="60.0217952" lon="17.6752465">
        <ele>23.6896</ele>
        <time>2013-04-21T10:49:37Z</time>
      </trkpt>
      <trkpt lat="60.0217905" lon="17.6751252">
        <ele>23.6896</ele>
        <time>2013-04-21T10:49:38Z</time>
      </trkpt>
      <trkpt lat="60.0217863" lon="17.6750033">
        <ele>23.6896</ele>
        <time>2013-04-21T10:49:39Z</time>
      </trkpt>
      <trkpt lat="60.0217833" lon="17.6748819">
        <ele>23.6896</ele>
        <time>2013-04-21T10:49:40Z</time>
      </trkpt>
      <trkpt lat="60.0217813" lon="17.674759">
        <ele>23.6896</ele>
        <time>2013-04-21T10:49:41Z</time>
      </trkpt>
      <trkpt lat="60.0217802" lon="17.6746335">
        <ele>23.6896</ele>
        <time>2013-04-21T10:49:42Z</time>
      </trkpt>
      <trkpt lat="60.0217812" lon="17.6745066">
        <ele>23.6896</ele>
        <time>2013-04-21T10:49:43Z</time>
      </trkpt>
      <trkpt lat="60.0217822" lon="17.6743789">
        <ele>23.6896</ele>
        <time>2013-04-21T10:49:44Z</time>
      </trkpt>
      <trkpt lat="60.0217825" lon="17.6742525">
        <ele>24.1703</ele>
        <time>2013-04-21T10:49:45Z</time>
      </trkpt>
      <trkpt lat="60.0217812" lon="17.6741291">
        <ele>24.1703</ele>
        <time>2013-04-21T10:49:46Z</time>
      </trkpt>
      <trkpt lat="60.0217822" lon="17.6740079">
        <ele>24.1703</ele>
        <time>2013-04-21T10:49:47Z</time>
      </trkpt>
      <trkpt lat="60.0217857" lon="17.6738849">
        <ele>24.1703</ele>
        <time>2013-04-21T10:49:48Z</time>
      </trkpt>
      <trkpt lat="60.0217882" lon="17.6737592">
        <ele>24.1703</ele>
        <time>2013-04-21T10:49:49Z</time>
      </trkpt>
      <trkpt lat="60.0217896" lon="17.6736328">
        <ele>24.1703</ele>
        <time>2013-04-21T10:49:50Z</time>
      </trkpt>
      <trkpt lat="60.0217889" lon="17.673506">
        <ele>24.1703</ele>
        <time>2013-04-21T10:49:51Z</time>
      </trkpt>
      <trkpt lat="60.0217862" lon="17.6733832">
        <ele>23.6896</ele>
        <time>2013-04-21T10:49:52Z</time>
      </trkpt>
      <trkpt lat="60.0217863" lon="17.6732567">
        <ele>23.6896</ele>
        <time>2013-04-21T10:49:53Z</time>
      </trkpt>
      <trkpt lat="60.0217874" lon="17.6731307">
        <ele>23.6896</ele>
        <time>2013-04-21T10:49:54Z</time>
      </trkpt>
      <trkpt lat="60.0217873" lon="17.67301">
        <ele>23.209</ele>
        <time>2013-04-21T10:49:55Z</time>
      </trkpt>
      <trkpt lat="60.021786" lon="17.6728832">
        <ele>23.209</ele>
        <time>2013-04-21T10:49:56Z</time>
      </trkpt>
      <trkpt lat="60.0217847" lon="17.6727553">
        <ele>23.6896</ele>
        <time>2013-04-21T10:49:57Z</time>
      </trkpt>
      <trkpt lat="60.0217826" lon="17.6726284">
        <ele>23.6896</ele>
        <time>2013-04-21T10:49:58Z</time>
      </trkpt>
      <trkpt lat="60.0217796" lon="17.6725013">
        <ele>23.6896</ele>
        <time>2013-04-21T10:49:59Z</time>
      </trkpt>
      <trkpt lat="60.0217748" lon="17.672373">
        <ele>23.6896</ele>
        <time>2013-04-21T10:50:00Z</time>
      </trkpt>
      <trkpt lat="60.0217682" lon="17.6722461">
        <ele>23.6896</ele>
        <time>2013-04-21T10:50:01Z</time>
      </trkpt>
      <trkpt lat="60.0217606" lon="17.6721211">
        <ele>23.6896</ele>
        <time>2013-04-21T10:50:02Z</time>
      </trkpt>
      <trkpt lat="60.0217535" lon="17.6719948">
        <ele>24.1703</ele>
        <time>2013-04-21T10:50:03Z</time>
      </trkpt>
      <trkpt lat="60.0217454" lon="17.6718681">
        <ele>24.1703</ele>
        <time>2013-04-21T10:50:04Z</time>
      </trkpt>
      <trkpt lat="60.0217345" lon="17.6717426">
        <ele>23.6896</ele>
        <time>2013-04-21T10:50:05Z</time>
      </trkpt>
      <trkpt lat="60.0217235" lon="17.6716196">
        <ele>24.1703</ele>
        <time>2013-04-21T10:50:06Z</time>
      </trkpt>
      <trkpt lat="60.0217107" lon="17.6715016">
        <ele>24.1703</ele>
        <time>2013-04-21T10:50:07Z</time>
      </trkpt>
      <trkpt lat="60.0216994" lon="17.6713856">
        <ele>24.1703</ele>
        <time>2013-04-21T10:50:08Z</time>
      </trkpt>
      <trkpt lat="60.0216885" lon="17.671271">
        <ele>24.651</ele>
        <time>2013-04-21T10:50:09Z</time>
      </trkpt>
      <trkpt lat="60.0216772" lon="17.6711531">
        <ele>24.651</ele>
        <time>2013-04-21T10:50:10Z</time>
      </trkpt>
      <trkpt lat="60.0216619" lon="17.6710374">
        <ele>24.1703</ele>
        <time>2013-04-21T10:50:11Z</time>
      </trkpt>
      <trkpt lat="60.0216453" lon="17.6709237">
        <ele>23.6896</ele>
        <time>2013-04-21T10:50:12Z</time>
      </trkpt>
      <trkpt lat="60.0216275" lon="17.6708097">
        <ele>23.209</ele>
        <time>2013-04-21T10:50:13Z</time>
      </trkpt>
      <trkpt lat="60.0216088" lon="17.6706941">
        <ele>22.7283</ele>
        <time>2013-04-21T10:50:14Z</time>
      </trkpt>
      <trkpt lat="60.0215888" lon="17.6705754">
        <ele>22.2476</ele>
        <time>2013-04-21T10:50:15Z</time>
      </trkpt>
      <trkpt lat="60.0215688" lon="17.6704559">
        <ele>22.2476</ele>
        <time>2013-04-21T10:50:16Z</time>
      </trkpt>
      <trkpt lat="60.0215486" lon="17.6703374">
        <ele>22.7283</ele>
        <time>2013-04-21T10:50:17Z</time>
      </trkpt>
      <trkpt lat="60.0215268" lon="17.6702233">
        <ele>22.7283</ele>
        <time>2013-04-21T10:50:18Z</time>
      </trkpt>
      <trkpt lat="60.0215056" lon="17.6701086">
        <ele>22.7283</ele>
        <time>2013-04-21T10:50:19Z</time>
      </trkpt>
      <trkpt lat="60.0214843" lon="17.6699946">
        <ele>22.7283</ele>
        <time>2013-04-21T10:50:20Z</time>
      </trkpt>
      <trkpt lat="60.0214647" lon="17.669884">
        <ele>23.209</ele>
        <time>2013-04-21T10:50:21Z</time>
      </trkpt>
      <trkpt lat="60.0214441" lon="17.6697781">
        <ele>22.7283</ele>
        <time>2013-04-21T10:50:22Z</time>
      </trkpt>
      <trkpt lat="60.0214201" lon="17.6696789">
        <ele>22.2476</ele>
        <time>2013-04-21T10:50:23Z</time>
      </trkpt>
      <trkpt lat="60.0213958" lon="17.6695722">
        <ele>22.7283</ele>
        <time>2013-04-21T10:50:24Z</time>
      </trkpt>
      <trkpt lat="60.0213699" lon="17.6694629">
        <ele>22.2476</ele>
        <time>2013-04-21T10:50:25Z</time>
      </trkpt>
      <trkpt lat="60.0213445" lon="17.6693561">
        <ele>22.2476</ele>
        <time>2013-04-21T10:50:26Z</time>
      </trkpt>
      <trkpt lat="60.0213181" lon="17.6692489">
        <ele>22.2476</ele>
        <time>2013-04-21T10:50:27Z</time>
      </trkpt>
      <trkpt lat="60.0212916" lon="17.6691435">
        <ele>22.2476</ele>
        <time>2013-04-21T10:50:28Z</time>
      </trkpt>
      <trkpt lat="60.0212649" lon="17.6690401">
        <ele>22.2476</ele>
        <time>2013-04-21T10:50:29Z</time>
      </trkpt>
      <trkpt lat="60.0212382" lon="17.6689379">
        <ele>22.2476</ele>
        <time>2013-04-21T10:50:30Z</time>
      </trkpt>
      <trkpt lat="60.0212112" lon="17.6688349">
        <ele>22.7283</ele>
        <time>2013-04-21T10:50:31Z</time>
      </trkpt>
      <trkpt lat="60.0211835" lon="17.6687352">
        <ele>23.209</ele>
        <time>2013-04-21T10:50:32Z</time>
      </trkpt>
      <trkpt lat="60.021156" lon="17.6686403">
        <ele>23.209</ele>
        <time>2013-04-21T10:50:33Z</time>
      </trkpt>
      <trkpt lat="60.0211286" lon="17.6685489">
        <ele>23.6896</ele>
        <time>2013-04-21T10:50:34Z</time>
      </trkpt>
      <trkpt lat="60.0211009" lon="17.6684601">
        <ele>23.6896</ele>
        <time>2013-04-21T10:50:35Z</time>
      </trkpt>
      <trkpt lat="60.0210737" lon="17.6683735">
        <ele>24.1703</ele>
        <time>2013-04-21T10:50:36Z</time>
      </trkpt>
      <trkpt lat="60.0210466" lon="17.6682896">
        <ele>24.1703</ele>
        <time>2013-04-21T10:50:37Z</time>
      </trkpt>
      <trkpt lat="60.0210202" lon="17.6682072">
        <ele>24.1703</ele>
        <time>2013-04-21T10:50:38Z</time>
      </trkpt>
      <trkpt lat="60.0209946" lon="17.6681248">
        <ele>24.651</ele>
        <time>2013-04-21T10:50:39Z</time>
      </trkpt>
      <trkpt lat="60.0209682" lon="17.6680443">
        <ele>24.651</ele>
        <time>2013-04-21T10:50:40Z</time>
      </trkpt>
      <trkpt lat="60.0209414" lon="17.6679658">
        <ele>24.651</ele>
        <time>2013-04-21T10:50:41Z</time>
      </trkpt>
      <trkpt lat="60.0209141" lon="17.6678894">
        <ele>25.1317</ele>
        <time>2013-04-21T10:50:42Z</time>
      </trkpt>
      <trkpt lat="60.0208874" lon="17.6678133">
        <ele>25.6123</ele>
        <time>2013-04-21T10:50:43Z</time>
      </trkpt>
      <trkpt lat="60.0208605" lon="17.6677382">
        <ele>26.0929</ele>
        <time>2013-04-21T10:50:44Z</time>
      </trkpt>
      <trkpt lat="60.020833" lon="17.6676637">
        <ele>26.0929</ele>
        <time>2013-04-21T10:50:45Z</time>
      </trkpt>
      <trkpt lat="60.0208058" lon="17.6675875">
        <ele>26.5736</ele>
        <time>2013-04-21T10:50:46Z</time>
      </trkpt>
      <trkpt lat="60.0207794" lon="17.6675119">
        <ele>26.5736</ele>
        <time>2013-04-21T10:50:47Z</time>
      </trkpt>
      <trkpt lat="60.020752" lon="17.6674348">
        <ele>26.5736</ele>
        <time>2013-04-21T10:50:48Z</time>
      </trkpt>
      <trkpt lat="60.020723" lon="17.667359">
        <ele>26.5736</ele>
        <time>2013-04-21T10:50:49Z</time>
      </trkpt>
      <trkpt lat="60.0206944" lon="17.6672825">
        <ele>27.0543</ele>
        <time>2013-04-21T10:50:50Z</time>
      </trkpt>
      <trkpt lat="60.0206667" lon="17.6672041">
        <ele>27.0543</ele>
        <time>2013-04-21T10:50:51Z</time>
      </trkpt>
      <trkpt lat="60.0206375" lon="17.667126">
        <ele>27.0543</ele>
        <time>2013-04-21T10:50:52Z</time>
      </trkpt>
      <trkpt lat="60.0206077" lon="17.6670492">
        <ele>27.0543</ele>
        <time>2013-04-21T10:50:53Z</time>
      </trkpt>
      <trkpt lat="60.0205799" lon="17.6669698">
        <ele>27.0543</ele>
        <time>2013-04-21T10:50:54Z</time>
      </trkpt>
      <trkpt lat="60.0205534" lon="17.6668866">
        <ele>27.0543</ele>
        <time>2013-04-21T10:50:55Z</time>
      </trkpt>
      <trkpt lat="60.020525" lon="17.6668023">
        <ele>27.0543</ele>
        <time>2013-04-21T10:50:56Z</time>
      </trkpt>
      <trkpt lat="60.020495" lon="17.666719">
        <ele>27.0543</ele>
        <time>2013-04-21T10:50:57Z</time>
      </trkpt>
      <trkpt lat="60.0204645" lon="17.666635">
        <ele>27.0543</ele>
        <time>2013-04-21T10:50:58Z</time>
      </trkpt>
      <trkpt lat="60.0204336" lon="17.6665507">
        <ele>27.0543</ele>
        <time>2013-04-21T10:50:59Z</time>
      </trkpt>
      <trkpt lat="60.0204013" lon="17.6664689">
        <ele>27.0543</ele>
        <time>2013-04-21T10:51:00Z</time>
      </trkpt>
      <trkpt lat="60.0203701" lon="17.6663852">
        <ele>27.5349</ele>
        <time>2013-04-21T10:51:01Z</time>
      </trkpt>
      <trkpt lat="60.02034" lon="17.6662986">
        <ele>27.5349</ele>
        <time>2013-04-21T10:51:02Z</time>
      </trkpt>
      <trkpt lat="60.0203095" lon="17.6662117">
        <ele>27.5349</ele>
        <time>2013-04-21T10:51:03Z</time>
      </trkpt>
      <trkpt lat="60.0202784" lon="17.6661254">
        <ele>27.5349</ele>
        <time>2013-04-21T10:51:04Z</time>
      </trkpt>
      <trkpt lat="60.0202473" lon="17.6660393">
        <ele>27.5349</ele>
        <time>2013-04-21T10:51:05Z</time>
      </trkpt>
      <trkpt lat="60.020215" lon="17.6659557">
        <ele>27.5349</ele>
        <time>2013-04-21T10:51:06Z</time>
      </trkpt>
      <trkpt lat="60.0201805" lon="17.6658752">
        <ele>27.5349</ele>
        <time>2013-04-21T10:51:07Z</time>
      </trkpt>
      <trkpt lat="60.0201504" lon="17.665789">
        <ele>28.0155</ele>
        <time>2013-04-21T10:51:08Z</time>
      </trkpt>
      <trkpt lat="60.0201241" lon="17.6656972">
        <ele>28.0155</ele>
        <time>2013-04-21T10:51:09Z</time>
      </trkpt>
      <trkpt lat="60.0200959" lon="17.6656068">
        <ele>28.0155</ele>
        <time>2013-04-21T10:51:10Z</time>
      </trkpt>
      <trkpt lat="60.0200645" lon="17.6655181">
        <ele>28.0155</ele>
        <time>2013-04-21T10:51:11Z</time>
      </trkpt>
      <trkpt lat="60.0200318" lon="17.6654286">
        <ele>28.0155</ele>
        <time>2013-04-21T10:51:12Z</time>
      </trkpt>
      <trkpt lat="60.0199988" lon="17.6653363">
        <ele>28.0155</ele>
        <time>2013-04-21T10:51:13Z</time>
      </trkpt>
      <trkpt lat="60.0199664" lon="17.6652417">
        <ele>28.0155</ele>
        <time>2013-04-21T10:51:14Z</time>
      </trkpt>
      <trkpt lat="60.0199335" lon="17.6651464">
        <ele>28.0155</ele>
        <time>2013-04-21T10:51:15Z</time>
      </trkpt>
      <trkpt lat="60.0199002" lon="17.6650504">
        <ele>28.0155</ele>
        <time>2013-04-21T10:51:16Z</time>
      </trkpt>
      <trkpt lat="60.0198672" lon="17.664951">
        <ele>28.0155</ele>
        <time>2013-04-21T10:51:17Z</time>
      </trkpt>
      <trkpt lat="60.019836" lon="17.6648479">
        <ele>28.4962</ele>
        <time>2013-04-21T10:51:18Z</time>
      </trkpt>
      <trkpt lat="60.019805" lon="17.6647434">
        <ele>28.4962</ele>
        <time>2013-04-21T10:51:19Z</time>
      </trkpt>
      <trkpt lat="60.0197728" lon="17.6646359">
        <ele>28.4962</ele>
        <time>2013-04-21T10:51:20Z</time>
      </trkpt>
      <trkpt lat="60.0197417" lon="17.6645334">
        <ele>28.4962</ele>
        <time>2013-04-21T10:51:21Z</time>
      </trkpt>
      <trkpt lat="60.0197128" lon="17.6644302">
        <ele>28.4962</ele>
        <time>2013-04-21T10:51:22Z</time>
      </trkpt>
      <trkpt lat="60.0196869" lon="17.6643252">
        <ele>28.4962</ele>
        <time>2013-04-21T10:51:23Z</time>
      </trkpt>
      <trkpt lat="60.0196611" lon="17.6642222">
        <ele>28.4962</ele>
        <time>2013-04-21T10:51:24Z</time>
      </trkpt>
      <trkpt lat="60.019635" lon="17.6641196">
        <ele>28.4962</ele>
        <time>2013-04-21T10:51:25Z</time>
      </trkpt>
      <trkpt lat="60.0196095" lon="17.6640164">
        <ele>28.4962</ele>
        <time>2013-04-21T10:51:26Z</time>
      </trkpt>
      <trkpt lat="60.0195841" lon="17.6639125">
        <ele>28.0155</ele>
        <time>2013-04-21T10:51:27Z</time>
      </trkpt>
      <trkpt lat="60.0195593" lon="17.6638091">
        <ele>28.0155</ele>
        <time>2013-04-21T10:51:28Z</time>
      </trkpt>
      <trkpt lat="60.0195355" lon="17.6637046">
        <ele>28.0155</ele>
        <time>2013-04-21T10:51:29Z</time>
      </trkpt>
      <trkpt lat="60.0195135" lon="17.663601">
        <ele>28.4962</ele>
        <time>2013-04-21T10:51:30Z</time>
      </trkpt>
      <trkpt lat="60.0194927" lon="17.6634995">
        <ele>28.4962</ele>
        <time>2013-04-21T10:51:31Z</time>
      </trkpt>
      <trkpt lat="60.0194735" lon="17.6634002">
        <ele>28.0155</ele>
        <time>2013-04-21T10:51:32Z</time>
      </trkpt>
      <trkpt lat="60.0194556" lon="17.6633028">
        <ele>28.0155</ele>
        <time>2013-04-21T10:51:33Z</time>
      </trkpt>
      <trkpt lat="60.0194377" lon="17.6632063">
        <ele>28.0155</ele>
        <time>2013-04-21T10:51:34Z</time>
      </trkpt>
      <trkpt lat="60.0194211" lon="17.66311">
        <ele>27.5349</ele>
        <time>2013-04-21T10:51:35Z</time>
      </trkpt>
      <trkpt lat="60.0194031" lon="17.6630127">
        <ele>27.5349</ele>
        <time>2013-04-21T10:51:36Z</time>
      </trkpt>
      <trkpt lat="60.0193848" lon="17.6629124">
        <ele>27.5349</ele>
        <time>2013-04-21T10:51:37Z</time>
      </trkpt>
      <trkpt lat="60.0193673" lon="17.662808">
        <ele>27.5349</ele>
        <time>2013-04-21T10:51:38Z</time>
      </trkpt>
      <trkpt lat="60.0193512" lon="17.6627017">
        <ele>27.5349</ele>
        <time>2013-04-21T10:51:39Z</time>
      </trkpt>
      <trkpt lat="60.0193353" lon="17.6625947">
        <ele>27.5349</ele>
        <time>2013-04-21T10:51:40Z</time>
      </trkpt>
      <trkpt lat="60.0193196" lon="17.6624897">
        <ele>27.5349</ele>
        <time>2013-04-21T10:51:41Z</time>
      </trkpt>
      <trkpt lat="60.0193034" lon="17.6623835">
        <ele>27.5349</ele>
        <time>2013-04-21T10:51:42Z</time>
      </trkpt>
      <trkpt lat="60.0192886" lon="17.6622781">
        <ele>27.5349</ele>
        <time>2013-04-21T10:51:43Z</time>
      </trkpt>
      <trkpt lat="60.0192751" lon="17.6621734">
        <ele>27.5349</ele>
        <time>2013-04-21T10:51:44Z</time>
      </trkpt>
      <trkpt lat="60.0192637" lon="17.6620683">
        <ele>27.5349</ele>
        <time>2013-04-21T10:51:45Z</time>
      </trkpt>
      <trkpt lat="60.0192527" lon="17.6619626">
        <ele>28.0155</ele>
        <time>2013-04-21T10:51:46Z</time>
      </trkpt>
      <trkpt lat="60.0192419" lon="17.6618555">
        <ele>28.0155</ele>
        <time>2013-04-21T10:51:47Z</time>
      </trkpt>
      <trkpt lat="60.0192327" lon="17.6617476">
        <ele>28.0155</ele>
        <time>2013-04-21T10:51:48Z</time>
      </trkpt>
      <trkpt lat="60.0192239" lon="17.6616397">
        <ele>28.4962</ele>
        <time>2013-04-21T10:51:49Z</time>
      </trkpt>
      <trkpt lat="60.0192148" lon="17.6615306">
        <ele>28.4962</ele>
        <time>2013-04-21T10:51:50Z</time>
      </trkpt>
      <trkpt lat="60.0192057" lon="17.6614193">
        <ele>28.4962</ele>
        <time>2013-04-21T10:51:51Z</time>
      </trkpt>
      <trkpt lat="60.0191963" lon="17.6613074">
        <ele>28.4962</ele>
        <time>2013-04-21T10:51:52Z</time>
      </trkpt>
      <trkpt lat="60.0191879" lon="17.6611953">
        <ele>28.4962</ele>
        <time>2013-04-21T10:51:53Z</time>
      </trkpt>
      <trkpt lat="60.0191802" lon="17.661082">
        <ele>28.4962</ele>
        <time>2013-04-21T10:51:54Z</time>
      </trkpt>
      <trkpt lat="60.0191721" lon="17.6609737">
        <ele>28.0155</ele>
        <time>2013-04-21T10:51:55Z</time>
      </trkpt>
      <trkpt lat="60.0191637" lon="17.6608577">
        <ele>28.0155</ele>
        <time>2013-04-21T10:51:56Z</time>
      </trkpt>
      <trkpt lat="60.0191539" lon="17.6607414">
        <ele>28.0155</ele>
        <time>2013-04-21T10:51:57Z</time>
      </trkpt>
      <trkpt lat="60.0191435" lon="17.6606256">
        <ele>28.0155</ele>
        <time>2013-04-21T10:51:58Z</time>
      </trkpt>
      <trkpt lat="60.019134" lon="17.6605096">
        <ele>28.0155</ele>
        <time>2013-04-21T10:51:59Z</time>
      </trkpt>
      <trkpt lat="60.0191248" lon="17.6603923">
        <ele>28.4962</ele>
        <time>2013-04-21T10:52:00Z</time>
      </trkpt>
      <trkpt lat="60.0191158" lon="17.6602743">
        <ele>28.4962</ele>
        <time>2013-04-21T10:52:01Z</time>
      </trkpt>
      <trkpt lat="60.0191071" lon="17.6601578">
        <ele>28.4962</ele>
        <time>2013-04-21T10:52:02Z</time>
      </trkpt>
      <trkpt lat="60.0190984" lon="17.6600409">
        <ele>28.4962</ele>
        <time>2013-04-21T10:52:03Z</time>
      </trkpt>
      <trkpt lat="60.019089" lon="17.6599242">
        <ele>28.4962</ele>
        <time>2013-04-21T10:52:04Z</time>
      </trkpt>
      <trkpt lat="60.0190793" lon="17.6598103">
        <ele>28.4962</ele>
        <time>2013-04-21T10:52:05Z</time>
      </trkpt>
      <trkpt lat="60.0190706" lon="17.6596979">
        <ele>28.9769</ele>
        <time>2013-04-21T10:52:06Z</time>
      </trkpt>
      <trkpt lat="60.0190625" lon="17.6595863">
        <ele>28.9769</ele>
        <time>2013-04-21T10:52:07Z</time>
      </trkpt>
      <trkpt lat="60.0190543" lon="17.6594751">
        <ele>28.9769</ele>
        <time>2013-04-21T10:52:08Z</time>
      </trkpt>
      <trkpt lat="60.0190466" lon="17.6593632">
        <ele>28.9769</ele>
        <time>2013-04-21T10:52:09Z</time>
      </trkpt>
      <trkpt lat="60.0190383" lon="17.6592518">
        <ele>28.9769</ele>
        <time>2013-04-21T10:52:10Z</time>
      </trkpt>
      <trkpt lat="60.0190293" lon="17.6591414">
        <ele>28.9769</ele>
        <time>2013-04-21T10:52:11Z</time>
      </trkpt>
      <trkpt lat="60.0190203" lon="17.6590312">
        <ele>28.9769</ele>
        <time>2013-04-21T10:52:12Z</time>
      </trkpt>
      <trkpt lat="60.0190115" lon="17.6589208">
        <ele>28.9769</ele>
        <time>2013-04-21T10:52:13Z</time>
      </trkpt>
      <trkpt lat="60.0190032" lon="17.6588082">
        <ele>28.9769</ele>
        <time>2013-04-21T10:52:14Z</time>
      </trkpt>
      <trkpt lat="60.0189953" lon="17.6586919">
        <ele>28.9769</ele>
        <time>2013-04-21T10:52:15Z</time>
      </trkpt>
      <trkpt lat="60.0189879" lon="17.6585734">
        <ele>28.9769</ele>
        <time>2013-04-21T10:52:16Z</time>
      </trkpt>
      <trkpt lat="60.0189796" lon="17.6584555">
        <ele>28.9769</ele>
        <time>2013-04-21T10:52:17Z</time>
      </trkpt>
      <trkpt lat="60.0189709" lon="17.658337">
        <ele>28.9769</ele>
        <time>2013-04-21T10:52:18Z</time>
      </trkpt>
      <trkpt lat="60.0189622" lon="17.6582189">
        <ele>28.9769</ele>
        <time>2013-04-21T10:52:19Z</time>
      </trkpt>
      <trkpt lat="60.0189534" lon="17.6581014">
        <ele>28.9769</ele>
        <time>2013-04-21T10:52:20Z</time>
      </trkpt>
      <trkpt lat="60.0189435" lon="17.6579821">
        <ele>28.4962</ele>
        <time>2013-04-21T10:52:21Z</time>
      </trkpt>
      <trkpt lat="60.0189345" lon="17.6578631">
        <ele>28.4962</ele>
        <time>2013-04-21T10:52:22Z</time>
      </trkpt>
      <trkpt lat="60.0189264" lon="17.6577464">
        <ele>28.4962</ele>
        <time>2013-04-21T10:52:23Z</time>
      </trkpt>
      <trkpt lat="60.0189187" lon="17.6576304">
        <ele>28.4962</ele>
        <time>2013-04-21T10:52:24Z</time>
      </trkpt>
      <trkpt lat="60.0189093" lon="17.657515">
        <ele>28.4962</ele>
        <time>2013-04-21T10:52:25Z</time>
      </trkpt>
      <trkpt lat="60.0188998" lon="17.6573992">
        <ele>28.0155</ele>
        <time>2013-04-21T10:52:26Z</time>
      </trkpt>
      <trkpt lat="60.0188907" lon="17.6572834">
        <ele>28.0155</ele>
        <time>2013-04-21T10:52:27Z</time>
      </trkpt>
      <trkpt lat="60.018881" lon="17.6571679">
        <ele>28.0155</ele>
        <time>2013-04-21T10:52:28Z</time>
      </trkpt>
      <trkpt lat="60.0188715" lon="17.6570519">
        <ele>28.0155</ele>
        <time>2013-04-21T10:52:29Z</time>
      </trkpt>
      <trkpt lat="60.0188613" lon="17.6569361">
        <ele>28.0155</ele>
        <time>2013-04-21T10:52:30Z</time>
      </trkpt>
      <trkpt lat="60.0188512" lon="17.6568197">
        <ele>28.0155</ele>
        <time>2013-04-21T10:52:31Z</time>
      </trkpt>
      <trkpt lat="60.0188421" lon="17.6567012">
        <ele>28.0155</ele>
        <time>2013-04-21T10:52:32Z</time>
      </trkpt>
      <trkpt lat="60.0188331" lon="17.6565801">
        <ele>27.5349</ele>
        <time>2013-04-21T10:52:33Z</time>
      </trkpt>
      <trkpt lat="60.0188242" lon="17.656456">
        <ele>27.5349</ele>
        <time>2013-04-21T10:52:34Z</time>
      </trkpt>
      <trkpt lat="60.0188135" lon="17.6563311">
        <ele>27.5349</ele>
        <time>2013-04-21T10:52:35Z</time>
      </trkpt>
      <trkpt lat="60.0188032" lon="17.6562048">
        <ele>27.5349</ele>
        <time>2013-04-21T10:52:36Z</time>
      </trkpt>
      <trkpt lat="60.0187928" lon="17.6560794">
        <ele>27.5349</ele>
        <time>2013-04-21T10:52:37Z</time>
      </trkpt>
      <trkpt lat="60.0187803" lon="17.6559558">
        <ele>27.0543</ele>
        <time>2013-04-21T10:52:38Z</time>
      </trkpt>
      <trkpt lat="60.0187685" lon="17.6558345">
        <ele>27.0543</ele>
        <time>2013-04-21T10:52:39Z</time>
      </trkpt>
      <trkpt lat="60.0187607" lon="17.6557121">
        <ele>27.0543</ele>
        <time>2013-04-21T10:52:40Z</time>
      </trkpt>
      <trkpt lat="60.0187529" lon="17.6555879">
        <ele>26.5736</ele>
        <time>2013-04-21T10:52:41Z</time>
      </trkpt>
      <trkpt lat="60.0187439" lon="17.6554622">
        <ele>26.5736</ele>
        <time>2013-04-21T10:52:42Z</time>
      </trkpt>
      <trkpt lat="60.0187356" lon="17.6553372">
        <ele>27.0543</ele>
        <time>2013-04-21T10:52:43Z</time>
      </trkpt>
      <trkpt lat="60.0187256" lon="17.6552099">
        <ele>27.0543</ele>
        <time>2013-04-21T10:52:44Z</time>
      </trkpt>
      <trkpt lat="60.0187146" lon="17.6550819">
        <ele>27.0543</ele>
        <time>2013-04-21T10:52:45Z</time>
      </trkpt>
      <trkpt lat="60.0187054" lon="17.6549539">
        <ele>27.0543</ele>
        <time>2013-04-21T10:52:46Z</time>
      </trkpt>
      <trkpt lat="60.0186962" lon="17.6548252">
        <ele>27.0543</ele>
        <time>2013-04-21T10:52:47Z</time>
      </trkpt>
      <trkpt lat="60.0186862" lon="17.654695">
        <ele>27.0543</ele>
        <time>2013-04-21T10:52:48Z</time>
      </trkpt>
      <trkpt lat="60.0186761" lon="17.6545645">
        <ele>27.0543</ele>
        <time>2013-04-21T10:52:49Z</time>
      </trkpt>
      <trkpt lat="60.0186652" lon="17.6544328">
        <ele>27.0543</ele>
        <time>2013-04-21T10:52:50Z</time>
      </trkpt>
      <trkpt lat="60.0186536" lon="17.6543018">
        <ele>27.5349</ele>
        <time>2013-04-21T10:52:51Z</time>
      </trkpt>
      <trkpt lat="60.0186437" lon="17.6541743">
        <ele>27.0543</ele>
        <time>2013-04-21T10:52:52Z</time>
      </trkpt>
      <trkpt lat="60.0186348" lon="17.6540458">
        <ele>27.5349</ele>
        <time>2013-04-21T10:52:53Z</time>
      </trkpt>
      <trkpt lat="60.018626" lon="17.6539193">
        <ele>27.5349</ele>
        <time>2013-04-21T10:52:54Z</time>
      </trkpt>
      <trkpt lat="60.0186172" lon="17.6537956">
        <ele>28.0155</ele>
        <time>2013-04-21T10:52:55Z</time>
      </trkpt>
      <trkpt lat="60.0186079" lon="17.6536728">
        <ele>28.0155</ele>
        <time>2013-04-21T10:52:56Z</time>
      </trkpt>
      <trkpt lat="60.0185983" lon="17.65355">
        <ele>28.4962</ele>
        <time>2013-04-21T10:52:57Z</time>
      </trkpt>
      <trkpt lat="60.018589" lon="17.6534284">
        <ele>28.4962</ele>
        <time>2013-04-21T10:52:58Z</time>
      </trkpt>
      <trkpt lat="60.0185804" lon="17.6533082">
        <ele>28.4962</ele>
        <time>2013-04-21T10:52:59Z</time>
      </trkpt>
      <trkpt lat="60.0185715" lon="17.6531889">
        <ele>28.4962</ele>
        <time>2013-04-21T10:53:00Z</time>
      </trkpt>
      <trkpt lat="60.0185613" lon="17.6530704">
        <ele>28.4962</ele>
        <time>2013-04-21T10:53:01Z</time>
      </trkpt>
      <trkpt lat="60.0185513" lon="17.6529527">
        <ele>28.4962</ele>
        <time>2013-04-21T10:53:02Z</time>
      </trkpt>
      <trkpt lat="60.0185414" lon="17.6528362">
        <ele>28.4962</ele>
        <time>2013-04-21T10:53:03Z</time>
      </trkpt>
      <trkpt lat="60.0185321" lon="17.6527209">
        <ele>28.4962</ele>
        <time>2013-04-21T10:53:04Z</time>
      </trkpt>
      <trkpt lat="60.0185229" lon="17.6526059">
        <ele>28.4962</ele>
        <time>2013-04-21T10:53:05Z</time>
      </trkpt>
      <trkpt lat="60.0185146" lon="17.6524922">
        <ele>28.9769</ele>
        <time>2013-04-21T10:53:06Z</time>
      </trkpt>
      <trkpt lat="60.0185069" lon="17.6523846">
        <ele>28.9769</ele>
        <time>2013-04-21T10:53:07Z</time>
      </trkpt>
      <trkpt lat="60.0184985" lon="17.6522723">
        <ele>28.9769</ele>
        <time>2013-04-21T10:53:08Z</time>
      </trkpt>
      <trkpt lat="60.0184901" lon="17.6521607">
        <ele>28.9769</ele>
        <time>2013-04-21T10:53:09Z</time>
      </trkpt>
      <trkpt lat="60.0184826" lon="17.6520498">
        <ele>28.9769</ele>
        <time>2013-04-21T10:53:10Z</time>
      </trkpt>
      <trkpt lat="60.0184737" lon="17.6519394">
        <ele>28.9769</ele>
        <time>2013-04-21T10:53:11Z</time>
      </trkpt>
      <trkpt lat="60.0184619" lon="17.6518303">
        <ele>28.9769</ele>
        <time>2013-04-21T10:53:12Z</time>
      </trkpt>
      <trkpt lat="60.0184525" lon="17.6517196">
        <ele>28.4962</ele>
        <time>2013-04-21T10:53:13Z</time>
      </trkpt>
      <trkpt lat="60.0184462" lon="17.6516055">
        <ele>28.4962</ele>
        <time>2013-04-21T10:53:14Z</time>
      </trkpt>
      <trkpt lat="60.0184395" lon="17.6514903">
        <ele>28.9769</ele>
        <time>2013-04-21T10:53:15Z</time>
      </trkpt>
      <trkpt lat="60.0184312" lon="17.6513724">
        <ele>28.4962</ele>
        <time>2013-04-21T10:53:16Z</time>
      </trkpt>
      <trkpt lat="60.0184229" lon="17.6512541">
        <ele>28.4962</ele>
        <time>2013-04-21T10:53:17Z</time>
      </trkpt>
      <trkpt lat="60.0184141" lon="17.6511332">
        <ele>28.4962</ele>
        <time>2013-04-21T10:53:18Z</time>
      </trkpt>
      <trkpt lat="60.0184057" lon="17.6510127">
        <ele>28.4962</ele>
        <time>2013-04-21T10:53:19Z</time>
      </trkpt>
      <trkpt lat="60.0183989" lon="17.6508944">
        <ele>28.9769</ele>
        <time>2013-04-21T10:53:20Z</time>
      </trkpt>
      <trkpt lat="60.0183928" lon="17.6507767">
        <ele>28.4962</ele>
        <time>2013-04-21T10:53:21Z</time>
      </trkpt>
      <trkpt lat="60.0183867" lon="17.6506596">
        <ele>28.9769</ele>
        <time>2013-04-21T10:53:22Z</time>
      </trkpt>
      <trkpt lat="60.0183805" lon="17.6505389">
        <ele>28.9769</ele>
        <time>2013-04-21T10:53:23Z</time>
      </trkpt>
      <trkpt lat="60.0183751" lon="17.6504188">
        <ele>28.9769</ele>
        <time>2013-04-21T10:53:24Z</time>
      </trkpt>
      <trkpt lat="60.0183706" lon="17.6503028">
        <ele>28.9769</ele>
        <time>2013-04-21T10:53:25Z</time>
      </trkpt>
      <trkpt lat="60.0183665" lon="17.6501888">
        <ele>29.4575</ele>
        <time>2013-04-21T10:53:26Z</time>
      </trkpt>
      <trkpt lat="60.0183645" lon="17.650074">
        <ele>29.4575</ele>
        <time>2013-04-21T10:53:27Z</time>
      </trkpt>
      <trkpt lat="60.0183645" lon="17.6499585">
        <ele>29.9381</ele>
        <time>2013-04-21T10:53:28Z</time>
      </trkpt>
      <trkpt lat="60.0183624" lon="17.6498352">
        <ele>29.9381</ele>
        <time>2013-04-21T10:53:29Z</time>
      </trkpt>
      <trkpt lat="60.0183597" lon="17.6497178">
        <ele>30.4188</ele>
        <time>2013-04-21T10:53:30Z</time>
      </trkpt>
      <trkpt lat="60.018358" lon="17.6495986">
        <ele>30.8995</ele>
        <time>2013-04-21T10:53:31Z</time>
      </trkpt>
      <trkpt lat="60.0183571" lon="17.6494785">
        <ele>30.8995</ele>
        <time>2013-04-21T10:53:32Z</time>
      </trkpt>
      <trkpt lat="60.018356" lon="17.6493578">
        <ele>31.3801</ele>
        <time>2013-04-21T10:53:33Z</time>
      </trkpt>
      <trkpt lat="60.0183549" lon="17.6492359">
        <ele>31.3801</ele>
        <time>2013-04-21T10:53:34Z</time>
      </trkpt>
      <trkpt lat="60.0183533" lon="17.6491128">
        <ele>31.8607</ele>
        <time>2013-04-21T10:53:35Z</time>
      </trkpt>
      <trkpt lat="60.0183535" lon="17.6489895">
        <ele>31.8607</ele>
        <time>2013-04-21T10:53:36Z</time>
      </trkpt>
      <trkpt lat="60.0183547" lon="17.6488652">
        <ele>31.8607</ele>
        <time>2013-04-21T10:53:37Z</time>
      </trkpt>
      <trkpt lat="60.0183556" lon="17.6487419">
        <ele>31.8607</ele>
        <time>2013-04-21T10:53:38Z</time>
      </trkpt>
      <trkpt lat="60.0183556" lon="17.6486187">
        <ele>31.8607</ele>
        <time>2013-04-21T10:53:39Z</time>
      </trkpt>
      <trkpt lat="60.0183554" lon="17.6484955">
        <ele>31.8607</ele>
        <time>2013-04-21T10:53:40Z</time>
      </trkpt>
      <trkpt lat="60.0183545" lon="17.6483717">
        <ele>31.8607</ele>
        <time>2013-04-21T10:53:41Z</time>
      </trkpt>
      <trkpt lat="60.0183531" lon="17.6482483">
        <ele>31.8607</ele>
        <time>2013-04-21T10:53:42Z</time>
      </trkpt>
      <trkpt lat="60.0183526" lon="17.6481263">
        <ele>31.8607</ele>
        <time>2013-04-21T10:53:43Z</time>
      </trkpt>
      <trkpt lat="60.018353" lon="17.6480033">
        <ele>32.3416</ele>
        <time>2013-04-21T10:53:44Z</time>
      </trkpt>
      <trkpt lat="60.0183525" lon="17.6478782">
        <ele>32.3416</ele>
        <time>2013-04-21T10:53:45Z</time>
      </trkpt>
      <trkpt lat="60.0183509" lon="17.6477524">
        <ele>31.8607</ele>
        <time>2013-04-21T10:53:46Z</time>
      </trkpt>
      <trkpt lat="60.0183497" lon="17.6476265">
        <ele>32.3416</ele>
        <time>2013-04-21T10:53:47Z</time>
      </trkpt>
      <trkpt lat="60.018349" lon="17.6475012">
        <ele>32.3416</ele>
        <time>2013-04-21T10:53:48Z</time>
      </trkpt>
      <trkpt lat="60.0183478" lon="17.6473754">
        <ele>32.3416</ele>
        <time>2013-04-21T10:53:49Z</time>
      </trkpt>
      <trkpt lat="60.0183463" lon="17.6472501">
        <ele>32.3416</ele>
        <time>2013-04-21T10:53:50Z</time>
      </trkpt>
      <trkpt lat="60.0183452" lon="17.6471248">
        <ele>32.3416</ele>
        <time>2013-04-21T10:53:51Z</time>
      </trkpt>
      <trkpt lat="60.0183431" lon="17.6469981">
        <ele>31.8607</ele>
        <time>2013-04-21T10:53:52Z</time>
      </trkpt>
      <trkpt lat="60.0183412" lon="17.646871">
        <ele>32.3416</ele>
        <time>2013-04-21T10:53:53Z</time>
      </trkpt>
      <trkpt lat="60.0183401" lon="17.6467441">
        <ele>32.3416</ele>
        <time>2013-04-21T10:53:54Z</time>
      </trkpt>
      <trkpt lat="60.0183394" lon="17.6466163">
        <ele>32.3416</ele>
        <time>2013-04-21T10:53:55Z</time>
      </trkpt>
      <trkpt lat="60.0183385" lon="17.6464881">
        <ele>32.8223</ele>
        <time>2013-04-21T10:53:56Z</time>
      </trkpt>
      <trkpt lat="60.0183371" lon="17.64636">
        <ele>32.8223</ele>
        <time>2013-04-21T10:53:57Z</time>
      </trkpt>
      <trkpt lat="60.0183354" lon="17.6462346">
        <ele>32.8223</ele>
        <time>2013-04-21T10:53:58Z</time>
      </trkpt>
      <trkpt lat="60.0183352" lon="17.646113">
        <ele>33.3029</ele>
        <time>2013-04-21T10:53:59Z</time>
      </trkpt>
      <trkpt lat="60.018336" lon="17.645993">
        <ele>33.3029</ele>
        <time>2013-04-21T10:54:00Z</time>
      </trkpt>
      <trkpt lat="60.0183367" lon="17.6458716">
        <ele>33.3029</ele>
        <time>2013-04-21T10:54:01Z</time>
      </trkpt>
      <trkpt lat="60.0183364" lon="17.64575">
        <ele>33.3029</ele>
        <time>2013-04-21T10:54:02Z</time>
      </trkpt>
      <trkpt lat="60.0183353" lon="17.645629">
        <ele>33.3029</ele>
        <time>2013-04-21T10:54:03Z</time>
      </trkpt>
      <trkpt lat="60.0183338" lon="17.6455104">
        <ele>33.3029</ele>
        <time>2013-04-21T10:54:04Z</time>
      </trkpt>
      <trkpt lat="60.0183323" lon="17.645393">
        <ele>33.7834</ele>
        <time>2013-04-21T10:54:05Z</time>
      </trkpt>
      <trkpt lat="60.0183302" lon="17.6452763">
        <ele>33.7834</ele>
        <time>2013-04-21T10:54:06Z</time>
      </trkpt>
      <trkpt lat="60.0183287" lon="17.6451604">
        <ele>33.7834</ele>
        <time>2013-04-21T10:54:07Z</time>
      </trkpt>
      <trkpt lat="60.0183288" lon="17.6450459">
        <ele>33.7834</ele>
        <time>2013-04-21T10:54:08Z</time>
      </trkpt>
      <trkpt lat="60.0183296" lon="17.644932">
        <ele>34.2642</ele>
        <time>2013-04-21T10:54:09Z</time>
      </trkpt>
      <trkpt lat="60.0183285" lon="17.64482">
        <ele>34.2642</ele>
        <time>2013-04-21T10:54:10Z</time>
      </trkpt>
      <trkpt lat="60.0183265" lon="17.6447112">
        <ele>34.2642</ele>
        <time>2013-04-21T10:54:11Z</time>
      </trkpt>
      <trkpt lat="60.0183253" lon="17.6446047">
        <ele>34.2642</ele>
        <time>2013-04-21T10:54:12Z</time>
      </trkpt>
      <trkpt lat="60.0183256" lon="17.6445006">
        <ele>34.2642</ele>
        <time>2013-04-21T10:54:13Z</time>
      </trkpt>
      <trkpt lat="60.0183264" lon="17.644398">
        <ele>34.2642</ele>
        <time>2013-04-21T10:54:14Z</time>
      </trkpt>
      <trkpt lat="60.0183274" lon="17.6442957">
        <ele>33.7834</ele>
        <time>2013-04-21T10:54:15Z</time>
      </trkpt>
      <trkpt lat="60.0183279" lon="17.6441939">
        <ele>33.7834</ele>
        <time>2013-04-21T10:54:16Z</time>
      </trkpt>
      <trkpt lat="60.0183286" lon="17.6440931">
        <ele>33.7834</ele>
        <time>2013-04-21T10:54:17Z</time>
      </trkpt>
      <trkpt lat="60.0183297" lon="17.6439929">
        <ele>33.7834</ele>
        <time>2013-04-21T10:54:18Z</time>
      </trkpt>
      <trkpt lat="60.018331" lon="17.643893">
        <ele>33.7834</ele>
        <time>2013-04-21T10:54:19Z</time>
      </trkpt>
      <trkpt lat="60.0183329" lon="17.6437923">
        <ele>33.7834</ele>
        <time>2013-04-21T10:54:20Z</time>
      </trkpt>
      <trkpt lat="60.0183345" lon="17.6436912">
        <ele>33.7834</ele>
        <time>2013-04-21T10:54:21Z</time>
      </trkpt>
      <trkpt lat="60.0183359" lon="17.6435877">
        <ele>33.7834</ele>
        <time>2013-04-21T10:54:22Z</time>
      </trkpt>
      <trkpt lat="60.0183364" lon="17.6434866">
        <ele>33.7834</ele>
        <time>2013-04-21T10:54:23Z</time>
      </trkpt>
      <trkpt lat="60.0183359" lon="17.6433855">
        <ele>33.7834</ele>
        <time>2013-04-21T10:54:24Z</time>
      </trkpt>
      <trkpt lat="60.0183348" lon="17.6432831">
        <ele>33.7834</ele>
        <time>2013-04-21T10:54:25Z</time>
      </trkpt>
      <trkpt lat="60.0183343" lon="17.643182">
        <ele>33.7834</ele>
        <time>2013-04-21T10:54:26Z</time>
      </trkpt>
      <trkpt lat="60.0183344" lon="17.6430827">
        <ele>33.7834</ele>
        <time>2013-04-21T10:54:27Z</time>
      </trkpt>
      <trkpt lat="60.0183333" lon="17.6429864">
        <ele>34.2642</ele>
        <time>2013-04-21T10:54:28Z</time>
      </trkpt>
      <trkpt lat="60.0183326" lon="17.642888">
        <ele>34.2642</ele>
        <time>2013-04-21T10:54:29Z</time>
      </trkpt>
      <trkpt lat="60.0183323" lon="17.6427852">
        <ele>34.2642</ele>
        <time>2013-04-21T10:54:30Z</time>
      </trkpt>
      <trkpt lat="60.0183318" lon="17.6426786">
        <ele>34.2642</ele>
        <time>2013-04-21T10:54:31Z</time>
      </trkpt>
      <trkpt lat="60.0183292" lon="17.6425688">
        <ele>34.2642</ele>
        <time>2013-04-21T10:54:32Z</time>
      </trkpt>
      <trkpt lat="60.0183239" lon="17.6424549">
        <ele>34.2642</ele>
        <time>2013-04-21T10:54:33Z</time>
      </trkpt>
      <trkpt lat="60.0183158" lon="17.6423398">
        <ele>34.2642</ele>
        <time>2013-04-21T10:54:34Z</time>
      </trkpt>
      <trkpt lat="60.0183078" lon="17.6422218">
        <ele>34.2642</ele>
        <time>2013-04-21T10:54:35Z</time>
      </trkpt>
      <trkpt lat="60.0182981" lon="17.6421052">
        <ele>33.7834</ele>
        <time>2013-04-21T10:54:36Z</time>
      </trkpt>
      <trkpt lat="60.0182855" lon="17.6419917">
        <ele>33.7834</ele>
        <time>2013-04-21T10:54:37Z</time>
      </trkpt>
      <trkpt lat="60.0182736" lon="17.6418797">
        <ele>33.7834</ele>
        <time>2013-04-21T10:54:38Z</time>
      </trkpt>
      <trkpt lat="60.0182644" lon="17.6417665">
        <ele>33.7834</ele>
        <time>2013-04-21T10:54:39Z</time>
      </trkpt>
      <trkpt lat="60.0182549" lon="17.641653">
        <ele>33.7834</ele>
        <time>2013-04-21T10:54:40Z</time>
      </trkpt>
      <trkpt lat="60.0182422" lon="17.6415409">
        <ele>33.7834</ele>
        <time>2013-04-21T10:54:41Z</time>
      </trkpt>
      <trkpt lat="60.0182288" lon="17.6414256">
        <ele>33.7834</ele>
        <time>2013-04-21T10:54:42Z</time>
      </trkpt>
      <trkpt lat="60.0182189" lon="17.6413105">
        <ele>32.8223</ele>
        <time>2013-04-21T10:54:43Z</time>
      </trkpt>
      <trkpt lat="60.0182111" lon="17.6411918">
        <ele>32.3416</ele>
        <time>2013-04-21T10:54:44Z</time>
      </trkpt>
      <trkpt lat="60.0182021" lon="17.6410721">
        <ele>32.3416</ele>
        <time>2013-04-21T10:54:45Z</time>
      </trkpt>
      <trkpt lat="60.0181914" lon="17.6409526">
        <ele>32.3416</ele>
        <time>2013-04-21T10:54:46Z</time>
      </trkpt>
      <trkpt lat="60.018181" lon="17.6408331">
        <ele>32.3416</ele>
        <time>2013-04-21T10:54:47Z</time>
      </trkpt>
      <trkpt lat="60.0181702" lon="17.6407144">
        <ele>32.3416</ele>
        <time>2013-04-21T10:54:48Z</time>
      </trkpt>
      <trkpt lat="60.0181568" lon="17.6405967">
        <ele>31.8607</ele>
        <time>2013-04-21T10:54:49Z</time>
      </trkpt>
      <trkpt lat="60.0181444" lon="17.6404812">
        <ele>31.8607</ele>
        <time>2013-04-21T10:54:50Z</time>
      </trkpt>
      <trkpt lat="60.0181345" lon="17.6403672">
        <ele>31.8607</ele>
        <time>2013-04-21T10:54:51Z</time>
      </trkpt>
      <trkpt lat="60.0181246" lon="17.6402524">
        <ele>31.8607</ele>
        <time>2013-04-21T10:54:52Z</time>
      </trkpt>
      <trkpt lat="60.0181146" lon="17.6401369">
        <ele>31.8607</ele>
        <time>2013-04-21T10:54:53Z</time>
      </trkpt>
      <trkpt lat="60.0181044" lon="17.6400203">
        <ele>31.8607</ele>
        <time>2013-04-21T10:54:54Z</time>
      </trkpt>
      <trkpt lat="60.0180926" lon="17.6399021">
        <ele>31.8607</ele>
        <time>2013-04-21T10:54:55Z</time>
      </trkpt>
      <trkpt lat="60.01808" lon="17.6397824">
        <ele>31.3801</ele>
        <time>2013-04-21T10:54:56Z</time>
      </trkpt>
      <trkpt lat="60.0180676" lon="17.6396612">
        <ele>30.8995</ele>
        <time>2013-04-21T10:54:57Z</time>
      </trkpt>
      <trkpt lat="60.0180556" lon="17.6395405">
        <ele>30.8995</ele>
        <time>2013-04-21T10:54:58Z</time>
      </trkpt>
      <trkpt lat="60.0180438" lon="17.6394205">
        <ele>30.8995</ele>
        <time>2013-04-21T10:54:59Z</time>
      </trkpt>
      <trkpt lat="60.0180322" lon="17.6393">
        <ele>30.8995</ele>
        <time>2013-04-21T10:55:00Z</time>
      </trkpt>
      <trkpt lat="60.0180206" lon="17.6391793">
        <ele>30.4188</ele>
        <time>2013-04-21T10:55:01Z</time>
      </trkpt>
      <trkpt lat="60.0180091" lon="17.6390581">
        <ele>30.4188</ele>
        <time>2013-04-21T10:55:02Z</time>
      </trkpt>
      <trkpt lat="60.0179967" lon="17.6389364">
        <ele>30.4188</ele>
        <time>2013-04-21T10:55:03Z</time>
      </trkpt>
      <trkpt lat="60.0179841" lon="17.6388141">
        <ele>30.8995</ele>
        <time>2013-04-21T10:55:04Z</time>
      </trkpt>
      <trkpt lat="60.0179713" lon="17.6386914">
        <ele>30.8995</ele>
        <time>2013-04-21T10:55:05Z</time>
      </trkpt>
      <trkpt lat="60.0179583" lon="17.6385693">
        <ele>30.8995</ele>
        <time>2013-04-21T10:55:06Z</time>
      </trkpt>
      <trkpt lat="60.0179423" lon="17.6384511">
        <ele>30.8995</ele>
        <time>2013-04-21T10:55:07Z</time>
      </trkpt>
      <trkpt lat="60.0179236" lon="17.6383385">
        <ele>30.8995</ele>
        <time>2013-04-21T10:55:08Z</time>
      </trkpt>
      <trkpt lat="60.0179049" lon="17.6382285">
        <ele>30.8995</ele>
        <time>2013-04-21T10:55:09Z</time>
      </trkpt>
      <trkpt lat="60.0178869" lon="17.6381186">
        <ele>31.3801</ele>
        <time>2013-04-21T10:55:10Z</time>
      </trkpt>
      <trkpt lat="60.0178676" lon="17.6380092">
        <ele>31.3801</ele>
        <time>2013-04-21T10:55:11Z</time>
      </trkpt>
      <trkpt lat="60.0178462" lon="17.6379008">
        <ele>31.3801</ele>
        <time>2013-04-21T10:55:12Z</time>
      </trkpt>
      <trkpt lat="60.0178236" lon="17.6377928">
        <ele>31.8607</ele>
        <time>2013-04-21T10:55:13Z</time>
      </trkpt>
      <trkpt lat="60.0177999" lon="17.6376848">
        <ele>31.8607</ele>
        <time>2013-04-21T10:55:14Z</time>
      </trkpt>
      <trkpt lat="60.0177754" lon="17.6375762">
        <ele>31.8607</ele>
        <time>2013-04-21T10:55:15Z</time>
      </trkpt>
      <trkpt lat="60.0177506" lon="17.6374685">
        <ele>32.3416</ele>
        <time>2013-04-21T10:55:16Z</time>
      </trkpt>
      <trkpt lat="60.0177237" lon="17.6373654">
        <ele>32.8223</ele>
        <time>2013-04-21T10:55:17Z</time>
      </trkpt>
      <trkpt lat="60.0176952" lon="17.637265">
        <ele>32.8223</ele>
        <time>2013-04-21T10:55:18Z</time>
      </trkpt>
      <trkpt lat="60.0176672" lon="17.6371643">
        <ele>33.3029</ele>
        <time>2013-04-21T10:55:19Z</time>
      </trkpt>
      <trkpt lat="60.0176395" lon="17.6370627">
        <ele>33.3029</ele>
        <time>2013-04-21T10:55:20Z</time>
      </trkpt>
      <trkpt lat="60.017611" lon="17.6369601">
        <ele>33.7834</ele>
        <time>2013-04-21T10:55:21Z</time>
      </trkpt>
      <trkpt lat="60.0175801" lon="17.6368593">
        <ele>33.7834</ele>
        <time>2013-04-21T10:55:22Z</time>
      </trkpt>
      <trkpt lat="60.0175475" lon="17.6367598">
        <ele>33.7834</ele>
        <time>2013-04-21T10:55:23Z</time>
      </trkpt>
      <trkpt lat="60.0175157" lon="17.6366588">
        <ele>33.7834</ele>
        <time>2013-04-21T10:55:24Z</time>
      </trkpt>
      <trkpt lat="60.0174843" lon="17.6365552">
        <ele>33.7834</ele>
        <time>2013-04-21T10:55:25Z</time>
      </trkpt>
      <trkpt lat="60.0174527" lon="17.6364511">
        <ele>33.7834</ele>
        <time>2013-04-21T10:55:26Z</time>
      </trkpt>
      <trkpt lat="60.017421" lon="17.6363478">
        <ele>34.2642</ele>
        <time>2013-04-21T10:55:27Z</time>
      </trkpt>
      <trkpt lat="60.0173905" lon="17.6362437">
        <ele>34.2642</ele>
        <time>2013-04-21T10:55:28Z</time>
      </trkpt>
      <trkpt lat="60.0173616" lon="17.6361398">
        <ele>34.2642</ele>
        <time>2013-04-21T10:55:29Z</time>
      </trkpt>
      <trkpt lat="60.017333" lon="17.6360373">
        <ele>34.7449</ele>
        <time>2013-04-21T10:55:30Z</time>
      </trkpt>
      <trkpt lat="60.017306" lon="17.6359378">
        <ele>34.7449</ele>
        <time>2013-04-21T10:55:31Z</time>
      </trkpt>
      <trkpt lat="60.0172785" lon="17.6358362">
        <ele>34.7449</ele>
        <time>2013-04-21T10:55:32Z</time>
      </trkpt>
      <trkpt lat="60.0172507" lon="17.6357362">
        <ele>34.7449</ele>
        <time>2013-04-21T10:55:33Z</time>
      </trkpt>
      <trkpt lat="60.0172223" lon="17.6356369">
        <ele>35.2255</ele>
        <time>2013-04-21T10:55:34Z</time>
      </trkpt>
      <trkpt lat="60.0171957" lon="17.6355415">
        <ele>34.7449</ele>
        <time>2013-04-21T10:55:35Z</time>
      </trkpt>
      <trkpt lat="60.0171692" lon="17.6354466">
        <ele>34.7449</ele>
        <time>2013-04-21T10:55:36Z</time>
      </trkpt>
      <trkpt lat="60.0171407" lon="17.6353493">
        <ele>34.7449</ele>
        <time>2013-04-21T10:55:37Z</time>
      </trkpt>
      <trkpt lat="60.0171116" lon="17.6352498">
        <ele>34.7449</ele>
        <time>2013-04-21T10:55:38Z</time>
      </trkpt>
      <trkpt lat="60.0170835" lon="17.6351491">
        <ele>34.7449</ele>
        <time>2013-04-21T10:55:39Z</time>
      </trkpt>
      <trkpt lat="60.017055" lon="17.6350497">
        <ele>34.7449</ele>
        <time>2013-04-21T10:55:40Z</time>
      </trkpt>
      <trkpt lat="60.0170268" lon="17.6349502">
        <ele>35.2255</ele>
        <time>2013-04-21T10:55:41Z</time>
      </trkpt>
      <trkpt lat="60.0169989" lon="17.6348495">
        <ele>35.2255</ele>
        <time>2013-04-21T10:55:42Z</time>
      </trkpt>
      <trkpt lat="60.0169699" lon="17.6347474">
        <ele>35.2255</ele>
        <time>2013-04-21T10:55:43Z</time>
      </trkpt>
      <trkpt lat="60.01694" lon="17.6346422">
        <ele>35.2255</ele>
        <time>2013-04-21T10:55:44Z</time>
      </trkpt>
      <trkpt lat="60.0169103" lon="17.6345361">
        <ele>35.2255</ele>
        <time>2013-04-21T10:55:45Z</time>
      </trkpt>
      <trkpt lat="60.0168791" lon="17.6344288">
        <ele>35.2255</ele>
        <time>2013-04-21T10:55:46Z</time>
      </trkpt>
      <trkpt lat="60.0168482" lon="17.6343195">
        <ele>35.2255</ele>
        <time>2013-04-21T10:55:47Z</time>
      </trkpt>
      <trkpt lat="60.0168176" lon="17.6342071">
        <ele>35.2255</ele>
        <time>2013-04-21T10:55:48Z</time>
      </trkpt>
      <trkpt lat="60.0167858" lon="17.6340946">
        <ele>35.2255</ele>
        <time>2013-04-21T10:55:49Z</time>
      </trkpt>
      <trkpt lat="60.0167506" lon="17.6339854">
        <ele>35.2255</ele>
        <time>2013-04-21T10:55:50Z</time>
      </trkpt>
      <trkpt lat="60.0167139" lon="17.6338762">
        <ele>35.7061</ele>
        <time>2013-04-21T10:55:51Z</time>
      </trkpt>
      <trkpt lat="60.016676" lon="17.6337689">
        <ele>35.7061</ele>
        <time>2013-04-21T10:55:52Z</time>
      </trkpt>
      <trkpt lat="60.0166368" lon="17.6336633">
        <ele>35.7061</ele>
        <time>2013-04-21T10:55:53Z</time>
      </trkpt>
      <trkpt lat="60.0165945" lon="17.6335632">
        <ele>35.7061</ele>
        <time>2013-04-21T10:55:54Z</time>
      </trkpt>
      <trkpt lat="60.0165504" lon="17.6334652">
        <ele>35.2255</ele>
        <time>2013-04-21T10:55:55Z</time>
      </trkpt>
      <trkpt lat="60.0165058" lon="17.633371">
        <ele>35.2255</ele>
        <time>2013-04-21T10:55:56Z</time>
      </trkpt>
      <trkpt lat="60.0164607" lon="17.6332819">
        <ele>34.7449</ele>
        <time>2013-04-21T10:55:57Z</time>
      </trkpt>
      <trkpt lat="60.0164155" lon="17.6331922">
        <ele>34.7449</ele>
        <time>2013-04-21T10:55:58Z</time>
      </trkpt>
      <trkpt lat="60.0163689" lon="17.6331052">
        <ele>34.7449</ele>
        <time>2013-04-21T10:55:59Z</time>
      </trkpt>
      <trkpt lat="60.0163225" lon="17.6330162">
        <ele>34.7449</ele>
        <time>2013-04-21T10:56:00Z</time>
      </trkpt>
      <trkpt lat="60.0162766" lon="17.6329266">
        <ele>35.2255</ele>
        <time>2013-04-21T10:56:01Z</time>
      </trkpt>
      <trkpt lat="60.0162302" lon="17.6328388">
        <ele>35.2255</ele>
        <time>2013-04-21T10:56:02Z</time>
      </trkpt>
      <trkpt lat="60.0161831" lon="17.632751">
        <ele>35.2255</ele>
        <time>2013-04-21T10:56:03Z</time>
      </trkpt>
      <trkpt lat="60.0161359" lon="17.6326627">
        <ele>35.2255</ele>
        <time>2013-04-21T10:56:04Z</time>
      </trkpt>
      <trkpt lat="60.0160888" lon="17.6325781">
        <ele>35.2255</ele>
        <time>2013-04-21T10:56:05Z</time>
      </trkpt>
      <trkpt lat="60.016043" lon="17.6324925">
        <ele>35.2255</ele>
        <time>2013-04-21T10:56:06Z</time>
      </trkpt>
      <trkpt lat="60.0159986" lon="17.6324055">
        <ele>35.2255</ele>
        <time>2013-04-21T10:56:07Z</time>
      </trkpt>
      <trkpt lat="60.015954" lon="17.6323198">
        <ele>35.2255</ele>
        <time>2013-04-21T10:56:08Z</time>
      </trkpt>
      <trkpt lat="60.0159091" lon="17.6322341">
        <ele>35.2255</ele>
        <time>2013-04-21T10:56:09Z</time>
      </trkpt>
      <trkpt lat="60.0158648" lon="17.6321491">
        <ele>35.2255</ele>
        <time>2013-04-21T10:56:10Z</time>
      </trkpt>
      <trkpt lat="60.015822" lon="17.6320606">
        <ele>35.2255</ele>
        <time>2013-04-21T10:56:11Z</time>
      </trkpt>
      <trkpt lat="60.0157796" lon="17.6319677">
        <ele>35.7061</ele>
        <time>2013-04-21T10:56:12Z</time>
      </trkpt>
      <trkpt lat="60.0157371" lon="17.6318698">
        <ele>35.2255</ele>
        <time>2013-04-21T10:56:13Z</time>
      </trkpt>
      <trkpt lat="60.0156972" lon="17.631775">
        <ele>35.7061</ele>
        <time>2013-04-21T10:56:14Z</time>
      </trkpt>
      <trkpt lat="60.0156568" lon="17.6316862">
        <ele>35.2255</ele>
        <time>2013-04-21T10:56:15Z</time>
      </trkpt>
      <trkpt lat="60.0156157" lon="17.6315979">
        <ele>34.7449</ele>
        <time>2013-04-21T10:56:16Z</time>
      </trkpt>
      <trkpt lat="60.0155747" lon="17.631504">
        <ele>34.7449</ele>
        <time>2013-04-21T10:56:17Z</time>
      </trkpt>
      <trkpt lat="60.015534" lon="17.6314015">
        <ele>34.2642</ele>
        <time>2013-04-21T10:56:18Z</time>
      </trkpt>
      <trkpt lat="60.0154951" lon="17.6313058">
        <ele>34.2642</ele>
        <time>2013-04-21T10:56:19Z</time>
      </trkpt>
      <trkpt lat="60.0154556" lon="17.6312125">
        <ele>33.7834</ele>
        <time>2013-04-21T10:56:20Z</time>
      </trkpt>
      <trkpt lat="60.0154167" lon="17.6311227">
        <ele>32.8223</ele>
        <time>2013-04-21T10:56:21Z</time>
      </trkpt>
      <trkpt lat="60.0153784" lon="17.6310364">
        <ele>32.3416</ele>
        <time>2013-04-21T10:56:22Z</time>
      </trkpt>
      <trkpt lat="60.0153402" lon="17.6309504">
        <ele>31.8607</ele>
        <time>2013-04-21T10:56:23Z</time>
      </trkpt>
      <trkpt lat="60.0153022" lon="17.6308626">
        <ele>31.3801</ele>
        <time>2013-04-21T10:56:24Z</time>
      </trkpt>
      <trkpt lat="60.0152626" lon="17.6307738">
        <ele>30.8995</ele>
        <time>2013-04-21T10:56:25Z</time>
      </trkpt>
      <trkpt lat="60.0152216" lon="17.6306844">
        <ele>30.8995</ele>
        <time>2013-04-21T10:56:26Z</time>
      </trkpt>
      <trkpt lat="60.0151797" lon="17.6305956">
        <ele>30.4188</ele>
        <time>2013-04-21T10:56:27Z</time>
      </trkpt>
      <trkpt lat="60.0151357" lon="17.6305083">
        <ele>30.4188</ele>
        <time>2013-04-21T10:56:28Z</time>
      </trkpt>
      <trkpt lat="60.0150905" lon="17.6304235">
        <ele>30.4188</ele>
        <time>2013-04-21T10:56:29Z</time>
      </trkpt>
      <trkpt lat="60.015044" lon="17.6303382">
        <ele>29.9381</ele>
        <time>2013-04-21T10:56:30Z</time>
      </trkpt>
      <trkpt lat="60.0149966" lon="17.6302534">
        <ele>29.9381</ele>
        <time>2013-04-21T10:56:31Z</time>
      </trkpt>
      <trkpt lat="60.0149481" lon="17.6301713">
        <ele>29.9381</ele>
        <time>2013-04-21T10:56:32Z</time>
      </trkpt>
      <trkpt lat="60.0148995" lon="17.6300909">
        <ele>29.9381</ele>
        <time>2013-04-21T10:56:33Z</time>
      </trkpt>
      <trkpt lat="60.0148507" lon="17.6300123">
        <ele>29.9381</ele>
        <time>2013-04-21T10:56:34Z</time>
      </trkpt>
      <trkpt lat="60.014801" lon="17.6299351">
        <ele>29.9381</ele>
        <time>2013-04-21T10:56:35Z</time>
      </trkpt>
      <trkpt lat="60.0147512" lon="17.6298579">
        <ele>29.9381</ele>
        <time>2013-04-21T10:56:36Z</time>
      </trkpt>
      <trkpt lat="60.0147013" lon="17.6297816">
        <ele>29.9381</ele>
        <time>2013-04-21T10:56:37Z</time>
      </trkpt>
      <trkpt lat="60.0146516" lon="17.6297066">
        <ele>29.9381</ele>
        <time>2013-04-21T10:56:38Z</time>
      </trkpt>
      <trkpt lat="60.0146026" lon="17.6296326">
        <ele>30.4188</ele>
        <time>2013-04-21T10:56:39Z</time>
      </trkpt>
      <trkpt lat="60.0145544" lon="17.6295604">
        <ele>30.4188</ele>
        <time>2013-04-21T10:56:40Z</time>
      </trkpt>
      <trkpt lat="60.0145058" lon="17.6294866">
        <ele>30.4188</ele>
        <time>2013-04-21T10:56:41Z</time>
      </trkpt>
      <trkpt lat="60.014458" lon="17.629415">
        <ele>30.4188</ele>
        <time>2013-04-21T10:56:42Z</time>
      </trkpt>
      <trkpt lat="60.0144104" lon="17.6293454">
        <ele>29.9381</ele>
        <time>2013-04-21T10:56:43Z</time>
      </trkpt>
      <trkpt lat="60.0143628" lon="17.629277">
        <ele>29.9381</ele>
        <time>2013-04-21T10:56:44Z</time>
      </trkpt>
      <trkpt lat="60.0143146" lon="17.6292096">
        <ele>29.9381</ele>
        <time>2013-04-21T10:56:45Z</time>
      </trkpt>
      <trkpt lat="60.0142665" lon="17.6291436">
        <ele>29.9381</ele>
        <time>2013-04-21T10:56:46Z</time>
      </trkpt>
      <trkpt lat="60.0142184" lon="17.6290779">
        <ele>29.9381</ele>
        <time>2013-04-21T10:56:47Z</time>
      </trkpt>
      <trkpt lat="60.0141696" lon="17.6290073">
        <ele>30.4188</ele>
        <time>2013-04-21T10:56:48Z</time>
      </trkpt>
      <trkpt lat="60.0141215" lon="17.6289415">
        <ele>30.4188</ele>
        <time>2013-04-21T10:56:49Z</time>
      </trkpt>
      <trkpt lat="60.0140732" lon="17.6288743">
        <ele>30.8995</ele>
        <time>2013-04-21T10:56:50Z</time>
      </trkpt>
      <trkpt lat="60.0140226" lon="17.6287973">
        <ele>31.3801</ele>
        <time>2013-04-21T10:56:51Z</time>
      </trkpt>
      <trkpt lat="60.0139712" lon="17.6287218">
        <ele>31.8607</ele>
        <time>2013-04-21T10:56:52Z</time>
      </trkpt>
      <trkpt lat="60.0139199" lon="17.628649">
        <ele>32.3416</ele>
        <time>2013-04-21T10:56:53Z</time>
      </trkpt>
      <trkpt lat="60.0138695" lon="17.6285773">
        <ele>32.3416</ele>
        <time>2013-04-21T10:56:54Z</time>
      </trkpt>
      <trkpt lat="60.0138198" lon="17.6285046">
        <ele>32.8223</ele>
        <time>2013-04-21T10:56:55Z</time>
      </trkpt>
      <trkpt lat="60.0137705" lon="17.6284302">
        <ele>33.3029</ele>
        <time>2013-04-21T10:56:56Z</time>
      </trkpt>
      <trkpt lat="60.0137218" lon="17.6283551">
        <ele>33.3029</ele>
        <time>2013-04-21T10:56:57Z</time>
      </trkpt>
      <trkpt lat="60.0136723" lon="17.6282803">
        <ele>33.3029</ele>
        <time>2013-04-21T10:56:58Z</time>
      </trkpt>
      <trkpt lat="60.0136225" lon="17.628206">
        <ele>33.7834</ele>
        <time>2013-04-21T10:56:59Z</time>
      </trkpt>
      <trkpt lat="60.0135731" lon="17.6281299">
        <ele>33.7834</ele>
        <time>2013-04-21T10:57:00Z</time>
      </trkpt>
      <trkpt lat="60.0135241" lon="17.6280529">
        <ele>33.7834</ele>
        <time>2013-04-21T10:57:01Z</time>
      </trkpt>
      <trkpt lat="60.0134754" lon="17.6279749">
        <ele>33.7834</ele>
        <time>2013-04-21T10:57:02Z</time>
      </trkpt>
      <trkpt lat="60.0134276" lon="17.6278951">
        <ele>34.2642</ele>
        <time>2013-04-21T10:57:03Z</time>
      </trkpt>
      <trkpt lat="60.0133797" lon="17.6278153">
        <ele>34.2642</ele>
        <time>2013-04-21T10:57:04Z</time>
      </trkpt>
      <trkpt lat="60.0133309" lon="17.627736">
        <ele>34.2642</ele>
        <time>2013-04-21T10:57:05Z</time>
      </trkpt>
      <trkpt lat="60.0132821" lon="17.6276559">
        <ele>34.2642</ele>
        <time>2013-04-21T10:57:06Z</time>
      </trkpt>
      <trkpt lat="60.0132331" lon="17.6275748">
        <ele>34.2642</ele>
        <time>2013-04-21T10:57:07Z</time>
      </trkpt>
      <trkpt lat="60.0131841" lon="17.6274921">
        <ele>34.7449</ele>
        <time>2013-04-21T10:57:08Z</time>
      </trkpt>
      <trkpt lat="60.0131346" lon="17.6274081">
        <ele>34.7449</ele>
        <time>2013-04-21T10:57:09Z</time>
      </trkpt>
      <trkpt lat="60.0130864" lon="17.6273221">
        <ele>34.7449</ele>
        <time>2013-04-21T10:57:10Z</time>
      </trkpt>
      <trkpt lat="60.0130388" lon="17.627236">
        <ele>34.7449</ele>
        <time>2013-04-21T10:57:11Z</time>
      </trkpt>
      <trkpt lat="60.0129919" lon="17.6271493">
        <ele>34.7449</ele>
        <time>2013-04-21T10:57:12Z</time>
      </trkpt>
      <trkpt lat="60.0129455" lon="17.627061">
        <ele>34.7449</ele>
        <time>2013-04-21T10:57:13Z</time>
      </trkpt>
      <trkpt lat="60.012899" lon="17.6269704">
        <ele>34.7449</ele>
        <time>2013-04-21T10:57:14Z</time>
      </trkpt>
      <trkpt lat="60.0128516" lon="17.6268787">
        <ele>34.7449</ele>
        <time>2013-04-21T10:57:15Z</time>
      </trkpt>
      <trkpt lat="60.0128041" lon="17.6267867">
        <ele>34.7449</ele>
        <time>2013-04-21T10:57:16Z</time>
      </trkpt>
      <trkpt lat="60.0127583" lon="17.6266938">
        <ele>34.7449</ele>
        <time>2013-04-21T10:57:17Z</time>
      </trkpt>
      <trkpt lat="60.0127135" lon="17.6265999">
        <ele>34.7449</ele>
        <time>2013-04-21T10:57:18Z</time>
      </trkpt>
      <trkpt lat="60.0126698" lon="17.6265074">
        <ele>34.7449</ele>
        <time>2013-04-21T10:57:19Z</time>
      </trkpt>
      <trkpt lat="60.0126274" lon="17.6264177">
        <ele>34.7449</ele>
        <time>2013-04-21T10:57:20Z</time>
      </trkpt>
      <trkpt lat="60.0125873" lon="17.626328">
        <ele>34.7449</ele>
        <time>2013-04-21T10:57:21Z</time>
      </trkpt>
      <trkpt lat="60.0125488" lon="17.6262392">
        <ele>34.7449</ele>
        <time>2013-04-21T10:57:22Z</time>
      </trkpt>
      <trkpt lat="60.0125108" lon="17.6261541">
        <ele>34.7449</ele>
        <time>2013-04-21T10:57:23Z</time>
      </trkpt>
      <trkpt lat="60.0124744" lon="17.6260703">
        <ele>34.7449</ele>
        <time>2013-04-21T10:57:24Z</time>
      </trkpt>
      <trkpt lat="60.0124456" lon="17.6259833">
        <ele>34.2642</ele>
        <time>2013-04-21T10:57:25Z</time>
      </trkpt>
      <trkpt lat="60.0124322" lon="17.6258968">
        <ele>34.7449</ele>
        <time>2013-04-21T10:57:26Z</time>
      </trkpt>
      <trkpt lat="60.0124213" lon="17.6258244">
        <ele>34.7449</ele>
        <time>2013-04-21T10:57:27Z</time>
      </trkpt>
      <trkpt lat="60.0124071" lon="17.6257802">
        <ele>34.7449</ele>
        <time>2013-04-21T10:57:28Z</time>
      </trkpt>
      <trkpt lat="60.0123988" lon="17.6257671">
        <ele>34.7449</ele>
        <time>2013-04-21T10:57:29Z</time>
      </trkpt>
      <trkpt lat="60.0123994" lon="17.6257682">
        <ele>34.7449</ele>
        <time>2013-04-21T10:57:30Z</time>
      </trkpt>
      <trkpt lat="60.0123556" lon="17.6256823">
        <ele>29.9381</ele>
        <time>2013-04-21T10:59:19Z</time>
      </trkpt>
      <trkpt lat="60.0123342" lon="17.6256308">
        <ele>29.9381</ele>
        <time>2013-04-21T10:59:20Z</time>
      </trkpt>
      <trkpt lat="60.0123109" lon="17.6255723">
        <ele>30.4188</ele>
        <time>2013-04-21T10:59:21Z</time>
      </trkpt>
      <trkpt lat="60.0122866" lon="17.6255082">
        <ele>30.4188</ele>
        <time>2013-04-21T10:59:22Z</time>
      </trkpt>
      <trkpt lat="60.0122587" lon="17.6254416">
        <ele>30.4188</ele>
        <time>2013-04-21T10:59:23Z</time>
      </trkpt>
      <trkpt lat="60.0122291" lon="17.6253686">
        <ele>30.4188</ele>
        <time>2013-04-21T10:59:24Z</time>
      </trkpt>
      <trkpt lat="60.0121983" lon="17.6252902">
        <ele>30.4188</ele>
        <time>2013-04-21T10:59:25Z</time>
      </trkpt>
      <trkpt lat="60.0121652" lon="17.6252085">
        <ele>30.4188</ele>
        <time>2013-04-21T10:59:26Z</time>
      </trkpt>
      <trkpt lat="60.0121303" lon="17.6251175">
        <ele>30.4188</ele>
        <time>2013-04-21T10:59:27Z</time>
      </trkpt>
      <trkpt lat="60.0120942" lon="17.6250238">
        <ele>30.4188</ele>
        <time>2013-04-21T10:59:28Z</time>
      </trkpt>
      <trkpt lat="60.0120576" lon="17.624941">
        <ele>29.9381</ele>
        <time>2013-04-21T10:59:29Z</time>
      </trkpt>
      <trkpt lat="60.0120204" lon="17.6248465">
        <ele>30.4188</ele>
        <time>2013-04-21T10:59:30Z</time>
      </trkpt>
      <trkpt lat="60.0119805" lon="17.6247512">
        <ele>29.9381</ele>
        <time>2013-04-21T10:59:31Z</time>
      </trkpt>
      <trkpt lat="60.0119362" lon="17.6246461">
        <ele>29.9381</ele>
        <time>2013-04-21T10:59:32Z</time>
      </trkpt>
      <trkpt lat="60.0118912" lon="17.6245429">
        <ele>28.0155</ele>
        <time>2013-04-21T10:59:33Z</time>
      </trkpt>
      <trkpt lat="60.0118492" lon="17.624445">
        <ele>28.0155</ele>
        <time>2013-04-21T10:59:34Z</time>
      </trkpt>
      <trkpt lat="60.0118038" lon="17.6243523">
        <ele>28.0155</ele>
        <time>2013-04-21T10:59:35Z</time>
      </trkpt>
      <trkpt lat="60.0117585" lon="17.6242499">
        <ele>26.0929</ele>
        <time>2013-04-21T10:59:36Z</time>
      </trkpt>
      <trkpt lat="60.0117173" lon="17.6241293">
        <ele>26.5736</ele>
        <time>2013-04-21T10:59:37Z</time>
      </trkpt>
      <trkpt lat="60.0116726" lon="17.6240233">
        <ele>26.0929</ele>
        <time>2013-04-21T10:59:38Z</time>
      </trkpt>
      <trkpt lat="60.0116271" lon="17.6239204">
        <ele>25.1317</ele>
        <time>2013-04-21T10:59:39Z</time>
      </trkpt>
      <trkpt lat="60.0115815" lon="17.62382">
        <ele>25.6123</ele>
        <time>2013-04-21T10:59:40Z</time>
      </trkpt>
      <trkpt lat="60.0115338" lon="17.6237232">
        <ele>26.0929</ele>
        <time>2013-04-21T10:59:41Z</time>
      </trkpt>
      <trkpt lat="60.0114862" lon="17.6236293">
        <ele>26.5736</ele>
        <time>2013-04-21T10:59:42Z</time>
      </trkpt>
      <trkpt lat="60.0114359" lon="17.6235252">
        <ele>27.5349</ele>
        <time>2013-04-21T10:59:43Z</time>
      </trkpt>
      <trkpt lat="60.0113864" lon="17.6234323">
        <ele>28.0155</ele>
        <time>2013-04-21T10:59:44Z</time>
      </trkpt>
      <trkpt lat="60.0113386" lon="17.6233456">
        <ele>28.4962</ele>
        <time>2013-04-21T10:59:45Z</time>
      </trkpt>
      <trkpt lat="60.0112899" lon="17.6232622">
        <ele>29.4575</ele>
        <time>2013-04-21T10:59:46Z</time>
      </trkpt>
      <trkpt lat="60.0112398" lon="17.6231808">
        <ele>29.9381</ele>
        <time>2013-04-21T10:59:47Z</time>
      </trkpt>
      <trkpt lat="60.0111901" lon="17.6231044">
        <ele>30.4188</ele>
        <time>2013-04-21T10:59:48Z</time>
      </trkpt>
      <trkpt lat="60.0111408" lon="17.6230305">
        <ele>30.8995</ele>
        <time>2013-04-21T10:59:49Z</time>
      </trkpt>
      <trkpt lat="60.011091" lon="17.6229599">
        <ele>31.3801</ele>
        <time>2013-04-21T10:59:50Z</time>
      </trkpt>
      <trkpt lat="60.0110408" lon="17.6228901">
        <ele>31.8607</ele>
        <time>2013-04-21T10:59:51Z</time>
      </trkpt>
      <trkpt lat="60.01099" lon="17.6228222">
        <ele>32.3416</ele>
        <time>2013-04-21T10:59:52Z</time>
      </trkpt>
      <trkpt lat="60.0109382" lon="17.622757">
        <ele>32.8223</ele>
        <time>2013-04-21T10:59:53Z</time>
      </trkpt>
      <trkpt lat="60.010886" lon="17.6226926">
        <ele>33.3029</ele>
        <time>2013-04-21T10:59:54Z</time>
      </trkpt>
      <trkpt lat="60.0108336" lon="17.6226295">
        <ele>33.3029</ele>
        <time>2013-04-21T10:59:55Z</time>
      </trkpt>
      <trkpt lat="60.0107807" lon="17.6225682">
        <ele>33.7834</ele>
        <time>2013-04-21T10:59:56Z</time>
      </trkpt>
      <trkpt lat="60.0107279" lon="17.6225079">
        <ele>34.2642</ele>
        <time>2013-04-21T10:59:57Z</time>
      </trkpt>
      <trkpt lat="60.010675" lon="17.6224496">
        <ele>34.2642</ele>
        <time>2013-04-21T10:59:58Z</time>
      </trkpt>
      <trkpt lat="60.0106217" lon="17.6223926">
        <ele>34.7449</ele>
        <time>2013-04-21T10:59:59Z</time>
      </trkpt>
      <trkpt lat="60.0105694" lon="17.6223377">
        <ele>34.7449</ele>
        <time>2013-04-21T11:00:00Z</time>
      </trkpt>
      <trkpt lat="60.0105181" lon="17.6222835">
        <ele>35.2255</ele>
        <time>2013-04-21T11:00:01Z</time>
      </trkpt>
      <trkpt lat="60.0104659" lon="17.6222308">
        <ele>35.2255</ele>
        <time>2013-04-21T11:00:02Z</time>
      </trkpt>
      <trkpt lat="60.0104131" lon="17.6221785">
        <ele>35.2255</ele>
        <time>2013-04-21T11:00:03Z</time>
      </trkpt>
      <trkpt lat="60.0103595" lon="17.6221256">
        <ele>35.7061</ele>
        <time>2013-04-21T11:00:04Z</time>
      </trkpt>
      <trkpt lat="60.0103058" lon="17.6220722">
        <ele>36.1868</ele>
        <time>2013-04-21T11:00:05Z</time>
      </trkpt>
      <trkpt lat="60.0102525" lon="17.6220192">
        <ele>36.1868</ele>
        <time>2013-04-21T11:00:06Z</time>
      </trkpt>
      <trkpt lat="60.0102002" lon="17.6219665">
        <ele>36.1868</ele>
        <time>2013-04-21T11:00:07Z</time>
      </trkpt>
      <trkpt lat="60.0101492" lon="17.6219116">
        <ele>36.1868</ele>
        <time>2013-04-21T11:00:08Z</time>
      </trkpt>
      <trkpt lat="60.0100988" lon="17.6218544">
        <ele>36.6675</ele>
        <time>2013-04-21T11:00:09Z</time>
      </trkpt>
      <trkpt lat="60.0100483" lon="17.621798">
        <ele>36.6675</ele>
        <time>2013-04-21T11:00:10Z</time>
      </trkpt>
      <trkpt lat="60.009998" lon="17.6217423">
        <ele>36.6675</ele>
        <time>2013-04-21T11:00:11Z</time>
      </trkpt>
      <trkpt lat="60.0099483" lon="17.6216861">
        <ele>37.1481</ele>
        <time>2013-04-21T11:00:12Z</time>
      </trkpt>
      <trkpt lat="60.0098999" lon="17.6216308">
        <ele>37.1481</ele>
        <time>2013-04-21T11:00:13Z</time>
      </trkpt>
      <trkpt lat="60.009852" lon="17.6215757">
        <ele>37.1481</ele>
        <time>2013-04-21T11:00:14Z</time>
      </trkpt>
      <trkpt lat="60.0098043" lon="17.6215177">
        <ele>37.1481</ele>
        <time>2013-04-21T11:00:15Z</time>
      </trkpt>
      <trkpt lat="60.0097592" lon="17.6214649">
        <ele>37.1481</ele>
        <time>2013-04-21T11:00:16Z</time>
      </trkpt>
      <trkpt lat="60.0097127" lon="17.6214037">
        <ele>37.6287</ele>
        <time>2013-04-21T11:00:17Z</time>
      </trkpt>
      <trkpt lat="60.0096666" lon="17.6213391">
        <ele>37.6287</ele>
        <time>2013-04-21T11:00:18Z</time>
      </trkpt>
      <trkpt lat="60.0096209" lon="17.6212725">
        <ele>37.6287</ele>
        <time>2013-04-21T11:00:19Z</time>
      </trkpt>
      <trkpt lat="60.0095768" lon="17.6212108">
        <ele>37.6287</ele>
        <time>2013-04-21T11:00:20Z</time>
      </trkpt>
      <trkpt lat="60.0095349" lon="17.6211507">
        <ele>37.1481</ele>
        <time>2013-04-21T11:00:21Z</time>
      </trkpt>
      <trkpt lat="60.009492" lon="17.6210838">
        <ele>37.1481</ele>
        <time>2013-04-21T11:00:22Z</time>
      </trkpt>
      <trkpt lat="60.0094479" lon="17.6210104">
        <ele>37.1481</ele>
        <time>2013-04-21T11:00:23Z</time>
      </trkpt>
      <trkpt lat="60.0094053" lon="17.6209434">
        <ele>37.1481</ele>
        <time>2013-04-21T11:00:24Z</time>
      </trkpt>
      <trkpt lat="60.0093613" lon="17.6208741">
        <ele>37.1481</ele>
        <time>2013-04-21T11:00:25Z</time>
      </trkpt>
      <trkpt lat="60.0093167" lon="17.620801">
        <ele>37.1481</ele>
        <time>2013-04-21T11:00:26Z</time>
      </trkpt>
      <trkpt lat="60.0092713" lon="17.6207248">
        <ele>37.6287</ele>
        <time>2013-04-21T11:00:27Z</time>
      </trkpt>
      <trkpt lat="60.0092271" lon="17.6206475">
        <ele>38.1094</ele>
        <time>2013-04-21T11:00:28Z</time>
      </trkpt>
      <trkpt lat="60.0091835" lon="17.6205694">
        <ele>38.1094</ele>
        <time>2013-04-21T11:00:29Z</time>
      </trkpt>
      <trkpt lat="60.0091391" lon="17.6204905">
        <ele>38.5901</ele>
        <time>2013-04-21T11:00:30Z</time>
      </trkpt>
      <trkpt lat="60.0090945" lon="17.620409">
        <ele>38.5901</ele>
        <time>2013-04-21T11:00:31Z</time>
      </trkpt>
      <trkpt lat="60.009052" lon="17.6203239">
        <ele>39.0707</ele>
        <time>2013-04-21T11:00:32Z</time>
      </trkpt>
      <trkpt lat="60.0090102" lon="17.620236">
        <ele>39.0707</ele>
        <time>2013-04-21T11:00:33Z</time>
      </trkpt>
      <trkpt lat="60.0089693" lon="17.6201525">
        <ele>39.0707</ele>
        <time>2013-04-21T11:00:34Z</time>
      </trkpt>
      <trkpt lat="60.0089287" lon="17.6200701">
        <ele>39.5513</ele>
        <time>2013-04-21T11:00:35Z</time>
      </trkpt>
      <trkpt lat="60.0088895" lon="17.6199888">
        <ele>39.5513</ele>
        <time>2013-04-21T11:00:36Z</time>
      </trkpt>
      <trkpt lat="60.0088526" lon="17.6199062">
        <ele>40.0321</ele>
        <time>2013-04-21T11:00:37Z</time>
      </trkpt>
      <trkpt lat="60.008817" lon="17.6198204">
        <ele>39.5513</ele>
        <time>2013-04-21T11:00:38Z</time>
      </trkpt>
      <trkpt lat="60.0087808" lon="17.6197329">
        <ele>39.5513</ele>
        <time>2013-04-21T11:00:39Z</time>
      </trkpt>
      <trkpt lat="60.0087455" lon="17.6196437">
        <ele>39.5513</ele>
        <time>2013-04-21T11:00:40Z</time>
      </trkpt>
      <trkpt lat="60.0087106" lon="17.6195539">
        <ele>39.5513</ele>
        <time>2013-04-21T11:00:41Z</time>
      </trkpt>
      <trkpt lat="60.0086753" lon="17.6194657">
        <ele>40.0321</ele>
        <time>2013-04-21T11:00:42Z</time>
      </trkpt>
      <trkpt lat="60.0086399" lon="17.6193796">
        <ele>40.9934</ele>
        <time>2013-04-21T11:00:43Z</time>
      </trkpt>
      <trkpt lat="60.0086061" lon="17.619289">
        <ele>41.474</ele>
        <time>2013-04-21T11:00:44Z</time>
      </trkpt>
      <trkpt lat="60.0085725" lon="17.6191957">
        <ele>41.9547</ele>
        <time>2013-04-21T11:00:45Z</time>
      </trkpt>
      <trkpt lat="60.0085397" lon="17.6191018">
        <ele>42.4354</ele>
        <time>2013-04-21T11:00:46Z</time>
      </trkpt>
      <trkpt lat="60.0085062" lon="17.619008">
        <ele>42.916</ele>
        <time>2013-04-21T11:00:47Z</time>
      </trkpt>
      <trkpt lat="60.0084743" lon="17.6189161">
        <ele>43.3966</ele>
        <time>2013-04-21T11:00:48Z</time>
      </trkpt>
      <trkpt lat="60.0084433" lon="17.61882">
        <ele>43.8773</ele>
        <time>2013-04-21T11:00:49Z</time>
      </trkpt>
      <trkpt lat="60.0084103" lon="17.6187103">
        <ele>43.8773</ele>
        <time>2013-04-21T11:00:50Z</time>
      </trkpt>
      <trkpt lat="60.0083794" lon="17.6186091">
        <ele>44.358</ele>
        <time>2013-04-21T11:00:51Z</time>
      </trkpt>
      <trkpt lat="60.0083508" lon="17.6185072">
        <ele>44.8386</ele>
        <time>2013-04-21T11:00:52Z</time>
      </trkpt>
      <trkpt lat="60.0083233" lon="17.6184066">
        <ele>45.3192</ele>
        <time>2013-04-21T11:00:53Z</time>
      </trkpt>
      <trkpt lat="60.0082943" lon="17.6183051">
        <ele>45.7999</ele>
        <time>2013-04-21T11:00:54Z</time>
      </trkpt>
      <trkpt lat="60.0082658" lon="17.6182026">
        <ele>45.7999</ele>
        <time>2013-04-21T11:00:55Z</time>
      </trkpt>
      <trkpt lat="60.0082394" lon="17.6181">
        <ele>46.2806</ele>
        <time>2013-04-21T11:00:56Z</time>
      </trkpt>
      <trkpt lat="60.0082145" lon="17.6179938">
        <ele>46.2806</ele>
        <time>2013-04-21T11:00:57Z</time>
      </trkpt>
      <trkpt lat="60.0081875" lon="17.6178747">
        <ele>46.2806</ele>
        <time>2013-04-21T11:00:58Z</time>
      </trkpt>
      <trkpt lat="60.0081612" lon="17.6177611">
        <ele>46.7612</ele>
        <time>2013-04-21T11:00:59Z</time>
      </trkpt>
      <trkpt lat="60.0081367" lon="17.6176503">
        <ele>46.7612</ele>
        <time>2013-04-21T11:01:00Z</time>
      </trkpt>
      <trkpt lat="60.0081125" lon="17.6175358">
        <ele>47.2418</ele>
        <time>2013-04-21T11:01:01Z</time>
      </trkpt>
      <trkpt lat="60.0080891" lon="17.6174208">
        <ele>47.2418</ele>
        <time>2013-04-21T11:01:02Z</time>
      </trkpt>
      <trkpt lat="60.0080664" lon="17.6173069">
        <ele>47.7225</ele>
        <time>2013-04-21T11:01:03Z</time>
      </trkpt>
      <trkpt lat="60.008045" lon="17.6171925">
        <ele>47.7225</ele>
        <time>2013-04-21T11:01:04Z</time>
      </trkpt>
      <trkpt lat="60.0080213" lon="17.617063">
        <ele>47.7225</ele>
        <time>2013-04-21T11:01:05Z</time>
      </trkpt>
      <trkpt lat="60.0079995" lon="17.6169326">
        <ele>47.7225</ele>
        <time>2013-04-21T11:01:06Z</time>
      </trkpt>
      <trkpt lat="60.0079788" lon="17.6168061">
        <ele>47.7225</ele>
        <time>2013-04-21T11:01:07Z</time>
      </trkpt>
      <trkpt lat="60.007959" lon="17.6166793">
        <ele>48.2034</ele>
        <time>2013-04-21T11:01:08Z</time>
      </trkpt>
      <trkpt lat="60.00794" lon="17.6165486">
        <ele>48.2034</ele>
        <time>2013-04-21T11:01:09Z</time>
      </trkpt>
      <trkpt lat="60.0079211" lon="17.6164135">
        <ele>48.2034</ele>
        <time>2013-04-21T11:01:10Z</time>
      </trkpt>
      <trkpt lat="60.0079051" lon="17.6162881">
        <ele>48.2034</ele>
        <time>2013-04-21T11:01:11Z</time>
      </trkpt>
      <trkpt lat="60.0078893" lon="17.6161608">
        <ele>48.2034</ele>
        <time>2013-04-21T11:01:12Z</time>
      </trkpt>
      <trkpt lat="60.0078755" lon="17.6160325">
        <ele>47.7225</ele>
        <time>2013-04-21T11:01:13Z</time>
      </trkpt>
      <trkpt lat="60.0078623" lon="17.6159018">
        <ele>47.7225</ele>
        <time>2013-04-21T11:01:14Z</time>
      </trkpt>
      <trkpt lat="60.0078498" lon="17.6157694">
        <ele>47.7225</ele>
        <time>2013-04-21T11:01:15Z</time>
      </trkpt>
      <trkpt lat="60.0078379" lon="17.6156355">
        <ele>47.2418</ele>
        <time>2013-04-21T11:01:16Z</time>
      </trkpt>
      <trkpt lat="60.007827" lon="17.6155012">
        <ele>47.2418</ele>
        <time>2013-04-21T11:01:17Z</time>
      </trkpt>
      <trkpt lat="60.0078173" lon="17.6153667">
        <ele>47.2418</ele>
        <time>2013-04-21T11:01:18Z</time>
      </trkpt>
      <trkpt lat="60.0078069" lon="17.6152242">
        <ele>47.2418</ele>
        <time>2013-04-21T11:01:19Z</time>
      </trkpt>
      <trkpt lat="60.0077989" lon="17.6150874">
        <ele>46.7612</ele>
        <time>2013-04-21T11:01:20Z</time>
      </trkpt>
      <trkpt lat="60.0077916" lon="17.6149496">
        <ele>46.7612</ele>
        <time>2013-04-21T11:01:21Z</time>
      </trkpt>
      <trkpt lat="60.0077855" lon="17.6148102">
        <ele>46.2806</ele>
        <time>2013-04-21T11:01:22Z</time>
      </trkpt>
      <trkpt lat="60.0077803" lon="17.6146698">
        <ele>46.2806</ele>
        <time>2013-04-21T11:01:23Z</time>
      </trkpt>
      <trkpt lat="60.0077756" lon="17.614529">
        <ele>45.7999</ele>
        <time>2013-04-21T11:01:24Z</time>
      </trkpt>
      <trkpt lat="60.0077722" lon="17.6143895">
        <ele>45.7999</ele>
        <time>2013-04-21T11:01:25Z</time>
      </trkpt>
      <trkpt lat="60.0077699" lon="17.6142501">
        <ele>45.7999</ele>
        <time>2013-04-21T11:01:26Z</time>
      </trkpt>
      <trkpt lat="60.007768" lon="17.6141098">
        <ele>45.7999</ele>
        <time>2013-04-21T11:01:27Z</time>
      </trkpt>
      <trkpt lat="60.0077663" lon="17.6139685">
        <ele>45.3192</ele>
        <time>2013-04-21T11:01:28Z</time>
      </trkpt>
      <trkpt lat="60.0077653" lon="17.6138265">
        <ele>45.3192</ele>
        <time>2013-04-21T11:01:29Z</time>
      </trkpt>
      <trkpt lat="60.0077659" lon="17.6136829">
        <ele>44.8386</ele>
        <time>2013-04-21T11:01:30Z</time>
      </trkpt>
      <trkpt lat="60.0077665" lon="17.6135381">
        <ele>44.8386</ele>
        <time>2013-04-21T11:01:31Z</time>
      </trkpt>
      <trkpt lat="60.0077668" lon="17.6133919">
        <ele>44.8386</ele>
        <time>2013-04-21T11:01:32Z</time>
      </trkpt>
      <trkpt lat="60.0077686" lon="17.6132459">
        <ele>44.358</ele>
        <time>2013-04-21T11:01:33Z</time>
      </trkpt>
      <trkpt lat="60.0077716" lon="17.6130993">
        <ele>44.358</ele>
        <time>2013-04-21T11:01:34Z</time>
      </trkpt>
      <trkpt lat="60.0077738" lon="17.6129555">
        <ele>44.358</ele>
        <time>2013-04-21T11:01:35Z</time>
      </trkpt>
      <trkpt lat="60.0077764" lon="17.6128116">
        <ele>44.358</ele>
        <time>2013-04-21T11:01:36Z</time>
      </trkpt>
      <trkpt lat="60.0077797" lon="17.6126661">
        <ele>44.358</ele>
        <time>2013-04-21T11:01:37Z</time>
      </trkpt>
      <trkpt lat="60.007783" lon="17.6125212">
        <ele>44.358</ele>
        <time>2013-04-21T11:01:38Z</time>
      </trkpt>
      <trkpt lat="60.0077851" lon="17.6123741">
        <ele>44.358</ele>
        <time>2013-04-21T11:01:39Z</time>
      </trkpt>
      <trkpt lat="60.0077877" lon="17.6122243">
        <ele>43.8773</ele>
        <time>2013-04-21T11:01:40Z</time>
      </trkpt>
      <trkpt lat="60.0077927" lon="17.6120762">
        <ele>43.8773</ele>
        <time>2013-04-21T11:01:41Z</time>
      </trkpt>
      <trkpt lat="60.0077975" lon="17.6119266">
        <ele>44.358</ele>
        <time>2013-04-21T11:01:42Z</time>
      </trkpt>
      <trkpt lat="60.0078022" lon="17.6117758">
        <ele>44.358</ele>
        <time>2013-04-21T11:01:43Z</time>
      </trkpt>
      <trkpt lat="60.0078074" lon="17.611626">
        <ele>44.358</ele>
        <time>2013-04-21T11:01:44Z</time>
      </trkpt>
      <trkpt lat="60.007815" lon="17.6114772">
        <ele>44.358</ele>
        <time>2013-04-21T11:01:45Z</time>
      </trkpt>
      <trkpt lat="60.0078222" lon="17.6113274">
        <ele>44.358</ele>
        <time>2013-04-21T11:01:46Z</time>
      </trkpt>
      <trkpt lat="60.0078272" lon="17.6111787">
        <ele>42.916</ele>
        <time>2013-04-21T11:01:47Z</time>
      </trkpt>
      <trkpt lat="60.0078332" lon="17.6110275">
        <ele>41.9547</ele>
        <time>2013-04-21T11:01:48Z</time>
      </trkpt>
      <trkpt lat="60.0078419" lon="17.6108793">
        <ele>41.9547</ele>
        <time>2013-04-21T11:01:49Z</time>
      </trkpt>
      <trkpt lat="60.0078508" lon="17.6107331">
        <ele>41.474</ele>
        <time>2013-04-21T11:01:50Z</time>
      </trkpt>
      <trkpt lat="60.0078596" lon="17.6105848">
        <ele>40.9934</ele>
        <time>2013-04-21T11:01:51Z</time>
      </trkpt>
      <trkpt lat="60.0078699" lon="17.6104375">
        <ele>40.5128</ele>
        <time>2013-04-21T11:01:52Z</time>
      </trkpt>
      <trkpt lat="60.0078799" lon="17.6102917">
        <ele>39.5513</ele>
        <time>2013-04-21T11:01:53Z</time>
      </trkpt>
      <trkpt lat="60.0078923" lon="17.6101524">
        <ele>39.0707</ele>
        <time>2013-04-21T11:01:54Z</time>
      </trkpt>
      <trkpt lat="60.0079037" lon="17.6100122">
        <ele>39.0707</ele>
        <time>2013-04-21T11:01:55Z</time>
      </trkpt>
      <trkpt lat="60.0079167" lon="17.6098725">
        <ele>39.0707</ele>
        <time>2013-04-21T11:01:56Z</time>
      </trkpt>
      <trkpt lat="60.0079286" lon="17.6097304">
        <ele>39.0707</ele>
        <time>2013-04-21T11:01:57Z</time>
      </trkpt>
      <trkpt lat="60.00794" lon="17.6095881">
        <ele>38.1094</ele>
        <time>2013-04-21T11:01:58Z</time>
      </trkpt>
      <trkpt lat="60.0079528" lon="17.6094453">
        <ele>38.1094</ele>
        <time>2013-04-21T11:01:59Z</time>
      </trkpt>
      <trkpt lat="60.0079654" lon="17.6093012">
        <ele>37.6287</ele>
        <time>2013-04-21T11:02:00Z</time>
      </trkpt>
      <trkpt lat="60.0079778" lon="17.6091542">
        <ele>37.6287</ele>
        <time>2013-04-21T11:02:01Z</time>
      </trkpt>
      <trkpt lat="60.0079901" lon="17.6090049">
        <ele>37.1481</ele>
        <time>2013-04-21T11:02:02Z</time>
      </trkpt>
      <trkpt lat="60.0080032" lon="17.6088547">
        <ele>37.1481</ele>
        <time>2013-04-21T11:02:03Z</time>
      </trkpt>
      <trkpt lat="60.0080165" lon="17.6087037">
        <ele>37.1481</ele>
        <time>2013-04-21T11:02:04Z</time>
      </trkpt>
      <trkpt lat="60.0080297" lon="17.6085499">
        <ele>36.6675</ele>
        <time>2013-04-21T11:02:05Z</time>
      </trkpt>
      <trkpt lat="60.008044" lon="17.6083945">
        <ele>36.6675</ele>
        <time>2013-04-21T11:02:06Z</time>
      </trkpt>
      <trkpt lat="60.0080586" lon="17.6082386">
        <ele>36.6675</ele>
        <time>2013-04-21T11:02:07Z</time>
      </trkpt>
      <trkpt lat="60.0080727" lon="17.6080837">
        <ele>36.1868</ele>
        <time>2013-04-21T11:02:08Z</time>
      </trkpt>
      <trkpt lat="60.0080879" lon="17.607929">
        <ele>36.1868</ele>
        <time>2013-04-21T11:02:09Z</time>
      </trkpt>
      <trkpt lat="60.0081033" lon="17.607773">
        <ele>36.1868</ele>
        <time>2013-04-21T11:02:10Z</time>
      </trkpt>
      <trkpt lat="60.0081192" lon="17.6076191">
        <ele>35.7061</ele>
        <time>2013-04-21T11:02:11Z</time>
      </trkpt>
      <trkpt lat="60.0081358" lon="17.6074674">
        <ele>35.7061</ele>
        <time>2013-04-21T11:02:12Z</time>
      </trkpt>
      <trkpt lat="60.0081518" lon="17.6073144">
        <ele>35.7061</ele>
        <time>2013-04-21T11:02:13Z</time>
      </trkpt>
      <trkpt lat="60.008168" lon="17.6071614">
        <ele>35.2255</ele>
        <time>2013-04-21T11:02:14Z</time>
      </trkpt>
      <trkpt lat="60.0081871" lon="17.6070086">
        <ele>35.7061</ele>
        <time>2013-04-21T11:02:15Z</time>
      </trkpt>
      <trkpt lat="60.0082047" lon="17.6068489">
        <ele>36.1868</ele>
        <time>2013-04-21T11:02:16Z</time>
      </trkpt>
      <trkpt lat="60.0082248" lon="17.606698">
        <ele>36.1868</ele>
        <time>2013-04-21T11:02:17Z</time>
      </trkpt>
      <trkpt lat="60.0082423" lon="17.6065439">
        <ele>35.7061</ele>
        <time>2013-04-21T11:02:18Z</time>
      </trkpt>
      <trkpt lat="60.00826" lon="17.6063893">
        <ele>35.7061</ele>
        <time>2013-04-21T11:02:19Z</time>
      </trkpt>
      <trkpt lat="60.0082783" lon="17.606229">
        <ele>36.1868</ele>
        <time>2013-04-21T11:02:20Z</time>
      </trkpt>
      <trkpt lat="60.008298" lon="17.6060719">
        <ele>36.1868</ele>
        <time>2013-04-21T11:02:21Z</time>
      </trkpt>
      <trkpt lat="60.0083186" lon="17.605916">
        <ele>36.1868</ele>
        <time>2013-04-21T11:02:22Z</time>
      </trkpt>
      <trkpt lat="60.0083388" lon="17.6057602">
        <ele>36.1868</ele>
        <time>2013-04-21T11:02:23Z</time>
      </trkpt>
      <trkpt lat="60.0083601" lon="17.605605">
        <ele>36.1868</ele>
        <time>2013-04-21T11:02:24Z</time>
      </trkpt>
      <trkpt lat="60.0083811" lon="17.6054497">
        <ele>36.1868</ele>
        <time>2013-04-21T11:02:25Z</time>
      </trkpt>
      <trkpt lat="60.0084021" lon="17.6052944">
        <ele>36.1868</ele>
        <time>2013-04-21T11:02:26Z</time>
      </trkpt>
      <trkpt lat="60.0084237" lon="17.6051409">
        <ele>36.6675</ele>
        <time>2013-04-21T11:02:27Z</time>
      </trkpt>
      <trkpt lat="60.0084462" lon="17.604989">
        <ele>36.6675</ele>
        <time>2013-04-21T11:02:28Z</time>
      </trkpt>
      <trkpt lat="60.0084688" lon="17.6048385">
        <ele>37.1481</ele>
        <time>2013-04-21T11:02:29Z</time>
      </trkpt>
      <trkpt lat="60.0084891" lon="17.6046878">
        <ele>37.1481</ele>
        <time>2013-04-21T11:02:30Z</time>
      </trkpt>
      <trkpt lat="60.0085092" lon="17.6045377">
        <ele>37.1481</ele>
        <time>2013-04-21T11:02:31Z</time>
      </trkpt>
      <trkpt lat="60.00853" lon="17.6043904">
        <ele>37.1481</ele>
        <time>2013-04-21T11:02:32Z</time>
      </trkpt>
      <trkpt lat="60.0085507" lon="17.6042454">
        <ele>37.1481</ele>
        <time>2013-04-21T11:02:33Z</time>
      </trkpt>
      <trkpt lat="60.0085703" lon="17.6041023">
        <ele>36.6675</ele>
        <time>2013-04-21T11:02:34Z</time>
      </trkpt>
      <trkpt lat="60.0085896" lon="17.6039615">
        <ele>36.6675</ele>
        <time>2013-04-21T11:02:35Z</time>
      </trkpt>
      <trkpt lat="60.0086095" lon="17.6038212">
        <ele>36.6675</ele>
        <time>2013-04-21T11:02:36Z</time>
      </trkpt>
      <trkpt lat="60.0086284" lon="17.6036809">
        <ele>36.6675</ele>
        <time>2013-04-21T11:02:37Z</time>
      </trkpt>
      <trkpt lat="60.0086484" lon="17.6035433">
        <ele>36.6675</ele>
        <time>2013-04-21T11:02:38Z</time>
      </trkpt>
      <trkpt lat="60.0086693" lon="17.6034073">
        <ele>37.1481</ele>
        <time>2013-04-21T11:02:39Z</time>
      </trkpt>
      <trkpt lat="60.0086901" lon="17.6032716">
        <ele>37.1481</ele>
        <time>2013-04-21T11:02:40Z</time>
      </trkpt>
      <trkpt lat="60.0087104" lon="17.6031363">
        <ele>37.1481</ele>
        <time>2013-04-21T11:02:41Z</time>
      </trkpt>
      <trkpt lat="60.0087299" lon="17.603001">
        <ele>37.1481</ele>
        <time>2013-04-21T11:02:42Z</time>
      </trkpt>
      <trkpt lat="60.0087487" lon="17.6028655">
        <ele>37.1481</ele>
        <time>2013-04-21T11:02:43Z</time>
      </trkpt>
      <trkpt lat="60.0087688" lon="17.6027311">
        <ele>37.6287</ele>
        <time>2013-04-21T11:02:44Z</time>
      </trkpt>
      <trkpt lat="60.00879" lon="17.6025981">
        <ele>37.6287</ele>
        <time>2013-04-21T11:02:45Z</time>
      </trkpt>
      <trkpt lat="60.0088121" lon="17.6024656">
        <ele>38.1094</ele>
        <time>2013-04-21T11:02:46Z</time>
      </trkpt>
      <trkpt lat="60.0088331" lon="17.602332">
        <ele>38.1094</ele>
        <time>2013-04-21T11:02:47Z</time>
      </trkpt>
      <trkpt lat="60.008853" lon="17.6021956">
        <ele>38.1094</ele>
        <time>2013-04-21T11:02:48Z</time>
      </trkpt>
      <trkpt lat="60.0088743" lon="17.602064">
        <ele>38.5901</ele>
        <time>2013-04-21T11:02:49Z</time>
      </trkpt>
      <trkpt lat="60.0088957" lon="17.601932">
        <ele>38.5901</ele>
        <time>2013-04-21T11:02:50Z</time>
      </trkpt>
      <trkpt lat="60.0089175" lon="17.6018014">
        <ele>38.5901</ele>
        <time>2013-04-21T11:02:51Z</time>
      </trkpt>
      <trkpt lat="60.0089372" lon="17.6016694">
        <ele>38.5901</ele>
        <time>2013-04-21T11:02:52Z</time>
      </trkpt>
      <trkpt lat="60.0089584" lon="17.6015361">
        <ele>38.5901</ele>
        <time>2013-04-21T11:02:53Z</time>
      </trkpt>
      <trkpt lat="60.0089796" lon="17.6014026">
        <ele>38.5901</ele>
        <time>2013-04-21T11:02:54Z</time>
      </trkpt>
      <trkpt lat="60.0089988" lon="17.6012698">
        <ele>38.5901</ele>
        <time>2013-04-21T11:02:55Z</time>
      </trkpt>
      <trkpt lat="60.0090193" lon="17.6011382">
        <ele>38.1094</ele>
        <time>2013-04-21T11:02:56Z</time>
      </trkpt>
      <trkpt lat="60.0090398" lon="17.6010073">
        <ele>38.1094</ele>
        <time>2013-04-21T11:02:57Z</time>
      </trkpt>
      <trkpt lat="60.0090597" lon="17.6008751">
        <ele>37.6287</ele>
        <time>2013-04-21T11:02:58Z</time>
      </trkpt>
      <trkpt lat="60.0090786" lon="17.6007405">
        <ele>37.6287</ele>
        <time>2013-04-21T11:02:59Z</time>
      </trkpt>
      <trkpt lat="60.0090972" lon="17.6006083">
        <ele>37.1481</ele>
        <time>2013-04-21T11:03:00Z</time>
      </trkpt>
      <trkpt lat="60.0091184" lon="17.6004746">
        <ele>37.6287</ele>
        <time>2013-04-21T11:03:01Z</time>
      </trkpt>
      <trkpt lat="60.0091395" lon="17.60034">
        <ele>37.6287</ele>
        <time>2013-04-21T11:03:02Z</time>
      </trkpt>
      <trkpt lat="60.0091615" lon="17.6002042">
        <ele>37.6287</ele>
        <time>2013-04-21T11:03:03Z</time>
      </trkpt>
      <trkpt lat="60.0091838" lon="17.6000705">
        <ele>38.1094</ele>
        <time>2013-04-21T11:03:04Z</time>
      </trkpt>
      <trkpt lat="60.0092047" lon="17.5999353">
        <ele>38.1094</ele>
        <time>2013-04-21T11:03:05Z</time>
      </trkpt>
      <trkpt lat="60.0092252" lon="17.599803">
        <ele>38.5901</ele>
        <time>2013-04-21T11:03:06Z</time>
      </trkpt>
      <trkpt lat="60.0092438" lon="17.5996698">
        <ele>38.1094</ele>
        <time>2013-04-21T11:03:07Z</time>
      </trkpt>
      <trkpt lat="60.009262" lon="17.5995367">
        <ele>38.1094</ele>
        <time>2013-04-21T11:03:08Z</time>
      </trkpt>
      <trkpt lat="60.0092821" lon="17.5994066">
        <ele>38.1094</ele>
        <time>2013-04-21T11:03:09Z</time>
      </trkpt>
      <trkpt lat="60.0093044" lon="17.5992764">
        <ele>38.5901</ele>
        <time>2013-04-21T11:03:10Z</time>
      </trkpt>
      <trkpt lat="60.0093267" lon="17.5991456">
        <ele>38.5901</ele>
        <time>2013-04-21T11:03:11Z</time>
      </trkpt>
      <trkpt lat="60.0093474" lon="17.5990143">
        <ele>38.5901</ele>
        <time>2013-04-21T11:03:12Z</time>
      </trkpt>
      <trkpt lat="60.0093691" lon="17.5988839">
        <ele>39.0707</ele>
        <time>2013-04-21T11:03:13Z</time>
      </trkpt>
      <trkpt lat="60.0093899" lon="17.5987543">
        <ele>39.0707</ele>
        <time>2013-04-21T11:03:14Z</time>
      </trkpt>
      <trkpt lat="60.0094119" lon="17.598624">
        <ele>39.5513</ele>
        <time>2013-04-21T11:03:15Z</time>
      </trkpt>
      <trkpt lat="60.0094337" lon="17.598493">
        <ele>39.0707</ele>
        <time>2013-04-21T11:03:16Z</time>
      </trkpt>
      <trkpt lat="60.0094558" lon="17.5983594">
        <ele>39.5513</ele>
        <time>2013-04-21T11:03:17Z</time>
      </trkpt>
      <trkpt lat="60.0094778" lon="17.5982241">
        <ele>39.5513</ele>
        <time>2013-04-21T11:03:18Z</time>
      </trkpt>
      <trkpt lat="60.0094997" lon="17.5980893">
        <ele>39.5513</ele>
        <time>2013-04-21T11:03:19Z</time>
      </trkpt>
      <trkpt lat="60.0095233" lon="17.597954">
        <ele>40.0321</ele>
        <time>2013-04-21T11:03:20Z</time>
      </trkpt>
      <trkpt lat="60.0095479" lon="17.597819">
        <ele>40.5128</ele>
        <time>2013-04-21T11:03:21Z</time>
      </trkpt>
      <trkpt lat="60.0095726" lon="17.5976849">
        <ele>40.5128</ele>
        <time>2013-04-21T11:03:22Z</time>
      </trkpt>
      <trkpt lat="60.0095964" lon="17.5975501">
        <ele>40.5128</ele>
        <time>2013-04-21T11:03:23Z</time>
      </trkpt>
      <trkpt lat="60.0096199" lon="17.5974149">
        <ele>40.5128</ele>
        <time>2013-04-21T11:03:24Z</time>
      </trkpt>
      <trkpt lat="60.0096436" lon="17.5972785">
        <ele>40.5128</ele>
        <time>2013-04-21T11:03:25Z</time>
      </trkpt>
      <trkpt lat="60.0096686" lon="17.5971403">
        <ele>40.5128</ele>
        <time>2013-04-21T11:03:26Z</time>
      </trkpt>
      <trkpt lat="60.009694" lon="17.5970005">
        <ele>40.5128</ele>
        <time>2013-04-21T11:03:27Z</time>
      </trkpt>
      <trkpt lat="60.0097188" lon="17.5968589">
        <ele>40.5128</ele>
        <time>2013-04-21T11:03:28Z</time>
      </trkpt>
      <trkpt lat="60.0097432" lon="17.5967171">
        <ele>40.0321</ele>
        <time>2013-04-21T11:03:29Z</time>
      </trkpt>
      <trkpt lat="60.0097681" lon="17.596576">
        <ele>40.0321</ele>
        <time>2013-04-21T11:03:30Z</time>
      </trkpt>
      <trkpt lat="60.0097935" lon="17.5964352">
        <ele>39.5513</ele>
        <time>2013-04-21T11:03:31Z</time>
      </trkpt>
      <trkpt lat="60.0098182" lon="17.5962945">
        <ele>39.5513</ele>
        <time>2013-04-21T11:03:32Z</time>
      </trkpt>
      <trkpt lat="60.009843" lon="17.5961541">
        <ele>39.5513</ele>
        <time>2013-04-21T11:03:33Z</time>
      </trkpt>
      <trkpt lat="60.0098684" lon="17.5960131">
        <ele>39.5513</ele>
        <time>2013-04-21T11:03:34Z</time>
      </trkpt>
      <trkpt lat="60.0098943" lon="17.5958712">
        <ele>40.0321</ele>
        <time>2013-04-21T11:03:35Z</time>
      </trkpt>
      <trkpt lat="60.0099198" lon="17.5957287">
        <ele>39.5513</ele>
        <time>2013-04-21T11:03:36Z</time>
      </trkpt>
      <trkpt lat="60.0099452" lon="17.5955856">
        <ele>39.5513</ele>
        <time>2013-04-21T11:03:37Z</time>
      </trkpt>
      <trkpt lat="60.0099711" lon="17.5954424">
        <ele>39.5513</ele>
        <time>2013-04-21T11:03:38Z</time>
      </trkpt>
      <trkpt lat="60.0099975" lon="17.5952976">
        <ele>39.5513</ele>
        <time>2013-04-21T11:03:39Z</time>
      </trkpt>
      <trkpt lat="60.0100244" lon="17.5951517">
        <ele>39.5513</ele>
        <time>2013-04-21T11:03:40Z</time>
      </trkpt>
      <trkpt lat="60.0100513" lon="17.5950049">
        <ele>39.5513</ele>
        <time>2013-04-21T11:03:41Z</time>
      </trkpt>
      <trkpt lat="60.0100789" lon="17.5948565">
        <ele>39.5513</ele>
        <time>2013-04-21T11:03:42Z</time>
      </trkpt>
      <trkpt lat="60.0101059" lon="17.5947068">
        <ele>39.5513</ele>
        <time>2013-04-21T11:03:43Z</time>
      </trkpt>
      <trkpt lat="60.0101333" lon="17.5945559">
        <ele>39.0707</ele>
        <time>2013-04-21T11:03:44Z</time>
      </trkpt>
      <trkpt lat="60.0101616" lon="17.594404">
        <ele>39.5513</ele>
        <time>2013-04-21T11:03:45Z</time>
      </trkpt>
      <trkpt lat="60.0101887" lon="17.5942525">
        <ele>39.0707</ele>
        <time>2013-04-21T11:03:46Z</time>
      </trkpt>
      <trkpt lat="60.0102172" lon="17.5941007">
        <ele>39.0707</ele>
        <time>2013-04-21T11:03:47Z</time>
      </trkpt>
      <trkpt lat="60.0102456" lon="17.593948">
        <ele>39.0707</ele>
        <time>2013-04-21T11:03:48Z</time>
      </trkpt>
      <trkpt lat="60.0102735" lon="17.5937934">
        <ele>39.0707</ele>
        <time>2013-04-21T11:03:49Z</time>
      </trkpt>
      <trkpt lat="60.0103022" lon="17.5936363">
        <ele>39.0707</ele>
        <time>2013-04-21T11:03:50Z</time>
      </trkpt>
      <trkpt lat="60.0103317" lon="17.5934781">
        <ele>38.5901</ele>
        <time>2013-04-21T11:03:51Z</time>
      </trkpt>
      <trkpt lat="60.010362" lon="17.5933209">
        <ele>38.5901</ele>
        <time>2013-04-21T11:03:52Z</time>
      </trkpt>
      <trkpt lat="60.0103922" lon="17.5931641">
        <ele>38.5901</ele>
        <time>2013-04-21T11:03:53Z</time>
      </trkpt>
      <trkpt lat="60.0104218" lon="17.5930077">
        <ele>38.1094</ele>
        <time>2013-04-21T11:03:54Z</time>
      </trkpt>
      <trkpt lat="60.0104518" lon="17.5928526">
        <ele>38.1094</ele>
        <time>2013-04-21T11:03:55Z</time>
      </trkpt>
      <trkpt lat="60.0104818" lon="17.5926969">
        <ele>38.1094</ele>
        <time>2013-04-21T11:03:56Z</time>
      </trkpt>
      <trkpt lat="60.0105124" lon="17.5925404">
        <ele>38.1094</ele>
        <time>2013-04-21T11:03:57Z</time>
      </trkpt>
      <trkpt lat="60.010545" lon="17.5923844">
        <ele>37.6287</ele>
        <time>2013-04-21T11:03:58Z</time>
      </trkpt>
      <trkpt lat="60.0105786" lon="17.592229">
        <ele>37.6287</ele>
        <time>2013-04-21T11:03:59Z</time>
      </trkpt>
      <trkpt lat="60.0106125" lon="17.5920731">
        <ele>37.6287</ele>
        <time>2013-04-21T11:04:00Z</time>
      </trkpt>
      <trkpt lat="60.0106477" lon="17.5919172">
        <ele>37.6287</ele>
        <time>2013-04-21T11:04:01Z</time>
      </trkpt>
      <trkpt lat="60.0106854" lon="17.5917622">
        <ele>37.1481</ele>
        <time>2013-04-21T11:04:02Z</time>
      </trkpt>
      <trkpt lat="60.0107242" lon="17.5916084">
        <ele>37.1481</ele>
        <time>2013-04-21T11:04:03Z</time>
      </trkpt>
      <trkpt lat="60.0107634" lon="17.5914546">
        <ele>37.1481</ele>
        <time>2013-04-21T11:04:04Z</time>
      </trkpt>
      <trkpt lat="60.0108034" lon="17.5913004">
        <ele>36.6675</ele>
        <time>2013-04-21T11:04:05Z</time>
      </trkpt>
      <trkpt lat="60.0108454" lon="17.591147">
        <ele>36.6675</ele>
        <time>2013-04-21T11:04:06Z</time>
      </trkpt>
      <trkpt lat="60.01089" lon="17.5909956">
        <ele>36.6675</ele>
        <time>2013-04-21T11:04:07Z</time>
      </trkpt>
      <trkpt lat="60.0109366" lon="17.590845">
        <ele>36.6675</ele>
        <time>2013-04-21T11:04:08Z</time>
      </trkpt>
      <trkpt lat="60.0109848" lon="17.5906957">
        <ele>36.6675</ele>
        <time>2013-04-21T11:04:09Z</time>
      </trkpt>
      <trkpt lat="60.0110351" lon="17.5905483">
        <ele>36.6675</ele>
        <time>2013-04-21T11:04:10Z</time>
      </trkpt>
      <trkpt lat="60.0110869" lon="17.5904026">
        <ele>36.6675</ele>
        <time>2013-04-21T11:04:11Z</time>
      </trkpt>
      <trkpt lat="60.0111402" lon="17.5902592">
        <ele>36.6675</ele>
        <time>2013-04-21T11:04:12Z</time>
      </trkpt>
      <trkpt lat="60.0111946" lon="17.5901173">
        <ele>36.6675</ele>
        <time>2013-04-21T11:04:13Z</time>
      </trkpt>
      <trkpt lat="60.0112495" lon="17.589979">
        <ele>36.6675</ele>
        <time>2013-04-21T11:04:14Z</time>
      </trkpt>
      <trkpt lat="60.0113055" lon="17.5898446">
        <ele>36.1868</ele>
        <time>2013-04-21T11:04:15Z</time>
      </trkpt>
      <trkpt lat="60.011363" lon="17.5897145">
        <ele>36.1868</ele>
        <time>2013-04-21T11:04:16Z</time>
      </trkpt>
      <trkpt lat="60.0114203" lon="17.5895874">
        <ele>36.1868</ele>
        <time>2013-04-21T11:04:17Z</time>
      </trkpt>
      <trkpt lat="60.0114771" lon="17.5894629">
        <ele>36.1868</ele>
        <time>2013-04-21T11:04:18Z</time>
      </trkpt>
      <trkpt lat="60.0115344" lon="17.5893392">
        <ele>36.1868</ele>
        <time>2013-04-21T11:04:19Z</time>
      </trkpt>
      <trkpt lat="60.0115926" lon="17.5892138">
        <ele>36.6675</ele>
        <time>2013-04-21T11:04:20Z</time>
      </trkpt>
      <trkpt lat="60.0116521" lon="17.5890944">
        <ele>36.6675</ele>
        <time>2013-04-21T11:04:21Z</time>
      </trkpt>
      <trkpt lat="60.0117135" lon="17.5889818">
        <ele>36.6675</ele>
        <time>2013-04-21T11:04:22Z</time>
      </trkpt>
      <trkpt lat="60.0117754" lon="17.5888745">
        <ele>36.6675</ele>
        <time>2013-04-21T11:04:23Z</time>
      </trkpt>
      <trkpt lat="60.0118375" lon="17.5887696">
        <ele>36.6675</ele>
        <time>2013-04-21T11:04:24Z</time>
      </trkpt>
      <trkpt lat="60.0119002" lon="17.5886683">
        <ele>36.6675</ele>
        <time>2013-04-21T11:04:25Z</time>
      </trkpt>
      <trkpt lat="60.0119623" lon="17.5885688">
        <ele>37.1481</ele>
        <time>2013-04-21T11:04:26Z</time>
      </trkpt>
      <trkpt lat="60.0120249" lon="17.588472">
        <ele>37.1481</ele>
        <time>2013-04-21T11:04:27Z</time>
      </trkpt>
      <trkpt lat="60.0120878" lon="17.588377">
        <ele>37.1481</ele>
        <time>2013-04-21T11:04:28Z</time>
      </trkpt>
      <trkpt lat="60.0121512" lon="17.5882833">
        <ele>37.6287</ele>
        <time>2013-04-21T11:04:29Z</time>
      </trkpt>
      <trkpt lat="60.012216" lon="17.5882011">
        <ele>37.6287</ele>
        <time>2013-04-21T11:04:30Z</time>
      </trkpt>
      <trkpt lat="60.0122809" lon="17.5881181">
        <ele>37.6287</ele>
        <time>2013-04-21T11:04:31Z</time>
      </trkpt>
      <trkpt lat="60.0123482" lon="17.5880361">
        <ele>37.6287</ele>
        <time>2013-04-21T11:04:32Z</time>
      </trkpt>
      <trkpt lat="60.0124165" lon="17.5879529">
        <ele>37.6287</ele>
        <time>2013-04-21T11:04:33Z</time>
      </trkpt>
      <trkpt lat="60.0124846" lon="17.5878704">
        <ele>38.1094</ele>
        <time>2013-04-21T11:04:34Z</time>
      </trkpt>
      <trkpt lat="60.0125523" lon="17.587793">
        <ele>38.1094</ele>
        <time>2013-04-21T11:04:35Z</time>
      </trkpt>
      <trkpt lat="60.0126207" lon="17.5877222">
        <ele>38.1094</ele>
        <time>2013-04-21T11:04:36Z</time>
      </trkpt>
      <trkpt lat="60.0126901" lon="17.5876549">
        <ele>38.1094</ele>
        <time>2013-04-21T11:04:37Z</time>
      </trkpt>
      <trkpt lat="60.0127591" lon="17.5875896">
        <ele>38.5901</ele>
        <time>2013-04-21T11:04:38Z</time>
      </trkpt>
      <trkpt lat="60.0128279" lon="17.5875271">
        <ele>38.5901</ele>
        <time>2013-04-21T11:04:39Z</time>
      </trkpt>
      <trkpt lat="60.0128973" lon="17.5874649">
        <ele>38.5901</ele>
        <time>2013-04-21T11:04:40Z</time>
      </trkpt>
      <trkpt lat="60.0129667" lon="17.5874037">
        <ele>38.5901</ele>
        <time>2013-04-21T11:04:41Z</time>
      </trkpt>
      <trkpt lat="60.0130375" lon="17.5873479">
        <ele>39.0707</ele>
        <time>2013-04-21T11:04:42Z</time>
      </trkpt>
      <trkpt lat="60.0131097" lon="17.5872987">
        <ele>38.5901</ele>
        <time>2013-04-21T11:04:43Z</time>
      </trkpt>
      <trkpt lat="60.0131817" lon="17.5872508">
        <ele>38.1094</ele>
        <time>2013-04-21T11:04:44Z</time>
      </trkpt>
      <trkpt lat="60.0132541" lon="17.5871985">
        <ele>38.1094</ele>
        <time>2013-04-21T11:04:45Z</time>
      </trkpt>
      <trkpt lat="60.0133273" lon="17.5871498">
        <ele>38.1094</ele>
        <time>2013-04-21T11:04:46Z</time>
      </trkpt>
      <trkpt lat="60.0134017" lon="17.5871051">
        <ele>38.1094</ele>
        <time>2013-04-21T11:04:47Z</time>
      </trkpt>
      <trkpt lat="60.0134771" lon="17.5870615">
        <ele>37.6287</ele>
        <time>2013-04-21T11:04:48Z</time>
      </trkpt>
      <trkpt lat="60.0135537" lon="17.5870212">
        <ele>37.6287</ele>
        <time>2013-04-21T11:04:49Z</time>
      </trkpt>
      <trkpt lat="60.0136313" lon="17.5869853">
        <ele>37.6287</ele>
        <time>2013-04-21T11:04:50Z</time>
      </trkpt>
      <trkpt lat="60.013709" lon="17.5869492">
        <ele>37.6287</ele>
        <time>2013-04-21T11:04:51Z</time>
      </trkpt>
      <trkpt lat="60.0137867" lon="17.5869162">
        <ele>37.1481</ele>
        <time>2013-04-21T11:04:52Z</time>
      </trkpt>
      <trkpt lat="60.0138645" lon="17.5868846">
        <ele>37.1481</ele>
        <time>2013-04-21T11:04:53Z</time>
      </trkpt>
      <trkpt lat="60.0139423" lon="17.5868526">
        <ele>36.6675</ele>
        <time>2013-04-21T11:04:54Z</time>
      </trkpt>
      <trkpt lat="60.0140209" lon="17.586818">
        <ele>36.6675</ele>
        <time>2013-04-21T11:04:55Z</time>
      </trkpt>
      <trkpt lat="60.0140999" lon="17.5867868">
        <ele>36.6675</ele>
        <time>2013-04-21T11:04:56Z</time>
      </trkpt>
      <trkpt lat="60.0141782" lon="17.5867584">
        <ele>36.6675</ele>
        <time>2013-04-21T11:04:57Z</time>
      </trkpt>
      <trkpt lat="60.0142562" lon="17.5867298">
        <ele>36.6675</ele>
        <time>2013-04-21T11:04:58Z</time>
      </trkpt>
      <trkpt lat="60.0143359" lon="17.5867019">
        <ele>37.1481</ele>
        <time>2013-04-21T11:04:59Z</time>
      </trkpt>
      <trkpt lat="60.0144146" lon="17.5866705">
        <ele>37.1481</ele>
        <time>2013-04-21T11:05:00Z</time>
      </trkpt>
      <trkpt lat="60.0144949" lon="17.5866409">
        <ele>37.6287</ele>
        <time>2013-04-21T11:05:01Z</time>
      </trkpt>
      <trkpt lat="60.0145736" lon="17.5866126">
        <ele>37.6287</ele>
        <time>2013-04-21T11:05:02Z</time>
      </trkpt>
      <trkpt lat="60.0146518" lon="17.5865859">
        <ele>38.1094</ele>
        <time>2013-04-21T11:05:03Z</time>
      </trkpt>
      <trkpt lat="60.014729" lon="17.5865558">
        <ele>38.1094</ele>
        <time>2013-04-21T11:05:04Z</time>
      </trkpt>
      <trkpt lat="60.0148058" lon="17.5865264">
        <ele>38.1094</ele>
        <time>2013-04-21T11:05:05Z</time>
      </trkpt>
      <trkpt lat="60.0148837" lon="17.5865006">
        <ele>37.6287</ele>
        <time>2013-04-21T11:05:06Z</time>
      </trkpt>
      <trkpt lat="60.0149609" lon="17.5864736">
        <ele>37.6287</ele>
        <time>2013-04-21T11:05:07Z</time>
      </trkpt>
      <trkpt lat="60.0150379" lon="17.5864476">
        <ele>37.1481</ele>
        <time>2013-04-21T11:05:08Z</time>
      </trkpt>
      <trkpt lat="60.0151147" lon="17.5864175">
        <ele>37.6287</ele>
        <time>2013-04-21T11:05:09Z</time>
      </trkpt>
      <trkpt lat="60.0151917" lon="17.5863876">
        <ele>37.6287</ele>
        <time>2013-04-21T11:05:10Z</time>
      </trkpt>
      <trkpt lat="60.0152691" lon="17.5863583">
        <ele>38.1094</ele>
        <time>2013-04-21T11:05:11Z</time>
      </trkpt>
      <trkpt lat="60.0153449" lon="17.5863273">
        <ele>38.1094</ele>
        <time>2013-04-21T11:05:12Z</time>
      </trkpt>
      <trkpt lat="60.0154209" lon="17.5862975">
        <ele>38.1094</ele>
        <time>2013-04-21T11:05:13Z</time>
      </trkpt>
      <trkpt lat="60.0154981" lon="17.5862666">
        <ele>38.5901</ele>
        <time>2013-04-21T11:05:14Z</time>
      </trkpt>
      <trkpt lat="60.0155758" lon="17.5862326">
        <ele>39.0707</ele>
        <time>2013-04-21T11:05:15Z</time>
      </trkpt>
      <trkpt lat="60.0156536" lon="17.5862014">
        <ele>39.0707</ele>
        <time>2013-04-21T11:05:16Z</time>
      </trkpt>
      <trkpt lat="60.0157311" lon="17.5861674">
        <ele>39.5513</ele>
        <time>2013-04-21T11:05:17Z</time>
      </trkpt>
      <trkpt lat="60.015808" lon="17.5861343">
        <ele>39.5513</ele>
        <time>2013-04-21T11:05:18Z</time>
      </trkpt>
      <trkpt lat="60.0158847" lon="17.5860988">
        <ele>39.5513</ele>
        <time>2013-04-21T11:05:19Z</time>
      </trkpt>
      <trkpt lat="60.0159622" lon="17.586057">
        <ele>40.0321</ele>
        <time>2013-04-21T11:05:20Z</time>
      </trkpt>
      <trkpt lat="60.0160397" lon="17.5860102">
        <ele>40.0321</ele>
        <time>2013-04-21T11:05:21Z</time>
      </trkpt>
      <trkpt lat="60.0161177" lon="17.5859591">
        <ele>40.5128</ele>
        <time>2013-04-21T11:05:22Z</time>
      </trkpt>
      <trkpt lat="60.016196" lon="17.5859061">
        <ele>40.0321</ele>
        <time>2013-04-21T11:05:23Z</time>
      </trkpt>
      <trkpt lat="60.0162742" lon="17.5858496">
        <ele>40.0321</ele>
        <time>2013-04-21T11:05:24Z</time>
      </trkpt>
      <trkpt lat="60.0163529" lon="17.5857898">
        <ele>40.0321</ele>
        <time>2013-04-21T11:05:25Z</time>
      </trkpt>
      <trkpt lat="60.0164325" lon="17.5857285">
        <ele>40.0321</ele>
        <time>2013-04-21T11:05:26Z</time>
      </trkpt>
      <trkpt lat="60.0165136" lon="17.5856624">
        <ele>40.0321</ele>
        <time>2013-04-21T11:05:27Z</time>
      </trkpt>
      <trkpt lat="60.0165936" lon="17.5855916">
        <ele>40.5128</ele>
        <time>2013-04-21T11:05:28Z</time>
      </trkpt>
      <trkpt lat="60.0166731" lon="17.5855181">
        <ele>40.5128</ele>
        <time>2013-04-21T11:05:29Z</time>
      </trkpt>
      <trkpt lat="60.0167524" lon="17.5854405">
        <ele>40.9934</ele>
        <time>2013-04-21T11:05:30Z</time>
      </trkpt>
      <trkpt lat="60.0168312" lon="17.5853585">
        <ele>40.9934</ele>
        <time>2013-04-21T11:05:31Z</time>
      </trkpt>
      <trkpt lat="60.0169091" lon="17.5852718">
        <ele>41.474</ele>
        <time>2013-04-21T11:05:32Z</time>
      </trkpt>
      <trkpt lat="60.0169868" lon="17.5851816">
        <ele>41.474</ele>
        <time>2013-04-21T11:05:33Z</time>
      </trkpt>
      <trkpt lat="60.0170643" lon="17.5850887">
        <ele>41.474</ele>
        <time>2013-04-21T11:05:34Z</time>
      </trkpt>
      <trkpt lat="60.0171412" lon="17.584995">
        <ele>41.474</ele>
        <time>2013-04-21T11:05:35Z</time>
      </trkpt>
      <trkpt lat="60.0172168" lon="17.5848971">
        <ele>41.474</ele>
        <time>2013-04-21T11:05:36Z</time>
      </trkpt>
      <trkpt lat="60.0172914" lon="17.5847961">
        <ele>41.474</ele>
        <time>2013-04-21T11:05:37Z</time>
      </trkpt>
      <trkpt lat="60.0173661" lon="17.584696">
        <ele>41.474</ele>
        <time>2013-04-21T11:05:38Z</time>
      </trkpt>
      <trkpt lat="60.0174398" lon="17.584593">
        <ele>41.474</ele>
        <time>2013-04-21T11:05:39Z</time>
      </trkpt>
      <trkpt lat="60.0175119" lon="17.5844847">
        <ele>41.474</ele>
        <time>2013-04-21T11:05:40Z</time>
      </trkpt>
      <trkpt lat="60.0175827" lon="17.5843735">
        <ele>41.474</ele>
        <time>2013-04-21T11:05:41Z</time>
      </trkpt>
      <trkpt lat="60.0176521" lon="17.5842598">
        <ele>41.474</ele>
        <time>2013-04-21T11:05:42Z</time>
      </trkpt>
      <trkpt lat="60.0177196" lon="17.5841431">
        <ele>41.474</ele>
        <time>2013-04-21T11:05:43Z</time>
      </trkpt>
      <trkpt lat="60.0177854" lon="17.5840241">
        <ele>41.474</ele>
        <time>2013-04-21T11:05:44Z</time>
      </trkpt>
      <trkpt lat="60.0178501" lon="17.5839037">
        <ele>41.474</ele>
        <time>2013-04-21T11:05:45Z</time>
      </trkpt>
      <trkpt lat="60.0179137" lon="17.5837814">
        <ele>40.9934</ele>
        <time>2013-04-21T11:05:46Z</time>
      </trkpt>
      <trkpt lat="60.0179764" lon="17.5836566">
        <ele>40.9934</ele>
        <time>2013-04-21T11:05:47Z</time>
      </trkpt>
      <trkpt lat="60.0180386" lon="17.5835286">
        <ele>40.9934</ele>
        <time>2013-04-21T11:05:48Z</time>
      </trkpt>
      <trkpt lat="60.0181" lon="17.5833976">
        <ele>40.9934</ele>
        <time>2013-04-21T11:05:49Z</time>
      </trkpt>
      <trkpt lat="60.0181599" lon="17.5832625">
        <ele>40.9934</ele>
        <time>2013-04-21T11:05:50Z</time>
      </trkpt>
      <trkpt lat="60.018219" lon="17.5831242">
        <ele>40.9934</ele>
        <time>2013-04-21T11:05:51Z</time>
      </trkpt>
      <trkpt lat="60.0182758" lon="17.5829848">
        <ele>40.9934</ele>
        <time>2013-04-21T11:05:52Z</time>
      </trkpt>
      <trkpt lat="60.0183293" lon="17.5828428">
        <ele>40.9934</ele>
        <time>2013-04-21T11:05:53Z</time>
      </trkpt>
      <trkpt lat="60.0183836" lon="17.582702">
        <ele>40.9934</ele>
        <time>2013-04-21T11:05:54Z</time>
      </trkpt>
      <trkpt lat="60.0184365" lon="17.5825573">
        <ele>40.9934</ele>
        <time>2013-04-21T11:05:55Z</time>
      </trkpt>
      <trkpt lat="60.0184872" lon="17.5824087">
        <ele>40.9934</ele>
        <time>2013-04-21T11:05:56Z</time>
      </trkpt>
      <trkpt lat="60.0185362" lon="17.5822579">
        <ele>40.9934</ele>
        <time>2013-04-21T11:05:57Z</time>
      </trkpt>
      <trkpt lat="60.0185835" lon="17.5821063">
        <ele>40.9934</ele>
        <time>2013-04-21T11:05:58Z</time>
      </trkpt>
      <trkpt lat="60.0186313" lon="17.5819565">
        <ele>40.9934</ele>
        <time>2013-04-21T11:05:59Z</time>
      </trkpt>
      <trkpt lat="60.0186771" lon="17.5818045">
        <ele>40.9934</ele>
        <time>2013-04-21T11:06:00Z</time>
      </trkpt>
      <trkpt lat="60.0187201" lon="17.5816517">
        <ele>41.474</ele>
        <time>2013-04-21T11:06:01Z</time>
      </trkpt>
      <trkpt lat="60.0187616" lon="17.5814975">
        <ele>41.474</ele>
        <time>2013-04-21T11:06:02Z</time>
      </trkpt>
      <trkpt lat="60.0188042" lon="17.581345">
        <ele>41.474</ele>
        <time>2013-04-21T11:06:03Z</time>
      </trkpt>
      <trkpt lat="60.0188442" lon="17.5811948">
        <ele>40.9934</ele>
        <time>2013-04-21T11:06:04Z</time>
      </trkpt>
      <trkpt lat="60.0188789" lon="17.5810426">
        <ele>39.5513</ele>
        <time>2013-04-21T11:06:05Z</time>
      </trkpt>
      <trkpt lat="60.0189131" lon="17.5808956">
        <ele>39.0707</ele>
        <time>2013-04-21T11:06:06Z</time>
      </trkpt>
      <trkpt lat="60.018943" lon="17.5807472">
        <ele>38.5901</ele>
        <time>2013-04-21T11:06:07Z</time>
      </trkpt>
      <trkpt lat="60.018971" lon="17.5805972">
        <ele>38.5901</ele>
        <time>2013-04-21T11:06:08Z</time>
      </trkpt>
      <trkpt lat="60.018999" lon="17.5804531">
        <ele>38.5901</ele>
        <time>2013-04-21T11:06:09Z</time>
      </trkpt>
      <trkpt lat="60.0190258" lon="17.5803108">
        <ele>38.5901</ele>
        <time>2013-04-21T11:06:10Z</time>
      </trkpt>
      <trkpt lat="60.0190497" lon="17.5801661">
        <ele>38.5901</ele>
        <time>2013-04-21T11:06:11Z</time>
      </trkpt>
      <trkpt lat="60.0190706" lon="17.5800254">
        <ele>38.1094</ele>
        <time>2013-04-21T11:06:12Z</time>
      </trkpt>
      <trkpt lat="60.0190912" lon="17.5798853">
        <ele>37.6287</ele>
        <time>2013-04-21T11:06:13Z</time>
      </trkpt>
      <trkpt lat="60.0191205" lon="17.5797549">
        <ele>38.1094</ele>
        <time>2013-04-21T11:06:14Z</time>
      </trkpt>
      <trkpt lat="60.0191666" lon="17.5796513">
        <ele>38.1094</ele>
        <time>2013-04-21T11:06:15Z</time>
      </trkpt>
      <trkpt lat="60.0192263" lon="17.5795786">
        <ele>38.1094</ele>
        <time>2013-04-21T11:06:16Z</time>
      </trkpt>
      <trkpt lat="60.0192911" lon="17.5795261">
        <ele>38.1094</ele>
        <time>2013-04-21T11:06:17Z</time>
      </trkpt>
      <trkpt lat="60.019359" lon="17.5794809">
        <ele>38.1094</ele>
        <time>2013-04-21T11:06:18Z</time>
      </trkpt>
      <trkpt lat="60.0194263" lon="17.5794284">
        <ele>38.5901</ele>
        <time>2013-04-21T11:06:19Z</time>
      </trkpt>
      <trkpt lat="60.0194925" lon="17.5793632">
        <ele>39.0707</ele>
        <time>2013-04-21T11:06:20Z</time>
      </trkpt>
      <trkpt lat="60.019557" lon="17.5792805">
        <ele>39.5513</ele>
        <time>2013-04-21T11:06:21Z</time>
      </trkpt>
      <trkpt lat="60.019619" lon="17.5791888">
        <ele>37.6287</ele>
        <time>2013-04-21T11:06:22Z</time>
      </trkpt>
      <trkpt lat="60.0196813" lon="17.5790932">
        <ele>36.6675</ele>
        <time>2013-04-21T11:06:23Z</time>
      </trkpt>
      <trkpt lat="60.0197402" lon="17.5789863">
        <ele>36.6675</ele>
        <time>2013-04-21T11:06:24Z</time>
      </trkpt>
      <trkpt lat="60.0197923" lon="17.5788592">
        <ele>37.1481</ele>
        <time>2013-04-21T11:06:25Z</time>
      </trkpt>
      <trkpt lat="60.0198449" lon="17.5787397">
        <ele>35.7061</ele>
        <time>2013-04-21T11:06:26Z</time>
      </trkpt>
      <trkpt lat="60.0198904" lon="17.578593">
        <ele>36.6675</ele>
        <time>2013-04-21T11:06:27Z</time>
      </trkpt>
      <trkpt lat="60.0199366" lon="17.5784474">
        <ele>36.1868</ele>
        <time>2013-04-21T11:06:28Z</time>
      </trkpt>
      <trkpt lat="60.0199843" lon="17.5783195">
        <ele>36.1868</ele>
        <time>2013-04-21T11:06:29Z</time>
      </trkpt>
      <trkpt lat="60.020026" lon="17.5781855">
        <ele>36.1868</ele>
        <time>2013-04-21T11:06:30Z</time>
      </trkpt>
      <trkpt lat="60.0200643" lon="17.5780517">
        <ele>35.7061</ele>
        <time>2013-04-21T11:06:31Z</time>
      </trkpt>
      <trkpt lat="60.0200949" lon="17.5779189">
        <ele>34.2642</ele>
        <time>2013-04-21T11:06:32Z</time>
      </trkpt>
      <trkpt lat="60.0201302" lon="17.5777756">
        <ele>32.8223</ele>
        <time>2013-04-21T11:06:33Z</time>
      </trkpt>
      <trkpt lat="60.0201482" lon="17.5776367">
        <ele>33.3029</ele>
        <time>2013-04-21T11:06:34Z</time>
      </trkpt>
      <trkpt lat="60.0201676" lon="17.5775057">
        <ele>34.2642</ele>
        <time>2013-04-21T11:06:35Z</time>
      </trkpt>
      <trkpt lat="60.0201981" lon="17.5773701">
        <ele>33.3029</ele>
        <time>2013-04-21T11:06:36Z</time>
      </trkpt>
      <trkpt lat="60.0202154" lon="17.577225">
        <ele>31.8607</ele>
        <time>2013-04-21T11:06:37Z</time>
      </trkpt>
      <trkpt lat="60.0202254" lon="17.5770712">
        <ele>30.4188</ele>
        <time>2013-04-21T11:06:38Z</time>
      </trkpt>
      <trkpt lat="60.0202415" lon="17.5769189">
        <ele>29.9381</ele>
        <time>2013-04-21T11:06:39Z</time>
      </trkpt>
      <trkpt lat="60.0202607" lon="17.5767614">
        <ele>27.5349</ele>
        <time>2013-04-21T11:06:40Z</time>
      </trkpt>
      <trkpt lat="60.0202805" lon="17.5765881">
        <ele>26.0929</ele>
        <time>2013-04-21T11:06:41Z</time>
      </trkpt>
      <trkpt lat="60.0203055" lon="17.5764064">
        <ele>25.1317</ele>
        <time>2013-04-21T11:06:42Z</time>
      </trkpt>
      <trkpt lat="60.0203407" lon="17.5762325">
        <ele>24.1703</ele>
        <time>2013-04-21T11:06:43Z</time>
      </trkpt>
      <trkpt lat="60.0203876" lon="17.5760742">
        <ele>22.7283</ele>
        <time>2013-04-21T11:06:44Z</time>
      </trkpt>
      <trkpt lat="60.0204395" lon="17.5759157">
        <ele>21.767</ele>
        <time>2013-04-21T11:06:45Z</time>
      </trkpt>
      <trkpt lat="60.0204941" lon="17.5757559">
        <ele>21.2864</ele>
        <time>2013-04-21T11:06:46Z</time>
      </trkpt>
      <trkpt lat="60.0205255" lon="17.5755129">
        <ele>22.7283</ele>
        <time>2013-04-21T11:06:47Z</time>
      </trkpt>
      <trkpt lat="60.0205767" lon="17.5753529">
        <ele>22.7283</ele>
        <time>2013-04-21T11:06:48Z</time>
      </trkpt>
      <trkpt lat="60.0206344" lon="17.5752202">
        <ele>22.7283</ele>
        <time>2013-04-21T11:06:49Z</time>
      </trkpt>
      <trkpt lat="60.0206944" lon="17.5751253">
        <ele>22.7283</ele>
        <time>2013-04-21T11:06:50Z</time>
      </trkpt>
      <trkpt lat="60.0207641" lon="17.5750756">
        <ele>22.7283</ele>
        <time>2013-04-21T11:06:51Z</time>
      </trkpt>
      <trkpt lat="60.0208378" lon="17.5750317">
        <ele>21.767</ele>
        <time>2013-04-21T11:06:52Z</time>
      </trkpt>
      <trkpt lat="60.0209175" lon="17.5750057">
        <ele>21.767</ele>
        <time>2013-04-21T11:06:53Z</time>
      </trkpt>
      <trkpt lat="60.0209998" lon="17.5749883">
        <ele>21.767</ele>
        <time>2013-04-21T11:06:54Z</time>
      </trkpt>
      <trkpt lat="60.021082" lon="17.574971">
        <ele>21.767</ele>
        <time>2013-04-21T11:06:55Z</time>
      </trkpt>
      <trkpt lat="60.0211596" lon="17.5749539">
        <ele>21.767</ele>
        <time>2013-04-21T11:06:56Z</time>
      </trkpt>
      <trkpt lat="60.0212345" lon="17.574946">
        <ele>21.767</ele>
        <time>2013-04-21T11:06:57Z</time>
      </trkpt>
      <trkpt lat="60.0213098" lon="17.5749343">
        <ele>21.767</ele>
        <time>2013-04-21T11:06:58Z</time>
      </trkpt>
      <trkpt lat="60.0213807" lon="17.5749215">
        <ele>22.2476</ele>
        <time>2013-04-21T11:06:59Z</time>
      </trkpt>
      <trkpt lat="60.0214579" lon="17.5748961">
        <ele>23.209</ele>
        <time>2013-04-21T11:07:00Z</time>
      </trkpt>
      <trkpt lat="60.0215326" lon="17.5748721">
        <ele>20.8057</ele>
        <time>2013-04-21T11:07:01Z</time>
      </trkpt>
      <trkpt lat="60.021606" lon="17.5748318">
        <ele>18.4023</ele>
        <time>2013-04-21T11:07:02Z</time>
      </trkpt>
      <trkpt lat="60.0216798" lon="17.5747846">
        <ele>16.4797</ele>
        <time>2013-04-21T11:07:03Z</time>
      </trkpt>
      <trkpt lat="60.0217535" lon="17.5747436">
        <ele>16.4797</ele>
        <time>2013-04-21T11:07:04Z</time>
      </trkpt>
      <trkpt lat="60.0218307" lon="17.5747005">
        <ele>15.999</ele>
        <time>2013-04-21T11:07:05Z</time>
      </trkpt>
      <trkpt lat="60.021911" lon="17.5746666">
        <ele>16.4797</ele>
        <time>2013-04-21T11:07:06Z</time>
      </trkpt>
      <trkpt lat="60.0219844" lon="17.5746339">
        <ele>16.4797</ele>
        <time>2013-04-21T11:07:07Z</time>
      </trkpt>
      <trkpt lat="60.0220643" lon="17.5745925">
        <ele>17.4412</ele>
        <time>2013-04-21T11:07:08Z</time>
      </trkpt>
      <trkpt lat="60.0221418" lon="17.5745588">
        <ele>18.4023</ele>
        <time>2013-04-21T11:07:09Z</time>
      </trkpt>
      <trkpt lat="60.0222195" lon="17.5745286">
        <ele>19.8444</ele>
        <time>2013-04-21T11:07:10Z</time>
      </trkpt>
      <trkpt lat="60.0222995" lon="17.5744959">
        <ele>22.2476</ele>
        <time>2013-04-21T11:07:11Z</time>
      </trkpt>
      <trkpt lat="60.0223746" lon="17.5744679">
        <ele>24.1703</ele>
        <time>2013-04-21T11:07:12Z</time>
      </trkpt>
      <trkpt lat="60.0224426" lon="17.5744345">
        <ele>25.1317</ele>
        <time>2013-04-21T11:07:13Z</time>
      </trkpt>
      <trkpt lat="60.0225121" lon="17.574399">
        <ele>26.0929</ele>
        <time>2013-04-21T11:07:14Z</time>
      </trkpt>
      <trkpt lat="60.0225763" lon="17.5743733">
        <ele>26.0929</ele>
        <time>2013-04-21T11:07:15Z</time>
      </trkpt>
      <trkpt lat="60.0226452" lon="17.5743453">
        <ele>26.0929</ele>
        <time>2013-04-21T11:07:16Z</time>
      </trkpt>
      <trkpt lat="60.0227111" lon="17.5743366">
        <ele>25.1317</ele>
        <time>2013-04-21T11:07:17Z</time>
      </trkpt>
      <trkpt lat="60.022774" lon="17.5743315">
        <ele>23.6896</ele>
        <time>2013-04-21T11:07:18Z</time>
      </trkpt>
      <trkpt lat="60.0228318" lon="17.5743226">
        <ele>22.7283</ele>
        <time>2013-04-21T11:07:19Z</time>
      </trkpt>
      <trkpt lat="60.0228919" lon="17.5743137">
        <ele>21.2864</ele>
        <time>2013-04-21T11:07:20Z</time>
      </trkpt>
      <trkpt lat="60.0229575" lon="17.5743044">
        <ele>21.767</ele>
        <time>2013-04-21T11:07:21Z</time>
      </trkpt>
      <trkpt lat="60.0230379" lon="17.5743054">
        <ele>22.2476</ele>
        <time>2013-04-21T11:07:22Z</time>
      </trkpt>
      <trkpt lat="60.0231646" lon="17.574347">
        <ele>25.1317</ele>
        <time>2013-04-21T11:07:23Z</time>
      </trkpt>
      <trkpt lat="60.0232654" lon="17.574378">
        <ele>26.0929</ele>
        <time>2013-04-21T11:07:24Z</time>
      </trkpt>
      <trkpt lat="60.0233533" lon="17.5744008">
        <ele>27.5349</ele>
        <time>2013-04-21T11:07:25Z</time>
      </trkpt>
      <trkpt lat="60.0234393" lon="17.5744211">
        <ele>28.9769</ele>
        <time>2013-04-21T11:07:26Z</time>
      </trkpt>
      <trkpt lat="60.0235148" lon="17.5744458">
        <ele>29.4575</ele>
        <time>2013-04-21T11:07:27Z</time>
      </trkpt>
      <trkpt lat="60.0235918" lon="17.5744669">
        <ele>30.4188</ele>
        <time>2013-04-21T11:07:28Z</time>
      </trkpt>
      <trkpt lat="60.0236642" lon="17.5744765">
        <ele>32.3416</ele>
        <time>2013-04-21T11:07:29Z</time>
      </trkpt>
      <trkpt lat="60.0237402" lon="17.5744775">
        <ele>32.8223</ele>
        <time>2013-04-21T11:07:30Z</time>
      </trkpt>
      <trkpt lat="60.0238197" lon="17.5744658">
        <ele>33.3029</ele>
        <time>2013-04-21T11:07:31Z</time>
      </trkpt>
      <trkpt lat="60.0238921" lon="17.5744602">
        <ele>33.7834</ele>
        <time>2013-04-21T11:07:32Z</time>
      </trkpt>
      <trkpt lat="60.0239559" lon="17.5744553">
        <ele>35.2255</ele>
        <time>2013-04-21T11:07:33Z</time>
      </trkpt>
      <trkpt lat="60.0240236" lon="17.5744437">
        <ele>35.2255</ele>
        <time>2013-04-21T11:07:34Z</time>
      </trkpt>
      <trkpt lat="60.0240935" lon="17.5744309">
        <ele>35.2255</ele>
        <time>2013-04-21T11:07:35Z</time>
      </trkpt>
      <trkpt lat="60.0241645" lon="17.5744251">
        <ele>35.7061</ele>
        <time>2013-04-21T11:07:36Z</time>
      </trkpt>
      <trkpt lat="60.024236" lon="17.5744013">
        <ele>35.7061</ele>
        <time>2013-04-21T11:07:37Z</time>
      </trkpt>
      <trkpt lat="60.0243106" lon="17.5743511">
        <ele>35.7061</ele>
        <time>2013-04-21T11:07:38Z</time>
      </trkpt>
      <trkpt lat="60.0243685" lon="17.5743086">
        <ele>35.7061</ele>
        <time>2013-04-21T11:07:39Z</time>
      </trkpt>
      <trkpt lat="60.0244275" lon="17.574262">
        <ele>36.6675</ele>
        <time>2013-04-21T11:07:40Z</time>
      </trkpt>
      <trkpt lat="60.0244887" lon="17.5742064">
        <ele>35.2255</ele>
        <time>2013-04-21T11:07:41Z</time>
      </trkpt>
      <trkpt lat="60.0245599" lon="17.5741312">
        <ele>34.7449</ele>
        <time>2013-04-21T11:07:42Z</time>
      </trkpt>
      <trkpt lat="60.0246312" lon="17.5740594">
        <ele>34.2642</ele>
        <time>2013-04-21T11:07:43Z</time>
      </trkpt>
      <trkpt lat="60.0247105" lon="17.5739827">
        <ele>35.2255</ele>
        <time>2013-04-21T11:07:44Z</time>
      </trkpt>
      <trkpt lat="60.0247846" lon="17.5739226">
        <ele>35.7061</ele>
        <time>2013-04-21T11:07:45Z</time>
      </trkpt>
      <trkpt lat="60.0248556" lon="17.5738632">
        <ele>36.1868</ele>
        <time>2013-04-21T11:07:46Z</time>
      </trkpt>
      <trkpt lat="60.0249239" lon="17.5738159">
        <ele>36.1868</ele>
        <time>2013-04-21T11:07:47Z</time>
      </trkpt>
      <trkpt lat="60.0249861" lon="17.5737578">
        <ele>35.7061</ele>
        <time>2013-04-21T11:07:48Z</time>
      </trkpt>
      <trkpt lat="60.0250462" lon="17.5737096">
        <ele>34.7449</ele>
        <time>2013-04-21T11:07:49Z</time>
      </trkpt>
      <trkpt lat="60.0251073" lon="17.5736574">
        <ele>34.2642</ele>
        <time>2013-04-21T11:07:50Z</time>
      </trkpt>
      <trkpt lat="60.0251783" lon="17.573593">
        <ele>32.3416</ele>
        <time>2013-04-21T11:07:51Z</time>
      </trkpt>
      <trkpt lat="60.0252555" lon="17.5735269">
        <ele>29.9381</ele>
        <time>2013-04-21T11:07:52Z</time>
      </trkpt>
      <trkpt lat="60.025329" lon="17.5734435">
        <ele>28.0155</ele>
        <time>2013-04-21T11:07:53Z</time>
      </trkpt>
      <trkpt lat="60.0253924" lon="17.5733295">
        <ele>26.5736</ele>
        <time>2013-04-21T11:07:54Z</time>
      </trkpt>
      <trkpt lat="60.025476" lon="17.5731223">
        <ele>24.651</ele>
        <time>2013-04-21T11:07:55Z</time>
      </trkpt>
      <trkpt lat="60.0255091" lon="17.5729673">
        <ele>26.0929</ele>
        <time>2013-04-21T11:07:56Z</time>
      </trkpt>
      <trkpt lat="60.0255238" lon="17.5727857">
        <ele>26.0929</ele>
        <time>2013-04-21T11:07:57Z</time>
      </trkpt>
      <trkpt lat="60.0255376" lon="17.5725997">
        <ele>26.5736</ele>
        <time>2013-04-21T11:07:58Z</time>
      </trkpt>
      <trkpt lat="60.0255415" lon="17.5724239">
        <ele>26.5736</ele>
        <time>2013-04-21T11:07:59Z</time>
      </trkpt>
      <trkpt lat="60.0255492" lon="17.5722355">
        <ele>27.5349</ele>
        <time>2013-04-21T11:08:00Z</time>
      </trkpt>
      <trkpt lat="60.0255658" lon="17.5720659">
        <ele>28.4962</ele>
        <time>2013-04-21T11:08:01Z</time>
      </trkpt>
      <trkpt lat="60.0255916" lon="17.5718942">
        <ele>29.4575</ele>
        <time>2013-04-21T11:08:02Z</time>
      </trkpt>
      <trkpt lat="60.0256045" lon="17.5717123">
        <ele>30.8995</ele>
        <time>2013-04-21T11:08:03Z</time>
      </trkpt>
      <trkpt lat="60.0256207" lon="17.571619">
        <ele>31.8607</ele>
        <time>2013-04-21T11:08:04Z</time>
      </trkpt>
      <trkpt lat="60.0256386" lon="17.571494">
        <ele>32.8223</ele>
        <time>2013-04-21T11:08:05Z</time>
      </trkpt>
      <trkpt lat="60.0256539" lon="17.5713772">
        <ele>33.3029</ele>
        <time>2013-04-21T11:08:06Z</time>
      </trkpt>
      <trkpt lat="60.0256702" lon="17.5712814">
        <ele>33.7834</ele>
        <time>2013-04-21T11:08:07Z</time>
      </trkpt>
      <trkpt lat="60.0256853" lon="17.5711705">
        <ele>34.2642</ele>
        <time>2013-04-21T11:08:08Z</time>
      </trkpt>
      <trkpt lat="60.0257044" lon="17.571067">
        <ele>34.7449</ele>
        <time>2013-04-21T11:08:09Z</time>
      </trkpt>
      <trkpt lat="60.0257234" lon="17.5709602">
        <ele>35.7061</ele>
        <time>2013-04-21T11:08:10Z</time>
      </trkpt>
      <trkpt lat="60.0257326" lon="17.5708346">
        <ele>36.6675</ele>
        <time>2013-04-21T11:08:11Z</time>
      </trkpt>
      <trkpt lat="60.0257295" lon="17.5707001">
        <ele>37.1481</ele>
        <time>2013-04-21T11:08:12Z</time>
      </trkpt>
      <trkpt lat="60.0257106" lon="17.5705202">
        <ele>38.5901</ele>
        <time>2013-04-21T11:08:13Z</time>
      </trkpt>
      <trkpt lat="60.0256895" lon="17.5703857">
        <ele>37.6287</ele>
        <time>2013-04-21T11:08:14Z</time>
      </trkpt>
      <trkpt lat="60.0256638" lon="17.5702637">
        <ele>37.1481</ele>
        <time>2013-04-21T11:08:15Z</time>
      </trkpt>
      <trkpt lat="60.0256289" lon="17.5701319">
        <ele>36.6675</ele>
        <time>2013-04-21T11:08:16Z</time>
      </trkpt>
      <trkpt lat="60.0255906" lon="17.5700149">
        <ele>36.1868</ele>
        <time>2013-04-21T11:08:17Z</time>
      </trkpt>
      <trkpt lat="60.0255508" lon="17.5698997">
        <ele>36.1868</ele>
        <time>2013-04-21T11:08:18Z</time>
      </trkpt>
      <trkpt lat="60.0255114" lon="17.5698059">
        <ele>36.1868</ele>
        <time>2013-04-21T11:08:19Z</time>
      </trkpt>
      <trkpt lat="60.0254715" lon="17.5697172">
        <ele>35.7061</ele>
        <time>2013-04-21T11:08:20Z</time>
      </trkpt>
      <trkpt lat="60.0254304" lon="17.5696278">
        <ele>35.7061</ele>
        <time>2013-04-21T11:08:21Z</time>
      </trkpt>
      <trkpt lat="60.0253867" lon="17.569538">
        <ele>35.7061</ele>
        <time>2013-04-21T11:08:22Z</time>
      </trkpt>
      <trkpt lat="60.025341" lon="17.5694502">
        <ele>35.7061</ele>
        <time>2013-04-21T11:08:23Z</time>
      </trkpt>
      <trkpt lat="60.0252964" lon="17.5693657">
        <ele>36.6675</ele>
        <time>2013-04-21T11:08:24Z</time>
      </trkpt>
      <trkpt lat="60.025255" lon="17.5692814">
        <ele>36.1868</ele>
        <time>2013-04-21T11:08:25Z</time>
      </trkpt>
      <trkpt lat="60.0252173" lon="17.5692">
        <ele>36.1868</ele>
        <time>2013-04-21T11:08:26Z</time>
      </trkpt>
      <trkpt lat="60.0251825" lon="17.5691234">
        <ele>36.1868</ele>
        <time>2013-04-21T11:08:27Z</time>
      </trkpt>
      <trkpt lat="60.0251466" lon="17.5690441">
        <ele>36.1868</ele>
        <time>2013-04-21T11:08:28Z</time>
      </trkpt>
      <trkpt lat="60.0251125" lon="17.5689613">
        <ele>35.7061</ele>
        <time>2013-04-21T11:08:29Z</time>
      </trkpt>
      <trkpt lat="60.0250799" lon="17.5688724">
        <ele>35.2255</ele>
        <time>2013-04-21T11:08:30Z</time>
      </trkpt>
      <trkpt lat="60.0250508" lon="17.56877">
        <ele>34.7449</ele>
        <time>2013-04-21T11:08:31Z</time>
      </trkpt>
      <trkpt lat="60.0250225" lon="17.5686634">
        <ele>34.7449</ele>
        <time>2013-04-21T11:08:32Z</time>
      </trkpt>
      <trkpt lat="60.0249925" lon="17.5685623">
        <ele>34.2642</ele>
        <time>2013-04-21T11:08:33Z</time>
      </trkpt>
      <trkpt lat="60.0249654" lon="17.5684566">
        <ele>34.2642</ele>
        <time>2013-04-21T11:08:34Z</time>
      </trkpt>
      <trkpt lat="60.0249395" lon="17.5683478">
        <ele>33.7834</ele>
        <time>2013-04-21T11:08:35Z</time>
      </trkpt>
      <trkpt lat="60.0249172" lon="17.5682321">
        <ele>33.7834</ele>
        <time>2013-04-21T11:08:36Z</time>
      </trkpt>
      <trkpt lat="60.0248996" lon="17.5681236">
        <ele>33.7834</ele>
        <time>2013-04-21T11:08:37Z</time>
      </trkpt>
      <trkpt lat="60.024881" lon="17.5680231">
        <ele>33.7834</ele>
        <time>2013-04-21T11:08:38Z</time>
      </trkpt>
      <trkpt lat="60.0248554" lon="17.5679276">
        <ele>32.3416</ele>
        <time>2013-04-21T11:08:39Z</time>
      </trkpt>
      <trkpt lat="60.0248267" lon="17.5678413">
        <ele>31.3801</ele>
        <time>2013-04-21T11:08:40Z</time>
      </trkpt>
      <trkpt lat="60.0248064" lon="17.5677588">
        <ele>30.8995</ele>
        <time>2013-04-21T11:08:41Z</time>
      </trkpt>
      <trkpt lat="60.0247882" lon="17.5676822">
        <ele>31.3801</ele>
        <time>2013-04-21T11:08:42Z</time>
      </trkpt>
      <trkpt lat="60.0247753" lon="17.5675982">
        <ele>31.8607</ele>
        <time>2013-04-21T11:08:43Z</time>
      </trkpt>
      <trkpt lat="60.0247601" lon="17.5675103">
        <ele>30.4188</ele>
        <time>2013-04-21T11:08:44Z</time>
      </trkpt>
      <trkpt lat="60.0247476" lon="17.5674356">
        <ele>29.4575</ele>
        <time>2013-04-21T11:08:45Z</time>
      </trkpt>
      <trkpt lat="60.0247349" lon="17.5673473">
        <ele>29.9381</ele>
        <time>2013-04-21T11:08:46Z</time>
      </trkpt>
      <trkpt lat="60.0247286" lon="17.5672688">
        <ele>29.4575</ele>
        <time>2013-04-21T11:08:47Z</time>
      </trkpt>
      <trkpt lat="60.0247096" lon="17.5671921">
        <ele>28.0155</ele>
        <time>2013-04-21T11:08:48Z</time>
      </trkpt>
      <trkpt lat="60.0246903" lon="17.5671102">
        <ele>27.5349</ele>
        <time>2013-04-21T11:08:49Z</time>
      </trkpt>
      <trkpt lat="60.024664" lon="17.5670294">
        <ele>26.5736</ele>
        <time>2013-04-21T11:08:50Z</time>
      </trkpt>
      <trkpt lat="60.024635" lon="17.5669425">
        <ele>25.6123</ele>
        <time>2013-04-21T11:08:51Z</time>
      </trkpt>
      <trkpt lat="60.0246055" lon="17.5668523">
        <ele>25.1317</ele>
        <time>2013-04-21T11:08:52Z</time>
      </trkpt>
      <trkpt lat="60.0245734" lon="17.5667613">
        <ele>24.651</ele>
        <time>2013-04-21T11:08:53Z</time>
      </trkpt>
      <trkpt lat="60.0245387" lon="17.5666684">
        <ele>24.651</ele>
        <time>2013-04-21T11:08:54Z</time>
      </trkpt>
      <trkpt lat="60.0244982" lon="17.5665726">
        <ele>24.651</ele>
        <time>2013-04-21T11:08:55Z</time>
      </trkpt>
      <trkpt lat="60.0244546" lon="17.5664793">
        <ele>25.1317</ele>
        <time>2013-04-21T11:08:56Z</time>
      </trkpt>
      <trkpt lat="60.0243938" lon="17.5663156">
        <ele>28.0155</ele>
        <time>2013-04-21T11:08:57Z</time>
      </trkpt>
      <trkpt lat="60.0243392" lon="17.5661852">
        <ele>29.4575</ele>
        <time>2013-04-21T11:08:58Z</time>
      </trkpt>
      <trkpt lat="60.0242783" lon="17.5660691">
        <ele>31.8607</ele>
        <time>2013-04-21T11:08:59Z</time>
      </trkpt>
      <trkpt lat="60.0242275" lon="17.5659772">
        <ele>32.3416</ele>
        <time>2013-04-21T11:09:00Z</time>
      </trkpt>
      <trkpt lat="60.0241862" lon="17.5658867">
        <ele>32.8223</ele>
        <time>2013-04-21T11:09:01Z</time>
      </trkpt>
      <trkpt lat="60.0241475" lon="17.5658078">
        <ele>33.3029</ele>
        <time>2013-04-21T11:09:02Z</time>
      </trkpt>
      <trkpt lat="60.0241043" lon="17.5657261">
        <ele>32.8223</ele>
        <time>2013-04-21T11:09:03Z</time>
      </trkpt>
      <trkpt lat="60.0240659" lon="17.5656454">
        <ele>32.8223</ele>
        <time>2013-04-21T11:09:04Z</time>
      </trkpt>
      <trkpt lat="60.0240293" lon="17.56557">
        <ele>31.8607</ele>
        <time>2013-04-21T11:09:05Z</time>
      </trkpt>
      <trkpt lat="60.0239899" lon="17.5654935">
        <ele>31.3801</ele>
        <time>2013-04-21T11:09:06Z</time>
      </trkpt>
      <trkpt lat="60.023946" lon="17.5654093">
        <ele>31.8607</ele>
        <time>2013-04-21T11:09:07Z</time>
      </trkpt>
      <trkpt lat="60.0239045" lon="17.5653278">
        <ele>30.4188</ele>
        <time>2013-04-21T11:09:08Z</time>
      </trkpt>
      <trkpt lat="60.0238706" lon="17.565218">
        <ele>30.4188</ele>
        <time>2013-04-21T11:09:09Z</time>
      </trkpt>
      <trkpt lat="60.0238388" lon="17.5650893">
        <ele>30.4188</ele>
        <time>2013-04-21T11:09:10Z</time>
      </trkpt>
      <trkpt lat="60.0238123" lon="17.5649626">
        <ele>29.9381</ele>
        <time>2013-04-21T11:09:11Z</time>
      </trkpt>
      <trkpt lat="60.0237916" lon="17.564828">
        <ele>29.4575</ele>
        <time>2013-04-21T11:09:12Z</time>
      </trkpt>
      <trkpt lat="60.0237792" lon="17.5646884">
        <ele>29.9381</ele>
        <time>2013-04-21T11:09:13Z</time>
      </trkpt>
      <trkpt lat="60.0237718" lon="17.564545">
        <ele>29.4575</ele>
        <time>2013-04-21T11:09:14Z</time>
      </trkpt>
      <trkpt lat="60.0237704" lon="17.5644146">
        <ele>28.4962</ele>
        <time>2013-04-21T11:09:15Z</time>
      </trkpt>
      <trkpt lat="60.0237704" lon="17.5642768">
        <ele>27.5349</ele>
        <time>2013-04-21T11:09:16Z</time>
      </trkpt>
      <trkpt lat="60.0237672" lon="17.5641311">
        <ele>27.0543</ele>
        <time>2013-04-21T11:09:17Z</time>
      </trkpt>
      <trkpt lat="60.0237641" lon="17.5639839">
        <ele>26.5736</ele>
        <time>2013-04-21T11:09:18Z</time>
      </trkpt>
      <trkpt lat="60.0237625" lon="17.5638383">
        <ele>27.0543</ele>
        <time>2013-04-21T11:09:19Z</time>
      </trkpt>
      <trkpt lat="60.0237635" lon="17.5636985">
        <ele>27.5349</ele>
        <time>2013-04-21T11:09:20Z</time>
      </trkpt>
      <trkpt lat="60.0237667" lon="17.5635617">
        <ele>28.0155</ele>
        <time>2013-04-21T11:09:21Z</time>
      </trkpt>
      <trkpt lat="60.0237703" lon="17.5634237">
        <ele>28.9769</ele>
        <time>2013-04-21T11:09:22Z</time>
      </trkpt>
      <trkpt lat="60.0237667" lon="17.5632553">
        <ele>30.4188</ele>
        <time>2013-04-21T11:09:23Z</time>
      </trkpt>
      <trkpt lat="60.0237686" lon="17.5631067">
        <ele>31.8607</ele>
        <time>2013-04-21T11:09:24Z</time>
      </trkpt>
      <trkpt lat="60.0237712" lon="17.5629636">
        <ele>32.8223</ele>
        <time>2013-04-21T11:09:25Z</time>
      </trkpt>
      <trkpt lat="60.0237766" lon="17.5628289">
        <ele>33.3029</ele>
        <time>2013-04-21T11:09:26Z</time>
      </trkpt>
      <trkpt lat="60.0237849" lon="17.5626983">
        <ele>33.7834</ele>
        <time>2013-04-21T11:09:27Z</time>
      </trkpt>
      <trkpt lat="60.0237931" lon="17.5625694">
        <ele>34.2642</ele>
        <time>2013-04-21T11:09:28Z</time>
      </trkpt>
      <trkpt lat="60.0238018" lon="17.562443">
        <ele>34.7449</ele>
        <time>2013-04-21T11:09:29Z</time>
      </trkpt>
      <trkpt lat="60.0238092" lon="17.562318">
        <ele>35.2255</ele>
        <time>2013-04-21T11:09:30Z</time>
      </trkpt>
      <trkpt lat="60.0238194" lon="17.5621924">
        <ele>35.7061</ele>
        <time>2013-04-21T11:09:31Z</time>
      </trkpt>
      <trkpt lat="60.0238272" lon="17.5620701">
        <ele>35.7061</ele>
        <time>2013-04-21T11:09:32Z</time>
      </trkpt>
      <trkpt lat="60.0238316" lon="17.5619487">
        <ele>36.1868</ele>
        <time>2013-04-21T11:09:33Z</time>
      </trkpt>
      <trkpt lat="60.0238367" lon="17.5618219">
        <ele>36.1868</ele>
        <time>2013-04-21T11:09:34Z</time>
      </trkpt>
      <trkpt lat="60.0238434" lon="17.5616904">
        <ele>36.1868</ele>
        <time>2013-04-21T11:09:35Z</time>
      </trkpt>
      <trkpt lat="60.0238531" lon="17.5615588">
        <ele>35.7061</ele>
        <time>2013-04-21T11:09:36Z</time>
      </trkpt>
      <trkpt lat="60.0238642" lon="17.5614227">
        <ele>35.7061</ele>
        <time>2013-04-21T11:09:37Z</time>
      </trkpt>
      <trkpt lat="60.0238784" lon="17.5612874">
        <ele>36.1868</ele>
        <time>2013-04-21T11:09:38Z</time>
      </trkpt>
      <trkpt lat="60.023896" lon="17.5611536">
        <ele>36.1868</ele>
        <time>2013-04-21T11:09:39Z</time>
      </trkpt>
      <trkpt lat="60.0239138" lon="17.5610198">
        <ele>36.1868</ele>
        <time>2013-04-21T11:09:40Z</time>
      </trkpt>
      <trkpt lat="60.023931" lon="17.5608847">
        <ele>36.6675</ele>
        <time>2013-04-21T11:09:41Z</time>
      </trkpt>
      <trkpt lat="60.0239476" lon="17.5607533">
        <ele>36.1868</ele>
        <time>2013-04-21T11:09:42Z</time>
      </trkpt>
      <trkpt lat="60.0239693" lon="17.5606241">
        <ele>36.1868</ele>
        <time>2013-04-21T11:09:43Z</time>
      </trkpt>
      <trkpt lat="60.0239945" lon="17.5604925">
        <ele>36.1868</ele>
        <time>2013-04-21T11:09:44Z</time>
      </trkpt>
      <trkpt lat="60.0240207" lon="17.5603597">
        <ele>35.7061</ele>
        <time>2013-04-21T11:09:45Z</time>
      </trkpt>
      <trkpt lat="60.0240517" lon="17.5602346">
        <ele>35.7061</ele>
        <time>2013-04-21T11:09:46Z</time>
      </trkpt>
      <trkpt lat="60.0240873" lon="17.560112">
        <ele>35.7061</ele>
        <time>2013-04-21T11:09:47Z</time>
      </trkpt>
      <trkpt lat="60.0241267" lon="17.5599891">
        <ele>35.7061</ele>
        <time>2013-04-21T11:09:48Z</time>
      </trkpt>
      <trkpt lat="60.024169" lon="17.5598676">
        <ele>36.1868</ele>
        <time>2013-04-21T11:09:49Z</time>
      </trkpt>
      <trkpt lat="60.0242121" lon="17.5597483">
        <ele>36.6675</ele>
        <time>2013-04-21T11:09:50Z</time>
      </trkpt>
      <trkpt lat="60.0242569" lon="17.559629">
        <ele>36.1868</ele>
        <time>2013-04-21T11:09:51Z</time>
      </trkpt>
      <trkpt lat="60.0243032" lon="17.559511">
        <ele>36.1868</ele>
        <time>2013-04-21T11:09:52Z</time>
      </trkpt>
      <trkpt lat="60.0243503" lon="17.5593935">
        <ele>36.1868</ele>
        <time>2013-04-21T11:09:53Z</time>
      </trkpt>
      <trkpt lat="60.0243977" lon="17.5592778">
        <ele>35.7061</ele>
        <time>2013-04-21T11:09:54Z</time>
      </trkpt>
      <trkpt lat="60.0244454" lon="17.5591671">
        <ele>35.7061</ele>
        <time>2013-04-21T11:09:55Z</time>
      </trkpt>
      <trkpt lat="60.0244933" lon="17.5590542">
        <ele>36.1868</ele>
        <time>2013-04-21T11:09:56Z</time>
      </trkpt>
      <trkpt lat="60.024542" lon="17.5589435">
        <ele>36.1868</ele>
        <time>2013-04-21T11:09:57Z</time>
      </trkpt>
      <trkpt lat="60.0245922" lon="17.5588373">
        <ele>36.1868</ele>
        <time>2013-04-21T11:09:58Z</time>
      </trkpt>
      <trkpt lat="60.0246438" lon="17.5587323">
        <ele>36.1868</ele>
        <time>2013-04-21T11:09:59Z</time>
      </trkpt>
      <trkpt lat="60.0246965" lon="17.5586267">
        <ele>36.1868</ele>
        <time>2013-04-21T11:10:00Z</time>
      </trkpt>
      <trkpt lat="60.0247507" lon="17.5585264">
        <ele>36.1868</ele>
        <time>2013-04-21T11:10:01Z</time>
      </trkpt>
      <trkpt lat="60.0248063" lon="17.5584296">
        <ele>36.1868</ele>
        <time>2013-04-21T11:10:02Z</time>
      </trkpt>
      <trkpt lat="60.0248629" lon="17.5583331">
        <ele>36.6675</ele>
        <time>2013-04-21T11:10:03Z</time>
      </trkpt>
      <trkpt lat="60.024921" lon="17.5582381">
        <ele>36.6675</ele>
        <time>2013-04-21T11:10:04Z</time>
      </trkpt>
      <trkpt lat="60.0249808" lon="17.5581434">
        <ele>37.1481</ele>
        <time>2013-04-21T11:10:05Z</time>
      </trkpt>
      <trkpt lat="60.0250419" lon="17.5580534">
        <ele>37.6287</ele>
        <time>2013-04-21T11:10:06Z</time>
      </trkpt>
      <trkpt lat="60.0251033" lon="17.5579652">
        <ele>38.1094</ele>
        <time>2013-04-21T11:10:07Z</time>
      </trkpt>
      <trkpt lat="60.0251653" lon="17.5578757">
        <ele>39.0707</ele>
        <time>2013-04-21T11:10:08Z</time>
      </trkpt>
      <trkpt lat="60.0252268" lon="17.5577854">
        <ele>39.5513</ele>
        <time>2013-04-21T11:10:09Z</time>
      </trkpt>
      <trkpt lat="60.0252882" lon="17.5576955">
        <ele>40.0321</ele>
        <time>2013-04-21T11:10:10Z</time>
      </trkpt>
      <trkpt lat="60.0253499" lon="17.5576041">
        <ele>40.0321</ele>
        <time>2013-04-21T11:10:11Z</time>
      </trkpt>
      <trkpt lat="60.0254136" lon="17.5575174">
        <ele>40.9934</ele>
        <time>2013-04-21T11:10:12Z</time>
      </trkpt>
      <trkpt lat="60.0254786" lon="17.5574327">
        <ele>41.474</ele>
        <time>2013-04-21T11:10:13Z</time>
      </trkpt>
      <trkpt lat="60.0255441" lon="17.557349">
        <ele>41.9547</ele>
        <time>2013-04-21T11:10:14Z</time>
      </trkpt>
      <trkpt lat="60.0256084" lon="17.5572635">
        <ele>42.4354</ele>
        <time>2013-04-21T11:10:15Z</time>
      </trkpt>
      <trkpt lat="60.0256721" lon="17.5571819">
        <ele>42.4354</ele>
        <time>2013-04-21T11:10:16Z</time>
      </trkpt>
      <trkpt lat="60.0257353" lon="17.5570981">
        <ele>42.4354</ele>
        <time>2013-04-21T11:10:17Z</time>
      </trkpt>
      <trkpt lat="60.0257979" lon="17.5570126">
        <ele>42.916</ele>
        <time>2013-04-21T11:10:18Z</time>
      </trkpt>
      <trkpt lat="60.0258595" lon="17.5569257">
        <ele>43.3966</ele>
        <time>2013-04-21T11:10:19Z</time>
      </trkpt>
      <trkpt lat="60.0259175" lon="17.5568345">
        <ele>43.3966</ele>
        <time>2013-04-21T11:10:20Z</time>
      </trkpt>
      <trkpt lat="60.0259707" lon="17.5567366">
        <ele>43.8773</ele>
        <time>2013-04-21T11:10:21Z</time>
      </trkpt>
      <trkpt lat="60.026021" lon="17.556639">
        <ele>43.8773</ele>
        <time>2013-04-21T11:10:22Z</time>
      </trkpt>
      <trkpt lat="60.0260689" lon="17.5565382">
        <ele>44.358</ele>
        <time>2013-04-21T11:10:23Z</time>
      </trkpt>
      <trkpt lat="60.0261113" lon="17.5564313">
        <ele>44.358</ele>
        <time>2013-04-21T11:10:24Z</time>
      </trkpt>
      <trkpt lat="60.0261492" lon="17.5563196">
        <ele>44.358</ele>
        <time>2013-04-21T11:10:25Z</time>
      </trkpt>
      <trkpt lat="60.0261827" lon="17.5562058">
        <ele>44.358</ele>
        <time>2013-04-21T11:10:26Z</time>
      </trkpt>
      <trkpt lat="60.0262428" lon="17.5559865">
        <ele>43.3966</ele>
        <time>2013-04-21T11:10:27Z</time>
      </trkpt>
      <trkpt lat="60.0262702" lon="17.5558783">
        <ele>43.8773</ele>
        <time>2013-04-21T11:10:28Z</time>
      </trkpt>
      <trkpt lat="60.0262901" lon="17.5557699">
        <ele>43.3966</ele>
        <time>2013-04-21T11:10:29Z</time>
      </trkpt>
      <trkpt lat="60.0263085" lon="17.5556613">
        <ele>42.916</ele>
        <time>2013-04-21T11:10:30Z</time>
      </trkpt>
      <trkpt lat="60.0263236" lon="17.5555505">
        <ele>42.4354</ele>
        <time>2013-04-21T11:10:31Z</time>
      </trkpt>
      <trkpt lat="60.026334" lon="17.5554353">
        <ele>42.4354</ele>
        <time>2013-04-21T11:10:32Z</time>
      </trkpt>
      <trkpt lat="60.0263397" lon="17.5553188">
        <ele>41.9547</ele>
        <time>2013-04-21T11:10:33Z</time>
      </trkpt>
      <trkpt lat="60.0263438" lon="17.5551948">
        <ele>41.474</ele>
        <time>2013-04-21T11:10:34Z</time>
      </trkpt>
      <trkpt lat="60.0263473" lon="17.5550654">
        <ele>41.474</ele>
        <time>2013-04-21T11:10:35Z</time>
      </trkpt>
      <trkpt lat="60.0263498" lon="17.5549422">
        <ele>41.474</ele>
        <time>2013-04-21T11:10:36Z</time>
      </trkpt>
      <trkpt lat="60.0263525" lon="17.5548231">
        <ele>41.474</ele>
        <time>2013-04-21T11:10:37Z</time>
      </trkpt>
      <trkpt lat="60.0263533" lon="17.5547051">
        <ele>40.9934</ele>
        <time>2013-04-21T11:10:38Z</time>
      </trkpt>
      <trkpt lat="60.0263514" lon="17.5545895">
        <ele>40.9934</ele>
        <time>2013-04-21T11:10:39Z</time>
      </trkpt>
      <trkpt lat="60.02635" lon="17.554475">
        <ele>40.0321</ele>
        <time>2013-04-21T11:10:40Z</time>
      </trkpt>
      <trkpt lat="60.0263506" lon="17.5543657">
        <ele>40.0321</ele>
        <time>2013-04-21T11:10:41Z</time>
      </trkpt>
      <trkpt lat="60.0263474" lon="17.5542645">
        <ele>39.0707</ele>
        <time>2013-04-21T11:10:42Z</time>
      </trkpt>
      <trkpt lat="60.0263421" lon="17.5541612">
        <ele>39.0707</ele>
        <time>2013-04-21T11:10:43Z</time>
      </trkpt>
      <trkpt lat="60.0263349" lon="17.5540545">
        <ele>38.5901</ele>
        <time>2013-04-21T11:10:44Z</time>
      </trkpt>
      <trkpt lat="60.0263252" lon="17.5539428">
        <ele>37.6287</ele>
        <time>2013-04-21T11:10:45Z</time>
      </trkpt>
      <trkpt lat="60.0263144" lon="17.5538257">
        <ele>36.6675</ele>
        <time>2013-04-21T11:10:46Z</time>
      </trkpt>
      <trkpt lat="60.0263056" lon="17.5537196">
        <ele>35.7061</ele>
        <time>2013-04-21T11:10:47Z</time>
      </trkpt>
      <trkpt lat="60.0263003" lon="17.5536187">
        <ele>35.2255</ele>
        <time>2013-04-21T11:10:48Z</time>
      </trkpt>
      <trkpt lat="60.0262973" lon="17.5535229">
        <ele>33.7834</ele>
        <time>2013-04-21T11:10:49Z</time>
      </trkpt>
      <trkpt lat="60.0262967" lon="17.5534286">
        <ele>33.7834</ele>
        <time>2013-04-21T11:10:50Z</time>
      </trkpt>
      <trkpt lat="60.0262945" lon="17.5533367">
        <ele>33.7834</ele>
        <time>2013-04-21T11:10:51Z</time>
      </trkpt>
      <trkpt lat="60.0262885" lon="17.5532432">
        <ele>33.7834</ele>
        <time>2013-04-21T11:10:52Z</time>
      </trkpt>
      <trkpt lat="60.0262818" lon="17.5531467">
        <ele>33.3029</ele>
        <time>2013-04-21T11:10:53Z</time>
      </trkpt>
      <trkpt lat="60.0262755" lon="17.5530292">
        <ele>32.8223</ele>
        <time>2013-04-21T11:10:54Z</time>
      </trkpt>
      <trkpt lat="60.0262704" lon="17.5529216">
        <ele>32.8223</ele>
        <time>2013-04-21T11:10:55Z</time>
      </trkpt>
      <trkpt lat="60.0262625" lon="17.5528112">
        <ele>32.3416</ele>
        <time>2013-04-21T11:10:56Z</time>
      </trkpt>
      <trkpt lat="60.0262542" lon="17.5527019">
        <ele>32.3416</ele>
        <time>2013-04-21T11:10:57Z</time>
      </trkpt>
      <trkpt lat="60.026248" lon="17.5525894">
        <ele>31.8607</ele>
        <time>2013-04-21T11:10:58Z</time>
      </trkpt>
      <trkpt lat="60.026245" lon="17.5524776">
        <ele>31.8607</ele>
        <time>2013-04-21T11:10:59Z</time>
      </trkpt>
      <trkpt lat="60.0262458" lon="17.5523626">
        <ele>31.8607</ele>
        <time>2013-04-21T11:11:00Z</time>
      </trkpt>
      <trkpt lat="60.0262473" lon="17.552248">
        <ele>32.3416</ele>
        <time>2013-04-21T11:11:01Z</time>
      </trkpt>
      <trkpt lat="60.0262431" lon="17.5521363">
        <ele>31.8607</ele>
        <time>2013-04-21T11:11:02Z</time>
      </trkpt>
      <trkpt lat="60.0262258" lon="17.5520273">
        <ele>31.3801</ele>
        <time>2013-04-21T11:11:03Z</time>
      </trkpt>
      <trkpt lat="60.0261962" lon="17.5519207">
        <ele>31.8607</ele>
        <time>2013-04-21T11:11:04Z</time>
      </trkpt>
      <trkpt lat="60.0261567" lon="17.551814">
        <ele>32.3416</ele>
        <time>2013-04-21T11:11:05Z</time>
      </trkpt>
      <trkpt lat="60.0261123" lon="17.5517238">
        <ele>32.8223</ele>
        <time>2013-04-21T11:11:06Z</time>
      </trkpt>
      <trkpt lat="60.0260656" lon="17.5516435">
        <ele>33.3029</ele>
        <time>2013-04-21T11:11:07Z</time>
      </trkpt>
      <trkpt lat="60.0260154" lon="17.5515683">
        <ele>33.3029</ele>
        <time>2013-04-21T11:11:08Z</time>
      </trkpt>
      <trkpt lat="60.0259635" lon="17.5514949">
        <ele>32.8223</ele>
        <time>2013-04-21T11:11:09Z</time>
      </trkpt>
      <trkpt lat="60.0259113" lon="17.551425">
        <ele>32.8223</ele>
        <time>2013-04-21T11:11:10Z</time>
      </trkpt>
      <trkpt lat="60.0258586" lon="17.5513571">
        <ele>32.8223</ele>
        <time>2013-04-21T11:11:11Z</time>
      </trkpt>
      <trkpt lat="60.0258071" lon="17.5512782">
        <ele>31.8607</ele>
        <time>2013-04-21T11:11:12Z</time>
      </trkpt>
      <trkpt lat="60.0257601" lon="17.5511883">
        <ele>31.3801</ele>
        <time>2013-04-21T11:11:13Z</time>
      </trkpt>
      <trkpt lat="60.025716" lon="17.5510941">
        <ele>30.8995</ele>
        <time>2013-04-21T11:11:14Z</time>
      </trkpt>
      <trkpt lat="60.0256741" lon="17.5509958">
        <ele>30.4188</ele>
        <time>2013-04-21T11:11:15Z</time>
      </trkpt>
      <trkpt lat="60.0256352" lon="17.5508917">
        <ele>29.9381</ele>
        <time>2013-04-21T11:11:16Z</time>
      </trkpt>
      <trkpt lat="60.0255978" lon="17.5507857">
        <ele>29.9381</ele>
        <time>2013-04-21T11:11:17Z</time>
      </trkpt>
      <trkpt lat="60.0255643" lon="17.5506757">
        <ele>30.4188</ele>
        <time>2013-04-21T11:11:18Z</time>
      </trkpt>
      <trkpt lat="60.0255352" lon="17.5505623">
        <ele>30.4188</ele>
        <time>2013-04-21T11:11:19Z</time>
      </trkpt>
      <trkpt lat="60.0255072" lon="17.5504491">
        <ele>30.4188</ele>
        <time>2013-04-21T11:11:20Z</time>
      </trkpt>
      <trkpt lat="60.0254802" lon="17.5503376">
        <ele>30.4188</ele>
        <time>2013-04-21T11:11:21Z</time>
      </trkpt>
      <trkpt lat="60.0254548" lon="17.5502248">
        <ele>30.4188</ele>
        <time>2013-04-21T11:11:22Z</time>
      </trkpt>
      <trkpt lat="60.0254301" lon="17.5501087">
        <ele>30.4188</ele>
        <time>2013-04-21T11:11:23Z</time>
      </trkpt>
      <trkpt lat="60.0254047" lon="17.549992">
        <ele>30.4188</ele>
        <time>2013-04-21T11:11:24Z</time>
      </trkpt>
      <trkpt lat="60.0253783" lon="17.5498777">
        <ele>30.4188</ele>
        <time>2013-04-21T11:11:25Z</time>
      </trkpt>
      <trkpt lat="60.0253528" lon="17.5497689">
        <ele>29.9381</ele>
        <time>2013-04-21T11:11:26Z</time>
      </trkpt>
      <trkpt lat="60.0253271" lon="17.5496554">
        <ele>29.9381</ele>
        <time>2013-04-21T11:11:27Z</time>
      </trkpt>
      <trkpt lat="60.025301" lon="17.5495368">
        <ele>30.4188</ele>
        <time>2013-04-21T11:11:28Z</time>
      </trkpt>
      <trkpt lat="60.0252751" lon="17.5494198">
        <ele>30.4188</ele>
        <time>2013-04-21T11:11:29Z</time>
      </trkpt>
      <trkpt lat="60.0252487" lon="17.5493045">
        <ele>30.4188</ele>
        <time>2013-04-21T11:11:30Z</time>
      </trkpt>
      <trkpt lat="60.0252219" lon="17.5491897">
        <ele>30.8995</ele>
        <time>2013-04-21T11:11:31Z</time>
      </trkpt>
      <trkpt lat="60.0251949" lon="17.5490737">
        <ele>30.8995</ele>
        <time>2013-04-21T11:11:32Z</time>
      </trkpt>
      <trkpt lat="60.0251654" lon="17.5489556">
        <ele>31.3801</ele>
        <time>2013-04-21T11:11:33Z</time>
      </trkpt>
      <trkpt lat="60.0251363" lon="17.5488375">
        <ele>31.3801</ele>
        <time>2013-04-21T11:11:34Z</time>
      </trkpt>
      <trkpt lat="60.0251094" lon="17.5487204">
        <ele>31.8607</ele>
        <time>2013-04-21T11:11:35Z</time>
      </trkpt>
      <trkpt lat="60.0250844" lon="17.5486064">
        <ele>31.8607</ele>
        <time>2013-04-21T11:11:36Z</time>
      </trkpt>
      <trkpt lat="60.0250592" lon="17.5484903">
        <ele>31.8607</ele>
        <time>2013-04-21T11:11:37Z</time>
      </trkpt>
      <trkpt lat="60.0250343" lon="17.5483729">
        <ele>31.8607</ele>
        <time>2013-04-21T11:11:38Z</time>
      </trkpt>
      <trkpt lat="60.0250092" lon="17.5482542">
        <ele>31.3801</ele>
        <time>2013-04-21T11:11:39Z</time>
      </trkpt>
      <trkpt lat="60.0249835" lon="17.5481388">
        <ele>31.3801</ele>
        <time>2013-04-21T11:11:40Z</time>
      </trkpt>
      <trkpt lat="60.0249576" lon="17.5480204">
        <ele>31.3801</ele>
        <time>2013-04-21T11:11:41Z</time>
      </trkpt>
      <trkpt lat="60.0249297" lon="17.5478928">
        <ele>31.3801</ele>
        <time>2013-04-21T11:11:42Z</time>
      </trkpt>
      <trkpt lat="60.0249005" lon="17.5477651">
        <ele>31.3801</ele>
        <time>2013-04-21T11:11:43Z</time>
      </trkpt>
      <trkpt lat="60.0248701" lon="17.5476367">
        <ele>31.8607</ele>
        <time>2013-04-21T11:11:44Z</time>
      </trkpt>
      <trkpt lat="60.024838" lon="17.5475087">
        <ele>31.8607</ele>
        <time>2013-04-21T11:11:45Z</time>
      </trkpt>
      <trkpt lat="60.0248037" lon="17.5473808">
        <ele>31.8607</ele>
        <time>2013-04-21T11:11:46Z</time>
      </trkpt>
      <trkpt lat="60.0247674" lon="17.5472532">
        <ele>31.8607</ele>
        <time>2013-04-21T11:11:47Z</time>
      </trkpt>
      <trkpt lat="60.0247305" lon="17.5471261">
        <ele>31.8607</ele>
        <time>2013-04-21T11:11:48Z</time>
      </trkpt>
      <trkpt lat="60.024694" lon="17.547001">
        <ele>31.8607</ele>
        <time>2013-04-21T11:11:49Z</time>
      </trkpt>
      <trkpt lat="60.0246575" lon="17.5468773">
        <ele>32.3416</ele>
        <time>2013-04-21T11:11:50Z</time>
      </trkpt>
      <trkpt lat="60.0246209" lon="17.5467545">
        <ele>32.3416</ele>
        <time>2013-04-21T11:11:51Z</time>
      </trkpt>
      <trkpt lat="60.0245842" lon="17.5466265">
        <ele>32.8223</ele>
        <time>2013-04-21T11:11:52Z</time>
      </trkpt>
      <trkpt lat="60.0245489" lon="17.5465002">
        <ele>33.3029</ele>
        <time>2013-04-21T11:11:53Z</time>
      </trkpt>
      <trkpt lat="60.0245125" lon="17.5463752">
        <ele>33.7834</ele>
        <time>2013-04-21T11:11:54Z</time>
      </trkpt>
      <trkpt lat="60.0244747" lon="17.546252">
        <ele>34.2642</ele>
        <time>2013-04-21T11:11:55Z</time>
      </trkpt>
      <trkpt lat="60.0244356" lon="17.5461248">
        <ele>34.7449</ele>
        <time>2013-04-21T11:11:56Z</time>
      </trkpt>
      <trkpt lat="60.0243973" lon="17.5460024">
        <ele>34.7449</ele>
        <time>2013-04-21T11:11:57Z</time>
      </trkpt>
      <trkpt lat="60.0243599" lon="17.5458807">
        <ele>34.7449</ele>
        <time>2013-04-21T11:11:58Z</time>
      </trkpt>
      <trkpt lat="60.0243226" lon="17.5457588">
        <ele>35.2255</ele>
        <time>2013-04-21T11:11:59Z</time>
      </trkpt>
      <trkpt lat="60.0242843" lon="17.5456363">
        <ele>35.2255</ele>
        <time>2013-04-21T11:12:00Z</time>
      </trkpt>
      <trkpt lat="60.0242454" lon="17.5455151">
        <ele>35.7061</ele>
        <time>2013-04-21T11:12:01Z</time>
      </trkpt>
      <trkpt lat="60.0242059" lon="17.5453934">
        <ele>35.7061</ele>
        <time>2013-04-21T11:12:02Z</time>
      </trkpt>
      <trkpt lat="60.0241673" lon="17.5452699">
        <ele>35.7061</ele>
        <time>2013-04-21T11:12:03Z</time>
      </trkpt>
      <trkpt lat="60.0241299" lon="17.5451451">
        <ele>35.7061</ele>
        <time>2013-04-21T11:12:04Z</time>
      </trkpt>
      <trkpt lat="60.0240926" lon="17.5450203">
        <ele>35.7061</ele>
        <time>2013-04-21T11:12:05Z</time>
      </trkpt>
      <trkpt lat="60.0240547" lon="17.5448937">
        <ele>35.7061</ele>
        <time>2013-04-21T11:12:06Z</time>
      </trkpt>
      <trkpt lat="60.0240173" lon="17.5447679">
        <ele>35.7061</ele>
        <time>2013-04-21T11:12:07Z</time>
      </trkpt>
      <trkpt lat="60.0239794" lon="17.5446433">
        <ele>35.7061</ele>
        <time>2013-04-21T11:12:08Z</time>
      </trkpt>
      <trkpt lat="60.0239435" lon="17.5445183">
        <ele>35.7061</ele>
        <time>2013-04-21T11:12:09Z</time>
      </trkpt>
      <trkpt lat="60.0239093" lon="17.5443938">
        <ele>35.7061</ele>
        <time>2013-04-21T11:12:10Z</time>
      </trkpt>
      <trkpt lat="60.0238763" lon="17.5442698">
        <ele>35.2255</ele>
        <time>2013-04-21T11:12:11Z</time>
      </trkpt>
      <trkpt lat="60.0238432" lon="17.5441469">
        <ele>35.7061</ele>
        <time>2013-04-21T11:12:12Z</time>
      </trkpt>
      <trkpt lat="60.0238081" lon="17.5440263">
        <ele>35.7061</ele>
        <time>2013-04-21T11:12:13Z</time>
      </trkpt>
      <trkpt lat="60.0237725" lon="17.543908">
        <ele>35.7061</ele>
        <time>2013-04-21T11:12:14Z</time>
      </trkpt>
      <trkpt lat="60.0237371" lon="17.5437922">
        <ele>35.7061</ele>
        <time>2013-04-21T11:12:15Z</time>
      </trkpt>
      <trkpt lat="60.0237008" lon="17.5436786">
        <ele>35.7061</ele>
        <time>2013-04-21T11:12:16Z</time>
      </trkpt>
      <trkpt lat="60.0236652" lon="17.5435655">
        <ele>35.7061</ele>
        <time>2013-04-21T11:12:17Z</time>
      </trkpt>
      <trkpt lat="60.0236319" lon="17.54345">
        <ele>35.7061</ele>
        <time>2013-04-21T11:12:18Z</time>
      </trkpt>
      <trkpt lat="60.0236014" lon="17.5433306">
        <ele>35.2255</ele>
        <time>2013-04-21T11:12:19Z</time>
      </trkpt>
      <trkpt lat="60.0235746" lon="17.5432067">
        <ele>35.2255</ele>
        <time>2013-04-21T11:12:20Z</time>
      </trkpt>
      <trkpt lat="60.0235526" lon="17.5430762">
        <ele>35.7061</ele>
        <time>2013-04-21T11:12:21Z</time>
      </trkpt>
      <trkpt lat="60.0235371" lon="17.5429337">
        <ele>35.7061</ele>
        <time>2013-04-21T11:12:22Z</time>
      </trkpt>
      <trkpt lat="60.0235305" lon="17.5427809">
        <ele>35.7061</ele>
        <time>2013-04-21T11:12:23Z</time>
      </trkpt>
      <trkpt lat="60.0235358" lon="17.5426225">
        <ele>35.7061</ele>
        <time>2013-04-21T11:12:24Z</time>
      </trkpt>
      <trkpt lat="60.0235502" lon="17.5424603">
        <ele>35.2255</ele>
        <time>2013-04-21T11:12:25Z</time>
      </trkpt>
      <trkpt lat="60.0235677" lon="17.5423012">
        <ele>35.2255</ele>
        <time>2013-04-21T11:12:26Z</time>
      </trkpt>
      <trkpt lat="60.0235834" lon="17.5421376">
        <ele>35.2255</ele>
        <time>2013-04-21T11:12:27Z</time>
      </trkpt>
      <trkpt lat="60.0235953" lon="17.5419713">
        <ele>35.2255</ele>
        <time>2013-04-21T11:12:28Z</time>
      </trkpt>
      <trkpt lat="60.0236004" lon="17.5418095">
        <ele>34.7449</ele>
        <time>2013-04-21T11:12:29Z</time>
      </trkpt>
      <trkpt lat="60.0236008" lon="17.5416522">
        <ele>34.2642</ele>
        <time>2013-04-21T11:12:30Z</time>
      </trkpt>
      <trkpt lat="60.0235946" lon="17.5414956">
        <ele>33.7834</ele>
        <time>2013-04-21T11:12:31Z</time>
      </trkpt>
      <trkpt lat="60.0235813" lon="17.541337">
        <ele>33.3029</ele>
        <time>2013-04-21T11:12:32Z</time>
      </trkpt>
      <trkpt lat="60.0235683" lon="17.5411891">
        <ele>32.8223</ele>
        <time>2013-04-21T11:12:33Z</time>
      </trkpt>
      <trkpt lat="60.0235572" lon="17.5410507">
        <ele>32.8223</ele>
        <time>2013-04-21T11:12:34Z</time>
      </trkpt>
      <trkpt lat="60.0235485" lon="17.5409224">
        <ele>32.8223</ele>
        <time>2013-04-21T11:12:35Z</time>
      </trkpt>
      <trkpt lat="60.0235439" lon="17.5407934">
        <ele>33.3029</ele>
        <time>2013-04-21T11:12:36Z</time>
      </trkpt>
      <trkpt lat="60.0235458" lon="17.5406633">
        <ele>32.8223</ele>
        <time>2013-04-21T11:12:37Z</time>
      </trkpt>
      <trkpt lat="60.0235586" lon="17.5405347">
        <ele>33.3029</ele>
        <time>2013-04-21T11:12:38Z</time>
      </trkpt>
      <trkpt lat="60.023571" lon="17.5404193">
        <ele>32.3416</ele>
        <time>2013-04-21T11:12:39Z</time>
      </trkpt>
      <trkpt lat="60.0235864" lon="17.5402987">
        <ele>31.8607</ele>
        <time>2013-04-21T11:12:40Z</time>
      </trkpt>
      <trkpt lat="60.0236138" lon="17.5401803">
        <ele>31.3801</ele>
        <time>2013-04-21T11:12:41Z</time>
      </trkpt>
      <trkpt lat="60.0236435" lon="17.5400793">
        <ele>30.4188</ele>
        <time>2013-04-21T11:12:42Z</time>
      </trkpt>
      <trkpt lat="60.0236802" lon="17.5399789">
        <ele>29.9381</ele>
        <time>2013-04-21T11:12:43Z</time>
      </trkpt>
      <trkpt lat="60.0237212" lon="17.539907">
        <ele>29.9381</ele>
        <time>2013-04-21T11:12:44Z</time>
      </trkpt>
      <trkpt lat="60.0237608" lon="17.5398481">
        <ele>28.9769</ele>
        <time>2013-04-21T11:12:45Z</time>
      </trkpt>
      <trkpt lat="60.0237998" lon="17.5397869">
        <ele>28.4962</ele>
        <time>2013-04-21T11:12:46Z</time>
      </trkpt>
      <trkpt lat="60.0238356" lon="17.5397273">
        <ele>28.4962</ele>
        <time>2013-04-21T11:12:47Z</time>
      </trkpt>
      <trkpt lat="60.0238666" lon="17.5396573">
        <ele>28.0155</ele>
        <time>2013-04-21T11:12:48Z</time>
      </trkpt>
      <trkpt lat="60.0238937" lon="17.5395869">
        <ele>27.5349</ele>
        <time>2013-04-21T11:12:49Z</time>
      </trkpt>
      <trkpt lat="60.0239145" lon="17.5395096">
        <ele>27.0543</ele>
        <time>2013-04-21T11:12:50Z</time>
      </trkpt>
      <trkpt lat="60.0239352" lon="17.5394232">
        <ele>27.0543</ele>
        <time>2013-04-21T11:12:51Z</time>
      </trkpt>
      <trkpt lat="60.0239485" lon="17.5393346">
        <ele>27.5349</ele>
        <time>2013-04-21T11:12:52Z</time>
      </trkpt>
      <trkpt lat="60.0239517" lon="17.5392398">
        <ele>28.0155</ele>
        <time>2013-04-21T11:12:53Z</time>
      </trkpt>
      <trkpt lat="60.0239458" lon="17.5391399">
        <ele>28.4962</ele>
        <time>2013-04-21T11:12:54Z</time>
      </trkpt>
      <trkpt lat="60.0239341" lon="17.5390329">
        <ele>28.4962</ele>
        <time>2013-04-21T11:12:55Z</time>
      </trkpt>
      <trkpt lat="60.0239216" lon="17.5389337">
        <ele>28.9769</ele>
        <time>2013-04-21T11:12:56Z</time>
      </trkpt>
      <trkpt lat="60.0239055" lon="17.5388224">
        <ele>29.9381</ele>
        <time>2013-04-21T11:12:57Z</time>
      </trkpt>
      <trkpt lat="60.0238912" lon="17.538718">
        <ele>30.4188</ele>
        <time>2013-04-21T11:12:58Z</time>
      </trkpt>
      <trkpt lat="60.0238755" lon="17.5386005">
        <ele>30.8995</ele>
        <time>2013-04-21T11:12:59Z</time>
      </trkpt>
      <trkpt lat="60.0238592" lon="17.5384862">
        <ele>31.3801</ele>
        <time>2013-04-21T11:13:00Z</time>
      </trkpt>
      <trkpt lat="60.0238434" lon="17.5383721">
        <ele>31.8607</ele>
        <time>2013-04-21T11:13:01Z</time>
      </trkpt>
      <trkpt lat="60.0238268" lon="17.5382571">
        <ele>31.8607</ele>
        <time>2013-04-21T11:13:02Z</time>
      </trkpt>
      <trkpt lat="60.0238134" lon="17.5381416">
        <ele>32.8223</ele>
        <time>2013-04-21T11:13:03Z</time>
      </trkpt>
      <trkpt lat="60.0237958" lon="17.5380292">
        <ele>32.3416</ele>
        <time>2013-04-21T11:13:04Z</time>
      </trkpt>
      <trkpt lat="60.0237782" lon="17.537918">
        <ele>32.3416</ele>
        <time>2013-04-21T11:13:05Z</time>
      </trkpt>
      <trkpt lat="60.023759" lon="17.5378049">
        <ele>32.3416</ele>
        <time>2013-04-21T11:13:06Z</time>
      </trkpt>
      <trkpt lat="60.0237437" lon="17.537695">
        <ele>32.3416</ele>
        <time>2013-04-21T11:13:07Z</time>
      </trkpt>
      <trkpt lat="60.0237305" lon="17.5375893">
        <ele>31.8607</ele>
        <time>2013-04-21T11:13:08Z</time>
      </trkpt>
      <trkpt lat="60.0237206" lon="17.5374844">
        <ele>32.3416</ele>
        <time>2013-04-21T11:13:09Z</time>
      </trkpt>
      <trkpt lat="60.0237101" lon="17.5373859">
        <ele>32.8223</ele>
        <time>2013-04-21T11:13:10Z</time>
      </trkpt>
      <trkpt lat="60.0236984" lon="17.537289">
        <ele>32.8223</ele>
        <time>2013-04-21T11:13:11Z</time>
      </trkpt>
      <trkpt lat="60.0236842" lon="17.5371948">
        <ele>33.3029</ele>
        <time>2013-04-21T11:13:12Z</time>
      </trkpt>
      <trkpt lat="60.023662" lon="17.5371004">
        <ele>32.8223</ele>
        <time>2013-04-21T11:13:13Z</time>
      </trkpt>
      <trkpt lat="60.0236308" lon="17.5370201">
        <ele>32.8223</ele>
        <time>2013-04-21T11:13:14Z</time>
      </trkpt>
      <trkpt lat="60.0235891" lon="17.5369647">
        <ele>32.3416</ele>
        <time>2013-04-21T11:13:15Z</time>
      </trkpt>
      <trkpt lat="60.0235388" lon="17.5369293">
        <ele>32.3416</ele>
        <time>2013-04-21T11:13:16Z</time>
      </trkpt>
      <trkpt lat="60.0234855" lon="17.5369077">
        <ele>31.8607</ele>
        <time>2013-04-21T11:13:17Z</time>
      </trkpt>
      <trkpt lat="60.02343" lon="17.5368941">
        <ele>31.8607</ele>
        <time>2013-04-21T11:13:18Z</time>
      </trkpt>
      <trkpt lat="60.0233721" lon="17.5368923">
        <ele>31.8607</ele>
        <time>2013-04-21T11:13:19Z</time>
      </trkpt>
      <trkpt lat="60.0233113" lon="17.5368895">
        <ele>31.8607</ele>
        <time>2013-04-21T11:13:20Z</time>
      </trkpt>
      <trkpt lat="60.0232477" lon="17.5368844">
        <ele>31.3801</ele>
        <time>2013-04-21T11:13:21Z</time>
      </trkpt>
      <trkpt lat="60.0231827" lon="17.5368772">
        <ele>30.8995</ele>
        <time>2013-04-21T11:13:22Z</time>
      </trkpt>
      <trkpt lat="60.0231167" lon="17.5368689">
        <ele>30.8995</ele>
        <time>2013-04-21T11:13:23Z</time>
      </trkpt>
      <trkpt lat="60.0230502" lon="17.5368622">
        <ele>30.4188</ele>
        <time>2013-04-21T11:13:24Z</time>
      </trkpt>
      <trkpt lat="60.022983" lon="17.5368507">
        <ele>29.9381</ele>
        <time>2013-04-21T11:13:25Z</time>
      </trkpt>
      <trkpt lat="60.0229161" lon="17.5368319">
        <ele>29.9381</ele>
        <time>2013-04-21T11:13:26Z</time>
      </trkpt>
      <trkpt lat="60.0228491" lon="17.5368108">
        <ele>29.9381</ele>
        <time>2013-04-21T11:13:27Z</time>
      </trkpt>
      <trkpt lat="60.0227825" lon="17.5367851">
        <ele>29.9381</ele>
        <time>2013-04-21T11:13:28Z</time>
      </trkpt>
      <trkpt lat="60.0227163" lon="17.5367538">
        <ele>29.9381</ele>
        <time>2013-04-21T11:13:29Z</time>
      </trkpt>
      <trkpt lat="60.0226504" lon="17.536718">
        <ele>29.9381</ele>
        <time>2013-04-21T11:13:30Z</time>
      </trkpt>
      <trkpt lat="60.022585" lon="17.5366803">
        <ele>29.9381</ele>
        <time>2013-04-21T11:13:31Z</time>
      </trkpt>
      <trkpt lat="60.0225194" lon="17.536639">
        <ele>30.4188</ele>
        <time>2013-04-21T11:13:32Z</time>
      </trkpt>
      <trkpt lat="60.0224556" lon="17.5365931">
        <ele>30.4188</ele>
        <time>2013-04-21T11:13:33Z</time>
      </trkpt>
      <trkpt lat="60.022393" lon="17.5365446">
        <ele>30.4188</ele>
        <time>2013-04-21T11:13:34Z</time>
      </trkpt>
      <trkpt lat="60.0223314" lon="17.5364943">
        <ele>30.8995</ele>
        <time>2013-04-21T11:13:35Z</time>
      </trkpt>
      <trkpt lat="60.022271" lon="17.5364421">
        <ele>30.8995</ele>
        <time>2013-04-21T11:13:36Z</time>
      </trkpt>
      <trkpt lat="60.0222123" lon="17.5363879">
        <ele>30.8995</ele>
        <time>2013-04-21T11:13:37Z</time>
      </trkpt>
      <trkpt lat="60.0221558" lon="17.5363317">
        <ele>31.3801</ele>
        <time>2013-04-21T11:13:38Z</time>
      </trkpt>
      <trkpt lat="60.0221007" lon="17.5362757">
        <ele>31.3801</ele>
        <time>2013-04-21T11:13:39Z</time>
      </trkpt>
      <trkpt lat="60.0220463" lon="17.5362181">
        <ele>31.8607</ele>
        <time>2013-04-21T11:13:40Z</time>
      </trkpt>
      <trkpt lat="60.0219923" lon="17.5361586">
        <ele>31.8607</ele>
        <time>2013-04-21T11:13:41Z</time>
      </trkpt>
      <trkpt lat="60.0219379" lon="17.5360999">
        <ele>31.8607</ele>
        <time>2013-04-21T11:13:42Z</time>
      </trkpt>
      <trkpt lat="60.0218844" lon="17.5360409">
        <ele>32.3416</ele>
        <time>2013-04-21T11:13:43Z</time>
      </trkpt>
      <trkpt lat="60.0218316" lon="17.5359823">
        <ele>32.3416</ele>
        <time>2013-04-21T11:13:44Z</time>
      </trkpt>
      <trkpt lat="60.0217796" lon="17.5359251">
        <ele>32.8223</ele>
        <time>2013-04-21T11:13:45Z</time>
      </trkpt>
      <trkpt lat="60.0217279" lon="17.5358687">
        <ele>32.8223</ele>
        <time>2013-04-21T11:13:46Z</time>
      </trkpt>
      <trkpt lat="60.0216769" lon="17.5358116">
        <ele>33.3029</ele>
        <time>2013-04-21T11:13:47Z</time>
      </trkpt>
      <trkpt lat="60.0216253" lon="17.5357549">
        <ele>33.3029</ele>
        <time>2013-04-21T11:13:48Z</time>
      </trkpt>
      <trkpt lat="60.0215736" lon="17.5356951">
        <ele>33.7834</ele>
        <time>2013-04-21T11:13:49Z</time>
      </trkpt>
      <trkpt lat="60.0215206" lon="17.5356345">
        <ele>33.7834</ele>
        <time>2013-04-21T11:13:50Z</time>
      </trkpt>
      <trkpt lat="60.0214662" lon="17.5355758">
        <ele>33.7834</ele>
        <time>2013-04-21T11:13:51Z</time>
      </trkpt>
      <trkpt lat="60.0214103" lon="17.5355013">
        <ele>34.2642</ele>
        <time>2013-04-21T11:13:52Z</time>
      </trkpt>
      <trkpt lat="60.0213571" lon="17.5354335">
        <ele>33.7834</ele>
        <time>2013-04-21T11:13:53Z</time>
      </trkpt>
      <trkpt lat="60.0213051" lon="17.5353672">
        <ele>34.2642</ele>
        <time>2013-04-21T11:13:54Z</time>
      </trkpt>
      <trkpt lat="60.0212513" lon="17.5353076">
        <ele>34.2642</ele>
        <time>2013-04-21T11:13:55Z</time>
      </trkpt>
      <trkpt lat="60.0211975" lon="17.5352506">
        <ele>34.2642</ele>
        <time>2013-04-21T11:13:56Z</time>
      </trkpt>
      <trkpt lat="60.0211433" lon="17.5351956">
        <ele>34.2642</ele>
        <time>2013-04-21T11:13:57Z</time>
      </trkpt>
      <trkpt lat="60.0210903" lon="17.5351397">
        <ele>33.7834</ele>
        <time>2013-04-21T11:13:58Z</time>
      </trkpt>
      <trkpt lat="60.0210369" lon="17.5350831">
        <ele>33.7834</ele>
        <time>2013-04-21T11:13:59Z</time>
      </trkpt>
      <trkpt lat="60.0209828" lon="17.5350277">
        <ele>33.7834</ele>
        <time>2013-04-21T11:14:00Z</time>
      </trkpt>
      <trkpt lat="60.0209281" lon="17.5349727">
        <ele>33.7834</ele>
        <time>2013-04-21T11:14:01Z</time>
      </trkpt>
      <trkpt lat="60.0208735" lon="17.5349179">
        <ele>33.7834</ele>
        <time>2013-04-21T11:14:02Z</time>
      </trkpt>
      <trkpt lat="60.0208182" lon="17.5348638">
        <ele>33.7834</ele>
        <time>2013-04-21T11:14:03Z</time>
      </trkpt>
      <trkpt lat="60.0207617" lon="17.5348127">
        <ele>33.7834</ele>
        <time>2013-04-21T11:14:04Z</time>
      </trkpt>
      <trkpt lat="60.0207036" lon="17.5347655">
        <ele>33.7834</ele>
        <time>2013-04-21T11:14:05Z</time>
      </trkpt>
      <trkpt lat="60.0206457" lon="17.5347211">
        <ele>33.7834</ele>
        <time>2013-04-21T11:14:06Z</time>
      </trkpt>
      <trkpt lat="60.0205876" lon="17.5346818">
        <ele>33.7834</ele>
        <time>2013-04-21T11:14:07Z</time>
      </trkpt>
      <trkpt lat="60.0205316" lon="17.5346438">
        <ele>33.7834</ele>
        <time>2013-04-21T11:14:08Z</time>
      </trkpt>
      <trkpt lat="60.0204758" lon="17.5346068">
        <ele>33.7834</ele>
        <time>2013-04-21T11:14:09Z</time>
      </trkpt>
      <trkpt lat="60.0204203" lon="17.5345736">
        <ele>33.7834</ele>
        <time>2013-04-21T11:14:10Z</time>
      </trkpt>
      <trkpt lat="60.0203643" lon="17.5345436">
        <ele>33.7834</ele>
        <time>2013-04-21T11:14:11Z</time>
      </trkpt>
      <trkpt lat="60.0203065" lon="17.5345175">
        <ele>33.7834</ele>
        <time>2013-04-21T11:14:12Z</time>
      </trkpt>
      <trkpt lat="60.0202473" lon="17.5344921">
        <ele>33.3029</ele>
        <time>2013-04-21T11:14:13Z</time>
      </trkpt>
      <trkpt lat="60.0201878" lon="17.5344623">
        <ele>33.7834</ele>
        <time>2013-04-21T11:14:14Z</time>
      </trkpt>
      <trkpt lat="60.0201276" lon="17.5344364">
        <ele>33.7834</ele>
        <time>2013-04-21T11:14:15Z</time>
      </trkpt>
      <trkpt lat="60.0200662" lon="17.5344146">
        <ele>33.7834</ele>
        <time>2013-04-21T11:14:16Z</time>
      </trkpt>
      <trkpt lat="60.0200051" lon="17.5343963">
        <ele>33.7834</ele>
        <time>2013-04-21T11:14:17Z</time>
      </trkpt>
      <trkpt lat="60.0199447" lon="17.5343796">
        <ele>33.7834</ele>
        <time>2013-04-21T11:14:18Z</time>
      </trkpt>
      <trkpt lat="60.0198842" lon="17.5343649">
        <ele>33.7834</ele>
        <time>2013-04-21T11:14:19Z</time>
      </trkpt>
      <trkpt lat="60.0198236" lon="17.5343537">
        <ele>33.7834</ele>
        <time>2013-04-21T11:14:20Z</time>
      </trkpt>
      <trkpt lat="60.0197635" lon="17.5343458">
        <ele>33.7834</ele>
        <time>2013-04-21T11:14:21Z</time>
      </trkpt>
      <trkpt lat="60.0197045" lon="17.5343374">
        <ele>33.7834</ele>
        <time>2013-04-21T11:14:22Z</time>
      </trkpt>
      <trkpt lat="60.0196458" lon="17.5343338">
        <ele>33.7834</ele>
        <time>2013-04-21T11:14:23Z</time>
      </trkpt>
      <trkpt lat="60.0195869" lon="17.5343346">
        <ele>34.2642</ele>
        <time>2013-04-21T11:14:24Z</time>
      </trkpt>
      <trkpt lat="60.0195284" lon="17.5343374">
        <ele>34.2642</ele>
        <time>2013-04-21T11:14:25Z</time>
      </trkpt>
      <trkpt lat="60.0194698" lon="17.5343426">
        <ele>34.2642</ele>
        <time>2013-04-21T11:14:26Z</time>
      </trkpt>
      <trkpt lat="60.0194112" lon="17.5343477">
        <ele>34.2642</ele>
        <time>2013-04-21T11:14:27Z</time>
      </trkpt>
      <trkpt lat="60.0193531" lon="17.5343513">
        <ele>34.2642</ele>
        <time>2013-04-21T11:14:28Z</time>
      </trkpt>
      <trkpt lat="60.0192949" lon="17.5343572">
        <ele>34.2642</ele>
        <time>2013-04-21T11:14:29Z</time>
      </trkpt>
      <trkpt lat="60.0192357" lon="17.5343647">
        <ele>34.2642</ele>
        <time>2013-04-21T11:14:30Z</time>
      </trkpt>
      <trkpt lat="60.019176" lon="17.5343711">
        <ele>34.2642</ele>
        <time>2013-04-21T11:14:31Z</time>
      </trkpt>
      <trkpt lat="60.0191167" lon="17.5343786">
        <ele>34.2642</ele>
        <time>2013-04-21T11:14:32Z</time>
      </trkpt>
      <trkpt lat="60.0190576" lon="17.5343877">
        <ele>34.2642</ele>
        <time>2013-04-21T11:14:33Z</time>
      </trkpt>
      <trkpt lat="60.0189979" lon="17.5343974">
        <ele>34.2642</ele>
        <time>2013-04-21T11:14:34Z</time>
      </trkpt>
      <trkpt lat="60.0189378" lon="17.534406">
        <ele>33.7834</ele>
        <time>2013-04-21T11:14:35Z</time>
      </trkpt>
      <trkpt lat="60.0188775" lon="17.5344145">
        <ele>33.7834</ele>
        <time>2013-04-21T11:14:36Z</time>
      </trkpt>
      <trkpt lat="60.0188166" lon="17.5344235">
        <ele>33.7834</ele>
        <time>2013-04-21T11:14:37Z</time>
      </trkpt>
      <trkpt lat="60.0187555" lon="17.5344332">
        <ele>33.7834</ele>
        <time>2013-04-21T11:14:38Z</time>
      </trkpt>
      <trkpt lat="60.0186948" lon="17.5344436">
        <ele>33.7834</ele>
        <time>2013-04-21T11:14:39Z</time>
      </trkpt>
      <trkpt lat="60.0186343" lon="17.5344533">
        <ele>33.7834</ele>
        <time>2013-04-21T11:14:40Z</time>
      </trkpt>
      <trkpt lat="60.018574" lon="17.534462">
        <ele>33.3029</ele>
        <time>2013-04-21T11:14:41Z</time>
      </trkpt>
      <trkpt lat="60.0185141" lon="17.5344708">
        <ele>33.3029</ele>
        <time>2013-04-21T11:14:42Z</time>
      </trkpt>
      <trkpt lat="60.0184551" lon="17.5344804">
        <ele>33.3029</ele>
        <time>2013-04-21T11:14:43Z</time>
      </trkpt>
      <trkpt lat="60.0183963" lon="17.534492">
        <ele>33.3029</ele>
        <time>2013-04-21T11:14:44Z</time>
      </trkpt>
      <trkpt lat="60.0183381" lon="17.5345027">
        <ele>33.3029</ele>
        <time>2013-04-21T11:14:45Z</time>
      </trkpt>
      <trkpt lat="60.0182804" lon="17.5345114">
        <ele>33.3029</ele>
        <time>2013-04-21T11:14:46Z</time>
      </trkpt>
      <trkpt lat="60.0182221" lon="17.5345183">
        <ele>33.3029</ele>
        <time>2013-04-21T11:14:47Z</time>
      </trkpt>
      <trkpt lat="60.0181639" lon="17.534526">
        <ele>33.3029</ele>
        <time>2013-04-21T11:14:48Z</time>
      </trkpt>
      <trkpt lat="60.0181047" lon="17.5345379">
        <ele>33.3029</ele>
        <time>2013-04-21T11:14:49Z</time>
      </trkpt>
      <trkpt lat="60.0180468" lon="17.5345456">
        <ele>33.3029</ele>
        <time>2013-04-21T11:14:50Z</time>
      </trkpt>
      <trkpt lat="60.0179873" lon="17.5345564">
        <ele>33.7834</ele>
        <time>2013-04-21T11:14:51Z</time>
      </trkpt>
      <trkpt lat="60.0179286" lon="17.5345643">
        <ele>33.7834</ele>
        <time>2013-04-21T11:14:52Z</time>
      </trkpt>
      <trkpt lat="60.0178698" lon="17.5345689">
        <ele>34.7449</ele>
        <time>2013-04-21T11:14:53Z</time>
      </trkpt>
      <trkpt lat="60.0178128" lon="17.5345729">
        <ele>35.2255</ele>
        <time>2013-04-21T11:14:54Z</time>
      </trkpt>
      <trkpt lat="60.0177582" lon="17.5345752">
        <ele>35.7061</ele>
        <time>2013-04-21T11:14:55Z</time>
      </trkpt>
      <trkpt lat="60.0177061" lon="17.5345751">
        <ele>35.2255</ele>
        <time>2013-04-21T11:14:56Z</time>
      </trkpt>
      <trkpt lat="60.0176527" lon="17.5345773">
        <ele>35.2255</ele>
        <time>2013-04-21T11:14:57Z</time>
      </trkpt>
      <trkpt lat="60.0175983" lon="17.5345797">
        <ele>34.7449</ele>
        <time>2013-04-21T11:14:58Z</time>
      </trkpt>
      <trkpt lat="60.0175434" lon="17.5345787">
        <ele>34.7449</ele>
        <time>2013-04-21T11:14:59Z</time>
      </trkpt>
      <trkpt lat="60.0174886" lon="17.5345755">
        <ele>34.7449</ele>
        <time>2013-04-21T11:15:00Z</time>
      </trkpt>
      <trkpt lat="60.0174346" lon="17.5345705">
        <ele>34.2642</ele>
        <time>2013-04-21T11:15:01Z</time>
      </trkpt>
      <trkpt lat="60.0173803" lon="17.5345652">
        <ele>34.2642</ele>
        <time>2013-04-21T11:15:02Z</time>
      </trkpt>
      <trkpt lat="60.0173253" lon="17.5345596">
        <ele>34.2642</ele>
        <time>2013-04-21T11:15:03Z</time>
      </trkpt>
      <trkpt lat="60.0172722" lon="17.5345467">
        <ele>34.2642</ele>
        <time>2013-04-21T11:15:04Z</time>
      </trkpt>
      <trkpt lat="60.017219" lon="17.5345341">
        <ele>33.7834</ele>
        <time>2013-04-21T11:15:05Z</time>
      </trkpt>
      <trkpt lat="60.0171662" lon="17.5345217">
        <ele>33.7834</ele>
        <time>2013-04-21T11:15:06Z</time>
      </trkpt>
      <trkpt lat="60.0171127" lon="17.5345118">
        <ele>33.7834</ele>
        <time>2013-04-21T11:15:07Z</time>
      </trkpt>
      <trkpt lat="60.0170574" lon="17.5345031">
        <ele>33.7834</ele>
        <time>2013-04-21T11:15:08Z</time>
      </trkpt>
      <trkpt lat="60.0170046" lon="17.5344889">
        <ele>33.7834</ele>
        <time>2013-04-21T11:15:09Z</time>
      </trkpt>
      <trkpt lat="60.0169523" lon="17.5344718">
        <ele>33.7834</ele>
        <time>2013-04-21T11:15:10Z</time>
      </trkpt>
      <trkpt lat="60.0168998" lon="17.5344529">
        <ele>33.7834</ele>
        <time>2013-04-21T11:15:11Z</time>
      </trkpt>
      <trkpt lat="60.0168464" lon="17.5344363">
        <ele>34.2642</ele>
        <time>2013-04-21T11:15:12Z</time>
      </trkpt>
      <trkpt lat="60.0167931" lon="17.5344205">
        <ele>34.2642</ele>
        <time>2013-04-21T11:15:13Z</time>
      </trkpt>
      <trkpt lat="60.0167402" lon="17.5344021">
        <ele>34.7449</ele>
        <time>2013-04-21T11:15:14Z</time>
      </trkpt>
      <trkpt lat="60.0166848" lon="17.534385">
        <ele>34.7449</ele>
        <time>2013-04-21T11:15:15Z</time>
      </trkpt>
      <trkpt lat="60.0166295" lon="17.5343658">
        <ele>34.7449</ele>
        <time>2013-04-21T11:15:16Z</time>
      </trkpt>
      <trkpt lat="60.0165766" lon="17.5343401">
        <ele>34.7449</ele>
        <time>2013-04-21T11:15:17Z</time>
      </trkpt>
      <trkpt lat="60.0165238" lon="17.5343144">
        <ele>34.7449</ele>
        <time>2013-04-21T11:15:18Z</time>
      </trkpt>
      <trkpt lat="60.0164696" lon="17.5342911">
        <ele>34.7449</ele>
        <time>2013-04-21T11:15:19Z</time>
      </trkpt>
      <trkpt lat="60.0164129" lon="17.5342735">
        <ele>34.7449</ele>
        <time>2013-04-21T11:15:20Z</time>
      </trkpt>
      <trkpt lat="60.0163571" lon="17.5342522">
        <ele>34.2642</ele>
        <time>2013-04-21T11:15:21Z</time>
      </trkpt>
      <trkpt lat="60.0163006" lon="17.5342327">
        <ele>34.2642</ele>
        <time>2013-04-21T11:15:22Z</time>
      </trkpt>
      <trkpt lat="60.0162441" lon="17.534212">
        <ele>34.2642</ele>
        <time>2013-04-21T11:15:23Z</time>
      </trkpt>
      <trkpt lat="60.0161902" lon="17.5341874">
        <ele>34.2642</ele>
        <time>2013-04-21T11:15:24Z</time>
      </trkpt>
      <trkpt lat="60.016137" lon="17.534165">
        <ele>34.2642</ele>
        <time>2013-04-21T11:15:25Z</time>
      </trkpt>
      <trkpt lat="60.0160831" lon="17.5341457">
        <ele>34.2642</ele>
        <time>2013-04-21T11:15:26Z</time>
      </trkpt>
      <trkpt lat="60.0160281" lon="17.5341291">
        <ele>34.2642</ele>
        <time>2013-04-21T11:15:27Z</time>
      </trkpt>
      <trkpt lat="60.0159736" lon="17.5341094">
        <ele>34.2642</ele>
        <time>2013-04-21T11:15:28Z</time>
      </trkpt>
      <trkpt lat="60.0159189" lon="17.5340882">
        <ele>34.2642</ele>
        <time>2013-04-21T11:15:29Z</time>
      </trkpt>
      <trkpt lat="60.0158639" lon="17.5340676">
        <ele>34.2642</ele>
        <time>2013-04-21T11:15:30Z</time>
      </trkpt>
      <trkpt lat="60.015809" lon="17.5340457">
        <ele>34.2642</ele>
        <time>2013-04-21T11:15:31Z</time>
      </trkpt>
      <trkpt lat="60.0157543" lon="17.5340236">
        <ele>33.7834</ele>
        <time>2013-04-21T11:15:32Z</time>
      </trkpt>
      <trkpt lat="60.0156998" lon="17.5340017">
        <ele>33.7834</ele>
        <time>2013-04-21T11:15:33Z</time>
      </trkpt>
      <trkpt lat="60.0156457" lon="17.5339788">
        <ele>33.7834</ele>
        <time>2013-04-21T11:15:34Z</time>
      </trkpt>
      <trkpt lat="60.0155916" lon="17.5339561">
        <ele>33.7834</ele>
        <time>2013-04-21T11:15:35Z</time>
      </trkpt>
      <trkpt lat="60.0155371" lon="17.5339359">
        <ele>33.7834</ele>
        <time>2013-04-21T11:15:36Z</time>
      </trkpt>
      <trkpt lat="60.0154821" lon="17.5339145">
        <ele>33.7834</ele>
        <time>2013-04-21T11:15:37Z</time>
      </trkpt>
      <trkpt lat="60.0154272" lon="17.5338922">
        <ele>33.7834</ele>
        <time>2013-04-21T11:15:38Z</time>
      </trkpt>
      <trkpt lat="60.015372" lon="17.5338709">
        <ele>33.7834</ele>
        <time>2013-04-21T11:15:39Z</time>
      </trkpt>
      <trkpt lat="60.0153165" lon="17.5338499">
        <ele>33.7834</ele>
        <time>2013-04-21T11:15:40Z</time>
      </trkpt>
      <trkpt lat="60.0152613" lon="17.5338283">
        <ele>33.7834</ele>
        <time>2013-04-21T11:15:41Z</time>
      </trkpt>
      <trkpt lat="60.0152059" lon="17.5338062">
        <ele>33.7834</ele>
        <time>2013-04-21T11:15:42Z</time>
      </trkpt>
      <trkpt lat="60.0151496" lon="17.533784">
        <ele>33.7834</ele>
        <time>2013-04-21T11:15:43Z</time>
      </trkpt>
      <trkpt lat="60.0150928" lon="17.5337614">
        <ele>33.7834</ele>
        <time>2013-04-21T11:15:44Z</time>
      </trkpt>
      <trkpt lat="60.0150355" lon="17.5337406">
        <ele>33.7834</ele>
        <time>2013-04-21T11:15:45Z</time>
      </trkpt>
      <trkpt lat="60.0149778" lon="17.5337207">
        <ele>33.7834</ele>
        <time>2013-04-21T11:15:46Z</time>
      </trkpt>
      <trkpt lat="60.0149201" lon="17.5336991">
        <ele>33.7834</ele>
        <time>2013-04-21T11:15:47Z</time>
      </trkpt>
      <trkpt lat="60.0148625" lon="17.5336774">
        <ele>33.7834</ele>
        <time>2013-04-21T11:15:48Z</time>
      </trkpt>
      <trkpt lat="60.0148053" lon="17.5336558">
        <ele>33.7834</ele>
        <time>2013-04-21T11:15:49Z</time>
      </trkpt>
      <trkpt lat="60.0147488" lon="17.5336343">
        <ele>33.7834</ele>
        <time>2013-04-21T11:15:50Z</time>
      </trkpt>
      <trkpt lat="60.0146933" lon="17.5336109">
        <ele>33.7834</ele>
        <time>2013-04-21T11:15:51Z</time>
      </trkpt>
      <trkpt lat="60.0146378" lon="17.5335897">
        <ele>33.7834</ele>
        <time>2013-04-21T11:15:52Z</time>
      </trkpt>
      <trkpt lat="60.0145828" lon="17.5335691">
        <ele>33.7834</ele>
        <time>2013-04-21T11:15:53Z</time>
      </trkpt>
      <trkpt lat="60.0145285" lon="17.5335463">
        <ele>33.7834</ele>
        <time>2013-04-21T11:15:54Z</time>
      </trkpt>
      <trkpt lat="60.0144732" lon="17.5335252">
        <ele>33.7834</ele>
        <time>2013-04-21T11:15:55Z</time>
      </trkpt>
      <trkpt lat="60.0144176" lon="17.533503">
        <ele>33.7834</ele>
        <time>2013-04-21T11:15:56Z</time>
      </trkpt>
      <trkpt lat="60.0143622" lon="17.5334817">
        <ele>33.7834</ele>
        <time>2013-04-21T11:15:57Z</time>
      </trkpt>
      <trkpt lat="60.0143068" lon="17.5334617">
        <ele>33.7834</ele>
        <time>2013-04-21T11:15:58Z</time>
      </trkpt>
      <trkpt lat="60.0142518" lon="17.5334428">
        <ele>33.7834</ele>
        <time>2013-04-21T11:15:59Z</time>
      </trkpt>
      <trkpt lat="60.0141968" lon="17.533424">
        <ele>33.7834</ele>
        <time>2013-04-21T11:16:00Z</time>
      </trkpt>
      <trkpt lat="60.0141419" lon="17.533406">
        <ele>33.7834</ele>
        <time>2013-04-21T11:16:01Z</time>
      </trkpt>
      <trkpt lat="60.0140872" lon="17.5333857">
        <ele>33.3029</ele>
        <time>2013-04-21T11:16:02Z</time>
      </trkpt>
      <trkpt lat="60.0140326" lon="17.5333671">
        <ele>32.8223</ele>
        <time>2013-04-21T11:16:03Z</time>
      </trkpt>
      <trkpt lat="60.0139782" lon="17.5333501">
        <ele>32.3416</ele>
        <time>2013-04-21T11:16:04Z</time>
      </trkpt>
      <trkpt lat="60.013924" lon="17.5333324">
        <ele>32.3416</ele>
        <time>2013-04-21T11:16:05Z</time>
      </trkpt>
      <trkpt lat="60.0138702" lon="17.5333137">
        <ele>32.3416</ele>
        <time>2013-04-21T11:16:06Z</time>
      </trkpt>
      <trkpt lat="60.0138182" lon="17.5332937">
        <ele>32.3416</ele>
        <time>2013-04-21T11:16:07Z</time>
      </trkpt>
      <trkpt lat="60.0137658" lon="17.5332733">
        <ele>32.8223</ele>
        <time>2013-04-21T11:16:08Z</time>
      </trkpt>
      <trkpt lat="60.0137114" lon="17.5332536">
        <ele>32.8223</ele>
        <time>2013-04-21T11:16:09Z</time>
      </trkpt>
      <trkpt lat="60.0136572" lon="17.5332324">
        <ele>32.8223</ele>
        <time>2013-04-21T11:16:10Z</time>
      </trkpt>
      <trkpt lat="60.0136038" lon="17.5332097">
        <ele>32.8223</ele>
        <time>2013-04-21T11:16:11Z</time>
      </trkpt>
      <trkpt lat="60.01355" lon="17.5331868">
        <ele>32.8223</ele>
        <time>2013-04-21T11:16:12Z</time>
      </trkpt>
      <trkpt lat="60.0134959" lon="17.5331647">
        <ele>32.8223</ele>
        <time>2013-04-21T11:16:13Z</time>
      </trkpt>
      <trkpt lat="60.0134431" lon="17.5331423">
        <ele>33.3029</ele>
        <time>2013-04-21T11:16:14Z</time>
      </trkpt>
      <trkpt lat="60.0133905" lon="17.5331195">
        <ele>33.7834</ele>
        <time>2013-04-21T11:16:15Z</time>
      </trkpt>
      <trkpt lat="60.0133379" lon="17.5330963">
        <ele>33.7834</ele>
        <time>2013-04-21T11:16:16Z</time>
      </trkpt>
      <trkpt lat="60.0132836" lon="17.5330734">
        <ele>33.7834</ele>
        <time>2013-04-21T11:16:17Z</time>
      </trkpt>
      <trkpt lat="60.0132294" lon="17.5330502">
        <ele>33.7834</ele>
        <time>2013-04-21T11:16:18Z</time>
      </trkpt>
      <trkpt lat="60.013176" lon="17.5330248">
        <ele>33.7834</ele>
        <time>2013-04-21T11:16:19Z</time>
      </trkpt>
      <trkpt lat="60.0131231" lon="17.5329958">
        <ele>33.7834</ele>
        <time>2013-04-21T11:16:20Z</time>
      </trkpt>
      <trkpt lat="60.0130703" lon="17.5329661">
        <ele>33.7834</ele>
        <time>2013-04-21T11:16:21Z</time>
      </trkpt>
      <trkpt lat="60.0130179" lon="17.5329367">
        <ele>33.7834</ele>
        <time>2013-04-21T11:16:22Z</time>
      </trkpt>
      <trkpt lat="60.0129653" lon="17.5329077">
        <ele>33.7834</ele>
        <time>2013-04-21T11:16:23Z</time>
      </trkpt>
      <trkpt lat="60.0129127" lon="17.532879">
        <ele>33.7834</ele>
        <time>2013-04-21T11:16:24Z</time>
      </trkpt>
      <trkpt lat="60.0128605" lon="17.5328474">
        <ele>33.7834</ele>
        <time>2013-04-21T11:16:25Z</time>
      </trkpt>
      <trkpt lat="60.0128091" lon="17.5328134">
        <ele>33.7834</ele>
        <time>2013-04-21T11:16:26Z</time>
      </trkpt>
      <trkpt lat="60.012758" lon="17.53278">
        <ele>33.7834</ele>
        <time>2013-04-21T11:16:27Z</time>
      </trkpt>
      <trkpt lat="60.0127075" lon="17.532746">
        <ele>33.7834</ele>
        <time>2013-04-21T11:16:28Z</time>
      </trkpt>
      <trkpt lat="60.012658" lon="17.5327118">
        <ele>33.7834</ele>
        <time>2013-04-21T11:16:29Z</time>
      </trkpt>
      <trkpt lat="60.0126093" lon="17.5326769">
        <ele>33.7834</ele>
        <time>2013-04-21T11:16:30Z</time>
      </trkpt>
      <trkpt lat="60.0125605" lon="17.5326427">
        <ele>33.3029</ele>
        <time>2013-04-21T11:16:31Z</time>
      </trkpt>
      <trkpt lat="60.0125114" lon="17.5326088">
        <ele>33.3029</ele>
        <time>2013-04-21T11:16:32Z</time>
      </trkpt>
      <trkpt lat="60.0124633" lon="17.5325751">
        <ele>32.8223</ele>
        <time>2013-04-21T11:16:33Z</time>
      </trkpt>
      <trkpt lat="60.0124145" lon="17.5325434">
        <ele>32.8223</ele>
        <time>2013-04-21T11:16:34Z</time>
      </trkpt>
      <trkpt lat="60.0123648" lon="17.5325155">
        <ele>32.8223</ele>
        <time>2013-04-21T11:16:35Z</time>
      </trkpt>
      <trkpt lat="60.0123151" lon="17.532486">
        <ele>32.8223</ele>
        <time>2013-04-21T11:16:36Z</time>
      </trkpt>
      <trkpt lat="60.0122674" lon="17.5324526">
        <ele>32.8223</ele>
        <time>2013-04-21T11:16:37Z</time>
      </trkpt>
      <trkpt lat="60.0122196" lon="17.5324124">
        <ele>33.3029</ele>
        <time>2013-04-21T11:16:38Z</time>
      </trkpt>
      <trkpt lat="60.0121688" lon="17.5323773">
        <ele>33.3029</ele>
        <time>2013-04-21T11:16:39Z</time>
      </trkpt>
      <trkpt lat="60.0121189" lon="17.5323426">
        <ele>33.3029</ele>
        <time>2013-04-21T11:16:40Z</time>
      </trkpt>
      <trkpt lat="60.0120695" lon="17.5323052">
        <ele>33.3029</ele>
        <time>2013-04-21T11:16:41Z</time>
      </trkpt>
      <trkpt lat="60.0120188" lon="17.5322664">
        <ele>33.7834</ele>
        <time>2013-04-21T11:16:42Z</time>
      </trkpt>
      <trkpt lat="60.0119681" lon="17.5322249">
        <ele>33.7834</ele>
        <time>2013-04-21T11:16:43Z</time>
      </trkpt>
      <trkpt lat="60.0119168" lon="17.5321823">
        <ele>33.7834</ele>
        <time>2013-04-21T11:16:44Z</time>
      </trkpt>
      <trkpt lat="60.0118648" lon="17.5321414">
        <ele>34.2642</ele>
        <time>2013-04-21T11:16:45Z</time>
      </trkpt>
      <trkpt lat="60.011812" lon="17.5321026">
        <ele>34.2642</ele>
        <time>2013-04-21T11:16:46Z</time>
      </trkpt>
      <trkpt lat="60.011759" lon="17.5320633">
        <ele>34.2642</ele>
        <time>2013-04-21T11:16:47Z</time>
      </trkpt>
      <trkpt lat="60.0117064" lon="17.5320239">
        <ele>34.7449</ele>
        <time>2013-04-21T11:16:48Z</time>
      </trkpt>
      <trkpt lat="60.0116541" lon="17.5319831">
        <ele>34.7449</ele>
        <time>2013-04-21T11:16:49Z</time>
      </trkpt>
      <trkpt lat="60.0116014" lon="17.5319424">
        <ele>34.7449</ele>
        <time>2013-04-21T11:16:50Z</time>
      </trkpt>
      <trkpt lat="60.0115482" lon="17.5319038">
        <ele>35.2255</ele>
        <time>2013-04-21T11:16:51Z</time>
      </trkpt>
      <trkpt lat="60.0114946" lon="17.5318642">
        <ele>35.2255</ele>
        <time>2013-04-21T11:16:52Z</time>
      </trkpt>
      <trkpt lat="60.0114397" lon="17.5318234">
        <ele>35.2255</ele>
        <time>2013-04-21T11:16:53Z</time>
      </trkpt>
      <trkpt lat="60.0113842" lon="17.5317818">
        <ele>35.2255</ele>
        <time>2013-04-21T11:16:54Z</time>
      </trkpt>
      <trkpt lat="60.0113277" lon="17.5317389">
        <ele>35.2255</ele>
        <time>2013-04-21T11:16:55Z</time>
      </trkpt>
      <trkpt lat="60.0112707" lon="17.5316964">
        <ele>35.2255</ele>
        <time>2013-04-21T11:16:56Z</time>
      </trkpt>
      <trkpt lat="60.0112147" lon="17.531654">
        <ele>35.2255</ele>
        <time>2013-04-21T11:16:57Z</time>
      </trkpt>
      <trkpt lat="60.0111589" lon="17.5316126">
        <ele>35.2255</ele>
        <time>2013-04-21T11:16:58Z</time>
      </trkpt>
      <trkpt lat="60.0111025" lon="17.5315713">
        <ele>35.2255</ele>
        <time>2013-04-21T11:16:59Z</time>
      </trkpt>
      <trkpt lat="60.0110465" lon="17.5315298">
        <ele>35.2255</ele>
        <time>2013-04-21T11:17:00Z</time>
      </trkpt>
      <trkpt lat="60.0109903" lon="17.53149">
        <ele>35.2255</ele>
        <time>2013-04-21T11:17:01Z</time>
      </trkpt>
      <trkpt lat="60.0109337" lon="17.5314489">
        <ele>34.7449</ele>
        <time>2013-04-21T11:17:02Z</time>
      </trkpt>
      <trkpt lat="60.0108766" lon="17.5314071">
        <ele>34.7449</ele>
        <time>2013-04-21T11:17:03Z</time>
      </trkpt>
      <trkpt lat="60.0108176" lon="17.531366">
        <ele>34.7449</ele>
        <time>2013-04-21T11:17:04Z</time>
      </trkpt>
      <trkpt lat="60.0107574" lon="17.5313256">
        <ele>34.7449</ele>
        <time>2013-04-21T11:17:05Z</time>
      </trkpt>
      <trkpt lat="60.0106969" lon="17.5312846">
        <ele>34.7449</ele>
        <time>2013-04-21T11:17:06Z</time>
      </trkpt>
      <trkpt lat="60.0106361" lon="17.5312433">
        <ele>34.2642</ele>
        <time>2013-04-21T11:17:07Z</time>
      </trkpt>
      <trkpt lat="60.0105752" lon="17.5312028">
        <ele>34.2642</ele>
        <time>2013-04-21T11:17:08Z</time>
      </trkpt>
      <trkpt lat="60.0105146" lon="17.5311604">
        <ele>34.7449</ele>
        <time>2013-04-21T11:17:09Z</time>
      </trkpt>
      <trkpt lat="60.0104542" lon="17.5311184">
        <ele>34.7449</ele>
        <time>2013-04-21T11:17:10Z</time>
      </trkpt>
      <trkpt lat="60.0103933" lon="17.5310797">
        <ele>34.7449</ele>
        <time>2013-04-21T11:17:11Z</time>
      </trkpt>
      <trkpt lat="60.0103317" lon="17.5310411">
        <ele>34.7449</ele>
        <time>2013-04-21T11:17:12Z</time>
      </trkpt>
      <trkpt lat="60.0102696" lon="17.5310018">
        <ele>34.7449</ele>
        <time>2013-04-21T11:17:13Z</time>
      </trkpt>
      <trkpt lat="60.0102077" lon="17.5309618">
        <ele>35.2255</ele>
        <time>2013-04-21T11:17:14Z</time>
      </trkpt>
      <trkpt lat="60.0101455" lon="17.530921">
        <ele>35.2255</ele>
        <time>2013-04-21T11:17:15Z</time>
      </trkpt>
      <trkpt lat="60.0100833" lon="17.5308789">
        <ele>34.2642</ele>
        <time>2013-04-21T11:17:16Z</time>
      </trkpt>
      <trkpt lat="60.010022" lon="17.5308382">
        <ele>34.7449</ele>
        <time>2013-04-21T11:17:17Z</time>
      </trkpt>
      <trkpt lat="60.0099607" lon="17.5307999">
        <ele>34.7449</ele>
        <time>2013-04-21T11:17:18Z</time>
      </trkpt>
      <trkpt lat="60.0098992" lon="17.5307637">
        <ele>34.7449</ele>
        <time>2013-04-21T11:17:19Z</time>
      </trkpt>
      <trkpt lat="60.0098372" lon="17.5307266">
        <ele>34.7449</ele>
        <time>2013-04-21T11:17:20Z</time>
      </trkpt>
      <trkpt lat="60.0097748" lon="17.5306872">
        <ele>34.7449</ele>
        <time>2013-04-21T11:17:21Z</time>
      </trkpt>
      <trkpt lat="60.009711" lon="17.5306491">
        <ele>34.7449</ele>
        <time>2013-04-21T11:17:22Z</time>
      </trkpt>
      <trkpt lat="60.0096471" lon="17.5306092">
        <ele>34.7449</ele>
        <time>2013-04-21T11:17:23Z</time>
      </trkpt>
      <trkpt lat="60.0095815" lon="17.5305702">
        <ele>34.7449</ele>
        <time>2013-04-21T11:17:24Z</time>
      </trkpt>
      <trkpt lat="60.0095166" lon="17.5305308">
        <ele>35.2255</ele>
        <time>2013-04-21T11:17:25Z</time>
      </trkpt>
      <trkpt lat="60.0094505" lon="17.5304931">
        <ele>35.2255</ele>
        <time>2013-04-21T11:17:26Z</time>
      </trkpt>
      <trkpt lat="60.0093853" lon="17.5304544">
        <ele>35.2255</ele>
        <time>2013-04-21T11:17:27Z</time>
      </trkpt>
      <trkpt lat="60.0093205" lon="17.530417">
        <ele>35.2255</ele>
        <time>2013-04-21T11:17:28Z</time>
      </trkpt>
      <trkpt lat="60.0092558" lon="17.5303782">
        <ele>35.7061</ele>
        <time>2013-04-21T11:17:29Z</time>
      </trkpt>
      <trkpt lat="60.0091918" lon="17.5303391">
        <ele>35.7061</ele>
        <time>2013-04-21T11:17:30Z</time>
      </trkpt>
      <trkpt lat="60.0091293" lon="17.530301">
        <ele>35.7061</ele>
        <time>2013-04-21T11:17:31Z</time>
      </trkpt>
      <trkpt lat="60.0090667" lon="17.5302632">
        <ele>35.7061</ele>
        <time>2013-04-21T11:17:32Z</time>
      </trkpt>
      <trkpt lat="60.009005" lon="17.5302237">
        <ele>35.2255</ele>
        <time>2013-04-21T11:17:33Z</time>
      </trkpt>
      <trkpt lat="60.0089434" lon="17.5301839">
        <ele>35.7061</ele>
        <time>2013-04-21T11:17:34Z</time>
      </trkpt>
      <trkpt lat="60.0088821" lon="17.5301454">
        <ele>35.7061</ele>
        <time>2013-04-21T11:17:35Z</time>
      </trkpt>
      <trkpt lat="60.0088214" lon="17.5301063">
        <ele>35.7061</ele>
        <time>2013-04-21T11:17:36Z</time>
      </trkpt>
      <trkpt lat="60.008761" lon="17.5300674">
        <ele>35.7061</ele>
        <time>2013-04-21T11:17:37Z</time>
      </trkpt>
      <trkpt lat="60.0087008" lon="17.5300291">
        <ele>35.7061</ele>
        <time>2013-04-21T11:17:38Z</time>
      </trkpt>
      <trkpt lat="60.0086411" lon="17.5299907">
        <ele>35.7061</ele>
        <time>2013-04-21T11:17:39Z</time>
      </trkpt>
      <trkpt lat="60.0085818" lon="17.5299524">
        <ele>35.7061</ele>
        <time>2013-04-21T11:17:40Z</time>
      </trkpt>
      <trkpt lat="60.0085222" lon="17.5299141">
        <ele>36.1868</ele>
        <time>2013-04-21T11:17:41Z</time>
      </trkpt>
      <trkpt lat="60.0084616" lon="17.5298794">
        <ele>36.1868</ele>
        <time>2013-04-21T11:17:42Z</time>
      </trkpt>
      <trkpt lat="60.0084" lon="17.5298436">
        <ele>36.6675</ele>
        <time>2013-04-21T11:17:43Z</time>
      </trkpt>
      <trkpt lat="60.0083386" lon="17.5298067">
        <ele>37.1481</ele>
        <time>2013-04-21T11:17:44Z</time>
      </trkpt>
      <trkpt lat="60.0082775" lon="17.5297706">
        <ele>37.6287</ele>
        <time>2013-04-21T11:17:45Z</time>
      </trkpt>
      <trkpt lat="60.008218" lon="17.5297282">
        <ele>37.6287</ele>
        <time>2013-04-21T11:17:46Z</time>
      </trkpt>
      <trkpt lat="60.0081595" lon="17.5296842">
        <ele>37.6287</ele>
        <time>2013-04-21T11:17:47Z</time>
      </trkpt>
      <trkpt lat="60.0081017" lon="17.5296445">
        <ele>38.1094</ele>
        <time>2013-04-21T11:17:48Z</time>
      </trkpt>
      <trkpt lat="60.0080441" lon="17.5296068">
        <ele>38.1094</ele>
        <time>2013-04-21T11:17:49Z</time>
      </trkpt>
      <trkpt lat="60.0079869" lon="17.5295687">
        <ele>38.1094</ele>
        <time>2013-04-21T11:17:50Z</time>
      </trkpt>
      <trkpt lat="60.0079301" lon="17.5295287">
        <ele>38.1094</ele>
        <time>2013-04-21T11:17:51Z</time>
      </trkpt>
      <trkpt lat="60.0078719" lon="17.5294929">
        <ele>38.5901</ele>
        <time>2013-04-21T11:17:52Z</time>
      </trkpt>
      <trkpt lat="60.0078162" lon="17.5294545">
        <ele>39.0707</ele>
        <time>2013-04-21T11:17:53Z</time>
      </trkpt>
      <trkpt lat="60.0077607" lon="17.5294156">
        <ele>39.0707</ele>
        <time>2013-04-21T11:17:54Z</time>
      </trkpt>
      <trkpt lat="60.0077049" lon="17.5293767">
        <ele>39.0707</ele>
        <time>2013-04-21T11:17:55Z</time>
      </trkpt>
      <trkpt lat="60.0076495" lon="17.5293375">
        <ele>39.0707</ele>
        <time>2013-04-21T11:17:56Z</time>
      </trkpt>
      <trkpt lat="60.0075927" lon="17.5292992">
        <ele>39.0707</ele>
        <time>2013-04-21T11:17:57Z</time>
      </trkpt>
      <trkpt lat="60.0075365" lon="17.5292555">
        <ele>39.5513</ele>
        <time>2013-04-21T11:17:58Z</time>
      </trkpt>
      <trkpt lat="60.0074801" lon="17.5292085">
        <ele>39.5513</ele>
        <time>2013-04-21T11:17:59Z</time>
      </trkpt>
      <trkpt lat="60.0074257" lon="17.5291615">
        <ele>39.5513</ele>
        <time>2013-04-21T11:18:00Z</time>
      </trkpt>
      <trkpt lat="60.007372" lon="17.5291139">
        <ele>39.0707</ele>
        <time>2013-04-21T11:18:01Z</time>
      </trkpt>
      <trkpt lat="60.0073195" lon="17.5290639">
        <ele>38.5901</ele>
        <time>2013-04-21T11:18:02Z</time>
      </trkpt>
      <trkpt lat="60.0072671" lon="17.5290094">
        <ele>39.0707</ele>
        <time>2013-04-21T11:18:03Z</time>
      </trkpt>
      <trkpt lat="60.0072148" lon="17.5289512">
        <ele>39.0707</ele>
        <time>2013-04-21T11:18:04Z</time>
      </trkpt>
      <trkpt lat="60.0071645" lon="17.5288863">
        <ele>39.0707</ele>
        <time>2013-04-21T11:18:05Z</time>
      </trkpt>
      <trkpt lat="60.0071144" lon="17.528818">
        <ele>39.5513</ele>
        <time>2013-04-21T11:18:06Z</time>
      </trkpt>
      <trkpt lat="60.0070631" lon="17.5287517">
        <ele>39.5513</ele>
        <time>2013-04-21T11:18:07Z</time>
      </trkpt>
      <trkpt lat="60.0070132" lon="17.5286838">
        <ele>40.0321</ele>
        <time>2013-04-21T11:18:08Z</time>
      </trkpt>
      <trkpt lat="60.0069639" lon="17.5286129">
        <ele>40.5128</ele>
        <time>2013-04-21T11:18:09Z</time>
      </trkpt>
      <trkpt lat="60.0069164" lon="17.5285361">
        <ele>40.9934</ele>
        <time>2013-04-21T11:18:10Z</time>
      </trkpt>
      <trkpt lat="60.0068686" lon="17.5284596">
        <ele>40.9934</ele>
        <time>2013-04-21T11:18:11Z</time>
      </trkpt>
      <trkpt lat="60.0068221" lon="17.5283802">
        <ele>41.474</ele>
        <time>2013-04-21T11:18:12Z</time>
      </trkpt>
      <trkpt lat="60.0067768" lon="17.5282987">
        <ele>41.474</ele>
        <time>2013-04-21T11:18:13Z</time>
      </trkpt>
      <trkpt lat="60.0067314" lon="17.5282153">
        <ele>41.474</ele>
        <time>2013-04-21T11:18:14Z</time>
      </trkpt>
      <trkpt lat="60.006689" lon="17.5281276">
        <ele>41.474</ele>
        <time>2013-04-21T11:18:15Z</time>
      </trkpt>
      <trkpt lat="60.0066471" lon="17.5280399">
        <ele>41.9547</ele>
        <time>2013-04-21T11:18:16Z</time>
      </trkpt>
      <trkpt lat="60.0066014" lon="17.5279571">
        <ele>40.5128</ele>
        <time>2013-04-21T11:18:17Z</time>
      </trkpt>
      <trkpt lat="60.0065577" lon="17.5278694">
        <ele>39.5513</ele>
        <time>2013-04-21T11:18:18Z</time>
      </trkpt>
      <trkpt lat="60.0065154" lon="17.5277721">
        <ele>39.0707</ele>
        <time>2013-04-21T11:18:19Z</time>
      </trkpt>
      <trkpt lat="60.0064718" lon="17.5276711">
        <ele>39.0707</ele>
        <time>2013-04-21T11:18:20Z</time>
      </trkpt>
      <trkpt lat="60.0064284" lon="17.527568">
        <ele>39.0707</ele>
        <time>2013-04-21T11:18:21Z</time>
      </trkpt>
      <trkpt lat="60.006385" lon="17.5274635">
        <ele>39.0707</ele>
        <time>2013-04-21T11:18:22Z</time>
      </trkpt>
      <trkpt lat="60.0063425" lon="17.5273593">
        <ele>38.1094</ele>
        <time>2013-04-21T11:18:23Z</time>
      </trkpt>
      <trkpt lat="60.0063023" lon="17.5272544">
        <ele>37.6287</ele>
        <time>2013-04-21T11:18:24Z</time>
      </trkpt>
      <trkpt lat="60.0062638" lon="17.5271484">
        <ele>36.6675</ele>
        <time>2013-04-21T11:18:25Z</time>
      </trkpt>
      <trkpt lat="60.0062281" lon="17.5270387">
        <ele>36.1868</ele>
        <time>2013-04-21T11:18:26Z</time>
      </trkpt>
      <trkpt lat="60.0061938" lon="17.5269288">
        <ele>36.1868</ele>
        <time>2013-04-21T11:18:27Z</time>
      </trkpt>
      <trkpt lat="60.0061591" lon="17.5268208">
        <ele>35.7061</ele>
        <time>2013-04-21T11:18:28Z</time>
      </trkpt>
      <trkpt lat="60.0061243" lon="17.5267143">
        <ele>35.2255</ele>
        <time>2013-04-21T11:18:29Z</time>
      </trkpt>
      <trkpt lat="60.0060908" lon="17.5266071">
        <ele>35.2255</ele>
        <time>2013-04-21T11:18:30Z</time>
      </trkpt>
      <trkpt lat="60.0060592" lon="17.5264986">
        <ele>34.7449</ele>
        <time>2013-04-21T11:18:31Z</time>
      </trkpt>
      <trkpt lat="60.006028" lon="17.5263906">
        <ele>34.7449</ele>
        <time>2013-04-21T11:18:32Z</time>
      </trkpt>
      <trkpt lat="60.005996" lon="17.5262827">
        <ele>34.2642</ele>
        <time>2013-04-21T11:18:33Z</time>
      </trkpt>
      <trkpt lat="60.0059638" lon="17.5261751">
        <ele>34.2642</ele>
        <time>2013-04-21T11:18:34Z</time>
      </trkpt>
      <trkpt lat="60.0059317" lon="17.5260688">
        <ele>33.7834</ele>
        <time>2013-04-21T11:18:35Z</time>
      </trkpt>
      <trkpt lat="60.0059006" lon="17.5259612">
        <ele>33.7834</ele>
        <time>2013-04-21T11:18:36Z</time>
      </trkpt>
      <trkpt lat="60.0058706" lon="17.5258551">
        <ele>33.3029</ele>
        <time>2013-04-21T11:18:37Z</time>
      </trkpt>
      <trkpt lat="60.0058406" lon="17.5257513">
        <ele>33.3029</ele>
        <time>2013-04-21T11:18:38Z</time>
      </trkpt>
      <trkpt lat="60.0058104" lon="17.5256465">
        <ele>33.3029</ele>
        <time>2013-04-21T11:18:39Z</time>
      </trkpt>
      <trkpt lat="60.0057793" lon="17.5255426">
        <ele>33.3029</ele>
        <time>2013-04-21T11:18:40Z</time>
      </trkpt>
      <trkpt lat="60.0057484" lon="17.5254381">
        <ele>32.8223</ele>
        <time>2013-04-21T11:18:41Z</time>
      </trkpt>
      <trkpt lat="60.005718" lon="17.5253326">
        <ele>32.8223</ele>
        <time>2013-04-21T11:18:42Z</time>
      </trkpt>
      <trkpt lat="60.0056875" lon="17.5252257">
        <ele>32.3416</ele>
        <time>2013-04-21T11:18:43Z</time>
      </trkpt>
      <trkpt lat="60.0056575" lon="17.5251166">
        <ele>32.3416</ele>
        <time>2013-04-21T11:18:44Z</time>
      </trkpt>
      <trkpt lat="60.005627" lon="17.5250075">
        <ele>31.8607</ele>
        <time>2013-04-21T11:18:45Z</time>
      </trkpt>
      <trkpt lat="60.0055956" lon="17.524899">
        <ele>31.3801</ele>
        <time>2013-04-21T11:18:46Z</time>
      </trkpt>
      <trkpt lat="60.0055644" lon="17.5247915">
        <ele>30.8995</ele>
        <time>2013-04-21T11:18:47Z</time>
      </trkpt>
      <trkpt lat="60.0055339" lon="17.5246841">
        <ele>30.8995</ele>
        <time>2013-04-21T11:18:48Z</time>
      </trkpt>
      <trkpt lat="60.0055033" lon="17.5245766">
        <ele>30.8995</ele>
        <time>2013-04-21T11:18:49Z</time>
      </trkpt>
      <trkpt lat="60.0054727" lon="17.5244681">
        <ele>30.4188</ele>
        <time>2013-04-21T11:18:50Z</time>
      </trkpt>
      <trkpt lat="60.0054425" lon="17.5243608">
        <ele>29.9381</ele>
        <time>2013-04-21T11:18:51Z</time>
      </trkpt>
      <trkpt lat="60.0054126" lon="17.524257">
        <ele>29.9381</ele>
        <time>2013-04-21T11:18:52Z</time>
      </trkpt>
      <trkpt lat="60.005382" lon="17.5241516">
        <ele>29.4575</ele>
        <time>2013-04-21T11:18:53Z</time>
      </trkpt>
      <trkpt lat="60.0053498" lon="17.5240419">
        <ele>29.4575</ele>
        <time>2013-04-21T11:18:54Z</time>
      </trkpt>
      <trkpt lat="60.0053184" lon="17.5239335">
        <ele>29.4575</ele>
        <time>2013-04-21T11:18:55Z</time>
      </trkpt>
      <trkpt lat="60.0052872" lon="17.5238223">
        <ele>28.9769</ele>
        <time>2013-04-21T11:18:56Z</time>
      </trkpt>
      <trkpt lat="60.0052547" lon="17.5237021">
        <ele>29.4575</ele>
        <time>2013-04-21T11:18:57Z</time>
      </trkpt>
      <trkpt lat="60.0052229" lon="17.5235895">
        <ele>29.9381</ele>
        <time>2013-04-21T11:18:58Z</time>
      </trkpt>
      <trkpt lat="60.0051919" lon="17.5234783">
        <ele>29.4575</ele>
        <time>2013-04-21T11:18:59Z</time>
      </trkpt>
      <trkpt lat="60.0051594" lon="17.5233633">
        <ele>29.4575</ele>
        <time>2013-04-21T11:19:00Z</time>
      </trkpt>
      <trkpt lat="60.0051261" lon="17.5232456">
        <ele>29.4575</ele>
        <time>2013-04-21T11:19:01Z</time>
      </trkpt>
      <trkpt lat="60.005093" lon="17.5231295">
        <ele>29.4575</ele>
        <time>2013-04-21T11:19:02Z</time>
      </trkpt>
      <trkpt lat="60.0050602" lon="17.523014">
        <ele>28.9769</ele>
        <time>2013-04-21T11:19:03Z</time>
      </trkpt>
      <trkpt lat="60.0050276" lon="17.5228975">
        <ele>28.9769</ele>
        <time>2013-04-21T11:19:04Z</time>
      </trkpt>
      <trkpt lat="60.0049965" lon="17.5227816">
        <ele>28.9769</ele>
        <time>2013-04-21T11:19:05Z</time>
      </trkpt>
      <trkpt lat="60.0049651" lon="17.522666">
        <ele>28.4962</ele>
        <time>2013-04-21T11:19:06Z</time>
      </trkpt>
      <trkpt lat="60.0049335" lon="17.5225496">
        <ele>28.4962</ele>
        <time>2013-04-21T11:19:07Z</time>
      </trkpt>
      <trkpt lat="60.0049003" lon="17.5224343">
        <ele>28.4962</ele>
        <time>2013-04-21T11:19:08Z</time>
      </trkpt>
      <trkpt lat="60.0048677" lon="17.5223196">
        <ele>28.4962</ele>
        <time>2013-04-21T11:19:09Z</time>
      </trkpt>
      <trkpt lat="60.0048364" lon="17.5222057">
        <ele>28.0155</ele>
        <time>2013-04-21T11:19:10Z</time>
      </trkpt>
      <trkpt lat="60.0048055" lon="17.5220922">
        <ele>28.4962</ele>
        <time>2013-04-21T11:19:11Z</time>
      </trkpt>
      <trkpt lat="60.0047749" lon="17.5219797">
        <ele>28.4962</ele>
        <time>2013-04-21T11:19:12Z</time>
      </trkpt>
      <trkpt lat="60.0047443" lon="17.5218672">
        <ele>28.4962</ele>
        <time>2013-04-21T11:19:13Z</time>
      </trkpt>
      <trkpt lat="60.0047137" lon="17.5217558">
        <ele>28.9769</ele>
        <time>2013-04-21T11:19:14Z</time>
      </trkpt>
      <trkpt lat="60.0046828" lon="17.5216464">
        <ele>29.4575</ele>
        <time>2013-04-21T11:19:15Z</time>
      </trkpt>
      <trkpt lat="60.0046517" lon="17.5215382">
        <ele>29.9381</ele>
        <time>2013-04-21T11:19:16Z</time>
      </trkpt>
      <trkpt lat="60.0046215" lon="17.521429">
        <ele>29.9381</ele>
        <time>2013-04-21T11:19:17Z</time>
      </trkpt>
      <trkpt lat="60.0045921" lon="17.5213192">
        <ele>30.4188</ele>
        <time>2013-04-21T11:19:18Z</time>
      </trkpt>
      <trkpt lat="60.0045625" lon="17.5212097">
        <ele>30.4188</ele>
        <time>2013-04-21T11:19:19Z</time>
      </trkpt>
      <trkpt lat="60.0045323" lon="17.5211001">
        <ele>30.4188</ele>
        <time>2013-04-21T11:19:20Z</time>
      </trkpt>
      <trkpt lat="60.004501" lon="17.5209913">
        <ele>30.8995</ele>
        <time>2013-04-21T11:19:21Z</time>
      </trkpt>
      <trkpt lat="60.0044694" lon="17.5208824">
        <ele>30.8995</ele>
        <time>2013-04-21T11:19:22Z</time>
      </trkpt>
      <trkpt lat="60.0044381" lon="17.5207759">
        <ele>30.8995</ele>
        <time>2013-04-21T11:19:23Z</time>
      </trkpt>
      <trkpt lat="60.0044082" lon="17.520677">
        <ele>30.4188</ele>
        <time>2013-04-21T11:19:24Z</time>
      </trkpt>
      <trkpt lat="60.0043769" lon="17.5205733">
        <ele>30.8995</ele>
        <time>2013-04-21T11:19:25Z</time>
      </trkpt>
      <trkpt lat="60.0043461" lon="17.5204732">
        <ele>30.4188</ele>
        <time>2013-04-21T11:19:26Z</time>
      </trkpt>
      <trkpt lat="60.0043149" lon="17.5203703">
        <ele>30.8995</ele>
        <time>2013-04-21T11:19:27Z</time>
      </trkpt>
      <trkpt lat="60.0042832" lon="17.520268">
        <ele>30.8995</ele>
        <time>2013-04-21T11:19:28Z</time>
      </trkpt>
      <trkpt lat="60.0042507" lon="17.5201662">
        <ele>30.8995</ele>
        <time>2013-04-21T11:19:29Z</time>
      </trkpt>
      <trkpt lat="60.0042164" lon="17.5200618">
        <ele>31.3801</ele>
        <time>2013-04-21T11:19:30Z</time>
      </trkpt>
      <trkpt lat="60.0041821" lon="17.5199584">
        <ele>31.3801</ele>
        <time>2013-04-21T11:19:31Z</time>
      </trkpt>
      <trkpt lat="60.0041457" lon="17.5198513">
        <ele>31.3801</ele>
        <time>2013-04-21T11:19:32Z</time>
      </trkpt>
      <trkpt lat="60.0041088" lon="17.5197511">
        <ele>31.8607</ele>
        <time>2013-04-21T11:19:33Z</time>
      </trkpt>
      <trkpt lat="60.0040715" lon="17.5196533">
        <ele>31.8607</ele>
        <time>2013-04-21T11:19:34Z</time>
      </trkpt>
      <trkpt lat="60.0040347" lon="17.5195573">
        <ele>31.8607</ele>
        <time>2013-04-21T11:19:35Z</time>
      </trkpt>
      <trkpt lat="60.0039973" lon="17.5194618">
        <ele>31.8607</ele>
        <time>2013-04-21T11:19:36Z</time>
      </trkpt>
      <trkpt lat="60.00396" lon="17.5193664">
        <ele>31.8607</ele>
        <time>2013-04-21T11:19:37Z</time>
      </trkpt>
      <trkpt lat="60.0039227" lon="17.519271">
        <ele>31.8607</ele>
        <time>2013-04-21T11:19:38Z</time>
      </trkpt>
      <trkpt lat="60.0038848" lon="17.5191771">
        <ele>31.3801</ele>
        <time>2013-04-21T11:19:39Z</time>
      </trkpt>
      <trkpt lat="60.0038455" lon="17.5190846">
        <ele>31.3801</ele>
        <time>2013-04-21T11:19:40Z</time>
      </trkpt>
      <trkpt lat="60.0038057" lon="17.5189949">
        <ele>31.3801</ele>
        <time>2013-04-21T11:19:41Z</time>
      </trkpt>
      <trkpt lat="60.0037663" lon="17.5189062">
        <ele>31.3801</ele>
        <time>2013-04-21T11:19:42Z</time>
      </trkpt>
      <trkpt lat="60.003727" lon="17.5188184">
        <ele>31.3801</ele>
        <time>2013-04-21T11:19:43Z</time>
      </trkpt>
      <trkpt lat="60.0036864" lon="17.5187318">
        <ele>31.3801</ele>
        <time>2013-04-21T11:19:44Z</time>
      </trkpt>
      <trkpt lat="60.0036447" lon="17.5186467">
        <ele>31.8607</ele>
        <time>2013-04-21T11:19:45Z</time>
      </trkpt>
      <trkpt lat="60.0036027" lon="17.518563">
        <ele>31.8607</ele>
        <time>2013-04-21T11:19:46Z</time>
      </trkpt>
      <trkpt lat="60.0035605" lon="17.5184798">
        <ele>31.3801</ele>
        <time>2013-04-21T11:19:47Z</time>
      </trkpt>
      <trkpt lat="60.0035178" lon="17.5183947">
        <ele>31.8607</ele>
        <time>2013-04-21T11:19:48Z</time>
      </trkpt>
      <trkpt lat="60.003474" lon="17.5183121">
        <ele>32.3416</ele>
        <time>2013-04-21T11:19:49Z</time>
      </trkpt>
      <trkpt lat="60.0034284" lon="17.5182335">
        <ele>32.3416</ele>
        <time>2013-04-21T11:19:50Z</time>
      </trkpt>
      <trkpt lat="60.0033834" lon="17.5181545">
        <ele>32.3416</ele>
        <time>2013-04-21T11:19:51Z</time>
      </trkpt>
      <trkpt lat="60.0033389" lon="17.5180751">
        <ele>32.8223</ele>
        <time>2013-04-21T11:19:52Z</time>
      </trkpt>
      <trkpt lat="60.0032943" lon="17.5179957">
        <ele>32.8223</ele>
        <time>2013-04-21T11:19:53Z</time>
      </trkpt>
      <trkpt lat="60.0032513" lon="17.5179149">
        <ele>33.7834</ele>
        <time>2013-04-21T11:19:54Z</time>
      </trkpt>
      <trkpt lat="60.0032079" lon="17.5178367">
        <ele>33.7834</ele>
        <time>2013-04-21T11:19:55Z</time>
      </trkpt>
      <trkpt lat="60.0031644" lon="17.5177588">
        <ele>33.7834</ele>
        <time>2013-04-21T11:19:56Z</time>
      </trkpt>
      <trkpt lat="60.0031199" lon="17.5176782">
        <ele>34.2642</ele>
        <time>2013-04-21T11:19:57Z</time>
      </trkpt>
      <trkpt lat="60.0030747" lon="17.5175984">
        <ele>34.2642</ele>
        <time>2013-04-21T11:19:58Z</time>
      </trkpt>
      <trkpt lat="60.0030296" lon="17.5175218">
        <ele>34.7449</ele>
        <time>2013-04-21T11:19:59Z</time>
      </trkpt>
      <trkpt lat="60.0029843" lon="17.5174466">
        <ele>34.7449</ele>
        <time>2013-04-21T11:20:00Z</time>
      </trkpt>
      <trkpt lat="60.0029394" lon="17.5173694">
        <ele>34.7449</ele>
        <time>2013-04-21T11:20:01Z</time>
      </trkpt>
      <trkpt lat="60.0028961" lon="17.5172901">
        <ele>34.7449</ele>
        <time>2013-04-21T11:20:02Z</time>
      </trkpt>
      <trkpt lat="60.0028541" lon="17.5172078">
        <ele>34.7449</ele>
        <time>2013-04-21T11:20:03Z</time>
      </trkpt>
      <trkpt lat="60.0028116" lon="17.5171274">
        <ele>34.2642</ele>
        <time>2013-04-21T11:20:04Z</time>
      </trkpt>
      <trkpt lat="60.0027664" lon="17.5170529">
        <ele>34.2642</ele>
        <time>2013-04-21T11:20:05Z</time>
      </trkpt>
      <trkpt lat="60.0027219" lon="17.5169804">
        <ele>34.7449</ele>
        <time>2013-04-21T11:20:06Z</time>
      </trkpt>
      <trkpt lat="60.0026806" lon="17.5169075">
        <ele>34.7449</ele>
        <time>2013-04-21T11:20:07Z</time>
      </trkpt>
      <trkpt lat="60.0026427" lon="17.516841">
        <ele>34.7449</ele>
        <time>2013-04-21T11:20:08Z</time>
      </trkpt>
      <trkpt lat="60.0026079" lon="17.5167789">
        <ele>34.7449</ele>
        <time>2013-04-21T11:20:09Z</time>
      </trkpt>
      <trkpt lat="60.0025723" lon="17.5167163">
        <ele>34.7449</ele>
        <time>2013-04-21T11:20:10Z</time>
      </trkpt>
      <trkpt lat="60.002536" lon="17.5166531">
        <ele>35.2255</ele>
        <time>2013-04-21T11:20:11Z</time>
      </trkpt>
      <trkpt lat="60.0025029" lon="17.5166003">
        <ele>35.2255</ele>
        <time>2013-04-21T11:20:12Z</time>
      </trkpt>
      <trkpt lat="60.0024698" lon="17.5165472">
        <ele>35.7061</ele>
        <time>2013-04-21T11:20:13Z</time>
      </trkpt>
      <trkpt lat="60.0024369" lon="17.5164924">
        <ele>36.1868</ele>
        <time>2013-04-21T11:20:14Z</time>
      </trkpt>
      <trkpt lat="60.0024062" lon="17.5164365">
        <ele>36.6675</ele>
        <time>2013-04-21T11:20:15Z</time>
      </trkpt>
      <trkpt lat="60.0023764" lon="17.5163857">
        <ele>37.1481</ele>
        <time>2013-04-21T11:20:16Z</time>
      </trkpt>
      <trkpt lat="60.0023466" lon="17.5163292">
        <ele>37.1481</ele>
        <time>2013-04-21T11:20:17Z</time>
      </trkpt>
      <trkpt lat="60.0023158" lon="17.5162738">
        <ele>37.6287</ele>
        <time>2013-04-21T11:20:18Z</time>
      </trkpt>
      <trkpt lat="60.0022848" lon="17.5162206">
        <ele>38.1094</ele>
        <time>2013-04-21T11:20:19Z</time>
      </trkpt>
      <trkpt lat="60.0022532" lon="17.5161645">
        <ele>38.5901</ele>
        <time>2013-04-21T11:20:20Z</time>
      </trkpt>
      <trkpt lat="60.0022233" lon="17.5161071">
        <ele>39.0707</ele>
        <time>2013-04-21T11:20:21Z</time>
      </trkpt>
      <trkpt lat="60.0021935" lon="17.5160533">
        <ele>40.0321</ele>
        <time>2013-04-21T11:20:22Z</time>
      </trkpt>
      <trkpt lat="60.0021622" lon="17.5160102">
        <ele>40.5128</ele>
        <time>2013-04-21T11:20:23Z</time>
      </trkpt>
      <trkpt lat="60.0021256" lon="17.5159698">
        <ele>40.5128</ele>
        <time>2013-04-21T11:20:24Z</time>
      </trkpt>
      <trkpt lat="60.0020871" lon="17.5159331">
        <ele>41.474</ele>
        <time>2013-04-21T11:20:25Z</time>
      </trkpt>
      <trkpt lat="60.0020475" lon="17.5159013">
        <ele>40.9934</ele>
        <time>2013-04-21T11:20:26Z</time>
      </trkpt>
      <trkpt lat="60.0020054" lon="17.5158709">
        <ele>40.0321</ele>
        <time>2013-04-21T11:20:27Z</time>
      </trkpt>
      <trkpt lat="60.0019595" lon="17.5158392">
        <ele>40.0321</ele>
        <time>2013-04-21T11:20:28Z</time>
      </trkpt>
      <trkpt lat="60.0019103" lon="17.5158051">
        <ele>38.5901</ele>
        <time>2013-04-21T11:20:29Z</time>
      </trkpt>
      <trkpt lat="60.0018575" lon="17.5157727">
        <ele>37.6287</ele>
        <time>2013-04-21T11:20:30Z</time>
      </trkpt>
      <trkpt lat="60.0018015" lon="17.5157413">
        <ele>36.6675</ele>
        <time>2013-04-21T11:20:31Z</time>
      </trkpt>
      <trkpt lat="60.0017354" lon="17.5156872">
        <ele>35.7061</ele>
        <time>2013-04-21T11:20:32Z</time>
      </trkpt>
      <trkpt lat="60.00166" lon="17.5156494">
        <ele>35.7061</ele>
        <time>2013-04-21T11:20:33Z</time>
      </trkpt>
      <trkpt lat="60.001586" lon="17.5156126">
        <ele>35.2255</ele>
        <time>2013-04-21T11:20:34Z</time>
      </trkpt>
      <trkpt lat="60.0015175" lon="17.5155787">
        <ele>35.2255</ele>
        <time>2013-04-21T11:20:35Z</time>
      </trkpt>
      <trkpt lat="60.0014269" lon="17.5155554">
        <ele>35.2255</ele>
        <time>2013-04-21T11:20:36Z</time>
      </trkpt>
      <trkpt lat="60.0013761" lon="17.515523">
        <ele>35.7061</ele>
        <time>2013-04-21T11:20:37Z</time>
      </trkpt>
      <trkpt lat="60.0013178" lon="17.5154946">
        <ele>35.7061</ele>
        <time>2013-04-21T11:20:38Z</time>
      </trkpt>
      <trkpt lat="60.0012587" lon="17.5154719">
        <ele>35.7061</ele>
        <time>2013-04-21T11:20:39Z</time>
      </trkpt>
      <trkpt lat="60.0012002" lon="17.5154342">
        <ele>36.6675</ele>
        <time>2013-04-21T11:20:40Z</time>
      </trkpt>
      <trkpt lat="60.0011432" lon="17.5154202">
        <ele>36.6675</ele>
        <time>2013-04-21T11:20:41Z</time>
      </trkpt>
      <trkpt lat="60.0010851" lon="17.5153993">
        <ele>37.6287</ele>
        <time>2013-04-21T11:20:42Z</time>
      </trkpt>
      <trkpt lat="60.0010283" lon="17.5153772">
        <ele>37.6287</ele>
        <time>2013-04-21T11:20:43Z</time>
      </trkpt>
      <trkpt lat="60.0009742" lon="17.5153522">
        <ele>38.1094</ele>
        <time>2013-04-21T11:20:44Z</time>
      </trkpt>
      <trkpt lat="60.0009141" lon="17.5153243">
        <ele>39.0707</ele>
        <time>2013-04-21T11:20:45Z</time>
      </trkpt>
      <trkpt lat="60.0008545" lon="17.5152985">
        <ele>40.0321</ele>
        <time>2013-04-21T11:20:46Z</time>
      </trkpt>
      <trkpt lat="60.0007907" lon="17.515262">
        <ele>41.474</ele>
        <time>2013-04-21T11:20:47Z</time>
      </trkpt>
      <trkpt lat="60.0007315" lon="17.5152355">
        <ele>41.474</ele>
        <time>2013-04-21T11:20:48Z</time>
      </trkpt>
      <trkpt lat="60.0006728" lon="17.5152011">
        <ele>41.474</ele>
        <time>2013-04-21T11:20:49Z</time>
      </trkpt>
      <trkpt lat="60.0006121" lon="17.5151704">
        <ele>41.474</ele>
        <time>2013-04-21T11:20:50Z</time>
      </trkpt>
      <trkpt lat="60.0005505" lon="17.5151433">
        <ele>41.474</ele>
        <time>2013-04-21T11:20:51Z</time>
      </trkpt>
      <trkpt lat="60.0004908" lon="17.5151224">
        <ele>40.5128</ele>
        <time>2013-04-21T11:20:52Z</time>
      </trkpt>
      <trkpt lat="60.0004287" lon="17.5151123">
        <ele>40.0321</ele>
        <time>2013-04-21T11:20:53Z</time>
      </trkpt>
      <trkpt lat="60.0003672" lon="17.5151191">
        <ele>39.0707</ele>
        <time>2013-04-21T11:20:54Z</time>
      </trkpt>
      <trkpt lat="60.0003067" lon="17.5151387">
        <ele>39.0707</ele>
        <time>2013-04-21T11:20:55Z</time>
      </trkpt>
      <trkpt lat="60.0002459" lon="17.5151727">
        <ele>37.6287</ele>
        <time>2013-04-21T11:20:56Z</time>
      </trkpt>
      <trkpt lat="60.0001847" lon="17.5152207">
        <ele>37.1481</ele>
        <time>2013-04-21T11:20:57Z</time>
      </trkpt>
      <trkpt lat="60.0001211" lon="17.5152763">
        <ele>36.6675</ele>
        <time>2013-04-21T11:20:58Z</time>
      </trkpt>
      <trkpt lat="60.0000577" lon="17.5153377">
        <ele>35.2255</ele>
        <time>2013-04-21T11:20:59Z</time>
      </trkpt>
      <trkpt lat="59.9999915" lon="17.5153984">
        <ele>34.7449</ele>
        <time>2013-04-21T11:21:00Z</time>
      </trkpt>
      <trkpt lat="59.9999221" lon="17.5154512">
        <ele>33.7834</ele>
        <time>2013-04-21T11:21:01Z</time>
      </trkpt>
      <trkpt lat="59.9998492" lon="17.5154892">
        <ele>33.3029</ele>
        <time>2013-04-21T11:21:02Z</time>
      </trkpt>
      <trkpt lat="59.9997745" lon="17.5155098">
        <ele>32.8223</ele>
        <time>2013-04-21T11:21:03Z</time>
      </trkpt>
      <trkpt lat="59.9997" lon="17.5155125">
        <ele>32.8223</ele>
        <time>2013-04-21T11:21:04Z</time>
      </trkpt>
      <trkpt lat="59.9996273" lon="17.5154964">
        <ele>32.3416</ele>
        <time>2013-04-21T11:21:05Z</time>
      </trkpt>
      <trkpt lat="59.9995573" lon="17.5154646">
        <ele>32.3416</ele>
        <time>2013-04-21T11:21:06Z</time>
      </trkpt>
      <trkpt lat="59.9994902" lon="17.5154213">
        <ele>32.3416</ele>
        <time>2013-04-21T11:21:07Z</time>
      </trkpt>
      <trkpt lat="59.9994257" lon="17.5153698">
        <ele>32.8223</ele>
        <time>2013-04-21T11:21:08Z</time>
      </trkpt>
      <trkpt lat="59.9993636" lon="17.5153135">
        <ele>32.8223</ele>
        <time>2013-04-21T11:21:09Z</time>
      </trkpt>
      <trkpt lat="59.9993035" lon="17.5152549">
        <ele>32.8223</ele>
        <time>2013-04-21T11:21:10Z</time>
      </trkpt>
      <trkpt lat="59.9992441" lon="17.5151937">
        <ele>32.8223</ele>
        <time>2013-04-21T11:21:11Z</time>
      </trkpt>
      <trkpt lat="59.9991862" lon="17.5151267">
        <ele>33.3029</ele>
        <time>2013-04-21T11:21:12Z</time>
      </trkpt>
      <trkpt lat="59.9991338" lon="17.5150508">
        <ele>33.7834</ele>
        <time>2013-04-21T11:21:13Z</time>
      </trkpt>
      <trkpt lat="59.9990849" lon="17.5149659">
        <ele>34.7449</ele>
        <time>2013-04-21T11:21:14Z</time>
      </trkpt>
      <trkpt lat="59.9990394" lon="17.5148763">
        <ele>35.2255</ele>
        <time>2013-04-21T11:21:15Z</time>
      </trkpt>
      <trkpt lat="59.999" lon="17.5147818">
        <ele>35.7061</ele>
        <time>2013-04-21T11:21:16Z</time>
      </trkpt>
      <trkpt lat="59.9989649" lon="17.5146847">
        <ele>36.1868</ele>
        <time>2013-04-21T11:21:17Z</time>
      </trkpt>
      <trkpt lat="59.998935" lon="17.5145935">
        <ele>36.1868</ele>
        <time>2013-04-21T11:21:18Z</time>
      </trkpt>
      <trkpt lat="59.9989096" lon="17.5145043">
        <ele>36.6675</ele>
        <time>2013-04-21T11:21:19Z</time>
      </trkpt>
      <trkpt lat="59.9988818" lon="17.5144181">
        <ele>35.7061</ele>
        <time>2013-04-21T11:21:20Z</time>
      </trkpt>
      <trkpt lat="59.9988489" lon="17.514338">
        <ele>34.2642</ele>
        <time>2013-04-21T11:21:21Z</time>
      </trkpt>
      <trkpt lat="59.9988202" lon="17.5142722">
        <ele>33.3029</ele>
        <time>2013-04-21T11:21:22Z</time>
      </trkpt>
      <trkpt lat="59.9987861" lon="17.5142019">
        <ele>32.8223</ele>
        <time>2013-04-21T11:21:23Z</time>
      </trkpt>
      <trkpt lat="59.9987451" lon="17.5141298">
        <ele>32.8223</ele>
        <time>2013-04-21T11:21:24Z</time>
      </trkpt>
      <trkpt lat="59.9986971" lon="17.5140517">
        <ele>32.8223</ele>
        <time>2013-04-21T11:21:25Z</time>
      </trkpt>
      <trkpt lat="59.9986458" lon="17.5139779">
        <ele>33.3029</ele>
        <time>2013-04-21T11:21:26Z</time>
      </trkpt>
      <trkpt lat="59.9985991" lon="17.5139068">
        <ele>31.3801</ele>
        <time>2013-04-21T11:21:27Z</time>
      </trkpt>
      <trkpt lat="59.9985536" lon="17.5138361">
        <ele>30.4188</ele>
        <time>2013-04-21T11:21:28Z</time>
      </trkpt>
      <trkpt lat="59.9985006" lon="17.5137646">
        <ele>29.9381</ele>
        <time>2013-04-21T11:21:29Z</time>
      </trkpt>
      <trkpt lat="59.9984453" lon="17.5136997">
        <ele>28.9769</ele>
        <time>2013-04-21T11:21:30Z</time>
      </trkpt>
      <trkpt lat="59.9983868" lon="17.5136373">
        <ele>28.4962</ele>
        <time>2013-04-21T11:21:31Z</time>
      </trkpt>
      <trkpt lat="59.9983236" lon="17.5135838">
        <ele>28.0155</ele>
        <time>2013-04-21T11:21:32Z</time>
      </trkpt>
      <trkpt lat="59.998253" lon="17.5135399">
        <ele>28.0155</ele>
        <time>2013-04-21T11:21:33Z</time>
      </trkpt>
      <trkpt lat="59.9981791" lon="17.5135045">
        <ele>28.0155</ele>
        <time>2013-04-21T11:21:34Z</time>
      </trkpt>
      <trkpt lat="59.9981043" lon="17.513473">
        <ele>28.0155</ele>
        <time>2013-04-21T11:21:35Z</time>
      </trkpt>
      <trkpt lat="59.9980295" lon="17.5134451">
        <ele>28.0155</ele>
        <time>2013-04-21T11:21:36Z</time>
      </trkpt>
      <trkpt lat="59.9979549" lon="17.5134201">
        <ele>28.0155</ele>
        <time>2013-04-21T11:21:37Z</time>
      </trkpt>
      <trkpt lat="59.9978776" lon="17.5133927">
        <ele>28.4962</ele>
        <time>2013-04-21T11:21:38Z</time>
      </trkpt>
      <trkpt lat="59.9978009" lon="17.5133686">
        <ele>28.4962</ele>
        <time>2013-04-21T11:21:39Z</time>
      </trkpt>
      <trkpt lat="59.9977248" lon="17.5133461">
        <ele>28.9769</ele>
        <time>2013-04-21T11:21:40Z</time>
      </trkpt>
      <trkpt lat="59.9976493" lon="17.5133241">
        <ele>29.4575</ele>
        <time>2013-04-21T11:21:41Z</time>
      </trkpt>
      <trkpt lat="59.9975741" lon="17.513301">
        <ele>29.4575</ele>
        <time>2013-04-21T11:21:42Z</time>
      </trkpt>
      <trkpt lat="59.9974991" lon="17.5132787">
        <ele>29.4575</ele>
        <time>2013-04-21T11:21:43Z</time>
      </trkpt>
      <trkpt lat="59.9974242" lon="17.5132569">
        <ele>29.9381</ele>
        <time>2013-04-21T11:21:44Z</time>
      </trkpt>
      <trkpt lat="59.9973491" lon="17.5132347">
        <ele>29.9381</ele>
        <time>2013-04-21T11:21:45Z</time>
      </trkpt>
      <trkpt lat="59.9972742" lon="17.5132134">
        <ele>30.4188</ele>
        <time>2013-04-21T11:21:46Z</time>
      </trkpt>
      <trkpt lat="59.9972" lon="17.5131937">
        <ele>30.4188</ele>
        <time>2013-04-21T11:21:47Z</time>
      </trkpt>
      <trkpt lat="59.9971265" lon="17.5131742">
        <ele>30.8995</ele>
        <time>2013-04-21T11:21:48Z</time>
      </trkpt>
      <trkpt lat="59.9970536" lon="17.5131547">
        <ele>30.8995</ele>
        <time>2013-04-21T11:21:49Z</time>
      </trkpt>
      <trkpt lat="59.9969815" lon="17.5131342">
        <ele>30.8995</ele>
        <time>2013-04-21T11:21:50Z</time>
      </trkpt>
      <trkpt lat="59.9969104" lon="17.5131146">
        <ele>30.8995</ele>
        <time>2013-04-21T11:21:51Z</time>
      </trkpt>
      <trkpt lat="59.9968396" lon="17.5130972">
        <ele>31.3801</ele>
        <time>2013-04-21T11:21:52Z</time>
      </trkpt>
      <trkpt lat="59.9967694" lon="17.5130799">
        <ele>31.3801</ele>
        <time>2013-04-21T11:21:53Z</time>
      </trkpt>
      <trkpt lat="59.9966995" lon="17.5130627">
        <ele>31.3801</ele>
        <time>2013-04-21T11:21:54Z</time>
      </trkpt>
      <trkpt lat="59.9966302" lon="17.5130467">
        <ele>31.3801</ele>
        <time>2013-04-21T11:21:55Z</time>
      </trkpt>
      <trkpt lat="59.9965615" lon="17.5130301">
        <ele>31.3801</ele>
        <time>2013-04-21T11:21:56Z</time>
      </trkpt>
      <trkpt lat="59.9964936" lon="17.5130127">
        <ele>30.8995</ele>
        <time>2013-04-21T11:21:57Z</time>
      </trkpt>
      <trkpt lat="59.9964272" lon="17.5129943">
        <ele>30.8995</ele>
        <time>2013-04-21T11:21:58Z</time>
      </trkpt>
      <trkpt lat="59.9963624" lon="17.5129736">
        <ele>30.8995</ele>
        <time>2013-04-21T11:21:59Z</time>
      </trkpt>
      <trkpt lat="59.996298" lon="17.5129534">
        <ele>30.8995</ele>
        <time>2013-04-21T11:22:00Z</time>
      </trkpt>
      <trkpt lat="59.9962336" lon="17.5129345">
        <ele>30.8995</ele>
        <time>2013-04-21T11:22:01Z</time>
      </trkpt>
      <trkpt lat="59.9961698" lon="17.5129156">
        <ele>30.8995</ele>
        <time>2013-04-21T11:22:02Z</time>
      </trkpt>
      <trkpt lat="59.996106" lon="17.5128974">
        <ele>30.4188</ele>
        <time>2013-04-21T11:22:03Z</time>
      </trkpt>
      <trkpt lat="59.9960429" lon="17.5128793">
        <ele>30.4188</ele>
        <time>2013-04-21T11:22:04Z</time>
      </trkpt>
      <trkpt lat="59.9959805" lon="17.5128633">
        <ele>30.4188</ele>
        <time>2013-04-21T11:22:05Z</time>
      </trkpt>
      <trkpt lat="59.9959185" lon="17.5128483">
        <ele>30.4188</ele>
        <time>2013-04-21T11:22:06Z</time>
      </trkpt>
      <trkpt lat="59.9958572" lon="17.5128321">
        <ele>30.4188</ele>
        <time>2013-04-21T11:22:07Z</time>
      </trkpt>
      <trkpt lat="59.9957962" lon="17.512814">
        <ele>30.8995</ele>
        <time>2013-04-21T11:22:08Z</time>
      </trkpt>
      <trkpt lat="59.9957357" lon="17.5127927">
        <ele>30.8995</ele>
        <time>2013-04-21T11:22:09Z</time>
      </trkpt>
      <trkpt lat="59.9956761" lon="17.5127685">
        <ele>30.8995</ele>
        <time>2013-04-21T11:22:10Z</time>
      </trkpt>
      <trkpt lat="59.9956176" lon="17.5127413">
        <ele>30.8995</ele>
        <time>2013-04-21T11:22:11Z</time>
      </trkpt>
      <trkpt lat="59.9955607" lon="17.5127032">
        <ele>30.8995</ele>
        <time>2013-04-21T11:22:12Z</time>
      </trkpt>
      <trkpt lat="59.9955056" lon="17.5126504">
        <ele>31.3801</ele>
        <time>2013-04-21T11:22:13Z</time>
      </trkpt>
      <trkpt lat="59.9954527" lon="17.512589">
        <ele>31.3801</ele>
        <time>2013-04-21T11:22:14Z</time>
      </trkpt>
      <trkpt lat="59.9954036" lon="17.5125186">
        <ele>31.3801</ele>
        <time>2013-04-21T11:22:15Z</time>
      </trkpt>
      <trkpt lat="59.9953581" lon="17.5124367">
        <ele>31.3801</ele>
        <time>2013-04-21T11:22:16Z</time>
      </trkpt>
      <trkpt lat="59.9953161" lon="17.5123432">
        <ele>31.3801</ele>
        <time>2013-04-21T11:22:17Z</time>
      </trkpt>
      <trkpt lat="59.9952782" lon="17.5122389">
        <ele>31.8607</ele>
        <time>2013-04-21T11:22:18Z</time>
      </trkpt>
      <trkpt lat="59.995245" lon="17.5121255">
        <ele>31.8607</ele>
        <time>2013-04-21T11:22:19Z</time>
      </trkpt>
      <trkpt lat="59.9952176" lon="17.5120043">
        <ele>31.8607</ele>
        <time>2013-04-21T11:22:20Z</time>
      </trkpt>
      <trkpt lat="59.9951973" lon="17.5118768">
        <ele>31.3801</ele>
        <time>2013-04-21T11:22:21Z</time>
      </trkpt>
      <trkpt lat="59.9951829" lon="17.5117436">
        <ele>30.8995</ele>
        <time>2013-04-21T11:22:22Z</time>
      </trkpt>
      <trkpt lat="59.9951752" lon="17.5116079">
        <ele>30.4188</ele>
        <time>2013-04-21T11:22:23Z</time>
      </trkpt>
      <trkpt lat="59.9951724" lon="17.5114719">
        <ele>29.9381</ele>
        <time>2013-04-21T11:22:24Z</time>
      </trkpt>
      <trkpt lat="59.995171" lon="17.5113362">
        <ele>29.9381</ele>
        <time>2013-04-21T11:22:25Z</time>
      </trkpt>
      <trkpt lat="59.9951721" lon="17.5112016">
        <ele>29.9381</ele>
        <time>2013-04-21T11:22:26Z</time>
      </trkpt>
      <trkpt lat="59.9951782" lon="17.5110658">
        <ele>29.4575</ele>
        <time>2013-04-21T11:22:27Z</time>
      </trkpt>
      <trkpt lat="59.9951866" lon="17.5109296">
        <ele>29.4575</ele>
        <time>2013-04-21T11:22:28Z</time>
      </trkpt>
      <trkpt lat="59.9951947" lon="17.5107948">
        <ele>29.4575</ele>
        <time>2013-04-21T11:22:29Z</time>
      </trkpt>
      <trkpt lat="59.9952016" lon="17.5106613">
        <ele>29.4575</ele>
        <time>2013-04-21T11:22:30Z</time>
      </trkpt>
      <trkpt lat="59.99521" lon="17.5105274">
        <ele>29.4575</ele>
        <time>2013-04-21T11:22:31Z</time>
      </trkpt>
      <trkpt lat="59.9952197" lon="17.5103924">
        <ele>29.4575</ele>
        <time>2013-04-21T11:22:32Z</time>
      </trkpt>
      <trkpt lat="59.995229" lon="17.5102575">
        <ele>29.4575</ele>
        <time>2013-04-21T11:22:33Z</time>
      </trkpt>
      <trkpt lat="59.9952368" lon="17.5101235">
        <ele>28.9769</ele>
        <time>2013-04-21T11:22:34Z</time>
      </trkpt>
      <trkpt lat="59.9952447" lon="17.5099913">
        <ele>28.9769</ele>
        <time>2013-04-21T11:22:35Z</time>
      </trkpt>
      <trkpt lat="59.9952523" lon="17.5098614">
        <ele>28.9769</ele>
        <time>2013-04-21T11:22:36Z</time>
      </trkpt>
      <trkpt lat="59.995261" lon="17.5097333">
        <ele>28.9769</ele>
        <time>2013-04-21T11:22:37Z</time>
      </trkpt>
      <trkpt lat="59.995271" lon="17.5096069">
        <ele>28.9769</ele>
        <time>2013-04-21T11:22:38Z</time>
      </trkpt>
      <trkpt lat="59.9952815" lon="17.5094822">
        <ele>28.4962</ele>
        <time>2013-04-21T11:22:39Z</time>
      </trkpt>
      <trkpt lat="59.9952929" lon="17.5093573">
        <ele>28.4962</ele>
        <time>2013-04-21T11:22:40Z</time>
      </trkpt>
      <trkpt lat="59.9953073" lon="17.5092356">
        <ele>28.9769</ele>
        <time>2013-04-21T11:22:41Z</time>
      </trkpt>
      <trkpt lat="59.9953217" lon="17.5091153">
        <ele>28.4962</ele>
        <time>2013-04-21T11:22:42Z</time>
      </trkpt>
      <trkpt lat="59.9953355" lon="17.5089962">
        <ele>28.4962</ele>
        <time>2013-04-21T11:22:43Z</time>
      </trkpt>
      <trkpt lat="59.9953514" lon="17.5088798">
        <ele>28.4962</ele>
        <time>2013-04-21T11:22:44Z</time>
      </trkpt>
      <trkpt lat="59.9953684" lon="17.5087667">
        <ele>28.4962</ele>
        <time>2013-04-21T11:22:45Z</time>
      </trkpt>
      <trkpt lat="59.995385" lon="17.5086556">
        <ele>28.4962</ele>
        <time>2013-04-21T11:22:46Z</time>
      </trkpt>
      <trkpt lat="59.9954018" lon="17.5085455">
        <ele>28.4962</ele>
        <time>2013-04-21T11:22:47Z</time>
      </trkpt>
      <trkpt lat="59.9954186" lon="17.5084347">
        <ele>28.9769</ele>
        <time>2013-04-21T11:22:48Z</time>
      </trkpt>
      <trkpt lat="59.995436" lon="17.5083233">
        <ele>28.9769</ele>
        <time>2013-04-21T11:22:49Z</time>
      </trkpt>
      <trkpt lat="59.9954538" lon="17.5082098">
        <ele>28.9769</ele>
        <time>2013-04-21T11:22:50Z</time>
      </trkpt>
      <trkpt lat="59.9954711" lon="17.5080965">
        <ele>28.9769</ele>
        <time>2013-04-21T11:22:51Z</time>
      </trkpt>
      <trkpt lat="59.9954879" lon="17.5079831">
        <ele>28.9769</ele>
        <time>2013-04-21T11:22:52Z</time>
      </trkpt>
      <trkpt lat="59.9955051" lon="17.5078713">
        <ele>28.9769</ele>
        <time>2013-04-21T11:22:53Z</time>
      </trkpt>
      <trkpt lat="59.9955239" lon="17.5077603">
        <ele>28.9769</ele>
        <time>2013-04-21T11:22:54Z</time>
      </trkpt>
      <trkpt lat="59.9955427" lon="17.5076484">
        <ele>28.9769</ele>
        <time>2013-04-21T11:22:55Z</time>
      </trkpt>
      <trkpt lat="59.9955627" lon="17.5075356">
        <ele>29.4575</ele>
        <time>2013-04-21T11:22:56Z</time>
      </trkpt>
      <trkpt lat="59.9955838" lon="17.5074248">
        <ele>29.4575</ele>
        <time>2013-04-21T11:22:57Z</time>
      </trkpt>
      <trkpt lat="59.9956061" lon="17.5073159">
        <ele>29.9381</ele>
        <time>2013-04-21T11:22:58Z</time>
      </trkpt>
      <trkpt lat="59.9956304" lon="17.5072091">
        <ele>29.9381</ele>
        <time>2013-04-21T11:22:59Z</time>
      </trkpt>
      <trkpt lat="59.9956554" lon="17.5071004">
        <ele>29.9381</ele>
        <time>2013-04-21T11:23:00Z</time>
      </trkpt>
      <trkpt lat="59.9956798" lon="17.5069905">
        <ele>29.9381</ele>
        <time>2013-04-21T11:23:01Z</time>
      </trkpt>
      <trkpt lat="59.9957071" lon="17.5068811">
        <ele>30.4188</ele>
        <time>2013-04-21T11:23:02Z</time>
      </trkpt>
      <trkpt lat="59.9957362" lon="17.5067728">
        <ele>30.4188</ele>
        <time>2013-04-21T11:23:03Z</time>
      </trkpt>
      <trkpt lat="59.9957683" lon="17.5066647">
        <ele>30.8995</ele>
        <time>2013-04-21T11:23:04Z</time>
      </trkpt>
      <trkpt lat="59.9958014" lon="17.5065575">
        <ele>31.3801</ele>
        <time>2013-04-21T11:23:05Z</time>
      </trkpt>
      <trkpt lat="59.9958354" lon="17.5064518">
        <ele>31.3801</ele>
        <time>2013-04-21T11:23:06Z</time>
      </trkpt>
      <trkpt lat="59.9958689" lon="17.5063472">
        <ele>31.3801</ele>
        <time>2013-04-21T11:23:07Z</time>
      </trkpt>
      <trkpt lat="59.9959022" lon="17.506242">
        <ele>31.3801</ele>
        <time>2013-04-21T11:23:08Z</time>
      </trkpt>
      <trkpt lat="59.9959356" lon="17.5061369">
        <ele>31.8607</ele>
        <time>2013-04-21T11:23:09Z</time>
      </trkpt>
      <trkpt lat="59.9959698" lon="17.5060323">
        <ele>31.8607</ele>
        <time>2013-04-21T11:23:10Z</time>
      </trkpt>
      <trkpt lat="59.9960045" lon="17.5059269">
        <ele>32.3416</ele>
        <time>2013-04-21T11:23:11Z</time>
      </trkpt>
      <trkpt lat="59.9960383" lon="17.5058191">
        <ele>32.3416</ele>
        <time>2013-04-21T11:23:12Z</time>
      </trkpt>
      <trkpt lat="59.9960724" lon="17.5057112">
        <ele>32.8223</ele>
        <time>2013-04-21T11:23:13Z</time>
      </trkpt>
      <trkpt lat="59.996107" lon="17.5056028">
        <ele>32.8223</ele>
        <time>2013-04-21T11:23:14Z</time>
      </trkpt>
      <trkpt lat="59.9961413" lon="17.5054941">
        <ele>33.3029</ele>
        <time>2013-04-21T11:23:15Z</time>
      </trkpt>
      <trkpt lat="59.9961744" lon="17.5053866">
        <ele>33.7834</ele>
        <time>2013-04-21T11:23:16Z</time>
      </trkpt>
      <trkpt lat="59.9962065" lon="17.5052804">
        <ele>33.3029</ele>
        <time>2013-04-21T11:23:17Z</time>
      </trkpt>
      <trkpt lat="59.9962381" lon="17.5051749">
        <ele>33.3029</ele>
        <time>2013-04-21T11:23:18Z</time>
      </trkpt>
      <trkpt lat="59.9962683" lon="17.5050698">
        <ele>33.3029</ele>
        <time>2013-04-21T11:23:19Z</time>
      </trkpt>
      <trkpt lat="59.9962981" lon="17.5049657">
        <ele>33.3029</ele>
        <time>2013-04-21T11:23:20Z</time>
      </trkpt>
      <trkpt lat="59.9963277" lon="17.5048617">
        <ele>32.8223</ele>
        <time>2013-04-21T11:23:21Z</time>
      </trkpt>
      <trkpt lat="59.9963548" lon="17.504755">
        <ele>32.8223</ele>
        <time>2013-04-21T11:23:22Z</time>
      </trkpt>
      <trkpt lat="59.9963754" lon="17.5046431">
        <ele>32.8223</ele>
        <time>2013-04-21T11:23:23Z</time>
      </trkpt>
      <trkpt lat="59.9963837" lon="17.5045284">
        <ele>32.3416</ele>
        <time>2013-04-21T11:23:24Z</time>
      </trkpt>
      <trkpt lat="59.9963765" lon="17.5044166">
        <ele>31.8607</ele>
        <time>2013-04-21T11:23:25Z</time>
      </trkpt>
      <trkpt lat="59.9963624" lon="17.5043117">
        <ele>31.8607</ele>
        <time>2013-04-21T11:23:26Z</time>
      </trkpt>
      <trkpt lat="59.9963356" lon="17.504215">
        <ele>31.3801</ele>
        <time>2013-04-21T11:23:27Z</time>
      </trkpt>
      <trkpt lat="59.9962905" lon="17.5041337">
        <ele>30.8995</ele>
        <time>2013-04-21T11:23:28Z</time>
      </trkpt>
      <trkpt lat="59.9962247" lon="17.5040695">
        <ele>30.4188</ele>
        <time>2013-04-21T11:23:29Z</time>
      </trkpt>
      <trkpt lat="59.9961541" lon="17.5040139">
        <ele>31.3801</ele>
        <time>2013-04-21T11:23:30Z</time>
      </trkpt>
      <trkpt lat="59.9960838" lon="17.5039543">
        <ele>30.8995</ele>
        <time>2013-04-21T11:23:31Z</time>
      </trkpt>
      <trkpt lat="59.9960132" lon="17.5038969">
        <ele>30.8995</ele>
        <time>2013-04-21T11:23:32Z</time>
      </trkpt>
      <trkpt lat="59.9959447" lon="17.5038433">
        <ele>29.9381</ele>
        <time>2013-04-21T11:23:33Z</time>
      </trkpt>
      <trkpt lat="59.9958793" lon="17.5037849">
        <ele>28.9769</ele>
        <time>2013-04-21T11:23:34Z</time>
      </trkpt>
      <trkpt lat="59.9958123" lon="17.5037174">
        <ele>28.9769</ele>
        <time>2013-04-21T11:23:35Z</time>
      </trkpt>
      <trkpt lat="59.9957512" lon="17.5036321">
        <ele>28.4962</ele>
        <time>2013-04-21T11:23:36Z</time>
      </trkpt>
      <trkpt lat="59.9957035" lon="17.5035249">
        <ele>28.4962</ele>
        <time>2013-04-21T11:23:37Z</time>
      </trkpt>
      <trkpt lat="59.9956766" lon="17.5034044">
        <ele>28.9769</ele>
        <time>2013-04-21T11:23:38Z</time>
      </trkpt>
      <trkpt lat="59.9956757" lon="17.5032754">
        <ele>28.4962</ele>
        <time>2013-04-21T11:23:39Z</time>
      </trkpt>
      <trkpt lat="59.9956919" lon="17.50315">
        <ele>27.5349</ele>
        <time>2013-04-21T11:23:40Z</time>
      </trkpt>
      <trkpt lat="59.9957145" lon="17.5030263">
        <ele>27.5349</ele>
        <time>2013-04-21T11:23:41Z</time>
      </trkpt>
      <trkpt lat="59.9957351" lon="17.5028976">
        <ele>27.5349</ele>
        <time>2013-04-21T11:23:42Z</time>
      </trkpt>
      <trkpt lat="59.9957508" lon="17.5027705">
        <ele>27.5349</ele>
        <time>2013-04-21T11:23:43Z</time>
      </trkpt>
      <trkpt lat="59.9957532" lon="17.5026326">
        <ele>25.6123</ele>
        <time>2013-04-21T11:23:44Z</time>
      </trkpt>
      <trkpt lat="59.9957468" lon="17.5024915">
        <ele>25.6123</ele>
        <time>2013-04-21T11:23:45Z</time>
      </trkpt>
      <trkpt lat="59.9957274" lon="17.5023368">
        <ele>26.0929</ele>
        <time>2013-04-21T11:23:46Z</time>
      </trkpt>
      <trkpt lat="59.9957004" lon="17.5021889">
        <ele>26.0929</ele>
        <time>2013-04-21T11:23:47Z</time>
      </trkpt>
      <trkpt lat="59.9956622" lon="17.5020446">
        <ele>25.6123</ele>
        <time>2013-04-21T11:23:48Z</time>
      </trkpt>
      <trkpt lat="59.9956118" lon="17.5019176">
        <ele>26.0929</ele>
        <time>2013-04-21T11:23:49Z</time>
      </trkpt>
      <trkpt lat="59.9955553" lon="17.5018038">
        <ele>25.6123</ele>
        <time>2013-04-21T11:23:50Z</time>
      </trkpt>
      <trkpt lat="59.9954886" lon="17.5017191">
        <ele>26.0929</ele>
        <time>2013-04-21T11:23:51Z</time>
      </trkpt>
      <trkpt lat="59.9954192" lon="17.5016549">
        <ele>27.5349</ele>
        <time>2013-04-21T11:23:52Z</time>
      </trkpt>
      <trkpt lat="59.9953487" lon="17.5016072">
        <ele>28.9769</ele>
        <time>2013-04-21T11:23:53Z</time>
      </trkpt>
      <trkpt lat="59.995283" lon="17.5015696">
        <ele>29.9381</ele>
        <time>2013-04-21T11:23:54Z</time>
      </trkpt>
      <trkpt lat="59.9952227" lon="17.50153">
        <ele>30.8995</ele>
        <time>2013-04-21T11:23:55Z</time>
      </trkpt>
      <trkpt lat="59.9951667" lon="17.5014846">
        <ele>32.3416</ele>
        <time>2013-04-21T11:23:56Z</time>
      </trkpt>
      <trkpt lat="59.9951155" lon="17.5014385">
        <ele>32.3416</ele>
        <time>2013-04-21T11:23:57Z</time>
      </trkpt>
      <trkpt lat="59.9950698" lon="17.5013893">
        <ele>33.3029</ele>
        <time>2013-04-21T11:23:58Z</time>
      </trkpt>
      <trkpt lat="59.9950229" lon="17.5013371">
        <ele>34.2642</ele>
        <time>2013-04-21T11:23:59Z</time>
      </trkpt>
      <trkpt lat="59.9949736" lon="17.5012961">
        <ele>34.7449</ele>
        <time>2013-04-21T11:24:00Z</time>
      </trkpt>
      <trkpt lat="59.9949265" lon="17.5012484">
        <ele>34.7449</ele>
        <time>2013-04-21T11:24:01Z</time>
      </trkpt>
      <trkpt lat="59.9948773" lon="17.5011962">
        <ele>33.3029</ele>
        <time>2013-04-21T11:24:02Z</time>
      </trkpt>
      <trkpt lat="59.9948284" lon="17.5011327">
        <ele>33.3029</ele>
        <time>2013-04-21T11:24:03Z</time>
      </trkpt>
      <trkpt lat="59.9947788" lon="17.501069">
        <ele>33.3029</ele>
        <time>2013-04-21T11:24:04Z</time>
      </trkpt>
      <trkpt lat="59.9947286" lon="17.5010019">
        <ele>32.3416</ele>
        <time>2013-04-21T11:24:05Z</time>
      </trkpt>
      <trkpt lat="59.9946774" lon="17.5009286">
        <ele>32.3416</ele>
        <time>2013-04-21T11:24:06Z</time>
      </trkpt>
      <trkpt lat="59.9946275" lon="17.5008597">
        <ele>32.3416</ele>
        <time>2013-04-21T11:24:07Z</time>
      </trkpt>
      <trkpt lat="59.9945788" lon="17.5007952">
        <ele>31.8607</ele>
        <time>2013-04-21T11:24:08Z</time>
      </trkpt>
      <trkpt lat="59.9945295" lon="17.5007375">
        <ele>31.3801</ele>
        <time>2013-04-21T11:24:09Z</time>
      </trkpt>
      <trkpt lat="59.9944729" lon="17.5006993">
        <ele>31.3801</ele>
        <time>2013-04-21T11:24:10Z</time>
      </trkpt>
      <trkpt lat="59.9944116" lon="17.5006936">
        <ele>30.8995</ele>
        <time>2013-04-21T11:24:11Z</time>
      </trkpt>
      <trkpt lat="59.9943527" lon="17.5007214">
        <ele>30.8995</ele>
        <time>2013-04-21T11:24:12Z</time>
      </trkpt>
      <trkpt lat="59.9943039" lon="17.5007817">
        <ele>30.8995</ele>
        <time>2013-04-21T11:24:13Z</time>
      </trkpt>
      <trkpt lat="59.9942574" lon="17.5008589">
        <ele>30.4188</ele>
        <time>2013-04-21T11:24:14Z</time>
      </trkpt>
      <trkpt lat="59.9942122" lon="17.5009564">
        <ele>30.4188</ele>
        <time>2013-04-21T11:24:15Z</time>
      </trkpt>
      <trkpt lat="59.9941692" lon="17.5010617">
        <ele>30.4188</ele>
        <time>2013-04-21T11:24:16Z</time>
      </trkpt>
      <trkpt lat="59.9941294" lon="17.5011681">
        <ele>30.4188</ele>
        <time>2013-04-21T11:24:17Z</time>
      </trkpt>
      <trkpt lat="59.9940895" lon="17.5012754">
        <ele>30.4188</ele>
        <time>2013-04-21T11:24:18Z</time>
      </trkpt>
      <trkpt lat="59.9940479" lon="17.5013795">
        <ele>29.9381</ele>
        <time>2013-04-21T11:24:19Z</time>
      </trkpt>
      <trkpt lat="59.9940066" lon="17.5014855">
        <ele>29.9381</ele>
        <time>2013-04-21T11:24:20Z</time>
      </trkpt>
      <trkpt lat="59.9939672" lon="17.501596">
        <ele>29.9381</ele>
        <time>2013-04-21T11:24:21Z</time>
      </trkpt>
      <trkpt lat="59.9939297" lon="17.5017091">
        <ele>29.9381</ele>
        <time>2013-04-21T11:24:22Z</time>
      </trkpt>
      <trkpt lat="59.9938922" lon="17.501822">
        <ele>29.9381</ele>
        <time>2013-04-21T11:24:23Z</time>
      </trkpt>
      <trkpt lat="59.9938528" lon="17.5019322">
        <ele>29.9381</ele>
        <time>2013-04-21T11:24:24Z</time>
      </trkpt>
      <trkpt lat="59.9938126" lon="17.5020425">
        <ele>30.4188</ele>
        <time>2013-04-21T11:24:25Z</time>
      </trkpt>
      <trkpt lat="59.9937698" lon="17.5021518">
        <ele>29.9381</ele>
        <time>2013-04-21T11:24:26Z</time>
      </trkpt>
      <trkpt lat="59.9937257" lon="17.5022586">
        <ele>29.9381</ele>
        <time>2013-04-21T11:24:27Z</time>
      </trkpt>
      <trkpt lat="59.9936831" lon="17.5023658">
        <ele>29.4575</ele>
        <time>2013-04-21T11:24:28Z</time>
      </trkpt>
      <trkpt lat="59.993644" lon="17.502474">
        <ele>29.4575</ele>
        <time>2013-04-21T11:24:29Z</time>
      </trkpt>
      <trkpt lat="59.9936039" lon="17.5025854">
        <ele>29.4575</ele>
        <time>2013-04-21T11:24:30Z</time>
      </trkpt>
      <trkpt lat="59.9935635" lon="17.5026941">
        <ele>29.4575</ele>
        <time>2013-04-21T11:24:31Z</time>
      </trkpt>
      <trkpt lat="59.9935248" lon="17.502803">
        <ele>29.9381</ele>
        <time>2013-04-21T11:24:32Z</time>
      </trkpt>
      <trkpt lat="59.9934854" lon="17.5029095">
        <ele>29.9381</ele>
        <time>2013-04-21T11:24:33Z</time>
      </trkpt>
      <trkpt lat="59.9934436" lon="17.5030147">
        <ele>29.9381</ele>
        <time>2013-04-21T11:24:34Z</time>
      </trkpt>
      <trkpt lat="59.993401" lon="17.5031252">
        <ele>29.9381</ele>
        <time>2013-04-21T11:24:35Z</time>
      </trkpt>
      <trkpt lat="59.9933599" lon="17.5032381">
        <ele>29.9381</ele>
        <time>2013-04-21T11:24:36Z</time>
      </trkpt>
      <trkpt lat="59.9933171" lon="17.5033521">
        <ele>29.9381</ele>
        <time>2013-04-21T11:24:37Z</time>
      </trkpt>
      <trkpt lat="59.9932728" lon="17.5034619">
        <ele>29.9381</ele>
        <time>2013-04-21T11:24:38Z</time>
      </trkpt>
      <trkpt lat="59.9932269" lon="17.5035705">
        <ele>28.9769</ele>
        <time>2013-04-21T11:24:39Z</time>
      </trkpt>
      <trkpt lat="59.993182" lon="17.5036756">
        <ele>28.9769</ele>
        <time>2013-04-21T11:24:40Z</time>
      </trkpt>
      <trkpt lat="59.9931364" lon="17.5037679">
        <ele>28.9769</ele>
        <time>2013-04-21T11:24:41Z</time>
      </trkpt>
      <trkpt lat="59.9930871" lon="17.5038597">
        <ele>28.9769</ele>
        <time>2013-04-21T11:24:42Z</time>
      </trkpt>
      <trkpt lat="59.9930368" lon="17.5039595">
        <ele>28.9769</ele>
        <time>2013-04-21T11:24:43Z</time>
      </trkpt>
      <trkpt lat="59.9929853" lon="17.5040591">
        <ele>28.4962</ele>
        <time>2013-04-21T11:24:44Z</time>
      </trkpt>
      <trkpt lat="59.9929326" lon="17.5041565">
        <ele>28.4962</ele>
        <time>2013-04-21T11:24:45Z</time>
      </trkpt>
      <trkpt lat="59.9928804" lon="17.504255">
        <ele>28.4962</ele>
        <time>2013-04-21T11:24:46Z</time>
      </trkpt>
      <trkpt lat="59.9928296" lon="17.5043466">
        <ele>28.4962</ele>
        <time>2013-04-21T11:24:47Z</time>
      </trkpt>
      <trkpt lat="59.9927798" lon="17.5044326">
        <ele>28.4962</ele>
        <time>2013-04-21T11:24:48Z</time>
      </trkpt>
      <trkpt lat="59.9927307" lon="17.5045215">
        <ele>28.4962</ele>
        <time>2013-04-21T11:24:49Z</time>
      </trkpt>
      <trkpt lat="59.9926835" lon="17.5046103">
        <ele>28.4962</ele>
        <time>2013-04-21T11:24:50Z</time>
      </trkpt>
      <trkpt lat="59.992636" lon="17.5046962">
        <ele>28.4962</ele>
        <time>2013-04-21T11:24:51Z</time>
      </trkpt>
      <trkpt lat="59.9925893" lon="17.5047796">
        <ele>28.4962</ele>
        <time>2013-04-21T11:24:52Z</time>
      </trkpt>
      <trkpt lat="59.9925421" lon="17.5048622">
        <ele>28.9769</ele>
        <time>2013-04-21T11:24:53Z</time>
      </trkpt>
      <trkpt lat="59.9924948" lon="17.5049459">
        <ele>29.4575</ele>
        <time>2013-04-21T11:24:54Z</time>
      </trkpt>
      <trkpt lat="59.992448" lon="17.505029">
        <ele>29.4575</ele>
        <time>2013-04-21T11:24:55Z</time>
      </trkpt>
      <trkpt lat="59.9924016" lon="17.5051119">
        <ele>29.9381</ele>
        <time>2013-04-21T11:24:56Z</time>
      </trkpt>
      <trkpt lat="59.9923566" lon="17.5051944">
        <ele>30.4188</ele>
        <time>2013-04-21T11:24:57Z</time>
      </trkpt>
      <trkpt lat="59.992312" lon="17.5052776">
        <ele>30.4188</ele>
        <time>2013-04-21T11:24:58Z</time>
      </trkpt>
      <trkpt lat="59.9922679" lon="17.5053615">
        <ele>30.8995</ele>
        <time>2013-04-21T11:24:59Z</time>
      </trkpt>
      <trkpt lat="59.9922237" lon="17.5054444">
        <ele>30.8995</ele>
        <time>2013-04-21T11:25:00Z</time>
      </trkpt>
      <trkpt lat="59.9921791" lon="17.5055247">
        <ele>30.8995</ele>
        <time>2013-04-21T11:25:01Z</time>
      </trkpt>
      <trkpt lat="59.9921342" lon="17.5056033">
        <ele>31.3801</ele>
        <time>2013-04-21T11:25:02Z</time>
      </trkpt>
      <trkpt lat="59.9920889" lon="17.5056789">
        <ele>31.3801</ele>
        <time>2013-04-21T11:25:03Z</time>
      </trkpt>
      <trkpt lat="59.9920433" lon="17.5057515">
        <ele>31.3801</ele>
        <time>2013-04-21T11:25:04Z</time>
      </trkpt>
      <trkpt lat="59.9919977" lon="17.5058219">
        <ele>31.3801</ele>
        <time>2013-04-21T11:25:05Z</time>
      </trkpt>
      <trkpt lat="59.9919507" lon="17.5058877">
        <ele>31.3801</ele>
        <time>2013-04-21T11:25:06Z</time>
      </trkpt>
      <trkpt lat="59.9919018" lon="17.5059472">
        <ele>31.3801</ele>
        <time>2013-04-21T11:25:07Z</time>
      </trkpt>
      <trkpt lat="59.9918511" lon="17.5059999">
        <ele>31.8607</ele>
        <time>2013-04-21T11:25:08Z</time>
      </trkpt>
      <trkpt lat="59.9917986" lon="17.5060479">
        <ele>31.8607</ele>
        <time>2013-04-21T11:25:09Z</time>
      </trkpt>
      <trkpt lat="59.9917449" lon="17.5060886">
        <ele>31.8607</ele>
        <time>2013-04-21T11:25:10Z</time>
      </trkpt>
      <trkpt lat="59.9916898" lon="17.5061261">
        <ele>32.3416</ele>
        <time>2013-04-21T11:25:11Z</time>
      </trkpt>
      <trkpt lat="59.9916342" lon="17.5061569">
        <ele>32.8223</ele>
        <time>2013-04-21T11:25:12Z</time>
      </trkpt>
      <trkpt lat="59.9915792" lon="17.5061783">
        <ele>33.3029</ele>
        <time>2013-04-21T11:25:13Z</time>
      </trkpt>
      <trkpt lat="59.991524" lon="17.5061947">
        <ele>33.7834</ele>
        <time>2013-04-21T11:25:14Z</time>
      </trkpt>
      <trkpt lat="59.9914686" lon="17.5062068">
        <ele>34.2642</ele>
        <time>2013-04-21T11:25:15Z</time>
      </trkpt>
      <trkpt lat="59.9914128" lon="17.5062142">
        <ele>34.7449</ele>
        <time>2013-04-21T11:25:16Z</time>
      </trkpt>
      <trkpt lat="59.9913564" lon="17.5062172">
        <ele>34.7449</ele>
        <time>2013-04-21T11:25:17Z</time>
      </trkpt>
      <trkpt lat="59.9912983" lon="17.5062177">
        <ele>35.2255</ele>
        <time>2013-04-21T11:25:18Z</time>
      </trkpt>
      <trkpt lat="59.9912388" lon="17.5062183">
        <ele>35.2255</ele>
        <time>2013-04-21T11:25:19Z</time>
      </trkpt>
      <trkpt lat="59.9911787" lon="17.5062187">
        <ele>35.2255</ele>
        <time>2013-04-21T11:25:20Z</time>
      </trkpt>
      <trkpt lat="59.9911181" lon="17.5062187">
        <ele>35.7061</ele>
        <time>2013-04-21T11:25:21Z</time>
      </trkpt>
      <trkpt lat="59.991057" lon="17.5062211">
        <ele>35.7061</ele>
        <time>2013-04-21T11:25:22Z</time>
      </trkpt>
      <trkpt lat="59.9909948" lon="17.5062253">
        <ele>35.7061</ele>
        <time>2013-04-21T11:25:23Z</time>
      </trkpt>
      <trkpt lat="59.9909326" lon="17.5062313">
        <ele>35.7061</ele>
        <time>2013-04-21T11:25:24Z</time>
      </trkpt>
      <trkpt lat="59.9908696" lon="17.50624">
        <ele>35.7061</ele>
        <time>2013-04-21T11:25:25Z</time>
      </trkpt>
      <trkpt lat="59.9908076" lon="17.5062498">
        <ele>35.7061</ele>
        <time>2013-04-21T11:25:26Z</time>
      </trkpt>
      <trkpt lat="59.9907452" lon="17.5062613">
        <ele>35.7061</ele>
        <time>2013-04-21T11:25:27Z</time>
      </trkpt>
      <trkpt lat="59.9906843" lon="17.5062794">
        <ele>36.1868</ele>
        <time>2013-04-21T11:25:28Z</time>
      </trkpt>
      <trkpt lat="59.9906256" lon="17.5063037">
        <ele>36.1868</ele>
        <time>2013-04-21T11:25:29Z</time>
      </trkpt>
      <trkpt lat="59.9905674" lon="17.5063338">
        <ele>36.1868</ele>
        <time>2013-04-21T11:25:30Z</time>
      </trkpt>
      <trkpt lat="59.9905092" lon="17.5063688">
        <ele>36.1868</ele>
        <time>2013-04-21T11:25:31Z</time>
      </trkpt>
      <trkpt lat="59.9904505" lon="17.5064133">
        <ele>36.1868</ele>
        <time>2013-04-21T11:25:32Z</time>
      </trkpt>
      <trkpt lat="59.990395" lon="17.5064789">
        <ele>35.7061</ele>
        <time>2013-04-21T11:25:33Z</time>
      </trkpt>
      <trkpt lat="59.9903416" lon="17.5065565">
        <ele>35.2255</ele>
        <time>2013-04-21T11:25:34Z</time>
      </trkpt>
      <trkpt lat="59.9902877" lon="17.5066341">
        <ele>35.2255</ele>
        <time>2013-04-21T11:25:35Z</time>
      </trkpt>
      <trkpt lat="59.9902339" lon="17.5067149">
        <ele>35.2255</ele>
        <time>2013-04-21T11:25:36Z</time>
      </trkpt>
      <trkpt lat="59.990183" lon="17.5068034">
        <ele>34.7449</ele>
        <time>2013-04-21T11:25:37Z</time>
      </trkpt>
      <trkpt lat="59.9901334" lon="17.5068937">
        <ele>34.7449</ele>
        <time>2013-04-21T11:25:38Z</time>
      </trkpt>
      <trkpt lat="59.9900837" lon="17.5069738">
        <ele>34.7449</ele>
        <time>2013-04-21T11:25:39Z</time>
      </trkpt>
      <trkpt lat="59.9900337" lon="17.5070518">
        <ele>34.7449</ele>
        <time>2013-04-21T11:25:40Z</time>
      </trkpt>
      <trkpt lat="59.9899841" lon="17.5071325">
        <ele>35.2255</ele>
        <time>2013-04-21T11:25:41Z</time>
      </trkpt>
      <trkpt lat="59.9899334" lon="17.5072159">
        <ele>35.2255</ele>
        <time>2013-04-21T11:25:42Z</time>
      </trkpt>
      <trkpt lat="59.989882" lon="17.5072983">
        <ele>35.2255</ele>
        <time>2013-04-21T11:25:43Z</time>
      </trkpt>
      <trkpt lat="59.9898303" lon="17.5073781">
        <ele>35.7061</ele>
        <time>2013-04-21T11:25:44Z</time>
      </trkpt>
      <trkpt lat="59.9897771" lon="17.5074609">
        <ele>35.7061</ele>
        <time>2013-04-21T11:25:45Z</time>
      </trkpt>
      <trkpt lat="59.989721" lon="17.5075515">
        <ele>35.7061</ele>
        <time>2013-04-21T11:25:46Z</time>
      </trkpt>
      <trkpt lat="59.9896649" lon="17.5076394">
        <ele>35.7061</ele>
        <time>2013-04-21T11:25:47Z</time>
      </trkpt>
      <trkpt lat="59.989609" lon="17.5077251">
        <ele>35.7061</ele>
        <time>2013-04-21T11:25:48Z</time>
      </trkpt>
      <trkpt lat="59.9895527" lon="17.507812">
        <ele>35.7061</ele>
        <time>2013-04-21T11:25:49Z</time>
      </trkpt>
      <trkpt lat="59.9894966" lon="17.5078981">
        <ele>35.2255</ele>
        <time>2013-04-21T11:25:50Z</time>
      </trkpt>
      <trkpt lat="59.9894408" lon="17.5079799">
        <ele>35.2255</ele>
        <time>2013-04-21T11:25:51Z</time>
      </trkpt>
      <trkpt lat="59.9893853" lon="17.5080572">
        <ele>35.2255</ele>
        <time>2013-04-21T11:25:52Z</time>
      </trkpt>
      <trkpt lat="59.9893304" lon="17.5081287">
        <ele>35.2255</ele>
        <time>2013-04-21T11:25:53Z</time>
      </trkpt>
      <trkpt lat="59.989277" lon="17.508196">
        <ele>35.2255</ele>
        <time>2013-04-21T11:25:54Z</time>
      </trkpt>
      <trkpt lat="59.9892254" lon="17.5082618">
        <ele>35.2255</ele>
        <time>2013-04-21T11:25:55Z</time>
      </trkpt>
      <trkpt lat="59.9891766" lon="17.5083238">
        <ele>35.2255</ele>
        <time>2013-04-21T11:25:56Z</time>
      </trkpt>
      <trkpt lat="59.9891285" lon="17.5083778">
        <ele>35.2255</ele>
        <time>2013-04-21T11:25:57Z</time>
      </trkpt>
      <trkpt lat="59.9890824" lon="17.5084232">
        <ele>35.2255</ele>
        <time>2013-04-21T11:25:58Z</time>
      </trkpt>
      <trkpt lat="59.9890361" lon="17.5084648">
        <ele>35.2255</ele>
        <time>2013-04-21T11:25:59Z</time>
      </trkpt>
      <trkpt lat="59.9889891" lon="17.5085085">
        <ele>34.7449</ele>
        <time>2013-04-21T11:26:00Z</time>
      </trkpt>
      <trkpt lat="59.9889412" lon="17.5085462">
        <ele>35.2255</ele>
        <time>2013-04-21T11:26:01Z</time>
      </trkpt>
      <trkpt lat="59.9888917" lon="17.5085848">
        <ele>35.2255</ele>
        <time>2013-04-21T11:26:02Z</time>
      </trkpt>
      <trkpt lat="59.988845" lon="17.5086264">
        <ele>34.7449</ele>
        <time>2013-04-21T11:26:03Z</time>
      </trkpt>
      <trkpt lat="59.9888003" lon="17.5086537">
        <ele>34.7449</ele>
        <time>2013-04-21T11:26:04Z</time>
      </trkpt>
      <trkpt lat="59.9887516" lon="17.5086741">
        <ele>34.7449</ele>
        <time>2013-04-21T11:26:05Z</time>
      </trkpt>
      <trkpt lat="59.9887015" lon="17.5086985">
        <ele>34.2642</ele>
        <time>2013-04-21T11:26:06Z</time>
      </trkpt>
      <trkpt lat="59.9886462" lon="17.5087271">
        <ele>34.2642</ele>
        <time>2013-04-21T11:26:07Z</time>
      </trkpt>
      <trkpt lat="59.9885869" lon="17.5087563">
        <ele>34.2642</ele>
        <time>2013-04-21T11:26:08Z</time>
      </trkpt>
      <trkpt lat="59.9885255" lon="17.5087827">
        <ele>34.2642</ele>
        <time>2013-04-21T11:26:09Z</time>
      </trkpt>
      <trkpt lat="59.9884627" lon="17.5088021">
        <ele>33.7834</ele>
        <time>2013-04-21T11:26:10Z</time>
      </trkpt>
      <trkpt lat="59.9883917" lon="17.5088285">
        <ele>34.2642</ele>
        <time>2013-04-21T11:26:11Z</time>
      </trkpt>
      <trkpt lat="59.9883229" lon="17.5088493">
        <ele>34.2642</ele>
        <time>2013-04-21T11:26:12Z</time>
      </trkpt>
      <trkpt lat="59.9882536" lon="17.5088677">
        <ele>34.2642</ele>
        <time>2013-04-21T11:26:13Z</time>
      </trkpt>
      <trkpt lat="59.9881832" lon="17.5088906">
        <ele>34.2642</ele>
        <time>2013-04-21T11:26:14Z</time>
      </trkpt>
      <trkpt lat="59.9881131" lon="17.5089212">
        <ele>34.2642</ele>
        <time>2013-04-21T11:26:15Z</time>
      </trkpt>
      <trkpt lat="59.9880421" lon="17.50896">
        <ele>34.2642</ele>
        <time>2013-04-21T11:26:16Z</time>
      </trkpt>
      <trkpt lat="59.9879712" lon="17.5090019">
        <ele>34.2642</ele>
        <time>2013-04-21T11:26:17Z</time>
      </trkpt>
      <trkpt lat="59.9879008" lon="17.5090487">
        <ele>34.2642</ele>
        <time>2013-04-21T11:26:18Z</time>
      </trkpt>
      <trkpt lat="59.9878327" lon="17.5090947">
        <ele>34.2642</ele>
        <time>2013-04-21T11:26:19Z</time>
      </trkpt>
      <trkpt lat="59.9877653" lon="17.5091441">
        <ele>34.2642</ele>
        <time>2013-04-21T11:26:20Z</time>
      </trkpt>
      <trkpt lat="59.9877008" lon="17.5092002">
        <ele>34.2642</ele>
        <time>2013-04-21T11:26:21Z</time>
      </trkpt>
      <trkpt lat="59.987638" lon="17.5092567">
        <ele>34.2642</ele>
        <time>2013-04-21T11:26:22Z</time>
      </trkpt>
      <trkpt lat="59.9875744" lon="17.5093164">
        <ele>34.2642</ele>
        <time>2013-04-21T11:26:23Z</time>
      </trkpt>
      <trkpt lat="59.9875112" lon="17.5093807">
        <ele>34.2642</ele>
        <time>2013-04-21T11:26:24Z</time>
      </trkpt>
      <trkpt lat="59.9874506" lon="17.5094424">
        <ele>34.2642</ele>
        <time>2013-04-21T11:26:25Z</time>
      </trkpt>
      <trkpt lat="59.9873916" lon="17.509507">
        <ele>34.2642</ele>
        <time>2013-04-21T11:26:26Z</time>
      </trkpt>
      <trkpt lat="59.9873338" lon="17.5095703">
        <ele>34.2642</ele>
        <time>2013-04-21T11:26:27Z</time>
      </trkpt>
      <trkpt lat="59.987277" lon="17.5096289">
        <ele>33.7834</ele>
        <time>2013-04-21T11:26:28Z</time>
      </trkpt>
      <trkpt lat="59.9872191" lon="17.5096863">
        <ele>33.7834</ele>
        <time>2013-04-21T11:26:29Z</time>
      </trkpt>
      <trkpt lat="59.9871616" lon="17.5097493">
        <ele>34.2642</ele>
        <time>2013-04-21T11:26:30Z</time>
      </trkpt>
      <trkpt lat="59.9871076" lon="17.5098132">
        <ele>33.7834</ele>
        <time>2013-04-21T11:26:31Z</time>
      </trkpt>
      <trkpt lat="59.9870548" lon="17.5098703">
        <ele>33.7834</ele>
        <time>2013-04-21T11:26:32Z</time>
      </trkpt>
      <trkpt lat="59.987002" lon="17.5099235">
        <ele>33.7834</ele>
        <time>2013-04-21T11:26:33Z</time>
      </trkpt>
      <trkpt lat="59.9869487" lon="17.5099826">
        <ele>33.7834</ele>
        <time>2013-04-21T11:26:34Z</time>
      </trkpt>
      <trkpt lat="59.9868963" lon="17.5100463">
        <ele>34.2642</ele>
        <time>2013-04-21T11:26:35Z</time>
      </trkpt>
      <trkpt lat="59.9868449" lon="17.5101024">
        <ele>34.2642</ele>
        <time>2013-04-21T11:26:36Z</time>
      </trkpt>
      <trkpt lat="59.9867906" lon="17.5101596">
        <ele>33.7834</ele>
        <time>2013-04-21T11:26:37Z</time>
      </trkpt>
      <trkpt lat="59.9867399" lon="17.5102194">
        <ele>33.7834</ele>
        <time>2013-04-21T11:26:38Z</time>
      </trkpt>
      <trkpt lat="59.9866908" lon="17.5102844">
        <ele>33.7834</ele>
        <time>2013-04-21T11:26:39Z</time>
      </trkpt>
      <trkpt lat="59.9866407" lon="17.5103583">
        <ele>33.3029</ele>
        <time>2013-04-21T11:26:40Z</time>
      </trkpt>
      <trkpt lat="59.9865884" lon="17.5104426">
        <ele>33.3029</ele>
        <time>2013-04-21T11:26:41Z</time>
      </trkpt>
      <trkpt lat="59.9865364" lon="17.5105328">
        <ele>33.3029</ele>
        <time>2013-04-21T11:26:42Z</time>
      </trkpt>
      <trkpt lat="59.9864812" lon="17.5106336">
        <ele>32.8223</ele>
        <time>2013-04-21T11:26:43Z</time>
      </trkpt>
      <trkpt lat="59.9864256" lon="17.5107307">
        <ele>32.3416</ele>
        <time>2013-04-21T11:26:44Z</time>
      </trkpt>
      <trkpt lat="59.9863706" lon="17.5108311">
        <ele>31.3801</ele>
        <time>2013-04-21T11:26:45Z</time>
      </trkpt>
      <trkpt lat="59.9863167" lon="17.5109305">
        <ele>30.8995</ele>
        <time>2013-04-21T11:26:46Z</time>
      </trkpt>
      <trkpt lat="59.9862624" lon="17.5110258">
        <ele>30.4188</ele>
        <time>2013-04-21T11:26:47Z</time>
      </trkpt>
      <trkpt lat="59.9862073" lon="17.5111151">
        <ele>29.4575</ele>
        <time>2013-04-21T11:26:48Z</time>
      </trkpt>
      <trkpt lat="59.986153" lon="17.5111997">
        <ele>28.9769</ele>
        <time>2013-04-21T11:26:49Z</time>
      </trkpt>
      <trkpt lat="59.9860996" lon="17.5112831">
        <ele>28.9769</ele>
        <time>2013-04-21T11:26:50Z</time>
      </trkpt>
      <trkpt lat="59.9860459" lon="17.5113631">
        <ele>28.4962</ele>
        <time>2013-04-21T11:26:51Z</time>
      </trkpt>
      <trkpt lat="59.9859927" lon="17.5114401">
        <ele>28.0155</ele>
        <time>2013-04-21T11:26:52Z</time>
      </trkpt>
      <trkpt lat="59.9859395" lon="17.5115131">
        <ele>28.0155</ele>
        <time>2013-04-21T11:26:53Z</time>
      </trkpt>
      <trkpt lat="59.9858868" lon="17.5115821">
        <ele>28.0155</ele>
        <time>2013-04-21T11:26:54Z</time>
      </trkpt>
      <trkpt lat="59.9858352" lon="17.5116511">
        <ele>27.5349</ele>
        <time>2013-04-21T11:26:55Z</time>
      </trkpt>
      <trkpt lat="59.9857836" lon="17.5117203">
        <ele>27.5349</ele>
        <time>2013-04-21T11:26:56Z</time>
      </trkpt>
      <trkpt lat="59.9857311" lon="17.5117883">
        <ele>27.5349</ele>
        <time>2013-04-21T11:26:57Z</time>
      </trkpt>
      <trkpt lat="59.9856778" lon="17.5118572">
        <ele>27.0543</ele>
        <time>2013-04-21T11:26:58Z</time>
      </trkpt>
      <trkpt lat="59.9856236" lon="17.5119245">
        <ele>27.0543</ele>
        <time>2013-04-21T11:26:59Z</time>
      </trkpt>
      <trkpt lat="59.985568" lon="17.5119899">
        <ele>27.0543</ele>
        <time>2013-04-21T11:27:00Z</time>
      </trkpt>
      <trkpt lat="59.9855123" lon="17.5120547">
        <ele>27.0543</ele>
        <time>2013-04-21T11:27:01Z</time>
      </trkpt>
      <trkpt lat="59.9854567" lon="17.5121154">
        <ele>27.0543</ele>
        <time>2013-04-21T11:27:02Z</time>
      </trkpt>
      <trkpt lat="59.9854001" lon="17.5121705">
        <ele>27.0543</ele>
        <time>2013-04-21T11:27:03Z</time>
      </trkpt>
      <trkpt lat="59.9853444" lon="17.5122234">
        <ele>27.5349</ele>
        <time>2013-04-21T11:27:04Z</time>
      </trkpt>
      <trkpt lat="59.9852898" lon="17.5122763">
        <ele>27.5349</ele>
        <time>2013-04-21T11:27:05Z</time>
      </trkpt>
      <trkpt lat="59.9852344" lon="17.5123298">
        <ele>27.5349</ele>
        <time>2013-04-21T11:27:06Z</time>
      </trkpt>
      <trkpt lat="59.985179" lon="17.5123832">
        <ele>27.5349</ele>
        <time>2013-04-21T11:27:07Z</time>
      </trkpt>
      <trkpt lat="59.9851243" lon="17.5124367">
        <ele>27.5349</ele>
        <time>2013-04-21T11:27:08Z</time>
      </trkpt>
      <trkpt lat="59.9850691" lon="17.5124939">
        <ele>28.0155</ele>
        <time>2013-04-21T11:27:09Z</time>
      </trkpt>
      <trkpt lat="59.9850144" lon="17.5125536">
        <ele>28.0155</ele>
        <time>2013-04-21T11:27:10Z</time>
      </trkpt>
      <trkpt lat="59.9849601" lon="17.5126171">
        <ele>28.0155</ele>
        <time>2013-04-21T11:27:11Z</time>
      </trkpt>
      <trkpt lat="59.984907" lon="17.5126799">
        <ele>28.0155</ele>
        <time>2013-04-21T11:27:12Z</time>
      </trkpt>
      <trkpt lat="59.9848543" lon="17.5127444">
        <ele>28.4962</ele>
        <time>2013-04-21T11:27:13Z</time>
      </trkpt>
      <trkpt lat="59.9848041" lon="17.5128141">
        <ele>28.4962</ele>
        <time>2013-04-21T11:27:14Z</time>
      </trkpt>
      <trkpt lat="59.9847567" lon="17.5128885">
        <ele>28.4962</ele>
        <time>2013-04-21T11:27:15Z</time>
      </trkpt>
      <trkpt lat="59.9847118" lon="17.5129741">
        <ele>28.4962</ele>
        <time>2013-04-21T11:27:16Z</time>
      </trkpt>
      <trkpt lat="59.9846685" lon="17.5130737">
        <ele>28.4962</ele>
        <time>2013-04-21T11:27:17Z</time>
      </trkpt>
      <trkpt lat="59.9846303" lon="17.5131806">
        <ele>28.4962</ele>
        <time>2013-04-21T11:27:18Z</time>
      </trkpt>
      <trkpt lat="59.9845957" lon="17.5132928">
        <ele>28.9769</ele>
        <time>2013-04-21T11:27:19Z</time>
      </trkpt>
      <trkpt lat="59.9845644" lon="17.5134068">
        <ele>28.9769</ele>
        <time>2013-04-21T11:27:20Z</time>
      </trkpt>
      <trkpt lat="59.9845352" lon="17.5135285">
        <ele>29.4575</ele>
        <time>2013-04-21T11:27:21Z</time>
      </trkpt>
      <trkpt lat="59.9845083" lon="17.5136454">
        <ele>29.4575</ele>
        <time>2013-04-21T11:27:22Z</time>
      </trkpt>
      <trkpt lat="59.9844827" lon="17.5137667">
        <ele>29.9381</ele>
        <time>2013-04-21T11:27:23Z</time>
      </trkpt>
      <trkpt lat="59.9844574" lon="17.5138915">
        <ele>29.9381</ele>
        <time>2013-04-21T11:27:24Z</time>
      </trkpt>
      <trkpt lat="59.9844331" lon="17.5140097">
        <ele>30.4188</ele>
        <time>2013-04-21T11:27:25Z</time>
      </trkpt>
      <trkpt lat="59.9844087" lon="17.514126">
        <ele>30.8995</ele>
        <time>2013-04-21T11:27:26Z</time>
      </trkpt>
      <trkpt lat="59.9843843" lon="17.5142417">
        <ele>31.3801</ele>
        <time>2013-04-21T11:27:27Z</time>
      </trkpt>
      <trkpt lat="59.9843592" lon="17.5143575">
        <ele>31.8607</ele>
        <time>2013-04-21T11:27:28Z</time>
      </trkpt>
      <trkpt lat="59.9843328" lon="17.5144687">
        <ele>31.8607</ele>
        <time>2013-04-21T11:27:29Z</time>
      </trkpt>
      <trkpt lat="59.9843036" lon="17.5145768">
        <ele>31.8607</ele>
        <time>2013-04-21T11:27:30Z</time>
      </trkpt>
      <trkpt lat="59.9842746" lon="17.514688">
        <ele>31.3801</ele>
        <time>2013-04-21T11:27:31Z</time>
      </trkpt>
      <trkpt lat="59.9842441" lon="17.5148042">
        <ele>30.8995</ele>
        <time>2013-04-21T11:27:32Z</time>
      </trkpt>
      <trkpt lat="59.9842132" lon="17.5149238">
        <ele>30.4188</ele>
        <time>2013-04-21T11:27:33Z</time>
      </trkpt>
      <trkpt lat="59.9841808" lon="17.515044">
        <ele>30.4188</ele>
        <time>2013-04-21T11:27:34Z</time>
      </trkpt>
      <trkpt lat="59.9841462" lon="17.5151605">
        <ele>29.4575</ele>
        <time>2013-04-21T11:27:35Z</time>
      </trkpt>
      <trkpt lat="59.9841146" lon="17.515273">
        <ele>29.4575</ele>
        <time>2013-04-21T11:27:36Z</time>
      </trkpt>
      <trkpt lat="59.9840809" lon="17.5153871">
        <ele>28.9769</ele>
        <time>2013-04-21T11:27:37Z</time>
      </trkpt>
      <trkpt lat="59.9840484" lon="17.5155015">
        <ele>29.4575</ele>
        <time>2013-04-21T11:27:38Z</time>
      </trkpt>
      <trkpt lat="59.9840201" lon="17.515616">
        <ele>29.4575</ele>
        <time>2013-04-21T11:27:39Z</time>
      </trkpt>
      <trkpt lat="59.9839832" lon="17.5157321">
        <ele>29.4575</ele>
        <time>2013-04-21T11:27:40Z</time>
      </trkpt>
      <trkpt lat="59.9839469" lon="17.5158476">
        <ele>29.4575</ele>
        <time>2013-04-21T11:27:41Z</time>
      </trkpt>
      <trkpt lat="59.9839109" lon="17.5159615">
        <ele>29.4575</ele>
        <time>2013-04-21T11:27:42Z</time>
      </trkpt>
      <trkpt lat="59.9838754" lon="17.5160739">
        <ele>29.4575</ele>
        <time>2013-04-21T11:27:43Z</time>
      </trkpt>
      <trkpt lat="59.9838395" lon="17.5161846">
        <ele>29.4575</ele>
        <time>2013-04-21T11:27:44Z</time>
      </trkpt>
      <trkpt lat="59.9838075" lon="17.5162956">
        <ele>29.9381</ele>
        <time>2013-04-21T11:27:45Z</time>
      </trkpt>
      <trkpt lat="59.9837779" lon="17.5164089">
        <ele>29.9381</ele>
        <time>2013-04-21T11:27:46Z</time>
      </trkpt>
      <trkpt lat="59.9837448" lon="17.5165239">
        <ele>29.9381</ele>
        <time>2013-04-21T11:27:47Z</time>
      </trkpt>
      <trkpt lat="59.9837099" lon="17.51664">
        <ele>29.4575</ele>
        <time>2013-04-21T11:27:48Z</time>
      </trkpt>
      <trkpt lat="59.9836744" lon="17.5167571">
        <ele>28.9769</ele>
        <time>2013-04-21T11:27:49Z</time>
      </trkpt>
      <trkpt lat="59.983641" lon="17.5168768">
        <ele>28.9769</ele>
        <time>2013-04-21T11:27:50Z</time>
      </trkpt>
      <trkpt lat="59.9836133" lon="17.5169953">
        <ele>29.4575</ele>
        <time>2013-04-21T11:27:51Z</time>
      </trkpt>
      <trkpt lat="59.9835851" lon="17.5171131">
        <ele>29.4575</ele>
        <time>2013-04-21T11:27:52Z</time>
      </trkpt>
      <trkpt lat="59.9835525" lon="17.5172331">
        <ele>28.9769</ele>
        <time>2013-04-21T11:27:53Z</time>
      </trkpt>
      <trkpt lat="59.983518" lon="17.517358">
        <ele>29.4575</ele>
        <time>2013-04-21T11:27:54Z</time>
      </trkpt>
      <trkpt lat="59.9834795" lon="17.5174799">
        <ele>29.4575</ele>
        <time>2013-04-21T11:27:55Z</time>
      </trkpt>
      <trkpt lat="59.9834314" lon="17.5175932">
        <ele>28.9769</ele>
        <time>2013-04-21T11:27:56Z</time>
      </trkpt>
      <trkpt lat="59.9833768" lon="17.5176926">
        <ele>28.9769</ele>
        <time>2013-04-21T11:27:57Z</time>
      </trkpt>
      <trkpt lat="59.9833147" lon="17.51778">
        <ele>28.9769</ele>
        <time>2013-04-21T11:27:58Z</time>
      </trkpt>
      <trkpt lat="59.9832465" lon="17.5178456">
        <ele>28.4962</ele>
        <time>2013-04-21T11:27:59Z</time>
      </trkpt>
      <trkpt lat="59.9831756" lon="17.5178909">
        <ele>28.0155</ele>
        <time>2013-04-21T11:28:00Z</time>
      </trkpt>
      <trkpt lat="59.9831049" lon="17.517923">
        <ele>28.0155</ele>
        <time>2013-04-21T11:28:01Z</time>
      </trkpt>
      <trkpt lat="59.9830339" lon="17.5179495">
        <ele>28.0155</ele>
        <time>2013-04-21T11:28:02Z</time>
      </trkpt>
      <trkpt lat="59.9829626" lon="17.5179764">
        <ele>28.0155</ele>
        <time>2013-04-21T11:28:03Z</time>
      </trkpt>
      <trkpt lat="59.9828907" lon="17.5180061">
        <ele>28.0155</ele>
        <time>2013-04-21T11:28:04Z</time>
      </trkpt>
      <trkpt lat="59.9828057" lon="17.5180188">
        <ele>28.0155</ele>
        <time>2013-04-21T11:28:05Z</time>
      </trkpt>
      <trkpt lat="59.9827304" lon="17.5180341">
        <ele>27.5349</ele>
        <time>2013-04-21T11:28:06Z</time>
      </trkpt>
      <trkpt lat="59.9826606" lon="17.5180553">
        <ele>28.0155</ele>
        <time>2013-04-21T11:28:07Z</time>
      </trkpt>
      <trkpt lat="59.9825905" lon="17.5180795">
        <ele>27.5349</ele>
        <time>2013-04-21T11:28:08Z</time>
      </trkpt>
      <trkpt lat="59.9825257" lon="17.5181034">
        <ele>28.0155</ele>
        <time>2013-04-21T11:28:09Z</time>
      </trkpt>
      <trkpt lat="59.9824604" lon="17.5181212">
        <ele>28.0155</ele>
        <time>2013-04-21T11:28:10Z</time>
      </trkpt>
      <trkpt lat="59.9823922" lon="17.5181457">
        <ele>28.0155</ele>
        <time>2013-04-21T11:28:11Z</time>
      </trkpt>
      <trkpt lat="59.9823276" lon="17.5181708">
        <ele>28.0155</ele>
        <time>2013-04-21T11:28:12Z</time>
      </trkpt>
      <trkpt lat="59.9822621" lon="17.5181915">
        <ele>28.0155</ele>
        <time>2013-04-21T11:28:13Z</time>
      </trkpt>
      <trkpt lat="59.9821964" lon="17.5182101">
        <ele>28.0155</ele>
        <time>2013-04-21T11:28:14Z</time>
      </trkpt>
      <trkpt lat="59.9821325" lon="17.5182217">
        <ele>28.9769</ele>
        <time>2013-04-21T11:28:15Z</time>
      </trkpt>
      <trkpt lat="59.98207" lon="17.5182336">
        <ele>29.4575</ele>
        <time>2013-04-21T11:28:16Z</time>
      </trkpt>
      <trkpt lat="59.9820092" lon="17.5182362">
        <ele>29.9381</ele>
        <time>2013-04-21T11:28:17Z</time>
      </trkpt>
      <trkpt lat="59.9819461" lon="17.518233">
        <ele>29.9381</ele>
        <time>2013-04-21T11:28:18Z</time>
      </trkpt>
      <trkpt lat="59.9818831" lon="17.5182268">
        <ele>30.4188</ele>
        <time>2013-04-21T11:28:19Z</time>
      </trkpt>
      <trkpt lat="59.9818137" lon="17.5182312">
        <ele>30.4188</ele>
        <time>2013-04-21T11:28:20Z</time>
      </trkpt>
      <trkpt lat="59.9817499" lon="17.5182178">
        <ele>30.4188</ele>
        <time>2013-04-21T11:28:21Z</time>
      </trkpt>
      <trkpt lat="59.9816868" lon="17.5182004">
        <ele>30.8995</ele>
        <time>2013-04-21T11:28:22Z</time>
      </trkpt>
      <trkpt lat="59.9816226" lon="17.5181868">
        <ele>30.8995</ele>
        <time>2013-04-21T11:28:23Z</time>
      </trkpt>
      <trkpt lat="59.9815576" lon="17.5181734">
        <ele>30.8995</ele>
        <time>2013-04-21T11:28:24Z</time>
      </trkpt>
      <trkpt lat="59.9814919" lon="17.5181608">
        <ele>30.8995</ele>
        <time>2013-04-21T11:28:25Z</time>
      </trkpt>
      <trkpt lat="59.9814226" lon="17.5181429">
        <ele>30.8995</ele>
        <time>2013-04-21T11:28:26Z</time>
      </trkpt>
      <trkpt lat="59.9813593" lon="17.5181288">
        <ele>30.8995</ele>
        <time>2013-04-21T11:28:27Z</time>
      </trkpt>
      <trkpt lat="59.9813008" lon="17.5181118">
        <ele>31.3801</ele>
        <time>2013-04-21T11:28:28Z</time>
      </trkpt>
      <trkpt lat="59.9812396" lon="17.5180996">
        <ele>31.3801</ele>
        <time>2013-04-21T11:28:29Z</time>
      </trkpt>
      <trkpt lat="59.981177" lon="17.5180865">
        <ele>31.3801</ele>
        <time>2013-04-21T11:28:30Z</time>
      </trkpt>
      <trkpt lat="59.9811113" lon="17.5180699">
        <ele>31.3801</ele>
        <time>2013-04-21T11:28:31Z</time>
      </trkpt>
      <trkpt lat="59.9810463" lon="17.5180546">
        <ele>31.3801</ele>
        <time>2013-04-21T11:28:32Z</time>
      </trkpt>
      <trkpt lat="59.9809812" lon="17.5180404">
        <ele>31.3801</ele>
        <time>2013-04-21T11:28:33Z</time>
      </trkpt>
      <trkpt lat="59.980916" lon="17.5180271">
        <ele>31.3801</ele>
        <time>2013-04-21T11:28:34Z</time>
      </trkpt>
      <trkpt lat="59.9808495" lon="17.5180132">
        <ele>31.3801</ele>
        <time>2013-04-21T11:28:35Z</time>
      </trkpt>
      <trkpt lat="59.9807843" lon="17.5179999">
        <ele>31.8607</ele>
        <time>2013-04-21T11:28:36Z</time>
      </trkpt>
      <trkpt lat="59.9807202" lon="17.5179862">
        <ele>31.8607</ele>
        <time>2013-04-21T11:28:37Z</time>
      </trkpt>
      <trkpt lat="59.9806563" lon="17.5179708">
        <ele>31.3801</ele>
        <time>2013-04-21T11:28:38Z</time>
      </trkpt>
      <trkpt lat="59.9805927" lon="17.5179575">
        <ele>31.3801</ele>
        <time>2013-04-21T11:28:39Z</time>
      </trkpt>
      <trkpt lat="59.9805282" lon="17.5179476">
        <ele>31.3801</ele>
        <time>2013-04-21T11:28:40Z</time>
      </trkpt>
      <trkpt lat="59.9804642" lon="17.5179408">
        <ele>31.3801</ele>
        <time>2013-04-21T11:28:41Z</time>
      </trkpt>
      <trkpt lat="59.9804015" lon="17.5179397">
        <ele>31.3801</ele>
        <time>2013-04-21T11:28:42Z</time>
      </trkpt>
      <trkpt lat="59.9803394" lon="17.517944">
        <ele>30.8995</ele>
        <time>2013-04-21T11:28:43Z</time>
      </trkpt>
      <trkpt lat="59.9802782" lon="17.5179537">
        <ele>30.8995</ele>
        <time>2013-04-21T11:28:44Z</time>
      </trkpt>
      <trkpt lat="59.9802167" lon="17.5179724">
        <ele>30.8995</ele>
        <time>2013-04-21T11:28:45Z</time>
      </trkpt>
      <trkpt lat="59.9801547" lon="17.5179997">
        <ele>30.4188</ele>
        <time>2013-04-21T11:28:46Z</time>
      </trkpt>
      <trkpt lat="59.9800919" lon="17.5180326">
        <ele>29.9381</ele>
        <time>2013-04-21T11:28:47Z</time>
      </trkpt>
      <trkpt lat="59.9800279" lon="17.5180691">
        <ele>29.9381</ele>
        <time>2013-04-21T11:28:48Z</time>
      </trkpt>
      <trkpt lat="59.9799634" lon="17.5181072">
        <ele>29.4575</ele>
        <time>2013-04-21T11:28:49Z</time>
      </trkpt>
      <trkpt lat="59.9798992" lon="17.5181517">
        <ele>29.4575</ele>
        <time>2013-04-21T11:28:50Z</time>
      </trkpt>
      <trkpt lat="59.9798356" lon="17.5182013">
        <ele>28.9769</ele>
        <time>2013-04-21T11:28:51Z</time>
      </trkpt>
      <trkpt lat="59.9797716" lon="17.5182547">
        <ele>28.9769</ele>
        <time>2013-04-21T11:28:52Z</time>
      </trkpt>
      <trkpt lat="59.9797077" lon="17.5183096">
        <ele>28.4962</ele>
        <time>2013-04-21T11:28:53Z</time>
      </trkpt>
      <trkpt lat="59.9796447" lon="17.5183659">
        <ele>28.4962</ele>
        <time>2013-04-21T11:28:54Z</time>
      </trkpt>
      <trkpt lat="59.9795825" lon="17.5184254">
        <ele>28.4962</ele>
        <time>2013-04-21T11:28:55Z</time>
      </trkpt>
      <trkpt lat="59.9795208" lon="17.5184863">
        <ele>28.4962</ele>
        <time>2013-04-21T11:28:56Z</time>
      </trkpt>
      <trkpt lat="59.9794603" lon="17.5185451">
        <ele>28.4962</ele>
        <time>2013-04-21T11:28:57Z</time>
      </trkpt>
      <trkpt lat="59.9794006" lon="17.5186044">
        <ele>28.0155</ele>
        <time>2013-04-21T11:28:58Z</time>
      </trkpt>
      <trkpt lat="59.9793409" lon="17.518664">
        <ele>28.0155</ele>
        <time>2013-04-21T11:28:59Z</time>
      </trkpt>
      <trkpt lat="59.9792812" lon="17.518721">
        <ele>28.0155</ele>
        <time>2013-04-21T11:29:00Z</time>
      </trkpt>
      <trkpt lat="59.9792223" lon="17.5187754">
        <ele>28.0155</ele>
        <time>2013-04-21T11:29:01Z</time>
      </trkpt>
      <trkpt lat="59.9791635" lon="17.5188287">
        <ele>28.0155</ele>
        <time>2013-04-21T11:29:02Z</time>
      </trkpt>
      <trkpt lat="59.9791055" lon="17.5188803">
        <ele>28.0155</ele>
        <time>2013-04-21T11:29:03Z</time>
      </trkpt>
      <trkpt lat="59.9790472" lon="17.5189281">
        <ele>28.0155</ele>
        <time>2013-04-21T11:29:04Z</time>
      </trkpt>
      <trkpt lat="59.9789884" lon="17.5189735">
        <ele>28.0155</ele>
        <time>2013-04-21T11:29:05Z</time>
      </trkpt>
      <trkpt lat="59.9789288" lon="17.5190126">
        <ele>28.0155</ele>
        <time>2013-04-21T11:29:06Z</time>
      </trkpt>
      <trkpt lat="59.9788686" lon="17.5190496">
        <ele>28.0155</ele>
        <time>2013-04-21T11:29:07Z</time>
      </trkpt>
      <trkpt lat="59.9788084" lon="17.5190854">
        <ele>27.5349</ele>
        <time>2013-04-21T11:29:08Z</time>
      </trkpt>
      <trkpt lat="59.9787481" lon="17.5191232">
        <ele>28.0155</ele>
        <time>2013-04-21T11:29:09Z</time>
      </trkpt>
      <trkpt lat="59.978689" lon="17.5191597">
        <ele>28.0155</ele>
        <time>2013-04-21T11:29:10Z</time>
      </trkpt>
      <trkpt lat="59.978629" lon="17.5191964">
        <ele>28.0155</ele>
        <time>2013-04-21T11:29:11Z</time>
      </trkpt>
      <trkpt lat="59.9785698" lon="17.5192312">
        <ele>28.0155</ele>
        <time>2013-04-21T11:29:12Z</time>
      </trkpt>
      <trkpt lat="59.9785113" lon="17.5192731">
        <ele>28.0155</ele>
        <time>2013-04-21T11:29:13Z</time>
      </trkpt>
      <trkpt lat="59.9784543" lon="17.5193221">
        <ele>28.0155</ele>
        <time>2013-04-21T11:29:14Z</time>
      </trkpt>
      <trkpt lat="59.9783985" lon="17.5193767">
        <ele>28.0155</ele>
        <time>2013-04-21T11:29:15Z</time>
      </trkpt>
      <trkpt lat="59.9783436" lon="17.5194357">
        <ele>28.4962</ele>
        <time>2013-04-21T11:29:16Z</time>
      </trkpt>
      <trkpt lat="59.97829" lon="17.5195003">
        <ele>28.4962</ele>
        <time>2013-04-21T11:29:17Z</time>
      </trkpt>
      <trkpt lat="59.9782369" lon="17.5195704">
        <ele>28.4962</ele>
        <time>2013-04-21T11:29:18Z</time>
      </trkpt>
      <trkpt lat="59.9781843" lon="17.5196476">
        <ele>28.4962</ele>
        <time>2013-04-21T11:29:19Z</time>
      </trkpt>
      <trkpt lat="59.9781326" lon="17.5197314">
        <ele>28.4962</ele>
        <time>2013-04-21T11:29:20Z</time>
      </trkpt>
      <trkpt lat="59.9780828" lon="17.5198185">
        <ele>28.4962</ele>
        <time>2013-04-21T11:29:21Z</time>
      </trkpt>
      <trkpt lat="59.9780354" lon="17.519909">
        <ele>28.4962</ele>
        <time>2013-04-21T11:29:22Z</time>
      </trkpt>
      <trkpt lat="59.9779908" lon="17.5200029">
        <ele>28.4962</ele>
        <time>2013-04-21T11:29:23Z</time>
      </trkpt>
      <trkpt lat="59.9779481" lon="17.5201038">
        <ele>28.9769</ele>
        <time>2013-04-21T11:29:24Z</time>
      </trkpt>
      <trkpt lat="59.9779073" lon="17.5202091">
        <ele>28.9769</ele>
        <time>2013-04-21T11:29:25Z</time>
      </trkpt>
      <trkpt lat="59.9778678" lon="17.5203164">
        <ele>28.9769</ele>
        <time>2013-04-21T11:29:26Z</time>
      </trkpt>
      <trkpt lat="59.977829" lon="17.5204244">
        <ele>28.9769</ele>
        <time>2013-04-21T11:29:27Z</time>
      </trkpt>
      <trkpt lat="59.9777892" lon="17.5205301">
        <ele>28.9769</ele>
        <time>2013-04-21T11:29:28Z</time>
      </trkpt>
      <trkpt lat="59.9777487" lon="17.5206338">
        <ele>28.9769</ele>
        <time>2013-04-21T11:29:29Z</time>
      </trkpt>
      <trkpt lat="59.9777082" lon="17.5207379">
        <ele>28.9769</ele>
        <time>2013-04-21T11:29:30Z</time>
      </trkpt>
      <trkpt lat="59.9776675" lon="17.5208442">
        <ele>28.9769</ele>
        <time>2013-04-21T11:29:31Z</time>
      </trkpt>
      <trkpt lat="59.9776276" lon="17.5209515">
        <ele>28.9769</ele>
        <time>2013-04-21T11:29:32Z</time>
      </trkpt>
      <trkpt lat="59.9775888" lon="17.5210596">
        <ele>28.9769</ele>
        <time>2013-04-21T11:29:33Z</time>
      </trkpt>
      <trkpt lat="59.9775499" lon="17.5211674">
        <ele>28.9769</ele>
        <time>2013-04-21T11:29:34Z</time>
      </trkpt>
      <trkpt lat="59.9775104" lon="17.5212745">
        <ele>28.9769</ele>
        <time>2013-04-21T11:29:35Z</time>
      </trkpt>
      <trkpt lat="59.9774701" lon="17.5213807">
        <ele>28.9769</ele>
        <time>2013-04-21T11:29:36Z</time>
      </trkpt>
      <trkpt lat="59.9774296" lon="17.521485">
        <ele>28.9769</ele>
        <time>2013-04-21T11:29:37Z</time>
      </trkpt>
      <trkpt lat="59.9773882" lon="17.5215881">
        <ele>28.9769</ele>
        <time>2013-04-21T11:29:38Z</time>
      </trkpt>
      <trkpt lat="59.9773469" lon="17.5216905">
        <ele>28.9769</ele>
        <time>2013-04-21T11:29:39Z</time>
      </trkpt>
      <trkpt lat="59.9773063" lon="17.5217917">
        <ele>28.9769</ele>
        <time>2013-04-21T11:29:40Z</time>
      </trkpt>
      <trkpt lat="59.9772675" lon="17.5218937">
        <ele>28.9769</ele>
        <time>2013-04-21T11:29:41Z</time>
      </trkpt>
      <trkpt lat="59.9772286" lon="17.5219935">
        <ele>28.9769</ele>
        <time>2013-04-21T11:29:42Z</time>
      </trkpt>
      <trkpt lat="59.9771882" lon="17.5220891">
        <ele>28.9769</ele>
        <time>2013-04-21T11:29:43Z</time>
      </trkpt>
      <trkpt lat="59.9771469" lon="17.5221817">
        <ele>28.9769</ele>
        <time>2013-04-21T11:29:44Z</time>
      </trkpt>
      <trkpt lat="59.9771034" lon="17.5222677">
        <ele>28.9769</ele>
        <time>2013-04-21T11:29:45Z</time>
      </trkpt>
      <trkpt lat="59.9770578" lon="17.5223502">
        <ele>28.9769</ele>
        <time>2013-04-21T11:29:46Z</time>
      </trkpt>
      <trkpt lat="59.9770133" lon="17.5224366">
        <ele>28.9769</ele>
        <time>2013-04-21T11:29:47Z</time>
      </trkpt>
      <trkpt lat="59.9769701" lon="17.5225294">
        <ele>28.9769</ele>
        <time>2013-04-21T11:29:48Z</time>
      </trkpt>
      <trkpt lat="59.9769262" lon="17.5226267">
        <ele>28.9769</ele>
        <time>2013-04-21T11:29:49Z</time>
      </trkpt>
      <trkpt lat="59.976881" lon="17.5227241">
        <ele>28.9769</ele>
        <time>2013-04-21T11:29:50Z</time>
      </trkpt>
      <trkpt lat="59.976834" lon="17.5228215">
        <ele>28.9769</ele>
        <time>2013-04-21T11:29:51Z</time>
      </trkpt>
      <trkpt lat="59.9767858" lon="17.5229181">
        <ele>28.9769</ele>
        <time>2013-04-21T11:29:52Z</time>
      </trkpt>
      <trkpt lat="59.9767367" lon="17.5230121">
        <ele>28.9769</ele>
        <time>2013-04-21T11:29:53Z</time>
      </trkpt>
      <trkpt lat="59.9766887" lon="17.5231077">
        <ele>28.9769</ele>
        <time>2013-04-21T11:29:54Z</time>
      </trkpt>
      <trkpt lat="59.9766411" lon="17.5232042">
        <ele>28.9769</ele>
        <time>2013-04-21T11:29:55Z</time>
      </trkpt>
      <trkpt lat="59.9765932" lon="17.5233015">
        <ele>28.9769</ele>
        <time>2013-04-21T11:29:56Z</time>
      </trkpt>
      <trkpt lat="59.9765447" lon="17.5233996">
        <ele>28.9769</ele>
        <time>2013-04-21T11:29:57Z</time>
      </trkpt>
      <trkpt lat="59.9764958" lon="17.5234966">
        <ele>29.4575</ele>
        <time>2013-04-21T11:29:58Z</time>
      </trkpt>
      <trkpt lat="59.9764465" lon="17.5235922">
        <ele>29.4575</ele>
        <time>2013-04-21T11:29:59Z</time>
      </trkpt>
      <trkpt lat="59.9763963" lon="17.523685">
        <ele>29.4575</ele>
        <time>2013-04-21T11:30:00Z</time>
      </trkpt>
      <trkpt lat="59.9763465" lon="17.5237768">
        <ele>29.4575</ele>
        <time>2013-04-21T11:30:01Z</time>
      </trkpt>
      <trkpt lat="59.9762966" lon="17.5238689">
        <ele>29.9381</ele>
        <time>2013-04-21T11:30:02Z</time>
      </trkpt>
      <trkpt lat="59.9762467" lon="17.5239627">
        <ele>29.9381</ele>
        <time>2013-04-21T11:30:03Z</time>
      </trkpt>
      <trkpt lat="59.9761977" lon="17.524059">
        <ele>29.9381</ele>
        <time>2013-04-21T11:30:04Z</time>
      </trkpt>
      <trkpt lat="59.976149" lon="17.5241572">
        <ele>29.9381</ele>
        <time>2013-04-21T11:30:05Z</time>
      </trkpt>
      <trkpt lat="59.976101" lon="17.5242587">
        <ele>30.4188</ele>
        <time>2013-04-21T11:30:06Z</time>
      </trkpt>
      <trkpt lat="59.9760549" lon="17.5243626">
        <ele>30.4188</ele>
        <time>2013-04-21T11:30:07Z</time>
      </trkpt>
      <trkpt lat="59.9760103" lon="17.5244666">
        <ele>30.4188</ele>
        <time>2013-04-21T11:30:08Z</time>
      </trkpt>
      <trkpt lat="59.9759661" lon="17.5245688">
        <ele>30.4188</ele>
        <time>2013-04-21T11:30:09Z</time>
      </trkpt>
      <trkpt lat="59.9759208" lon="17.5246678">
        <ele>30.4188</ele>
        <time>2013-04-21T11:30:10Z</time>
      </trkpt>
      <trkpt lat="59.9758752" lon="17.5247671">
        <ele>30.4188</ele>
        <time>2013-04-21T11:30:11Z</time>
      </trkpt>
      <trkpt lat="59.9758304" lon="17.5248662">
        <ele>30.4188</ele>
        <time>2013-04-21T11:30:12Z</time>
      </trkpt>
      <trkpt lat="59.9757836" lon="17.5249641">
        <ele>30.4188</ele>
        <time>2013-04-21T11:30:13Z</time>
      </trkpt>
      <trkpt lat="59.9757333" lon="17.5250597">
        <ele>30.8995</ele>
        <time>2013-04-21T11:30:14Z</time>
      </trkpt>
      <trkpt lat="59.9756818" lon="17.5251508">
        <ele>30.8995</ele>
        <time>2013-04-21T11:30:15Z</time>
      </trkpt>
      <trkpt lat="59.9756295" lon="17.5252329">
        <ele>30.8995</ele>
        <time>2013-04-21T11:30:16Z</time>
      </trkpt>
      <trkpt lat="59.9755773" lon="17.5253085">
        <ele>31.3801</ele>
        <time>2013-04-21T11:30:17Z</time>
      </trkpt>
      <trkpt lat="59.9755271" lon="17.5253836">
        <ele>31.8607</ele>
        <time>2013-04-21T11:30:18Z</time>
      </trkpt>
      <trkpt lat="59.9754768" lon="17.5254581">
        <ele>31.8607</ele>
        <time>2013-04-21T11:30:19Z</time>
      </trkpt>
      <trkpt lat="59.9754256" lon="17.5255308">
        <ele>31.8607</ele>
        <time>2013-04-21T11:30:20Z</time>
      </trkpt>
      <trkpt lat="59.9753737" lon="17.5256001">
        <ele>31.8607</ele>
        <time>2013-04-21T11:30:21Z</time>
      </trkpt>
      <trkpt lat="59.9753213" lon="17.525669">
        <ele>31.8607</ele>
        <time>2013-04-21T11:30:22Z</time>
      </trkpt>
      <trkpt lat="59.975268" lon="17.5257348">
        <ele>31.3801</ele>
        <time>2013-04-21T11:30:23Z</time>
      </trkpt>
      <trkpt lat="59.9752147" lon="17.5257942">
        <ele>31.8607</ele>
        <time>2013-04-21T11:30:24Z</time>
      </trkpt>
      <trkpt lat="59.9751603" lon="17.5258498">
        <ele>31.8607</ele>
        <time>2013-04-21T11:30:25Z</time>
      </trkpt>
      <trkpt lat="59.9751039" lon="17.5259108">
        <ele>31.3801</ele>
        <time>2013-04-21T11:30:26Z</time>
      </trkpt>
      <trkpt lat="59.9750487" lon="17.5259602">
        <ele>31.8607</ele>
        <time>2013-04-21T11:30:27Z</time>
      </trkpt>
      <trkpt lat="59.9749925" lon="17.5260175">
        <ele>31.3801</ele>
        <time>2013-04-21T11:30:28Z</time>
      </trkpt>
      <trkpt lat="59.9749376" lon="17.5260724">
        <ele>30.8995</ele>
        <time>2013-04-21T11:30:29Z</time>
      </trkpt>
      <trkpt lat="59.9748812" lon="17.5261277">
        <ele>30.8995</ele>
        <time>2013-04-21T11:30:30Z</time>
      </trkpt>
      <trkpt lat="59.9748252" lon="17.5261885">
        <ele>30.4188</ele>
        <time>2013-04-21T11:30:31Z</time>
      </trkpt>
      <trkpt lat="59.9747693" lon="17.5262481">
        <ele>30.4188</ele>
        <time>2013-04-21T11:30:32Z</time>
      </trkpt>
      <trkpt lat="59.9747131" lon="17.5263067">
        <ele>29.9381</ele>
        <time>2013-04-21T11:30:33Z</time>
      </trkpt>
      <trkpt lat="59.9746571" lon="17.5263657">
        <ele>29.4575</ele>
        <time>2013-04-21T11:30:34Z</time>
      </trkpt>
      <trkpt lat="59.9746017" lon="17.5264284">
        <ele>29.4575</ele>
        <time>2013-04-21T11:30:35Z</time>
      </trkpt>
      <trkpt lat="59.9745459" lon="17.5264911">
        <ele>28.9769</ele>
        <time>2013-04-21T11:30:36Z</time>
      </trkpt>
      <trkpt lat="59.974489" lon="17.5265535">
        <ele>28.9769</ele>
        <time>2013-04-21T11:30:37Z</time>
      </trkpt>
      <trkpt lat="59.9744325" lon="17.5266178">
        <ele>28.4962</ele>
        <time>2013-04-21T11:30:38Z</time>
      </trkpt>
      <trkpt lat="59.9743755" lon="17.5266806">
        <ele>28.4962</ele>
        <time>2013-04-21T11:30:39Z</time>
      </trkpt>
      <trkpt lat="59.9743188" lon="17.5267438">
        <ele>28.0155</ele>
        <time>2013-04-21T11:30:40Z</time>
      </trkpt>
      <trkpt lat="59.9742624" lon="17.5268092">
        <ele>28.0155</ele>
        <time>2013-04-21T11:30:41Z</time>
      </trkpt>
      <trkpt lat="59.9742057" lon="17.5268753">
        <ele>28.0155</ele>
        <time>2013-04-21T11:30:42Z</time>
      </trkpt>
      <trkpt lat="59.9741495" lon="17.5269394">
        <ele>28.0155</ele>
        <time>2013-04-21T11:30:43Z</time>
      </trkpt>
      <trkpt lat="59.9740928" lon="17.5270008">
        <ele>28.0155</ele>
        <time>2013-04-21T11:30:44Z</time>
      </trkpt>
      <trkpt lat="59.9740374" lon="17.5270592">
        <ele>28.0155</ele>
        <time>2013-04-21T11:30:45Z</time>
      </trkpt>
      <trkpt lat="59.9739828" lon="17.527113">
        <ele>27.5349</ele>
        <time>2013-04-21T11:30:46Z</time>
      </trkpt>
      <trkpt lat="59.9739285" lon="17.5271634">
        <ele>27.5349</ele>
        <time>2013-04-21T11:30:47Z</time>
      </trkpt>
      <trkpt lat="59.9738729" lon="17.5272112">
        <ele>27.5349</ele>
        <time>2013-04-21T11:30:48Z</time>
      </trkpt>
      <trkpt lat="59.9738172" lon="17.5272591">
        <ele>27.5349</ele>
        <time>2013-04-21T11:30:49Z</time>
      </trkpt>
      <trkpt lat="59.9737611" lon="17.5273072">
        <ele>27.0543</ele>
        <time>2013-04-21T11:30:50Z</time>
      </trkpt>
      <trkpt lat="59.9737047" lon="17.5273554">
        <ele>27.0543</ele>
        <time>2013-04-21T11:30:51Z</time>
      </trkpt>
      <trkpt lat="59.9736485" lon="17.5274062">
        <ele>26.5736</ele>
        <time>2013-04-21T11:30:52Z</time>
      </trkpt>
      <trkpt lat="59.9735913" lon="17.5274572">
        <ele>26.5736</ele>
        <time>2013-04-21T11:30:53Z</time>
      </trkpt>
      <trkpt lat="59.9735332" lon="17.5275095">
        <ele>26.5736</ele>
        <time>2013-04-21T11:30:54Z</time>
      </trkpt>
      <trkpt lat="59.9734746" lon="17.5275628">
        <ele>26.0929</ele>
        <time>2013-04-21T11:30:55Z</time>
      </trkpt>
      <trkpt lat="59.9734156" lon="17.5276158">
        <ele>26.0929</ele>
        <time>2013-04-21T11:30:56Z</time>
      </trkpt>
      <trkpt lat="59.9733582" lon="17.5276612">
        <ele>26.5736</ele>
        <time>2013-04-21T11:30:57Z</time>
      </trkpt>
      <trkpt lat="59.9732997" lon="17.527713">
        <ele>26.5736</ele>
        <time>2013-04-21T11:30:58Z</time>
      </trkpt>
      <trkpt lat="59.9732416" lon="17.5277643">
        <ele>26.5736</ele>
        <time>2013-04-21T11:30:59Z</time>
      </trkpt>
      <trkpt lat="59.9731845" lon="17.5278181">
        <ele>26.5736</ele>
        <time>2013-04-21T11:31:00Z</time>
      </trkpt>
      <trkpt lat="59.9731269" lon="17.5278731">
        <ele>26.0929</ele>
        <time>2013-04-21T11:31:01Z</time>
      </trkpt>
      <trkpt lat="59.9730681" lon="17.5279266">
        <ele>26.0929</ele>
        <time>2013-04-21T11:31:02Z</time>
      </trkpt>
      <trkpt lat="59.9730095" lon="17.5279823">
        <ele>26.0929</ele>
        <time>2013-04-21T11:31:03Z</time>
      </trkpt>
      <trkpt lat="59.9729508" lon="17.5280376">
        <ele>26.0929</ele>
        <time>2013-04-21T11:31:04Z</time>
      </trkpt>
      <trkpt lat="59.9728917" lon="17.5280926">
        <ele>26.0929</ele>
        <time>2013-04-21T11:31:05Z</time>
      </trkpt>
      <trkpt lat="59.972832" lon="17.5281497">
        <ele>26.0929</ele>
        <time>2013-04-21T11:31:06Z</time>
      </trkpt>
      <trkpt lat="59.9727722" lon="17.5282068">
        <ele>26.0929</ele>
        <time>2013-04-21T11:31:07Z</time>
      </trkpt>
      <trkpt lat="59.9727123" lon="17.5282641">
        <ele>26.0929</ele>
        <time>2013-04-21T11:31:08Z</time>
      </trkpt>
      <trkpt lat="59.9726526" lon="17.5283218">
        <ele>26.0929</ele>
        <time>2013-04-21T11:31:09Z</time>
      </trkpt>
      <trkpt lat="59.9725929" lon="17.5283806">
        <ele>26.0929</ele>
        <time>2013-04-21T11:31:10Z</time>
      </trkpt>
      <trkpt lat="59.9725328" lon="17.5284406">
        <ele>26.0929</ele>
        <time>2013-04-21T11:31:11Z</time>
      </trkpt>
      <trkpt lat="59.9724722" lon="17.5285004">
        <ele>26.0929</ele>
        <time>2013-04-21T11:31:12Z</time>
      </trkpt>
      <trkpt lat="59.9724115" lon="17.52856">
        <ele>26.0929</ele>
        <time>2013-04-21T11:31:13Z</time>
      </trkpt>
      <trkpt lat="59.9723509" lon="17.5286197">
        <ele>26.0929</ele>
        <time>2013-04-21T11:31:14Z</time>
      </trkpt>
      <trkpt lat="59.9722895" lon="17.5286847">
        <ele>25.6123</ele>
        <time>2013-04-21T11:31:15Z</time>
      </trkpt>
      <trkpt lat="59.9722288" lon="17.5287487">
        <ele>25.6123</ele>
        <time>2013-04-21T11:31:16Z</time>
      </trkpt>
      <trkpt lat="59.9721688" lon="17.5288096">
        <ele>25.6123</ele>
        <time>2013-04-21T11:31:17Z</time>
      </trkpt>
      <trkpt lat="59.9721096" lon="17.5288717">
        <ele>25.6123</ele>
        <time>2013-04-21T11:31:18Z</time>
      </trkpt>
      <trkpt lat="59.9720518" lon="17.5289346">
        <ele>25.6123</ele>
        <time>2013-04-21T11:31:19Z</time>
      </trkpt>
      <trkpt lat="59.9719947" lon="17.5289987">
        <ele>26.0929</ele>
        <time>2013-04-21T11:31:20Z</time>
      </trkpt>
      <trkpt lat="59.9719388" lon="17.5290651">
        <ele>26.0929</ele>
        <time>2013-04-21T11:31:21Z</time>
      </trkpt>
      <trkpt lat="59.9718838" lon="17.5291333">
        <ele>26.0929</ele>
        <time>2013-04-21T11:31:22Z</time>
      </trkpt>
      <trkpt lat="59.9718305" lon="17.5291931">
        <ele>26.0929</ele>
        <time>2013-04-21T11:31:23Z</time>
      </trkpt>
      <trkpt lat="59.9717767" lon="17.5292581">
        <ele>26.0929</ele>
        <time>2013-04-21T11:31:24Z</time>
      </trkpt>
      <trkpt lat="59.9717201" lon="17.5293278">
        <ele>26.0929</ele>
        <time>2013-04-21T11:31:25Z</time>
      </trkpt>
      <trkpt lat="59.9716664" lon="17.5294022">
        <ele>26.0929</ele>
        <time>2013-04-21T11:31:26Z</time>
      </trkpt>
      <trkpt lat="59.971613" lon="17.5294753">
        <ele>26.0929</ele>
        <time>2013-04-21T11:31:27Z</time>
      </trkpt>
      <trkpt lat="59.9715604" lon="17.5295494">
        <ele>26.0929</ele>
        <time>2013-04-21T11:31:28Z</time>
      </trkpt>
      <trkpt lat="59.9715064" lon="17.5296305">
        <ele>26.5736</ele>
        <time>2013-04-21T11:31:29Z</time>
      </trkpt>
      <trkpt lat="59.9714542" lon="17.5297191">
        <ele>26.5736</ele>
        <time>2013-04-21T11:31:30Z</time>
      </trkpt>
      <trkpt lat="59.9714047" lon="17.529794">
        <ele>26.5736</ele>
        <time>2013-04-21T11:31:31Z</time>
      </trkpt>
      <trkpt lat="59.9713553" lon="17.5298649">
        <ele>26.5736</ele>
        <time>2013-04-21T11:31:32Z</time>
      </trkpt>
      <trkpt lat="59.9713046" lon="17.5299394">
        <ele>26.5736</ele>
        <time>2013-04-21T11:31:33Z</time>
      </trkpt>
      <trkpt lat="59.9712533" lon="17.5300218">
        <ele>26.5736</ele>
        <time>2013-04-21T11:31:34Z</time>
      </trkpt>
      <trkpt lat="59.9712001" lon="17.530105">
        <ele>26.5736</ele>
        <time>2013-04-21T11:31:35Z</time>
      </trkpt>
      <trkpt lat="59.9711468" lon="17.5301865">
        <ele>26.5736</ele>
        <time>2013-04-21T11:31:36Z</time>
      </trkpt>
      <trkpt lat="59.9710948" lon="17.5302664">
        <ele>26.5736</ele>
        <time>2013-04-21T11:31:37Z</time>
      </trkpt>
      <trkpt lat="59.9710422" lon="17.5303415">
        <ele>27.0543</ele>
        <time>2013-04-21T11:31:38Z</time>
      </trkpt>
      <trkpt lat="59.9709904" lon="17.5304171">
        <ele>27.5349</ele>
        <time>2013-04-21T11:31:39Z</time>
      </trkpt>
      <trkpt lat="59.9709401" lon="17.5304945">
        <ele>27.5349</ele>
        <time>2013-04-21T11:31:40Z</time>
      </trkpt>
      <trkpt lat="59.9708909" lon="17.5305719">
        <ele>27.5349</ele>
        <time>2013-04-21T11:31:41Z</time>
      </trkpt>
      <trkpt lat="59.9708416" lon="17.5306482">
        <ele>27.5349</ele>
        <time>2013-04-21T11:31:42Z</time>
      </trkpt>
      <trkpt lat="59.9707915" lon="17.5307247">
        <ele>27.5349</ele>
        <time>2013-04-21T11:31:43Z</time>
      </trkpt>
      <trkpt lat="59.9707406" lon="17.5308057">
        <ele>27.5349</ele>
        <time>2013-04-21T11:31:44Z</time>
      </trkpt>
      <trkpt lat="59.9706903" lon="17.5308879">
        <ele>27.5349</ele>
        <time>2013-04-21T11:31:45Z</time>
      </trkpt>
      <trkpt lat="59.9706356" lon="17.5309729">
        <ele>27.0543</ele>
        <time>2013-04-21T11:31:46Z</time>
      </trkpt>
      <trkpt lat="59.9705816" lon="17.5310592">
        <ele>26.5736</ele>
        <time>2013-04-21T11:31:47Z</time>
      </trkpt>
      <trkpt lat="59.9705322" lon="17.5311463">
        <ele>26.5736</ele>
        <time>2013-04-21T11:31:48Z</time>
      </trkpt>
      <trkpt lat="59.9704847" lon="17.5312361">
        <ele>26.5736</ele>
        <time>2013-04-21T11:31:49Z</time>
      </trkpt>
      <trkpt lat="59.9704398" lon="17.5313304">
        <ele>26.0929</ele>
        <time>2013-04-21T11:31:50Z</time>
      </trkpt>
      <trkpt lat="59.9703977" lon="17.5314285">
        <ele>26.0929</ele>
        <time>2013-04-21T11:31:51Z</time>
      </trkpt>
      <trkpt lat="59.9703573" lon="17.5315301">
        <ele>26.0929</ele>
        <time>2013-04-21T11:31:52Z</time>
      </trkpt>
      <trkpt lat="59.970318" lon="17.5316333">
        <ele>26.0929</ele>
        <time>2013-04-21T11:31:53Z</time>
      </trkpt>
      <trkpt lat="59.9702785" lon="17.5317378">
        <ele>26.0929</ele>
        <time>2013-04-21T11:31:54Z</time>
      </trkpt>
      <trkpt lat="59.9702395" lon="17.531843">
        <ele>26.0929</ele>
        <time>2013-04-21T11:31:55Z</time>
      </trkpt>
      <trkpt lat="59.9702022" lon="17.5319486">
        <ele>26.0929</ele>
        <time>2013-04-21T11:31:56Z</time>
      </trkpt>
      <trkpt lat="59.9701662" lon="17.5320525">
        <ele>26.0929</ele>
        <time>2013-04-21T11:31:57Z</time>
      </trkpt>
      <trkpt lat="59.9701312" lon="17.532156">
        <ele>26.0929</ele>
        <time>2013-04-21T11:31:58Z</time>
      </trkpt>
      <trkpt lat="59.9700997" lon="17.5322613">
        <ele>26.5736</ele>
        <time>2013-04-21T11:31:59Z</time>
      </trkpt>
      <trkpt lat="59.9700673" lon="17.5323659">
        <ele>26.5736</ele>
        <time>2013-04-21T11:32:00Z</time>
      </trkpt>
      <trkpt lat="59.9700339" lon="17.5324679">
        <ele>26.5736</ele>
        <time>2013-04-21T11:32:01Z</time>
      </trkpt>
      <trkpt lat="59.9700021" lon="17.5325692">
        <ele>26.5736</ele>
        <time>2013-04-21T11:32:02Z</time>
      </trkpt>
      <trkpt lat="59.9699705" lon="17.532669">
        <ele>26.5736</ele>
        <time>2013-04-21T11:32:03Z</time>
      </trkpt>
      <trkpt lat="59.9699351" lon="17.5327684">
        <ele>26.5736</ele>
        <time>2013-04-21T11:32:04Z</time>
      </trkpt>
      <trkpt lat="59.9698956" lon="17.5328683">
        <ele>26.5736</ele>
        <time>2013-04-21T11:32:05Z</time>
      </trkpt>
      <trkpt lat="59.9698538" lon="17.5329677">
        <ele>26.5736</ele>
        <time>2013-04-21T11:32:06Z</time>
      </trkpt>
      <trkpt lat="59.9698104" lon="17.5330655">
        <ele>26.5736</ele>
        <time>2013-04-21T11:32:07Z</time>
      </trkpt>
      <trkpt lat="59.9697656" lon="17.533161">
        <ele>26.5736</ele>
        <time>2013-04-21T11:32:08Z</time>
      </trkpt>
      <trkpt lat="59.9697185" lon="17.5332512">
        <ele>26.5736</ele>
        <time>2013-04-21T11:32:09Z</time>
      </trkpt>
      <trkpt lat="59.9696713" lon="17.5333377">
        <ele>26.5736</ele>
        <time>2013-04-21T11:32:10Z</time>
      </trkpt>
      <trkpt lat="59.9696241" lon="17.5334182">
        <ele>27.0543</ele>
        <time>2013-04-21T11:32:11Z</time>
      </trkpt>
      <trkpt lat="59.9695762" lon="17.5334983">
        <ele>27.0543</ele>
        <time>2013-04-21T11:32:12Z</time>
      </trkpt>
      <trkpt lat="59.9695285" lon="17.5335731">
        <ele>27.5349</ele>
        <time>2013-04-21T11:32:13Z</time>
      </trkpt>
      <trkpt lat="59.9694814" lon="17.5336475">
        <ele>27.5349</ele>
        <time>2013-04-21T11:32:14Z</time>
      </trkpt>
      <trkpt lat="59.9694331" lon="17.5337259">
        <ele>27.5349</ele>
        <time>2013-04-21T11:32:15Z</time>
      </trkpt>
      <trkpt lat="59.9693841" lon="17.5338037">
        <ele>27.5349</ele>
        <time>2013-04-21T11:32:16Z</time>
      </trkpt>
      <trkpt lat="59.9693353" lon="17.5338827">
        <ele>27.5349</ele>
        <time>2013-04-21T11:32:17Z</time>
      </trkpt>
      <trkpt lat="59.9692859" lon="17.5339631">
        <ele>27.0543</ele>
        <time>2013-04-21T11:32:18Z</time>
      </trkpt>
      <trkpt lat="59.9692359" lon="17.5340452">
        <ele>27.0543</ele>
        <time>2013-04-21T11:32:19Z</time>
      </trkpt>
      <trkpt lat="59.9691862" lon="17.5341311">
        <ele>27.0543</ele>
        <time>2013-04-21T11:32:20Z</time>
      </trkpt>
      <trkpt lat="59.9691364" lon="17.5342187">
        <ele>26.5736</ele>
        <time>2013-04-21T11:32:21Z</time>
      </trkpt>
      <trkpt lat="59.9690872" lon="17.5343032">
        <ele>26.5736</ele>
        <time>2013-04-21T11:32:22Z</time>
      </trkpt>
      <trkpt lat="59.9690379" lon="17.5343881">
        <ele>27.0543</ele>
        <time>2013-04-21T11:32:23Z</time>
      </trkpt>
      <trkpt lat="59.968989" lon="17.5344747">
        <ele>27.0543</ele>
        <time>2013-04-21T11:32:24Z</time>
      </trkpt>
      <trkpt lat="59.9689416" lon="17.5345611">
        <ele>27.0543</ele>
        <time>2013-04-21T11:32:25Z</time>
      </trkpt>
      <trkpt lat="59.9688935" lon="17.534644">
        <ele>26.5736</ele>
        <time>2013-04-21T11:32:26Z</time>
      </trkpt>
      <trkpt lat="59.9688436" lon="17.5347326">
        <ele>26.5736</ele>
        <time>2013-04-21T11:32:27Z</time>
      </trkpt>
      <trkpt lat="59.9687975" lon="17.5348222">
        <ele>26.5736</ele>
        <time>2013-04-21T11:32:28Z</time>
      </trkpt>
      <trkpt lat="59.9687508" lon="17.5349111">
        <ele>26.0929</ele>
        <time>2013-04-21T11:32:29Z</time>
      </trkpt>
      <trkpt lat="59.9687055" lon="17.5350014">
        <ele>26.5736</ele>
        <time>2013-04-21T11:32:30Z</time>
      </trkpt>
      <trkpt lat="59.9686585" lon="17.5350894">
        <ele>26.0929</ele>
        <time>2013-04-21T11:32:31Z</time>
      </trkpt>
      <trkpt lat="59.9686143" lon="17.5351811">
        <ele>26.0929</ele>
        <time>2013-04-21T11:32:32Z</time>
      </trkpt>
      <trkpt lat="59.9685701" lon="17.5352742">
        <ele>26.5736</ele>
        <time>2013-04-21T11:32:33Z</time>
      </trkpt>
      <trkpt lat="59.9685239" lon="17.5353652">
        <ele>26.5736</ele>
        <time>2013-04-21T11:32:34Z</time>
      </trkpt>
      <trkpt lat="59.9684765" lon="17.5354541">
        <ele>26.5736</ele>
        <time>2013-04-21T11:32:35Z</time>
      </trkpt>
      <trkpt lat="59.9684322" lon="17.5355385">
        <ele>26.5736</ele>
        <time>2013-04-21T11:32:36Z</time>
      </trkpt>
      <trkpt lat="59.9683868" lon="17.5356179">
        <ele>26.0929</ele>
        <time>2013-04-21T11:32:37Z</time>
      </trkpt>
      <trkpt lat="59.9683412" lon="17.5356966">
        <ele>25.6123</ele>
        <time>2013-04-21T11:32:38Z</time>
      </trkpt>
      <trkpt lat="59.9682924" lon="17.5357935">
        <ele>26.0929</ele>
        <time>2013-04-21T11:32:39Z</time>
      </trkpt>
      <trkpt lat="59.9682427" lon="17.5358959">
        <ele>26.5736</ele>
        <time>2013-04-21T11:32:40Z</time>
      </trkpt>
      <trkpt lat="59.9681925" lon="17.5359972">
        <ele>27.0543</ele>
        <time>2013-04-21T11:32:41Z</time>
      </trkpt>
      <trkpt lat="59.9681486" lon="17.5360975">
        <ele>27.5349</ele>
        <time>2013-04-21T11:32:42Z</time>
      </trkpt>
      <trkpt lat="59.9681028" lon="17.5361992">
        <ele>27.5349</ele>
        <time>2013-04-21T11:32:43Z</time>
      </trkpt>
      <trkpt lat="59.968059" lon="17.5363056">
        <ele>28.0155</ele>
        <time>2013-04-21T11:32:44Z</time>
      </trkpt>
      <trkpt lat="59.9680155" lon="17.5364188">
        <ele>28.4962</ele>
        <time>2013-04-21T11:32:45Z</time>
      </trkpt>
      <trkpt lat="59.9679755" lon="17.5365371">
        <ele>29.4575</ele>
        <time>2013-04-21T11:32:46Z</time>
      </trkpt>
      <trkpt lat="59.9679366" lon="17.5366574">
        <ele>29.4575</ele>
        <time>2013-04-21T11:32:47Z</time>
      </trkpt>
      <trkpt lat="59.9678963" lon="17.536773">
        <ele>29.9381</ele>
        <time>2013-04-21T11:32:48Z</time>
      </trkpt>
      <trkpt lat="59.9678544" lon="17.5368873">
        <ele>29.9381</ele>
        <time>2013-04-21T11:32:49Z</time>
      </trkpt>
      <trkpt lat="59.9678112" lon="17.5369999">
        <ele>29.9381</ele>
        <time>2013-04-21T11:32:50Z</time>
      </trkpt>
      <trkpt lat="59.9677672" lon="17.5371064">
        <ele>30.4188</ele>
        <time>2013-04-21T11:32:51Z</time>
      </trkpt>
      <trkpt lat="59.9677207" lon="17.5372097">
        <ele>30.4188</ele>
        <time>2013-04-21T11:32:52Z</time>
      </trkpt>
      <trkpt lat="59.9676707" lon="17.537308">
        <ele>30.8995</ele>
        <time>2013-04-21T11:32:53Z</time>
      </trkpt>
      <trkpt lat="59.9676166" lon="17.5374046">
        <ele>31.3801</ele>
        <time>2013-04-21T11:32:54Z</time>
      </trkpt>
      <trkpt lat="59.9675641" lon="17.5374906">
        <ele>31.3801</ele>
        <time>2013-04-21T11:32:55Z</time>
      </trkpt>
      <trkpt lat="59.9675102" lon="17.5375745">
        <ele>31.3801</ele>
        <time>2013-04-21T11:32:56Z</time>
      </trkpt>
      <trkpt lat="59.9674569" lon="17.5376578">
        <ele>31.3801</ele>
        <time>2013-04-21T11:32:57Z</time>
      </trkpt>
      <trkpt lat="59.9674016" lon="17.537734">
        <ele>31.3801</ele>
        <time>2013-04-21T11:32:58Z</time>
      </trkpt>
      <trkpt lat="59.9673454" lon="17.5378095">
        <ele>31.3801</ele>
        <time>2013-04-21T11:32:59Z</time>
      </trkpt>
      <trkpt lat="59.9672881" lon="17.5378848">
        <ele>31.8607</ele>
        <time>2013-04-21T11:33:00Z</time>
      </trkpt>
      <trkpt lat="59.9672317" lon="17.5379619">
        <ele>31.8607</ele>
        <time>2013-04-21T11:33:01Z</time>
      </trkpt>
      <trkpt lat="59.9671752" lon="17.538042">
        <ele>31.8607</ele>
        <time>2013-04-21T11:33:02Z</time>
      </trkpt>
      <trkpt lat="59.967118" lon="17.538125">
        <ele>31.8607</ele>
        <time>2013-04-21T11:33:03Z</time>
      </trkpt>
      <trkpt lat="59.967062" lon="17.5382099">
        <ele>31.8607</ele>
        <time>2013-04-21T11:33:04Z</time>
      </trkpt>
      <trkpt lat="59.9670054" lon="17.538295">
        <ele>31.3801</ele>
        <time>2013-04-21T11:33:05Z</time>
      </trkpt>
      <trkpt lat="59.9669498" lon="17.5383798">
        <ele>31.3801</ele>
        <time>2013-04-21T11:33:06Z</time>
      </trkpt>
      <trkpt lat="59.966896" lon="17.5384667">
        <ele>31.3801</ele>
        <time>2013-04-21T11:33:07Z</time>
      </trkpt>
      <trkpt lat="59.9668442" lon="17.5385544">
        <ele>30.8995</ele>
        <time>2013-04-21T11:33:08Z</time>
      </trkpt>
      <trkpt lat="59.9667933" lon="17.5386413">
        <ele>30.8995</ele>
        <time>2013-04-21T11:33:09Z</time>
      </trkpt>
      <trkpt lat="59.9667429" lon="17.5387284">
        <ele>30.8995</ele>
        <time>2013-04-21T11:33:10Z</time>
      </trkpt>
      <trkpt lat="59.9666939" lon="17.5388172">
        <ele>30.8995</ele>
        <time>2013-04-21T11:33:11Z</time>
      </trkpt>
      <trkpt lat="59.9666457" lon="17.538907">
        <ele>30.8995</ele>
        <time>2013-04-21T11:33:12Z</time>
      </trkpt>
      <trkpt lat="59.9665975" lon="17.5389963">
        <ele>30.8995</ele>
        <time>2013-04-21T11:33:13Z</time>
      </trkpt>
      <trkpt lat="59.9665489" lon="17.5390854">
        <ele>30.8995</ele>
        <time>2013-04-21T11:33:14Z</time>
      </trkpt>
      <trkpt lat="59.9665008" lon="17.5391759">
        <ele>30.8995</ele>
        <time>2013-04-21T11:33:15Z</time>
      </trkpt>
      <trkpt lat="59.9664526" lon="17.5392652">
        <ele>30.8995</ele>
        <time>2013-04-21T11:33:16Z</time>
      </trkpt>
      <trkpt lat="59.9664038" lon="17.5393526">
        <ele>30.8995</ele>
        <time>2013-04-21T11:33:17Z</time>
      </trkpt>
      <trkpt lat="59.9663548" lon="17.5394396">
        <ele>30.8995</ele>
        <time>2013-04-21T11:33:18Z</time>
      </trkpt>
      <trkpt lat="59.966305" lon="17.5395231">
        <ele>30.8995</ele>
        <time>2013-04-21T11:33:19Z</time>
      </trkpt>
      <trkpt lat="59.9662536" lon="17.5396007">
        <ele>30.8995</ele>
        <time>2013-04-21T11:33:20Z</time>
      </trkpt>
      <trkpt lat="59.9662024" lon="17.5396754">
        <ele>30.4188</ele>
        <time>2013-04-21T11:33:21Z</time>
      </trkpt>
      <trkpt lat="59.9661529" lon="17.5397495">
        <ele>30.4188</ele>
        <time>2013-04-21T11:33:22Z</time>
      </trkpt>
      <trkpt lat="59.9661032" lon="17.5398226">
        <ele>30.4188</ele>
        <time>2013-04-21T11:33:23Z</time>
      </trkpt>
      <trkpt lat="59.9660545" lon="17.5398965">
        <ele>29.9381</ele>
        <time>2013-04-21T11:33:24Z</time>
      </trkpt>
      <trkpt lat="59.9660063" lon="17.5399724">
        <ele>29.9381</ele>
        <time>2013-04-21T11:33:25Z</time>
      </trkpt>
      <trkpt lat="59.9659579" lon="17.5400484">
        <ele>29.9381</ele>
        <time>2013-04-21T11:33:26Z</time>
      </trkpt>
      <trkpt lat="59.9659079" lon="17.5401216">
        <ele>29.4575</ele>
        <time>2013-04-21T11:33:27Z</time>
      </trkpt>
      <trkpt lat="59.9658575" lon="17.5401917">
        <ele>29.4575</ele>
        <time>2013-04-21T11:33:28Z</time>
      </trkpt>
      <trkpt lat="59.9658055" lon="17.540264">
        <ele>28.9769</ele>
        <time>2013-04-21T11:33:29Z</time>
      </trkpt>
      <trkpt lat="59.9657532" lon="17.5403343">
        <ele>28.9769</ele>
        <time>2013-04-21T11:33:30Z</time>
      </trkpt>
      <trkpt lat="59.9656994" lon="17.5404023">
        <ele>28.4962</ele>
        <time>2013-04-21T11:33:31Z</time>
      </trkpt>
      <trkpt lat="59.9656448" lon="17.5404689">
        <ele>28.0155</ele>
        <time>2013-04-21T11:33:32Z</time>
      </trkpt>
      <trkpt lat="59.9655901" lon="17.5405353">
        <ele>27.5349</ele>
        <time>2013-04-21T11:33:33Z</time>
      </trkpt>
      <trkpt lat="59.9655355" lon="17.5406031">
        <ele>27.5349</ele>
        <time>2013-04-21T11:33:34Z</time>
      </trkpt>
      <trkpt lat="59.96548" lon="17.5406673">
        <ele>27.0543</ele>
        <time>2013-04-21T11:33:35Z</time>
      </trkpt>
      <trkpt lat="59.9654253" lon="17.5407302">
        <ele>27.0543</ele>
        <time>2013-04-21T11:33:36Z</time>
      </trkpt>
      <trkpt lat="59.9653713" lon="17.5407968">
        <ele>27.0543</ele>
        <time>2013-04-21T11:33:37Z</time>
      </trkpt>
      <trkpt lat="59.9653166" lon="17.5408647">
        <ele>26.5736</ele>
        <time>2013-04-21T11:33:38Z</time>
      </trkpt>
      <trkpt lat="59.9652609" lon="17.5409323">
        <ele>26.5736</ele>
        <time>2013-04-21T11:33:39Z</time>
      </trkpt>
      <trkpt lat="59.9652047" lon="17.5409999">
        <ele>26.5736</ele>
        <time>2013-04-21T11:33:40Z</time>
      </trkpt>
      <trkpt lat="59.9651493" lon="17.5410668">
        <ele>26.0929</ele>
        <time>2013-04-21T11:33:41Z</time>
      </trkpt>
      <trkpt lat="59.9650942" lon="17.5411314">
        <ele>26.0929</ele>
        <time>2013-04-21T11:33:42Z</time>
      </trkpt>
      <trkpt lat="59.9650389" lon="17.5411963">
        <ele>26.0929</ele>
        <time>2013-04-21T11:33:43Z</time>
      </trkpt>
      <trkpt lat="59.9649838" lon="17.5412616">
        <ele>26.0929</ele>
        <time>2013-04-21T11:33:44Z</time>
      </trkpt>
      <trkpt lat="59.9649282" lon="17.5413278">
        <ele>26.0929</ele>
        <time>2013-04-21T11:33:45Z</time>
      </trkpt>
      <trkpt lat="59.9648727" lon="17.541394">
        <ele>26.0929</ele>
        <time>2013-04-21T11:33:46Z</time>
      </trkpt>
      <trkpt lat="59.9648167" lon="17.5414568">
        <ele>26.0929</ele>
        <time>2013-04-21T11:33:47Z</time>
      </trkpt>
      <trkpt lat="59.9647603" lon="17.5415145">
        <ele>26.0929</ele>
        <time>2013-04-21T11:33:48Z</time>
      </trkpt>
      <trkpt lat="59.9647043" lon="17.5415722">
        <ele>26.0929</ele>
        <time>2013-04-21T11:33:49Z</time>
      </trkpt>
      <trkpt lat="59.9646482" lon="17.5416297">
        <ele>26.0929</ele>
        <time>2013-04-21T11:33:50Z</time>
      </trkpt>
      <trkpt lat="59.9645914" lon="17.5416842">
        <ele>26.0929</ele>
        <time>2013-04-21T11:33:51Z</time>
      </trkpt>
      <trkpt lat="59.9645342" lon="17.5417387">
        <ele>26.0929</ele>
        <time>2013-04-21T11:33:52Z</time>
      </trkpt>
      <trkpt lat="59.9644767" lon="17.541794">
        <ele>26.0929</ele>
        <time>2013-04-21T11:33:53Z</time>
      </trkpt>
      <trkpt lat="59.9644188" lon="17.5418474">
        <ele>26.0929</ele>
        <time>2013-04-21T11:33:54Z</time>
      </trkpt>
      <trkpt lat="59.9643606" lon="17.5419003">
        <ele>26.0929</ele>
        <time>2013-04-21T11:33:55Z</time>
      </trkpt>
      <trkpt lat="59.9643024" lon="17.5419531">
        <ele>26.0929</ele>
        <time>2013-04-21T11:33:56Z</time>
      </trkpt>
      <trkpt lat="59.9642443" lon="17.5420066">
        <ele>26.0929</ele>
        <time>2013-04-21T11:33:57Z</time>
      </trkpt>
      <trkpt lat="59.9641862" lon="17.5420594">
        <ele>26.0929</ele>
        <time>2013-04-21T11:33:58Z</time>
      </trkpt>
      <trkpt lat="59.9641285" lon="17.5421118">
        <ele>26.0929</ele>
        <time>2013-04-21T11:33:59Z</time>
      </trkpt>
      <trkpt lat="59.9640711" lon="17.5421643">
        <ele>26.0929</ele>
        <time>2013-04-21T11:34:00Z</time>
      </trkpt>
      <trkpt lat="59.9640134" lon="17.5422146">
        <ele>26.5736</ele>
        <time>2013-04-21T11:34:01Z</time>
      </trkpt>
      <trkpt lat="59.9639566" lon="17.5422645">
        <ele>26.5736</ele>
        <time>2013-04-21T11:34:02Z</time>
      </trkpt>
      <trkpt lat="59.9639006" lon="17.5423166">
        <ele>26.5736</ele>
        <time>2013-04-21T11:34:03Z</time>
      </trkpt>
      <trkpt lat="59.9638443" lon="17.5423687">
        <ele>26.5736</ele>
        <time>2013-04-21T11:34:04Z</time>
      </trkpt>
      <trkpt lat="59.9637878" lon="17.5424188">
        <ele>26.5736</ele>
        <time>2013-04-21T11:34:05Z</time>
      </trkpt>
      <trkpt lat="59.9637314" lon="17.5424681">
        <ele>27.0543</ele>
        <time>2013-04-21T11:34:06Z</time>
      </trkpt>
      <trkpt lat="59.9636755" lon="17.5425186">
        <ele>27.0543</ele>
        <time>2013-04-21T11:34:07Z</time>
      </trkpt>
      <trkpt lat="59.9636204" lon="17.5425701">
        <ele>27.0543</ele>
        <time>2013-04-21T11:34:08Z</time>
      </trkpt>
      <trkpt lat="59.9635658" lon="17.5426222">
        <ele>27.0543</ele>
        <time>2013-04-21T11:34:09Z</time>
      </trkpt>
      <trkpt lat="59.9635128" lon="17.5426778">
        <ele>27.0543</ele>
        <time>2013-04-21T11:34:10Z</time>
      </trkpt>
      <trkpt lat="59.9634603" lon="17.542741">
        <ele>27.0543</ele>
        <time>2013-04-21T11:34:11Z</time>
      </trkpt>
      <trkpt lat="59.9634092" lon="17.542808">
        <ele>26.5736</ele>
        <time>2013-04-21T11:34:12Z</time>
      </trkpt>
      <trkpt lat="59.9633612" lon="17.5428804">
        <ele>26.5736</ele>
        <time>2013-04-21T11:34:13Z</time>
      </trkpt>
      <trkpt lat="59.9633169" lon="17.5429597">
        <ele>26.5736</ele>
        <time>2013-04-21T11:34:14Z</time>
      </trkpt>
      <trkpt lat="59.963276" lon="17.543047">
        <ele>26.5736</ele>
        <time>2013-04-21T11:34:15Z</time>
      </trkpt>
      <trkpt lat="59.9632388" lon="17.5431431">
        <ele>26.0929</ele>
        <time>2013-04-21T11:34:16Z</time>
      </trkpt>
      <trkpt lat="59.9632051" lon="17.5432461">
        <ele>26.5736</ele>
        <time>2013-04-21T11:34:17Z</time>
      </trkpt>
      <trkpt lat="59.9631746" lon="17.5433533">
        <ele>26.5736</ele>
        <time>2013-04-21T11:34:18Z</time>
      </trkpt>
      <trkpt lat="59.9631469" lon="17.5434636">
        <ele>26.5736</ele>
        <time>2013-04-21T11:34:19Z</time>
      </trkpt>
      <trkpt lat="59.9631192" lon="17.5435724">
        <ele>27.0543</ele>
        <time>2013-04-21T11:34:20Z</time>
      </trkpt>
      <trkpt lat="59.963093" lon="17.5436791">
        <ele>27.0543</ele>
        <time>2013-04-21T11:34:21Z</time>
      </trkpt>
      <trkpt lat="59.9630709" lon="17.5437883">
        <ele>27.5349</ele>
        <time>2013-04-21T11:34:22Z</time>
      </trkpt>
      <trkpt lat="59.9630511" lon="17.5439012">
        <ele>28.0155</ele>
        <time>2013-04-21T11:34:23Z</time>
      </trkpt>
      <trkpt lat="59.9630305" lon="17.5440137">
        <ele>28.4962</ele>
        <time>2013-04-21T11:34:24Z</time>
      </trkpt>
      <trkpt lat="59.9630113" lon="17.5441221">
        <ele>28.9769</ele>
        <time>2013-04-21T11:34:25Z</time>
      </trkpt>
      <trkpt lat="59.9629911" lon="17.5442308">
        <ele>29.9381</ele>
        <time>2013-04-21T11:34:26Z</time>
      </trkpt>
      <trkpt lat="59.9629675" lon="17.5443417">
        <ele>30.4188</ele>
        <time>2013-04-21T11:34:27Z</time>
      </trkpt>
      <trkpt lat="59.9629357" lon="17.5444733">
        <ele>30.8995</ele>
        <time>2013-04-21T11:34:28Z</time>
      </trkpt>
      <trkpt lat="59.9628976" lon="17.5445814">
        <ele>30.8995</ele>
        <time>2013-04-21T11:34:29Z</time>
      </trkpt>
      <trkpt lat="59.9628565" lon="17.5446852">
        <ele>30.8995</ele>
        <time>2013-04-21T11:34:30Z</time>
      </trkpt>
      <trkpt lat="59.9628112" lon="17.5447761">
        <ele>30.8995</ele>
        <time>2013-04-21T11:34:31Z</time>
      </trkpt>
      <trkpt lat="59.9627523" lon="17.5448482">
        <ele>30.4188</ele>
        <time>2013-04-21T11:34:32Z</time>
      </trkpt>
      <trkpt lat="59.9626857" lon="17.5448861">
        <ele>29.4575</ele>
        <time>2013-04-21T11:34:33Z</time>
      </trkpt>
      <trkpt lat="59.9626213" lon="17.5449313">
        <ele>29.4575</ele>
        <time>2013-04-21T11:34:34Z</time>
      </trkpt>
      <trkpt lat="59.9625462" lon="17.5449654">
        <ele>28.9769</ele>
        <time>2013-04-21T11:34:35Z</time>
      </trkpt>
      <trkpt lat="59.9624868" lon="17.5449877">
        <ele>28.9769</ele>
        <time>2013-04-21T11:34:36Z</time>
      </trkpt>
      <trkpt lat="59.9624269" lon="17.5450178">
        <ele>28.9769</ele>
        <time>2013-04-21T11:34:37Z</time>
      </trkpt>
      <trkpt lat="59.9623656" lon="17.5450563">
        <ele>28.9769</ele>
        <time>2013-04-21T11:34:38Z</time>
      </trkpt>
      <trkpt lat="59.962301" lon="17.5450763">
        <ele>29.4575</ele>
        <time>2013-04-21T11:34:39Z</time>
      </trkpt>
      <trkpt lat="59.9622359" lon="17.5451073">
        <ele>29.9381</ele>
        <time>2013-04-21T11:34:40Z</time>
      </trkpt>
      <trkpt lat="59.9621734" lon="17.5451416">
        <ele>29.9381</ele>
        <time>2013-04-21T11:34:41Z</time>
      </trkpt>
      <trkpt lat="59.9621107" lon="17.5451696">
        <ele>29.9381</ele>
        <time>2013-04-21T11:34:42Z</time>
      </trkpt>
      <trkpt lat="59.9620475" lon="17.5451929">
        <ele>30.4188</ele>
        <time>2013-04-21T11:34:43Z</time>
      </trkpt>
      <trkpt lat="59.9619846" lon="17.54521">
        <ele>29.9381</ele>
        <time>2013-04-21T11:34:44Z</time>
      </trkpt>
      <trkpt lat="59.9619205" lon="17.545225">
        <ele>29.9381</ele>
        <time>2013-04-21T11:34:45Z</time>
      </trkpt>
      <trkpt lat="59.9618563" lon="17.5452293">
        <ele>29.4575</ele>
        <time>2013-04-21T11:34:46Z</time>
      </trkpt>
      <trkpt lat="59.9617936" lon="17.545216">
        <ele>28.9769</ele>
        <time>2013-04-21T11:34:47Z</time>
      </trkpt>
      <trkpt lat="59.9617324" lon="17.5451902">
        <ele>28.4962</ele>
        <time>2013-04-21T11:34:48Z</time>
      </trkpt>
      <trkpt lat="59.9616702" lon="17.545157">
        <ele>28.4962</ele>
        <time>2013-04-21T11:34:49Z</time>
      </trkpt>
      <trkpt lat="59.9616064" lon="17.545118">
        <ele>27.0543</ele>
        <time>2013-04-21T11:34:50Z</time>
      </trkpt>
      <trkpt lat="59.9615417" lon="17.5450755">
        <ele>26.0929</ele>
        <time>2013-04-21T11:34:51Z</time>
      </trkpt>
      <trkpt lat="59.9614767" lon="17.5450305">
        <ele>25.1317</ele>
        <time>2013-04-21T11:34:52Z</time>
      </trkpt>
      <trkpt lat="59.9614118" lon="17.5449838">
        <ele>24.1703</ele>
        <time>2013-04-21T11:34:53Z</time>
      </trkpt>
      <trkpt lat="59.9613466" lon="17.544939">
        <ele>23.6896</ele>
        <time>2013-04-21T11:34:54Z</time>
      </trkpt>
      <trkpt lat="59.9612823" lon="17.5448966">
        <ele>22.7283</ele>
        <time>2013-04-21T11:34:55Z</time>
      </trkpt>
      <trkpt lat="59.9612191" lon="17.5448576">
        <ele>22.7283</ele>
        <time>2013-04-21T11:34:56Z</time>
      </trkpt>
      <trkpt lat="59.9611554" lon="17.544822">
        <ele>22.7283</ele>
        <time>2013-04-21T11:34:57Z</time>
      </trkpt>
      <trkpt lat="59.961092" lon="17.5447901">
        <ele>22.2476</ele>
        <time>2013-04-21T11:34:58Z</time>
      </trkpt>
      <trkpt lat="59.9610285" lon="17.5447595">
        <ele>22.2476</ele>
        <time>2013-04-21T11:34:59Z</time>
      </trkpt>
      <trkpt lat="59.9609654" lon="17.5447313">
        <ele>22.2476</ele>
        <time>2013-04-21T11:35:00Z</time>
      </trkpt>
      <trkpt lat="59.9609021" lon="17.5447054">
        <ele>22.2476</ele>
        <time>2013-04-21T11:35:01Z</time>
      </trkpt>
      <trkpt lat="59.9608387" lon="17.544681">
        <ele>22.2476</ele>
        <time>2013-04-21T11:35:02Z</time>
      </trkpt>
      <trkpt lat="59.9607741" lon="17.5446546">
        <ele>21.767</ele>
        <time>2013-04-21T11:35:03Z</time>
      </trkpt>
      <trkpt lat="59.9607089" lon="17.5446328">
        <ele>21.767</ele>
        <time>2013-04-21T11:35:04Z</time>
      </trkpt>
      <trkpt lat="59.9606431" lon="17.5446111">
        <ele>21.767</ele>
        <time>2013-04-21T11:35:05Z</time>
      </trkpt>
      <trkpt lat="59.9605766" lon="17.5445896">
        <ele>21.767</ele>
        <time>2013-04-21T11:35:06Z</time>
      </trkpt>
      <trkpt lat="59.9605095" lon="17.5445676">
        <ele>21.767</ele>
        <time>2013-04-21T11:35:07Z</time>
      </trkpt>
      <trkpt lat="59.9604412" lon="17.5445437">
        <ele>21.767</ele>
        <time>2013-04-21T11:35:08Z</time>
      </trkpt>
      <trkpt lat="59.9603721" lon="17.5445199">
        <ele>21.767</ele>
        <time>2013-04-21T11:35:09Z</time>
      </trkpt>
      <trkpt lat="59.9603047" lon="17.5444964">
        <ele>20.8057</ele>
        <time>2013-04-21T11:35:10Z</time>
      </trkpt>
      <trkpt lat="59.9602344" lon="17.5444733">
        <ele>21.2864</ele>
        <time>2013-04-21T11:35:11Z</time>
      </trkpt>
      <trkpt lat="59.9601635" lon="17.5444508">
        <ele>21.2864</ele>
        <time>2013-04-21T11:35:12Z</time>
      </trkpt>
      <trkpt lat="59.9600934" lon="17.5444287">
        <ele>21.2864</ele>
        <time>2013-04-21T11:35:13Z</time>
      </trkpt>
      <trkpt lat="59.9600234" lon="17.5444048">
        <ele>21.2864</ele>
        <time>2013-04-21T11:35:14Z</time>
      </trkpt>
      <trkpt lat="59.9599537" lon="17.5443811">
        <ele>21.767</ele>
        <time>2013-04-21T11:35:15Z</time>
      </trkpt>
      <trkpt lat="59.9598848" lon="17.5443593">
        <ele>21.767</ele>
        <time>2013-04-21T11:35:16Z</time>
      </trkpt>
      <trkpt lat="59.9598167" lon="17.544339">
        <ele>21.2864</ele>
        <time>2013-04-21T11:35:17Z</time>
      </trkpt>
      <trkpt lat="59.9597486" lon="17.544321">
        <ele>21.2864</ele>
        <time>2013-04-21T11:35:18Z</time>
      </trkpt>
      <trkpt lat="59.9596804" lon="17.5443035">
        <ele>21.2864</ele>
        <time>2013-04-21T11:35:19Z</time>
      </trkpt>
      <trkpt lat="59.9596102" lon="17.5442861">
        <ele>21.2864</ele>
        <time>2013-04-21T11:35:20Z</time>
      </trkpt>
      <trkpt lat="59.9595418" lon="17.5442785">
        <ele>20.8057</ele>
        <time>2013-04-21T11:35:21Z</time>
      </trkpt>
      <trkpt lat="59.9594739" lon="17.5442754">
        <ele>20.8057</ele>
        <time>2013-04-21T11:35:22Z</time>
      </trkpt>
      <trkpt lat="59.9594081" lon="17.5442681">
        <ele>20.325</ele>
        <time>2013-04-21T11:35:23Z</time>
      </trkpt>
      <trkpt lat="59.959344" lon="17.5442537">
        <ele>20.325</ele>
        <time>2013-04-21T11:35:24Z</time>
      </trkpt>
      <trkpt lat="59.9592811" lon="17.5442361">
        <ele>19.8444</ele>
        <time>2013-04-21T11:35:25Z</time>
      </trkpt>
      <trkpt lat="59.9592174" lon="17.5442169">
        <ele>19.8444</ele>
        <time>2013-04-21T11:35:26Z</time>
      </trkpt>
      <trkpt lat="59.9591526" lon="17.5441988">
        <ele>19.8444</ele>
        <time>2013-04-21T11:35:27Z</time>
      </trkpt>
      <trkpt lat="59.9590859" lon="17.5441811">
        <ele>19.3638</ele>
        <time>2013-04-21T11:35:28Z</time>
      </trkpt>
      <trkpt lat="59.9590176" lon="17.5441657">
        <ele>19.3638</ele>
        <time>2013-04-21T11:35:29Z</time>
      </trkpt>
      <trkpt lat="59.9589486" lon="17.5441516">
        <ele>19.3638</ele>
        <time>2013-04-21T11:35:30Z</time>
      </trkpt>
      <trkpt lat="59.9588797" lon="17.5441379">
        <ele>19.3638</ele>
        <time>2013-04-21T11:35:31Z</time>
      </trkpt>
      <trkpt lat="59.9588108" lon="17.5441249">
        <ele>19.3638</ele>
        <time>2013-04-21T11:35:32Z</time>
      </trkpt>
      <trkpt lat="59.9587429" lon="17.5441115">
        <ele>19.3638</ele>
        <time>2013-04-21T11:35:33Z</time>
      </trkpt>
      <trkpt lat="59.9586761" lon="17.5440987">
        <ele>19.8444</ele>
        <time>2013-04-21T11:35:34Z</time>
      </trkpt>
      <trkpt lat="59.9586099" lon="17.5440884">
        <ele>19.8444</ele>
        <time>2013-04-21T11:35:35Z</time>
      </trkpt>
      <trkpt lat="59.9585436" lon="17.544083">
        <ele>19.8444</ele>
        <time>2013-04-21T11:35:36Z</time>
      </trkpt>
      <trkpt lat="59.9584777" lon="17.5440845">
        <ele>19.8444</ele>
        <time>2013-04-21T11:35:37Z</time>
      </trkpt>
      <trkpt lat="59.9584119" lon="17.544093">
        <ele>19.8444</ele>
        <time>2013-04-21T11:35:38Z</time>
      </trkpt>
      <trkpt lat="59.958347" lon="17.5441065">
        <ele>19.8444</ele>
        <time>2013-04-21T11:35:39Z</time>
      </trkpt>
      <trkpt lat="59.9582825" lon="17.5441236">
        <ele>19.8444</ele>
        <time>2013-04-21T11:35:40Z</time>
      </trkpt>
      <trkpt lat="59.9582183" lon="17.5441427">
        <ele>19.8444</ele>
        <time>2013-04-21T11:35:41Z</time>
      </trkpt>
      <trkpt lat="59.9581551" lon="17.5441618">
        <ele>19.8444</ele>
        <time>2013-04-21T11:35:42Z</time>
      </trkpt>
      <trkpt lat="59.9580924" lon="17.54418">
        <ele>20.325</ele>
        <time>2013-04-21T11:35:43Z</time>
      </trkpt>
      <trkpt lat="59.9580302" lon="17.544198">
        <ele>20.325</ele>
        <time>2013-04-21T11:35:44Z</time>
      </trkpt>
      <trkpt lat="59.9579681" lon="17.5442146">
        <ele>20.8057</ele>
        <time>2013-04-21T11:35:45Z</time>
      </trkpt>
      <trkpt lat="59.9579059" lon="17.5442312">
        <ele>20.8057</ele>
        <time>2013-04-21T11:35:46Z</time>
      </trkpt>
      <trkpt lat="59.9578442" lon="17.5442483">
        <ele>21.2864</ele>
        <time>2013-04-21T11:35:47Z</time>
      </trkpt>
      <trkpt lat="59.9577825" lon="17.544264">
        <ele>21.2864</ele>
        <time>2013-04-21T11:35:48Z</time>
      </trkpt>
      <trkpt lat="59.9577204" lon="17.5442806">
        <ele>21.2864</ele>
        <time>2013-04-21T11:35:49Z</time>
      </trkpt>
      <trkpt lat="59.9576581" lon="17.5442993">
        <ele>21.767</ele>
        <time>2013-04-21T11:35:50Z</time>
      </trkpt>
      <trkpt lat="59.9575961" lon="17.5443184">
        <ele>21.767</ele>
        <time>2013-04-21T11:35:51Z</time>
      </trkpt>
      <trkpt lat="59.9575348" lon="17.5443381">
        <ele>21.767</ele>
        <time>2013-04-21T11:35:52Z</time>
      </trkpt>
      <trkpt lat="59.9574739" lon="17.5443568">
        <ele>21.767</ele>
        <time>2013-04-21T11:35:53Z</time>
      </trkpt>
      <trkpt lat="59.9574129" lon="17.5443736">
        <ele>21.767</ele>
        <time>2013-04-21T11:35:54Z</time>
      </trkpt>
      <trkpt lat="59.9573521" lon="17.5443915">
        <ele>21.767</ele>
        <time>2013-04-21T11:35:55Z</time>
      </trkpt>
      <trkpt lat="59.957291" lon="17.5444119">
        <ele>21.767</ele>
        <time>2013-04-21T11:35:56Z</time>
      </trkpt>
      <trkpt lat="59.9572302" lon="17.5444293">
        <ele>21.767</ele>
        <time>2013-04-21T11:35:57Z</time>
      </trkpt>
      <trkpt lat="59.9571698" lon="17.5444483">
        <ele>21.767</ele>
        <time>2013-04-21T11:35:58Z</time>
      </trkpt>
      <trkpt lat="59.9571095" lon="17.5444685">
        <ele>21.767</ele>
        <time>2013-04-21T11:35:59Z</time>
      </trkpt>
      <trkpt lat="59.9570487" lon="17.5444867">
        <ele>21.767</ele>
        <time>2013-04-21T11:36:00Z</time>
      </trkpt>
      <trkpt lat="59.9569878" lon="17.5445048">
        <ele>21.767</ele>
        <time>2013-04-21T11:36:01Z</time>
      </trkpt>
      <trkpt lat="59.9569265" lon="17.5445239">
        <ele>21.767</ele>
        <time>2013-04-21T11:36:02Z</time>
      </trkpt>
      <trkpt lat="59.956865" lon="17.5445417">
        <ele>21.767</ele>
        <time>2013-04-21T11:36:03Z</time>
      </trkpt>
      <trkpt lat="59.9568029" lon="17.5445596">
        <ele>21.767</ele>
        <time>2013-04-21T11:36:04Z</time>
      </trkpt>
      <trkpt lat="59.9567413" lon="17.5445767">
        <ele>21.767</ele>
        <time>2013-04-21T11:36:05Z</time>
      </trkpt>
      <trkpt lat="59.9566803" lon="17.544595">
        <ele>21.767</ele>
        <time>2013-04-21T11:36:06Z</time>
      </trkpt>
      <trkpt lat="59.9566192" lon="17.5446126">
        <ele>22.2476</ele>
        <time>2013-04-21T11:36:07Z</time>
      </trkpt>
      <trkpt lat="59.956558" lon="17.5446298">
        <ele>22.2476</ele>
        <time>2013-04-21T11:36:08Z</time>
      </trkpt>
      <trkpt lat="59.9564975" lon="17.5446461">
        <ele>22.2476</ele>
        <time>2013-04-21T11:36:09Z</time>
      </trkpt>
      <trkpt lat="59.9564368" lon="17.5446623">
        <ele>22.2476</ele>
        <time>2013-04-21T11:36:10Z</time>
      </trkpt>
      <trkpt lat="59.9563761" lon="17.5446806">
        <ele>22.7283</ele>
        <time>2013-04-21T11:36:11Z</time>
      </trkpt>
      <trkpt lat="59.9563156" lon="17.5446948">
        <ele>22.7283</ele>
        <time>2013-04-21T11:36:12Z</time>
      </trkpt>
      <trkpt lat="59.9562553" lon="17.5447067">
        <ele>22.7283</ele>
        <time>2013-04-21T11:36:13Z</time>
      </trkpt>
      <trkpt lat="59.9561955" lon="17.5447229">
        <ele>22.7283</ele>
        <time>2013-04-21T11:36:14Z</time>
      </trkpt>
      <trkpt lat="59.9561377" lon="17.544743">
        <ele>23.209</ele>
        <time>2013-04-21T11:36:15Z</time>
      </trkpt>
      <trkpt lat="59.9560818" lon="17.5447645">
        <ele>23.209</ele>
        <time>2013-04-21T11:36:16Z</time>
      </trkpt>
      <trkpt lat="59.9560276" lon="17.5447912">
        <ele>23.6896</ele>
        <time>2013-04-21T11:36:17Z</time>
      </trkpt>
      <trkpt lat="59.9559763" lon="17.5448265">
        <ele>23.6896</ele>
        <time>2013-04-21T11:36:18Z</time>
      </trkpt>
      <trkpt lat="59.955928" lon="17.5448711">
        <ele>24.1703</ele>
        <time>2013-04-21T11:36:19Z</time>
      </trkpt>
      <trkpt lat="59.9558823" lon="17.5449189">
        <ele>24.1703</ele>
        <time>2013-04-21T11:36:20Z</time>
      </trkpt>
      <trkpt lat="59.9558376" lon="17.5449726">
        <ele>24.1703</ele>
        <time>2013-04-21T11:36:21Z</time>
      </trkpt>
      <trkpt lat="59.9557928" lon="17.5450367">
        <ele>24.1703</ele>
        <time>2013-04-21T11:36:22Z</time>
      </trkpt>
      <trkpt lat="59.9557524" lon="17.5451221">
        <ele>24.651</ele>
        <time>2013-04-21T11:36:23Z</time>
      </trkpt>
      <trkpt lat="59.9557078" lon="17.5452058">
        <ele>24.651</ele>
        <time>2013-04-21T11:36:24Z</time>
      </trkpt>
      <trkpt lat="59.9556602" lon="17.5452915">
        <ele>25.1317</ele>
        <time>2013-04-21T11:36:25Z</time>
      </trkpt>
      <trkpt lat="59.9556101" lon="17.5453609">
        <ele>25.6123</ele>
        <time>2013-04-21T11:36:26Z</time>
      </trkpt>
      <trkpt lat="59.9555601" lon="17.5454158">
        <ele>25.6123</ele>
        <time>2013-04-21T11:36:27Z</time>
      </trkpt>
      <trkpt lat="59.9555091" lon="17.5454619">
        <ele>26.0929</ele>
        <time>2013-04-21T11:36:28Z</time>
      </trkpt>
      <trkpt lat="59.9554573" lon="17.5455046">
        <ele>26.0929</ele>
        <time>2013-04-21T11:36:29Z</time>
      </trkpt>
      <trkpt lat="59.9554055" lon="17.5455405">
        <ele>26.0929</ele>
        <time>2013-04-21T11:36:30Z</time>
      </trkpt>
      <trkpt lat="59.9553506" lon="17.54557">
        <ele>26.5736</ele>
        <time>2013-04-21T11:36:31Z</time>
      </trkpt>
      <trkpt lat="59.9552941" lon="17.545601">
        <ele>26.5736</ele>
        <time>2013-04-21T11:36:32Z</time>
      </trkpt>
      <trkpt lat="59.9552417" lon="17.5456285">
        <ele>27.0543</ele>
        <time>2013-04-21T11:36:33Z</time>
      </trkpt>
      <trkpt lat="59.9551895" lon="17.5456543">
        <ele>27.0543</ele>
        <time>2013-04-21T11:36:34Z</time>
      </trkpt>
      <trkpt lat="59.9551371" lon="17.5456819">
        <ele>27.5349</ele>
        <time>2013-04-21T11:36:35Z</time>
      </trkpt>
      <trkpt lat="59.9550846" lon="17.5457085">
        <ele>27.5349</ele>
        <time>2013-04-21T11:36:36Z</time>
      </trkpt>
      <trkpt lat="59.9550341" lon="17.5457319">
        <ele>27.5349</ele>
        <time>2013-04-21T11:36:37Z</time>
      </trkpt>
      <trkpt lat="59.9549817" lon="17.5457595">
        <ele>27.5349</ele>
        <time>2013-04-21T11:36:38Z</time>
      </trkpt>
      <trkpt lat="59.9549261" lon="17.5457849">
        <ele>27.5349</ele>
        <time>2013-04-21T11:36:39Z</time>
      </trkpt>
      <trkpt lat="59.9548683" lon="17.5458134">
        <ele>28.0155</ele>
        <time>2013-04-21T11:36:40Z</time>
      </trkpt>
      <trkpt lat="59.9548046" lon="17.5458542">
        <ele>28.0155</ele>
        <time>2013-04-21T11:36:41Z</time>
      </trkpt>
      <trkpt lat="59.9547445" lon="17.5458873">
        <ele>28.0155</ele>
        <time>2013-04-21T11:36:42Z</time>
      </trkpt>
      <trkpt lat="59.9546859" lon="17.5459173">
        <ele>28.0155</ele>
        <time>2013-04-21T11:36:43Z</time>
      </trkpt>
      <trkpt lat="59.9546272" lon="17.5459444">
        <ele>28.0155</ele>
        <time>2013-04-21T11:36:44Z</time>
      </trkpt>
      <trkpt lat="59.9545694" lon="17.5459702">
        <ele>28.4962</ele>
        <time>2013-04-21T11:36:45Z</time>
      </trkpt>
      <trkpt lat="59.9545112" lon="17.5459931">
        <ele>28.4962</ele>
        <time>2013-04-21T11:36:46Z</time>
      </trkpt>
      <trkpt lat="59.9544566" lon="17.5460175">
        <ele>28.4962</ele>
        <time>2013-04-21T11:36:47Z</time>
      </trkpt>
      <trkpt lat="59.9544016" lon="17.5460377">
        <ele>28.4962</ele>
        <time>2013-04-21T11:36:48Z</time>
      </trkpt>
      <trkpt lat="59.9543405" lon="17.5460578">
        <ele>28.0155</ele>
        <time>2013-04-21T11:36:49Z</time>
      </trkpt>
      <trkpt lat="59.9542752" lon="17.5460797">
        <ele>27.5349</ele>
        <time>2013-04-21T11:36:50Z</time>
      </trkpt>
      <trkpt lat="59.9542085" lon="17.5461038">
        <ele>27.0543</ele>
        <time>2013-04-21T11:36:51Z</time>
      </trkpt>
      <trkpt lat="59.9541422" lon="17.546132">
        <ele>26.5736</ele>
        <time>2013-04-21T11:36:52Z</time>
      </trkpt>
      <trkpt lat="59.9540773" lon="17.5461656">
        <ele>26.0929</ele>
        <time>2013-04-21T11:36:53Z</time>
      </trkpt>
      <trkpt lat="59.9540124" lon="17.5461983">
        <ele>26.0929</ele>
        <time>2013-04-21T11:36:54Z</time>
      </trkpt>
      <trkpt lat="59.9539504" lon="17.5462298">
        <ele>26.0929</ele>
        <time>2013-04-21T11:36:55Z</time>
      </trkpt>
      <trkpt lat="59.9538913" lon="17.5462521">
        <ele>25.6123</ele>
        <time>2013-04-21T11:36:56Z</time>
      </trkpt>
      <trkpt lat="59.9538355" lon="17.5462688">
        <ele>25.1317</ele>
        <time>2013-04-21T11:36:57Z</time>
      </trkpt>
      <trkpt lat="59.9537841" lon="17.5462768">
        <ele>25.1317</ele>
        <time>2013-04-21T11:36:58Z</time>
      </trkpt>
      <trkpt lat="59.9537332" lon="17.5462869">
        <ele>25.1317</ele>
        <time>2013-04-21T11:36:59Z</time>
      </trkpt>
      <trkpt lat="59.9536801" lon="17.5463039">
        <ele>25.1317</ele>
        <time>2013-04-21T11:37:00Z</time>
      </trkpt>
      <trkpt lat="59.953624" lon="17.5463317">
        <ele>25.1317</ele>
        <time>2013-04-21T11:37:01Z</time>
      </trkpt>
      <trkpt lat="59.9535659" lon="17.5463565">
        <ele>25.1317</ele>
        <time>2013-04-21T11:37:02Z</time>
      </trkpt>
      <trkpt lat="59.9535071" lon="17.5463831">
        <ele>25.6123</ele>
        <time>2013-04-21T11:37:03Z</time>
      </trkpt>
      <trkpt lat="59.9534478" lon="17.5464045">
        <ele>26.5736</ele>
        <time>2013-04-21T11:37:04Z</time>
      </trkpt>
      <trkpt lat="59.9533926" lon="17.5464125">
        <ele>27.0543</ele>
        <time>2013-04-21T11:37:05Z</time>
      </trkpt>
      <trkpt lat="59.9533376" lon="17.5464193">
        <ele>27.5349</ele>
        <time>2013-04-21T11:37:06Z</time>
      </trkpt>
      <trkpt lat="59.9532858" lon="17.5464236">
        <ele>28.0155</ele>
        <time>2013-04-21T11:37:07Z</time>
      </trkpt>
      <trkpt lat="59.9532362" lon="17.5464203">
        <ele>28.4962</ele>
        <time>2013-04-21T11:37:08Z</time>
      </trkpt>
      <trkpt lat="59.95318" lon="17.546424">
        <ele>28.9769</ele>
        <time>2013-04-21T11:37:09Z</time>
      </trkpt>
      <trkpt lat="59.9531323" lon="17.5464148">
        <ele>28.9769</ele>
        <time>2013-04-21T11:37:10Z</time>
      </trkpt>
      <trkpt lat="59.9530859" lon="17.5464112">
        <ele>28.9769</ele>
        <time>2013-04-21T11:37:11Z</time>
      </trkpt>
      <trkpt lat="59.9530434" lon="17.5464044">
        <ele>28.4962</ele>
        <time>2013-04-21T11:37:12Z</time>
      </trkpt>
      <trkpt lat="59.9530001" lon="17.5463993">
        <ele>28.4962</ele>
        <time>2013-04-21T11:37:13Z</time>
      </trkpt>
      <trkpt lat="59.9529517" lon="17.546397">
        <ele>28.4962</ele>
        <time>2013-04-21T11:37:14Z</time>
      </trkpt>
      <trkpt lat="59.9529036" lon="17.5463905">
        <ele>28.4962</ele>
        <time>2013-04-21T11:37:15Z</time>
      </trkpt>
      <trkpt lat="59.9528598" lon="17.5463747">
        <ele>28.0155</ele>
        <time>2013-04-21T11:37:16Z</time>
      </trkpt>
      <trkpt lat="59.9528059" lon="17.5463545">
        <ele>28.9769</ele>
        <time>2013-04-21T11:37:17Z</time>
      </trkpt>
      <trkpt lat="59.9527507" lon="17.5463314">
        <ele>29.9381</ele>
        <time>2013-04-21T11:37:18Z</time>
      </trkpt>
      <trkpt lat="59.952701" lon="17.5463205">
        <ele>29.9381</ele>
        <time>2013-04-21T11:37:19Z</time>
      </trkpt>
      <trkpt lat="59.9526495" lon="17.5463148">
        <ele>29.4575</ele>
        <time>2013-04-21T11:37:20Z</time>
      </trkpt>
      <trkpt lat="59.9525945" lon="17.5463079">
        <ele>29.4575</ele>
        <time>2013-04-21T11:37:21Z</time>
      </trkpt>
      <trkpt lat="59.9525387" lon="17.5462962">
        <ele>28.9769</ele>
        <time>2013-04-21T11:37:22Z</time>
      </trkpt>
      <trkpt lat="59.9524835" lon="17.546284">
        <ele>28.9769</ele>
        <time>2013-04-21T11:37:23Z</time>
      </trkpt>
      <trkpt lat="59.9524274" lon="17.5462712">
        <ele>28.4962</ele>
        <time>2013-04-21T11:37:24Z</time>
      </trkpt>
      <trkpt lat="59.9523663" lon="17.5462633">
        <ele>28.4962</ele>
        <time>2013-04-21T11:37:25Z</time>
      </trkpt>
      <trkpt lat="59.9523034" lon="17.5462614">
        <ele>28.0155</ele>
        <time>2013-04-21T11:37:26Z</time>
      </trkpt>
      <trkpt lat="59.9522423" lon="17.5462661">
        <ele>28.9769</ele>
        <time>2013-04-21T11:37:27Z</time>
      </trkpt>
      <trkpt lat="59.9521789" lon="17.5462827">
        <ele>28.9769</ele>
        <time>2013-04-21T11:37:28Z</time>
      </trkpt>
      <trkpt lat="59.9521146" lon="17.5462959">
        <ele>28.9769</ele>
        <time>2013-04-21T11:37:29Z</time>
      </trkpt>
      <trkpt lat="59.9520488" lon="17.5463112">
        <ele>28.9769</ele>
        <time>2013-04-21T11:37:30Z</time>
      </trkpt>
      <trkpt lat="59.9519815" lon="17.5463365">
        <ele>28.9769</ele>
        <time>2013-04-21T11:37:31Z</time>
      </trkpt>
      <trkpt lat="59.9519124" lon="17.5463665">
        <ele>28.9769</ele>
        <time>2013-04-21T11:37:32Z</time>
      </trkpt>
      <trkpt lat="59.9518431" lon="17.5464008">
        <ele>28.9769</ele>
        <time>2013-04-21T11:37:33Z</time>
      </trkpt>
      <trkpt lat="59.9517758" lon="17.5464411">
        <ele>28.9769</ele>
        <time>2013-04-21T11:37:34Z</time>
      </trkpt>
      <trkpt lat="59.9517095" lon="17.5464838">
        <ele>28.9769</ele>
        <time>2013-04-21T11:37:35Z</time>
      </trkpt>
      <trkpt lat="59.9516438" lon="17.5465296">
        <ele>28.9769</ele>
        <time>2013-04-21T11:37:36Z</time>
      </trkpt>
      <trkpt lat="59.9515799" lon="17.5465749">
        <ele>28.4962</ele>
        <time>2013-04-21T11:37:37Z</time>
      </trkpt>
      <trkpt lat="59.9515161" lon="17.5466162">
        <ele>28.9769</ele>
        <time>2013-04-21T11:37:38Z</time>
      </trkpt>
      <trkpt lat="59.9514506" lon="17.5466576">
        <ele>28.9769</ele>
        <time>2013-04-21T11:37:39Z</time>
      </trkpt>
      <trkpt lat="59.9513845" lon="17.5467028">
        <ele>28.9769</ele>
        <time>2013-04-21T11:37:40Z</time>
      </trkpt>
      <trkpt lat="59.9513182" lon="17.5467499">
        <ele>28.9769</ele>
        <time>2013-04-21T11:37:41Z</time>
      </trkpt>
      <trkpt lat="59.951251" lon="17.5467964">
        <ele>28.9769</ele>
        <time>2013-04-21T11:37:42Z</time>
      </trkpt>
      <trkpt lat="59.9511838" lon="17.5468409">
        <ele>29.4575</ele>
        <time>2013-04-21T11:37:43Z</time>
      </trkpt>
      <trkpt lat="59.951117" lon="17.5468882">
        <ele>29.4575</ele>
        <time>2013-04-21T11:37:44Z</time>
      </trkpt>
      <trkpt lat="59.9510491" lon="17.5469365">
        <ele>29.4575</ele>
        <time>2013-04-21T11:37:45Z</time>
      </trkpt>
      <trkpt lat="59.9509837" lon="17.5469795">
        <ele>29.4575</ele>
        <time>2013-04-21T11:37:46Z</time>
      </trkpt>
      <trkpt lat="59.9509188" lon="17.5470251">
        <ele>29.4575</ele>
        <time>2013-04-21T11:37:47Z</time>
      </trkpt>
      <trkpt lat="59.9508542" lon="17.547072">
        <ele>29.4575</ele>
        <time>2013-04-21T11:37:48Z</time>
      </trkpt>
      <trkpt lat="59.9507895" lon="17.5471187">
        <ele>29.9381</ele>
        <time>2013-04-21T11:37:49Z</time>
      </trkpt>
      <trkpt lat="59.9507263" lon="17.5471664">
        <ele>29.4575</ele>
        <time>2013-04-21T11:37:50Z</time>
      </trkpt>
      <trkpt lat="59.9506636" lon="17.5472147">
        <ele>29.4575</ele>
        <time>2013-04-21T11:37:51Z</time>
      </trkpt>
      <trkpt lat="59.9506014" lon="17.5472659">
        <ele>28.9769</ele>
        <time>2013-04-21T11:37:52Z</time>
      </trkpt>
      <trkpt lat="59.9505399" lon="17.5473182">
        <ele>28.9769</ele>
        <time>2013-04-21T11:37:53Z</time>
      </trkpt>
      <trkpt lat="59.9504792" lon="17.5473704">
        <ele>28.4962</ele>
        <time>2013-04-21T11:37:54Z</time>
      </trkpt>
      <trkpt lat="59.9504184" lon="17.547427">
        <ele>28.4962</ele>
        <time>2013-04-21T11:37:55Z</time>
      </trkpt>
      <trkpt lat="59.9503595" lon="17.5474895">
        <ele>28.4962</ele>
        <time>2013-04-21T11:37:56Z</time>
      </trkpt>
      <trkpt lat="59.9503019" lon="17.5475533">
        <ele>28.0155</ele>
        <time>2013-04-21T11:37:57Z</time>
      </trkpt>
      <trkpt lat="59.9502433" lon="17.5476145">
        <ele>28.4962</ele>
        <time>2013-04-21T11:37:58Z</time>
      </trkpt>
      <trkpt lat="59.9501844" lon="17.5476746">
        <ele>28.4962</ele>
        <time>2013-04-21T11:37:59Z</time>
      </trkpt>
      <trkpt lat="59.9501243" lon="17.5477223">
        <ele>28.4962</ele>
        <time>2013-04-21T11:38:00Z</time>
      </trkpt>
      <trkpt lat="59.9500622" lon="17.5477625">
        <ele>28.4962</ele>
        <time>2013-04-21T11:38:01Z</time>
      </trkpt>
      <trkpt lat="59.9499991" lon="17.5478028">
        <ele>28.4962</ele>
        <time>2013-04-21T11:38:02Z</time>
      </trkpt>
      <trkpt lat="59.9499358" lon="17.5478398">
        <ele>28.4962</ele>
        <time>2013-04-21T11:38:03Z</time>
      </trkpt>
      <trkpt lat="59.9498706" lon="17.5478771">
        <ele>28.4962</ele>
        <time>2013-04-21T11:38:04Z</time>
      </trkpt>
      <trkpt lat="59.9498053" lon="17.5479134">
        <ele>28.4962</ele>
        <time>2013-04-21T11:38:05Z</time>
      </trkpt>
      <trkpt lat="59.9497398" lon="17.547946">
        <ele>28.4962</ele>
        <time>2013-04-21T11:38:06Z</time>
      </trkpt>
      <trkpt lat="59.9496748" lon="17.5479688">
        <ele>28.4962</ele>
        <time>2013-04-21T11:38:07Z</time>
      </trkpt>
      <trkpt lat="59.9496083" lon="17.5479875">
        <ele>28.4962</ele>
        <time>2013-04-21T11:38:08Z</time>
      </trkpt>
      <trkpt lat="59.949542" lon="17.5479988">
        <ele>28.4962</ele>
        <time>2013-04-21T11:38:09Z</time>
      </trkpt>
      <trkpt lat="59.9494753" lon="17.5480031">
        <ele>28.4962</ele>
        <time>2013-04-21T11:38:10Z</time>
      </trkpt>
      <trkpt lat="59.9494095" lon="17.5480005">
        <ele>28.4962</ele>
        <time>2013-04-21T11:38:11Z</time>
      </trkpt>
      <trkpt lat="59.9493457" lon="17.5479916">
        <ele>28.4962</ele>
        <time>2013-04-21T11:38:12Z</time>
      </trkpt>
      <trkpt lat="59.9492825" lon="17.5479797">
        <ele>28.9769</ele>
        <time>2013-04-21T11:38:13Z</time>
      </trkpt>
      <trkpt lat="59.9492203" lon="17.5479626">
        <ele>28.4962</ele>
        <time>2013-04-21T11:38:14Z</time>
      </trkpt>
      <trkpt lat="59.9491589" lon="17.5479433">
        <ele>28.4962</ele>
        <time>2013-04-21T11:38:15Z</time>
      </trkpt>
      <trkpt lat="59.9491007" lon="17.5479139">
        <ele>28.4962</ele>
        <time>2013-04-21T11:38:16Z</time>
      </trkpt>
      <trkpt lat="59.9490443" lon="17.5478788">
        <ele>28.4962</ele>
        <time>2013-04-21T11:38:17Z</time>
      </trkpt>
      <trkpt lat="59.9489873" lon="17.5478441">
        <ele>28.9769</ele>
        <time>2013-04-21T11:38:18Z</time>
      </trkpt>
      <trkpt lat="59.9489277" lon="17.5478097">
        <ele>28.9769</ele>
        <time>2013-04-21T11:38:19Z</time>
      </trkpt>
      <trkpt lat="59.9488682" lon="17.5477694">
        <ele>28.9769</ele>
        <time>2013-04-21T11:38:20Z</time>
      </trkpt>
      <trkpt lat="59.9488096" lon="17.5477228">
        <ele>28.9769</ele>
        <time>2013-04-21T11:38:21Z</time>
      </trkpt>
      <trkpt lat="59.9487514" lon="17.5476728">
        <ele>28.9769</ele>
        <time>2013-04-21T11:38:22Z</time>
      </trkpt>
      <trkpt lat="59.9486935" lon="17.5476205">
        <ele>28.9769</ele>
        <time>2013-04-21T11:38:23Z</time>
      </trkpt>
      <trkpt lat="59.9486362" lon="17.5475625">
        <ele>28.9769</ele>
        <time>2013-04-21T11:38:24Z</time>
      </trkpt>
      <trkpt lat="59.9485802" lon="17.5475019">
        <ele>28.9769</ele>
        <time>2013-04-21T11:38:25Z</time>
      </trkpt>
      <trkpt lat="59.9485258" lon="17.5474378">
        <ele>28.9769</ele>
        <time>2013-04-21T11:38:26Z</time>
      </trkpt>
      <trkpt lat="59.948472" lon="17.5473724">
        <ele>28.9769</ele>
        <time>2013-04-21T11:38:27Z</time>
      </trkpt>
      <trkpt lat="59.9484186" lon="17.5473062">
        <ele>28.9769</ele>
        <time>2013-04-21T11:38:28Z</time>
      </trkpt>
      <trkpt lat="59.948366" lon="17.5472356">
        <ele>28.9769</ele>
        <time>2013-04-21T11:38:29Z</time>
      </trkpt>
      <trkpt lat="59.9483151" lon="17.5471586">
        <ele>28.4962</ele>
        <time>2013-04-21T11:38:30Z</time>
      </trkpt>
      <trkpt lat="59.9482673" lon="17.5470719">
        <ele>28.4962</ele>
        <time>2013-04-21T11:38:31Z</time>
      </trkpt>
      <trkpt lat="59.9482212" lon="17.5469787">
        <ele>28.4962</ele>
        <time>2013-04-21T11:38:32Z</time>
      </trkpt>
      <trkpt lat="59.9481751" lon="17.5468867">
        <ele>28.4962</ele>
        <time>2013-04-21T11:38:33Z</time>
      </trkpt>
      <trkpt lat="59.9481284" lon="17.5467951">
        <ele>28.4962</ele>
        <time>2013-04-21T11:38:34Z</time>
      </trkpt>
      <trkpt lat="59.9480804" lon="17.5467038">
        <ele>28.4962</ele>
        <time>2013-04-21T11:38:35Z</time>
      </trkpt>
      <trkpt lat="59.948032" lon="17.5466137">
        <ele>28.4962</ele>
        <time>2013-04-21T11:38:36Z</time>
      </trkpt>
      <trkpt lat="59.9479834" lon="17.546522">
        <ele>28.4962</ele>
        <time>2013-04-21T11:38:37Z</time>
      </trkpt>
      <trkpt lat="59.9479347" lon="17.5464281">
        <ele>28.4962</ele>
        <time>2013-04-21T11:38:38Z</time>
      </trkpt>
      <trkpt lat="59.9478856" lon="17.5463338">
        <ele>28.4962</ele>
        <time>2013-04-21T11:38:39Z</time>
      </trkpt>
      <trkpt lat="59.9478357" lon="17.5462385">
        <ele>28.4962</ele>
        <time>2013-04-21T11:38:40Z</time>
      </trkpt>
      <trkpt lat="59.9477725" lon="17.5461475">
        <ele>28.4962</ele>
        <time>2013-04-21T11:38:41Z</time>
      </trkpt>
      <trkpt lat="59.947718" lon="17.5460595">
        <ele>28.4962</ele>
        <time>2013-04-21T11:38:42Z</time>
      </trkpt>
      <trkpt lat="59.9476667" lon="17.5459671">
        <ele>28.4962</ele>
        <time>2013-04-21T11:38:43Z</time>
      </trkpt>
      <trkpt lat="59.9476166" lon="17.5458737">
        <ele>28.4962</ele>
        <time>2013-04-21T11:38:44Z</time>
      </trkpt>
      <trkpt lat="59.9475667" lon="17.5457758">
        <ele>28.4962</ele>
        <time>2013-04-21T11:38:45Z</time>
      </trkpt>
      <trkpt lat="59.9475172" lon="17.5456787">
        <ele>28.4962</ele>
        <time>2013-04-21T11:38:46Z</time>
      </trkpt>
      <trkpt lat="59.947467" lon="17.5455834">
        <ele>28.4962</ele>
        <time>2013-04-21T11:38:47Z</time>
      </trkpt>
      <trkpt lat="59.9474162" lon="17.5454902">
        <ele>28.4962</ele>
        <time>2013-04-21T11:38:48Z</time>
      </trkpt>
      <trkpt lat="59.947365" lon="17.5453984">
        <ele>28.4962</ele>
        <time>2013-04-21T11:38:49Z</time>
      </trkpt>
      <trkpt lat="59.9473136" lon="17.5453073">
        <ele>28.4962</ele>
        <time>2013-04-21T11:38:50Z</time>
      </trkpt>
      <trkpt lat="59.9472614" lon="17.5452172">
        <ele>28.4962</ele>
        <time>2013-04-21T11:38:51Z</time>
      </trkpt>
      <trkpt lat="59.9472088" lon="17.5451265">
        <ele>28.4962</ele>
        <time>2013-04-21T11:38:52Z</time>
      </trkpt>
      <trkpt lat="59.9471549" lon="17.5450363">
        <ele>28.4962</ele>
        <time>2013-04-21T11:38:53Z</time>
      </trkpt>
      <trkpt lat="59.9470982" lon="17.5449498">
        <ele>28.0155</ele>
        <time>2013-04-21T11:38:54Z</time>
      </trkpt>
      <trkpt lat="59.9470392" lon="17.5448711">
        <ele>28.0155</ele>
        <time>2013-04-21T11:38:55Z</time>
      </trkpt>
      <trkpt lat="59.9469796" lon="17.5447924">
        <ele>28.0155</ele>
        <time>2013-04-21T11:38:56Z</time>
      </trkpt>
      <trkpt lat="59.9469206" lon="17.5447158">
        <ele>27.5349</ele>
        <time>2013-04-21T11:38:57Z</time>
      </trkpt>
      <trkpt lat="59.946862" lon="17.5446436">
        <ele>27.5349</ele>
        <time>2013-04-21T11:38:58Z</time>
      </trkpt>
      <trkpt lat="59.9468027" lon="17.5445763">
        <ele>27.0543</ele>
        <time>2013-04-21T11:38:59Z</time>
      </trkpt>
      <trkpt lat="59.9467415" lon="17.5445081">
        <ele>27.0543</ele>
        <time>2013-04-21T11:39:00Z</time>
      </trkpt>
      <trkpt lat="59.946681" lon="17.5444415">
        <ele>27.0543</ele>
        <time>2013-04-21T11:39:01Z</time>
      </trkpt>
      <trkpt lat="59.9466196" lon="17.5443815">
        <ele>27.0543</ele>
        <time>2013-04-21T11:39:02Z</time>
      </trkpt>
      <trkpt lat="59.9465561" lon="17.544332">
        <ele>26.5736</ele>
        <time>2013-04-21T11:39:03Z</time>
      </trkpt>
      <trkpt lat="59.946491" lon="17.544285">
        <ele>26.5736</ele>
        <time>2013-04-21T11:39:04Z</time>
      </trkpt>
      <trkpt lat="59.9464252" lon="17.544241">
        <ele>26.0929</ele>
        <time>2013-04-21T11:39:05Z</time>
      </trkpt>
      <trkpt lat="59.9463596" lon="17.5442003">
        <ele>26.0929</ele>
        <time>2013-04-21T11:39:06Z</time>
      </trkpt>
      <trkpt lat="59.9462945" lon="17.5441625">
        <ele>26.0929</ele>
        <time>2013-04-21T11:39:07Z</time>
      </trkpt>
      <trkpt lat="59.9462298" lon="17.5441308">
        <ele>26.0929</ele>
        <time>2013-04-21T11:39:08Z</time>
      </trkpt>
      <trkpt lat="59.9461646" lon="17.5441053">
        <ele>26.0929</ele>
        <time>2013-04-21T11:39:09Z</time>
      </trkpt>
      <trkpt lat="59.9460988" lon="17.5440833">
        <ele>26.0929</ele>
        <time>2013-04-21T11:39:10Z</time>
      </trkpt>
      <trkpt lat="59.946031" lon="17.544062">
        <ele>26.0929</ele>
        <time>2013-04-21T11:39:11Z</time>
      </trkpt>
      <trkpt lat="59.9459628" lon="17.5440438">
        <ele>26.0929</ele>
        <time>2013-04-21T11:39:12Z</time>
      </trkpt>
      <trkpt lat="59.9458946" lon="17.5440273">
        <ele>27.0543</ele>
        <time>2013-04-21T11:39:13Z</time>
      </trkpt>
      <trkpt lat="59.9458267" lon="17.5440134">
        <ele>27.5349</ele>
        <time>2013-04-21T11:39:14Z</time>
      </trkpt>
      <trkpt lat="59.9457592" lon="17.5440039">
        <ele>27.5349</ele>
        <time>2013-04-21T11:39:15Z</time>
      </trkpt>
      <trkpt lat="59.9456922" lon="17.5439955">
        <ele>27.5349</ele>
        <time>2013-04-21T11:39:16Z</time>
      </trkpt>
      <trkpt lat="59.9456263" lon="17.5439879">
        <ele>27.5349</ele>
        <time>2013-04-21T11:39:17Z</time>
      </trkpt>
      <trkpt lat="59.9455616" lon="17.5439843">
        <ele>27.5349</ele>
        <time>2013-04-21T11:39:18Z</time>
      </trkpt>
      <trkpt lat="59.9454969" lon="17.5439823">
        <ele>27.5349</ele>
        <time>2013-04-21T11:39:19Z</time>
      </trkpt>
      <trkpt lat="59.945432" lon="17.543981">
        <ele>27.0543</ele>
        <time>2013-04-21T11:39:20Z</time>
      </trkpt>
      <trkpt lat="59.9453673" lon="17.5439805">
        <ele>27.0543</ele>
        <time>2013-04-21T11:39:21Z</time>
      </trkpt>
      <trkpt lat="59.9453027" lon="17.5439789">
        <ele>27.0543</ele>
        <time>2013-04-21T11:39:22Z</time>
      </trkpt>
      <trkpt lat="59.9452378" lon="17.5439755">
        <ele>27.5349</ele>
        <time>2013-04-21T11:39:23Z</time>
      </trkpt>
      <trkpt lat="59.9451732" lon="17.5439728">
        <ele>27.5349</ele>
        <time>2013-04-21T11:39:24Z</time>
      </trkpt>
      <trkpt lat="59.9451091" lon="17.5439709">
        <ele>28.0155</ele>
        <time>2013-04-21T11:39:25Z</time>
      </trkpt>
      <trkpt lat="59.9450454" lon="17.5439687">
        <ele>28.0155</ele>
        <time>2013-04-21T11:39:26Z</time>
      </trkpt>
      <trkpt lat="59.9449822" lon="17.5439645">
        <ele>28.4962</ele>
        <time>2013-04-21T11:39:27Z</time>
      </trkpt>
      <trkpt lat="59.9449193" lon="17.5439602">
        <ele>28.4962</ele>
        <time>2013-04-21T11:39:28Z</time>
      </trkpt>
      <trkpt lat="59.9448567" lon="17.5439598">
        <ele>28.9769</ele>
        <time>2013-04-21T11:39:29Z</time>
      </trkpt>
      <trkpt lat="59.9447946" lon="17.54396">
        <ele>28.9769</ele>
        <time>2013-04-21T11:39:30Z</time>
      </trkpt>
      <trkpt lat="59.944733" lon="17.5439595">
        <ele>28.9769</ele>
        <time>2013-04-21T11:39:31Z</time>
      </trkpt>
      <trkpt lat="59.9446721" lon="17.5439592">
        <ele>28.9769</ele>
        <time>2013-04-21T11:39:32Z</time>
      </trkpt>
      <trkpt lat="59.9446117" lon="17.5439581">
        <ele>29.4575</ele>
        <time>2013-04-21T11:39:33Z</time>
      </trkpt>
      <trkpt lat="59.9445521" lon="17.5439571">
        <ele>29.4575</ele>
        <time>2013-04-21T11:39:34Z</time>
      </trkpt>
      <trkpt lat="59.9444931" lon="17.5439581">
        <ele>29.9381</ele>
        <time>2013-04-21T11:39:35Z</time>
      </trkpt>
      <trkpt lat="59.9444338" lon="17.5439577">
        <ele>29.9381</ele>
        <time>2013-04-21T11:39:36Z</time>
      </trkpt>
      <trkpt lat="59.9443742" lon="17.5439576">
        <ele>29.9381</ele>
        <time>2013-04-21T11:39:37Z</time>
      </trkpt>
      <trkpt lat="59.9443145" lon="17.5439572">
        <ele>30.4188</ele>
        <time>2013-04-21T11:39:38Z</time>
      </trkpt>
      <trkpt lat="59.9442553" lon="17.5439571">
        <ele>30.4188</ele>
        <time>2013-04-21T11:39:39Z</time>
      </trkpt>
      <trkpt lat="59.9441978" lon="17.5439546">
        <ele>30.4188</ele>
        <time>2013-04-21T11:39:40Z</time>
      </trkpt>
      <trkpt lat="59.9441387" lon="17.5439535">
        <ele>30.4188</ele>
        <time>2013-04-21T11:39:41Z</time>
      </trkpt>
      <trkpt lat="59.9440782" lon="17.5439521">
        <ele>30.4188</ele>
        <time>2013-04-21T11:39:42Z</time>
      </trkpt>
      <trkpt lat="59.944018" lon="17.5439463">
        <ele>30.4188</ele>
        <time>2013-04-21T11:39:43Z</time>
      </trkpt>
      <trkpt lat="59.9439574" lon="17.5439428">
        <ele>30.4188</ele>
        <time>2013-04-21T11:39:44Z</time>
      </trkpt>
      <trkpt lat="59.9438974" lon="17.5439348">
        <ele>29.9381</ele>
        <time>2013-04-21T11:39:45Z</time>
      </trkpt>
      <trkpt lat="59.9438393" lon="17.5439212">
        <ele>29.9381</ele>
        <time>2013-04-21T11:39:46Z</time>
      </trkpt>
      <trkpt lat="59.9437796" lon="17.5439074">
        <ele>29.9381</ele>
        <time>2013-04-21T11:39:47Z</time>
      </trkpt>
      <trkpt lat="59.9437186" lon="17.5438936">
        <ele>29.9381</ele>
        <time>2013-04-21T11:39:48Z</time>
      </trkpt>
      <trkpt lat="59.943656" lon="17.543879">
        <ele>29.9381</ele>
        <time>2013-04-21T11:39:49Z</time>
      </trkpt>
      <trkpt lat="59.9435923" lon="17.5438625">
        <ele>29.9381</ele>
        <time>2013-04-21T11:39:50Z</time>
      </trkpt>
      <trkpt lat="59.9435291" lon="17.5438447">
        <ele>29.9381</ele>
        <time>2013-04-21T11:39:51Z</time>
      </trkpt>
      <trkpt lat="59.9434659" lon="17.5438226">
        <ele>29.4575</ele>
        <time>2013-04-21T11:39:52Z</time>
      </trkpt>
      <trkpt lat="59.9434021" lon="17.5438004">
        <ele>29.4575</ele>
        <time>2013-04-21T11:39:53Z</time>
      </trkpt>
      <trkpt lat="59.943338" lon="17.5437766">
        <ele>28.9769</ele>
        <time>2013-04-21T11:39:54Z</time>
      </trkpt>
      <trkpt lat="59.9432746" lon="17.5437501">
        <ele>28.9769</ele>
        <time>2013-04-21T11:39:55Z</time>
      </trkpt>
      <trkpt lat="59.9432119" lon="17.5437222">
        <ele>28.9769</ele>
        <time>2013-04-21T11:39:56Z</time>
      </trkpt>
      <trkpt lat="59.9431502" lon="17.5436931">
        <ele>28.4962</ele>
        <time>2013-04-21T11:39:57Z</time>
      </trkpt>
      <trkpt lat="59.9430891" lon="17.5436616">
        <ele>28.4962</ele>
        <time>2013-04-21T11:39:58Z</time>
      </trkpt>
      <trkpt lat="59.9430282" lon="17.5436287">
        <ele>28.0155</ele>
        <time>2013-04-21T11:39:59Z</time>
      </trkpt>
      <trkpt lat="59.9429671" lon="17.5435956">
        <ele>28.0155</ele>
        <time>2013-04-21T11:40:00Z</time>
      </trkpt>
      <trkpt lat="59.9429072" lon="17.5435619">
        <ele>28.0155</ele>
        <time>2013-04-21T11:40:01Z</time>
      </trkpt>
      <trkpt lat="59.942848" lon="17.5435269">
        <ele>27.5349</ele>
        <time>2013-04-21T11:40:02Z</time>
      </trkpt>
      <trkpt lat="59.9427904" lon="17.5434897">
        <ele>27.5349</ele>
        <time>2013-04-21T11:40:03Z</time>
      </trkpt>
      <trkpt lat="59.9427338" lon="17.5434502">
        <ele>27.0543</ele>
        <time>2013-04-21T11:40:04Z</time>
      </trkpt>
      <trkpt lat="59.9426772" lon="17.5434089">
        <ele>27.0543</ele>
        <time>2013-04-21T11:40:05Z</time>
      </trkpt>
      <trkpt lat="59.9426199" lon="17.5433682">
        <ele>26.5736</ele>
        <time>2013-04-21T11:40:06Z</time>
      </trkpt>
      <trkpt lat="59.9425617" lon="17.5433269">
        <ele>26.5736</ele>
        <time>2013-04-21T11:40:07Z</time>
      </trkpt>
      <trkpt lat="59.9425037" lon="17.5432824">
        <ele>26.0929</ele>
        <time>2013-04-21T11:40:08Z</time>
      </trkpt>
      <trkpt lat="59.9424459" lon="17.5432367">
        <ele>26.0929</ele>
        <time>2013-04-21T11:40:09Z</time>
      </trkpt>
      <trkpt lat="59.9423888" lon="17.54319">
        <ele>26.0929</ele>
        <time>2013-04-21T11:40:10Z</time>
      </trkpt>
      <trkpt lat="59.9423326" lon="17.5431415">
        <ele>25.6123</ele>
        <time>2013-04-21T11:40:11Z</time>
      </trkpt>
      <trkpt lat="59.9422769" lon="17.5430918">
        <ele>25.6123</ele>
        <time>2013-04-21T11:40:12Z</time>
      </trkpt>
      <trkpt lat="59.9422216" lon="17.5430394">
        <ele>25.6123</ele>
        <time>2013-04-21T11:40:13Z</time>
      </trkpt>
      <trkpt lat="59.9421667" lon="17.5429858">
        <ele>25.1317</ele>
        <time>2013-04-21T11:40:14Z</time>
      </trkpt>
      <trkpt lat="59.9421116" lon="17.5429321">
        <ele>25.1317</ele>
        <time>2013-04-21T11:40:15Z</time>
      </trkpt>
      <trkpt lat="59.9420563" lon="17.5428779">
        <ele>25.1317</ele>
        <time>2013-04-21T11:40:16Z</time>
      </trkpt>
      <trkpt lat="59.9420003" lon="17.5428269">
        <ele>25.1317</ele>
        <time>2013-04-21T11:40:17Z</time>
      </trkpt>
      <trkpt lat="59.9419437" lon="17.5427821">
        <ele>24.651</ele>
        <time>2013-04-21T11:40:18Z</time>
      </trkpt>
      <trkpt lat="59.9418885" lon="17.5427386">
        <ele>24.1703</ele>
        <time>2013-04-21T11:40:19Z</time>
      </trkpt>
      <trkpt lat="59.9418348" lon="17.5426965">
        <ele>23.6896</ele>
        <time>2013-04-21T11:40:20Z</time>
      </trkpt>
      <trkpt lat="59.9417792" lon="17.5426664">
        <ele>23.6896</ele>
        <time>2013-04-21T11:40:21Z</time>
      </trkpt>
      <trkpt lat="59.9417217" lon="17.5426404">
        <ele>24.1703</ele>
        <time>2013-04-21T11:40:22Z</time>
      </trkpt>
      <trkpt lat="59.9416683" lon="17.5426068">
        <ele>23.6896</ele>
        <time>2013-04-21T11:40:23Z</time>
      </trkpt>
      <trkpt lat="59.9416172" lon="17.5425797">
        <ele>23.6896</ele>
        <time>2013-04-21T11:40:24Z</time>
      </trkpt>
      <trkpt lat="59.9415649" lon="17.5426048">
        <ele>23.6896</ele>
        <time>2013-04-21T11:40:25Z</time>
      </trkpt>
      <trkpt lat="59.9415275" lon="17.5426776">
        <ele>23.209</ele>
        <time>2013-04-21T11:40:26Z</time>
      </trkpt>
      <trkpt lat="59.9414876" lon="17.5427509">
        <ele>23.209</ele>
        <time>2013-04-21T11:40:27Z</time>
      </trkpt>
      <trkpt lat="59.9414434" lon="17.5428191">
        <ele>23.209</ele>
        <time>2013-04-21T11:40:28Z</time>
      </trkpt>
      <trkpt lat="59.9413985" lon="17.5429019">
        <ele>23.6896</ele>
        <time>2013-04-21T11:40:29Z</time>
      </trkpt>
      <trkpt lat="59.9413558" lon="17.5429886">
        <ele>24.1703</ele>
        <time>2013-04-21T11:40:30Z</time>
      </trkpt>
      <trkpt lat="59.9413138" lon="17.5430756">
        <ele>24.651</ele>
        <time>2013-04-21T11:40:31Z</time>
      </trkpt>
      <trkpt lat="59.9412716" lon="17.543162">
        <ele>25.1317</ele>
        <time>2013-04-21T11:40:32Z</time>
      </trkpt>
      <trkpt lat="59.9412281" lon="17.5432488">
        <ele>26.0929</ele>
        <time>2013-04-21T11:40:33Z</time>
      </trkpt>
      <trkpt lat="59.941184" lon="17.5433351">
        <ele>26.5736</ele>
        <time>2013-04-21T11:40:34Z</time>
      </trkpt>
      <trkpt lat="59.9411394" lon="17.5434206">
        <ele>27.0543</ele>
        <time>2013-04-21T11:40:35Z</time>
      </trkpt>
      <trkpt lat="59.9410948" lon="17.543506">
        <ele>27.5349</ele>
        <time>2013-04-21T11:40:36Z</time>
      </trkpt>
      <trkpt lat="59.9410514" lon="17.5435905">
        <ele>28.0155</ele>
        <time>2013-04-21T11:40:37Z</time>
      </trkpt>
      <trkpt lat="59.9410089" lon="17.5436724">
        <ele>28.4962</ele>
        <time>2013-04-21T11:40:38Z</time>
      </trkpt>
      <trkpt lat="59.9409666" lon="17.5437512">
        <ele>28.4962</ele>
        <time>2013-04-21T11:40:39Z</time>
      </trkpt>
      <trkpt lat="59.940925" lon="17.5438282">
        <ele>28.9769</ele>
        <time>2013-04-21T11:40:40Z</time>
      </trkpt>
      <trkpt lat="59.9408856" lon="17.5439024">
        <ele>29.4575</ele>
        <time>2013-04-21T11:40:41Z</time>
      </trkpt>
      <trkpt lat="59.9408476" lon="17.5439718">
        <ele>29.9381</ele>
        <time>2013-04-21T11:40:42Z</time>
      </trkpt>
      <trkpt lat="59.9408079" lon="17.5440386">
        <ele>29.9381</ele>
        <time>2013-04-21T11:40:43Z</time>
      </trkpt>
      <trkpt lat="59.9407743" lon="17.5440983">
        <ele>29.9381</ele>
        <time>2013-04-21T11:40:44Z</time>
      </trkpt>
      <trkpt lat="59.940736" lon="17.5441604">
        <ele>29.9381</ele>
        <time>2013-04-21T11:40:45Z</time>
      </trkpt>
      <trkpt lat="59.9406966" lon="17.5442216">
        <ele>29.4575</ele>
        <time>2013-04-21T11:40:46Z</time>
      </trkpt>
      <trkpt lat="59.9406575" lon="17.5442795">
        <ele>28.9769</ele>
        <time>2013-04-21T11:40:47Z</time>
      </trkpt>
      <trkpt lat="59.9406168" lon="17.5443386">
        <ele>28.4962</ele>
        <time>2013-04-21T11:40:48Z</time>
      </trkpt>
      <trkpt lat="59.9405759" lon="17.5443972">
        <ele>28.0155</ele>
        <time>2013-04-21T11:40:49Z</time>
      </trkpt>
      <trkpt lat="59.9405324" lon="17.5444582">
        <ele>27.5349</ele>
        <time>2013-04-21T11:40:50Z</time>
      </trkpt>
      <trkpt lat="59.9404883" lon="17.544521">
        <ele>26.5736</ele>
        <time>2013-04-21T11:40:51Z</time>
      </trkpt>
      <trkpt lat="59.9404431" lon="17.5445846">
        <ele>26.0929</ele>
        <time>2013-04-21T11:40:52Z</time>
      </trkpt>
      <trkpt lat="59.9403985" lon="17.5446499">
        <ele>25.1317</ele>
        <time>2013-04-21T11:40:53Z</time>
      </trkpt>
      <trkpt lat="59.940353" lon="17.5447145">
        <ele>24.651</ele>
        <time>2013-04-21T11:40:54Z</time>
      </trkpt>
      <trkpt lat="59.9403077" lon="17.5447777">
        <ele>24.1703</ele>
        <time>2013-04-21T11:40:55Z</time>
      </trkpt>
      <trkpt lat="59.9402599" lon="17.5448389">
        <ele>23.6896</ele>
        <time>2013-04-21T11:40:56Z</time>
      </trkpt>
      <trkpt lat="59.9402091" lon="17.5448985">
        <ele>22.7283</ele>
        <time>2013-04-21T11:40:57Z</time>
      </trkpt>
      <trkpt lat="59.9401558" lon="17.5449592">
        <ele>21.767</ele>
        <time>2013-04-21T11:40:58Z</time>
      </trkpt>
      <trkpt lat="59.9401012" lon="17.5450224">
        <ele>20.8057</ele>
        <time>2013-04-21T11:40:59Z</time>
      </trkpt>
      <trkpt lat="59.9400454" lon="17.5450869">
        <ele>20.325</ele>
        <time>2013-04-21T11:41:00Z</time>
      </trkpt>
      <trkpt lat="59.9399893" lon="17.5451538">
        <ele>19.8444</ele>
        <time>2013-04-21T11:41:01Z</time>
      </trkpt>
      <trkpt lat="59.9399339" lon="17.5452223">
        <ele>19.3638</ele>
        <time>2013-04-21T11:41:02Z</time>
      </trkpt>
      <trkpt lat="59.9398779" lon="17.5452898">
        <ele>18.8831</ele>
        <time>2013-04-21T11:41:03Z</time>
      </trkpt>
      <trkpt lat="59.9398217" lon="17.545358">
        <ele>18.4023</ele>
        <time>2013-04-21T11:41:04Z</time>
      </trkpt>
      <trkpt lat="59.9397665" lon="17.5454267">
        <ele>18.4023</ele>
        <time>2013-04-21T11:41:05Z</time>
      </trkpt>
      <trkpt lat="59.9397093" lon="17.5454944">
        <ele>17.9218</ele>
        <time>2013-04-21T11:41:06Z</time>
      </trkpt>
      <trkpt lat="59.9396508" lon="17.5455626">
        <ele>17.4412</ele>
        <time>2013-04-21T11:41:07Z</time>
      </trkpt>
      <trkpt lat="59.9395917" lon="17.5456319">
        <ele>17.4412</ele>
        <time>2013-04-21T11:41:08Z</time>
      </trkpt>
      <trkpt lat="59.9395327" lon="17.5456998">
        <ele>17.4412</ele>
        <time>2013-04-21T11:41:09Z</time>
      </trkpt>
      <trkpt lat="59.9394746" lon="17.5457657">
        <ele>16.9604</ele>
        <time>2013-04-21T11:41:10Z</time>
      </trkpt>
      <trkpt lat="59.9394172" lon="17.5458313">
        <ele>16.9604</ele>
        <time>2013-04-21T11:41:11Z</time>
      </trkpt>
      <trkpt lat="59.9393605" lon="17.5458947">
        <ele>16.9604</ele>
        <time>2013-04-21T11:41:12Z</time>
      </trkpt>
      <trkpt lat="59.9393046" lon="17.5459603">
        <ele>16.9604</ele>
        <time>2013-04-21T11:41:13Z</time>
      </trkpt>
      <trkpt lat="59.9392498" lon="17.5460293">
        <ele>16.9604</ele>
        <time>2013-04-21T11:41:14Z</time>
      </trkpt>
      <trkpt lat="59.9391954" lon="17.5460962">
        <ele>16.9604</ele>
        <time>2013-04-21T11:41:15Z</time>
      </trkpt>
      <trkpt lat="59.9391419" lon="17.5461631">
        <ele>16.9604</ele>
        <time>2013-04-21T11:41:16Z</time>
      </trkpt>
      <trkpt lat="59.9390903" lon="17.5462362">
        <ele>16.9604</ele>
        <time>2013-04-21T11:41:17Z</time>
      </trkpt>
      <trkpt lat="59.9390405" lon="17.5463142">
        <ele>16.9604</ele>
        <time>2013-04-21T11:41:18Z</time>
      </trkpt>
      <trkpt lat="59.9389907" lon="17.5463869">
        <ele>16.9604</ele>
        <time>2013-04-21T11:41:19Z</time>
      </trkpt>
      <trkpt lat="59.938938" lon="17.5464526">
        <ele>17.4412</ele>
        <time>2013-04-21T11:41:20Z</time>
      </trkpt>
      <trkpt lat="59.9388839" lon="17.5465104">
        <ele>17.4412</ele>
        <time>2013-04-21T11:41:21Z</time>
      </trkpt>
      <trkpt lat="59.9388289" lon="17.5465645">
        <ele>17.4412</ele>
        <time>2013-04-21T11:41:22Z</time>
      </trkpt>
      <trkpt lat="59.9387752" lon="17.5466193">
        <ele>17.4412</ele>
        <time>2013-04-21T11:41:23Z</time>
      </trkpt>
      <trkpt lat="59.9387233" lon="17.5466794">
        <ele>17.4412</ele>
        <time>2013-04-21T11:41:24Z</time>
      </trkpt>
      <trkpt lat="59.9386728" lon="17.5467427">
        <ele>17.4412</ele>
        <time>2013-04-21T11:41:25Z</time>
      </trkpt>
      <trkpt lat="59.9386224" lon="17.5468074">
        <ele>17.4412</ele>
        <time>2013-04-21T11:41:26Z</time>
      </trkpt>
      <trkpt lat="59.9385717" lon="17.5468738">
        <ele>17.4412</ele>
        <time>2013-04-21T11:41:27Z</time>
      </trkpt>
      <trkpt lat="59.9385218" lon="17.5469412">
        <ele>17.4412</ele>
        <time>2013-04-21T11:41:28Z</time>
      </trkpt>
      <trkpt lat="59.9384723" lon="17.547011">
        <ele>17.4412</ele>
        <time>2013-04-21T11:41:29Z</time>
      </trkpt>
      <trkpt lat="59.9384233" lon="17.5470866">
        <ele>17.4412</ele>
        <time>2013-04-21T11:41:30Z</time>
      </trkpt>
      <trkpt lat="59.9383743" lon="17.5471673">
        <ele>17.4412</ele>
        <time>2013-04-21T11:41:31Z</time>
      </trkpt>
      <trkpt lat="59.9383256" lon="17.5472503">
        <ele>17.4412</ele>
        <time>2013-04-21T11:41:32Z</time>
      </trkpt>
      <trkpt lat="59.9382773" lon="17.5473354">
        <ele>17.4412</ele>
        <time>2013-04-21T11:41:33Z</time>
      </trkpt>
      <trkpt lat="59.9382291" lon="17.5474221">
        <ele>17.4412</ele>
        <time>2013-04-21T11:41:34Z</time>
      </trkpt>
      <trkpt lat="59.9381801" lon="17.5475086">
        <ele>17.4412</ele>
        <time>2013-04-21T11:41:35Z</time>
      </trkpt>
      <trkpt lat="59.9381301" lon="17.5475949">
        <ele>17.4412</ele>
        <time>2013-04-21T11:41:36Z</time>
      </trkpt>
      <trkpt lat="59.9380796" lon="17.5476822">
        <ele>16.9604</ele>
        <time>2013-04-21T11:41:37Z</time>
      </trkpt>
      <trkpt lat="59.9380287" lon="17.5477694">
        <ele>16.9604</ele>
        <time>2013-04-21T11:41:38Z</time>
      </trkpt>
      <trkpt lat="59.9379776" lon="17.5478564">
        <ele>16.9604</ele>
        <time>2013-04-21T11:41:39Z</time>
      </trkpt>
      <trkpt lat="59.9379279" lon="17.5479455">
        <ele>16.9604</ele>
        <time>2013-04-21T11:41:40Z</time>
      </trkpt>
      <trkpt lat="59.9378795" lon="17.5480359">
        <ele>16.9604</ele>
        <time>2013-04-21T11:41:41Z</time>
      </trkpt>
      <trkpt lat="59.9378315" lon="17.5481262">
        <ele>16.9604</ele>
        <time>2013-04-21T11:41:42Z</time>
      </trkpt>
      <trkpt lat="59.9377848" lon="17.5482179">
        <ele>17.4412</ele>
        <time>2013-04-21T11:41:43Z</time>
      </trkpt>
      <trkpt lat="59.9377385" lon="17.548311">
        <ele>17.4412</ele>
        <time>2013-04-21T11:41:44Z</time>
      </trkpt>
      <trkpt lat="59.9376907" lon="17.5484049">
        <ele>17.4412</ele>
        <time>2013-04-21T11:41:45Z</time>
      </trkpt>
      <trkpt lat="59.9376424" lon="17.5485008">
        <ele>17.4412</ele>
        <time>2013-04-21T11:41:46Z</time>
      </trkpt>
      <trkpt lat="59.9375937" lon="17.5485992">
        <ele>17.4412</ele>
        <time>2013-04-21T11:41:47Z</time>
      </trkpt>
      <trkpt lat="59.9375441" lon="17.5486992">
        <ele>17.4412</ele>
        <time>2013-04-21T11:41:48Z</time>
      </trkpt>
      <trkpt lat="59.9374937" lon="17.5488002">
        <ele>16.9604</ele>
        <time>2013-04-21T11:41:49Z</time>
      </trkpt>
      <trkpt lat="59.9374428" lon="17.5489011">
        <ele>16.9604</ele>
        <time>2013-04-21T11:41:50Z</time>
      </trkpt>
      <trkpt lat="59.9373897" lon="17.5490018">
        <ele>17.4412</ele>
        <time>2013-04-21T11:41:51Z</time>
      </trkpt>
      <trkpt lat="59.9373355" lon="17.5491032">
        <ele>17.9218</ele>
        <time>2013-04-21T11:41:52Z</time>
      </trkpt>
      <trkpt lat="59.9372824" lon="17.5492049">
        <ele>18.4023</ele>
        <time>2013-04-21T11:41:53Z</time>
      </trkpt>
      <trkpt lat="59.9372312" lon="17.5493062">
        <ele>18.8831</ele>
        <time>2013-04-21T11:41:54Z</time>
      </trkpt>
      <trkpt lat="59.9371819" lon="17.5494067">
        <ele>19.8444</ele>
        <time>2013-04-21T11:41:55Z</time>
      </trkpt>
      <trkpt lat="59.9371346" lon="17.5495055">
        <ele>20.325</ele>
        <time>2013-04-21T11:41:56Z</time>
      </trkpt>
      <trkpt lat="59.9370902" lon="17.5496067">
        <ele>20.8057</ele>
        <time>2013-04-21T11:41:57Z</time>
      </trkpt>
      <trkpt lat="59.9370493" lon="17.5497124">
        <ele>20.8057</ele>
        <time>2013-04-21T11:41:58Z</time>
      </trkpt>
      <trkpt lat="59.9370059" lon="17.5498104">
        <ele>20.8057</ele>
        <time>2013-04-21T11:41:59Z</time>
      </trkpt>
      <trkpt lat="59.9369563" lon="17.5498927">
        <ele>20.8057</ele>
        <time>2013-04-21T11:42:00Z</time>
      </trkpt>
      <trkpt lat="59.9369042" lon="17.5499695">
        <ele>20.325</ele>
        <time>2013-04-21T11:42:01Z</time>
      </trkpt>
      <trkpt lat="59.9368554" lon="17.5500517">
        <ele>20.325</ele>
        <time>2013-04-21T11:42:02Z</time>
      </trkpt>
      <trkpt lat="59.936809" lon="17.5501398">
        <ele>20.325</ele>
        <time>2013-04-21T11:42:03Z</time>
      </trkpt>
      <trkpt lat="59.9367638" lon="17.5502298">
        <ele>19.8444</ele>
        <time>2013-04-21T11:42:04Z</time>
      </trkpt>
      <trkpt lat="59.9367193" lon="17.5503206">
        <ele>19.8444</ele>
        <time>2013-04-21T11:42:05Z</time>
      </trkpt>
      <trkpt lat="59.9366759" lon="17.5504138">
        <ele>19.8444</ele>
        <time>2013-04-21T11:42:06Z</time>
      </trkpt>
      <trkpt lat="59.9366312" lon="17.5505055">
        <ele>19.3638</ele>
        <time>2013-04-21T11:42:07Z</time>
      </trkpt>
      <trkpt lat="59.9365851" lon="17.5505941">
        <ele>19.3638</ele>
        <time>2013-04-21T11:42:08Z</time>
      </trkpt>
      <trkpt lat="59.9365393" lon="17.5506827">
        <ele>19.3638</ele>
        <time>2013-04-21T11:42:09Z</time>
      </trkpt>
      <trkpt lat="59.9364945" lon="17.5507738">
        <ele>19.3638</ele>
        <time>2013-04-21T11:42:10Z</time>
      </trkpt>
      <trkpt lat="59.9364499" lon="17.5508664">
        <ele>19.3638</ele>
        <time>2013-04-21T11:42:11Z</time>
      </trkpt>
      <trkpt lat="59.9364042" lon="17.5509587">
        <ele>18.8831</ele>
        <time>2013-04-21T11:42:12Z</time>
      </trkpt>
      <trkpt lat="59.9363575" lon="17.5510494">
        <ele>18.8831</ele>
        <time>2013-04-21T11:42:13Z</time>
      </trkpt>
      <trkpt lat="59.9363106" lon="17.5511405">
        <ele>19.3638</ele>
        <time>2013-04-21T11:42:14Z</time>
      </trkpt>
      <trkpt lat="59.936264" lon="17.5512333">
        <ele>19.3638</ele>
        <time>2013-04-21T11:42:15Z</time>
      </trkpt>
      <trkpt lat="59.9362173" lon="17.551326">
        <ele>19.3638</ele>
        <time>2013-04-21T11:42:16Z</time>
      </trkpt>
      <trkpt lat="59.9361707" lon="17.5514182">
        <ele>19.3638</ele>
        <time>2013-04-21T11:42:17Z</time>
      </trkpt>
      <trkpt lat="59.9361236" lon="17.5515095">
        <ele>19.3638</ele>
        <time>2013-04-21T11:42:18Z</time>
      </trkpt>
      <trkpt lat="59.9360763" lon="17.5516006">
        <ele>19.3638</ele>
        <time>2013-04-21T11:42:19Z</time>
      </trkpt>
      <trkpt lat="59.9360288" lon="17.5516928">
        <ele>19.3638</ele>
        <time>2013-04-21T11:42:20Z</time>
      </trkpt>
      <trkpt lat="59.9359815" lon="17.5517855">
        <ele>19.3638</ele>
        <time>2013-04-21T11:42:21Z</time>
      </trkpt>
      <trkpt lat="59.9359339" lon="17.5518791">
        <ele>19.3638</ele>
        <time>2013-04-21T11:42:22Z</time>
      </trkpt>
      <trkpt lat="59.9358861" lon="17.5519738">
        <ele>18.8831</ele>
        <time>2013-04-21T11:42:23Z</time>
      </trkpt>
      <trkpt lat="59.9358376" lon="17.5520688">
        <ele>18.8831</ele>
        <time>2013-04-21T11:42:24Z</time>
      </trkpt>
      <trkpt lat="59.9357894" lon="17.5521632">
        <ele>18.8831</ele>
        <time>2013-04-21T11:42:25Z</time>
      </trkpt>
      <trkpt lat="59.9357418" lon="17.5522584">
        <ele>18.8831</ele>
        <time>2013-04-21T11:42:26Z</time>
      </trkpt>
      <trkpt lat="59.9356955" lon="17.5523554">
        <ele>18.8831</ele>
        <time>2013-04-21T11:42:27Z</time>
      </trkpt>
      <trkpt lat="59.9356486" lon="17.5524514">
        <ele>18.8831</ele>
        <time>2013-04-21T11:42:28Z</time>
      </trkpt>
      <trkpt lat="59.9355995" lon="17.5525462">
        <ele>18.8831</ele>
        <time>2013-04-21T11:42:29Z</time>
      </trkpt>
      <trkpt lat="59.9355491" lon="17.5526421">
        <ele>18.8831</ele>
        <time>2013-04-21T11:42:30Z</time>
      </trkpt>
      <trkpt lat="59.9354985" lon="17.5527406">
        <ele>18.8831</ele>
        <time>2013-04-21T11:42:31Z</time>
      </trkpt>
      <trkpt lat="59.9354486" lon="17.5528402">
        <ele>18.8831</ele>
        <time>2013-04-21T11:42:32Z</time>
      </trkpt>
      <trkpt lat="59.9353983" lon="17.5529396">
        <ele>18.8831</ele>
        <time>2013-04-21T11:42:33Z</time>
      </trkpt>
      <trkpt lat="59.935348" lon="17.55304">
        <ele>18.4023</ele>
        <time>2013-04-21T11:42:34Z</time>
      </trkpt>
      <trkpt lat="59.9352984" lon="17.5531416">
        <ele>18.8831</ele>
        <time>2013-04-21T11:42:35Z</time>
      </trkpt>
      <trkpt lat="59.9352487" lon="17.5532425">
        <ele>18.4023</ele>
        <time>2013-04-21T11:42:36Z</time>
      </trkpt>
      <trkpt lat="59.9351995" lon="17.5533437">
        <ele>18.8831</ele>
        <time>2013-04-21T11:42:37Z</time>
      </trkpt>
      <trkpt lat="59.9351517" lon="17.5534472">
        <ele>18.8831</ele>
        <time>2013-04-21T11:42:38Z</time>
      </trkpt>
      <trkpt lat="59.9351036" lon="17.5535482">
        <ele>18.8831</ele>
        <time>2013-04-21T11:42:39Z</time>
      </trkpt>
      <trkpt lat="59.9350544" lon="17.5536457">
        <ele>18.8831</ele>
        <time>2013-04-21T11:42:40Z</time>
      </trkpt>
      <trkpt lat="59.935005" lon="17.5537415">
        <ele>18.8831</ele>
        <time>2013-04-21T11:42:41Z</time>
      </trkpt>
      <trkpt lat="59.9349556" lon="17.5538372">
        <ele>18.8831</ele>
        <time>2013-04-21T11:42:42Z</time>
      </trkpt>
      <trkpt lat="59.9349071" lon="17.5539332">
        <ele>18.8831</ele>
        <time>2013-04-21T11:42:43Z</time>
      </trkpt>
      <trkpt lat="59.9348585" lon="17.5540283">
        <ele>18.8831</ele>
        <time>2013-04-21T11:42:44Z</time>
      </trkpt>
      <trkpt lat="59.9348094" lon="17.5541243">
        <ele>18.8831</ele>
        <time>2013-04-21T11:42:45Z</time>
      </trkpt>
      <trkpt lat="59.9347612" lon="17.5542222">
        <ele>18.8831</ele>
        <time>2013-04-21T11:42:46Z</time>
      </trkpt>
      <trkpt lat="59.934713" lon="17.5543186">
        <ele>18.8831</ele>
        <time>2013-04-21T11:42:47Z</time>
      </trkpt>
      <trkpt lat="59.9346652" lon="17.5544128">
        <ele>18.8831</ele>
        <time>2013-04-21T11:42:48Z</time>
      </trkpt>
      <trkpt lat="59.9346172" lon="17.5545072">
        <ele>18.4023</ele>
        <time>2013-04-21T11:42:49Z</time>
      </trkpt>
      <trkpt lat="59.9345693" lon="17.5546018">
        <ele>18.4023</ele>
        <time>2013-04-21T11:42:50Z</time>
      </trkpt>
      <trkpt lat="59.9345219" lon="17.5546971">
        <ele>18.4023</ele>
        <time>2013-04-21T11:42:51Z</time>
      </trkpt>
      <trkpt lat="59.9344753" lon="17.5547931">
        <ele>18.4023</ele>
        <time>2013-04-21T11:42:52Z</time>
      </trkpt>
      <trkpt lat="59.9344288" lon="17.5548893">
        <ele>18.4023</ele>
        <time>2013-04-21T11:42:53Z</time>
      </trkpt>
      <trkpt lat="59.9343831" lon="17.5549868">
        <ele>18.4023</ele>
        <time>2013-04-21T11:42:54Z</time>
      </trkpt>
      <trkpt lat="59.9343401" lon="17.5550891">
        <ele>18.8831</ele>
        <time>2013-04-21T11:42:55Z</time>
      </trkpt>
      <trkpt lat="59.9343041" lon="17.5552032">
        <ele>19.3638</ele>
        <time>2013-04-21T11:42:56Z</time>
      </trkpt>
      <trkpt lat="59.9342769" lon="17.555329">
        <ele>19.3638</ele>
        <time>2013-04-21T11:42:57Z</time>
      </trkpt>
      <trkpt lat="59.9342546" lon="17.5554566">
        <ele>19.8444</ele>
        <time>2013-04-21T11:42:58Z</time>
      </trkpt>
      <trkpt lat="59.9342256" lon="17.5555754">
        <ele>19.8444</ele>
        <time>2013-04-21T11:42:59Z</time>
      </trkpt>
      <trkpt lat="59.9341687" lon="17.5556618">
        <ele>19.8444</ele>
        <time>2013-04-21T11:43:00Z</time>
      </trkpt>
      <trkpt lat="59.9341034" lon="17.5557206">
        <ele>19.8444</ele>
        <time>2013-04-21T11:43:01Z</time>
      </trkpt>
      <trkpt lat="59.934038" lon="17.5557602">
        <ele>19.8444</ele>
        <time>2013-04-21T11:43:02Z</time>
      </trkpt>
      <trkpt lat="59.9339675" lon="17.5558099">
        <ele>19.8444</ele>
        <time>2013-04-21T11:43:03Z</time>
      </trkpt>
      <trkpt lat="59.9339097" lon="17.5558643">
        <ele>19.8444</ele>
        <time>2013-04-21T11:43:04Z</time>
      </trkpt>
      <trkpt lat="59.9338592" lon="17.5559382">
        <ele>19.8444</ele>
        <time>2013-04-21T11:43:05Z</time>
      </trkpt>
      <trkpt lat="59.9338123" lon="17.5560237">
        <ele>20.325</ele>
        <time>2013-04-21T11:43:06Z</time>
      </trkpt>
      <trkpt lat="59.9337687" lon="17.5561112">
        <ele>20.325</ele>
        <time>2013-04-21T11:43:07Z</time>
      </trkpt>
      <trkpt lat="59.9337253" lon="17.5561994">
        <ele>20.325</ele>
        <time>2013-04-21T11:43:08Z</time>
      </trkpt>
      <trkpt lat="59.933683" lon="17.5562869">
        <ele>20.8057</ele>
        <time>2013-04-21T11:43:09Z</time>
      </trkpt>
      <trkpt lat="59.9336406" lon="17.5563717">
        <ele>20.8057</ele>
        <time>2013-04-21T11:43:10Z</time>
      </trkpt>
      <trkpt lat="59.9335987" lon="17.5564538">
        <ele>20.8057</ele>
        <time>2013-04-21T11:43:11Z</time>
      </trkpt>
      <trkpt lat="59.9335566" lon="17.5565347">
        <ele>20.8057</ele>
        <time>2013-04-21T11:43:12Z</time>
      </trkpt>
      <trkpt lat="59.9335121" lon="17.5566171">
        <ele>20.8057</ele>
        <time>2013-04-21T11:43:13Z</time>
      </trkpt>
      <trkpt lat="59.9334717" lon="17.5566998">
        <ele>20.8057</ele>
        <time>2013-04-21T11:43:14Z</time>
      </trkpt>
      <trkpt lat="59.9334324" lon="17.5567815">
        <ele>20.8057</ele>
        <time>2013-04-21T11:43:15Z</time>
      </trkpt>
      <trkpt lat="59.9333916" lon="17.5568645">
        <ele>20.8057</ele>
        <time>2013-04-21T11:43:16Z</time>
      </trkpt>
      <trkpt lat="59.9333502" lon="17.5569489">
        <ele>20.8057</ele>
        <time>2013-04-21T11:43:17Z</time>
      </trkpt>
      <trkpt lat="59.9333085" lon="17.5570351">
        <ele>20.8057</ele>
        <time>2013-04-21T11:43:18Z</time>
      </trkpt>
      <trkpt lat="59.9332651" lon="17.5571219">
        <ele>20.8057</ele>
        <time>2013-04-21T11:43:19Z</time>
      </trkpt>
      <trkpt lat="59.9332212" lon="17.5572075">
        <ele>20.325</ele>
        <time>2013-04-21T11:43:20Z</time>
      </trkpt>
      <trkpt lat="59.9331771" lon="17.5572931">
        <ele>20.325</ele>
        <time>2013-04-21T11:43:21Z</time>
      </trkpt>
      <trkpt lat="59.9331331" lon="17.5573806">
        <ele>20.325</ele>
        <time>2013-04-21T11:43:22Z</time>
      </trkpt>
      <trkpt lat="59.9330884" lon="17.5574686">
        <ele>20.325</ele>
        <time>2013-04-21T11:43:23Z</time>
      </trkpt>
      <trkpt lat="59.9330436" lon="17.5575572">
        <ele>20.8057</ele>
        <time>2013-04-21T11:43:24Z</time>
      </trkpt>
      <trkpt lat="59.9329956" lon="17.5576489">
        <ele>20.8057</ele>
        <time>2013-04-21T11:43:25Z</time>
      </trkpt>
      <trkpt lat="59.9329485" lon="17.5577416">
        <ele>21.2864</ele>
        <time>2013-04-21T11:43:26Z</time>
      </trkpt>
      <trkpt lat="59.9329024" lon="17.5578334">
        <ele>21.2864</ele>
        <time>2013-04-21T11:43:27Z</time>
      </trkpt>
      <trkpt lat="59.932856" lon="17.5579256">
        <ele>21.767</ele>
        <time>2013-04-21T11:43:28Z</time>
      </trkpt>
      <trkpt lat="59.9328086" lon="17.5580177">
        <ele>21.767</ele>
        <time>2013-04-21T11:43:29Z</time>
      </trkpt>
      <trkpt lat="59.9327625" lon="17.5581114">
        <ele>22.2476</ele>
        <time>2013-04-21T11:43:30Z</time>
      </trkpt>
      <trkpt lat="59.9327177" lon="17.5582058">
        <ele>22.2476</ele>
        <time>2013-04-21T11:43:31Z</time>
      </trkpt>
      <trkpt lat="59.9326724" lon="17.5582985">
        <ele>22.7283</ele>
        <time>2013-04-21T11:43:32Z</time>
      </trkpt>
      <trkpt lat="59.9326265" lon="17.5583892">
        <ele>22.7283</ele>
        <time>2013-04-21T11:43:33Z</time>
      </trkpt>
      <trkpt lat="59.9325802" lon="17.5584797">
        <ele>23.209</ele>
        <time>2013-04-21T11:43:34Z</time>
      </trkpt>
      <trkpt lat="59.9325338" lon="17.5585709">
        <ele>23.209</ele>
        <time>2013-04-21T11:43:35Z</time>
      </trkpt>
      <trkpt lat="59.9324872" lon="17.558664">
        <ele>23.6896</ele>
        <time>2013-04-21T11:43:36Z</time>
      </trkpt>
      <trkpt lat="59.9324406" lon="17.5587573">
        <ele>23.6896</ele>
        <time>2013-04-21T11:43:37Z</time>
      </trkpt>
      <trkpt lat="59.9323954" lon="17.55885">
        <ele>24.1703</ele>
        <time>2013-04-21T11:43:38Z</time>
      </trkpt>
      <trkpt lat="59.9323504" lon="17.5589423">
        <ele>24.1703</ele>
        <time>2013-04-21T11:43:39Z</time>
      </trkpt>
      <trkpt lat="59.9323048" lon="17.5590364">
        <ele>24.651</ele>
        <time>2013-04-21T11:43:40Z</time>
      </trkpt>
      <trkpt lat="59.9322611" lon="17.5591289">
        <ele>24.651</ele>
        <time>2013-04-21T11:43:41Z</time>
      </trkpt>
      <trkpt lat="59.9322193" lon="17.5592151">
        <ele>25.1317</ele>
        <time>2013-04-21T11:43:42Z</time>
      </trkpt>
      <trkpt lat="59.9321784" lon="17.5592966">
        <ele>25.1317</ele>
        <time>2013-04-21T11:43:43Z</time>
      </trkpt>
      <trkpt lat="59.9321392" lon="17.5593758">
        <ele>25.1317</ele>
        <time>2013-04-21T11:43:44Z</time>
      </trkpt>
      <trkpt lat="59.9321018" lon="17.559452">
        <ele>25.6123</ele>
        <time>2013-04-21T11:43:45Z</time>
      </trkpt>
      <trkpt lat="59.932066" lon="17.5595267">
        <ele>25.6123</ele>
        <time>2013-04-21T11:43:46Z</time>
      </trkpt>
      <trkpt lat="59.9320317" lon="17.5595998">
        <ele>26.0929</ele>
        <time>2013-04-21T11:43:47Z</time>
      </trkpt>
      <trkpt lat="59.9319972" lon="17.5596711">
        <ele>26.0929</ele>
        <time>2013-04-21T11:43:48Z</time>
      </trkpt>
      <trkpt lat="59.9319632" lon="17.5597409">
        <ele>26.0929</ele>
        <time>2013-04-21T11:43:49Z</time>
      </trkpt>
      <trkpt lat="59.9319296" lon="17.55981">
        <ele>26.5736</ele>
        <time>2013-04-21T11:43:50Z</time>
      </trkpt>
      <trkpt lat="59.9318961" lon="17.5598781">
        <ele>26.5736</ele>
        <time>2013-04-21T11:43:51Z</time>
      </trkpt>
      <trkpt lat="59.9318623" lon="17.5599461">
        <ele>26.5736</ele>
        <time>2013-04-21T11:43:52Z</time>
      </trkpt>
      <trkpt lat="59.9318275" lon="17.5600152">
        <ele>27.0543</ele>
        <time>2013-04-21T11:43:53Z</time>
      </trkpt>
      <trkpt lat="59.9317913" lon="17.5600852">
        <ele>27.0543</ele>
        <time>2013-04-21T11:43:54Z</time>
      </trkpt>
      <trkpt lat="59.9317547" lon="17.5601564">
        <ele>27.0543</ele>
        <time>2013-04-21T11:43:55Z</time>
      </trkpt>
      <trkpt lat="59.9317184" lon="17.5602292">
        <ele>27.0543</ele>
        <time>2013-04-21T11:43:56Z</time>
      </trkpt>
      <trkpt lat="59.9316816" lon="17.5603024">
        <ele>27.0543</ele>
        <time>2013-04-21T11:43:57Z</time>
      </trkpt>
      <trkpt lat="59.9316442" lon="17.5603754">
        <ele>27.5349</ele>
        <time>2013-04-21T11:43:58Z</time>
      </trkpt>
      <trkpt lat="59.9316055" lon="17.5604487">
        <ele>27.5349</ele>
        <time>2013-04-21T11:43:59Z</time>
      </trkpt>
      <trkpt lat="59.9315667" lon="17.5605249">
        <ele>27.5349</ele>
        <time>2013-04-21T11:44:00Z</time>
      </trkpt>
      <trkpt lat="59.9315287" lon="17.5606042">
        <ele>27.5349</ele>
        <time>2013-04-21T11:44:01Z</time>
      </trkpt>
      <trkpt lat="59.9314915" lon="17.5606865">
        <ele>27.5349</ele>
        <time>2013-04-21T11:44:02Z</time>
      </trkpt>
      <trkpt lat="59.9314548" lon="17.5607719">
        <ele>27.5349</ele>
        <time>2013-04-21T11:44:03Z</time>
      </trkpt>
      <trkpt lat="59.9314163" lon="17.5608532">
        <ele>27.5349</ele>
        <time>2013-04-21T11:44:04Z</time>
      </trkpt>
      <trkpt lat="59.931376" lon="17.5609266">
        <ele>28.0155</ele>
        <time>2013-04-21T11:44:05Z</time>
      </trkpt>
      <trkpt lat="59.9313362" lon="17.5609976">
        <ele>28.0155</ele>
        <time>2013-04-21T11:44:06Z</time>
      </trkpt>
      <trkpt lat="59.9312957" lon="17.5610708">
        <ele>28.0155</ele>
        <time>2013-04-21T11:44:07Z</time>
      </trkpt>
      <trkpt lat="59.9312538" lon="17.561149">
        <ele>28.0155</ele>
        <time>2013-04-21T11:44:08Z</time>
      </trkpt>
      <trkpt lat="59.9312134" lon="17.561235">
        <ele>28.0155</ele>
        <time>2013-04-21T11:44:09Z</time>
      </trkpt>
      <trkpt lat="59.9311733" lon="17.5613256">
        <ele>28.0155</ele>
        <time>2013-04-21T11:44:10Z</time>
      </trkpt>
      <trkpt lat="59.9311305" lon="17.5614161">
        <ele>28.0155</ele>
        <time>2013-04-21T11:44:11Z</time>
      </trkpt>
      <trkpt lat="59.9310854" lon="17.5615049">
        <ele>28.0155</ele>
        <time>2013-04-21T11:44:12Z</time>
      </trkpt>
      <trkpt lat="59.9310404" lon="17.561594">
        <ele>28.0155</ele>
        <time>2013-04-21T11:44:13Z</time>
      </trkpt>
      <trkpt lat="59.9309962" lon="17.5616847">
        <ele>28.0155</ele>
        <time>2013-04-21T11:44:14Z</time>
      </trkpt>
      <trkpt lat="59.9309516" lon="17.5617742">
        <ele>28.0155</ele>
        <time>2013-04-21T11:44:15Z</time>
      </trkpt>
      <trkpt lat="59.9309065" lon="17.5618603">
        <ele>28.0155</ele>
        <time>2013-04-21T11:44:16Z</time>
      </trkpt>
      <trkpt lat="59.9308621" lon="17.5619442">
        <ele>28.0155</ele>
        <time>2013-04-21T11:44:17Z</time>
      </trkpt>
      <trkpt lat="59.9308196" lon="17.5620294">
        <ele>28.4962</ele>
        <time>2013-04-21T11:44:18Z</time>
      </trkpt>
      <trkpt lat="59.9307767" lon="17.5621161">
        <ele>28.0155</ele>
        <time>2013-04-21T11:44:19Z</time>
      </trkpt>
      <trkpt lat="59.9307311" lon="17.5622032">
        <ele>28.0155</ele>
        <time>2013-04-21T11:44:20Z</time>
      </trkpt>
      <trkpt lat="59.9306825" lon="17.5622938">
        <ele>28.0155</ele>
        <time>2013-04-21T11:44:21Z</time>
      </trkpt>
      <trkpt lat="59.9306333" lon="17.5623884">
        <ele>28.0155</ele>
        <time>2013-04-21T11:44:22Z</time>
      </trkpt>
      <trkpt lat="59.9305844" lon="17.562485">
        <ele>28.0155</ele>
        <time>2013-04-21T11:44:23Z</time>
      </trkpt>
      <trkpt lat="59.9305349" lon="17.5625824">
        <ele>28.0155</ele>
        <time>2013-04-21T11:44:24Z</time>
      </trkpt>
      <trkpt lat="59.9304851" lon="17.5626801">
        <ele>28.0155</ele>
        <time>2013-04-21T11:44:25Z</time>
      </trkpt>
      <trkpt lat="59.9304351" lon="17.5627783">
        <ele>28.0155</ele>
        <time>2013-04-21T11:44:26Z</time>
      </trkpt>
      <trkpt lat="59.9303862" lon="17.5628766">
        <ele>28.0155</ele>
        <time>2013-04-21T11:44:27Z</time>
      </trkpt>
      <trkpt lat="59.9303386" lon="17.5629728">
        <ele>28.0155</ele>
        <time>2013-04-21T11:44:28Z</time>
      </trkpt>
      <trkpt lat="59.9302903" lon="17.563067">
        <ele>28.0155</ele>
        <time>2013-04-21T11:44:29Z</time>
      </trkpt>
      <trkpt lat="59.9302419" lon="17.5631618">
        <ele>28.0155</ele>
        <time>2013-04-21T11:44:30Z</time>
      </trkpt>
      <trkpt lat="59.930194" lon="17.5632589">
        <ele>27.5349</ele>
        <time>2013-04-21T11:44:31Z</time>
      </trkpt>
      <trkpt lat="59.9301468" lon="17.5633578">
        <ele>27.5349</ele>
        <time>2013-04-21T11:44:32Z</time>
      </trkpt>
      <trkpt lat="59.9300996" lon="17.5634563">
        <ele>27.5349</ele>
        <time>2013-04-21T11:44:33Z</time>
      </trkpt>
      <trkpt lat="59.930051" lon="17.563554">
        <ele>27.5349</ele>
        <time>2013-04-21T11:44:34Z</time>
      </trkpt>
      <trkpt lat="59.9300021" lon="17.5636515">
        <ele>27.5349</ele>
        <time>2013-04-21T11:44:35Z</time>
      </trkpt>
      <trkpt lat="59.9299528" lon="17.5637482">
        <ele>27.5349</ele>
        <time>2013-04-21T11:44:36Z</time>
      </trkpt>
      <trkpt lat="59.9299038" lon="17.5638448">
        <ele>27.5349</ele>
        <time>2013-04-21T11:44:37Z</time>
      </trkpt>
      <trkpt lat="59.9298562" lon="17.5639435">
        <ele>27.5349</ele>
        <time>2013-04-21T11:44:38Z</time>
      </trkpt>
      <trkpt lat="59.9298099" lon="17.564042">
        <ele>27.5349</ele>
        <time>2013-04-21T11:44:39Z</time>
      </trkpt>
      <trkpt lat="59.9297645" lon="17.5641367">
        <ele>27.5349</ele>
        <time>2013-04-21T11:44:40Z</time>
      </trkpt>
      <trkpt lat="59.9297199" lon="17.5642272">
        <ele>27.5349</ele>
        <time>2013-04-21T11:44:41Z</time>
      </trkpt>
      <trkpt lat="59.9296763" lon="17.5643156">
        <ele>27.5349</ele>
        <time>2013-04-21T11:44:42Z</time>
      </trkpt>
      <trkpt lat="59.9296328" lon="17.5644011">
        <ele>27.5349</ele>
        <time>2013-04-21T11:44:43Z</time>
      </trkpt>
      <trkpt lat="59.9295885" lon="17.5644874">
        <ele>27.5349</ele>
        <time>2013-04-21T11:44:44Z</time>
      </trkpt>
      <trkpt lat="59.9295442" lon="17.5645773">
        <ele>27.5349</ele>
        <time>2013-04-21T11:44:45Z</time>
      </trkpt>
      <trkpt lat="59.9294946" lon="17.5646746">
        <ele>27.5349</ele>
        <time>2013-04-21T11:44:46Z</time>
      </trkpt>
      <trkpt lat="59.9294471" lon="17.5647668">
        <ele>27.0543</ele>
        <time>2013-04-21T11:44:47Z</time>
      </trkpt>
      <trkpt lat="59.9293981" lon="17.564858">
        <ele>27.0543</ele>
        <time>2013-04-21T11:44:48Z</time>
      </trkpt>
      <trkpt lat="59.9293496" lon="17.5649528">
        <ele>27.0543</ele>
        <time>2013-04-21T11:44:49Z</time>
      </trkpt>
      <trkpt lat="59.9293018" lon="17.5650498">
        <ele>27.0543</ele>
        <time>2013-04-21T11:44:50Z</time>
      </trkpt>
      <trkpt lat="59.929254" lon="17.5651465">
        <ele>26.5736</ele>
        <time>2013-04-21T11:44:51Z</time>
      </trkpt>
      <trkpt lat="59.9292064" lon="17.5652417">
        <ele>26.5736</ele>
        <time>2013-04-21T11:44:52Z</time>
      </trkpt>
      <trkpt lat="59.9291582" lon="17.5653346">
        <ele>26.5736</ele>
        <time>2013-04-21T11:44:53Z</time>
      </trkpt>
      <trkpt lat="59.9291091" lon="17.5654273">
        <ele>26.0929</ele>
        <time>2013-04-21T11:44:54Z</time>
      </trkpt>
      <trkpt lat="59.9290594" lon="17.5655221">
        <ele>26.0929</ele>
        <time>2013-04-21T11:44:55Z</time>
      </trkpt>
      <trkpt lat="59.9290098" lon="17.5656189">
        <ele>26.0929</ele>
        <time>2013-04-21T11:44:56Z</time>
      </trkpt>
      <trkpt lat="59.9289611" lon="17.5657172">
        <ele>26.0929</ele>
        <time>2013-04-21T11:44:57Z</time>
      </trkpt>
      <trkpt lat="59.9289125" lon="17.5658173">
        <ele>25.6123</ele>
        <time>2013-04-21T11:44:58Z</time>
      </trkpt>
      <trkpt lat="59.9288648" lon="17.5659162">
        <ele>25.6123</ele>
        <time>2013-04-21T11:44:59Z</time>
      </trkpt>
      <trkpt lat="59.9288179" lon="17.5660122">
        <ele>25.6123</ele>
        <time>2013-04-21T11:45:00Z</time>
      </trkpt>
      <trkpt lat="59.928771" lon="17.5661059">
        <ele>25.6123</ele>
        <time>2013-04-21T11:45:01Z</time>
      </trkpt>
      <trkpt lat="59.9287246" lon="17.5661991">
        <ele>25.6123</ele>
        <time>2013-04-21T11:45:02Z</time>
      </trkpt>
      <trkpt lat="59.9286789" lon="17.5662935">
        <ele>25.6123</ele>
        <time>2013-04-21T11:45:03Z</time>
      </trkpt>
      <trkpt lat="59.9286338" lon="17.5663861">
        <ele>25.6123</ele>
        <time>2013-04-21T11:45:04Z</time>
      </trkpt>
      <trkpt lat="59.9285884" lon="17.5664778">
        <ele>25.6123</ele>
        <time>2013-04-21T11:45:05Z</time>
      </trkpt>
      <trkpt lat="59.9285431" lon="17.5665682">
        <ele>25.6123</ele>
        <time>2013-04-21T11:45:06Z</time>
      </trkpt>
      <trkpt lat="59.9284985" lon="17.5666579">
        <ele>25.6123</ele>
        <time>2013-04-21T11:45:07Z</time>
      </trkpt>
      <trkpt lat="59.9284555" lon="17.5667461">
        <ele>25.6123</ele>
        <time>2013-04-21T11:45:08Z</time>
      </trkpt>
      <trkpt lat="59.9284135" lon="17.566829">
        <ele>25.6123</ele>
        <time>2013-04-21T11:45:09Z</time>
      </trkpt>
      <trkpt lat="59.9283721" lon="17.5669101">
        <ele>25.6123</ele>
        <time>2013-04-21T11:45:10Z</time>
      </trkpt>
      <trkpt lat="59.9283315" lon="17.566992">
        <ele>25.1317</ele>
        <time>2013-04-21T11:45:11Z</time>
      </trkpt>
      <trkpt lat="59.9282912" lon="17.5670721">
        <ele>25.1317</ele>
        <time>2013-04-21T11:45:12Z</time>
      </trkpt>
      <trkpt lat="59.9282524" lon="17.5671521">
        <ele>25.1317</ele>
        <time>2013-04-21T11:45:13Z</time>
      </trkpt>
      <trkpt lat="59.9282201" lon="17.5672407">
        <ele>25.1317</ele>
        <time>2013-04-21T11:45:14Z</time>
      </trkpt>
      <trkpt lat="59.9281924" lon="17.5673336">
        <ele>24.651</ele>
        <time>2013-04-21T11:45:15Z</time>
      </trkpt>
      <trkpt lat="59.9281611" lon="17.5674209">
        <ele>24.651</ele>
        <time>2013-04-21T11:45:16Z</time>
      </trkpt>
      <trkpt lat="59.9281203" lon="17.5674961">
        <ele>24.651</ele>
        <time>2013-04-21T11:45:17Z</time>
      </trkpt>
      <trkpt lat="59.9280725" lon="17.5675522">
        <ele>24.651</ele>
        <time>2013-04-21T11:45:18Z</time>
      </trkpt>
      <trkpt lat="59.9280222" lon="17.5675942">
        <ele>24.651</ele>
        <time>2013-04-21T11:45:19Z</time>
      </trkpt>
      <trkpt lat="59.9279704" lon="17.5676296">
        <ele>24.651</ele>
        <time>2013-04-21T11:45:20Z</time>
      </trkpt>
      <trkpt lat="59.927916" lon="17.5676444">
        <ele>24.1703</ele>
        <time>2013-04-21T11:45:21Z</time>
      </trkpt>
      <trkpt lat="59.9278614" lon="17.5676335">
        <ele>24.1703</ele>
        <time>2013-04-21T11:45:22Z</time>
      </trkpt>
      <trkpt lat="59.9278048" lon="17.5676211">
        <ele>23.6896</ele>
        <time>2013-04-21T11:45:23Z</time>
      </trkpt>
      <trkpt lat="59.9277478" lon="17.5676241">
        <ele>23.6896</ele>
        <time>2013-04-21T11:45:24Z</time>
      </trkpt>
      <trkpt lat="59.9276941" lon="17.5676449">
        <ele>23.6896</ele>
        <time>2013-04-21T11:45:25Z</time>
      </trkpt>
      <trkpt lat="59.9276438" lon="17.5676765">
        <ele>23.6896</ele>
        <time>2013-04-21T11:45:26Z</time>
      </trkpt>
      <trkpt lat="59.927595" lon="17.5677076">
        <ele>23.6896</ele>
        <time>2013-04-21T11:45:27Z</time>
      </trkpt>
      <trkpt lat="59.9275475" lon="17.5677371">
        <ele>23.6896</ele>
        <time>2013-04-21T11:45:28Z</time>
      </trkpt>
      <trkpt lat="59.9275014" lon="17.5677676">
        <ele>23.6896</ele>
        <time>2013-04-21T11:45:29Z</time>
      </trkpt>
      <trkpt lat="59.9274557" lon="17.5677972">
        <ele>24.1703</ele>
        <time>2013-04-21T11:45:30Z</time>
      </trkpt>
      <trkpt lat="59.9274106" lon="17.5678241">
        <ele>24.1703</ele>
        <time>2013-04-21T11:45:31Z</time>
      </trkpt>
      <trkpt lat="59.9273644" lon="17.5678479">
        <ele>24.1703</ele>
        <time>2013-04-21T11:45:32Z</time>
      </trkpt>
      <trkpt lat="59.927316" lon="17.5678703">
        <ele>24.1703</ele>
        <time>2013-04-21T11:45:33Z</time>
      </trkpt>
      <trkpt lat="59.927266" lon="17.5678916">
        <ele>24.1703</ele>
        <time>2013-04-21T11:45:34Z</time>
      </trkpt>
      <trkpt lat="59.9272148" lon="17.5679109">
        <ele>24.1703</ele>
        <time>2013-04-21T11:45:35Z</time>
      </trkpt>
      <trkpt lat="59.9271641" lon="17.5679316">
        <ele>24.1703</ele>
        <time>2013-04-21T11:45:36Z</time>
      </trkpt>
      <trkpt lat="59.9271136" lon="17.5679522">
        <ele>24.1703</ele>
        <time>2013-04-21T11:45:37Z</time>
      </trkpt>
      <trkpt lat="59.9270626" lon="17.5679676">
        <ele>23.6896</ele>
        <time>2013-04-21T11:45:38Z</time>
      </trkpt>
      <trkpt lat="59.9270116" lon="17.56798">
        <ele>23.6896</ele>
        <time>2013-04-21T11:45:39Z</time>
      </trkpt>
      <trkpt lat="59.9269616" lon="17.5679909">
        <ele>24.1703</ele>
        <time>2013-04-21T11:45:40Z</time>
      </trkpt>
      <trkpt lat="59.9269137" lon="17.5679982">
        <ele>24.1703</ele>
        <time>2013-04-21T11:45:41Z</time>
      </trkpt>
      <trkpt lat="59.9268666" lon="17.5680035">
        <ele>23.6896</ele>
        <time>2013-04-21T11:45:42Z</time>
      </trkpt>
      <trkpt lat="59.9268169" lon="17.5680084">
        <ele>24.1703</ele>
        <time>2013-04-21T11:45:43Z</time>
      </trkpt>
      <trkpt lat="59.9267669" lon="17.5680126">
        <ele>23.6896</ele>
        <time>2013-04-21T11:45:44Z</time>
      </trkpt>
      <trkpt lat="59.9267142" lon="17.5680102">
        <ele>24.1703</ele>
        <time>2013-04-21T11:45:45Z</time>
      </trkpt>
      <trkpt lat="59.9266593" lon="17.5680002">
        <ele>23.6896</ele>
        <time>2013-04-21T11:45:46Z</time>
      </trkpt>
      <trkpt lat="59.9266011" lon="17.5679902">
        <ele>23.6896</ele>
        <time>2013-04-21T11:45:47Z</time>
      </trkpt>
      <trkpt lat="59.9265403" lon="17.5679826">
        <ele>23.6896</ele>
        <time>2013-04-21T11:45:48Z</time>
      </trkpt>
      <trkpt lat="59.9264776" lon="17.5679749">
        <ele>23.6896</ele>
        <time>2013-04-21T11:45:49Z</time>
      </trkpt>
      <trkpt lat="59.926414" lon="17.5679639">
        <ele>23.6896</ele>
        <time>2013-04-21T11:45:50Z</time>
      </trkpt>
      <trkpt lat="59.9263501" lon="17.5679511">
        <ele>23.209</ele>
        <time>2013-04-21T11:45:51Z</time>
      </trkpt>
      <trkpt lat="59.9262861" lon="17.5679371">
        <ele>23.209</ele>
        <time>2013-04-21T11:45:52Z</time>
      </trkpt>
      <trkpt lat="59.9262222" lon="17.5679204">
        <ele>23.209</ele>
        <time>2013-04-21T11:45:53Z</time>
      </trkpt>
      <trkpt lat="59.9261586" lon="17.5678991">
        <ele>23.209</ele>
        <time>2013-04-21T11:45:54Z</time>
      </trkpt>
      <trkpt lat="59.9260959" lon="17.5678723">
        <ele>23.209</ele>
        <time>2013-04-21T11:45:55Z</time>
      </trkpt>
      <trkpt lat="59.9260332" lon="17.5678422">
        <ele>23.209</ele>
        <time>2013-04-21T11:45:56Z</time>
      </trkpt>
      <trkpt lat="59.92597" lon="17.5678094">
        <ele>23.209</ele>
        <time>2013-04-21T11:45:57Z</time>
      </trkpt>
      <trkpt lat="59.9259064" lon="17.5677766">
        <ele>23.209</ele>
        <time>2013-04-21T11:45:58Z</time>
      </trkpt>
      <trkpt lat="59.9258422" lon="17.5677429">
        <ele>23.209</ele>
        <time>2013-04-21T11:45:59Z</time>
      </trkpt>
      <trkpt lat="59.9257785" lon="17.5677027">
        <ele>23.209</ele>
        <time>2013-04-21T11:46:00Z</time>
      </trkpt>
      <trkpt lat="59.9257152" lon="17.5676567">
        <ele>23.209</ele>
        <time>2013-04-21T11:46:01Z</time>
      </trkpt>
      <trkpt lat="59.925653" lon="17.567605">
        <ele>23.209</ele>
        <time>2013-04-21T11:46:02Z</time>
      </trkpt>
      <trkpt lat="59.9255919" lon="17.567547">
        <ele>23.209</ele>
        <time>2013-04-21T11:46:03Z</time>
      </trkpt>
      <trkpt lat="59.9255316" lon="17.5674883">
        <ele>23.209</ele>
        <time>2013-04-21T11:46:04Z</time>
      </trkpt>
      <trkpt lat="59.9254718" lon="17.56743">
        <ele>22.7283</ele>
        <time>2013-04-21T11:46:05Z</time>
      </trkpt>
      <trkpt lat="59.9254131" lon="17.5673687">
        <ele>22.7283</ele>
        <time>2013-04-21T11:46:06Z</time>
      </trkpt>
      <trkpt lat="59.9253547" lon="17.5673069">
        <ele>22.7283</ele>
        <time>2013-04-21T11:46:07Z</time>
      </trkpt>
      <trkpt lat="59.9252961" lon="17.5672472">
        <ele>22.7283</ele>
        <time>2013-04-21T11:46:08Z</time>
      </trkpt>
      <trkpt lat="59.925238" lon="17.5671864">
        <ele>22.7283</ele>
        <time>2013-04-21T11:46:09Z</time>
      </trkpt>
      <trkpt lat="59.9251794" lon="17.5671273">
        <ele>22.2476</ele>
        <time>2013-04-21T11:46:10Z</time>
      </trkpt>
      <trkpt lat="59.9251198" lon="17.5670712">
        <ele>22.2476</ele>
        <time>2013-04-21T11:46:11Z</time>
      </trkpt>
      <trkpt lat="59.9250599" lon="17.5670146">
        <ele>22.2476</ele>
        <time>2013-04-21T11:46:12Z</time>
      </trkpt>
      <trkpt lat="59.9250001" lon="17.566957">
        <ele>22.2476</ele>
        <time>2013-04-21T11:46:13Z</time>
      </trkpt>
      <trkpt lat="59.9249406" lon="17.5668989">
        <ele>22.2476</ele>
        <time>2013-04-21T11:46:14Z</time>
      </trkpt>
      <trkpt lat="59.9248802" lon="17.5668399">
        <ele>21.767</ele>
        <time>2013-04-21T11:46:15Z</time>
      </trkpt>
      <trkpt lat="59.9248196" lon="17.5667798">
        <ele>21.767</ele>
        <time>2013-04-21T11:46:16Z</time>
      </trkpt>
      <trkpt lat="59.9247605" lon="17.5667196">
        <ele>21.767</ele>
        <time>2013-04-21T11:46:17Z</time>
      </trkpt>
      <trkpt lat="59.9247023" lon="17.5666592">
        <ele>21.767</ele>
        <time>2013-04-21T11:46:18Z</time>
      </trkpt>
      <trkpt lat="59.9246438" lon="17.566601">
        <ele>21.767</ele>
        <time>2013-04-21T11:46:19Z</time>
      </trkpt>
      <trkpt lat="59.9245853" lon="17.5665429">
        <ele>21.767</ele>
        <time>2013-04-21T11:46:20Z</time>
      </trkpt>
      <trkpt lat="59.9245264" lon="17.566486">
        <ele>21.767</ele>
        <time>2013-04-21T11:46:21Z</time>
      </trkpt>
      <trkpt lat="59.9244678" lon="17.5664306">
        <ele>21.767</ele>
        <time>2013-04-21T11:46:22Z</time>
      </trkpt>
      <trkpt lat="59.9244094" lon="17.5663746">
        <ele>21.2864</ele>
        <time>2013-04-21T11:46:23Z</time>
      </trkpt>
      <trkpt lat="59.9243517" lon="17.5663157">
        <ele>21.2864</ele>
        <time>2013-04-21T11:46:24Z</time>
      </trkpt>
      <trkpt lat="59.9242932" lon="17.5662564">
        <ele>21.2864</ele>
        <time>2013-04-21T11:46:25Z</time>
      </trkpt>
      <trkpt lat="59.9242341" lon="17.5661981">
        <ele>21.2864</ele>
        <time>2013-04-21T11:46:26Z</time>
      </trkpt>
      <trkpt lat="59.9241757" lon="17.5661385">
        <ele>21.2864</ele>
        <time>2013-04-21T11:46:27Z</time>
      </trkpt>
      <trkpt lat="59.9241178" lon="17.5660793">
        <ele>21.2864</ele>
        <time>2013-04-21T11:46:28Z</time>
      </trkpt>
      <trkpt lat="59.9240597" lon="17.5660204">
        <ele>21.2864</ele>
        <time>2013-04-21T11:46:29Z</time>
      </trkpt>
      <trkpt lat="59.9240011" lon="17.5659622">
        <ele>21.2864</ele>
        <time>2013-04-21T11:46:30Z</time>
      </trkpt>
      <trkpt lat="59.923942" lon="17.5659048">
        <ele>21.2864</ele>
        <time>2013-04-21T11:46:31Z</time>
      </trkpt>
      <trkpt lat="59.923883" lon="17.5658464">
        <ele>21.2864</ele>
        <time>2013-04-21T11:46:32Z</time>
      </trkpt>
      <trkpt lat="59.9238241" lon="17.5657873">
        <ele>20.8057</ele>
        <time>2013-04-21T11:46:33Z</time>
      </trkpt>
      <trkpt lat="59.9237642" lon="17.5657281">
        <ele>20.8057</ele>
        <time>2013-04-21T11:46:34Z</time>
      </trkpt>
      <trkpt lat="59.9237033" lon="17.5656688">
        <ele>20.8057</ele>
        <time>2013-04-21T11:46:35Z</time>
      </trkpt>
      <trkpt lat="59.9236425" lon="17.5656096">
        <ele>20.8057</ele>
        <time>2013-04-21T11:46:36Z</time>
      </trkpt>
      <trkpt lat="59.9235814" lon="17.5655493">
        <ele>20.8057</ele>
        <time>2013-04-21T11:46:37Z</time>
      </trkpt>
      <trkpt lat="59.9235198" lon="17.5654889">
        <ele>20.8057</ele>
        <time>2013-04-21T11:46:38Z</time>
      </trkpt>
      <trkpt lat="59.9234589" lon="17.5654289">
        <ele>20.325</ele>
        <time>2013-04-21T11:46:39Z</time>
      </trkpt>
      <trkpt lat="59.9233986" lon="17.5653702">
        <ele>20.325</ele>
        <time>2013-04-21T11:46:40Z</time>
      </trkpt>
      <trkpt lat="59.9233374" lon="17.5653124">
        <ele>20.325</ele>
        <time>2013-04-21T11:46:41Z</time>
      </trkpt>
      <trkpt lat="59.9232754" lon="17.5652541">
        <ele>20.325</ele>
        <time>2013-04-21T11:46:42Z</time>
      </trkpt>
      <trkpt lat="59.9232126" lon="17.5651972">
        <ele>20.325</ele>
        <time>2013-04-21T11:46:43Z</time>
      </trkpt>
      <trkpt lat="59.923149" lon="17.5651443">
        <ele>20.325</ele>
        <time>2013-04-21T11:46:44Z</time>
      </trkpt>
      <trkpt lat="59.9230857" lon="17.5650935">
        <ele>20.325</ele>
        <time>2013-04-21T11:46:45Z</time>
      </trkpt>
      <trkpt lat="59.923022" lon="17.565044">
        <ele>20.325</ele>
        <time>2013-04-21T11:46:46Z</time>
      </trkpt>
      <trkpt lat="59.9229578" lon="17.5649982">
        <ele>20.325</ele>
        <time>2013-04-21T11:46:47Z</time>
      </trkpt>
      <trkpt lat="59.9228927" lon="17.5649579">
        <ele>20.325</ele>
        <time>2013-04-21T11:46:48Z</time>
      </trkpt>
      <trkpt lat="59.9228268" lon="17.5649222">
        <ele>20.325</ele>
        <time>2013-04-21T11:46:49Z</time>
      </trkpt>
      <trkpt lat="59.9227603" lon="17.5648891">
        <ele>20.325</ele>
        <time>2013-04-21T11:46:50Z</time>
      </trkpt>
      <trkpt lat="59.9226937" lon="17.564858">
        <ele>19.8444</ele>
        <time>2013-04-21T11:46:51Z</time>
      </trkpt>
      <trkpt lat="59.9226258" lon="17.5648281">
        <ele>19.8444</ele>
        <time>2013-04-21T11:46:52Z</time>
      </trkpt>
      <trkpt lat="59.9225569" lon="17.5647979">
        <ele>19.8444</ele>
        <time>2013-04-21T11:46:53Z</time>
      </trkpt>
      <trkpt lat="59.9224878" lon="17.5647679">
        <ele>19.3638</ele>
        <time>2013-04-21T11:46:54Z</time>
      </trkpt>
      <trkpt lat="59.9224186" lon="17.5647404">
        <ele>19.3638</ele>
        <time>2013-04-21T11:46:55Z</time>
      </trkpt>
      <trkpt lat="59.9223501" lon="17.564714">
        <ele>19.3638</ele>
        <time>2013-04-21T11:46:56Z</time>
      </trkpt>
      <trkpt lat="59.9222827" lon="17.5646891">
        <ele>18.8831</ele>
        <time>2013-04-21T11:46:57Z</time>
      </trkpt>
      <trkpt lat="59.9222161" lon="17.5646661">
        <ele>18.8831</ele>
        <time>2013-04-21T11:46:58Z</time>
      </trkpt>
      <trkpt lat="59.9221497" lon="17.564645">
        <ele>18.4023</ele>
        <time>2013-04-21T11:46:59Z</time>
      </trkpt>
      <trkpt lat="59.9220827" lon="17.564624">
        <ele>18.4023</ele>
        <time>2013-04-21T11:47:00Z</time>
      </trkpt>
      <trkpt lat="59.9220156" lon="17.5646036">
        <ele>18.4023</ele>
        <time>2013-04-21T11:47:01Z</time>
      </trkpt>
      <trkpt lat="59.9219489" lon="17.5645833">
        <ele>18.4023</ele>
        <time>2013-04-21T11:47:02Z</time>
      </trkpt>
      <trkpt lat="59.9218825" lon="17.5645641">
        <ele>18.4023</ele>
        <time>2013-04-21T11:47:03Z</time>
      </trkpt>
      <trkpt lat="59.9218165" lon="17.5645428">
        <ele>17.9218</ele>
        <time>2013-04-21T11:47:04Z</time>
      </trkpt>
      <trkpt lat="59.9217505" lon="17.564519">
        <ele>17.9218</ele>
        <time>2013-04-21T11:47:05Z</time>
      </trkpt>
      <trkpt lat="59.9216846" lon="17.5644948">
        <ele>17.9218</ele>
        <time>2013-04-21T11:47:06Z</time>
      </trkpt>
      <trkpt lat="59.9216181" lon="17.5644706">
        <ele>17.4412</ele>
        <time>2013-04-21T11:47:07Z</time>
      </trkpt>
      <trkpt lat="59.9215505" lon="17.564447">
        <ele>17.4412</ele>
        <time>2013-04-21T11:47:08Z</time>
      </trkpt>
      <trkpt lat="59.921482" lon="17.5644227">
        <ele>17.4412</ele>
        <time>2013-04-21T11:47:09Z</time>
      </trkpt>
      <trkpt lat="59.9214126" lon="17.5643979">
        <ele>16.9604</ele>
        <time>2013-04-21T11:47:10Z</time>
      </trkpt>
      <trkpt lat="59.9213427" lon="17.5643721">
        <ele>16.9604</ele>
        <time>2013-04-21T11:47:11Z</time>
      </trkpt>
      <trkpt lat="59.9212718" lon="17.5643479">
        <ele>16.9604</ele>
        <time>2013-04-21T11:47:12Z</time>
      </trkpt>
      <trkpt lat="59.9212006" lon="17.5643289">
        <ele>16.4797</ele>
        <time>2013-04-21T11:47:13Z</time>
      </trkpt>
      <trkpt lat="59.9211292" lon="17.5643115">
        <ele>16.4797</ele>
        <time>2013-04-21T11:47:14Z</time>
      </trkpt>
      <trkpt lat="59.9210579" lon="17.5642954">
        <ele>16.4797</ele>
        <time>2013-04-21T11:47:15Z</time>
      </trkpt>
      <trkpt lat="59.9209879" lon="17.5642814">
        <ele>16.4797</ele>
        <time>2013-04-21T11:47:16Z</time>
      </trkpt>
      <trkpt lat="59.9209188" lon="17.5642695">
        <ele>15.999</ele>
        <time>2013-04-21T11:47:17Z</time>
      </trkpt>
      <trkpt lat="59.9208505" lon="17.5642608">
        <ele>15.999</ele>
        <time>2013-04-21T11:47:18Z</time>
      </trkpt>
      <trkpt lat="59.9207826" lon="17.5642548">
        <ele>15.999</ele>
        <time>2013-04-21T11:47:19Z</time>
      </trkpt>
      <trkpt lat="59.9207143" lon="17.5642515">
        <ele>16.4797</ele>
        <time>2013-04-21T11:47:20Z</time>
      </trkpt>
      <trkpt lat="59.9206454" lon="17.5642476">
        <ele>16.4797</ele>
        <time>2013-04-21T11:47:21Z</time>
      </trkpt>
      <trkpt lat="59.9205755" lon="17.5642419">
        <ele>16.4797</ele>
        <time>2013-04-21T11:47:22Z</time>
      </trkpt>
      <trkpt lat="59.9205045" lon="17.56424">
        <ele>16.4797</ele>
        <time>2013-04-21T11:47:23Z</time>
      </trkpt>
      <trkpt lat="59.9204334" lon="17.5642429">
        <ele>16.9604</ele>
        <time>2013-04-21T11:47:24Z</time>
      </trkpt>
      <trkpt lat="59.9203624" lon="17.5642585">
        <ele>16.9604</ele>
        <time>2013-04-21T11:47:25Z</time>
      </trkpt>
      <trkpt lat="59.9202923" lon="17.5642864">
        <ele>17.4412</ele>
        <time>2013-04-21T11:47:26Z</time>
      </trkpt>
      <trkpt lat="59.9202248" lon="17.5643002">
        <ele>17.4412</ele>
        <time>2013-04-21T11:47:27Z</time>
      </trkpt>
      <trkpt lat="59.9201553" lon="17.5642732">
        <ele>17.4412</ele>
        <time>2013-04-21T11:47:28Z</time>
      </trkpt>
      <trkpt lat="59.9200103" lon="17.5642217">
        <ele>17.4412</ele>
        <time>2013-04-21T11:47:30Z</time>
      </trkpt>
      <trkpt lat="59.9199358" lon="17.5642104">
        <ele>17.4412</ele>
        <time>2013-04-21T11:47:31Z</time>
      </trkpt>
      <trkpt lat="59.9198599" lon="17.5642067">
        <ele>16.9604</ele>
        <time>2013-04-21T11:47:32Z</time>
      </trkpt>
      <trkpt lat="59.9197829" lon="17.5642035">
        <ele>16.9604</ele>
        <time>2013-04-21T11:47:33Z</time>
      </trkpt>
      <trkpt lat="59.9197069" lon="17.5642043">
        <ele>16.9604</ele>
        <time>2013-04-21T11:47:34Z</time>
      </trkpt>
      <trkpt lat="59.9196338" lon="17.5642129">
        <ele>16.9604</ele>
        <time>2013-04-21T11:47:35Z</time>
      </trkpt>
      <trkpt lat="59.9195634" lon="17.5642214">
        <ele>16.9604</ele>
        <time>2013-04-21T11:47:36Z</time>
      </trkpt>
      <trkpt lat="59.919495" lon="17.5642282">
        <ele>16.9604</ele>
        <time>2013-04-21T11:47:37Z</time>
      </trkpt>
      <trkpt lat="59.9194282" lon="17.5642367">
        <ele>16.9604</ele>
        <time>2013-04-21T11:47:38Z</time>
      </trkpt>
      <trkpt lat="59.9193609" lon="17.5642478">
        <ele>16.9604</ele>
        <time>2013-04-21T11:47:39Z</time>
      </trkpt>
      <trkpt lat="59.9192927" lon="17.5642696">
        <ele>16.4797</ele>
        <time>2013-04-21T11:47:40Z</time>
      </trkpt>
      <trkpt lat="59.9192283" lon="17.5643016">
        <ele>16.4797</ele>
        <time>2013-04-21T11:47:41Z</time>
      </trkpt>
      <trkpt lat="59.919167" lon="17.5643419">
        <ele>15.999</ele>
        <time>2013-04-21T11:47:42Z</time>
      </trkpt>
      <trkpt lat="59.9191062" lon="17.5643911">
        <ele>15.999</ele>
        <time>2013-04-21T11:47:43Z</time>
      </trkpt>
      <trkpt lat="59.91905" lon="17.5644542">
        <ele>15.999</ele>
        <time>2013-04-21T11:47:44Z</time>
      </trkpt>
      <trkpt lat="59.918998" lon="17.5645261">
        <ele>15.999</ele>
        <time>2013-04-21T11:47:45Z</time>
      </trkpt>
      <trkpt lat="59.9189495" lon="17.5646031">
        <ele>15.999</ele>
        <time>2013-04-21T11:47:46Z</time>
      </trkpt>
      <trkpt lat="59.9189018" lon="17.5646819">
        <ele>15.999</ele>
        <time>2013-04-21T11:47:47Z</time>
      </trkpt>
      <trkpt lat="59.918854" lon="17.5647584">
        <ele>15.999</ele>
        <time>2013-04-21T11:47:48Z</time>
      </trkpt>
      <trkpt lat="59.9188073" lon="17.5648362">
        <ele>15.999</ele>
        <time>2013-04-21T11:47:49Z</time>
      </trkpt>
      <trkpt lat="59.91876" lon="17.5649155">
        <ele>15.999</ele>
        <time>2013-04-21T11:47:50Z</time>
      </trkpt>
      <trkpt lat="59.9187133" lon="17.5649956">
        <ele>15.999</ele>
        <time>2013-04-21T11:47:51Z</time>
      </trkpt>
      <trkpt lat="59.9186667" lon="17.5650756">
        <ele>16.4797</ele>
        <time>2013-04-21T11:47:52Z</time>
      </trkpt>
      <trkpt lat="59.91862" lon="17.5651559">
        <ele>16.4797</ele>
        <time>2013-04-21T11:47:53Z</time>
      </trkpt>
      <trkpt lat="59.918572" lon="17.5652381">
        <ele>16.4797</ele>
        <time>2013-04-21T11:47:54Z</time>
      </trkpt>
      <trkpt lat="59.9185233" lon="17.5653195">
        <ele>16.4797</ele>
        <time>2013-04-21T11:47:55Z</time>
      </trkpt>
      <trkpt lat="59.9184746" lon="17.5654004">
        <ele>16.9604</ele>
        <time>2013-04-21T11:47:56Z</time>
      </trkpt>
      <trkpt lat="59.9184259" lon="17.5654806">
        <ele>16.9604</ele>
        <time>2013-04-21T11:47:57Z</time>
      </trkpt>
      <trkpt lat="59.9183774" lon="17.5655602">
        <ele>16.9604</ele>
        <time>2013-04-21T11:47:58Z</time>
      </trkpt>
      <trkpt lat="59.9183287" lon="17.5656375">
        <ele>16.9604</ele>
        <time>2013-04-21T11:47:59Z</time>
      </trkpt>
      <trkpt lat="59.9182785" lon="17.5657128">
        <ele>17.4412</ele>
        <time>2013-04-21T11:48:00Z</time>
      </trkpt>
      <trkpt lat="59.9182269" lon="17.5657899">
        <ele>17.4412</ele>
        <time>2013-04-21T11:48:01Z</time>
      </trkpt>
      <trkpt lat="59.9181744" lon="17.5658702">
        <ele>17.4412</ele>
        <time>2013-04-21T11:48:02Z</time>
      </trkpt>
      <trkpt lat="59.9181205" lon="17.5659498">
        <ele>17.4412</ele>
        <time>2013-04-21T11:48:03Z</time>
      </trkpt>
      <trkpt lat="59.9180667" lon="17.566029">
        <ele>17.4412</ele>
        <time>2013-04-21T11:48:04Z</time>
      </trkpt>
      <trkpt lat="59.9180141" lon="17.5661091">
        <ele>17.4412</ele>
        <time>2013-04-21T11:48:05Z</time>
      </trkpt>
      <trkpt lat="59.9179623" lon="17.5661893">
        <ele>17.4412</ele>
        <time>2013-04-21T11:48:06Z</time>
      </trkpt>
      <trkpt lat="59.9179105" lon="17.5662706">
        <ele>17.9218</ele>
        <time>2013-04-21T11:48:07Z</time>
      </trkpt>
      <trkpt lat="59.9178591" lon="17.5663553">
        <ele>17.9218</ele>
        <time>2013-04-21T11:48:08Z</time>
      </trkpt>
      <trkpt lat="59.9178088" lon="17.5664429">
        <ele>17.4412</ele>
        <time>2013-04-21T11:48:09Z</time>
      </trkpt>
      <trkpt lat="59.9177575" lon="17.5665296">
        <ele>17.4412</ele>
        <time>2013-04-21T11:48:10Z</time>
      </trkpt>
      <trkpt lat="59.9177071" lon="17.566617">
        <ele>17.4412</ele>
        <time>2013-04-21T11:48:11Z</time>
      </trkpt>
      <trkpt lat="59.9176584" lon="17.5667073">
        <ele>17.4412</ele>
        <time>2013-04-21T11:48:12Z</time>
      </trkpt>
      <trkpt lat="59.9176125" lon="17.5667982">
        <ele>17.4412</ele>
        <time>2013-04-21T11:48:13Z</time>
      </trkpt>
      <trkpt lat="59.9175674" lon="17.5668891">
        <ele>17.9218</ele>
        <time>2013-04-21T11:48:14Z</time>
      </trkpt>
      <trkpt lat="59.9175249" lon="17.5669808">
        <ele>17.9218</ele>
        <time>2013-04-21T11:48:15Z</time>
      </trkpt>
      <trkpt lat="59.9174835" lon="17.5670751">
        <ele>18.4023</ele>
        <time>2013-04-21T11:48:16Z</time>
      </trkpt>
      <trkpt lat="59.9174421" lon="17.5671684">
        <ele>18.8831</ele>
        <time>2013-04-21T11:48:17Z</time>
      </trkpt>
      <trkpt lat="59.9174007" lon="17.5672624">
        <ele>18.8831</ele>
        <time>2013-04-21T11:48:18Z</time>
      </trkpt>
      <trkpt lat="59.9173576" lon="17.567359">
        <ele>19.3638</ele>
        <time>2013-04-21T11:48:19Z</time>
      </trkpt>
      <trkpt lat="59.9173141" lon="17.5674564">
        <ele>19.3638</ele>
        <time>2013-04-21T11:48:20Z</time>
      </trkpt>
      <trkpt lat="59.917271" lon="17.5675526">
        <ele>19.3638</ele>
        <time>2013-04-21T11:48:21Z</time>
      </trkpt>
      <trkpt lat="59.9172285" lon="17.5676449">
        <ele>19.3638</ele>
        <time>2013-04-21T11:48:22Z</time>
      </trkpt>
      <trkpt lat="59.917187" lon="17.5677386">
        <ele>19.3638</ele>
        <time>2013-04-21T11:48:23Z</time>
      </trkpt>
      <trkpt lat="59.9171458" lon="17.5678332">
        <ele>19.3638</ele>
        <time>2013-04-21T11:48:24Z</time>
      </trkpt>
      <trkpt lat="59.9171043" lon="17.5679263">
        <ele>19.3638</ele>
        <time>2013-04-21T11:48:25Z</time>
      </trkpt>
      <trkpt lat="59.9170634" lon="17.5680199">
        <ele>19.3638</ele>
        <time>2013-04-21T11:48:26Z</time>
      </trkpt>
      <trkpt lat="59.9170221" lon="17.5681137">
        <ele>19.3638</ele>
        <time>2013-04-21T11:48:27Z</time>
      </trkpt>
      <trkpt lat="59.9169804" lon="17.5682068">
        <ele>19.8444</ele>
        <time>2013-04-21T11:48:28Z</time>
      </trkpt>
      <trkpt lat="59.9169392" lon="17.5683007">
        <ele>19.8444</ele>
        <time>2013-04-21T11:48:29Z</time>
      </trkpt>
      <trkpt lat="59.9168992" lon="17.5683939">
        <ele>19.8444</ele>
        <time>2013-04-21T11:48:30Z</time>
      </trkpt>
      <trkpt lat="59.9168605" lon="17.5684878">
        <ele>19.8444</ele>
        <time>2013-04-21T11:48:31Z</time>
      </trkpt>
      <trkpt lat="59.9168236" lon="17.5685831">
        <ele>19.8444</ele>
        <time>2013-04-21T11:48:32Z</time>
      </trkpt>
      <trkpt lat="59.9167878" lon="17.5686778">
        <ele>20.325</ele>
        <time>2013-04-21T11:48:33Z</time>
      </trkpt>
      <trkpt lat="59.9167529" lon="17.5687717">
        <ele>20.325</ele>
        <time>2013-04-21T11:48:34Z</time>
      </trkpt>
      <trkpt lat="59.9167189" lon="17.5688648">
        <ele>20.325</ele>
        <time>2013-04-21T11:48:35Z</time>
      </trkpt>
      <trkpt lat="59.9166866" lon="17.5689569">
        <ele>20.325</ele>
        <time>2013-04-21T11:48:36Z</time>
      </trkpt>
      <trkpt lat="59.9166557" lon="17.5690477">
        <ele>20.8057</ele>
        <time>2013-04-21T11:48:37Z</time>
      </trkpt>
      <trkpt lat="59.9166263" lon="17.5691393">
        <ele>20.8057</ele>
        <time>2013-04-21T11:48:38Z</time>
      </trkpt>
      <trkpt lat="59.916597" lon="17.5692305">
        <ele>20.8057</ele>
        <time>2013-04-21T11:48:39Z</time>
      </trkpt>
      <trkpt lat="59.9165682" lon="17.5693186">
        <ele>21.2864</ele>
        <time>2013-04-21T11:48:40Z</time>
      </trkpt>
      <trkpt lat="59.91654" lon="17.5694029">
        <ele>21.2864</ele>
        <time>2013-04-21T11:48:41Z</time>
      </trkpt>
      <trkpt lat="59.9165116" lon="17.5694839">
        <ele>21.2864</ele>
        <time>2013-04-21T11:48:42Z</time>
      </trkpt>
      <trkpt lat="59.9164841" lon="17.5695631">
        <ele>21.767</ele>
        <time>2013-04-21T11:48:43Z</time>
      </trkpt>
      <trkpt lat="59.9164567" lon="17.569638">
        <ele>21.767</ele>
        <time>2013-04-21T11:48:44Z</time>
      </trkpt>
      <trkpt lat="59.9164272" lon="17.5697076">
        <ele>21.767</ele>
        <time>2013-04-21T11:48:45Z</time>
      </trkpt>
      <trkpt lat="59.9163935" lon="17.5697672">
        <ele>21.767</ele>
        <time>2013-04-21T11:48:46Z</time>
      </trkpt>
      <trkpt lat="59.9163574" lon="17.5698148">
        <ele>21.767</ele>
        <time>2013-04-21T11:48:47Z</time>
      </trkpt>
      <trkpt lat="59.9163224" lon="17.5698608">
        <ele>22.2476</ele>
        <time>2013-04-21T11:48:48Z</time>
      </trkpt>
      <trkpt lat="59.9162884" lon="17.5699138">
        <ele>22.2476</ele>
        <time>2013-04-21T11:48:49Z</time>
      </trkpt>
      <trkpt lat="59.9162557" lon="17.5699739">
        <ele>22.7283</ele>
        <time>2013-04-21T11:48:50Z</time>
      </trkpt>
      <trkpt lat="59.9162257" lon="17.570042">
        <ele>22.7283</ele>
        <time>2013-04-21T11:48:51Z</time>
      </trkpt>
      <trkpt lat="59.9161977" lon="17.5701159">
        <ele>23.209</ele>
        <time>2013-04-21T11:48:52Z</time>
      </trkpt>
      <trkpt lat="59.9161712" lon="17.5701959">
        <ele>23.209</ele>
        <time>2013-04-21T11:48:53Z</time>
      </trkpt>
      <trkpt lat="59.9161464" lon="17.5702822">
        <ele>23.209</ele>
        <time>2013-04-21T11:48:54Z</time>
      </trkpt>
      <trkpt lat="59.9161205" lon="17.5703702">
        <ele>23.209</ele>
        <time>2013-04-21T11:48:55Z</time>
      </trkpt>
      <trkpt lat="59.9160921" lon="17.5704577">
        <ele>23.209</ele>
        <time>2013-04-21T11:48:56Z</time>
      </trkpt>
      <trkpt lat="59.9160626" lon="17.5705479">
        <ele>23.209</ele>
        <time>2013-04-21T11:48:57Z</time>
      </trkpt>
      <trkpt lat="59.9160326" lon="17.5706421">
        <ele>23.209</ele>
        <time>2013-04-21T11:48:58Z</time>
      </trkpt>
      <trkpt lat="59.9160005" lon="17.5707379">
        <ele>23.209</ele>
        <time>2013-04-21T11:48:59Z</time>
      </trkpt>
      <trkpt lat="59.9159674" lon="17.5708393">
        <ele>23.209</ele>
        <time>2013-04-21T11:49:00Z</time>
      </trkpt>
      <trkpt lat="59.9159357" lon="17.5709441">
        <ele>22.7283</ele>
        <time>2013-04-21T11:49:01Z</time>
      </trkpt>
      <trkpt lat="59.9159051" lon="17.5710548">
        <ele>22.7283</ele>
        <time>2013-04-21T11:49:02Z</time>
      </trkpt>
      <trkpt lat="59.9158781" lon="17.5711728">
        <ele>22.2476</ele>
        <time>2013-04-21T11:49:03Z</time>
      </trkpt>
      <trkpt lat="59.9158564" lon="17.5712996">
        <ele>21.767</ele>
        <time>2013-04-21T11:49:04Z</time>
      </trkpt>
      <trkpt lat="59.9158409" lon="17.571435">
        <ele>21.767</ele>
        <time>2013-04-21T11:49:05Z</time>
      </trkpt>
      <trkpt lat="59.915831" lon="17.571574">
        <ele>21.2864</ele>
        <time>2013-04-21T11:49:06Z</time>
      </trkpt>
      <trkpt lat="59.9158241" lon="17.5717155">
        <ele>21.2864</ele>
        <time>2013-04-21T11:49:07Z</time>
      </trkpt>
      <trkpt lat="59.9158176" lon="17.571861">
        <ele>20.8057</ele>
        <time>2013-04-21T11:49:08Z</time>
      </trkpt>
      <trkpt lat="59.9158082" lon="17.5720096">
        <ele>20.8057</ele>
        <time>2013-04-21T11:49:09Z</time>
      </trkpt>
      <trkpt lat="59.9157931" lon="17.5721577">
        <ele>20.8057</ele>
        <time>2013-04-21T11:49:10Z</time>
      </trkpt>
      <trkpt lat="59.915772" lon="17.5723028">
        <ele>20.8057</ele>
        <time>2013-04-21T11:49:11Z</time>
      </trkpt>
      <trkpt lat="59.9157433" lon="17.5724468">
        <ele>20.325</ele>
        <time>2013-04-21T11:49:12Z</time>
      </trkpt>
      <trkpt lat="59.9157063" lon="17.5725847">
        <ele>20.325</ele>
        <time>2013-04-21T11:49:13Z</time>
      </trkpt>
      <trkpt lat="59.9156662" lon="17.5727173">
        <ele>20.325</ele>
        <time>2013-04-21T11:49:14Z</time>
      </trkpt>
      <trkpt lat="59.9156273" lon="17.5728488">
        <ele>20.325</ele>
        <time>2013-04-21T11:49:15Z</time>
      </trkpt>
      <trkpt lat="59.9155864" lon="17.5729805">
        <ele>19.8444</ele>
        <time>2013-04-21T11:49:16Z</time>
      </trkpt>
      <trkpt lat="59.9155425" lon="17.5731119">
        <ele>19.8444</ele>
        <time>2013-04-21T11:49:17Z</time>
      </trkpt>
      <trkpt lat="59.9154962" lon="17.573243">
        <ele>19.3638</ele>
        <time>2013-04-21T11:49:18Z</time>
      </trkpt>
      <trkpt lat="59.9154467" lon="17.5733658">
        <ele>19.3638</ele>
        <time>2013-04-21T11:49:19Z</time>
      </trkpt>
      <trkpt lat="59.91539" lon="17.573474">
        <ele>19.3638</ele>
        <time>2013-04-21T11:49:20Z</time>
      </trkpt>
      <trkpt lat="59.9153265" lon="17.5735611">
        <ele>19.3638</ele>
        <time>2013-04-21T11:49:21Z</time>
      </trkpt>
      <trkpt lat="59.9152564" lon="17.5736218">
        <ele>19.3638</ele>
        <time>2013-04-21T11:49:22Z</time>
      </trkpt>
      <trkpt lat="59.9151835" lon="17.5736528">
        <ele>19.3638</ele>
        <time>2013-04-21T11:49:23Z</time>
      </trkpt>
      <trkpt lat="59.9151115" lon="17.5736619">
        <ele>18.8831</ele>
        <time>2013-04-21T11:49:24Z</time>
      </trkpt>
      <trkpt lat="59.9150411" lon="17.5736596">
        <ele>18.4023</ele>
        <time>2013-04-21T11:49:25Z</time>
      </trkpt>
      <trkpt lat="59.9149711" lon="17.5736502">
        <ele>17.9218</ele>
        <time>2013-04-21T11:49:26Z</time>
      </trkpt>
      <trkpt lat="59.9149012" lon="17.5736398">
        <ele>17.9218</ele>
        <time>2013-04-21T11:49:27Z</time>
      </trkpt>
      <trkpt lat="59.914834" lon="17.573631">
        <ele>17.4412</ele>
        <time>2013-04-21T11:49:28Z</time>
      </trkpt>
      <trkpt lat="59.9147697" lon="17.573623">
        <ele>17.4412</ele>
        <time>2013-04-21T11:49:29Z</time>
      </trkpt>
      <trkpt lat="59.9147066" lon="17.5736108">
        <ele>17.4412</ele>
        <time>2013-04-21T11:49:30Z</time>
      </trkpt>
      <trkpt lat="59.9146434" lon="17.5735951">
        <ele>17.4412</ele>
        <time>2013-04-21T11:49:31Z</time>
      </trkpt>
      <trkpt lat="59.9145815" lon="17.5735842">
        <ele>16.9604</ele>
        <time>2013-04-21T11:49:32Z</time>
      </trkpt>
      <trkpt lat="59.9145199" lon="17.5735739">
        <ele>16.9604</ele>
        <time>2013-04-21T11:49:33Z</time>
      </trkpt>
      <trkpt lat="59.9144589" lon="17.5735606">
        <ele>16.9604</ele>
        <time>2013-04-21T11:49:34Z</time>
      </trkpt>
      <trkpt lat="59.9143987" lon="17.5735493">
        <ele>16.4797</ele>
        <time>2013-04-21T11:49:35Z</time>
      </trkpt>
      <trkpt lat="59.9143387" lon="17.5735415">
        <ele>15.999</ele>
        <time>2013-04-21T11:49:36Z</time>
      </trkpt>
      <trkpt lat="59.9142791" lon="17.5735326">
        <ele>15.999</ele>
        <time>2013-04-21T11:49:37Z</time>
      </trkpt>
      <trkpt lat="59.91422" lon="17.5735231">
        <ele>15.999</ele>
        <time>2013-04-21T11:49:38Z</time>
      </trkpt>
      <trkpt lat="59.9141616" lon="17.5735155">
        <ele>15.5184</ele>
        <time>2013-04-21T11:49:39Z</time>
      </trkpt>
      <trkpt lat="59.9141035" lon="17.5735098">
        <ele>15.5184</ele>
        <time>2013-04-21T11:49:40Z</time>
      </trkpt>
      <trkpt lat="59.914045" lon="17.573503">
        <ele>15.5184</ele>
        <time>2013-04-21T11:49:41Z</time>
      </trkpt>
      <trkpt lat="59.9139878" lon="17.5734922">
        <ele>15.5184</ele>
        <time>2013-04-21T11:49:42Z</time>
      </trkpt>
      <trkpt lat="59.9139315" lon="17.5734818">
        <ele>15.5184</ele>
        <time>2013-04-21T11:49:43Z</time>
      </trkpt>
      <trkpt lat="59.9138776" lon="17.5734746">
        <ele>15.0377</ele>
        <time>2013-04-21T11:49:44Z</time>
      </trkpt>
      <trkpt lat="59.913826" lon="17.5734694">
        <ele>15.0377</ele>
        <time>2013-04-21T11:49:45Z</time>
      </trkpt>
      <trkpt lat="59.9137775" lon="17.5734653">
        <ele>14.557</ele>
        <time>2013-04-21T11:49:46Z</time>
      </trkpt>
      <trkpt lat="59.9137315" lon="17.5734663">
        <ele>14.557</ele>
        <time>2013-04-21T11:49:47Z</time>
      </trkpt>
      <trkpt lat="59.9136882" lon="17.5734775">
        <ele>14.557</ele>
        <time>2013-04-21T11:49:48Z</time>
      </trkpt>
      <trkpt lat="59.9136474" lon="17.5734891">
        <ele>14.557</ele>
        <time>2013-04-21T11:49:49Z</time>
      </trkpt>
      <trkpt lat="59.9136092" lon="17.5735051">
        <ele>14.557</ele>
        <time>2013-04-21T11:49:50Z</time>
      </trkpt>
      <trkpt lat="59.9135754" lon="17.5735339">
        <ele>15.0377</ele>
        <time>2013-04-21T11:49:51Z</time>
      </trkpt>
      <trkpt lat="59.9135457" lon="17.5735751">
        <ele>15.0377</ele>
        <time>2013-04-21T11:49:52Z</time>
      </trkpt>
      <trkpt lat="59.9135222" lon="17.5736189">
        <ele>15.0377</ele>
        <time>2013-04-21T11:49:53Z</time>
      </trkpt>
      <trkpt lat="59.9135052" lon="17.5736636">
        <ele>15.0377</ele>
        <time>2013-04-21T11:49:54Z</time>
      </trkpt>
      <trkpt lat="59.9134938" lon="17.5737133">
        <ele>15.0377</ele>
        <time>2013-04-21T11:49:55Z</time>
      </trkpt>
      <trkpt lat="59.9134929" lon="17.5737672">
        <ele>15.0377</ele>
        <time>2013-04-21T11:49:56Z</time>
      </trkpt>
      <trkpt lat="59.9135006" lon="17.5738196">
        <ele>14.557</ele>
        <time>2013-04-21T11:49:57Z</time>
      </trkpt>
      <trkpt lat="59.9135139" lon="17.5738641">
        <ele>14.557</ele>
        <time>2013-04-21T11:49:58Z</time>
      </trkpt>
      <trkpt lat="59.9135181" lon="17.5739043">
        <ele>14.557</ele>
        <time>2013-04-21T11:49:59Z</time>
      </trkpt>
      <trkpt lat="59.9135057" lon="17.5739385">
        <ele>15.0377</ele>
        <time>2013-04-21T11:50:00Z</time>
      </trkpt>
      <trkpt lat="59.913487" lon="17.5739542">
        <ele>15.0377</ele>
        <time>2013-04-21T11:50:01Z</time>
      </trkpt>
      <trkpt lat="59.9134734" lon="17.5739593">
        <ele>15.5184</ele>
        <time>2013-04-21T11:50:02Z</time>
      </trkpt>
      <trkpt lat="59.9134701" lon="17.5739641">
        <ele>15.5184</ele>
        <time>2013-04-21T11:50:03Z</time>
      </trkpt>
      <trkpt lat="59.9134694" lon="17.5739635">
        <ele>15.999</ele>
        <time>2013-04-21T11:50:04Z</time>
      </trkpt>
      <trkpt lat="59.9134659" lon="17.5739579">
        <ele>15.999</ele>
        <time>2013-04-21T11:50:05Z</time>
      </trkpt>
      <trkpt lat="59.9134602" lon="17.5739558">
        <ele>15.5184</ele>
        <time>2013-04-21T11:50:06Z</time>
      </trkpt>
      <trkpt lat="59.9134529" lon="17.5739568">
        <ele>15.5184</ele>
        <time>2013-04-21T11:50:07Z</time>
      </trkpt>
      <trkpt lat="59.9134473" lon="17.5739542">
        <ele>15.0377</ele>
        <time>2013-04-21T11:50:08Z</time>
      </trkpt>
      <trkpt lat="59.913442" lon="17.5739532">
        <ele>15.0377</ele>
        <time>2013-04-21T11:50:09Z</time>
      </trkpt>
      <trkpt lat="59.9134388" lon="17.5739594">
        <ele>14.557</ele>
        <time>2013-04-21T11:50:10Z</time>
      </trkpt>
      <trkpt lat="59.9134385" lon="17.5739625">
        <ele>14.0764</ele>
        <time>2013-04-21T11:50:11Z</time>
      </trkpt>
      <trkpt lat="59.9134356" lon="17.5739632">
        <ele>13.5958</ele>
        <time>2013-04-21T11:50:12Z</time>
      </trkpt>
      <trkpt lat="59.9134312" lon="17.5739654">
        <ele>13.5958</ele>
        <time>2013-04-21T11:50:13Z</time>
      </trkpt>
      <trkpt lat="59.9134265" lon="17.5739694">
        <ele>13.1151</ele>
        <time>2013-04-21T11:50:14Z</time>
      </trkpt>
      <trkpt lat="59.9134218" lon="17.573974">
        <ele>13.1151</ele>
        <time>2013-04-21T11:50:15Z</time>
      </trkpt>
      <trkpt lat="59.9134169" lon="17.5739782">
        <ele>12.6344</ele>
        <time>2013-04-21T11:50:16Z</time>
      </trkpt>
      <trkpt lat="59.9134078" lon="17.5739887">
        <ele>12.6344</ele>
        <time>2013-04-21T11:50:17Z</time>
      </trkpt>
      <trkpt lat="59.9134083" lon="17.5739858">
        <ele>12.6344</ele>
        <time>2013-04-21T11:50:18Z</time>
      </trkpt>
      <trkpt lat="59.9134347" lon="17.5734607">
        <ele>16.9604</ele>
        <time>2013-04-21T12:01:52Z</time>
      </trkpt>
      <trkpt lat="59.9134037" lon="17.5734436">
        <ele>16.9604</ele>
        <time>2013-04-21T12:01:53Z</time>
      </trkpt>
      <trkpt lat="59.9133603" lon="17.5734386">
        <ele>16.9604</ele>
        <time>2013-04-21T12:01:54Z</time>
      </trkpt>
      <trkpt lat="59.9133214" lon="17.5734404">
        <ele>16.9604</ele>
        <time>2013-04-21T12:01:55Z</time>
      </trkpt>
      <trkpt lat="59.9132798" lon="17.5734418">
        <ele>16.9604</ele>
        <time>2013-04-21T12:01:56Z</time>
      </trkpt>
      <trkpt lat="59.9132275" lon="17.5734461">
        <ele>15.999</ele>
        <time>2013-04-21T12:01:57Z</time>
      </trkpt>
      <trkpt lat="59.913186" lon="17.5734495">
        <ele>15.5184</ele>
        <time>2013-04-21T12:01:58Z</time>
      </trkpt>
      <trkpt lat="59.9131368" lon="17.5734454">
        <ele>15.5184</ele>
        <time>2013-04-21T12:01:59Z</time>
      </trkpt>
      <trkpt lat="59.9130841" lon="17.5734342">
        <ele>15.5184</ele>
        <time>2013-04-21T12:02:00Z</time>
      </trkpt>
      <trkpt lat="59.913023" lon="17.5734238">
        <ele>15.5184</ele>
        <time>2013-04-21T12:02:01Z</time>
      </trkpt>
      <trkpt lat="59.9129613" lon="17.5734134">
        <ele>15.5184</ele>
        <time>2013-04-21T12:02:02Z</time>
      </trkpt>
      <trkpt lat="59.9129027" lon="17.573406">
        <ele>15.5184</ele>
        <time>2013-04-21T12:02:03Z</time>
      </trkpt>
      <trkpt lat="59.9128447" lon="17.5733984">
        <ele>15.5184</ele>
        <time>2013-04-21T12:02:04Z</time>
      </trkpt>
      <trkpt lat="59.9127821" lon="17.5733865">
        <ele>15.5184</ele>
        <time>2013-04-21T12:02:05Z</time>
      </trkpt>
      <trkpt lat="59.9127216" lon="17.573374">
        <ele>15.5184</ele>
        <time>2013-04-21T12:02:06Z</time>
      </trkpt>
      <trkpt lat="59.9126613" lon="17.5733616">
        <ele>15.5184</ele>
        <time>2013-04-21T12:02:07Z</time>
      </trkpt>
      <trkpt lat="59.9126019" lon="17.5733477">
        <ele>15.5184</ele>
        <time>2013-04-21T12:02:08Z</time>
      </trkpt>
      <trkpt lat="59.9125406" lon="17.5733347">
        <ele>15.0377</ele>
        <time>2013-04-21T12:02:09Z</time>
      </trkpt>
      <trkpt lat="59.9124802" lon="17.5733188">
        <ele>14.557</ele>
        <time>2013-04-21T12:02:10Z</time>
      </trkpt>
      <trkpt lat="59.9124225" lon="17.5732984">
        <ele>14.0764</ele>
        <time>2013-04-21T12:02:11Z</time>
      </trkpt>
      <trkpt lat="59.9123664" lon="17.5732747">
        <ele>14.0764</ele>
        <time>2013-04-21T12:02:12Z</time>
      </trkpt>
      <trkpt lat="59.9123111" lon="17.5732508">
        <ele>14.0764</ele>
        <time>2013-04-21T12:02:13Z</time>
      </trkpt>
      <trkpt lat="59.9122573" lon="17.5732237">
        <ele>13.5958</ele>
        <time>2013-04-21T12:02:14Z</time>
      </trkpt>
      <trkpt lat="59.9122054" lon="17.5731967">
        <ele>13.5958</ele>
        <time>2013-04-21T12:02:15Z</time>
      </trkpt>
      <trkpt lat="59.9121569" lon="17.573167">
        <ele>13.1151</ele>
        <time>2013-04-21T12:02:16Z</time>
      </trkpt>
      <trkpt lat="59.9121127" lon="17.5731306">
        <ele>13.1151</ele>
        <time>2013-04-21T12:02:17Z</time>
      </trkpt>
      <trkpt lat="59.9120688" lon="17.5730911">
        <ele>13.1151</ele>
        <time>2013-04-21T12:02:18Z</time>
      </trkpt>
      <trkpt lat="59.9120246" lon="17.5730478">
        <ele>13.1151</ele>
        <time>2013-04-21T12:02:19Z</time>
      </trkpt>
      <trkpt lat="59.9119797" lon="17.5730011">
        <ele>13.1151</ele>
        <time>2013-04-21T12:02:20Z</time>
      </trkpt>
      <trkpt lat="59.9119354" lon="17.5729532">
        <ele>12.6344</ele>
        <time>2013-04-21T12:02:21Z</time>
      </trkpt>
      <trkpt lat="59.9118926" lon="17.5729027">
        <ele>12.6344</ele>
        <time>2013-04-21T12:02:22Z</time>
      </trkpt>
      <trkpt lat="59.911852" lon="17.5728479">
        <ele>12.6344</ele>
        <time>2013-04-21T12:02:23Z</time>
      </trkpt>
      <trkpt lat="59.9118117" lon="17.5727922">
        <ele>12.6344</ele>
        <time>2013-04-21T12:02:24Z</time>
      </trkpt>
      <trkpt lat="59.9117717" lon="17.572735">
        <ele>12.6344</ele>
        <time>2013-04-21T12:02:25Z</time>
      </trkpt>
      <trkpt lat="59.9117322" lon="17.5726756">
        <ele>12.6344</ele>
        <time>2013-04-21T12:02:26Z</time>
      </trkpt>
      <trkpt lat="59.9116925" lon="17.5726173">
        <ele>12.6344</ele>
        <time>2013-04-21T12:02:27Z</time>
      </trkpt>
      <trkpt lat="59.9116543" lon="17.5725561">
        <ele>12.6344</ele>
        <time>2013-04-21T12:02:28Z</time>
      </trkpt>
      <trkpt lat="59.9116176" lon="17.5724905">
        <ele>12.6344</ele>
        <time>2013-04-21T12:02:29Z</time>
      </trkpt>
      <trkpt lat="59.9115818" lon="17.5724231">
        <ele>12.6344</ele>
        <time>2013-04-21T12:02:30Z</time>
      </trkpt>
      <trkpt lat="59.9115465" lon="17.5723549">
        <ele>12.6344</ele>
        <time>2013-04-21T12:02:31Z</time>
      </trkpt>
      <trkpt lat="59.9115119" lon="17.5722863">
        <ele>12.6344</ele>
        <time>2013-04-21T12:02:32Z</time>
      </trkpt>
      <trkpt lat="59.9114789" lon="17.5722151">
        <ele>12.6344</ele>
        <time>2013-04-21T12:02:33Z</time>
      </trkpt>
      <trkpt lat="59.9114481" lon="17.5721402">
        <ele>12.6344</ele>
        <time>2013-04-21T12:02:34Z</time>
      </trkpt>
      <trkpt lat="59.911418" lon="17.5720639">
        <ele>12.6344</ele>
        <time>2013-04-21T12:02:35Z</time>
      </trkpt>
      <trkpt lat="59.9113887" lon="17.5719864">
        <ele>12.6344</ele>
        <time>2013-04-21T12:02:36Z</time>
      </trkpt>
      <trkpt lat="59.9113609" lon="17.5719071">
        <ele>12.6344</ele>
        <time>2013-04-21T12:02:37Z</time>
      </trkpt>
      <trkpt lat="59.9113322" lon="17.5718279">
        <ele>12.6344</ele>
        <time>2013-04-21T12:02:38Z</time>
      </trkpt>
      <trkpt lat="59.9113038" lon="17.5717475">
        <ele>13.1151</ele>
        <time>2013-04-21T12:02:39Z</time>
      </trkpt>
      <trkpt lat="59.9112791" lon="17.571663">
        <ele>12.6344</ele>
        <time>2013-04-21T12:02:40Z</time>
      </trkpt>
      <trkpt lat="59.9112546" lon="17.5715771">
        <ele>12.6344</ele>
        <time>2013-04-21T12:02:41Z</time>
      </trkpt>
      <trkpt lat="59.9112304" lon="17.5714906">
        <ele>12.6344</ele>
        <time>2013-04-21T12:02:42Z</time>
      </trkpt>
      <trkpt lat="59.9112079" lon="17.5714015">
        <ele>12.6344</ele>
        <time>2013-04-21T12:02:43Z</time>
      </trkpt>
      <trkpt lat="59.9111867" lon="17.5713107">
        <ele>12.6344</ele>
        <time>2013-04-21T12:02:44Z</time>
      </trkpt>
      <trkpt lat="59.9111655" lon="17.5712205">
        <ele>12.6344</ele>
        <time>2013-04-21T12:02:45Z</time>
      </trkpt>
      <trkpt lat="59.9111442" lon="17.57113">
        <ele>12.6344</ele>
        <time>2013-04-21T12:02:46Z</time>
      </trkpt>
      <trkpt lat="59.9111244" lon="17.5710378">
        <ele>12.6344</ele>
        <time>2013-04-21T12:02:47Z</time>
      </trkpt>
      <trkpt lat="59.9111035" lon="17.570947">
        <ele>12.6344</ele>
        <time>2013-04-21T12:02:48Z</time>
      </trkpt>
      <trkpt lat="59.9110805" lon="17.5708617">
        <ele>12.1538</ele>
        <time>2013-04-21T12:02:49Z</time>
      </trkpt>
      <trkpt lat="59.9110566" lon="17.5707731">
        <ele>12.6344</ele>
        <time>2013-04-21T12:02:50Z</time>
      </trkpt>
      <trkpt lat="59.9110348" lon="17.5706779">
        <ele>12.6344</ele>
        <time>2013-04-21T12:02:51Z</time>
      </trkpt>
      <trkpt lat="59.9110132" lon="17.5705804">
        <ele>12.6344</ele>
        <time>2013-04-21T12:02:52Z</time>
      </trkpt>
      <trkpt lat="59.9109918" lon="17.5704835">
        <ele>12.1538</ele>
        <time>2013-04-21T12:02:53Z</time>
      </trkpt>
      <trkpt lat="59.910969" lon="17.5703858">
        <ele>12.1538</ele>
        <time>2013-04-21T12:02:54Z</time>
      </trkpt>
      <trkpt lat="59.9109452" lon="17.5702893">
        <ele>12.1538</ele>
        <time>2013-04-21T12:02:55Z</time>
      </trkpt>
      <trkpt lat="59.9109214" lon="17.5701931">
        <ele>12.1538</ele>
        <time>2013-04-21T12:02:56Z</time>
      </trkpt>
      <trkpt lat="59.9108986" lon="17.5700967">
        <ele>12.1538</ele>
        <time>2013-04-21T12:02:57Z</time>
      </trkpt>
      <trkpt lat="59.9108753" lon="17.5700022">
        <ele>12.1538</ele>
        <time>2013-04-21T12:02:58Z</time>
      </trkpt>
      <trkpt lat="59.9108513" lon="17.569909">
        <ele>12.1538</ele>
        <time>2013-04-21T12:02:59Z</time>
      </trkpt>
      <trkpt lat="59.910828" lon="17.5698163">
        <ele>12.1538</ele>
        <time>2013-04-21T12:03:00Z</time>
      </trkpt>
      <trkpt lat="59.9108047" lon="17.5697245">
        <ele>11.6732</ele>
        <time>2013-04-21T12:03:01Z</time>
      </trkpt>
      <trkpt lat="59.910781" lon="17.5696335">
        <ele>11.6732</ele>
        <time>2013-04-21T12:03:02Z</time>
      </trkpt>
      <trkpt lat="59.9107561" lon="17.5695429">
        <ele>11.6732</ele>
        <time>2013-04-21T12:03:03Z</time>
      </trkpt>
      <trkpt lat="59.9107307" lon="17.5694522">
        <ele>11.6732</ele>
        <time>2013-04-21T12:03:04Z</time>
      </trkpt>
      <trkpt lat="59.9107049" lon="17.5693606">
        <ele>11.6732</ele>
        <time>2013-04-21T12:03:05Z</time>
      </trkpt>
      <trkpt lat="59.9106792" lon="17.5692683">
        <ele>11.6732</ele>
        <time>2013-04-21T12:03:06Z</time>
      </trkpt>
      <trkpt lat="59.9106531" lon="17.5691751">
        <ele>11.6732</ele>
        <time>2013-04-21T12:03:07Z</time>
      </trkpt>
      <trkpt lat="59.9106256" lon="17.5690828">
        <ele>11.1925</ele>
        <time>2013-04-21T12:03:08Z</time>
      </trkpt>
      <trkpt lat="59.9105976" lon="17.5689901">
        <ele>11.1925</ele>
        <time>2013-04-21T12:03:09Z</time>
      </trkpt>
      <trkpt lat="59.9105707" lon="17.568896">
        <ele>11.1925</ele>
        <time>2013-04-21T12:03:10Z</time>
      </trkpt>
      <trkpt lat="59.9105423" lon="17.5688037">
        <ele>11.1925</ele>
        <time>2013-04-21T12:03:11Z</time>
      </trkpt>
      <trkpt lat="59.9105132" lon="17.5687129">
        <ele>11.1925</ele>
        <time>2013-04-21T12:03:12Z</time>
      </trkpt>
      <trkpt lat="59.9104856" lon="17.5686218">
        <ele>10.7118</ele>
        <time>2013-04-21T12:03:13Z</time>
      </trkpt>
      <trkpt lat="59.9104578" lon="17.5685308">
        <ele>10.7118</ele>
        <time>2013-04-21T12:03:14Z</time>
      </trkpt>
      <trkpt lat="59.9104288" lon="17.568441">
        <ele>10.7118</ele>
        <time>2013-04-21T12:03:15Z</time>
      </trkpt>
      <trkpt lat="59.9103995" lon="17.5683528">
        <ele>10.7118</ele>
        <time>2013-04-21T12:03:16Z</time>
      </trkpt>
      <trkpt lat="59.9103703" lon="17.5682654">
        <ele>10.7118</ele>
        <time>2013-04-21T12:03:17Z</time>
      </trkpt>
      <trkpt lat="59.910341" lon="17.5681784">
        <ele>10.7118</ele>
        <time>2013-04-21T12:03:18Z</time>
      </trkpt>
      <trkpt lat="59.910312" lon="17.5680912">
        <ele>10.7118</ele>
        <time>2013-04-21T12:03:19Z</time>
      </trkpt>
      <trkpt lat="59.910283" lon="17.5680035">
        <ele>10.2312</ele>
        <time>2013-04-21T12:03:20Z</time>
      </trkpt>
      <trkpt lat="59.9102527" lon="17.5679163">
        <ele>10.2312</ele>
        <time>2013-04-21T12:03:21Z</time>
      </trkpt>
      <trkpt lat="59.9102215" lon="17.5678289">
        <ele>10.2312</ele>
        <time>2013-04-21T12:03:22Z</time>
      </trkpt>
      <trkpt lat="59.9101905" lon="17.5677407">
        <ele>10.2312</ele>
        <time>2013-04-21T12:03:23Z</time>
      </trkpt>
      <trkpt lat="59.9101593" lon="17.5676524">
        <ele>10.2312</ele>
        <time>2013-04-21T12:03:24Z</time>
      </trkpt>
      <trkpt lat="59.9101268" lon="17.5675642">
        <ele>10.2312</ele>
        <time>2013-04-21T12:03:25Z</time>
      </trkpt>
      <trkpt lat="59.9100937" lon="17.5674763">
        <ele>10.2312</ele>
        <time>2013-04-21T12:03:26Z</time>
      </trkpt>
      <trkpt lat="59.910061" lon="17.567388">
        <ele>10.2312</ele>
        <time>2013-04-21T12:03:27Z</time>
      </trkpt>
      <trkpt lat="59.9100279" lon="17.5673005">
        <ele>10.2312</ele>
        <time>2013-04-21T12:03:28Z</time>
      </trkpt>
      <trkpt lat="59.9099944" lon="17.5672153">
        <ele>10.2312</ele>
        <time>2013-04-21T12:03:29Z</time>
      </trkpt>
      <trkpt lat="59.9099611" lon="17.5671301">
        <ele>10.2312</ele>
        <time>2013-04-21T12:03:30Z</time>
      </trkpt>
      <trkpt lat="59.9099283" lon="17.5670459">
        <ele>10.2312</ele>
        <time>2013-04-21T12:03:31Z</time>
      </trkpt>
      <trkpt lat="59.909896" lon="17.5669627">
        <ele>10.2312</ele>
        <time>2013-04-21T12:03:32Z</time>
      </trkpt>
      <trkpt lat="59.9098636" lon="17.5668812">
        <ele>10.2312</ele>
        <time>2013-04-21T12:03:33Z</time>
      </trkpt>
      <trkpt lat="59.9098313" lon="17.5668008">
        <ele>10.2312</ele>
        <time>2013-04-21T12:03:34Z</time>
      </trkpt>
      <trkpt lat="59.9097992" lon="17.5667208">
        <ele>10.2312</ele>
        <time>2013-04-21T12:03:35Z</time>
      </trkpt>
      <trkpt lat="59.9097663" lon="17.5666414">
        <ele>10.2312</ele>
        <time>2013-04-21T12:03:36Z</time>
      </trkpt>
      <trkpt lat="59.9097328" lon="17.5665616">
        <ele>10.2312</ele>
        <time>2013-04-21T12:03:37Z</time>
      </trkpt>
      <trkpt lat="59.9096986" lon="17.566482">
        <ele>10.7118</ele>
        <time>2013-04-21T12:03:38Z</time>
      </trkpt>
      <trkpt lat="59.9096639" lon="17.5664017">
        <ele>10.7118</ele>
        <time>2013-04-21T12:03:39Z</time>
      </trkpt>
      <trkpt lat="59.9096289" lon="17.5663218">
        <ele>10.7118</ele>
        <time>2013-04-21T12:03:40Z</time>
      </trkpt>
      <trkpt lat="59.9095938" lon="17.5662421">
        <ele>10.7118</ele>
        <time>2013-04-21T12:03:41Z</time>
      </trkpt>
      <trkpt lat="59.9095586" lon="17.5661629">
        <ele>11.1925</ele>
        <time>2013-04-21T12:03:42Z</time>
      </trkpt>
      <trkpt lat="59.9095232" lon="17.5660849">
        <ele>11.1925</ele>
        <time>2013-04-21T12:03:43Z</time>
      </trkpt>
      <trkpt lat="59.9094883" lon="17.566007">
        <ele>11.1925</ele>
        <time>2013-04-21T12:03:44Z</time>
      </trkpt>
      <trkpt lat="59.9094533" lon="17.5659295">
        <ele>11.1925</ele>
        <time>2013-04-21T12:03:45Z</time>
      </trkpt>
      <trkpt lat="59.9094172" lon="17.5658527">
        <ele>11.1925</ele>
        <time>2013-04-21T12:03:46Z</time>
      </trkpt>
      <trkpt lat="59.9093806" lon="17.5657763">
        <ele>11.1925</ele>
        <time>2013-04-21T12:03:47Z</time>
      </trkpt>
      <trkpt lat="59.9093444" lon="17.5656987">
        <ele>11.6732</ele>
        <time>2013-04-21T12:03:48Z</time>
      </trkpt>
      <trkpt lat="59.9093087" lon="17.5656204">
        <ele>11.6732</ele>
        <time>2013-04-21T12:03:49Z</time>
      </trkpt>
      <trkpt lat="59.9092723" lon="17.5655427">
        <ele>11.6732</ele>
        <time>2013-04-21T12:03:50Z</time>
      </trkpt>
      <trkpt lat="59.9092358" lon="17.5654656">
        <ele>11.6732</ele>
        <time>2013-04-21T12:03:51Z</time>
      </trkpt>
      <trkpt lat="59.9091993" lon="17.5653887">
        <ele>11.6732</ele>
        <time>2013-04-21T12:03:52Z</time>
      </trkpt>
      <trkpt lat="59.9091625" lon="17.5653113">
        <ele>11.6732</ele>
        <time>2013-04-21T12:03:53Z</time>
      </trkpt>
      <trkpt lat="59.9091255" lon="17.5652325">
        <ele>11.6732</ele>
        <time>2013-04-21T12:03:54Z</time>
      </trkpt>
      <trkpt lat="59.9090876" lon="17.5651527">
        <ele>12.1538</ele>
        <time>2013-04-21T12:03:55Z</time>
      </trkpt>
      <trkpt lat="59.9090492" lon="17.5650733">
        <ele>12.1538</ele>
        <time>2013-04-21T12:03:56Z</time>
      </trkpt>
      <trkpt lat="59.9090103" lon="17.5649931">
        <ele>12.1538</ele>
        <time>2013-04-21T12:03:57Z</time>
      </trkpt>
      <trkpt lat="59.9089701" lon="17.5649135">
        <ele>12.1538</ele>
        <time>2013-04-21T12:03:58Z</time>
      </trkpt>
      <trkpt lat="59.9089305" lon="17.5648324">
        <ele>12.1538</ele>
        <time>2013-04-21T12:03:59Z</time>
      </trkpt>
      <trkpt lat="59.9088914" lon="17.5647492">
        <ele>12.1538</ele>
        <time>2013-04-21T12:04:00Z</time>
      </trkpt>
      <trkpt lat="59.9088517" lon="17.5646663">
        <ele>12.6344</ele>
        <time>2013-04-21T12:04:01Z</time>
      </trkpt>
      <trkpt lat="59.9088118" lon="17.564584">
        <ele>12.6344</ele>
        <time>2013-04-21T12:04:02Z</time>
      </trkpt>
      <trkpt lat="59.9087727" lon="17.5645015">
        <ele>12.6344</ele>
        <time>2013-04-21T12:04:03Z</time>
      </trkpt>
      <trkpt lat="59.9087341" lon="17.5644185">
        <ele>12.6344</ele>
        <time>2013-04-21T12:04:04Z</time>
      </trkpt>
      <trkpt lat="59.9086959" lon="17.5643365">
        <ele>12.6344</ele>
        <time>2013-04-21T12:04:05Z</time>
      </trkpt>
      <trkpt lat="59.9086576" lon="17.564257">
        <ele>12.6344</ele>
        <time>2013-04-21T12:04:06Z</time>
      </trkpt>
      <trkpt lat="59.9086198" lon="17.5641779">
        <ele>12.6344</ele>
        <time>2013-04-21T12:04:07Z</time>
      </trkpt>
      <trkpt lat="59.9085825" lon="17.5640996">
        <ele>13.1151</ele>
        <time>2013-04-21T12:04:08Z</time>
      </trkpt>
      <trkpt lat="59.9085458" lon="17.5640219">
        <ele>13.1151</ele>
        <time>2013-04-21T12:04:09Z</time>
      </trkpt>
      <trkpt lat="59.9085101" lon="17.5639441">
        <ele>13.1151</ele>
        <time>2013-04-21T12:04:10Z</time>
      </trkpt>
      <trkpt lat="59.9084744" lon="17.563867">
        <ele>13.1151</ele>
        <time>2013-04-21T12:04:11Z</time>
      </trkpt>
      <trkpt lat="59.9084384" lon="17.5637902">
        <ele>13.1151</ele>
        <time>2013-04-21T12:04:12Z</time>
      </trkpt>
      <trkpt lat="59.9084018" lon="17.5637145">
        <ele>13.1151</ele>
        <time>2013-04-21T12:04:13Z</time>
      </trkpt>
      <trkpt lat="59.908365" lon="17.5636396">
        <ele>13.1151</ele>
        <time>2013-04-21T12:04:14Z</time>
      </trkpt>
      <trkpt lat="59.9083291" lon="17.5635635">
        <ele>13.1151</ele>
        <time>2013-04-21T12:04:15Z</time>
      </trkpt>
      <trkpt lat="59.9082924" lon="17.5634888">
        <ele>13.1151</ele>
        <time>2013-04-21T12:04:16Z</time>
      </trkpt>
      <trkpt lat="59.9082557" lon="17.5634143">
        <ele>13.1151</ele>
        <time>2013-04-21T12:04:17Z</time>
      </trkpt>
      <trkpt lat="59.9082209" lon="17.5633366">
        <ele>13.1151</ele>
        <time>2013-04-21T12:04:18Z</time>
      </trkpt>
      <trkpt lat="59.908185" lon="17.5632616">
        <ele>13.5958</ele>
        <time>2013-04-21T12:04:19Z</time>
      </trkpt>
      <trkpt lat="59.9081468" lon="17.5631951">
        <ele>13.5958</ele>
        <time>2013-04-21T12:04:20Z</time>
      </trkpt>
      <trkpt lat="59.9081107" lon="17.5631287">
        <ele>13.1151</ele>
        <time>2013-04-21T12:04:21Z</time>
      </trkpt>
      <trkpt lat="59.9080784" lon="17.5630577">
        <ele>13.1151</ele>
        <time>2013-04-21T12:04:22Z</time>
      </trkpt>
      <trkpt lat="59.9080463" lon="17.562986">
        <ele>13.1151</ele>
        <time>2013-04-21T12:04:23Z</time>
      </trkpt>
      <trkpt lat="59.9080138" lon="17.5629134">
        <ele>13.1151</ele>
        <time>2013-04-21T12:04:24Z</time>
      </trkpt>
      <trkpt lat="59.9079812" lon="17.5628386">
        <ele>13.1151</ele>
        <time>2013-04-21T12:04:25Z</time>
      </trkpt>
      <trkpt lat="59.9079486" lon="17.5627609">
        <ele>13.1151</ele>
        <time>2013-04-21T12:04:26Z</time>
      </trkpt>
      <trkpt lat="59.9079143" lon="17.5626812">
        <ele>13.1151</ele>
        <time>2013-04-21T12:04:27Z</time>
      </trkpt>
      <trkpt lat="59.907877" lon="17.562601">
        <ele>13.1151</ele>
        <time>2013-04-21T12:04:28Z</time>
      </trkpt>
      <trkpt lat="59.9078387" lon="17.5625191">
        <ele>13.1151</ele>
        <time>2013-04-21T12:04:29Z</time>
      </trkpt>
      <trkpt lat="59.9078004" lon="17.5624358">
        <ele>13.1151</ele>
        <time>2013-04-21T12:04:30Z</time>
      </trkpt>
      <trkpt lat="59.9077619" lon="17.5623532">
        <ele>13.1151</ele>
        <time>2013-04-21T12:04:31Z</time>
      </trkpt>
      <trkpt lat="59.9077237" lon="17.5622701">
        <ele>13.1151</ele>
        <time>2013-04-21T12:04:32Z</time>
      </trkpt>
      <trkpt lat="59.9076859" lon="17.5621886">
        <ele>13.1151</ele>
        <time>2013-04-21T12:04:33Z</time>
      </trkpt>
      <trkpt lat="59.9076475" lon="17.5621084">
        <ele>13.1151</ele>
        <time>2013-04-21T12:04:34Z</time>
      </trkpt>
      <trkpt lat="59.9076097" lon="17.5620276">
        <ele>13.1151</ele>
        <time>2013-04-21T12:04:35Z</time>
      </trkpt>
      <trkpt lat="59.9075717" lon="17.5619463">
        <ele>13.1151</ele>
        <time>2013-04-21T12:04:36Z</time>
      </trkpt>
      <trkpt lat="59.9075328" lon="17.5618659">
        <ele>13.1151</ele>
        <time>2013-04-21T12:04:37Z</time>
      </trkpt>
      <trkpt lat="59.9074942" lon="17.5617852">
        <ele>13.1151</ele>
        <time>2013-04-21T12:04:38Z</time>
      </trkpt>
      <trkpt lat="59.9074559" lon="17.5617036">
        <ele>13.5958</ele>
        <time>2013-04-21T12:04:39Z</time>
      </trkpt>
      <trkpt lat="59.9074175" lon="17.5616215">
        <ele>13.5958</ele>
        <time>2013-04-21T12:04:40Z</time>
      </trkpt>
      <trkpt lat="59.9073787" lon="17.5615402">
        <ele>13.5958</ele>
        <time>2013-04-21T12:04:41Z</time>
      </trkpt>
      <trkpt lat="59.9073393" lon="17.5614607">
        <ele>13.5958</ele>
        <time>2013-04-21T12:04:42Z</time>
      </trkpt>
      <trkpt lat="59.9072999" lon="17.5613816">
        <ele>13.5958</ele>
        <time>2013-04-21T12:04:43Z</time>
      </trkpt>
      <trkpt lat="59.9072606" lon="17.5613017">
        <ele>13.5958</ele>
        <time>2013-04-21T12:04:44Z</time>
      </trkpt>
      <trkpt lat="59.9072215" lon="17.5612226">
        <ele>14.0764</ele>
        <time>2013-04-21T12:04:45Z</time>
      </trkpt>
      <trkpt lat="59.9071822" lon="17.5611449">
        <ele>14.0764</ele>
        <time>2013-04-21T12:04:46Z</time>
      </trkpt>
      <trkpt lat="59.907143" lon="17.561067">
        <ele>14.0764</ele>
        <time>2013-04-21T12:04:47Z</time>
      </trkpt>
      <trkpt lat="59.9071034" lon="17.5609906">
        <ele>14.0764</ele>
        <time>2013-04-21T12:04:48Z</time>
      </trkpt>
      <trkpt lat="59.9070638" lon="17.5609145">
        <ele>14.0764</ele>
        <time>2013-04-21T12:04:49Z</time>
      </trkpt>
      <trkpt lat="59.9070238" lon="17.5608372">
        <ele>14.0764</ele>
        <time>2013-04-21T12:04:50Z</time>
      </trkpt>
      <trkpt lat="59.9069835" lon="17.5607588">
        <ele>14.557</ele>
        <time>2013-04-21T12:04:51Z</time>
      </trkpt>
      <trkpt lat="59.9069418" lon="17.5606782">
        <ele>14.557</ele>
        <time>2013-04-21T12:04:52Z</time>
      </trkpt>
      <trkpt lat="59.9068995" lon="17.5605979">
        <ele>14.557</ele>
        <time>2013-04-21T12:04:53Z</time>
      </trkpt>
      <trkpt lat="59.9068581" lon="17.5605189">
        <ele>14.557</ele>
        <time>2013-04-21T12:04:54Z</time>
      </trkpt>
      <trkpt lat="59.9068176" lon="17.560442">
        <ele>14.557</ele>
        <time>2013-04-21T12:04:55Z</time>
      </trkpt>
      <trkpt lat="59.9067768" lon="17.5603657">
        <ele>15.0377</ele>
        <time>2013-04-21T12:04:56Z</time>
      </trkpt>
      <trkpt lat="59.9067356" lon="17.5602895">
        <ele>15.0377</ele>
        <time>2013-04-21T12:04:57Z</time>
      </trkpt>
      <trkpt lat="59.906693" lon="17.5602125">
        <ele>15.0377</ele>
        <time>2013-04-21T12:04:58Z</time>
      </trkpt>
      <trkpt lat="59.9066505" lon="17.5601332">
        <ele>15.0377</ele>
        <time>2013-04-21T12:04:59Z</time>
      </trkpt>
      <trkpt lat="59.9066072" lon="17.5600534">
        <ele>15.0377</ele>
        <time>2013-04-21T12:05:00Z</time>
      </trkpt>
      <trkpt lat="59.9065623" lon="17.5599736">
        <ele>15.0377</ele>
        <time>2013-04-21T12:05:01Z</time>
      </trkpt>
      <trkpt lat="59.9065168" lon="17.5598943">
        <ele>15.0377</ele>
        <time>2013-04-21T12:05:02Z</time>
      </trkpt>
      <trkpt lat="59.90647" lon="17.5598153">
        <ele>14.557</ele>
        <time>2013-04-21T12:05:03Z</time>
      </trkpt>
      <trkpt lat="59.9064243" lon="17.5597368">
        <ele>14.557</ele>
        <time>2013-04-21T12:05:04Z</time>
      </trkpt>
      <trkpt lat="59.9063794" lon="17.5596549">
        <ele>14.557</ele>
        <time>2013-04-21T12:05:05Z</time>
      </trkpt>
      <trkpt lat="59.906334" lon="17.559573">
        <ele>14.557</ele>
        <time>2013-04-21T12:05:06Z</time>
      </trkpt>
      <trkpt lat="59.9062881" lon="17.5594935">
        <ele>14.557</ele>
        <time>2013-04-21T12:05:07Z</time>
      </trkpt>
      <trkpt lat="59.9062423" lon="17.5594136">
        <ele>14.557</ele>
        <time>2013-04-21T12:05:08Z</time>
      </trkpt>
      <trkpt lat="59.9061966" lon="17.5593339">
        <ele>14.0764</ele>
        <time>2013-04-21T12:05:09Z</time>
      </trkpt>
      <trkpt lat="59.9061511" lon="17.5592536">
        <ele>14.0764</ele>
        <time>2013-04-21T12:05:10Z</time>
      </trkpt>
      <trkpt lat="59.9061057" lon="17.5591728">
        <ele>14.0764</ele>
        <time>2013-04-21T12:05:11Z</time>
      </trkpt>
      <trkpt lat="59.9060593" lon="17.5590925">
        <ele>14.0764</ele>
        <time>2013-04-21T12:05:12Z</time>
      </trkpt>
      <trkpt lat="59.9060127" lon="17.5590117">
        <ele>14.0764</ele>
        <time>2013-04-21T12:05:13Z</time>
      </trkpt>
      <trkpt lat="59.9059666" lon="17.5589299">
        <ele>14.0764</ele>
        <time>2013-04-21T12:05:14Z</time>
      </trkpt>
      <trkpt lat="59.9059209" lon="17.5588486">
        <ele>14.0764</ele>
        <time>2013-04-21T12:05:15Z</time>
      </trkpt>
      <trkpt lat="59.9058754" lon="17.5587672">
        <ele>14.0764</ele>
        <time>2013-04-21T12:05:16Z</time>
      </trkpt>
      <trkpt lat="59.9058298" lon="17.5586862">
        <ele>14.0764</ele>
        <time>2013-04-21T12:05:17Z</time>
      </trkpt>
      <trkpt lat="59.9057833" lon="17.5586061">
        <ele>14.0764</ele>
        <time>2013-04-21T12:05:18Z</time>
      </trkpt>
      <trkpt lat="59.9057366" lon="17.5585261">
        <ele>13.5958</ele>
        <time>2013-04-21T12:05:19Z</time>
      </trkpt>
      <trkpt lat="59.9056896" lon="17.5584446">
        <ele>13.5958</ele>
        <time>2013-04-21T12:05:20Z</time>
      </trkpt>
      <trkpt lat="59.9056423" lon="17.5583636">
        <ele>13.5958</ele>
        <time>2013-04-21T12:05:21Z</time>
      </trkpt>
      <trkpt lat="59.9055947" lon="17.5582829">
        <ele>13.5958</ele>
        <time>2013-04-21T12:05:22Z</time>
      </trkpt>
      <trkpt lat="59.905547" lon="17.5582009">
        <ele>13.5958</ele>
        <time>2013-04-21T12:05:23Z</time>
      </trkpt>
      <trkpt lat="59.9054992" lon="17.5581175">
        <ele>13.5958</ele>
        <time>2013-04-21T12:05:24Z</time>
      </trkpt>
      <trkpt lat="59.9054508" lon="17.5580333">
        <ele>13.5958</ele>
        <time>2013-04-21T12:05:25Z</time>
      </trkpt>
      <trkpt lat="59.9054024" lon="17.5579489">
        <ele>13.5958</ele>
        <time>2013-04-21T12:05:26Z</time>
      </trkpt>
      <trkpt lat="59.9053533" lon="17.5578654">
        <ele>13.1151</ele>
        <time>2013-04-21T12:05:27Z</time>
      </trkpt>
      <trkpt lat="59.9053034" lon="17.5577804">
        <ele>13.1151</ele>
        <time>2013-04-21T12:05:28Z</time>
      </trkpt>
      <trkpt lat="59.9052533" lon="17.5576928">
        <ele>13.1151</ele>
        <time>2013-04-21T12:05:29Z</time>
      </trkpt>
      <trkpt lat="59.9052029" lon="17.5576048">
        <ele>13.1151</ele>
        <time>2013-04-21T12:05:30Z</time>
      </trkpt>
      <trkpt lat="59.9051522" lon="17.5575176">
        <ele>12.6344</ele>
        <time>2013-04-21T12:05:31Z</time>
      </trkpt>
      <trkpt lat="59.9051019" lon="17.55743">
        <ele>12.6344</ele>
        <time>2013-04-21T12:05:32Z</time>
      </trkpt>
      <trkpt lat="59.9050523" lon="17.5573432">
        <ele>12.6344</ele>
        <time>2013-04-21T12:05:33Z</time>
      </trkpt>
      <trkpt lat="59.9050036" lon="17.5572593">
        <ele>12.6344</ele>
        <time>2013-04-21T12:05:34Z</time>
      </trkpt>
      <trkpt lat="59.9049549" lon="17.5571754">
        <ele>12.1538</ele>
        <time>2013-04-21T12:05:35Z</time>
      </trkpt>
      <trkpt lat="59.9049056" lon="17.5570899">
        <ele>12.1538</ele>
        <time>2013-04-21T12:05:36Z</time>
      </trkpt>
      <trkpt lat="59.9048556" lon="17.557004">
        <ele>12.1538</ele>
        <time>2013-04-21T12:05:37Z</time>
      </trkpt>
      <trkpt lat="59.9048064" lon="17.5569179">
        <ele>12.1538</ele>
        <time>2013-04-21T12:05:38Z</time>
      </trkpt>
      <trkpt lat="59.9047576" lon="17.5568322">
        <ele>12.1538</ele>
        <time>2013-04-21T12:05:39Z</time>
      </trkpt>
      <trkpt lat="59.9047077" lon="17.556747">
        <ele>12.1538</ele>
        <time>2013-04-21T12:05:40Z</time>
      </trkpt>
      <trkpt lat="59.9046574" lon="17.5566609">
        <ele>11.6732</ele>
        <time>2013-04-21T12:05:41Z</time>
      </trkpt>
      <trkpt lat="59.9046068" lon="17.5565735">
        <ele>11.6732</ele>
        <time>2013-04-21T12:05:42Z</time>
      </trkpt>
      <trkpt lat="59.9045561" lon="17.556485">
        <ele>11.6732</ele>
        <time>2013-04-21T12:05:43Z</time>
      </trkpt>
      <trkpt lat="59.9045053" lon="17.5563962">
        <ele>11.6732</ele>
        <time>2013-04-21T12:05:44Z</time>
      </trkpt>
      <trkpt lat="59.9044546" lon="17.5563072">
        <ele>11.1925</ele>
        <time>2013-04-21T12:05:45Z</time>
      </trkpt>
      <trkpt lat="59.9044048" lon="17.5562176">
        <ele>11.1925</ele>
        <time>2013-04-21T12:05:46Z</time>
      </trkpt>
      <trkpt lat="59.9043552" lon="17.5561275">
        <ele>11.1925</ele>
        <time>2013-04-21T12:05:47Z</time>
      </trkpt>
      <trkpt lat="59.9043056" lon="17.5560364">
        <ele>11.1925</ele>
        <time>2013-04-21T12:05:48Z</time>
      </trkpt>
      <trkpt lat="59.9042561" lon="17.5559444">
        <ele>10.7118</ele>
        <time>2013-04-21T12:05:49Z</time>
      </trkpt>
      <trkpt lat="59.904208" lon="17.5558506">
        <ele>10.7118</ele>
        <time>2013-04-21T12:05:50Z</time>
      </trkpt>
      <trkpt lat="59.9041606" lon="17.5557577">
        <ele>10.7118</ele>
        <time>2013-04-21T12:05:51Z</time>
      </trkpt>
      <trkpt lat="59.9041136" lon="17.5556648">
        <ele>10.2312</ele>
        <time>2013-04-21T12:05:52Z</time>
      </trkpt>
      <trkpt lat="59.9040676" lon="17.5555701">
        <ele>10.2312</ele>
        <time>2013-04-21T12:05:53Z</time>
      </trkpt>
      <trkpt lat="59.9040223" lon="17.5554737">
        <ele>9.75061</ele>
        <time>2013-04-21T12:05:54Z</time>
      </trkpt>
      <trkpt lat="59.9039769" lon="17.5553748">
        <ele>9.75061</ele>
        <time>2013-04-21T12:05:55Z</time>
      </trkpt>
      <trkpt lat="59.9039324" lon="17.5552748">
        <ele>9.75061</ele>
        <time>2013-04-21T12:05:56Z</time>
      </trkpt>
      <trkpt lat="59.9038889" lon="17.5551744">
        <ele>9.75061</ele>
        <time>2013-04-21T12:05:57Z</time>
      </trkpt>
      <trkpt lat="59.9038453" lon="17.5550743">
        <ele>9.2699</ele>
        <time>2013-04-21T12:05:58Z</time>
      </trkpt>
      <trkpt lat="59.9038008" lon="17.5549749">
        <ele>9.2699</ele>
        <time>2013-04-21T12:05:59Z</time>
      </trkpt>
      <trkpt lat="59.9037569" lon="17.5548754">
        <ele>9.2699</ele>
        <time>2013-04-21T12:06:00Z</time>
      </trkpt>
      <trkpt lat="59.9037143" lon="17.5547755">
        <ele>9.2699</ele>
        <time>2013-04-21T12:06:01Z</time>
      </trkpt>
      <trkpt lat="59.9036721" lon="17.554676">
        <ele>9.2699</ele>
        <time>2013-04-21T12:06:02Z</time>
      </trkpt>
      <trkpt lat="59.9036299" lon="17.5545755">
        <ele>9.2699</ele>
        <time>2013-04-21T12:06:03Z</time>
      </trkpt>
      <trkpt lat="59.9035874" lon="17.5544746">
        <ele>9.2699</ele>
        <time>2013-04-21T12:06:04Z</time>
      </trkpt>
      <trkpt lat="59.9035452" lon="17.554374">
        <ele>8.78918</ele>
        <time>2013-04-21T12:06:05Z</time>
      </trkpt>
      <trkpt lat="59.903503" lon="17.5542726">
        <ele>8.78918</ele>
        <time>2013-04-21T12:06:06Z</time>
      </trkpt>
      <trkpt lat="59.9034606" lon="17.5541715">
        <ele>8.78918</ele>
        <time>2013-04-21T12:06:07Z</time>
      </trkpt>
      <trkpt lat="59.9034183" lon="17.5540715">
        <ele>8.78918</ele>
        <time>2013-04-21T12:06:08Z</time>
      </trkpt>
      <trkpt lat="59.9033765" lon="17.5539723">
        <ele>8.78918</ele>
        <time>2013-04-21T12:06:09Z</time>
      </trkpt>
      <trkpt lat="59.9033351" lon="17.5538742">
        <ele>8.78918</ele>
        <time>2013-04-21T12:06:10Z</time>
      </trkpt>
      <trkpt lat="59.9032942" lon="17.5537763">
        <ele>8.78918</ele>
        <time>2013-04-21T12:06:11Z</time>
      </trkpt>
      <trkpt lat="59.9032538" lon="17.5536786">
        <ele>8.78918</ele>
        <time>2013-04-21T12:06:12Z</time>
      </trkpt>
      <trkpt lat="59.9032137" lon="17.5535824">
        <ele>8.78918</ele>
        <time>2013-04-21T12:06:13Z</time>
      </trkpt>
      <trkpt lat="59.9031739" lon="17.553488">
        <ele>8.78918</ele>
        <time>2013-04-21T12:06:14Z</time>
      </trkpt>
      <trkpt lat="59.9031344" lon="17.5533934">
        <ele>8.78918</ele>
        <time>2013-04-21T12:06:15Z</time>
      </trkpt>
      <trkpt lat="59.9030948" lon="17.5532974">
        <ele>8.78918</ele>
        <time>2013-04-21T12:06:16Z</time>
      </trkpt>
      <trkpt lat="59.9030557" lon="17.5532017">
        <ele>8.30859</ele>
        <time>2013-04-21T12:06:17Z</time>
      </trkpt>
      <trkpt lat="59.9030165" lon="17.5531073">
        <ele>8.30859</ele>
        <time>2013-04-21T12:06:18Z</time>
      </trkpt>
      <trkpt lat="59.9029775" lon="17.5530142">
        <ele>8.30859</ele>
        <time>2013-04-21T12:06:19Z</time>
      </trkpt>
      <trkpt lat="59.9029386" lon="17.5529219">
        <ele>8.30859</ele>
        <time>2013-04-21T12:06:20Z</time>
      </trkpt>
      <trkpt lat="59.9029001" lon="17.5528298">
        <ele>8.30859</ele>
        <time>2013-04-21T12:06:21Z</time>
      </trkpt>
      <trkpt lat="59.9028617" lon="17.5527386">
        <ele>8.30859</ele>
        <time>2013-04-21T12:06:22Z</time>
      </trkpt>
      <trkpt lat="59.9028241" lon="17.5526473">
        <ele>8.30859</ele>
        <time>2013-04-21T12:06:23Z</time>
      </trkpt>
      <trkpt lat="59.9027868" lon="17.5525564">
        <ele>8.30859</ele>
        <time>2013-04-21T12:06:24Z</time>
      </trkpt>
      <trkpt lat="59.9027491" lon="17.5524672">
        <ele>8.30859</ele>
        <time>2013-04-21T12:06:25Z</time>
      </trkpt>
      <trkpt lat="59.9027117" lon="17.5523771">
        <ele>8.30859</ele>
        <time>2013-04-21T12:06:26Z</time>
      </trkpt>
      <trkpt lat="59.9026741" lon="17.5522859">
        <ele>8.30859</ele>
        <time>2013-04-21T12:06:27Z</time>
      </trkpt>
      <trkpt lat="59.9026363" lon="17.552195">
        <ele>7.82788</ele>
        <time>2013-04-21T12:06:28Z</time>
      </trkpt>
      <trkpt lat="59.9025984" lon="17.552103">
        <ele>7.82788</ele>
        <time>2013-04-21T12:06:29Z</time>
      </trkpt>
      <trkpt lat="59.9025601" lon="17.5520108">
        <ele>7.82788</ele>
        <time>2013-04-21T12:06:30Z</time>
      </trkpt>
      <trkpt lat="59.9025213" lon="17.5519186">
        <ele>7.82788</ele>
        <time>2013-04-21T12:06:31Z</time>
      </trkpt>
      <trkpt lat="59.9024825" lon="17.5518244">
        <ele>7.82788</ele>
        <time>2013-04-21T12:06:32Z</time>
      </trkpt>
      <trkpt lat="59.9024436" lon="17.5517301">
        <ele>7.82788</ele>
        <time>2013-04-21T12:06:33Z</time>
      </trkpt>
      <trkpt lat="59.9024044" lon="17.5516359">
        <ele>7.82788</ele>
        <time>2013-04-21T12:06:34Z</time>
      </trkpt>
      <trkpt lat="59.9023658" lon="17.5515428">
        <ele>7.82788</ele>
        <time>2013-04-21T12:06:35Z</time>
      </trkpt>
      <trkpt lat="59.9023266" lon="17.5514524">
        <ele>7.82788</ele>
        <time>2013-04-21T12:06:36Z</time>
      </trkpt>
      <trkpt lat="59.9022877" lon="17.5513631">
        <ele>7.82788</ele>
        <time>2013-04-21T12:06:37Z</time>
      </trkpt>
      <trkpt lat="59.9022498" lon="17.5512715">
        <ele>7.34717</ele>
        <time>2013-04-21T12:06:38Z</time>
      </trkpt>
      <trkpt lat="59.9022114" lon="17.5511794">
        <ele>7.34717</ele>
        <time>2013-04-21T12:06:39Z</time>
      </trkpt>
      <trkpt lat="59.9021721" lon="17.5510882">
        <ele>7.34717</ele>
        <time>2013-04-21T12:06:40Z</time>
      </trkpt>
      <trkpt lat="59.9021333" lon="17.5509958">
        <ele>7.34717</ele>
        <time>2013-04-21T12:06:41Z</time>
      </trkpt>
      <trkpt lat="59.902095" lon="17.5509016">
        <ele>7.34717</ele>
        <time>2013-04-21T12:06:42Z</time>
      </trkpt>
      <trkpt lat="59.9020559" lon="17.5508064">
        <ele>7.34717</ele>
        <time>2013-04-21T12:06:43Z</time>
      </trkpt>
      <trkpt lat="59.9020155" lon="17.550713">
        <ele>7.34717</ele>
        <time>2013-04-21T12:06:44Z</time>
      </trkpt>
      <trkpt lat="59.9019751" lon="17.5506215">
        <ele>7.34717</ele>
        <time>2013-04-21T12:06:45Z</time>
      </trkpt>
      <trkpt lat="59.9019356" lon="17.5505302">
        <ele>7.34717</ele>
        <time>2013-04-21T12:06:46Z</time>
      </trkpt>
      <trkpt lat="59.9018971" lon="17.5504386">
        <ele>7.34717</ele>
        <time>2013-04-21T12:06:47Z</time>
      </trkpt>
      <trkpt lat="59.9018588" lon="17.5503475">
        <ele>7.34717</ele>
        <time>2013-04-21T12:06:48Z</time>
      </trkpt>
      <trkpt lat="59.9018205" lon="17.5502571">
        <ele>7.34717</ele>
        <time>2013-04-21T12:06:49Z</time>
      </trkpt>
      <trkpt lat="59.9017819" lon="17.5501662">
        <ele>7.34717</ele>
        <time>2013-04-21T12:06:50Z</time>
      </trkpt>
      <trkpt lat="59.9017422" lon="17.5500751">
        <ele>7.34717</ele>
        <time>2013-04-21T12:06:51Z</time>
      </trkpt>
      <trkpt lat="59.9017027" lon="17.5499833">
        <ele>7.34717</ele>
        <time>2013-04-21T12:06:52Z</time>
      </trkpt>
      <trkpt lat="59.9016635" lon="17.54989">
        <ele>7.34717</ele>
        <time>2013-04-21T12:06:53Z</time>
      </trkpt>
      <trkpt lat="59.9016242" lon="17.5497963">
        <ele>6.86646</ele>
        <time>2013-04-21T12:06:54Z</time>
      </trkpt>
      <trkpt lat="59.9015845" lon="17.5497031">
        <ele>6.86646</ele>
        <time>2013-04-21T12:06:55Z</time>
      </trkpt>
      <trkpt lat="59.9015449" lon="17.5496105">
        <ele>6.86646</ele>
        <time>2013-04-21T12:06:56Z</time>
      </trkpt>
      <trkpt lat="59.9015058" lon="17.5495182">
        <ele>6.86646</ele>
        <time>2013-04-21T12:06:57Z</time>
      </trkpt>
      <trkpt lat="59.9014672" lon="17.549427">
        <ele>6.86646</ele>
        <time>2013-04-21T12:06:58Z</time>
      </trkpt>
      <trkpt lat="59.9014293" lon="17.5493361">
        <ele>6.86646</ele>
        <time>2013-04-21T12:06:59Z</time>
      </trkpt>
      <trkpt lat="59.9013915" lon="17.5492451">
        <ele>6.86646</ele>
        <time>2013-04-21T12:07:00Z</time>
      </trkpt>
      <trkpt lat="59.9013527" lon="17.5491536">
        <ele>6.86646</ele>
        <time>2013-04-21T12:07:01Z</time>
      </trkpt>
      <trkpt lat="59.9013133" lon="17.5490622">
        <ele>6.86646</ele>
        <time>2013-04-21T12:07:02Z</time>
      </trkpt>
      <trkpt lat="59.9012739" lon="17.5489691">
        <ele>6.86646</ele>
        <time>2013-04-21T12:07:03Z</time>
      </trkpt>
      <trkpt lat="59.9012351" lon="17.5488748">
        <ele>6.86646</ele>
        <time>2013-04-21T12:07:04Z</time>
      </trkpt>
      <trkpt lat="59.9011962" lon="17.5487813">
        <ele>6.86646</ele>
        <time>2013-04-21T12:07:05Z</time>
      </trkpt>
      <trkpt lat="59.9011569" lon="17.5486878">
        <ele>6.86646</ele>
        <time>2013-04-21T12:07:06Z</time>
      </trkpt>
      <trkpt lat="59.901118" lon="17.5485944">
        <ele>6.86646</ele>
        <time>2013-04-21T12:07:07Z</time>
      </trkpt>
      <trkpt lat="59.9010797" lon="17.5485028">
        <ele>6.86646</ele>
        <time>2013-04-21T12:07:08Z</time>
      </trkpt>
      <trkpt lat="59.9010414" lon="17.5484126">
        <ele>6.86646</ele>
        <time>2013-04-21T12:07:09Z</time>
      </trkpt>
      <trkpt lat="59.9010033" lon="17.5483215">
        <ele>6.86646</ele>
        <time>2013-04-21T12:07:10Z</time>
      </trkpt>
      <trkpt lat="59.9009652" lon="17.5482293">
        <ele>6.86646</ele>
        <time>2013-04-21T12:07:11Z</time>
      </trkpt>
      <trkpt lat="59.9009274" lon="17.5481387">
        <ele>6.86646</ele>
        <time>2013-04-21T12:07:12Z</time>
      </trkpt>
      <trkpt lat="59.9008899" lon="17.5480492">
        <ele>6.86646</ele>
        <time>2013-04-21T12:07:13Z</time>
      </trkpt>
      <trkpt lat="59.9008527" lon="17.5479599">
        <ele>6.86646</ele>
        <time>2013-04-21T12:07:14Z</time>
      </trkpt>
      <trkpt lat="59.9008158" lon="17.5478699">
        <ele>6.86646</ele>
        <time>2013-04-21T12:07:15Z</time>
      </trkpt>
      <trkpt lat="59.9007787" lon="17.5477807">
        <ele>6.86646</ele>
        <time>2013-04-21T12:07:16Z</time>
      </trkpt>
      <trkpt lat="59.9007412" lon="17.5476917">
        <ele>6.86646</ele>
        <time>2013-04-21T12:07:17Z</time>
      </trkpt>
      <trkpt lat="59.9007034" lon="17.5476031">
        <ele>6.86646</ele>
        <time>2013-04-21T12:07:18Z</time>
      </trkpt>
      <trkpt lat="59.9006659" lon="17.547515">
        <ele>6.86646</ele>
        <time>2013-04-21T12:07:19Z</time>
      </trkpt>
      <trkpt lat="59.9006296" lon="17.5474252">
        <ele>6.86646</ele>
        <time>2013-04-21T12:07:20Z</time>
      </trkpt>
      <trkpt lat="59.9005933" lon="17.5473354">
        <ele>6.86646</ele>
        <time>2013-04-21T12:07:21Z</time>
      </trkpt>
      <trkpt lat="59.900556" lon="17.5472478">
        <ele>6.86646</ele>
        <time>2013-04-21T12:07:22Z</time>
      </trkpt>
      <trkpt lat="59.9005193" lon="17.5471612">
        <ele>6.86646</ele>
        <time>2013-04-21T12:07:23Z</time>
      </trkpt>
      <trkpt lat="59.9004836" lon="17.547076">
        <ele>6.86646</ele>
        <time>2013-04-21T12:07:24Z</time>
      </trkpt>
      <trkpt lat="59.9004488" lon="17.5469916">
        <ele>6.86646</ele>
        <time>2013-04-21T12:07:25Z</time>
      </trkpt>
      <trkpt lat="59.9004139" lon="17.546908">
        <ele>6.86646</ele>
        <time>2013-04-21T12:07:26Z</time>
      </trkpt>
      <trkpt lat="59.9003786" lon="17.5468253">
        <ele>6.86646</ele>
        <time>2013-04-21T12:07:27Z</time>
      </trkpt>
      <trkpt lat="59.9003441" lon="17.5467415">
        <ele>6.86646</ele>
        <time>2013-04-21T12:07:28Z</time>
      </trkpt>
      <trkpt lat="59.9003098" lon="17.5466562">
        <ele>6.86646</ele>
        <time>2013-04-21T12:07:29Z</time>
      </trkpt>
      <trkpt lat="59.9002732" lon="17.5465712">
        <ele>6.86646</ele>
        <time>2013-04-21T12:07:30Z</time>
      </trkpt>
      <trkpt lat="59.9002357" lon="17.5464856">
        <ele>6.86646</ele>
        <time>2013-04-21T12:07:31Z</time>
      </trkpt>
      <trkpt lat="59.9002007" lon="17.5463954">
        <ele>6.86646</ele>
        <time>2013-04-21T12:07:32Z</time>
      </trkpt>
      <trkpt lat="59.9001689" lon="17.5463024">
        <ele>6.86646</ele>
        <time>2013-04-21T12:07:33Z</time>
      </trkpt>
      <trkpt lat="59.9001383" lon="17.5462103">
        <ele>6.86646</ele>
        <time>2013-04-21T12:07:34Z</time>
      </trkpt>
      <trkpt lat="59.9001089" lon="17.5461205">
        <ele>7.34717</ele>
        <time>2013-04-21T12:07:35Z</time>
      </trkpt>
      <trkpt lat="59.9000805" lon="17.5460331">
        <ele>6.86646</ele>
        <time>2013-04-21T12:07:36Z</time>
      </trkpt>
      <trkpt lat="59.9000498" lon="17.5459522">
        <ele>6.86646</ele>
        <time>2013-04-21T12:07:37Z</time>
      </trkpt>
      <trkpt lat="59.900016" lon="17.5458744">
        <ele>6.86646</ele>
        <time>2013-04-21T12:07:38Z</time>
      </trkpt>
      <trkpt lat="59.8999841" lon="17.5457924">
        <ele>6.38586</ele>
        <time>2013-04-21T12:07:39Z</time>
      </trkpt>
      <trkpt lat="59.8999502" lon="17.5457114">
        <ele>6.38586</ele>
        <time>2013-04-21T12:07:40Z</time>
      </trkpt>
      <trkpt lat="59.8999105" lon="17.5456418">
        <ele>6.86646</ele>
        <time>2013-04-21T12:07:41Z</time>
      </trkpt>
      <trkpt lat="59.8998677" lon="17.5455798">
        <ele>6.86646</ele>
        <time>2013-04-21T12:07:42Z</time>
      </trkpt>
      <trkpt lat="59.8998271" lon="17.545516">
        <ele>6.86646</ele>
        <time>2013-04-21T12:07:43Z</time>
      </trkpt>
      <trkpt lat="59.8997876" lon="17.5454474">
        <ele>6.86646</ele>
        <time>2013-04-21T12:07:44Z</time>
      </trkpt>
      <trkpt lat="59.8997466" lon="17.5453741">
        <ele>6.86646</ele>
        <time>2013-04-21T12:07:45Z</time>
      </trkpt>
      <trkpt lat="59.8997039" lon="17.5452973">
        <ele>6.86646</ele>
        <time>2013-04-21T12:07:46Z</time>
      </trkpt>
      <trkpt lat="59.8996604" lon="17.5452226">
        <ele>6.86646</ele>
        <time>2013-04-21T12:07:47Z</time>
      </trkpt>
      <trkpt lat="59.8996174" lon="17.5451502">
        <ele>6.38586</ele>
        <time>2013-04-21T12:07:48Z</time>
      </trkpt>
      <trkpt lat="59.8995729" lon="17.5450798">
        <ele>6.38586</ele>
        <time>2013-04-21T12:07:49Z</time>
      </trkpt>
      <trkpt lat="59.8995258" lon="17.5450135">
        <ele>6.38586</ele>
        <time>2013-04-21T12:07:50Z</time>
      </trkpt>
      <trkpt lat="59.8994773" lon="17.5449502">
        <ele>6.38586</ele>
        <time>2013-04-21T12:07:51Z</time>
      </trkpt>
      <trkpt lat="59.8994277" lon="17.5448866">
        <ele>6.38586</ele>
        <time>2013-04-21T12:07:52Z</time>
      </trkpt>
      <trkpt lat="59.8993769" lon="17.544822">
        <ele>6.38586</ele>
        <time>2013-04-21T12:07:53Z</time>
      </trkpt>
      <trkpt lat="59.899324" lon="17.5447601">
        <ele>6.38586</ele>
        <time>2013-04-21T12:07:54Z</time>
      </trkpt>
      <trkpt lat="59.8992698" lon="17.5447015">
        <ele>6.38586</ele>
        <time>2013-04-21T12:07:55Z</time>
      </trkpt>
      <trkpt lat="59.8992149" lon="17.5446432">
        <ele>5.90527</ele>
        <time>2013-04-21T12:07:56Z</time>
      </trkpt>
      <trkpt lat="59.8991588" lon="17.5445835">
        <ele>5.90527</ele>
        <time>2013-04-21T12:07:57Z</time>
      </trkpt>
      <trkpt lat="59.8991003" lon="17.544524">
        <ele>5.90527</ele>
        <time>2013-04-21T12:07:58Z</time>
      </trkpt>
      <trkpt lat="59.8990392" lon="17.544465">
        <ele>5.90527</ele>
        <time>2013-04-21T12:07:59Z</time>
      </trkpt>
      <trkpt lat="59.898977" lon="17.5444019">
        <ele>5.90527</ele>
        <time>2013-04-21T12:08:00Z</time>
      </trkpt>
      <trkpt lat="59.8989135" lon="17.5443343">
        <ele>5.90527</ele>
        <time>2013-04-21T12:08:01Z</time>
      </trkpt>
      <trkpt lat="59.8988506" lon="17.5442641">
        <ele>5.90527</ele>
        <time>2013-04-21T12:08:02Z</time>
      </trkpt>
      <trkpt lat="59.8987899" lon="17.5441884">
        <ele>5.90527</ele>
        <time>2013-04-21T12:08:03Z</time>
      </trkpt>
      <trkpt lat="59.8987308" lon="17.544106">
        <ele>5.90527</ele>
        <time>2013-04-21T12:08:04Z</time>
      </trkpt>
      <trkpt lat="59.8986729" lon="17.5440221">
        <ele>5.90527</ele>
        <time>2013-04-21T12:08:05Z</time>
      </trkpt>
      <trkpt lat="59.8986165" lon="17.5439371">
        <ele>5.90527</ele>
        <time>2013-04-21T12:08:06Z</time>
      </trkpt>
      <trkpt lat="59.8985601" lon="17.543852">
        <ele>5.90527</ele>
        <time>2013-04-21T12:08:07Z</time>
      </trkpt>
      <trkpt lat="59.898506" lon="17.5437646">
        <ele>5.90527</ele>
        <time>2013-04-21T12:08:08Z</time>
      </trkpt>
      <trkpt lat="59.8984534" lon="17.5436745">
        <ele>5.90527</ele>
        <time>2013-04-21T12:08:09Z</time>
      </trkpt>
      <trkpt lat="59.8984035" lon="17.5435839">
        <ele>5.90527</ele>
        <time>2013-04-21T12:08:10Z</time>
      </trkpt>
      <trkpt lat="59.8983543" lon="17.5434945">
        <ele>6.38586</ele>
        <time>2013-04-21T12:08:11Z</time>
      </trkpt>
      <trkpt lat="59.8983073" lon="17.5434052">
        <ele>6.38586</ele>
        <time>2013-04-21T12:08:12Z</time>
      </trkpt>
      <trkpt lat="59.898262" lon="17.5433174">
        <ele>6.38586</ele>
        <time>2013-04-21T12:08:13Z</time>
      </trkpt>
      <trkpt lat="59.8982197" lon="17.543228">
        <ele>6.38586</ele>
        <time>2013-04-21T12:08:14Z</time>
      </trkpt>
      <trkpt lat="59.898181" lon="17.5431397">
        <ele>6.86646</ele>
        <time>2013-04-21T12:08:15Z</time>
      </trkpt>
      <trkpt lat="59.898143" lon="17.5430568">
        <ele>7.34717</ele>
        <time>2013-04-21T12:08:16Z</time>
      </trkpt>
      <trkpt lat="59.8981074" lon="17.542977">
        <ele>7.34717</ele>
        <time>2013-04-21T12:08:17Z</time>
      </trkpt>
      <trkpt lat="59.8980743" lon="17.5428986">
        <ele>7.82788</ele>
        <time>2013-04-21T12:08:18Z</time>
      </trkpt>
      <trkpt lat="59.8980403" lon="17.5428208">
        <ele>8.30859</ele>
        <time>2013-04-21T12:08:19Z</time>
      </trkpt>
      <trkpt lat="59.8980056" lon="17.5427448">
        <ele>8.30859</ele>
        <time>2013-04-21T12:08:20Z</time>
      </trkpt>
      <trkpt lat="59.8979716" lon="17.5426684">
        <ele>8.78918</ele>
        <time>2013-04-21T12:08:21Z</time>
      </trkpt>
      <trkpt lat="59.8979394" lon="17.542593">
        <ele>8.78918</ele>
        <time>2013-04-21T12:08:22Z</time>
      </trkpt>
      <trkpt lat="59.8979084" lon="17.5425213">
        <ele>9.2699</ele>
        <time>2013-04-21T12:08:23Z</time>
      </trkpt>
      <trkpt lat="59.8978751" lon="17.5424473">
        <ele>9.2699</ele>
        <time>2013-04-21T12:08:24Z</time>
      </trkpt>
      <trkpt lat="59.8978394" lon="17.5423674">
        <ele>9.2699</ele>
        <time>2013-04-21T12:08:25Z</time>
      </trkpt>
      <trkpt lat="59.8978031" lon="17.5422898">
        <ele>9.2699</ele>
        <time>2013-04-21T12:08:26Z</time>
      </trkpt>
      <trkpt lat="59.8977682" lon="17.5422133">
        <ele>9.2699</ele>
        <time>2013-04-21T12:08:27Z</time>
      </trkpt>
      <trkpt lat="59.8977365" lon="17.5421376">
        <ele>8.78918</ele>
        <time>2013-04-21T12:08:28Z</time>
      </trkpt>
      <trkpt lat="59.8977049" lon="17.5420667">
        <ele>9.2699</ele>
        <time>2013-04-21T12:08:29Z</time>
      </trkpt>
      <trkpt lat="59.8976727" lon="17.5419972">
        <ele>9.2699</ele>
        <time>2013-04-21T12:08:30Z</time>
      </trkpt>
      <trkpt lat="59.8976401" lon="17.5419275">
        <ele>9.75061</ele>
        <time>2013-04-21T12:08:31Z</time>
      </trkpt>
      <trkpt lat="59.8976068" lon="17.5418577">
        <ele>10.2312</ele>
        <time>2013-04-21T12:08:32Z</time>
      </trkpt>
      <trkpt lat="59.8975718" lon="17.5417852">
        <ele>10.2312</ele>
        <time>2013-04-21T12:08:33Z</time>
      </trkpt>
      <trkpt lat="59.8975349" lon="17.5417143">
        <ele>10.2312</ele>
        <time>2013-04-21T12:08:34Z</time>
      </trkpt>
      <trkpt lat="59.8974977" lon="17.5416465">
        <ele>10.7118</ele>
        <time>2013-04-21T12:08:35Z</time>
      </trkpt>
      <trkpt lat="59.8974587" lon="17.5415803">
        <ele>10.7118</ele>
        <time>2013-04-21T12:08:36Z</time>
      </trkpt>
      <trkpt lat="59.897418" lon="17.541516">
        <ele>10.7118</ele>
        <time>2013-04-21T12:08:37Z</time>
      </trkpt>
      <trkpt lat="59.8973757" lon="17.5414556">
        <ele>11.1925</ele>
        <time>2013-04-21T12:08:38Z</time>
      </trkpt>
      <trkpt lat="59.8973325" lon="17.5413963">
        <ele>11.1925</ele>
        <time>2013-04-21T12:08:39Z</time>
      </trkpt>
      <trkpt lat="59.8972888" lon="17.5413384">
        <ele>11.1925</ele>
        <time>2013-04-21T12:08:40Z</time>
      </trkpt>
      <trkpt lat="59.8972429" lon="17.5412852">
        <ele>11.1925</ele>
        <time>2013-04-21T12:08:41Z</time>
      </trkpt>
      <trkpt lat="59.8971962" lon="17.5412355">
        <ele>11.6732</ele>
        <time>2013-04-21T12:08:42Z</time>
      </trkpt>
      <trkpt lat="59.8971484" lon="17.5411896">
        <ele>11.6732</ele>
        <time>2013-04-21T12:08:43Z</time>
      </trkpt>
      <trkpt lat="59.8970993" lon="17.5411481">
        <ele>12.1538</ele>
        <time>2013-04-21T12:08:44Z</time>
      </trkpt>
      <trkpt lat="59.8970484" lon="17.5411119">
        <ele>12.1538</ele>
        <time>2013-04-21T12:08:45Z</time>
      </trkpt>
      <trkpt lat="59.8969963" lon="17.5410803">
        <ele>12.1538</ele>
        <time>2013-04-21T12:08:46Z</time>
      </trkpt>
      <trkpt lat="59.8969434" lon="17.5410542">
        <ele>12.6344</ele>
        <time>2013-04-21T12:08:47Z</time>
      </trkpt>
      <trkpt lat="59.8968889" lon="17.5410366">
        <ele>12.6344</ele>
        <time>2013-04-21T12:08:48Z</time>
      </trkpt>
      <trkpt lat="59.8968341" lon="17.5410264">
        <ele>12.6344</ele>
        <time>2013-04-21T12:08:49Z</time>
      </trkpt>
      <trkpt lat="59.8967792" lon="17.5410221">
        <ele>12.6344</ele>
        <time>2013-04-21T12:08:50Z</time>
      </trkpt>
      <trkpt lat="59.8967228" lon="17.5410288">
        <ele>13.1151</ele>
        <time>2013-04-21T12:08:51Z</time>
      </trkpt>
      <trkpt lat="59.8966671" lon="17.5410456">
        <ele>13.1151</ele>
        <time>2013-04-21T12:08:52Z</time>
      </trkpt>
      <trkpt lat="59.8966134" lon="17.541071">
        <ele>13.5958</ele>
        <time>2013-04-21T12:08:53Z</time>
      </trkpt>
      <trkpt lat="59.8965616" lon="17.5411077">
        <ele>13.5958</ele>
        <time>2013-04-21T12:08:54Z</time>
      </trkpt>
      <trkpt lat="59.8965115" lon="17.5411513">
        <ele>13.5958</ele>
        <time>2013-04-21T12:08:55Z</time>
      </trkpt>
      <trkpt lat="59.8964627" lon="17.5412006">
        <ele>13.5958</ele>
        <time>2013-04-21T12:08:56Z</time>
      </trkpt>
      <trkpt lat="59.8964155" lon="17.5412599">
        <ele>13.5958</ele>
        <time>2013-04-21T12:08:57Z</time>
      </trkpt>
      <trkpt lat="59.8963701" lon="17.5413289">
        <ele>13.5958</ele>
        <time>2013-04-21T12:08:58Z</time>
      </trkpt>
      <trkpt lat="59.8963257" lon="17.5414024">
        <ele>13.5958</ele>
        <time>2013-04-21T12:08:59Z</time>
      </trkpt>
      <trkpt lat="59.8962806" lon="17.5414779">
        <ele>14.0764</ele>
        <time>2013-04-21T12:09:00Z</time>
      </trkpt>
      <trkpt lat="59.8962351" lon="17.5415562">
        <ele>14.0764</ele>
        <time>2013-04-21T12:09:01Z</time>
      </trkpt>
      <trkpt lat="59.8961907" lon="17.5416382">
        <ele>14.0764</ele>
        <time>2013-04-21T12:09:02Z</time>
      </trkpt>
      <trkpt lat="59.8961468" lon="17.5417211">
        <ele>14.0764</ele>
        <time>2013-04-21T12:09:03Z</time>
      </trkpt>
      <trkpt lat="59.8961036" lon="17.541805">
        <ele>14.557</ele>
        <time>2013-04-21T12:09:04Z</time>
      </trkpt>
      <trkpt lat="59.8960598" lon="17.541889">
        <ele>14.557</ele>
        <time>2013-04-21T12:09:05Z</time>
      </trkpt>
      <trkpt lat="59.8960145" lon="17.5419719">
        <ele>14.557</ele>
        <time>2013-04-21T12:09:06Z</time>
      </trkpt>
      <trkpt lat="59.8959674" lon="17.5420532">
        <ele>14.557</ele>
        <time>2013-04-21T12:09:07Z</time>
      </trkpt>
      <trkpt lat="59.8959212" lon="17.5421343">
        <ele>15.0377</ele>
        <time>2013-04-21T12:09:08Z</time>
      </trkpt>
      <trkpt lat="59.8958758" lon="17.5422168">
        <ele>15.0377</ele>
        <time>2013-04-21T12:09:09Z</time>
      </trkpt>
      <trkpt lat="59.8958297" lon="17.5423002">
        <ele>15.0377</ele>
        <time>2013-04-21T12:09:10Z</time>
      </trkpt>
      <trkpt lat="59.8957815" lon="17.542379">
        <ele>15.0377</ele>
        <time>2013-04-21T12:09:11Z</time>
      </trkpt>
      <trkpt lat="59.8957319" lon="17.5424503">
        <ele>15.0377</ele>
        <time>2013-04-21T12:09:12Z</time>
      </trkpt>
      <trkpt lat="59.8956803" lon="17.542512">
        <ele>15.0377</ele>
        <time>2013-04-21T12:09:13Z</time>
      </trkpt>
      <trkpt lat="59.8956248" lon="17.5425538">
        <ele>15.0377</ele>
        <time>2013-04-21T12:09:14Z</time>
      </trkpt>
      <trkpt lat="59.8955655" lon="17.5425627">
        <ele>15.0377</ele>
        <time>2013-04-21T12:09:15Z</time>
      </trkpt>
      <trkpt lat="59.8955079" lon="17.5425378">
        <ele>15.0377</ele>
        <time>2013-04-21T12:09:16Z</time>
      </trkpt>
      <trkpt lat="59.8954546" lon="17.5424917">
        <ele>15.0377</ele>
        <time>2013-04-21T12:09:17Z</time>
      </trkpt>
      <trkpt lat="59.8954049" lon="17.5424364">
        <ele>15.5184</ele>
        <time>2013-04-21T12:09:18Z</time>
      </trkpt>
      <trkpt lat="59.8953592" lon="17.5423758">
        <ele>15.5184</ele>
        <time>2013-04-21T12:09:19Z</time>
      </trkpt>
      <trkpt lat="59.8953153" lon="17.5423159">
        <ele>15.5184</ele>
        <time>2013-04-21T12:09:20Z</time>
      </trkpt>
      <trkpt lat="59.8952737" lon="17.5422568">
        <ele>15.5184</ele>
        <time>2013-04-21T12:09:21Z</time>
      </trkpt>
      <trkpt lat="59.8952323" lon="17.5422001">
        <ele>15.999</ele>
        <time>2013-04-21T12:09:22Z</time>
      </trkpt>
      <trkpt lat="59.8951907" lon="17.5421464">
        <ele>15.999</ele>
        <time>2013-04-21T12:09:23Z</time>
      </trkpt>
      <trkpt lat="59.8951485" lon="17.5420956">
        <ele>15.999</ele>
        <time>2013-04-21T12:09:24Z</time>
      </trkpt>
      <trkpt lat="59.895105" lon="17.5420485">
        <ele>15.999</ele>
        <time>2013-04-21T12:09:25Z</time>
      </trkpt>
      <trkpt lat="59.8950619" lon="17.5420025">
        <ele>16.4797</ele>
        <time>2013-04-21T12:09:26Z</time>
      </trkpt>
      <trkpt lat="59.8950188" lon="17.5419576">
        <ele>16.4797</ele>
        <time>2013-04-21T12:09:27Z</time>
      </trkpt>
      <trkpt lat="59.8949754" lon="17.5419154">
        <ele>16.4797</ele>
        <time>2013-04-21T12:09:28Z</time>
      </trkpt>
      <trkpt lat="59.8949312" lon="17.5418753">
        <ele>16.9604</ele>
        <time>2013-04-21T12:09:29Z</time>
      </trkpt>
      <trkpt lat="59.8948859" lon="17.5418376">
        <ele>16.9604</ele>
        <time>2013-04-21T12:09:30Z</time>
      </trkpt>
      <trkpt lat="59.8948398" lon="17.5418014">
        <ele>17.4412</ele>
        <time>2013-04-21T12:09:31Z</time>
      </trkpt>
      <trkpt lat="59.8947929" lon="17.5417682">
        <ele>17.4412</ele>
        <time>2013-04-21T12:09:32Z</time>
      </trkpt>
      <trkpt lat="59.8947458" lon="17.541738">
        <ele>17.4412</ele>
        <time>2013-04-21T12:09:33Z</time>
      </trkpt>
      <trkpt lat="59.8946976" lon="17.5417121">
        <ele>17.9218</ele>
        <time>2013-04-21T12:09:34Z</time>
      </trkpt>
      <trkpt lat="59.8946494" lon="17.5416934">
        <ele>18.4023</ele>
        <time>2013-04-21T12:09:35Z</time>
      </trkpt>
      <trkpt lat="59.8946025" lon="17.5416765">
        <ele>18.4023</ele>
        <time>2013-04-21T12:09:36Z</time>
      </trkpt>
      <trkpt lat="59.8945565" lon="17.5416587">
        <ele>18.4023</ele>
        <time>2013-04-21T12:09:37Z</time>
      </trkpt>
      <trkpt lat="59.8945096" lon="17.5416465">
        <ele>18.8831</ele>
        <time>2013-04-21T12:09:38Z</time>
      </trkpt>
      <trkpt lat="59.8944615" lon="17.5416366">
        <ele>19.3638</ele>
        <time>2013-04-21T12:09:39Z</time>
      </trkpt>
      <trkpt lat="59.8944123" lon="17.5416281">
        <ele>19.3638</ele>
        <time>2013-04-21T12:09:40Z</time>
      </trkpt>
      <trkpt lat="59.8943625" lon="17.5416215">
        <ele>19.3638</ele>
        <time>2013-04-21T12:09:41Z</time>
      </trkpt>
      <trkpt lat="59.8943127" lon="17.5416154">
        <ele>19.8444</ele>
        <time>2013-04-21T12:09:42Z</time>
      </trkpt>
      <trkpt lat="59.8942637" lon="17.5416083">
        <ele>19.8444</ele>
        <time>2013-04-21T12:09:43Z</time>
      </trkpt>
      <trkpt lat="59.8942144" lon="17.5416014">
        <ele>20.325</ele>
        <time>2013-04-21T12:09:44Z</time>
      </trkpt>
      <trkpt lat="59.8941648" lon="17.5415939">
        <ele>20.325</ele>
        <time>2013-04-21T12:09:45Z</time>
      </trkpt>
      <trkpt lat="59.8941146" lon="17.5415843">
        <ele>20.325</ele>
        <time>2013-04-21T12:09:46Z</time>
      </trkpt>
      <trkpt lat="59.8940641" lon="17.5415739">
        <ele>20.325</ele>
        <time>2013-04-21T12:09:47Z</time>
      </trkpt>
      <trkpt lat="59.8940124" lon="17.5415636">
        <ele>20.325</ele>
        <time>2013-04-21T12:09:48Z</time>
      </trkpt>
      <trkpt lat="59.8939596" lon="17.5415544">
        <ele>20.325</ele>
        <time>2013-04-21T12:09:49Z</time>
      </trkpt>
      <trkpt lat="59.8939063" lon="17.5415449">
        <ele>20.325</ele>
        <time>2013-04-21T12:09:50Z</time>
      </trkpt>
      <trkpt lat="59.8938527" lon="17.5415354">
        <ele>20.8057</ele>
        <time>2013-04-21T12:09:51Z</time>
      </trkpt>
      <trkpt lat="59.8937994" lon="17.5415253">
        <ele>20.8057</ele>
        <time>2013-04-21T12:09:52Z</time>
      </trkpt>
      <trkpt lat="59.8937456" lon="17.5415142">
        <ele>20.8057</ele>
        <time>2013-04-21T12:09:53Z</time>
      </trkpt>
      <trkpt lat="59.8936924" lon="17.5415021">
        <ele>20.8057</ele>
        <time>2013-04-21T12:09:54Z</time>
      </trkpt>
      <trkpt lat="59.8936391" lon="17.5414903">
        <ele>21.2864</ele>
        <time>2013-04-21T12:09:55Z</time>
      </trkpt>
      <trkpt lat="59.8935856" lon="17.5414776">
        <ele>21.2864</ele>
        <time>2013-04-21T12:09:56Z</time>
      </trkpt>
      <trkpt lat="59.8935324" lon="17.5414657">
        <ele>21.2864</ele>
        <time>2013-04-21T12:09:57Z</time>
      </trkpt>
      <trkpt lat="59.8934805" lon="17.5414527">
        <ele>21.767</ele>
        <time>2013-04-21T12:09:58Z</time>
      </trkpt>
      <trkpt lat="59.8934287" lon="17.5414394">
        <ele>21.767</ele>
        <time>2013-04-21T12:09:59Z</time>
      </trkpt>
      <trkpt lat="59.8933769" lon="17.5414284">
        <ele>21.767</ele>
        <time>2013-04-21T12:10:00Z</time>
      </trkpt>
      <trkpt lat="59.893325" lon="17.5414168">
        <ele>22.2476</ele>
        <time>2013-04-21T12:10:01Z</time>
      </trkpt>
      <trkpt lat="59.8932736" lon="17.5414034">
        <ele>22.2476</ele>
        <time>2013-04-21T12:10:02Z</time>
      </trkpt>
      <trkpt lat="59.8932224" lon="17.5413916">
        <ele>22.2476</ele>
        <time>2013-04-21T12:10:03Z</time>
      </trkpt>
      <trkpt lat="59.8931702" lon="17.5413801">
        <ele>22.2476</ele>
        <time>2013-04-21T12:10:04Z</time>
      </trkpt>
      <trkpt lat="59.8931178" lon="17.5413683">
        <ele>22.7283</ele>
        <time>2013-04-21T12:10:05Z</time>
      </trkpt>
      <trkpt lat="59.8930643" lon="17.5413532">
        <ele>22.7283</ele>
        <time>2013-04-21T12:10:06Z</time>
      </trkpt>
      <trkpt lat="59.8930117" lon="17.5413336">
        <ele>22.7283</ele>
        <time>2013-04-21T12:10:07Z</time>
      </trkpt>
      <trkpt lat="59.8929595" lon="17.5413092">
        <ele>22.7283</ele>
        <time>2013-04-21T12:10:08Z</time>
      </trkpt>
      <trkpt lat="59.8929065" lon="17.5412839">
        <ele>23.209</ele>
        <time>2013-04-21T12:10:09Z</time>
      </trkpt>
      <trkpt lat="59.8928525" lon="17.54126">
        <ele>23.209</ele>
        <time>2013-04-21T12:10:10Z</time>
      </trkpt>
      <trkpt lat="59.8927989" lon="17.5412337">
        <ele>23.209</ele>
        <time>2013-04-21T12:10:11Z</time>
      </trkpt>
      <trkpt lat="59.8927468" lon="17.5412066">
        <ele>23.6896</ele>
        <time>2013-04-21T12:10:12Z</time>
      </trkpt>
      <trkpt lat="59.8926936" lon="17.5411809">
        <ele>23.6896</ele>
        <time>2013-04-21T12:10:13Z</time>
      </trkpt>
      <trkpt lat="59.8926417" lon="17.5411543">
        <ele>24.1703</ele>
        <time>2013-04-21T12:10:14Z</time>
      </trkpt>
      <trkpt lat="59.8925929" lon="17.541126">
        <ele>24.1703</ele>
        <time>2013-04-21T12:10:15Z</time>
      </trkpt>
      <trkpt lat="59.8925461" lon="17.5410982">
        <ele>24.1703</ele>
        <time>2013-04-21T12:10:16Z</time>
      </trkpt>
      <trkpt lat="59.8925014" lon="17.5410723">
        <ele>24.1703</ele>
        <time>2013-04-21T12:10:17Z</time>
      </trkpt>
      <trkpt lat="59.8924584" lon="17.541047">
        <ele>24.651</ele>
        <time>2013-04-21T12:10:18Z</time>
      </trkpt>
      <trkpt lat="59.8924163" lon="17.5410217">
        <ele>24.651</ele>
        <time>2013-04-21T12:10:19Z</time>
      </trkpt>
      <trkpt lat="59.8923745" lon="17.5410008">
        <ele>24.651</ele>
        <time>2013-04-21T12:10:20Z</time>
      </trkpt>
      <trkpt lat="59.8923334" lon="17.5409808">
        <ele>24.651</ele>
        <time>2013-04-21T12:10:21Z</time>
      </trkpt>
      <trkpt lat="59.8922922" lon="17.5409594">
        <ele>25.1317</ele>
        <time>2013-04-21T12:10:22Z</time>
      </trkpt>
      <trkpt lat="59.8922508" lon="17.5409358">
        <ele>25.1317</ele>
        <time>2013-04-21T12:10:23Z</time>
      </trkpt>
      <trkpt lat="59.8922086" lon="17.5409113">
        <ele>25.1317</ele>
        <time>2013-04-21T12:10:24Z</time>
      </trkpt>
      <trkpt lat="59.8921643" lon="17.5408867">
        <ele>25.1317</ele>
        <time>2013-04-21T12:10:25Z</time>
      </trkpt>
      <trkpt lat="59.8921198" lon="17.5408634">
        <ele>25.1317</ele>
        <time>2013-04-21T12:10:26Z</time>
      </trkpt>
      <trkpt lat="59.8920765" lon="17.5408374">
        <ele>25.1317</ele>
        <time>2013-04-21T12:10:27Z</time>
      </trkpt>
      <trkpt lat="59.8920337" lon="17.5408104">
        <ele>24.651</ele>
        <time>2013-04-21T12:10:28Z</time>
      </trkpt>
      <trkpt lat="59.8919922" lon="17.5407836">
        <ele>24.651</ele>
        <time>2013-04-21T12:10:29Z</time>
      </trkpt>
      <trkpt lat="59.8919512" lon="17.5407594">
        <ele>24.651</ele>
        <time>2013-04-21T12:10:30Z</time>
      </trkpt>
      <trkpt lat="59.8919099" lon="17.5407336">
        <ele>25.1317</ele>
        <time>2013-04-21T12:10:31Z</time>
      </trkpt>
      <trkpt lat="59.8918689" lon="17.5407089">
        <ele>25.1317</ele>
        <time>2013-04-21T12:10:32Z</time>
      </trkpt>
      <trkpt lat="59.8918274" lon="17.5406808">
        <ele>25.1317</ele>
        <time>2013-04-21T12:10:33Z</time>
      </trkpt>
      <trkpt lat="59.8917862" lon="17.5406541">
        <ele>25.6123</ele>
        <time>2013-04-21T12:10:34Z</time>
      </trkpt>
      <trkpt lat="59.8917451" lon="17.5406286">
        <ele>25.6123</ele>
        <time>2013-04-21T12:10:35Z</time>
      </trkpt>
      <trkpt lat="59.8917037" lon="17.5406021">
        <ele>25.6123</ele>
        <time>2013-04-21T12:10:36Z</time>
      </trkpt>
      <trkpt lat="59.8916624" lon="17.5405794">
        <ele>25.6123</ele>
        <time>2013-04-21T12:10:37Z</time>
      </trkpt>
      <trkpt lat="59.8916202" lon="17.5405566">
        <ele>25.6123</ele>
        <time>2013-04-21T12:10:38Z</time>
      </trkpt>
      <trkpt lat="59.8915764" lon="17.5405313">
        <ele>26.0929</ele>
        <time>2013-04-21T12:10:39Z</time>
      </trkpt>
      <trkpt lat="59.8915341" lon="17.540511">
        <ele>26.0929</ele>
        <time>2013-04-21T12:10:40Z</time>
      </trkpt>
      <trkpt lat="59.8914913" lon="17.5404934">
        <ele>26.0929</ele>
        <time>2013-04-21T12:10:41Z</time>
      </trkpt>
      <trkpt lat="59.8914479" lon="17.5404779">
        <ele>26.0929</ele>
        <time>2013-04-21T12:10:42Z</time>
      </trkpt>
      <trkpt lat="59.8914049" lon="17.5404603">
        <ele>26.0929</ele>
        <time>2013-04-21T12:10:43Z</time>
      </trkpt>
      <trkpt lat="59.8913618" lon="17.5404381">
        <ele>26.0929</ele>
        <time>2013-04-21T12:10:44Z</time>
      </trkpt>
      <trkpt lat="59.8913183" lon="17.5404177">
        <ele>26.0929</ele>
        <time>2013-04-21T12:10:45Z</time>
      </trkpt>
      <trkpt lat="59.8912748" lon="17.5403996">
        <ele>26.0929</ele>
        <time>2013-04-21T12:10:46Z</time>
      </trkpt>
      <trkpt lat="59.8912311" lon="17.5403828">
        <ele>26.5736</ele>
        <time>2013-04-21T12:10:47Z</time>
      </trkpt>
      <trkpt lat="59.8911883" lon="17.5403676">
        <ele>26.5736</ele>
        <time>2013-04-21T12:10:48Z</time>
      </trkpt>
      <trkpt lat="59.8911463" lon="17.5403521">
        <ele>26.0929</ele>
        <time>2013-04-21T12:10:49Z</time>
      </trkpt>
      <trkpt lat="59.8911037" lon="17.5403336">
        <ele>26.0929</ele>
        <time>2013-04-21T12:10:50Z</time>
      </trkpt>
      <trkpt lat="59.8910594" lon="17.5403121">
        <ele>26.0929</ele>
        <time>2013-04-21T12:10:51Z</time>
      </trkpt>
      <trkpt lat="59.8910148" lon="17.5402922">
        <ele>26.0929</ele>
        <time>2013-04-21T12:10:52Z</time>
      </trkpt>
      <trkpt lat="59.8909698" lon="17.5402759">
        <ele>25.6123</ele>
        <time>2013-04-21T12:10:53Z</time>
      </trkpt>
      <trkpt lat="59.8909246" lon="17.5402592">
        <ele>25.6123</ele>
        <time>2013-04-21T12:10:54Z</time>
      </trkpt>
      <trkpt lat="59.8908795" lon="17.5402404">
        <ele>25.6123</ele>
        <time>2013-04-21T12:10:55Z</time>
      </trkpt>
      <trkpt lat="59.8908345" lon="17.5402256">
        <ele>25.6123</ele>
        <time>2013-04-21T12:10:56Z</time>
      </trkpt>
      <trkpt lat="59.89079" lon="17.5402143">
        <ele>25.6123</ele>
        <time>2013-04-21T12:10:57Z</time>
      </trkpt>
      <trkpt lat="59.8907457" lon="17.5402031">
        <ele>25.6123</ele>
        <time>2013-04-21T12:10:58Z</time>
      </trkpt>
      <trkpt lat="59.8906999" lon="17.5401924">
        <ele>26.0929</ele>
        <time>2013-04-21T12:10:59Z</time>
      </trkpt>
      <trkpt lat="59.890653" lon="17.5401851">
        <ele>26.0929</ele>
        <time>2013-04-21T12:11:00Z</time>
      </trkpt>
      <trkpt lat="59.8906055" lon="17.5401796">
        <ele>26.0929</ele>
        <time>2013-04-21T12:11:01Z</time>
      </trkpt>
      <trkpt lat="59.890558" lon="17.5401717">
        <ele>26.5736</ele>
        <time>2013-04-21T12:11:02Z</time>
      </trkpt>
      <trkpt lat="59.8905107" lon="17.540162">
        <ele>26.5736</ele>
        <time>2013-04-21T12:11:03Z</time>
      </trkpt>
      <trkpt lat="59.8904634" lon="17.5401526">
        <ele>27.0543</ele>
        <time>2013-04-21T12:11:04Z</time>
      </trkpt>
      <trkpt lat="59.8904142" lon="17.5401422">
        <ele>27.0543</ele>
        <time>2013-04-21T12:11:05Z</time>
      </trkpt>
      <trkpt lat="59.8903656" lon="17.5401292">
        <ele>27.5349</ele>
        <time>2013-04-21T12:11:06Z</time>
      </trkpt>
      <trkpt lat="59.8903144" lon="17.5401155">
        <ele>27.5349</ele>
        <time>2013-04-21T12:11:07Z</time>
      </trkpt>
      <trkpt lat="59.8902641" lon="17.5400996">
        <ele>28.0155</ele>
        <time>2013-04-21T12:11:08Z</time>
      </trkpt>
      <trkpt lat="59.8902137" lon="17.5400814">
        <ele>28.4962</ele>
        <time>2013-04-21T12:11:09Z</time>
      </trkpt>
      <trkpt lat="59.8901625" lon="17.5400617">
        <ele>28.4962</ele>
        <time>2013-04-21T12:11:10Z</time>
      </trkpt>
      <trkpt lat="59.8901111" lon="17.5400413">
        <ele>28.9769</ele>
        <time>2013-04-21T12:11:11Z</time>
      </trkpt>
      <trkpt lat="59.8900601" lon="17.5400184">
        <ele>28.9769</ele>
        <time>2013-04-21T12:11:12Z</time>
      </trkpt>
      <trkpt lat="59.8900092" lon="17.5399928">
        <ele>29.4575</ele>
        <time>2013-04-21T12:11:13Z</time>
      </trkpt>
      <trkpt lat="59.889959" lon="17.5399646">
        <ele>29.4575</ele>
        <time>2013-04-21T12:11:14Z</time>
      </trkpt>
      <trkpt lat="59.8899093" lon="17.5399332">
        <ele>29.4575</ele>
        <time>2013-04-21T12:11:15Z</time>
      </trkpt>
      <trkpt lat="59.8898599" lon="17.5399004">
        <ele>29.4575</ele>
        <time>2013-04-21T12:11:16Z</time>
      </trkpt>
      <trkpt lat="59.8898099" lon="17.5398697">
        <ele>29.4575</ele>
        <time>2013-04-21T12:11:17Z</time>
      </trkpt>
      <trkpt lat="59.8897599" lon="17.5398411">
        <ele>29.4575</ele>
        <time>2013-04-21T12:11:18Z</time>
      </trkpt>
      <trkpt lat="59.8897104" lon="17.5398112">
        <ele>29.4575</ele>
        <time>2013-04-21T12:11:19Z</time>
      </trkpt>
      <trkpt lat="59.8896607" lon="17.539779">
        <ele>29.4575</ele>
        <time>2013-04-21T12:11:20Z</time>
      </trkpt>
      <trkpt lat="59.8896108" lon="17.5397476">
        <ele>29.4575</ele>
        <time>2013-04-21T12:11:21Z</time>
      </trkpt>
      <trkpt lat="59.8895616" lon="17.5397153">
        <ele>29.9381</ele>
        <time>2013-04-21T12:11:22Z</time>
      </trkpt>
      <trkpt lat="59.8895125" lon="17.5396827">
        <ele>29.9381</ele>
        <time>2013-04-21T12:11:23Z</time>
      </trkpt>
      <trkpt lat="59.8894637" lon="17.5396501">
        <ele>29.9381</ele>
        <time>2013-04-21T12:11:24Z</time>
      </trkpt>
      <trkpt lat="59.8894153" lon="17.5396155">
        <ele>29.9381</ele>
        <time>2013-04-21T12:11:25Z</time>
      </trkpt>
      <trkpt lat="59.8893668" lon="17.5395815">
        <ele>29.9381</ele>
        <time>2013-04-21T12:11:26Z</time>
      </trkpt>
      <trkpt lat="59.8893186" lon="17.5395464">
        <ele>29.9381</ele>
        <time>2013-04-21T12:11:27Z</time>
      </trkpt>
      <trkpt lat="59.8892709" lon="17.5395098">
        <ele>29.9381</ele>
        <time>2013-04-21T12:11:28Z</time>
      </trkpt>
      <trkpt lat="59.889223" lon="17.5394734">
        <ele>29.9381</ele>
        <time>2013-04-21T12:11:29Z</time>
      </trkpt>
      <trkpt lat="59.8891749" lon="17.5394377">
        <ele>30.4188</ele>
        <time>2013-04-21T12:11:30Z</time>
      </trkpt>
      <trkpt lat="59.8891271" lon="17.5394025">
        <ele>30.4188</ele>
        <time>2013-04-21T12:11:31Z</time>
      </trkpt>
      <trkpt lat="59.8890799" lon="17.5393657">
        <ele>30.4188</ele>
        <time>2013-04-21T12:11:32Z</time>
      </trkpt>
      <trkpt lat="59.889033" lon="17.5393247">
        <ele>30.4188</ele>
        <time>2013-04-21T12:11:33Z</time>
      </trkpt>
      <trkpt lat="59.8889857" lon="17.5392834">
        <ele>30.4188</ele>
        <time>2013-04-21T12:11:34Z</time>
      </trkpt>
      <trkpt lat="59.8889376" lon="17.5392422">
        <ele>30.8995</ele>
        <time>2013-04-21T12:11:35Z</time>
      </trkpt>
      <trkpt lat="59.8888897" lon="17.5391988">
        <ele>30.8995</ele>
        <time>2013-04-21T12:11:36Z</time>
      </trkpt>
      <trkpt lat="59.8888418" lon="17.5391541">
        <ele>30.8995</ele>
        <time>2013-04-21T12:11:37Z</time>
      </trkpt>
      <trkpt lat="59.8887945" lon="17.5391072">
        <ele>30.8995</ele>
        <time>2013-04-21T12:11:38Z</time>
      </trkpt>
      <trkpt lat="59.8887473" lon="17.5390586">
        <ele>30.8995</ele>
        <time>2013-04-21T12:11:39Z</time>
      </trkpt>
      <trkpt lat="59.8887008" lon="17.5390094">
        <ele>30.8995</ele>
        <time>2013-04-21T12:11:40Z</time>
      </trkpt>
      <trkpt lat="59.8886545" lon="17.5389616">
        <ele>30.8995</ele>
        <time>2013-04-21T12:11:41Z</time>
      </trkpt>
      <trkpt lat="59.8886096" lon="17.5389141">
        <ele>30.8995</ele>
        <time>2013-04-21T12:11:42Z</time>
      </trkpt>
      <trkpt lat="59.8885656" lon="17.5388658">
        <ele>30.8995</ele>
        <time>2013-04-21T12:11:43Z</time>
      </trkpt>
      <trkpt lat="59.8885211" lon="17.5388195">
        <ele>30.8995</ele>
        <time>2013-04-21T12:11:44Z</time>
      </trkpt>
      <trkpt lat="59.8884775" lon="17.5387736">
        <ele>30.8995</ele>
        <time>2013-04-21T12:11:45Z</time>
      </trkpt>
      <trkpt lat="59.8884356" lon="17.5387257">
        <ele>30.8995</ele>
        <time>2013-04-21T12:11:46Z</time>
      </trkpt>
      <trkpt lat="59.8883931" lon="17.5386778">
        <ele>30.4188</ele>
        <time>2013-04-21T12:11:47Z</time>
      </trkpt>
      <trkpt lat="59.888349" lon="17.5386299">
        <ele>30.4188</ele>
        <time>2013-04-21T12:11:48Z</time>
      </trkpt>
      <trkpt lat="59.8883039" lon="17.5385804">
        <ele>30.8995</ele>
        <time>2013-04-21T12:11:49Z</time>
      </trkpt>
      <trkpt lat="59.8882587" lon="17.5385305">
        <ele>30.4188</ele>
        <time>2013-04-21T12:11:50Z</time>
      </trkpt>
      <trkpt lat="59.8882133" lon="17.5384804">
        <ele>30.8995</ele>
        <time>2013-04-21T12:11:51Z</time>
      </trkpt>
      <trkpt lat="59.8881676" lon="17.5384307">
        <ele>30.8995</ele>
        <time>2013-04-21T12:11:52Z</time>
      </trkpt>
      <trkpt lat="59.8881223" lon="17.5383813">
        <ele>30.8995</ele>
        <time>2013-04-21T12:11:53Z</time>
      </trkpt>
      <trkpt lat="59.8880777" lon="17.53833">
        <ele>30.8995</ele>
        <time>2013-04-21T12:11:54Z</time>
      </trkpt>
      <trkpt lat="59.8880331" lon="17.5382778">
        <ele>30.8995</ele>
        <time>2013-04-21T12:11:55Z</time>
      </trkpt>
      <trkpt lat="59.887988" lon="17.5382259">
        <ele>30.8995</ele>
        <time>2013-04-21T12:11:56Z</time>
      </trkpt>
      <trkpt lat="59.887943" lon="17.5381744">
        <ele>30.8995</ele>
        <time>2013-04-21T12:11:57Z</time>
      </trkpt>
      <trkpt lat="59.8878979" lon="17.5381246">
        <ele>30.8995</ele>
        <time>2013-04-21T12:11:58Z</time>
      </trkpt>
      <trkpt lat="59.8878532" lon="17.5380749">
        <ele>30.8995</ele>
        <time>2013-04-21T12:11:59Z</time>
      </trkpt>
      <trkpt lat="59.8878089" lon="17.5380241">
        <ele>30.8995</ele>
        <time>2013-04-21T12:12:00Z</time>
      </trkpt>
      <trkpt lat="59.8877654" lon="17.5379722">
        <ele>30.8995</ele>
        <time>2013-04-21T12:12:01Z</time>
      </trkpt>
      <trkpt lat="59.8877219" lon="17.5379188">
        <ele>30.8995</ele>
        <time>2013-04-21T12:12:02Z</time>
      </trkpt>
      <trkpt lat="59.8876793" lon="17.5378655">
        <ele>30.8995</ele>
        <time>2013-04-21T12:12:03Z</time>
      </trkpt>
      <trkpt lat="59.8876379" lon="17.5378132">
        <ele>31.3801</ele>
        <time>2013-04-21T12:12:04Z</time>
      </trkpt>
      <trkpt lat="59.8875972" lon="17.5377619">
        <ele>31.3801</ele>
        <time>2013-04-21T12:12:05Z</time>
      </trkpt>
      <trkpt lat="59.8875564" lon="17.5377128">
        <ele>31.8607</ele>
        <time>2013-04-21T12:12:06Z</time>
      </trkpt>
      <trkpt lat="59.8875146" lon="17.5376661">
        <ele>32.3416</ele>
        <time>2013-04-21T12:12:07Z</time>
      </trkpt>
      <trkpt lat="59.8874724" lon="17.5376184">
        <ele>32.3416</ele>
        <time>2013-04-21T12:12:08Z</time>
      </trkpt>
      <trkpt lat="59.8874296" lon="17.5375706">
        <ele>32.3416</ele>
        <time>2013-04-21T12:12:09Z</time>
      </trkpt>
      <trkpt lat="59.8873846" lon="17.5375237">
        <ele>32.8223</ele>
        <time>2013-04-21T12:12:10Z</time>
      </trkpt>
      <trkpt lat="59.8873405" lon="17.5374759">
        <ele>32.8223</ele>
        <time>2013-04-21T12:12:11Z</time>
      </trkpt>
      <trkpt lat="59.8872987" lon="17.5374242">
        <ele>32.8223</ele>
        <time>2013-04-21T12:12:12Z</time>
      </trkpt>
      <trkpt lat="59.8872576" lon="17.537374">
        <ele>32.8223</ele>
        <time>2013-04-21T12:12:13Z</time>
      </trkpt>
      <trkpt lat="59.8872166" lon="17.5373272">
        <ele>32.8223</ele>
        <time>2013-04-21T12:12:14Z</time>
      </trkpt>
      <trkpt lat="59.8871757" lon="17.5372828">
        <ele>32.8223</ele>
        <time>2013-04-21T12:12:15Z</time>
      </trkpt>
      <trkpt lat="59.8871355" lon="17.5372387">
        <ele>33.3029</ele>
        <time>2013-04-21T12:12:16Z</time>
      </trkpt>
      <trkpt lat="59.8870956" lon="17.5371936">
        <ele>33.3029</ele>
        <time>2013-04-21T12:12:17Z</time>
      </trkpt>
      <trkpt lat="59.8870551" lon="17.5371494">
        <ele>33.3029</ele>
        <time>2013-04-21T12:12:18Z</time>
      </trkpt>
      <trkpt lat="59.8870142" lon="17.5371046">
        <ele>33.3029</ele>
        <time>2013-04-21T12:12:19Z</time>
      </trkpt>
      <trkpt lat="59.8869732" lon="17.5370577">
        <ele>33.3029</ele>
        <time>2013-04-21T12:12:20Z</time>
      </trkpt>
      <trkpt lat="59.8869328" lon="17.5370057">
        <ele>33.7834</ele>
        <time>2013-04-21T12:12:21Z</time>
      </trkpt>
      <trkpt lat="59.8868923" lon="17.5369518">
        <ele>33.7834</ele>
        <time>2013-04-21T12:12:22Z</time>
      </trkpt>
      <trkpt lat="59.8868505" lon="17.5369">
        <ele>33.7834</ele>
        <time>2013-04-21T12:12:23Z</time>
      </trkpt>
      <trkpt lat="59.8868071" lon="17.5368485">
        <ele>33.7834</ele>
        <time>2013-04-21T12:12:24Z</time>
      </trkpt>
      <trkpt lat="59.8867614" lon="17.5367989">
        <ele>33.7834</ele>
        <time>2013-04-21T12:12:25Z</time>
      </trkpt>
      <trkpt lat="59.8867138" lon="17.5367518">
        <ele>33.7834</ele>
        <time>2013-04-21T12:12:26Z</time>
      </trkpt>
      <trkpt lat="59.8866659" lon="17.5367027">
        <ele>33.7834</ele>
        <time>2013-04-21T12:12:27Z</time>
      </trkpt>
      <trkpt lat="59.8866167" lon="17.536656">
        <ele>33.7834</ele>
        <time>2013-04-21T12:12:28Z</time>
      </trkpt>
      <trkpt lat="59.8865664" lon="17.536613">
        <ele>33.7834</ele>
        <time>2013-04-21T12:12:29Z</time>
      </trkpt>
      <trkpt lat="59.8865158" lon="17.5365713">
        <ele>33.7834</ele>
        <time>2013-04-21T12:12:30Z</time>
      </trkpt>
      <trkpt lat="59.886465" lon="17.5365311">
        <ele>33.7834</ele>
        <time>2013-04-21T12:12:31Z</time>
      </trkpt>
      <trkpt lat="59.8864162" lon="17.5364903">
        <ele>33.7834</ele>
        <time>2013-04-21T12:12:32Z</time>
      </trkpt>
      <trkpt lat="59.886369" lon="17.5364491">
        <ele>33.7834</ele>
        <time>2013-04-21T12:12:33Z</time>
      </trkpt>
      <trkpt lat="59.8863209" lon="17.5364095">
        <ele>34.2642</ele>
        <time>2013-04-21T12:12:34Z</time>
      </trkpt>
      <trkpt lat="59.8862729" lon="17.5363706">
        <ele>34.2642</ele>
        <time>2013-04-21T12:12:35Z</time>
      </trkpt>
      <trkpt lat="59.8862246" lon="17.5363306">
        <ele>34.2642</ele>
        <time>2013-04-21T12:12:36Z</time>
      </trkpt>
      <trkpt lat="59.886176" lon="17.5362909">
        <ele>34.7449</ele>
        <time>2013-04-21T12:12:37Z</time>
      </trkpt>
      <trkpt lat="59.8861276" lon="17.5362527">
        <ele>34.7449</ele>
        <time>2013-04-21T12:12:38Z</time>
      </trkpt>
      <trkpt lat="59.8860792" lon="17.5362132">
        <ele>34.7449</ele>
        <time>2013-04-21T12:12:39Z</time>
      </trkpt>
      <trkpt lat="59.8860319" lon="17.5361711">
        <ele>34.7449</ele>
        <time>2013-04-21T12:12:40Z</time>
      </trkpt>
      <trkpt lat="59.8859844" lon="17.5361297">
        <ele>34.7449</ele>
        <time>2013-04-21T12:12:41Z</time>
      </trkpt>
      <trkpt lat="59.8859371" lon="17.5360898">
        <ele>34.7449</ele>
        <time>2013-04-21T12:12:42Z</time>
      </trkpt>
      <trkpt lat="59.8858901" lon="17.5360504">
        <ele>35.2255</ele>
        <time>2013-04-21T12:12:43Z</time>
      </trkpt>
      <trkpt lat="59.8858436" lon="17.5360108">
        <ele>35.2255</ele>
        <time>2013-04-21T12:12:44Z</time>
      </trkpt>
      <trkpt lat="59.8857979" lon="17.5359686">
        <ele>35.2255</ele>
        <time>2013-04-21T12:12:45Z</time>
      </trkpt>
      <trkpt lat="59.8857521" lon="17.5359262">
        <ele>35.2255</ele>
        <time>2013-04-21T12:12:46Z</time>
      </trkpt>
      <trkpt lat="59.8857061" lon="17.5358847">
        <ele>35.2255</ele>
        <time>2013-04-21T12:12:47Z</time>
      </trkpt>
      <trkpt lat="59.8856607" lon="17.5358417">
        <ele>35.2255</ele>
        <time>2013-04-21T12:12:48Z</time>
      </trkpt>
      <trkpt lat="59.8856156" lon="17.5357955">
        <ele>35.2255</ele>
        <time>2013-04-21T12:12:49Z</time>
      </trkpt>
      <trkpt lat="59.8855697" lon="17.5357489">
        <ele>35.2255</ele>
        <time>2013-04-21T12:12:50Z</time>
      </trkpt>
      <trkpt lat="59.8855232" lon="17.5357043">
        <ele>35.2255</ele>
        <time>2013-04-21T12:12:51Z</time>
      </trkpt>
      <trkpt lat="59.8854772" lon="17.5356563">
        <ele>35.2255</ele>
        <time>2013-04-21T12:12:52Z</time>
      </trkpt>
      <trkpt lat="59.8854311" lon="17.5356065">
        <ele>35.2255</ele>
        <time>2013-04-21T12:12:53Z</time>
      </trkpt>
      <trkpt lat="59.8853849" lon="17.5355557">
        <ele>35.2255</ele>
        <time>2013-04-21T12:12:54Z</time>
      </trkpt>
      <trkpt lat="59.8853383" lon="17.5355028">
        <ele>35.2255</ele>
        <time>2013-04-21T12:12:55Z</time>
      </trkpt>
      <trkpt lat="59.8852914" lon="17.5354489">
        <ele>35.2255</ele>
        <time>2013-04-21T12:12:56Z</time>
      </trkpt>
      <trkpt lat="59.8852452" lon="17.5353941">
        <ele>35.2255</ele>
        <time>2013-04-21T12:12:57Z</time>
      </trkpt>
      <trkpt lat="59.8851999" lon="17.5353382">
        <ele>35.2255</ele>
        <time>2013-04-21T12:12:58Z</time>
      </trkpt>
      <trkpt lat="59.8851553" lon="17.5352817">
        <ele>35.2255</ele>
        <time>2013-04-21T12:12:59Z</time>
      </trkpt>
      <trkpt lat="59.8851114" lon="17.5352245">
        <ele>35.2255</ele>
        <time>2013-04-21T12:13:00Z</time>
      </trkpt>
      <trkpt lat="59.885068" lon="17.5351657">
        <ele>35.2255</ele>
        <time>2013-04-21T12:13:01Z</time>
      </trkpt>
      <trkpt lat="59.8850253" lon="17.535106">
        <ele>35.2255</ele>
        <time>2013-04-21T12:13:02Z</time>
      </trkpt>
      <trkpt lat="59.8849825" lon="17.5350466">
        <ele>35.2255</ele>
        <time>2013-04-21T12:13:03Z</time>
      </trkpt>
      <trkpt lat="59.8849398" lon="17.534987">
        <ele>34.7449</ele>
        <time>2013-04-21T12:13:04Z</time>
      </trkpt>
      <trkpt lat="59.8848979" lon="17.5349269">
        <ele>34.7449</ele>
        <time>2013-04-21T12:13:05Z</time>
      </trkpt>
      <trkpt lat="59.884856" lon="17.5348668">
        <ele>34.2642</ele>
        <time>2013-04-21T12:13:06Z</time>
      </trkpt>
      <trkpt lat="59.8848119" lon="17.5348109">
        <ele>33.7834</ele>
        <time>2013-04-21T12:13:07Z</time>
      </trkpt>
      <trkpt lat="59.8847642" lon="17.534763">
        <ele>33.7834</ele>
        <time>2013-04-21T12:13:08Z</time>
      </trkpt>
      <trkpt lat="59.8847142" lon="17.5347207">
        <ele>33.3029</ele>
        <time>2013-04-21T12:13:09Z</time>
      </trkpt>
      <trkpt lat="59.8846629" lon="17.5346811">
        <ele>32.8223</ele>
        <time>2013-04-21T12:13:10Z</time>
      </trkpt>
      <trkpt lat="59.8846101" lon="17.5346433">
        <ele>32.8223</ele>
        <time>2013-04-21T12:13:11Z</time>
      </trkpt>
      <trkpt lat="59.8845573" lon="17.5346041">
        <ele>32.3416</ele>
        <time>2013-04-21T12:13:12Z</time>
      </trkpt>
      <trkpt lat="59.8845043" lon="17.5345644">
        <ele>31.8607</ele>
        <time>2013-04-21T12:13:13Z</time>
      </trkpt>
      <trkpt lat="59.8844505" lon="17.5345257">
        <ele>31.8607</ele>
        <time>2013-04-21T12:13:14Z</time>
      </trkpt>
      <trkpt lat="59.8843973" lon="17.5344865">
        <ele>31.3801</ele>
        <time>2013-04-21T12:13:15Z</time>
      </trkpt>
      <trkpt lat="59.884345" lon="17.5344483">
        <ele>30.8995</ele>
        <time>2013-04-21T12:13:16Z</time>
      </trkpt>
      <trkpt lat="59.884294" lon="17.5344117">
        <ele>30.8995</ele>
        <time>2013-04-21T12:13:17Z</time>
      </trkpt>
      <trkpt lat="59.8842432" lon="17.5343736">
        <ele>30.4188</ele>
        <time>2013-04-21T12:13:18Z</time>
      </trkpt>
      <trkpt lat="59.8841926" lon="17.5343346">
        <ele>30.4188</ele>
        <time>2013-04-21T12:13:19Z</time>
      </trkpt>
      <trkpt lat="59.8841416" lon="17.5342975">
        <ele>29.9381</ele>
        <time>2013-04-21T12:13:20Z</time>
      </trkpt>
      <trkpt lat="59.8840909" lon="17.5342617">
        <ele>29.9381</ele>
        <time>2013-04-21T12:13:21Z</time>
      </trkpt>
      <trkpt lat="59.8840406" lon="17.5342249">
        <ele>29.4575</ele>
        <time>2013-04-21T12:13:22Z</time>
      </trkpt>
      <trkpt lat="59.8839904" lon="17.5341882">
        <ele>29.4575</ele>
        <time>2013-04-21T12:13:23Z</time>
      </trkpt>
      <trkpt lat="59.8839404" lon="17.5341512">
        <ele>28.9769</ele>
        <time>2013-04-21T12:13:24Z</time>
      </trkpt>
      <trkpt lat="59.8838907" lon="17.5341125">
        <ele>28.9769</ele>
        <time>2013-04-21T12:13:25Z</time>
      </trkpt>
      <trkpt lat="59.8838402" lon="17.5340751">
        <ele>28.9769</ele>
        <time>2013-04-21T12:13:26Z</time>
      </trkpt>
      <trkpt lat="59.883789" lon="17.5340386">
        <ele>28.4962</ele>
        <time>2013-04-21T12:13:27Z</time>
      </trkpt>
      <trkpt lat="59.8837378" lon="17.5340017">
        <ele>28.9769</ele>
        <time>2013-04-21T12:13:28Z</time>
      </trkpt>
      <trkpt lat="59.8836871" lon="17.5339657">
        <ele>28.9769</ele>
        <time>2013-04-21T12:13:29Z</time>
      </trkpt>
      <trkpt lat="59.8836367" lon="17.5339285">
        <ele>28.9769</ele>
        <time>2013-04-21T12:13:30Z</time>
      </trkpt>
      <trkpt lat="59.8835855" lon="17.533892">
        <ele>28.9769</ele>
        <time>2013-04-21T12:13:31Z</time>
      </trkpt>
      <trkpt lat="59.8835341" lon="17.5338567">
        <ele>28.9769</ele>
        <time>2013-04-21T12:13:32Z</time>
      </trkpt>
      <trkpt lat="59.8834827" lon="17.5338192">
        <ele>28.9769</ele>
        <time>2013-04-21T12:13:33Z</time>
      </trkpt>
      <trkpt lat="59.8834306" lon="17.5337803">
        <ele>29.4575</ele>
        <time>2013-04-21T12:13:34Z</time>
      </trkpt>
      <trkpt lat="59.8833786" lon="17.533741">
        <ele>29.4575</ele>
        <time>2013-04-21T12:13:35Z</time>
      </trkpt>
      <trkpt lat="59.8833275" lon="17.5337026">
        <ele>29.4575</ele>
        <time>2013-04-21T12:13:36Z</time>
      </trkpt>
      <trkpt lat="59.8832762" lon="17.5336645">
        <ele>29.4575</ele>
        <time>2013-04-21T12:13:37Z</time>
      </trkpt>
      <trkpt lat="59.8832244" lon="17.5336261">
        <ele>29.4575</ele>
        <time>2013-04-21T12:13:38Z</time>
      </trkpt>
      <trkpt lat="59.8831722" lon="17.5335883">
        <ele>29.9381</ele>
        <time>2013-04-21T12:13:39Z</time>
      </trkpt>
      <trkpt lat="59.8831201" lon="17.5335506">
        <ele>29.9381</ele>
        <time>2013-04-21T12:13:40Z</time>
      </trkpt>
      <trkpt lat="59.883068" lon="17.5335111">
        <ele>29.9381</ele>
        <time>2013-04-21T12:13:41Z</time>
      </trkpt>
      <trkpt lat="59.8830156" lon="17.5334713">
        <ele>29.9381</ele>
        <time>2013-04-21T12:13:42Z</time>
      </trkpt>
      <trkpt lat="59.8829624" lon="17.5334319">
        <ele>29.9381</ele>
        <time>2013-04-21T12:13:43Z</time>
      </trkpt>
      <trkpt lat="59.8829085" lon="17.5333928">
        <ele>29.9381</ele>
        <time>2013-04-21T12:13:44Z</time>
      </trkpt>
      <trkpt lat="59.8828539" lon="17.5333541">
        <ele>29.9381</ele>
        <time>2013-04-21T12:13:45Z</time>
      </trkpt>
      <trkpt lat="59.8827994" lon="17.5333134">
        <ele>29.9381</ele>
        <time>2013-04-21T12:13:46Z</time>
      </trkpt>
      <trkpt lat="59.8827452" lon="17.5332735">
        <ele>30.4188</ele>
        <time>2013-04-21T12:13:47Z</time>
      </trkpt>
      <trkpt lat="59.8826904" lon="17.5332343">
        <ele>30.4188</ele>
        <time>2013-04-21T12:13:48Z</time>
      </trkpt>
      <trkpt lat="59.8826364" lon="17.5331926">
        <ele>30.4188</ele>
        <time>2013-04-21T12:13:49Z</time>
      </trkpt>
      <trkpt lat="59.8825829" lon="17.5331494">
        <ele>30.8995</ele>
        <time>2013-04-21T12:13:50Z</time>
      </trkpt>
      <trkpt lat="59.8825296" lon="17.533106">
        <ele>30.8995</ele>
        <time>2013-04-21T12:13:51Z</time>
      </trkpt>
      <trkpt lat="59.8824755" lon="17.5330639">
        <ele>31.3801</ele>
        <time>2013-04-21T12:13:52Z</time>
      </trkpt>
      <trkpt lat="59.8824211" lon="17.5330219">
        <ele>31.3801</ele>
        <time>2013-04-21T12:13:53Z</time>
      </trkpt>
      <trkpt lat="59.8823675" lon="17.5329784">
        <ele>31.3801</ele>
        <time>2013-04-21T12:13:54Z</time>
      </trkpt>
      <trkpt lat="59.8823153" lon="17.532932">
        <ele>31.8607</ele>
        <time>2013-04-21T12:13:55Z</time>
      </trkpt>
      <trkpt lat="59.8822638" lon="17.5328847">
        <ele>31.8607</ele>
        <time>2013-04-21T12:13:56Z</time>
      </trkpt>
      <trkpt lat="59.8822128" lon="17.5328366">
        <ele>31.8607</ele>
        <time>2013-04-21T12:13:57Z</time>
      </trkpt>
      <trkpt lat="59.8821628" lon="17.532785">
        <ele>32.3416</ele>
        <time>2013-04-21T12:13:58Z</time>
      </trkpt>
      <trkpt lat="59.8821133" lon="17.5327313">
        <ele>32.3416</ele>
        <time>2013-04-21T12:13:59Z</time>
      </trkpt>
      <trkpt lat="59.8820641" lon="17.5326778">
        <ele>32.3416</ele>
        <time>2013-04-21T12:14:00Z</time>
      </trkpt>
      <trkpt lat="59.8820153" lon="17.5326236">
        <ele>32.3416</ele>
        <time>2013-04-21T12:14:01Z</time>
      </trkpt>
      <trkpt lat="59.8819668" lon="17.5325663">
        <ele>32.3416</ele>
        <time>2013-04-21T12:14:02Z</time>
      </trkpt>
      <trkpt lat="59.8819185" lon="17.5325067">
        <ele>32.3416</ele>
        <time>2013-04-21T12:14:03Z</time>
      </trkpt>
      <trkpt lat="59.8818707" lon="17.5324476">
        <ele>32.3416</ele>
        <time>2013-04-21T12:14:04Z</time>
      </trkpt>
      <trkpt lat="59.8818216" lon="17.5323891">
        <ele>32.8223</ele>
        <time>2013-04-21T12:14:05Z</time>
      </trkpt>
      <trkpt lat="59.8817719" lon="17.5323291">
        <ele>32.8223</ele>
        <time>2013-04-21T12:14:06Z</time>
      </trkpt>
      <trkpt lat="59.8817222" lon="17.5322658">
        <ele>32.8223</ele>
        <time>2013-04-21T12:14:07Z</time>
      </trkpt>
      <trkpt lat="59.8816718" lon="17.5322025">
        <ele>33.3029</ele>
        <time>2013-04-21T12:14:08Z</time>
      </trkpt>
      <trkpt lat="59.8816228" lon="17.5321375">
        <ele>33.3029</ele>
        <time>2013-04-21T12:14:09Z</time>
      </trkpt>
      <trkpt lat="59.881576" lon="17.5320711">
        <ele>33.3029</ele>
        <time>2013-04-21T12:14:10Z</time>
      </trkpt>
      <trkpt lat="59.8815293" lon="17.5320062">
        <ele>33.3029</ele>
        <time>2013-04-21T12:14:11Z</time>
      </trkpt>
      <trkpt lat="59.8814821" lon="17.5319425">
        <ele>33.3029</ele>
        <time>2013-04-21T12:14:12Z</time>
      </trkpt>
      <trkpt lat="59.881435" lon="17.5318804">
        <ele>33.3029</ele>
        <time>2013-04-21T12:14:13Z</time>
      </trkpt>
      <trkpt lat="59.8813873" lon="17.5318198">
        <ele>33.3029</ele>
        <time>2013-04-21T12:14:14Z</time>
      </trkpt>
      <trkpt lat="59.8813392" lon="17.5317593">
        <ele>32.8223</ele>
        <time>2013-04-21T12:14:15Z</time>
      </trkpt>
      <trkpt lat="59.8812911" lon="17.5316966">
        <ele>32.8223</ele>
        <time>2013-04-21T12:14:16Z</time>
      </trkpt>
      <trkpt lat="59.8812425" lon="17.5316334">
        <ele>32.8223</ele>
        <time>2013-04-21T12:14:17Z</time>
      </trkpt>
      <trkpt lat="59.8811933" lon="17.5315713">
        <ele>32.8223</ele>
        <time>2013-04-21T12:14:18Z</time>
      </trkpt>
      <trkpt lat="59.8811446" lon="17.5315106">
        <ele>32.8223</ele>
        <time>2013-04-21T12:14:19Z</time>
      </trkpt>
      <trkpt lat="59.8810972" lon="17.5314501">
        <ele>32.3416</ele>
        <time>2013-04-21T12:14:20Z</time>
      </trkpt>
      <trkpt lat="59.8810514" lon="17.5313895">
        <ele>32.3416</ele>
        <time>2013-04-21T12:14:21Z</time>
      </trkpt>
      <trkpt lat="59.8810063" lon="17.5313287">
        <ele>32.3416</ele>
        <time>2013-04-21T12:14:22Z</time>
      </trkpt>
      <trkpt lat="59.8809616" lon="17.5312662">
        <ele>32.3416</ele>
        <time>2013-04-21T12:14:23Z</time>
      </trkpt>
      <trkpt lat="59.8809172" lon="17.5312032">
        <ele>31.8607</ele>
        <time>2013-04-21T12:14:24Z</time>
      </trkpt>
      <trkpt lat="59.8808719" lon="17.5311407">
        <ele>31.8607</ele>
        <time>2013-04-21T12:14:25Z</time>
      </trkpt>
      <trkpt lat="59.8808279" lon="17.5310809">
        <ele>31.8607</ele>
        <time>2013-04-21T12:14:26Z</time>
      </trkpt>
      <trkpt lat="59.8807821" lon="17.5310273">
        <ele>31.3801</ele>
        <time>2013-04-21T12:14:27Z</time>
      </trkpt>
      <trkpt lat="59.8807343" lon="17.5309848">
        <ele>31.3801</ele>
        <time>2013-04-21T12:14:28Z</time>
      </trkpt>
      <trkpt lat="59.8806845" lon="17.5309515">
        <ele>30.8995</ele>
        <time>2013-04-21T12:14:29Z</time>
      </trkpt>
      <trkpt lat="59.8806336" lon="17.5309283">
        <ele>30.8995</ele>
        <time>2013-04-21T12:14:30Z</time>
      </trkpt>
      <trkpt lat="59.8805805" lon="17.5309138">
        <ele>30.8995</ele>
        <time>2013-04-21T12:14:31Z</time>
      </trkpt>
      <trkpt lat="59.880528" lon="17.5309023">
        <ele>30.4188</ele>
        <time>2013-04-21T12:14:32Z</time>
      </trkpt>
      <trkpt lat="59.8804726" lon="17.53089">
        <ele>30.4188</ele>
        <time>2013-04-21T12:14:33Z</time>
      </trkpt>
      <trkpt lat="59.8804177" lon="17.5308802">
        <ele>30.4188</ele>
        <time>2013-04-21T12:14:34Z</time>
      </trkpt>
      <trkpt lat="59.8803639" lon="17.5308738">
        <ele>30.4188</ele>
        <time>2013-04-21T12:14:35Z</time>
      </trkpt>
      <trkpt lat="59.8803104" lon="17.5308703">
        <ele>30.4188</ele>
        <time>2013-04-21T12:14:36Z</time>
      </trkpt>
      <trkpt lat="59.8802568" lon="17.5308698">
        <ele>30.4188</ele>
        <time>2013-04-21T12:14:37Z</time>
      </trkpt>
      <trkpt lat="59.8802029" lon="17.5308699">
        <ele>30.4188</ele>
        <time>2013-04-21T12:14:38Z</time>
      </trkpt>
      <trkpt lat="59.8801488" lon="17.5308703">
        <ele>30.4188</ele>
        <time>2013-04-21T12:14:39Z</time>
      </trkpt>
      <trkpt lat="59.8800955" lon="17.5308711">
        <ele>30.4188</ele>
        <time>2013-04-21T12:14:40Z</time>
      </trkpt>
      <trkpt lat="59.8800428" lon="17.5308781">
        <ele>30.4188</ele>
        <time>2013-04-21T12:14:41Z</time>
      </trkpt>
      <trkpt lat="59.8799895" lon="17.5308898">
        <ele>29.9381</ele>
        <time>2013-04-21T12:14:42Z</time>
      </trkpt>
      <trkpt lat="59.8799333" lon="17.5309024">
        <ele>29.9381</ele>
        <time>2013-04-21T12:14:43Z</time>
      </trkpt>
      <trkpt lat="59.8798764" lon="17.5309087">
        <ele>29.9381</ele>
        <time>2013-04-21T12:14:44Z</time>
      </trkpt>
      <trkpt lat="59.8798224" lon="17.5309064">
        <ele>30.4188</ele>
        <time>2013-04-21T12:14:45Z</time>
      </trkpt>
      <trkpt lat="59.8797682" lon="17.530903">
        <ele>30.4188</ele>
        <time>2013-04-21T12:14:46Z</time>
      </trkpt>
      <trkpt lat="59.8797163" lon="17.5308958">
        <ele>30.4188</ele>
        <time>2013-04-21T12:14:47Z</time>
      </trkpt>
      <trkpt lat="59.8796635" lon="17.5308829">
        <ele>30.4188</ele>
        <time>2013-04-21T12:14:48Z</time>
      </trkpt>
      <trkpt lat="59.8796098" lon="17.5308675">
        <ele>30.4188</ele>
        <time>2013-04-21T12:14:49Z</time>
      </trkpt>
      <trkpt lat="59.8795573" lon="17.5308501">
        <ele>30.4188</ele>
        <time>2013-04-21T12:14:50Z</time>
      </trkpt>
      <trkpt lat="59.8795034" lon="17.5308294">
        <ele>30.4188</ele>
        <time>2013-04-21T12:14:51Z</time>
      </trkpt>
      <trkpt lat="59.8794502" lon="17.5308096">
        <ele>29.9381</ele>
        <time>2013-04-21T12:14:52Z</time>
      </trkpt>
      <trkpt lat="59.8793967" lon="17.530789">
        <ele>29.9381</ele>
        <time>2013-04-21T12:14:53Z</time>
      </trkpt>
      <trkpt lat="59.879343" lon="17.5307662">
        <ele>29.9381</ele>
        <time>2013-04-21T12:14:54Z</time>
      </trkpt>
      <trkpt lat="59.8792881" lon="17.5307407">
        <ele>29.9381</ele>
        <time>2013-04-21T12:14:55Z</time>
      </trkpt>
      <trkpt lat="59.8792332" lon="17.5307169">
        <ele>29.9381</ele>
        <time>2013-04-21T12:14:56Z</time>
      </trkpt>
      <trkpt lat="59.8791778" lon="17.5306936">
        <ele>29.9381</ele>
        <time>2013-04-21T12:14:57Z</time>
      </trkpt>
      <trkpt lat="59.8791218" lon="17.5306688">
        <ele>29.9381</ele>
        <time>2013-04-21T12:14:58Z</time>
      </trkpt>
      <trkpt lat="59.8790652" lon="17.5306461">
        <ele>29.9381</ele>
        <time>2013-04-21T12:14:59Z</time>
      </trkpt>
      <trkpt lat="59.8790099" lon="17.5306237">
        <ele>29.4575</ele>
        <time>2013-04-21T12:15:00Z</time>
      </trkpt>
      <trkpt lat="59.8789539" lon="17.530602">
        <ele>29.4575</ele>
        <time>2013-04-21T12:15:01Z</time>
      </trkpt>
      <trkpt lat="59.8788983" lon="17.5305791">
        <ele>28.9769</ele>
        <time>2013-04-21T12:15:02Z</time>
      </trkpt>
      <trkpt lat="59.8788424" lon="17.5305555">
        <ele>28.9769</ele>
        <time>2013-04-21T12:15:03Z</time>
      </trkpt>
      <trkpt lat="59.8787874" lon="17.5305316">
        <ele>28.4962</ele>
        <time>2013-04-21T12:15:04Z</time>
      </trkpt>
      <trkpt lat="59.878731" lon="17.5305072">
        <ele>28.0155</ele>
        <time>2013-04-21T12:15:05Z</time>
      </trkpt>
      <trkpt lat="59.8786748" lon="17.5304817">
        <ele>28.0155</ele>
        <time>2013-04-21T12:15:06Z</time>
      </trkpt>
      <trkpt lat="59.8786194" lon="17.5304548">
        <ele>27.5349</ele>
        <time>2013-04-21T12:15:07Z</time>
      </trkpt>
      <trkpt lat="59.8785654" lon="17.5304253">
        <ele>27.5349</ele>
        <time>2013-04-21T12:15:08Z</time>
      </trkpt>
      <trkpt lat="59.8785126" lon="17.5303972">
        <ele>27.0543</ele>
        <time>2013-04-21T12:15:09Z</time>
      </trkpt>
      <trkpt lat="59.8784603" lon="17.5303684">
        <ele>27.0543</ele>
        <time>2013-04-21T12:15:10Z</time>
      </trkpt>
      <trkpt lat="59.8784079" lon="17.5303362">
        <ele>26.5736</ele>
        <time>2013-04-21T12:15:11Z</time>
      </trkpt>
      <trkpt lat="59.878356" lon="17.530303">
        <ele>26.5736</ele>
        <time>2013-04-21T12:15:12Z</time>
      </trkpt>
      <trkpt lat="59.8783047" lon="17.5302664">
        <ele>26.0929</ele>
        <time>2013-04-21T12:15:13Z</time>
      </trkpt>
      <trkpt lat="59.878255" lon="17.530229">
        <ele>26.0929</ele>
        <time>2013-04-21T12:15:14Z</time>
      </trkpt>
      <trkpt lat="59.8782058" lon="17.5301892">
        <ele>26.5736</ele>
        <time>2013-04-21T12:15:15Z</time>
      </trkpt>
      <trkpt lat="59.8781567" lon="17.5301472">
        <ele>27.0543</ele>
        <time>2013-04-21T12:15:16Z</time>
      </trkpt>
      <trkpt lat="59.8781076" lon="17.5301042">
        <ele>27.0543</ele>
        <time>2013-04-21T12:15:17Z</time>
      </trkpt>
      <trkpt lat="59.8780588" lon="17.5300654">
        <ele>27.0543</ele>
        <time>2013-04-21T12:15:18Z</time>
      </trkpt>
      <trkpt lat="59.87801" lon="17.5300234">
        <ele>26.5736</ele>
        <time>2013-04-21T12:15:19Z</time>
      </trkpt>
      <trkpt lat="59.8779613" lon="17.5299794">
        <ele>26.5736</ele>
        <time>2013-04-21T12:15:20Z</time>
      </trkpt>
      <trkpt lat="59.8779117" lon="17.5299343">
        <ele>26.0929</ele>
        <time>2013-04-21T12:15:21Z</time>
      </trkpt>
      <trkpt lat="59.8778607" lon="17.5298871">
        <ele>25.6123</ele>
        <time>2013-04-21T12:15:22Z</time>
      </trkpt>
      <trkpt lat="59.8778081" lon="17.5298399">
        <ele>24.651</ele>
        <time>2013-04-21T12:15:23Z</time>
      </trkpt>
      <trkpt lat="59.8777535" lon="17.5297898">
        <ele>24.1703</ele>
        <time>2013-04-21T12:15:24Z</time>
      </trkpt>
      <trkpt lat="59.8776979" lon="17.5297391">
        <ele>23.6896</ele>
        <time>2013-04-21T12:15:25Z</time>
      </trkpt>
      <trkpt lat="59.8776418" lon="17.529686">
        <ele>22.7283</ele>
        <time>2013-04-21T12:15:26Z</time>
      </trkpt>
      <trkpt lat="59.8775839" lon="17.5296324">
        <ele>22.2476</ele>
        <time>2013-04-21T12:15:27Z</time>
      </trkpt>
      <trkpt lat="59.8775237" lon="17.5295788">
        <ele>21.767</ele>
        <time>2013-04-21T12:15:28Z</time>
      </trkpt>
      <trkpt lat="59.8774619" lon="17.5295245">
        <ele>21.2864</ele>
        <time>2013-04-21T12:15:29Z</time>
      </trkpt>
      <trkpt lat="59.8773987" lon="17.5294707">
        <ele>20.8057</ele>
        <time>2013-04-21T12:15:30Z</time>
      </trkpt>
      <trkpt lat="59.8773351" lon="17.5294174">
        <ele>20.325</ele>
        <time>2013-04-21T12:15:31Z</time>
      </trkpt>
      <trkpt lat="59.8772705" lon="17.5293634">
        <ele>19.8444</ele>
        <time>2013-04-21T12:15:32Z</time>
      </trkpt>
      <trkpt lat="59.8772051" lon="17.5293093">
        <ele>19.3638</ele>
        <time>2013-04-21T12:15:33Z</time>
      </trkpt>
      <trkpt lat="59.8771389" lon="17.5292544">
        <ele>18.8831</ele>
        <time>2013-04-21T12:15:34Z</time>
      </trkpt>
      <trkpt lat="59.877072" lon="17.5291992">
        <ele>18.8831</ele>
        <time>2013-04-21T12:15:35Z</time>
      </trkpt>
      <trkpt lat="59.8770048" lon="17.5291454">
        <ele>18.4023</ele>
        <time>2013-04-21T12:15:36Z</time>
      </trkpt>
      <trkpt lat="59.8769389" lon="17.5290935">
        <ele>17.9218</ele>
        <time>2013-04-21T12:15:37Z</time>
      </trkpt>
      <trkpt lat="59.8768741" lon="17.5290417">
        <ele>17.9218</ele>
        <time>2013-04-21T12:15:38Z</time>
      </trkpt>
      <trkpt lat="59.8768088" lon="17.528992">
        <ele>17.4412</ele>
        <time>2013-04-21T12:15:39Z</time>
      </trkpt>
      <trkpt lat="59.8767426" lon="17.5289432">
        <ele>17.4412</ele>
        <time>2013-04-21T12:15:40Z</time>
      </trkpt>
      <trkpt lat="59.876676" lon="17.5288937">
        <ele>16.9604</ele>
        <time>2013-04-21T12:15:41Z</time>
      </trkpt>
      <trkpt lat="59.8766084" lon="17.5288468">
        <ele>16.9604</ele>
        <time>2013-04-21T12:15:42Z</time>
      </trkpt>
      <trkpt lat="59.8765395" lon="17.5288046">
        <ele>16.9604</ele>
        <time>2013-04-21T12:15:43Z</time>
      </trkpt>
      <trkpt lat="59.876469" lon="17.528767">
        <ele>16.4797</ele>
        <time>2013-04-21T12:15:44Z</time>
      </trkpt>
      <trkpt lat="59.8763968" lon="17.5287345">
        <ele>16.9604</ele>
        <time>2013-04-21T12:15:45Z</time>
      </trkpt>
      <trkpt lat="59.8763257" lon="17.5287061">
        <ele>16.9604</ele>
        <time>2013-04-21T12:15:46Z</time>
      </trkpt>
      <trkpt lat="59.8762551" lon="17.5286791">
        <ele>16.9604</ele>
        <time>2013-04-21T12:15:47Z</time>
      </trkpt>
      <trkpt lat="59.8761842" lon="17.5286528">
        <ele>17.4412</ele>
        <time>2013-04-21T12:15:48Z</time>
      </trkpt>
      <trkpt lat="59.8761136" lon="17.5286287">
        <ele>17.4412</ele>
        <time>2013-04-21T12:15:49Z</time>
      </trkpt>
      <trkpt lat="59.8760435" lon="17.5286041">
        <ele>17.4412</ele>
        <time>2013-04-21T12:15:50Z</time>
      </trkpt>
      <trkpt lat="59.8759741" lon="17.5285795">
        <ele>17.9218</ele>
        <time>2013-04-21T12:15:51Z</time>
      </trkpt>
      <trkpt lat="59.875906" lon="17.5285551">
        <ele>17.9218</ele>
        <time>2013-04-21T12:15:52Z</time>
      </trkpt>
      <trkpt lat="59.8758392" lon="17.5285315">
        <ele>17.9218</ele>
        <time>2013-04-21T12:15:53Z</time>
      </trkpt>
      <trkpt lat="59.8757724" lon="17.528509">
        <ele>18.4023</ele>
        <time>2013-04-21T12:15:54Z</time>
      </trkpt>
      <trkpt lat="59.8757065" lon="17.528487">
        <ele>18.4023</ele>
        <time>2013-04-21T12:15:55Z</time>
      </trkpt>
      <trkpt lat="59.8756413" lon="17.5284648">
        <ele>18.8831</ele>
        <time>2013-04-21T12:15:56Z</time>
      </trkpt>
      <trkpt lat="59.875577" lon="17.5284425">
        <ele>18.8831</ele>
        <time>2013-04-21T12:15:57Z</time>
      </trkpt>
      <trkpt lat="59.8755138" lon="17.528421">
        <ele>19.3638</ele>
        <time>2013-04-21T12:15:58Z</time>
      </trkpt>
      <trkpt lat="59.8754517" lon="17.5283997">
        <ele>19.3638</ele>
        <time>2013-04-21T12:15:59Z</time>
      </trkpt>
      <trkpt lat="59.8753917" lon="17.5283762">
        <ele>19.8444</ele>
        <time>2013-04-21T12:16:00Z</time>
      </trkpt>
      <trkpt lat="59.8753337" lon="17.5283534">
        <ele>19.8444</ele>
        <time>2013-04-21T12:16:01Z</time>
      </trkpt>
      <trkpt lat="59.8752776" lon="17.5283336">
        <ele>20.325</ele>
        <time>2013-04-21T12:16:02Z</time>
      </trkpt>
      <trkpt lat="59.8752232" lon="17.5283158">
        <ele>20.8057</ele>
        <time>2013-04-21T12:16:03Z</time>
      </trkpt>
      <trkpt lat="59.8751699" lon="17.5282982">
        <ele>20.8057</ele>
        <time>2013-04-21T12:16:04Z</time>
      </trkpt>
      <trkpt lat="59.8751176" lon="17.5282822">
        <ele>21.2864</ele>
        <time>2013-04-21T12:16:05Z</time>
      </trkpt>
      <trkpt lat="59.8750662" lon="17.5282656">
        <ele>21.2864</ele>
        <time>2013-04-21T12:16:06Z</time>
      </trkpt>
      <trkpt lat="59.8750155" lon="17.5282471">
        <ele>21.767</ele>
        <time>2013-04-21T12:16:07Z</time>
      </trkpt>
      <trkpt lat="59.8749653" lon="17.5282289">
        <ele>21.767</ele>
        <time>2013-04-21T12:16:08Z</time>
      </trkpt>
      <trkpt lat="59.8749155" lon="17.5282118">
        <ele>22.2476</ele>
        <time>2013-04-21T12:16:09Z</time>
      </trkpt>
      <trkpt lat="59.8748658" lon="17.5281953">
        <ele>22.2476</ele>
        <time>2013-04-21T12:16:10Z</time>
      </trkpt>
      <trkpt lat="59.8748161" lon="17.528178">
        <ele>22.7283</ele>
        <time>2013-04-21T12:16:11Z</time>
      </trkpt>
      <trkpt lat="59.8747664" lon="17.5281609">
        <ele>23.209</ele>
        <time>2013-04-21T12:16:12Z</time>
      </trkpt>
      <trkpt lat="59.874716" lon="17.528144">
        <ele>23.209</ele>
        <time>2013-04-21T12:16:13Z</time>
      </trkpt>
      <trkpt lat="59.8746656" lon="17.528126">
        <ele>23.209</ele>
        <time>2013-04-21T12:16:14Z</time>
      </trkpt>
      <trkpt lat="59.8746151" lon="17.5281087">
        <ele>23.6896</ele>
        <time>2013-04-21T12:16:15Z</time>
      </trkpt>
      <trkpt lat="59.8745643" lon="17.5280929">
        <ele>23.6896</ele>
        <time>2013-04-21T12:16:16Z</time>
      </trkpt>
      <trkpt lat="59.874514" lon="17.5280757">
        <ele>24.1703</ele>
        <time>2013-04-21T12:16:17Z</time>
      </trkpt>
      <trkpt lat="59.8744634" lon="17.528057">
        <ele>24.1703</ele>
        <time>2013-04-21T12:16:18Z</time>
      </trkpt>
      <trkpt lat="59.874413" lon="17.5280384">
        <ele>24.1703</ele>
        <time>2013-04-21T12:16:19Z</time>
      </trkpt>
      <trkpt lat="59.8743618" lon="17.5280202">
        <ele>24.1703</ele>
        <time>2013-04-21T12:16:20Z</time>
      </trkpt>
      <trkpt lat="59.8743116" lon="17.5280016">
        <ele>24.651</ele>
        <time>2013-04-21T12:16:21Z</time>
      </trkpt>
      <trkpt lat="59.8742611" lon="17.5279849">
        <ele>24.651</ele>
        <time>2013-04-21T12:16:22Z</time>
      </trkpt>
      <trkpt lat="59.8742099" lon="17.5279699">
        <ele>24.651</ele>
        <time>2013-04-21T12:16:23Z</time>
      </trkpt>
      <trkpt lat="59.8741569" lon="17.527955">
        <ele>24.651</ele>
        <time>2013-04-21T12:16:24Z</time>
      </trkpt>
      <trkpt lat="59.8741075" lon="17.5279366">
        <ele>24.651</ele>
        <time>2013-04-21T12:16:25Z</time>
      </trkpt>
      <trkpt lat="59.8740581" lon="17.527919">
        <ele>24.651</ele>
        <time>2013-04-21T12:16:26Z</time>
      </trkpt>
      <trkpt lat="59.8740088" lon="17.5279021">
        <ele>25.1317</ele>
        <time>2013-04-21T12:16:27Z</time>
      </trkpt>
      <trkpt lat="59.8739601" lon="17.5278835">
        <ele>25.1317</ele>
        <time>2013-04-21T12:16:28Z</time>
      </trkpt>
      <trkpt lat="59.8739107" lon="17.5278643">
        <ele>25.1317</ele>
        <time>2013-04-21T12:16:29Z</time>
      </trkpt>
      <trkpt lat="59.8738613" lon="17.5278462">
        <ele>25.1317</ele>
        <time>2013-04-21T12:16:30Z</time>
      </trkpt>
      <trkpt lat="59.8738117" lon="17.5278289">
        <ele>25.1317</ele>
        <time>2013-04-21T12:16:31Z</time>
      </trkpt>
      <trkpt lat="59.8737624" lon="17.527811">
        <ele>25.6123</ele>
        <time>2013-04-21T12:16:32Z</time>
      </trkpt>
      <trkpt lat="59.8737137" lon="17.5277933">
        <ele>25.6123</ele>
        <time>2013-04-21T12:16:33Z</time>
      </trkpt>
      <trkpt lat="59.8736651" lon="17.5277769">
        <ele>25.6123</ele>
        <time>2013-04-21T12:16:34Z</time>
      </trkpt>
      <trkpt lat="59.873617" lon="17.5277617">
        <ele>26.0929</ele>
        <time>2013-04-21T12:16:35Z</time>
      </trkpt>
      <trkpt lat="59.8735696" lon="17.5277466">
        <ele>26.0929</ele>
        <time>2013-04-21T12:16:36Z</time>
      </trkpt>
      <trkpt lat="59.8735227" lon="17.5277294">
        <ele>26.0929</ele>
        <time>2013-04-21T12:16:37Z</time>
      </trkpt>
      <trkpt lat="59.8734765" lon="17.5277116">
        <ele>26.5736</ele>
        <time>2013-04-21T12:16:38Z</time>
      </trkpt>
      <trkpt lat="59.8734302" lon="17.5276948">
        <ele>26.5736</ele>
        <time>2013-04-21T12:16:39Z</time>
      </trkpt>
      <trkpt lat="59.8733837" lon="17.5276756">
        <ele>26.5736</ele>
        <time>2013-04-21T12:16:40Z</time>
      </trkpt>
      <trkpt lat="59.8733346" lon="17.5276567">
        <ele>26.5736</ele>
        <time>2013-04-21T12:16:41Z</time>
      </trkpt>
      <trkpt lat="59.8732837" lon="17.5276396">
        <ele>27.0543</ele>
        <time>2013-04-21T12:16:42Z</time>
      </trkpt>
      <trkpt lat="59.8732326" lon="17.5276229">
        <ele>27.0543</ele>
        <time>2013-04-21T12:16:43Z</time>
      </trkpt>
      <trkpt lat="59.8731823" lon="17.5276052">
        <ele>27.0543</ele>
        <time>2013-04-21T12:16:44Z</time>
      </trkpt>
      <trkpt lat="59.8731313" lon="17.5275873">
        <ele>27.0543</ele>
        <time>2013-04-21T12:16:45Z</time>
      </trkpt>
      <trkpt lat="59.8730818" lon="17.5275669">
        <ele>27.0543</ele>
        <time>2013-04-21T12:16:46Z</time>
      </trkpt>
      <trkpt lat="59.8730326" lon="17.5275466">
        <ele>27.5349</ele>
        <time>2013-04-21T12:16:47Z</time>
      </trkpt>
      <trkpt lat="59.8729831" lon="17.5275266">
        <ele>27.5349</ele>
        <time>2013-04-21T12:16:48Z</time>
      </trkpt>
      <trkpt lat="59.8729342" lon="17.5275044">
        <ele>27.5349</ele>
        <time>2013-04-21T12:16:49Z</time>
      </trkpt>
      <trkpt lat="59.872887" lon="17.5274805">
        <ele>27.5349</ele>
        <time>2013-04-21T12:16:50Z</time>
      </trkpt>
      <trkpt lat="59.8728379" lon="17.5274571">
        <ele>27.5349</ele>
        <time>2013-04-21T12:16:51Z</time>
      </trkpt>
      <trkpt lat="59.8727904" lon="17.5274312">
        <ele>27.5349</ele>
        <time>2013-04-21T12:16:52Z</time>
      </trkpt>
      <trkpt lat="59.8727418" lon="17.5274032">
        <ele>27.5349</ele>
        <time>2013-04-21T12:16:53Z</time>
      </trkpt>
      <trkpt lat="59.8726927" lon="17.5273746">
        <ele>27.5349</ele>
        <time>2013-04-21T12:16:54Z</time>
      </trkpt>
      <trkpt lat="59.8726444" lon="17.5273477">
        <ele>27.0543</ele>
        <time>2013-04-21T12:16:55Z</time>
      </trkpt>
      <trkpt lat="59.8725959" lon="17.5273221">
        <ele>27.0543</ele>
        <time>2013-04-21T12:16:56Z</time>
      </trkpt>
      <trkpt lat="59.8725456" lon="17.527294">
        <ele>27.0543</ele>
        <time>2013-04-21T12:16:57Z</time>
      </trkpt>
      <trkpt lat="59.8724932" lon="17.5272619">
        <ele>26.5736</ele>
        <time>2013-04-21T12:16:58Z</time>
      </trkpt>
      <trkpt lat="59.8724384" lon="17.5272299">
        <ele>26.5736</ele>
        <time>2013-04-21T12:16:59Z</time>
      </trkpt>
      <trkpt lat="59.8723813" lon="17.5271977">
        <ele>26.5736</ele>
        <time>2013-04-21T12:17:00Z</time>
      </trkpt>
      <trkpt lat="59.8723224" lon="17.5271645">
        <ele>26.5736</ele>
        <time>2013-04-21T12:17:01Z</time>
      </trkpt>
      <trkpt lat="59.8722628" lon="17.5271307">
        <ele>26.0929</ele>
        <time>2013-04-21T12:17:02Z</time>
      </trkpt>
      <trkpt lat="59.8722031" lon="17.5270966">
        <ele>26.0929</ele>
        <time>2013-04-21T12:17:03Z</time>
      </trkpt>
      <trkpt lat="59.8721432" lon="17.5270629">
        <ele>26.0929</ele>
        <time>2013-04-21T12:17:04Z</time>
      </trkpt>
      <trkpt lat="59.872083" lon="17.5270303">
        <ele>26.0929</ele>
        <time>2013-04-21T12:17:05Z</time>
      </trkpt>
      <trkpt lat="59.8720224" lon="17.5269992">
        <ele>26.0929</ele>
        <time>2013-04-21T12:17:06Z</time>
      </trkpt>
      <trkpt lat="59.8719619" lon="17.5269664">
        <ele>26.0929</ele>
        <time>2013-04-21T12:17:07Z</time>
      </trkpt>
      <trkpt lat="59.8719017" lon="17.5269319">
        <ele>26.0929</ele>
        <time>2013-04-21T12:17:08Z</time>
      </trkpt>
      <trkpt lat="59.871841" lon="17.5269007">
        <ele>26.0929</ele>
        <time>2013-04-21T12:17:09Z</time>
      </trkpt>
      <trkpt lat="59.8717794" lon="17.5268754">
        <ele>26.0929</ele>
        <time>2013-04-21T12:17:10Z</time>
      </trkpt>
      <trkpt lat="59.8717173" lon="17.5268545">
        <ele>26.0929</ele>
        <time>2013-04-21T12:17:11Z</time>
      </trkpt>
      <trkpt lat="59.8716546" lon="17.5268388">
        <ele>26.0929</ele>
        <time>2013-04-21T12:17:12Z</time>
      </trkpt>
      <trkpt lat="59.8715914" lon="17.5268329">
        <ele>26.0929</ele>
        <time>2013-04-21T12:17:13Z</time>
      </trkpt>
      <trkpt lat="59.871528" lon="17.5268379">
        <ele>25.6123</ele>
        <time>2013-04-21T12:17:14Z</time>
      </trkpt>
      <trkpt lat="59.8714651" lon="17.526849">
        <ele>25.6123</ele>
        <time>2013-04-21T12:17:15Z</time>
      </trkpt>
      <trkpt lat="59.8714029" lon="17.5268645">
        <ele>25.6123</ele>
        <time>2013-04-21T12:17:16Z</time>
      </trkpt>
      <trkpt lat="59.871341" lon="17.5268816">
        <ele>25.1317</ele>
        <time>2013-04-21T12:17:17Z</time>
      </trkpt>
      <trkpt lat="59.8712775" lon="17.5269018">
        <ele>25.1317</ele>
        <time>2013-04-21T12:17:18Z</time>
      </trkpt>
      <trkpt lat="59.8712163" lon="17.5269229">
        <ele>25.1317</ele>
        <time>2013-04-21T12:17:19Z</time>
      </trkpt>
      <trkpt lat="59.8711568" lon="17.5269443">
        <ele>25.6123</ele>
        <time>2013-04-21T12:17:20Z</time>
      </trkpt>
      <trkpt lat="59.8710993" lon="17.526965">
        <ele>25.6123</ele>
        <time>2013-04-21T12:17:21Z</time>
      </trkpt>
      <trkpt lat="59.8710424" lon="17.5269866">
        <ele>25.6123</ele>
        <time>2013-04-21T12:17:22Z</time>
      </trkpt>
      <trkpt lat="59.8709865" lon="17.5270069">
        <ele>25.6123</ele>
        <time>2013-04-21T12:17:23Z</time>
      </trkpt>
      <trkpt lat="59.8709311" lon="17.527022">
        <ele>25.6123</ele>
        <time>2013-04-21T12:17:24Z</time>
      </trkpt>
      <trkpt lat="59.8708746" lon="17.5270297">
        <ele>26.0929</ele>
        <time>2013-04-21T12:17:25Z</time>
      </trkpt>
      <trkpt lat="59.8708181" lon="17.5270382">
        <ele>25.6123</ele>
        <time>2013-04-21T12:17:26Z</time>
      </trkpt>
      <trkpt lat="59.8707606" lon="17.5270456">
        <ele>25.6123</ele>
        <time>2013-04-21T12:17:27Z</time>
      </trkpt>
      <trkpt lat="59.8707031" lon="17.5270505">
        <ele>25.6123</ele>
        <time>2013-04-21T12:17:28Z</time>
      </trkpt>
      <trkpt lat="59.8706466" lon="17.527054">
        <ele>25.6123</ele>
        <time>2013-04-21T12:17:29Z</time>
      </trkpt>
      <trkpt lat="59.8705901" lon="17.5270544">
        <ele>25.6123</ele>
        <time>2013-04-21T12:17:30Z</time>
      </trkpt>
      <trkpt lat="59.8705337" lon="17.5270525">
        <ele>25.6123</ele>
        <time>2013-04-21T12:17:31Z</time>
      </trkpt>
      <trkpt lat="59.8704783" lon="17.5270487">
        <ele>25.6123</ele>
        <time>2013-04-21T12:17:32Z</time>
      </trkpt>
      <trkpt lat="59.8704233" lon="17.5270422">
        <ele>25.6123</ele>
        <time>2013-04-21T12:17:33Z</time>
      </trkpt>
      <trkpt lat="59.8703677" lon="17.5270363">
        <ele>25.6123</ele>
        <time>2013-04-21T12:17:34Z</time>
      </trkpt>
      <trkpt lat="59.8703115" lon="17.5270298">
        <ele>25.6123</ele>
        <time>2013-04-21T12:17:35Z</time>
      </trkpt>
      <trkpt lat="59.8702551" lon="17.5270219">
        <ele>25.6123</ele>
        <time>2013-04-21T12:17:36Z</time>
      </trkpt>
      <trkpt lat="59.8701979" lon="17.527014">
        <ele>25.6123</ele>
        <time>2013-04-21T12:17:37Z</time>
      </trkpt>
      <trkpt lat="59.8701394" lon="17.5270044">
        <ele>25.6123</ele>
        <time>2013-04-21T12:17:38Z</time>
      </trkpt>
      <trkpt lat="59.8700794" lon="17.5269941">
        <ele>25.6123</ele>
        <time>2013-04-21T12:17:39Z</time>
      </trkpt>
      <trkpt lat="59.8700184" lon="17.5269847">
        <ele>25.6123</ele>
        <time>2013-04-21T12:17:40Z</time>
      </trkpt>
      <trkpt lat="59.8699561" lon="17.5269754">
        <ele>25.6123</ele>
        <time>2013-04-21T12:17:41Z</time>
      </trkpt>
      <trkpt lat="59.869892" lon="17.5269671">
        <ele>25.6123</ele>
        <time>2013-04-21T12:17:42Z</time>
      </trkpt>
      <trkpt lat="59.8698274" lon="17.5269587">
        <ele>25.6123</ele>
        <time>2013-04-21T12:17:43Z</time>
      </trkpt>
      <trkpt lat="59.8697623" lon="17.5269485">
        <ele>25.6123</ele>
        <time>2013-04-21T12:17:44Z</time>
      </trkpt>
      <trkpt lat="59.8696974" lon="17.526939">
        <ele>25.6123</ele>
        <time>2013-04-21T12:17:45Z</time>
      </trkpt>
      <trkpt lat="59.8696326" lon="17.526931">
        <ele>25.6123</ele>
        <time>2013-04-21T12:17:46Z</time>
      </trkpt>
      <trkpt lat="59.8695682" lon="17.5269232">
        <ele>25.6123</ele>
        <time>2013-04-21T12:17:47Z</time>
      </trkpt>
      <trkpt lat="59.8695039" lon="17.5269203">
        <ele>26.0929</ele>
        <time>2013-04-21T12:17:48Z</time>
      </trkpt>
      <trkpt lat="59.8694392" lon="17.5269195">
        <ele>26.0929</ele>
        <time>2013-04-21T12:17:49Z</time>
      </trkpt>
      <trkpt lat="59.8693754" lon="17.526918">
        <ele>26.0929</ele>
        <time>2013-04-21T12:17:50Z</time>
      </trkpt>
      <trkpt lat="59.8693127" lon="17.5269172">
        <ele>26.5736</ele>
        <time>2013-04-21T12:17:51Z</time>
      </trkpt>
      <trkpt lat="59.8692499" lon="17.5269162">
        <ele>26.5736</ele>
        <time>2013-04-21T12:17:52Z</time>
      </trkpt>
      <trkpt lat="59.8691882" lon="17.5269178">
        <ele>26.5736</ele>
        <time>2013-04-21T12:17:53Z</time>
      </trkpt>
      <trkpt lat="59.8691263" lon="17.5269195">
        <ele>26.5736</ele>
        <time>2013-04-21T12:17:54Z</time>
      </trkpt>
      <trkpt lat="59.8690649" lon="17.5269199">
        <ele>26.5736</ele>
        <time>2013-04-21T12:17:55Z</time>
      </trkpt>
      <trkpt lat="59.8690027" lon="17.5269226">
        <ele>26.5736</ele>
        <time>2013-04-21T12:17:56Z</time>
      </trkpt>
      <trkpt lat="59.8689385" lon="17.5269257">
        <ele>26.5736</ele>
        <time>2013-04-21T12:17:57Z</time>
      </trkpt>
      <trkpt lat="59.8688735" lon="17.5269268">
        <ele>27.0543</ele>
        <time>2013-04-21T12:17:58Z</time>
      </trkpt>
      <trkpt lat="59.8688066" lon="17.5269288">
        <ele>27.0543</ele>
        <time>2013-04-21T12:17:59Z</time>
      </trkpt>
      <trkpt lat="59.8687398" lon="17.526932">
        <ele>27.0543</ele>
        <time>2013-04-21T12:18:00Z</time>
      </trkpt>
      <trkpt lat="59.8686734" lon="17.5269344">
        <ele>27.0543</ele>
        <time>2013-04-21T12:18:01Z</time>
      </trkpt>
      <trkpt lat="59.8686076" lon="17.5269384">
        <ele>27.0543</ele>
        <time>2013-04-21T12:18:02Z</time>
      </trkpt>
      <trkpt lat="59.8685425" lon="17.526942">
        <ele>27.0543</ele>
        <time>2013-04-21T12:18:03Z</time>
      </trkpt>
      <trkpt lat="59.8684786" lon="17.5269416">
        <ele>27.5349</ele>
        <time>2013-04-21T12:18:04Z</time>
      </trkpt>
      <trkpt lat="59.868414" lon="17.5269377">
        <ele>27.0543</ele>
        <time>2013-04-21T12:18:05Z</time>
      </trkpt>
      <trkpt lat="59.8683491" lon="17.526936">
        <ele>27.0543</ele>
        <time>2013-04-21T12:18:06Z</time>
      </trkpt>
      <trkpt lat="59.868284" lon="17.5269334">
        <ele>27.5349</ele>
        <time>2013-04-21T12:18:07Z</time>
      </trkpt>
      <trkpt lat="59.8682187" lon="17.5269279">
        <ele>27.5349</ele>
        <time>2013-04-21T12:18:08Z</time>
      </trkpt>
      <trkpt lat="59.8681532" lon="17.5269195">
        <ele>27.5349</ele>
        <time>2013-04-21T12:18:09Z</time>
      </trkpt>
      <trkpt lat="59.868088" lon="17.5269076">
        <ele>27.5349</ele>
        <time>2013-04-21T12:18:10Z</time>
      </trkpt>
      <trkpt lat="59.8680229" lon="17.5268915">
        <ele>27.5349</ele>
        <time>2013-04-21T12:18:11Z</time>
      </trkpt>
      <trkpt lat="59.8679584" lon="17.5268722">
        <ele>27.5349</ele>
        <time>2013-04-21T12:18:12Z</time>
      </trkpt>
      <trkpt lat="59.8678949" lon="17.5268468">
        <ele>27.5349</ele>
        <time>2013-04-21T12:18:13Z</time>
      </trkpt>
      <trkpt lat="59.8678328" lon="17.5268144">
        <ele>27.5349</ele>
        <time>2013-04-21T12:18:14Z</time>
      </trkpt>
      <trkpt lat="59.8677731" lon="17.5267769">
        <ele>28.0155</ele>
        <time>2013-04-21T12:18:15Z</time>
      </trkpt>
      <trkpt lat="59.8677155" lon="17.5267352">
        <ele>28.0155</ele>
        <time>2013-04-21T12:18:16Z</time>
      </trkpt>
      <trkpt lat="59.8676593" lon="17.5266921">
        <ele>28.0155</ele>
        <time>2013-04-21T12:18:17Z</time>
      </trkpt>
      <trkpt lat="59.8676043" lon="17.5266474">
        <ele>28.0155</ele>
        <time>2013-04-21T12:18:18Z</time>
      </trkpt>
      <trkpt lat="59.8675503" lon="17.5266004">
        <ele>28.0155</ele>
        <time>2013-04-21T12:18:19Z</time>
      </trkpt>
      <trkpt lat="59.8674977" lon="17.5265516">
        <ele>28.0155</ele>
        <time>2013-04-21T12:18:20Z</time>
      </trkpt>
      <trkpt lat="59.8674453" lon="17.526503">
        <ele>28.4962</ele>
        <time>2013-04-21T12:18:21Z</time>
      </trkpt>
      <trkpt lat="59.867393" lon="17.5264573">
        <ele>28.4962</ele>
        <time>2013-04-21T12:18:22Z</time>
      </trkpt>
      <trkpt lat="59.8673411" lon="17.5264123">
        <ele>28.4962</ele>
        <time>2013-04-21T12:18:23Z</time>
      </trkpt>
      <trkpt lat="59.8672889" lon="17.5263673">
        <ele>28.9769</ele>
        <time>2013-04-21T12:18:24Z</time>
      </trkpt>
      <trkpt lat="59.8672361" lon="17.5263218">
        <ele>28.9769</ele>
        <time>2013-04-21T12:18:25Z</time>
      </trkpt>
      <trkpt lat="59.8671835" lon="17.5262772">
        <ele>28.9769</ele>
        <time>2013-04-21T12:18:26Z</time>
      </trkpt>
      <trkpt lat="59.8671305" lon="17.5262325">
        <ele>29.4575</ele>
        <time>2013-04-21T12:18:27Z</time>
      </trkpt>
      <trkpt lat="59.8670773" lon="17.5261905">
        <ele>29.4575</ele>
        <time>2013-04-21T12:18:28Z</time>
      </trkpt>
      <trkpt lat="59.8670238" lon="17.5261479">
        <ele>29.4575</ele>
        <time>2013-04-21T12:18:29Z</time>
      </trkpt>
      <trkpt lat="59.8669701" lon="17.5261053">
        <ele>29.4575</ele>
        <time>2013-04-21T12:18:30Z</time>
      </trkpt>
      <trkpt lat="59.8669158" lon="17.5260643">
        <ele>29.4575</ele>
        <time>2013-04-21T12:18:31Z</time>
      </trkpt>
      <trkpt lat="59.8668609" lon="17.5260243">
        <ele>29.9381</ele>
        <time>2013-04-21T12:18:32Z</time>
      </trkpt>
      <trkpt lat="59.8668056" lon="17.525982">
        <ele>29.9381</ele>
        <time>2013-04-21T12:18:33Z</time>
      </trkpt>
      <trkpt lat="59.8667502" lon="17.5259397">
        <ele>30.4188</ele>
        <time>2013-04-21T12:18:34Z</time>
      </trkpt>
      <trkpt lat="59.8666948" lon="17.5258988">
        <ele>30.4188</ele>
        <time>2013-04-21T12:18:35Z</time>
      </trkpt>
      <trkpt lat="59.8666396" lon="17.5258576">
        <ele>30.8995</ele>
        <time>2013-04-21T12:18:36Z</time>
      </trkpt>
      <trkpt lat="59.8665844" lon="17.5258165">
        <ele>30.8995</ele>
        <time>2013-04-21T12:18:37Z</time>
      </trkpt>
      <trkpt lat="59.866529" lon="17.5257767">
        <ele>30.8995</ele>
        <time>2013-04-21T12:18:38Z</time>
      </trkpt>
      <trkpt lat="59.866474" lon="17.5257353">
        <ele>31.3801</ele>
        <time>2013-04-21T12:18:39Z</time>
      </trkpt>
      <trkpt lat="59.866419" lon="17.5256919">
        <ele>31.3801</ele>
        <time>2013-04-21T12:18:40Z</time>
      </trkpt>
      <trkpt lat="59.8663641" lon="17.5256477">
        <ele>31.3801</ele>
        <time>2013-04-21T12:18:41Z</time>
      </trkpt>
      <trkpt lat="59.8663094" lon="17.5256016">
        <ele>31.8607</ele>
        <time>2013-04-21T12:18:42Z</time>
      </trkpt>
      <trkpt lat="59.866255" lon="17.5255571">
        <ele>31.8607</ele>
        <time>2013-04-21T12:18:43Z</time>
      </trkpt>
      <trkpt lat="59.8662012" lon="17.525514">
        <ele>31.8607</ele>
        <time>2013-04-21T12:18:44Z</time>
      </trkpt>
      <trkpt lat="59.8661488" lon="17.525465">
        <ele>32.3416</ele>
        <time>2013-04-21T12:18:45Z</time>
      </trkpt>
      <trkpt lat="59.8660984" lon="17.5254122">
        <ele>32.3416</ele>
        <time>2013-04-21T12:18:46Z</time>
      </trkpt>
      <trkpt lat="59.8660498" lon="17.5253554">
        <ele>32.8223</ele>
        <time>2013-04-21T12:18:47Z</time>
      </trkpt>
      <trkpt lat="59.8660026" lon="17.525294">
        <ele>32.8223</ele>
        <time>2013-04-21T12:18:48Z</time>
      </trkpt>
      <trkpt lat="59.8659566" lon="17.525229">
        <ele>32.8223</ele>
        <time>2013-04-21T12:18:49Z</time>
      </trkpt>
      <trkpt lat="59.865912" lon="17.5251603">
        <ele>33.3029</ele>
        <time>2013-04-21T12:18:50Z</time>
      </trkpt>
      <trkpt lat="59.8658696" lon="17.5250896">
        <ele>33.3029</ele>
        <time>2013-04-21T12:18:51Z</time>
      </trkpt>
      <trkpt lat="59.8658279" lon="17.5250181">
        <ele>33.3029</ele>
        <time>2013-04-21T12:18:52Z</time>
      </trkpt>
      <trkpt lat="59.8657866" lon="17.5249475">
        <ele>33.3029</ele>
        <time>2013-04-21T12:18:53Z</time>
      </trkpt>
      <trkpt lat="59.8657462" lon="17.5248773">
        <ele>33.3029</ele>
        <time>2013-04-21T12:18:54Z</time>
      </trkpt>
      <trkpt lat="59.8657049" lon="17.524807">
        <ele>33.3029</ele>
        <time>2013-04-21T12:18:55Z</time>
      </trkpt>
      <trkpt lat="59.8656632" lon="17.5247351">
        <ele>33.3029</ele>
        <time>2013-04-21T12:18:56Z</time>
      </trkpt>
      <trkpt lat="59.8656198" lon="17.5246623">
        <ele>33.3029</ele>
        <time>2013-04-21T12:18:57Z</time>
      </trkpt>
      <trkpt lat="59.8655758" lon="17.5245906">
        <ele>33.3029</ele>
        <time>2013-04-21T12:18:58Z</time>
      </trkpt>
      <trkpt lat="59.8655307" lon="17.5245183">
        <ele>33.3029</ele>
        <time>2013-04-21T12:18:59Z</time>
      </trkpt>
      <trkpt lat="59.8654853" lon="17.5244442">
        <ele>33.3029</ele>
        <time>2013-04-21T12:19:00Z</time>
      </trkpt>
      <trkpt lat="59.8654399" lon="17.5243678">
        <ele>33.3029</ele>
        <time>2013-04-21T12:19:01Z</time>
      </trkpt>
      <trkpt lat="59.865394" lon="17.5242901">
        <ele>32.8223</ele>
        <time>2013-04-21T12:19:02Z</time>
      </trkpt>
      <trkpt lat="59.8653468" lon="17.5242121">
        <ele>32.8223</ele>
        <time>2013-04-21T12:19:03Z</time>
      </trkpt>
      <trkpt lat="59.865299" lon="17.5241336">
        <ele>32.8223</ele>
        <time>2013-04-21T12:19:04Z</time>
      </trkpt>
      <trkpt lat="59.8652515" lon="17.5240543">
        <ele>32.3416</ele>
        <time>2013-04-21T12:19:05Z</time>
      </trkpt>
      <trkpt lat="59.8652039" lon="17.5239746">
        <ele>32.3416</ele>
        <time>2013-04-21T12:19:06Z</time>
      </trkpt>
      <trkpt lat="59.865156" lon="17.5238942">
        <ele>32.3416</ele>
        <time>2013-04-21T12:19:07Z</time>
      </trkpt>
      <trkpt lat="59.8651081" lon="17.5238141">
        <ele>31.8607</ele>
        <time>2013-04-21T12:19:08Z</time>
      </trkpt>
      <trkpt lat="59.8650598" lon="17.5237346">
        <ele>31.8607</ele>
        <time>2013-04-21T12:19:09Z</time>
      </trkpt>
      <trkpt lat="59.8650108" lon="17.5236548">
        <ele>31.8607</ele>
        <time>2013-04-21T12:19:10Z</time>
      </trkpt>
      <trkpt lat="59.8649623" lon="17.5235757">
        <ele>31.8607</ele>
        <time>2013-04-21T12:19:11Z</time>
      </trkpt>
      <trkpt lat="59.8649149" lon="17.5234952">
        <ele>31.8607</ele>
        <time>2013-04-21T12:19:12Z</time>
      </trkpt>
      <trkpt lat="59.8648677" lon="17.5234154">
        <ele>31.8607</ele>
        <time>2013-04-21T12:19:13Z</time>
      </trkpt>
      <trkpt lat="59.86482" lon="17.5233383">
        <ele>31.8607</ele>
        <time>2013-04-21T12:19:14Z</time>
      </trkpt>
      <trkpt lat="59.8647735" lon="17.5232606">
        <ele>31.3801</ele>
        <time>2013-04-21T12:19:15Z</time>
      </trkpt>
      <trkpt lat="59.8647274" lon="17.5231813">
        <ele>31.3801</ele>
        <time>2013-04-21T12:19:16Z</time>
      </trkpt>
      <trkpt lat="59.8646802" lon="17.5231028">
        <ele>31.3801</ele>
        <time>2013-04-21T12:19:17Z</time>
      </trkpt>
      <trkpt lat="59.8646315" lon="17.5230235">
        <ele>31.3801</ele>
        <time>2013-04-21T12:19:18Z</time>
      </trkpt>
      <trkpt lat="59.8645812" lon="17.5229343">
        <ele>32.3416</ele>
        <time>2013-04-21T12:19:19Z</time>
      </trkpt>
      <trkpt lat="59.864531" lon="17.5228473">
        <ele>32.8223</ele>
        <time>2013-04-21T12:19:20Z</time>
      </trkpt>
      <trkpt lat="59.8644812" lon="17.5227609">
        <ele>33.3029</ele>
        <time>2013-04-21T12:19:21Z</time>
      </trkpt>
      <trkpt lat="59.8644326" lon="17.5226754">
        <ele>33.7834</ele>
        <time>2013-04-21T12:19:22Z</time>
      </trkpt>
      <trkpt lat="59.8643849" lon="17.5225919">
        <ele>33.7834</ele>
        <time>2013-04-21T12:19:23Z</time>
      </trkpt>
      <trkpt lat="59.8643383" lon="17.5225146">
        <ele>34.2642</ele>
        <time>2013-04-21T12:19:24Z</time>
      </trkpt>
      <trkpt lat="59.8642926" lon="17.5224391">
        <ele>34.2642</ele>
        <time>2013-04-21T12:19:25Z</time>
      </trkpt>
      <trkpt lat="59.8642475" lon="17.5223646">
        <ele>34.2642</ele>
        <time>2013-04-21T12:19:26Z</time>
      </trkpt>
      <trkpt lat="59.864202" lon="17.5222904">
        <ele>34.2642</ele>
        <time>2013-04-21T12:19:27Z</time>
      </trkpt>
      <trkpt lat="59.8641565" lon="17.5222181">
        <ele>34.2642</ele>
        <time>2013-04-21T12:19:28Z</time>
      </trkpt>
      <trkpt lat="59.8641114" lon="17.5221481">
        <ele>34.2642</ele>
        <time>2013-04-21T12:19:29Z</time>
      </trkpt>
      <trkpt lat="59.8640663" lon="17.5220802">
        <ele>34.2642</ele>
        <time>2013-04-21T12:19:30Z</time>
      </trkpt>
      <trkpt lat="59.8640214" lon="17.5220138">
        <ele>34.2642</ele>
        <time>2013-04-21T12:19:31Z</time>
      </trkpt>
      <trkpt lat="59.8639752" lon="17.5219511">
        <ele>34.2642</ele>
        <time>2013-04-21T12:19:32Z</time>
      </trkpt>
      <trkpt lat="59.8639295" lon="17.5218948">
        <ele>34.7449</ele>
        <time>2013-04-21T12:19:33Z</time>
      </trkpt>
      <trkpt lat="59.8638849" lon="17.5218384">
        <ele>34.7449</ele>
        <time>2013-04-21T12:19:34Z</time>
      </trkpt>
      <trkpt lat="59.8638384" lon="17.5217823">
        <ele>34.7449</ele>
        <time>2013-04-21T12:19:35Z</time>
      </trkpt>
      <trkpt lat="59.8637912" lon="17.5217336">
        <ele>35.2255</ele>
        <time>2013-04-21T12:19:36Z</time>
      </trkpt>
      <trkpt lat="59.8637406" lon="17.5216907">
        <ele>35.7061</ele>
        <time>2013-04-21T12:19:37Z</time>
      </trkpt>
      <trkpt lat="59.8636859" lon="17.5216545">
        <ele>36.1868</ele>
        <time>2013-04-21T12:19:38Z</time>
      </trkpt>
      <trkpt lat="59.8636308" lon="17.5216237">
        <ele>36.1868</ele>
        <time>2013-04-21T12:19:39Z</time>
      </trkpt>
      <trkpt lat="59.8635768" lon="17.521602">
        <ele>36.6675</ele>
        <time>2013-04-21T12:19:40Z</time>
      </trkpt>
      <trkpt lat="59.8635219" lon="17.5215865">
        <ele>36.6675</ele>
        <time>2013-04-21T12:19:41Z</time>
      </trkpt>
      <trkpt lat="59.8634509" lon="17.5216169">
        <ele>36.6675</ele>
        <time>2013-04-21T12:19:42Z</time>
      </trkpt>
      <trkpt lat="59.8633883" lon="17.5216352">
        <ele>36.6675</ele>
        <time>2013-04-21T12:19:43Z</time>
      </trkpt>
      <trkpt lat="59.8633266" lon="17.5216257">
        <ele>36.6675</ele>
        <time>2013-04-21T12:19:44Z</time>
      </trkpt>
      <trkpt lat="59.8632751" lon="17.5216218">
        <ele>36.6675</ele>
        <time>2013-04-21T12:19:45Z</time>
      </trkpt>
      <trkpt lat="59.8632184" lon="17.5216332">
        <ele>36.1868</ele>
        <time>2013-04-21T12:19:46Z</time>
      </trkpt>
      <trkpt lat="59.8631679" lon="17.5216423">
        <ele>35.7061</ele>
        <time>2013-04-21T12:19:47Z</time>
      </trkpt>
      <trkpt lat="59.8631188" lon="17.5216446">
        <ele>35.7061</ele>
        <time>2013-04-21T12:19:48Z</time>
      </trkpt>
      <trkpt lat="59.8630716" lon="17.5216408">
        <ele>35.7061</ele>
        <time>2013-04-21T12:19:49Z</time>
      </trkpt>
      <trkpt lat="59.8630246" lon="17.5216366">
        <ele>35.7061</ele>
        <time>2013-04-21T12:19:50Z</time>
      </trkpt>
      <trkpt lat="59.8629759" lon="17.5216384">
        <ele>35.7061</ele>
        <time>2013-04-21T12:19:51Z</time>
      </trkpt>
      <trkpt lat="59.8629215" lon="17.5216449">
        <ele>35.2255</ele>
        <time>2013-04-21T12:19:52Z</time>
      </trkpt>
      <trkpt lat="59.8628691" lon="17.521646">
        <ele>35.2255</ele>
        <time>2013-04-21T12:19:53Z</time>
      </trkpt>
      <trkpt lat="59.8628154" lon="17.521642">
        <ele>34.7449</ele>
        <time>2013-04-21T12:19:54Z</time>
      </trkpt>
      <trkpt lat="59.8627568" lon="17.5216326">
        <ele>34.7449</ele>
        <time>2013-04-21T12:19:55Z</time>
      </trkpt>
      <trkpt lat="59.8626996" lon="17.5216205">
        <ele>34.7449</ele>
        <time>2013-04-21T12:19:56Z</time>
      </trkpt>
      <trkpt lat="59.8626463" lon="17.5216079">
        <ele>34.7449</ele>
        <time>2013-04-21T12:19:57Z</time>
      </trkpt>
      <trkpt lat="59.8625952" lon="17.5215944">
        <ele>34.7449</ele>
        <time>2013-04-21T12:19:58Z</time>
      </trkpt>
      <trkpt lat="59.8625456" lon="17.5215803">
        <ele>34.2642</ele>
        <time>2013-04-21T12:19:59Z</time>
      </trkpt>
      <trkpt lat="59.8624974" lon="17.5215667">
        <ele>33.7834</ele>
        <time>2013-04-21T12:20:00Z</time>
      </trkpt>
      <trkpt lat="59.8624506" lon="17.5215525">
        <ele>33.7834</ele>
        <time>2013-04-21T12:20:01Z</time>
      </trkpt>
      <trkpt lat="59.862405" lon="17.5215384">
        <ele>33.3029</ele>
        <time>2013-04-21T12:20:02Z</time>
      </trkpt>
      <trkpt lat="59.8623594" lon="17.5215185">
        <ele>33.3029</ele>
        <time>2013-04-21T12:20:03Z</time>
      </trkpt>
      <trkpt lat="59.8623133" lon="17.5214947">
        <ele>33.3029</ele>
        <time>2013-04-21T12:20:04Z</time>
      </trkpt>
      <trkpt lat="59.8622678" lon="17.52147">
        <ele>33.3029</ele>
        <time>2013-04-21T12:20:05Z</time>
      </trkpt>
      <trkpt lat="59.8622227" lon="17.5214436">
        <ele>33.7834</ele>
        <time>2013-04-21T12:20:06Z</time>
      </trkpt>
      <trkpt lat="59.8621788" lon="17.521415">
        <ele>33.3029</ele>
        <time>2013-04-21T12:20:07Z</time>
      </trkpt>
      <trkpt lat="59.8621378" lon="17.5213845">
        <ele>33.3029</ele>
        <time>2013-04-21T12:20:08Z</time>
      </trkpt>
      <trkpt lat="59.862098" lon="17.5213527">
        <ele>33.3029</ele>
        <time>2013-04-21T12:20:09Z</time>
      </trkpt>
      <trkpt lat="59.8620573" lon="17.5213196">
        <ele>32.8223</ele>
        <time>2013-04-21T12:20:10Z</time>
      </trkpt>
      <trkpt lat="59.8620153" lon="17.5212857">
        <ele>32.8223</ele>
        <time>2013-04-21T12:20:11Z</time>
      </trkpt>
      <trkpt lat="59.8619724" lon="17.5212481">
        <ele>32.8223</ele>
        <time>2013-04-21T12:20:12Z</time>
      </trkpt>
      <trkpt lat="59.8619288" lon="17.5212089">
        <ele>32.8223</ele>
        <time>2013-04-21T12:20:13Z</time>
      </trkpt>
      <trkpt lat="59.8618843" lon="17.5211727">
        <ele>32.8223</ele>
        <time>2013-04-21T12:20:14Z</time>
      </trkpt>
      <trkpt lat="59.861839" lon="17.5211351">
        <ele>32.8223</ele>
        <time>2013-04-21T12:20:15Z</time>
      </trkpt>
      <trkpt lat="59.8617941" lon="17.5210959">
        <ele>32.8223</ele>
        <time>2013-04-21T12:20:16Z</time>
      </trkpt>
      <trkpt lat="59.8617485" lon="17.5210572">
        <ele>32.8223</ele>
        <time>2013-04-21T12:20:17Z</time>
      </trkpt>
      <trkpt lat="59.8617015" lon="17.5210241">
        <ele>32.3416</ele>
        <time>2013-04-21T12:20:18Z</time>
      </trkpt>
      <trkpt lat="59.8616539" lon="17.5209954">
        <ele>32.8223</ele>
        <time>2013-04-21T12:20:19Z</time>
      </trkpt>
      <trkpt lat="59.8616071" lon="17.5209663">
        <ele>32.3416</ele>
        <time>2013-04-21T12:20:20Z</time>
      </trkpt>
      <trkpt lat="59.8615602" lon="17.5209394">
        <ele>32.3416</ele>
        <time>2013-04-21T12:20:21Z</time>
      </trkpt>
      <trkpt lat="59.8615125" lon="17.5209182">
        <ele>32.3416</ele>
        <time>2013-04-21T12:20:22Z</time>
      </trkpt>
      <trkpt lat="59.8614614" lon="17.5208886">
        <ele>33.3029</ele>
        <time>2013-04-21T12:20:23Z</time>
      </trkpt>
      <trkpt lat="59.8614116" lon="17.5208715">
        <ele>33.3029</ele>
        <time>2013-04-21T12:20:24Z</time>
      </trkpt>
      <trkpt lat="59.8613608" lon="17.5208596">
        <ele>33.3029</ele>
        <time>2013-04-21T12:20:25Z</time>
      </trkpt>
      <trkpt lat="59.8613093" lon="17.5208573">
        <ele>33.3029</ele>
        <time>2013-04-21T12:20:26Z</time>
      </trkpt>
      <trkpt lat="59.8612566" lon="17.5208577">
        <ele>33.3029</ele>
        <time>2013-04-21T12:20:27Z</time>
      </trkpt>
      <trkpt lat="59.861202" lon="17.5208561">
        <ele>33.3029</ele>
        <time>2013-04-21T12:20:28Z</time>
      </trkpt>
      <trkpt lat="59.8611469" lon="17.5208567">
        <ele>33.3029</ele>
        <time>2013-04-21T12:20:29Z</time>
      </trkpt>
      <trkpt lat="59.8610909" lon="17.5208625">
        <ele>33.3029</ele>
        <time>2013-04-21T12:20:30Z</time>
      </trkpt>
      <trkpt lat="59.8610339" lon="17.5208707">
        <ele>33.7834</ele>
        <time>2013-04-21T12:20:31Z</time>
      </trkpt>
      <trkpt lat="59.8609767" lon="17.5208804">
        <ele>33.7834</ele>
        <time>2013-04-21T12:20:32Z</time>
      </trkpt>
      <trkpt lat="59.8609211" lon="17.5209022">
        <ele>33.3029</ele>
        <time>2013-04-21T12:20:33Z</time>
      </trkpt>
      <trkpt lat="59.8608646" lon="17.5209328">
        <ele>33.3029</ele>
        <time>2013-04-21T12:20:34Z</time>
      </trkpt>
      <trkpt lat="59.8608052" lon="17.520978">
        <ele>32.3416</ele>
        <time>2013-04-21T12:20:35Z</time>
      </trkpt>
      <trkpt lat="59.8607463" lon="17.521027">
        <ele>32.3416</ele>
        <time>2013-04-21T12:20:36Z</time>
      </trkpt>
      <trkpt lat="59.8606899" lon="17.5210752">
        <ele>31.8607</ele>
        <time>2013-04-21T12:20:37Z</time>
      </trkpt>
      <trkpt lat="59.8606319" lon="17.5211329">
        <ele>31.8607</ele>
        <time>2013-04-21T12:20:38Z</time>
      </trkpt>
      <trkpt lat="59.8605744" lon="17.5212002">
        <ele>31.8607</ele>
        <time>2013-04-21T12:20:39Z</time>
      </trkpt>
      <trkpt lat="59.8605174" lon="17.5212741">
        <ele>31.3801</ele>
        <time>2013-04-21T12:20:40Z</time>
      </trkpt>
      <trkpt lat="59.8604639" lon="17.5213517">
        <ele>30.8995</ele>
        <time>2013-04-21T12:20:41Z</time>
      </trkpt>
      <trkpt lat="59.8604097" lon="17.5214317">
        <ele>30.8995</ele>
        <time>2013-04-21T12:20:42Z</time>
      </trkpt>
      <trkpt lat="59.8603557" lon="17.5215133">
        <ele>30.8995</ele>
        <time>2013-04-21T12:20:43Z</time>
      </trkpt>
      <trkpt lat="59.8602984" lon="17.5215913">
        <ele>30.8995</ele>
        <time>2013-04-21T12:20:44Z</time>
      </trkpt>
      <trkpt lat="59.8602408" lon="17.5216674">
        <ele>30.4188</ele>
        <time>2013-04-21T12:20:45Z</time>
      </trkpt>
      <trkpt lat="59.8601857" lon="17.5217397">
        <ele>30.4188</ele>
        <time>2013-04-21T12:20:46Z</time>
      </trkpt>
      <trkpt lat="59.8601313" lon="17.5218083">
        <ele>30.4188</ele>
        <time>2013-04-21T12:20:47Z</time>
      </trkpt>
      <trkpt lat="59.8600757" lon="17.521872">
        <ele>30.4188</ele>
        <time>2013-04-21T12:20:48Z</time>
      </trkpt>
      <trkpt lat="59.8600233" lon="17.5219278">
        <ele>30.4188</ele>
        <time>2013-04-21T12:20:49Z</time>
      </trkpt>
      <trkpt lat="59.8599694" lon="17.5219853">
        <ele>30.4188</ele>
        <time>2013-04-21T12:20:50Z</time>
      </trkpt>
      <trkpt lat="59.859915" lon="17.5220408">
        <ele>30.4188</ele>
        <time>2013-04-21T12:20:51Z</time>
      </trkpt>
      <trkpt lat="59.8598589" lon="17.5221034">
        <ele>29.9381</ele>
        <time>2013-04-21T12:20:52Z</time>
      </trkpt>
      <trkpt lat="59.859807" lon="17.5221744">
        <ele>29.9381</ele>
        <time>2013-04-21T12:20:53Z</time>
      </trkpt>
      <trkpt lat="59.8597534" lon="17.5222569">
        <ele>29.4575</ele>
        <time>2013-04-21T12:20:54Z</time>
      </trkpt>
      <trkpt lat="59.8596962" lon="17.5223511">
        <ele>29.4575</ele>
        <time>2013-04-21T12:20:55Z</time>
      </trkpt>
      <trkpt lat="59.8596405" lon="17.5224476">
        <ele>29.4575</ele>
        <time>2013-04-21T12:20:56Z</time>
      </trkpt>
      <trkpt lat="59.8595804" lon="17.5225531">
        <ele>29.4575</ele>
        <time>2013-04-21T12:20:57Z</time>
      </trkpt>
      <trkpt lat="59.8595159" lon="17.5226614">
        <ele>29.4575</ele>
        <time>2013-04-21T12:20:58Z</time>
      </trkpt>
      <trkpt lat="59.8594534" lon="17.5227707">
        <ele>29.4575</ele>
        <time>2013-04-21T12:20:59Z</time>
      </trkpt>
      <trkpt lat="59.8593923" lon="17.522876">
        <ele>29.4575</ele>
        <time>2013-04-21T12:21:00Z</time>
      </trkpt>
      <trkpt lat="59.8593334" lon="17.5229793">
        <ele>29.9381</ele>
        <time>2013-04-21T12:21:01Z</time>
      </trkpt>
      <trkpt lat="59.8592737" lon="17.5230803">
        <ele>29.4575</ele>
        <time>2013-04-21T12:21:02Z</time>
      </trkpt>
      <trkpt lat="59.8592166" lon="17.5231782">
        <ele>29.4575</ele>
        <time>2013-04-21T12:21:03Z</time>
      </trkpt>
      <trkpt lat="59.8591603" lon="17.5232758">
        <ele>28.9769</ele>
        <time>2013-04-21T12:21:04Z</time>
      </trkpt>
      <trkpt lat="59.8591032" lon="17.5233726">
        <ele>28.9769</ele>
        <time>2013-04-21T12:21:05Z</time>
      </trkpt>
      <trkpt lat="59.8590442" lon="17.5234721">
        <ele>28.9769</ele>
        <time>2013-04-21T12:21:06Z</time>
      </trkpt>
      <trkpt lat="59.8589877" lon="17.5235672">
        <ele>28.9769</ele>
        <time>2013-04-21T12:21:07Z</time>
      </trkpt>
      <trkpt lat="59.8589275" lon="17.5236643">
        <ele>28.4962</ele>
        <time>2013-04-21T12:21:08Z</time>
      </trkpt>
      <trkpt lat="59.8588645" lon="17.5237547">
        <ele>28.4962</ele>
        <time>2013-04-21T12:21:09Z</time>
      </trkpt>
      <trkpt lat="59.8587957" lon="17.5238329">
        <ele>28.4962</ele>
        <time>2013-04-21T12:21:10Z</time>
      </trkpt>
      <trkpt lat="59.8587228" lon="17.5238946">
        <ele>28.4962</ele>
        <time>2013-04-21T12:21:11Z</time>
      </trkpt>
      <trkpt lat="59.858649" lon="17.5239338">
        <ele>28.4962</ele>
        <time>2013-04-21T12:21:12Z</time>
      </trkpt>
      <trkpt lat="59.8585733" lon="17.5239606">
        <ele>28.4962</ele>
        <time>2013-04-21T12:21:13Z</time>
      </trkpt>
      <trkpt lat="59.8584993" lon="17.5239684">
        <ele>28.4962</ele>
        <time>2013-04-21T12:21:14Z</time>
      </trkpt>
      <trkpt lat="59.8584263" lon="17.5239602">
        <ele>28.4962</ele>
        <time>2013-04-21T12:21:15Z</time>
      </trkpt>
      <trkpt lat="59.8583552" lon="17.5239398">
        <ele>28.0155</ele>
        <time>2013-04-21T12:21:16Z</time>
      </trkpt>
      <trkpt lat="59.8582812" lon="17.52392">
        <ele>27.0543</ele>
        <time>2013-04-21T12:21:17Z</time>
      </trkpt>
      <trkpt lat="59.8582085" lon="17.5239">
        <ele>26.5736</ele>
        <time>2013-04-21T12:21:18Z</time>
      </trkpt>
      <trkpt lat="59.8581366" lon="17.5238804">
        <ele>26.0929</ele>
        <time>2013-04-21T12:21:19Z</time>
      </trkpt>
      <trkpt lat="59.8580641" lon="17.5238631">
        <ele>25.1317</ele>
        <time>2013-04-21T12:21:20Z</time>
      </trkpt>
      <trkpt lat="59.85799" lon="17.5238218">
        <ele>24.651</ele>
        <time>2013-04-21T12:21:21Z</time>
      </trkpt>
      <trkpt lat="59.8579184" lon="17.5237969">
        <ele>24.651</ele>
        <time>2013-04-21T12:21:22Z</time>
      </trkpt>
      <trkpt lat="59.8578475" lon="17.5237731">
        <ele>24.1703</ele>
        <time>2013-04-21T12:21:23Z</time>
      </trkpt>
      <trkpt lat="59.8577772" lon="17.5237478">
        <ele>23.6896</ele>
        <time>2013-04-21T12:21:24Z</time>
      </trkpt>
      <trkpt lat="59.8577077" lon="17.5237245">
        <ele>23.6896</ele>
        <time>2013-04-21T12:21:25Z</time>
      </trkpt>
      <trkpt lat="59.8576363" lon="17.5237">
        <ele>23.6896</ele>
        <time>2013-04-21T12:21:26Z</time>
      </trkpt>
      <trkpt lat="59.8575675" lon="17.5236664">
        <ele>23.6896</ele>
        <time>2013-04-21T12:21:27Z</time>
      </trkpt>
      <trkpt lat="59.8574994" lon="17.5236311">
        <ele>23.6896</ele>
        <time>2013-04-21T12:21:28Z</time>
      </trkpt>
      <trkpt lat="59.8574301" lon="17.5235959">
        <ele>23.6896</ele>
        <time>2013-04-21T12:21:29Z</time>
      </trkpt>
      <trkpt lat="59.8573596" lon="17.5235571">
        <ele>24.1703</ele>
        <time>2013-04-21T12:21:30Z</time>
      </trkpt>
      <trkpt lat="59.8572913" lon="17.5235212">
        <ele>23.6896</ele>
        <time>2013-04-21T12:21:31Z</time>
      </trkpt>
      <trkpt lat="59.8572253" lon="17.5234892">
        <ele>23.209</ele>
        <time>2013-04-21T12:21:32Z</time>
      </trkpt>
      <trkpt lat="59.8571593" lon="17.5234633">
        <ele>23.6896</ele>
        <time>2013-04-21T12:21:33Z</time>
      </trkpt>
      <trkpt lat="59.857093" lon="17.5234344">
        <ele>22.7283</ele>
        <time>2013-04-21T12:21:34Z</time>
      </trkpt>
      <trkpt lat="59.857028" lon="17.5234064">
        <ele>22.7283</ele>
        <time>2013-04-21T12:21:35Z</time>
      </trkpt>
      <trkpt lat="59.8569632" lon="17.5233818">
        <ele>22.7283</ele>
        <time>2013-04-21T12:21:36Z</time>
      </trkpt>
      <trkpt lat="59.8568986" lon="17.5233631">
        <ele>22.2476</ele>
        <time>2013-04-21T12:21:37Z</time>
      </trkpt>
      <trkpt lat="59.8568347" lon="17.5233488">
        <ele>21.2864</ele>
        <time>2013-04-21T12:21:38Z</time>
      </trkpt>
      <trkpt lat="59.8567721" lon="17.5233328">
        <ele>21.767</ele>
        <time>2013-04-21T12:21:39Z</time>
      </trkpt>
      <trkpt lat="59.8567105" lon="17.5233165">
        <ele>21.767</ele>
        <time>2013-04-21T12:21:40Z</time>
      </trkpt>
      <trkpt lat="59.8566505" lon="17.5233066">
        <ele>22.2476</ele>
        <time>2013-04-21T12:21:41Z</time>
      </trkpt>
      <trkpt lat="59.8565899" lon="17.5232934">
        <ele>22.2476</ele>
        <time>2013-04-21T12:21:42Z</time>
      </trkpt>
      <trkpt lat="59.8565298" lon="17.5232877">
        <ele>22.2476</ele>
        <time>2013-04-21T12:21:43Z</time>
      </trkpt>
      <trkpt lat="59.8564707" lon="17.5232841">
        <ele>22.2476</ele>
        <time>2013-04-21T12:21:44Z</time>
      </trkpt>
      <trkpt lat="59.8564104" lon="17.5232746">
        <ele>21.767</ele>
        <time>2013-04-21T12:21:45Z</time>
      </trkpt>
      <trkpt lat="59.856348" lon="17.5232581">
        <ele>21.767</ele>
        <time>2013-04-21T12:21:46Z</time>
      </trkpt>
      <trkpt lat="59.8562837" lon="17.5232365">
        <ele>21.767</ele>
        <time>2013-04-21T12:21:47Z</time>
      </trkpt>
      <trkpt lat="59.8562173" lon="17.5232067">
        <ele>22.2476</ele>
        <time>2013-04-21T12:21:48Z</time>
      </trkpt>
      <trkpt lat="59.8561494" lon="17.5231722">
        <ele>22.7283</ele>
        <time>2013-04-21T12:21:49Z</time>
      </trkpt>
      <trkpt lat="59.8560825" lon="17.5231362">
        <ele>23.209</ele>
        <time>2013-04-21T12:21:50Z</time>
      </trkpt>
      <trkpt lat="59.8560165" lon="17.523096">
        <ele>23.6896</ele>
        <time>2013-04-21T12:21:51Z</time>
      </trkpt>
      <trkpt lat="59.8559491" lon="17.5230519">
        <ele>24.1703</ele>
        <time>2013-04-21T12:21:52Z</time>
      </trkpt>
      <trkpt lat="59.8558816" lon="17.5230112">
        <ele>25.1317</ele>
        <time>2013-04-21T12:21:53Z</time>
      </trkpt>
      <trkpt lat="59.8558145" lon="17.5229686">
        <ele>25.6123</ele>
        <time>2013-04-21T12:21:54Z</time>
      </trkpt>
      <trkpt lat="59.8557492" lon="17.5229257">
        <ele>26.0929</ele>
        <time>2013-04-21T12:21:55Z</time>
      </trkpt>
      <trkpt lat="59.8556847" lon="17.522885">
        <ele>27.0543</ele>
        <time>2013-04-21T12:21:56Z</time>
      </trkpt>
      <trkpt lat="59.85562" lon="17.5228487">
        <ele>27.5349</ele>
        <time>2013-04-21T12:21:57Z</time>
      </trkpt>
      <trkpt lat="59.8555548" lon="17.522818">
        <ele>28.0155</ele>
        <time>2013-04-21T12:21:58Z</time>
      </trkpt>
      <trkpt lat="59.8554891" lon="17.522792">
        <ele>28.4962</ele>
        <time>2013-04-21T12:21:59Z</time>
      </trkpt>
      <trkpt lat="59.8554231" lon="17.5227734">
        <ele>28.4962</ele>
        <time>2013-04-21T12:22:00Z</time>
      </trkpt>
      <trkpt lat="59.8553565" lon="17.5227619">
        <ele>28.9769</ele>
        <time>2013-04-21T12:22:01Z</time>
      </trkpt>
      <trkpt lat="59.8552901" lon="17.5227573">
        <ele>28.9769</ele>
        <time>2013-04-21T12:22:02Z</time>
      </trkpt>
      <trkpt lat="59.8552243" lon="17.5227639">
        <ele>28.9769</ele>
        <time>2013-04-21T12:22:03Z</time>
      </trkpt>
      <trkpt lat="59.8551589" lon="17.522779">
        <ele>28.9769</ele>
        <time>2013-04-21T12:22:04Z</time>
      </trkpt>
      <trkpt lat="59.8550943" lon="17.5228011">
        <ele>29.4575</ele>
        <time>2013-04-21T12:22:05Z</time>
      </trkpt>
      <trkpt lat="59.8550302" lon="17.5228286">
        <ele>29.4575</ele>
        <time>2013-04-21T12:22:06Z</time>
      </trkpt>
      <trkpt lat="59.8549664" lon="17.5228588">
        <ele>29.4575</ele>
        <time>2013-04-21T12:22:07Z</time>
      </trkpt>
      <trkpt lat="59.8549027" lon="17.522892">
        <ele>29.4575</ele>
        <time>2013-04-21T12:22:08Z</time>
      </trkpt>
      <trkpt lat="59.8548404" lon="17.5229343">
        <ele>28.9769</ele>
        <time>2013-04-21T12:22:09Z</time>
      </trkpt>
      <trkpt lat="59.8547787" lon="17.5229804">
        <ele>28.9769</ele>
        <time>2013-04-21T12:22:10Z</time>
      </trkpt>
      <trkpt lat="59.8547183" lon="17.5230328">
        <ele>28.4962</ele>
        <time>2013-04-21T12:22:11Z</time>
      </trkpt>
      <trkpt lat="59.8546588" lon="17.5230954">
        <ele>28.4962</ele>
        <time>2013-04-21T12:22:12Z</time>
      </trkpt>
      <trkpt lat="59.854601" lon="17.5231634">
        <ele>28.4962</ele>
        <time>2013-04-21T12:22:13Z</time>
      </trkpt>
      <trkpt lat="59.8545453" lon="17.5232385">
        <ele>28.0155</ele>
        <time>2013-04-21T12:22:14Z</time>
      </trkpt>
      <trkpt lat="59.854491" lon="17.5233212">
        <ele>28.0155</ele>
        <time>2013-04-21T12:22:15Z</time>
      </trkpt>
      <trkpt lat="59.8544366" lon="17.5234063">
        <ele>28.0155</ele>
        <time>2013-04-21T12:22:16Z</time>
      </trkpt>
      <trkpt lat="59.8543819" lon="17.5234945">
        <ele>27.5349</ele>
        <time>2013-04-21T12:22:17Z</time>
      </trkpt>
      <trkpt lat="59.8543265" lon="17.5235875">
        <ele>27.5349</ele>
        <time>2013-04-21T12:22:18Z</time>
      </trkpt>
      <trkpt lat="59.8542724" lon="17.5236853">
        <ele>27.0543</ele>
        <time>2013-04-21T12:22:19Z</time>
      </trkpt>
      <trkpt lat="59.8542204" lon="17.5237834">
        <ele>27.0543</ele>
        <time>2013-04-21T12:22:20Z</time>
      </trkpt>
      <trkpt lat="59.8541678" lon="17.5238763">
        <ele>26.5736</ele>
        <time>2013-04-21T12:22:21Z</time>
      </trkpt>
      <trkpt lat="59.8541157" lon="17.5239651">
        <ele>26.5736</ele>
        <time>2013-04-21T12:22:22Z</time>
      </trkpt>
      <trkpt lat="59.8540639" lon="17.5240534">
        <ele>26.0929</ele>
        <time>2013-04-21T12:22:23Z</time>
      </trkpt>
      <trkpt lat="59.8540102" lon="17.5241435">
        <ele>26.0929</ele>
        <time>2013-04-21T12:22:24Z</time>
      </trkpt>
      <trkpt lat="59.8539562" lon="17.5242346">
        <ele>26.0929</ele>
        <time>2013-04-21T12:22:25Z</time>
      </trkpt>
      <trkpt lat="59.8539023" lon="17.5243288">
        <ele>26.5736</ele>
        <time>2013-04-21T12:22:26Z</time>
      </trkpt>
      <trkpt lat="59.8538502" lon="17.5244313">
        <ele>26.5736</ele>
        <time>2013-04-21T12:22:27Z</time>
      </trkpt>
      <trkpt lat="59.853801" lon="17.5245438">
        <ele>26.5736</ele>
        <time>2013-04-21T12:22:28Z</time>
      </trkpt>
      <trkpt lat="59.8537527" lon="17.5246594">
        <ele>26.5736</ele>
        <time>2013-04-21T12:22:29Z</time>
      </trkpt>
      <trkpt lat="59.8537052" lon="17.5247749">
        <ele>26.0929</ele>
        <time>2013-04-21T12:22:30Z</time>
      </trkpt>
      <trkpt lat="59.8536609" lon="17.5248912">
        <ele>26.0929</ele>
        <time>2013-04-21T12:22:31Z</time>
      </trkpt>
      <trkpt lat="59.853617" lon="17.5250075">
        <ele>26.0929</ele>
        <time>2013-04-21T12:22:32Z</time>
      </trkpt>
      <trkpt lat="59.8535723" lon="17.5251212">
        <ele>26.0929</ele>
        <time>2013-04-21T12:22:33Z</time>
      </trkpt>
      <trkpt lat="59.8535284" lon="17.525235">
        <ele>25.6123</ele>
        <time>2013-04-21T12:22:34Z</time>
      </trkpt>
      <trkpt lat="59.8534853" lon="17.5253495">
        <ele>25.6123</ele>
        <time>2013-04-21T12:22:35Z</time>
      </trkpt>
      <trkpt lat="59.8534407" lon="17.5254644">
        <ele>25.6123</ele>
        <time>2013-04-21T12:22:36Z</time>
      </trkpt>
      <trkpt lat="59.8533964" lon="17.5255815">
        <ele>25.6123</ele>
        <time>2013-04-21T12:22:37Z</time>
      </trkpt>
      <trkpt lat="59.8533534" lon="17.5257005">
        <ele>25.6123</ele>
        <time>2013-04-21T12:22:38Z</time>
      </trkpt>
      <trkpt lat="59.8533099" lon="17.5258193">
        <ele>25.6123</ele>
        <time>2013-04-21T12:22:39Z</time>
      </trkpt>
      <trkpt lat="59.8532652" lon="17.5259366">
        <ele>25.6123</ele>
        <time>2013-04-21T12:22:40Z</time>
      </trkpt>
      <trkpt lat="59.8532195" lon="17.5260526">
        <ele>25.6123</ele>
        <time>2013-04-21T12:22:41Z</time>
      </trkpt>
      <trkpt lat="59.8531726" lon="17.5261673">
        <ele>25.6123</ele>
        <time>2013-04-21T12:22:42Z</time>
      </trkpt>
      <trkpt lat="59.853126" lon="17.5262838">
        <ele>25.1317</ele>
        <time>2013-04-21T12:22:43Z</time>
      </trkpt>
      <trkpt lat="59.8530784" lon="17.5264014">
        <ele>25.6123</ele>
        <time>2013-04-21T12:22:44Z</time>
      </trkpt>
      <trkpt lat="59.8530287" lon="17.5265166">
        <ele>25.1317</ele>
        <time>2013-04-21T12:22:45Z</time>
      </trkpt>
      <trkpt lat="59.8529758" lon="17.5266281">
        <ele>25.1317</ele>
        <time>2013-04-21T12:22:46Z</time>
      </trkpt>
      <trkpt lat="59.8529206" lon="17.5267371">
        <ele>25.1317</ele>
        <time>2013-04-21T12:22:47Z</time>
      </trkpt>
      <trkpt lat="59.8528633" lon="17.5268448">
        <ele>25.1317</ele>
        <time>2013-04-21T12:22:48Z</time>
      </trkpt>
      <trkpt lat="59.8528042" lon="17.5269509">
        <ele>25.1317</ele>
        <time>2013-04-21T12:22:49Z</time>
      </trkpt>
      <trkpt lat="59.8527448" lon="17.5270547">
        <ele>25.1317</ele>
        <time>2013-04-21T12:22:50Z</time>
      </trkpt>
      <trkpt lat="59.8526855" lon="17.527156">
        <ele>25.1317</ele>
        <time>2013-04-21T12:22:51Z</time>
      </trkpt>
      <trkpt lat="59.8526265" lon="17.5272563">
        <ele>25.1317</ele>
        <time>2013-04-21T12:22:52Z</time>
      </trkpt>
      <trkpt lat="59.8525669" lon="17.5273567">
        <ele>25.1317</ele>
        <time>2013-04-21T12:22:53Z</time>
      </trkpt>
      <trkpt lat="59.8525072" lon="17.5274567">
        <ele>25.1317</ele>
        <time>2013-04-21T12:22:54Z</time>
      </trkpt>
      <trkpt lat="59.852448" lon="17.5275559">
        <ele>25.1317</ele>
        <time>2013-04-21T12:22:55Z</time>
      </trkpt>
      <trkpt lat="59.8523881" lon="17.5276502">
        <ele>25.1317</ele>
        <time>2013-04-21T12:22:56Z</time>
      </trkpt>
      <trkpt lat="59.8523271" lon="17.5277384">
        <ele>25.1317</ele>
        <time>2013-04-21T12:22:57Z</time>
      </trkpt>
      <trkpt lat="59.8522659" lon="17.5278176">
        <ele>25.1317</ele>
        <time>2013-04-21T12:22:58Z</time>
      </trkpt>
      <trkpt lat="59.8522044" lon="17.5278924">
        <ele>25.1317</ele>
        <time>2013-04-21T12:22:59Z</time>
      </trkpt>
      <trkpt lat="59.8521438" lon="17.5279663">
        <ele>25.1317</ele>
        <time>2013-04-21T12:23:00Z</time>
      </trkpt>
      <trkpt lat="59.8520837" lon="17.5280373">
        <ele>25.1317</ele>
        <time>2013-04-21T12:23:01Z</time>
      </trkpt>
      <trkpt lat="59.8520246" lon="17.5281098">
        <ele>25.1317</ele>
        <time>2013-04-21T12:23:02Z</time>
      </trkpt>
      <trkpt lat="59.8519661" lon="17.5281874">
        <ele>25.1317</ele>
        <time>2013-04-21T12:23:03Z</time>
      </trkpt>
      <trkpt lat="59.8519066" lon="17.5282652">
        <ele>25.1317</ele>
        <time>2013-04-21T12:23:04Z</time>
      </trkpt>
      <trkpt lat="59.851846" lon="17.5283434">
        <ele>25.1317</ele>
        <time>2013-04-21T12:23:05Z</time>
      </trkpt>
      <trkpt lat="59.8517857" lon="17.5284253">
        <ele>24.651</ele>
        <time>2013-04-21T12:23:06Z</time>
      </trkpt>
      <trkpt lat="59.8517253" lon="17.5285092">
        <ele>24.651</ele>
        <time>2013-04-21T12:23:07Z</time>
      </trkpt>
      <trkpt lat="59.851665" lon="17.5285935">
        <ele>24.651</ele>
        <time>2013-04-21T12:23:08Z</time>
      </trkpt>
      <trkpt lat="59.8516059" lon="17.5286779">
        <ele>24.651</ele>
        <time>2013-04-21T12:23:09Z</time>
      </trkpt>
      <trkpt lat="59.8515486" lon="17.5287598">
        <ele>24.651</ele>
        <time>2013-04-21T12:23:10Z</time>
      </trkpt>
      <trkpt lat="59.851492" lon="17.5288375">
        <ele>24.651</ele>
        <time>2013-04-21T12:23:11Z</time>
      </trkpt>
      <trkpt lat="59.8514348" lon="17.5289143">
        <ele>24.651</ele>
        <time>2013-04-21T12:23:12Z</time>
      </trkpt>
      <trkpt lat="59.8513782" lon="17.5289925">
        <ele>24.651</ele>
        <time>2013-04-21T12:23:13Z</time>
      </trkpt>
      <trkpt lat="59.8513215" lon="17.5290718">
        <ele>24.651</ele>
        <time>2013-04-21T12:23:14Z</time>
      </trkpt>
      <trkpt lat="59.8512647" lon="17.5291484">
        <ele>24.651</ele>
        <time>2013-04-21T12:23:15Z</time>
      </trkpt>
      <trkpt lat="59.8512098" lon="17.5292215">
        <ele>24.651</ele>
        <time>2013-04-21T12:23:16Z</time>
      </trkpt>
      <trkpt lat="59.8511565" lon="17.5292923">
        <ele>25.1317</ele>
        <time>2013-04-21T12:23:17Z</time>
      </trkpt>
      <trkpt lat="59.8511043" lon="17.5293596">
        <ele>25.1317</ele>
        <time>2013-04-21T12:23:18Z</time>
      </trkpt>
      <trkpt lat="59.8510533" lon="17.5294256">
        <ele>25.1317</ele>
        <time>2013-04-21T12:23:19Z</time>
      </trkpt>
      <trkpt lat="59.8510033" lon="17.5294919">
        <ele>25.6123</ele>
        <time>2013-04-21T12:23:20Z</time>
      </trkpt>
      <trkpt lat="59.8509543" lon="17.5295551">
        <ele>25.6123</ele>
        <time>2013-04-21T12:23:21Z</time>
      </trkpt>
      <trkpt lat="59.8509057" lon="17.5296168">
        <ele>25.6123</ele>
        <time>2013-04-21T12:23:22Z</time>
      </trkpt>
      <trkpt lat="59.8508581" lon="17.5296779">
        <ele>25.6123</ele>
        <time>2013-04-21T12:23:23Z</time>
      </trkpt>
      <trkpt lat="59.8508118" lon="17.5297417">
        <ele>26.0929</ele>
        <time>2013-04-21T12:23:24Z</time>
      </trkpt>
      <trkpt lat="59.8507664" lon="17.5298063">
        <ele>26.0929</ele>
        <time>2013-04-21T12:23:25Z</time>
      </trkpt>
      <trkpt lat="59.8507209" lon="17.5298681">
        <ele>26.0929</ele>
        <time>2013-04-21T12:23:26Z</time>
      </trkpt>
      <trkpt lat="59.8506763" lon="17.5299312">
        <ele>26.5736</ele>
        <time>2013-04-21T12:23:27Z</time>
      </trkpt>
      <trkpt lat="59.8506336" lon="17.5299959">
        <ele>26.5736</ele>
        <time>2013-04-21T12:23:28Z</time>
      </trkpt>
      <trkpt lat="59.8505942" lon="17.5300623">
        <ele>26.5736</ele>
        <time>2013-04-21T12:23:29Z</time>
      </trkpt>
      <trkpt lat="59.8505561" lon="17.5301319">
        <ele>27.0543</ele>
        <time>2013-04-21T12:23:30Z</time>
      </trkpt>
      <trkpt lat="59.8505184" lon="17.5302026">
        <ele>27.0543</ele>
        <time>2013-04-21T12:23:31Z</time>
      </trkpt>
      <trkpt lat="59.8504836" lon="17.530274">
        <ele>27.0543</ele>
        <time>2013-04-21T12:23:32Z</time>
      </trkpt>
      <trkpt lat="59.8504523" lon="17.5303392">
        <ele>27.5349</ele>
        <time>2013-04-21T12:23:33Z</time>
      </trkpt>
      <trkpt lat="59.8504203" lon="17.5304051">
        <ele>27.0543</ele>
        <time>2013-04-21T12:23:34Z</time>
      </trkpt>
      <trkpt lat="59.8503893" lon="17.5304776">
        <ele>26.5736</ele>
        <time>2013-04-21T12:23:35Z</time>
      </trkpt>
      <trkpt lat="59.8503575" lon="17.5305533">
        <ele>26.5736</ele>
        <time>2013-04-21T12:23:36Z</time>
      </trkpt>
      <trkpt lat="59.8503224" lon="17.530632">
        <ele>26.5736</ele>
        <time>2013-04-21T12:23:37Z</time>
      </trkpt>
      <trkpt lat="59.8502843" lon="17.5307085">
        <ele>26.5736</ele>
        <time>2013-04-21T12:23:38Z</time>
      </trkpt>
      <trkpt lat="59.8502444" lon="17.5307791">
        <ele>26.5736</ele>
        <time>2013-04-21T12:23:39Z</time>
      </trkpt>
      <trkpt lat="59.8502038" lon="17.5308502">
        <ele>26.5736</ele>
        <time>2013-04-21T12:23:40Z</time>
      </trkpt>
      <trkpt lat="59.8501617" lon="17.5309224">
        <ele>26.5736</ele>
        <time>2013-04-21T12:23:41Z</time>
      </trkpt>
      <trkpt lat="59.8501193" lon="17.5309946">
        <ele>26.0929</ele>
        <time>2013-04-21T12:23:42Z</time>
      </trkpt>
      <trkpt lat="59.8500769" lon="17.5310639">
        <ele>26.0929</ele>
        <time>2013-04-21T12:23:43Z</time>
      </trkpt>
      <trkpt lat="59.8500348" lon="17.5311318">
        <ele>26.0929</ele>
        <time>2013-04-21T12:23:44Z</time>
      </trkpt>
      <trkpt lat="59.849992" lon="17.5311965">
        <ele>26.0929</ele>
        <time>2013-04-21T12:23:45Z</time>
      </trkpt>
      <trkpt lat="59.8499479" lon="17.5312553">
        <ele>25.6123</ele>
        <time>2013-04-21T12:23:46Z</time>
      </trkpt>
      <trkpt lat="59.8499028" lon="17.5313112">
        <ele>25.6123</ele>
        <time>2013-04-21T12:23:47Z</time>
      </trkpt>
      <trkpt lat="59.8498543" lon="17.531365">
        <ele>25.6123</ele>
        <time>2013-04-21T12:23:48Z</time>
      </trkpt>
      <trkpt lat="59.8498032" lon="17.5314128">
        <ele>25.1317</ele>
        <time>2013-04-21T12:23:49Z</time>
      </trkpt>
      <trkpt lat="59.8497486" lon="17.5314531">
        <ele>25.1317</ele>
        <time>2013-04-21T12:23:50Z</time>
      </trkpt>
      <trkpt lat="59.8496915" lon="17.5314841">
        <ele>25.1317</ele>
        <time>2013-04-21T12:23:51Z</time>
      </trkpt>
      <trkpt lat="59.8496338" lon="17.5315023">
        <ele>25.1317</ele>
        <time>2013-04-21T12:23:52Z</time>
      </trkpt>
      <trkpt lat="59.8495729" lon="17.5315174">
        <ele>25.1317</ele>
        <time>2013-04-21T12:23:53Z</time>
      </trkpt>
      <trkpt lat="59.8495103" lon="17.5315345">
        <ele>24.651</ele>
        <time>2013-04-21T12:23:54Z</time>
      </trkpt>
      <trkpt lat="59.8494459" lon="17.5315514">
        <ele>24.651</ele>
        <time>2013-04-21T12:23:55Z</time>
      </trkpt>
      <trkpt lat="59.8493797" lon="17.5315666">
        <ele>24.651</ele>
        <time>2013-04-21T12:23:56Z</time>
      </trkpt>
      <trkpt lat="59.8493139" lon="17.5315787">
        <ele>25.1317</ele>
        <time>2013-04-21T12:23:57Z</time>
      </trkpt>
      <trkpt lat="59.8492515" lon="17.5315897">
        <ele>25.6123</ele>
        <time>2013-04-21T12:23:58Z</time>
      </trkpt>
      <trkpt lat="59.8491948" lon="17.5316023">
        <ele>25.6123</ele>
        <time>2013-04-21T12:23:59Z</time>
      </trkpt>
      <trkpt lat="59.849141" lon="17.5316177">
        <ele>26.0929</ele>
        <time>2013-04-21T12:24:00Z</time>
      </trkpt>
      <trkpt lat="59.8490887" lon="17.5316333">
        <ele>26.0929</ele>
        <time>2013-04-21T12:24:01Z</time>
      </trkpt>
      <trkpt lat="59.8490403" lon="17.5316474">
        <ele>26.0929</ele>
        <time>2013-04-21T12:24:02Z</time>
      </trkpt>
      <trkpt lat="59.8489969" lon="17.531651">
        <ele>26.0929</ele>
        <time>2013-04-21T12:24:03Z</time>
      </trkpt>
      <trkpt lat="59.8489643" lon="17.531624">
        <ele>26.5736</ele>
        <time>2013-04-21T12:24:04Z</time>
      </trkpt>
      <trkpt lat="59.8489473" lon="17.5315694">
        <ele>26.5736</ele>
        <time>2013-04-21T12:24:05Z</time>
      </trkpt>
      <trkpt lat="59.8489472" lon="17.5314966">
        <ele>26.5736</ele>
        <time>2013-04-21T12:24:06Z</time>
      </trkpt>
      <trkpt lat="59.848957" lon="17.5314153">
        <ele>26.5736</ele>
        <time>2013-04-21T12:24:07Z</time>
      </trkpt>
      <trkpt lat="59.8489667" lon="17.5313327">
        <ele>26.5736</ele>
        <time>2013-04-21T12:24:08Z</time>
      </trkpt>
      <trkpt lat="59.8489752" lon="17.5312493">
        <ele>25.6123</ele>
        <time>2013-04-21T12:24:09Z</time>
      </trkpt>
      <trkpt lat="59.8489818" lon="17.5311587">
        <ele>25.6123</ele>
        <time>2013-04-21T12:24:10Z</time>
      </trkpt>
      <trkpt lat="59.8489865" lon="17.5310625">
        <ele>25.1317</ele>
        <time>2013-04-21T12:24:11Z</time>
      </trkpt>
      <trkpt lat="59.8489934" lon="17.5309637">
        <ele>24.651</ele>
        <time>2013-04-21T12:24:12Z</time>
      </trkpt>
      <trkpt lat="59.8490004" lon="17.5308618">
        <ele>24.651</ele>
        <time>2013-04-21T12:24:13Z</time>
      </trkpt>
      <trkpt lat="59.8490043" lon="17.5307543">
        <ele>24.1703</ele>
        <time>2013-04-21T12:24:14Z</time>
      </trkpt>
      <trkpt lat="59.8490074" lon="17.5306446">
        <ele>24.1703</ele>
        <time>2013-04-21T12:24:15Z</time>
      </trkpt>
      <trkpt lat="59.8490136" lon="17.5305341">
        <ele>23.6896</ele>
        <time>2013-04-21T12:24:16Z</time>
      </trkpt>
      <trkpt lat="59.8490203" lon="17.5304222">
        <ele>23.6896</ele>
        <time>2013-04-21T12:24:17Z</time>
      </trkpt>
      <trkpt lat="59.8490198" lon="17.5303052">
        <ele>23.6896</ele>
        <time>2013-04-21T12:24:18Z</time>
      </trkpt>
      <trkpt lat="59.8490175" lon="17.5301911">
        <ele>24.1703</ele>
        <time>2013-04-21T12:24:19Z</time>
      </trkpt>
      <trkpt lat="59.8490138" lon="17.5300765">
        <ele>24.1703</ele>
        <time>2013-04-21T12:24:20Z</time>
      </trkpt>
      <trkpt lat="59.8490127" lon="17.52996">
        <ele>24.1703</ele>
        <time>2013-04-21T12:24:21Z</time>
      </trkpt>
      <trkpt lat="59.8490162" lon="17.5298356">
        <ele>24.651</ele>
        <time>2013-04-21T12:24:22Z</time>
      </trkpt>
      <trkpt lat="59.8490223" lon="17.5297101">
        <ele>24.651</ele>
        <time>2013-04-21T12:24:23Z</time>
      </trkpt>
      <trkpt lat="59.8490315" lon="17.5295847">
        <ele>24.651</ele>
        <time>2013-04-21T12:24:24Z</time>
      </trkpt>
      <trkpt lat="59.8490366" lon="17.5294587">
        <ele>24.651</ele>
        <time>2013-04-21T12:24:25Z</time>
      </trkpt>
      <trkpt lat="59.8490414" lon="17.5293356">
        <ele>24.651</ele>
        <time>2013-04-21T12:24:26Z</time>
      </trkpt>
      <trkpt lat="59.8490475" lon="17.5292116">
        <ele>24.1703</ele>
        <time>2013-04-21T12:24:27Z</time>
      </trkpt>
      <trkpt lat="59.8490508" lon="17.5290905">
        <ele>24.1703</ele>
        <time>2013-04-21T12:24:28Z</time>
      </trkpt>
      <trkpt lat="59.8490554" lon="17.5289714">
        <ele>24.1703</ele>
        <time>2013-04-21T12:24:29Z</time>
      </trkpt>
      <trkpt lat="59.849063" lon="17.5288526">
        <ele>24.1703</ele>
        <time>2013-04-21T12:24:30Z</time>
      </trkpt>
      <trkpt lat="59.8490782" lon="17.5287355">
        <ele>24.651</ele>
        <time>2013-04-21T12:24:31Z</time>
      </trkpt>
      <trkpt lat="59.849101" lon="17.5286158">
        <ele>24.651</ele>
        <time>2013-04-21T12:24:32Z</time>
      </trkpt>
      <trkpt lat="59.8491166" lon="17.5284926">
        <ele>24.1703</ele>
        <time>2013-04-21T12:24:33Z</time>
      </trkpt>
      <trkpt lat="59.8491248" lon="17.5283631">
        <ele>24.1703</ele>
        <time>2013-04-21T12:24:34Z</time>
      </trkpt>
      <trkpt lat="59.8491278" lon="17.5282253">
        <ele>24.651</ele>
        <time>2013-04-21T12:24:35Z</time>
      </trkpt>
      <trkpt lat="59.8491303" lon="17.5280856">
        <ele>25.1317</ele>
        <time>2013-04-21T12:24:36Z</time>
      </trkpt>
      <trkpt lat="59.8491343" lon="17.5279483">
        <ele>25.1317</ele>
        <time>2013-04-21T12:24:37Z</time>
      </trkpt>
      <trkpt lat="59.8491334" lon="17.5278068">
        <ele>25.1317</ele>
        <time>2013-04-21T12:24:38Z</time>
      </trkpt>
      <trkpt lat="59.8491322" lon="17.527665">
        <ele>25.6123</ele>
        <time>2013-04-21T12:24:39Z</time>
      </trkpt>
      <trkpt lat="59.8491361" lon="17.5275241">
        <ele>25.6123</ele>
        <time>2013-04-21T12:24:40Z</time>
      </trkpt>
      <trkpt lat="59.8491387" lon="17.5273831">
        <ele>25.6123</ele>
        <time>2013-04-21T12:24:41Z</time>
      </trkpt>
      <trkpt lat="59.8491399" lon="17.5272395">
        <ele>25.6123</ele>
        <time>2013-04-21T12:24:42Z</time>
      </trkpt>
      <trkpt lat="59.8491407" lon="17.5270951">
        <ele>25.6123</ele>
        <time>2013-04-21T12:24:43Z</time>
      </trkpt>
      <trkpt lat="59.8491412" lon="17.52695">
        <ele>26.0929</ele>
        <time>2013-04-21T12:24:44Z</time>
      </trkpt>
      <trkpt lat="59.84914" lon="17.5268048">
        <ele>26.0929</ele>
        <time>2013-04-21T12:24:45Z</time>
      </trkpt>
      <trkpt lat="59.8491402" lon="17.526662">
        <ele>26.0929</ele>
        <time>2013-04-21T12:24:46Z</time>
      </trkpt>
      <trkpt lat="59.8491398" lon="17.5265216">
        <ele>26.0929</ele>
        <time>2013-04-21T12:24:47Z</time>
      </trkpt>
      <trkpt lat="59.8491391" lon="17.5263811">
        <ele>26.0929</ele>
        <time>2013-04-21T12:24:48Z</time>
      </trkpt>
      <trkpt lat="59.8491389" lon="17.5262399">
        <ele>25.6123</ele>
        <time>2013-04-21T12:24:49Z</time>
      </trkpt>
      <trkpt lat="59.8491391" lon="17.5260983">
        <ele>25.6123</ele>
        <time>2013-04-21T12:24:50Z</time>
      </trkpt>
      <trkpt lat="59.8491389" lon="17.5259573">
        <ele>25.6123</ele>
        <time>2013-04-21T12:24:51Z</time>
      </trkpt>
      <trkpt lat="59.8491382" lon="17.5258157">
        <ele>26.0929</ele>
        <time>2013-04-21T12:24:52Z</time>
      </trkpt>
      <trkpt lat="59.8491381" lon="17.5256756">
        <ele>26.0929</ele>
        <time>2013-04-21T12:24:53Z</time>
      </trkpt>
      <trkpt lat="59.8491398" lon="17.5255379">
        <ele>26.0929</ele>
        <time>2013-04-21T12:24:54Z</time>
      </trkpt>
      <trkpt lat="59.8491409" lon="17.5253991">
        <ele>26.5736</ele>
        <time>2013-04-21T12:24:55Z</time>
      </trkpt>
      <trkpt lat="59.8491425" lon="17.5252597">
        <ele>26.5736</ele>
        <time>2013-04-21T12:24:56Z</time>
      </trkpt>
      <trkpt lat="59.8491434" lon="17.5251197">
        <ele>26.5736</ele>
        <time>2013-04-21T12:24:57Z</time>
      </trkpt>
      <trkpt lat="59.8491443" lon="17.5249784">
        <ele>26.5736</ele>
        <time>2013-04-21T12:24:58Z</time>
      </trkpt>
      <trkpt lat="59.8491449" lon="17.5248368">
        <ele>27.0543</ele>
        <time>2013-04-21T12:24:59Z</time>
      </trkpt>
      <trkpt lat="59.8491466" lon="17.5246951">
        <ele>27.0543</ele>
        <time>2013-04-21T12:25:00Z</time>
      </trkpt>
      <trkpt lat="59.8491493" lon="17.5245533">
        <ele>27.5349</ele>
        <time>2013-04-21T12:25:01Z</time>
      </trkpt>
      <trkpt lat="59.8491508" lon="17.5244127">
        <ele>27.5349</ele>
        <time>2013-04-21T12:25:02Z</time>
      </trkpt>
      <trkpt lat="59.8491509" lon="17.5242735">
        <ele>28.0155</ele>
        <time>2013-04-21T12:25:03Z</time>
      </trkpt>
      <trkpt lat="59.8491512" lon="17.5241347">
        <ele>28.0155</ele>
        <time>2013-04-21T12:25:04Z</time>
      </trkpt>
      <trkpt lat="59.8491528" lon="17.5239949">
        <ele>28.0155</ele>
        <time>2013-04-21T12:25:05Z</time>
      </trkpt>
      <trkpt lat="59.8491533" lon="17.5238537">
        <ele>28.0155</ele>
        <time>2013-04-21T12:25:06Z</time>
      </trkpt>
      <trkpt lat="59.8491528" lon="17.5237123">
        <ele>28.4962</ele>
        <time>2013-04-21T12:25:07Z</time>
      </trkpt>
      <trkpt lat="59.8491544" lon="17.5235716">
        <ele>28.4962</ele>
        <time>2013-04-21T12:25:08Z</time>
      </trkpt>
      <trkpt lat="59.8491574" lon="17.5234316">
        <ele>28.4962</ele>
        <time>2013-04-21T12:25:09Z</time>
      </trkpt>
      <trkpt lat="59.8491606" lon="17.5232933">
        <ele>28.4962</ele>
        <time>2013-04-21T12:25:10Z</time>
      </trkpt>
      <trkpt lat="59.8491638" lon="17.5231567">
        <ele>28.4962</ele>
        <time>2013-04-21T12:25:11Z</time>
      </trkpt>
      <trkpt lat="59.8491656" lon="17.5230224">
        <ele>28.4962</ele>
        <time>2013-04-21T12:25:12Z</time>
      </trkpt>
      <trkpt lat="59.8491656" lon="17.5228908">
        <ele>28.9769</ele>
        <time>2013-04-21T12:25:13Z</time>
      </trkpt>
      <trkpt lat="59.8491643" lon="17.5227614">
        <ele>28.4962</ele>
        <time>2013-04-21T12:25:14Z</time>
      </trkpt>
      <trkpt lat="59.8491614" lon="17.5226324">
        <ele>28.4962</ele>
        <time>2013-04-21T12:25:15Z</time>
      </trkpt>
      <trkpt lat="59.8491571" lon="17.5225011">
        <ele>28.4962</ele>
        <time>2013-04-21T12:25:16Z</time>
      </trkpt>
      <trkpt lat="59.8491527" lon="17.5223687">
        <ele>28.0155</ele>
        <time>2013-04-21T12:25:17Z</time>
      </trkpt>
      <trkpt lat="59.8491488" lon="17.5222378">
        <ele>28.0155</ele>
        <time>2013-04-21T12:25:18Z</time>
      </trkpt>
      <trkpt lat="59.8491475" lon="17.5221097">
        <ele>28.0155</ele>
        <time>2013-04-21T12:25:19Z</time>
      </trkpt>
      <trkpt lat="59.8491488" lon="17.5219818">
        <ele>28.0155</ele>
        <time>2013-04-21T12:25:20Z</time>
      </trkpt>
      <trkpt lat="59.8491531" lon="17.5218542">
        <ele>28.4962</ele>
        <time>2013-04-21T12:25:21Z</time>
      </trkpt>
      <trkpt lat="59.8491548" lon="17.5217238">
        <ele>28.4962</ele>
        <time>2013-04-21T12:25:22Z</time>
      </trkpt>
      <trkpt lat="59.8491542" lon="17.5215925">
        <ele>28.9769</ele>
        <time>2013-04-21T12:25:23Z</time>
      </trkpt>
      <trkpt lat="59.8491548" lon="17.5214626">
        <ele>28.9769</ele>
        <time>2013-04-21T12:25:24Z</time>
      </trkpt>
      <trkpt lat="59.8491549" lon="17.5213316">
        <ele>29.4575</ele>
        <time>2013-04-21T12:25:25Z</time>
      </trkpt>
      <trkpt lat="59.8491562" lon="17.5212012">
        <ele>29.4575</ele>
        <time>2013-04-21T12:25:26Z</time>
      </trkpt>
      <trkpt lat="59.8491579" lon="17.521071">
        <ele>29.4575</ele>
        <time>2013-04-21T12:25:27Z</time>
      </trkpt>
      <trkpt lat="59.8491597" lon="17.5209427">
        <ele>29.9381</ele>
        <time>2013-04-21T12:25:28Z</time>
      </trkpt>
      <trkpt lat="59.8491611" lon="17.5208157">
        <ele>29.9381</ele>
        <time>2013-04-21T12:25:29Z</time>
      </trkpt>
      <trkpt lat="59.8491627" lon="17.5206888">
        <ele>29.9381</ele>
        <time>2013-04-21T12:25:30Z</time>
      </trkpt>
      <trkpt lat="59.8491642" lon="17.5205627">
        <ele>30.4188</ele>
        <time>2013-04-21T12:25:31Z</time>
      </trkpt>
      <trkpt lat="59.8491658" lon="17.5204355">
        <ele>30.4188</ele>
        <time>2013-04-21T12:25:32Z</time>
      </trkpt>
      <trkpt lat="59.8491683" lon="17.5203094">
        <ele>30.4188</ele>
        <time>2013-04-21T12:25:33Z</time>
      </trkpt>
      <trkpt lat="59.8491694" lon="17.5201815">
        <ele>30.4188</ele>
        <time>2013-04-21T12:25:34Z</time>
      </trkpt>
      <trkpt lat="59.8491709" lon="17.5200539">
        <ele>30.8995</ele>
        <time>2013-04-21T12:25:35Z</time>
      </trkpt>
      <trkpt lat="59.8491725" lon="17.5199264">
        <ele>31.3801</ele>
        <time>2013-04-21T12:25:36Z</time>
      </trkpt>
      <trkpt lat="59.8491759" lon="17.5198">
        <ele>31.3801</ele>
        <time>2013-04-21T12:25:37Z</time>
      </trkpt>
      <trkpt lat="59.8491803" lon="17.5196738">
        <ele>31.3801</ele>
        <time>2013-04-21T12:25:38Z</time>
      </trkpt>
      <trkpt lat="59.8491838" lon="17.5195467">
        <ele>31.3801</ele>
        <time>2013-04-21T12:25:39Z</time>
      </trkpt>
      <trkpt lat="59.8491876" lon="17.519419">
        <ele>31.3801</ele>
        <time>2013-04-21T12:25:40Z</time>
      </trkpt>
      <trkpt lat="59.8491936" lon="17.5192908">
        <ele>30.8995</ele>
        <time>2013-04-21T12:25:41Z</time>
      </trkpt>
      <trkpt lat="59.8492005" lon="17.5191617">
        <ele>30.8995</ele>
        <time>2013-04-21T12:25:42Z</time>
      </trkpt>
      <trkpt lat="59.8492073" lon="17.5190322">
        <ele>30.8995</ele>
        <time>2013-04-21T12:25:43Z</time>
      </trkpt>
      <trkpt lat="59.8492127" lon="17.5189037">
        <ele>30.8995</ele>
        <time>2013-04-21T12:25:44Z</time>
      </trkpt>
      <trkpt lat="59.849218" lon="17.51878">
        <ele>30.8995</ele>
        <time>2013-04-21T12:25:45Z</time>
      </trkpt>
      <trkpt lat="59.8492244" lon="17.5186635">
        <ele>31.3801</ele>
        <time>2013-04-21T12:25:46Z</time>
      </trkpt>
      <trkpt lat="59.84923" lon="17.5185594">
        <ele>31.3801</ele>
        <time>2013-04-21T12:25:47Z</time>
      </trkpt>
      <trkpt lat="59.8492339" lon="17.5184701">
        <ele>31.8607</ele>
        <time>2013-04-21T12:25:48Z</time>
      </trkpt>
      <trkpt lat="59.8492325" lon="17.518393">
        <ele>31.8607</ele>
        <time>2013-04-21T12:25:49Z</time>
      </trkpt>
      <trkpt lat="59.8492186" lon="17.5183329">
        <ele>31.8607</ele>
        <time>2013-04-21T12:25:50Z</time>
      </trkpt>
      <trkpt lat="59.8491948" lon="17.5182933">
        <ele>32.3416</ele>
        <time>2013-04-21T12:25:51Z</time>
      </trkpt>
      <trkpt lat="59.84917" lon="17.5182531">
        <ele>32.3416</ele>
        <time>2013-04-21T12:25:52Z</time>
      </trkpt>
      <trkpt lat="59.8491497" lon="17.5182029">
        <ele>32.3416</ele>
        <time>2013-04-21T12:25:53Z</time>
      </trkpt>
      <trkpt lat="59.8491337" lon="17.5181407">
        <ele>32.3416</ele>
        <time>2013-04-21T12:25:54Z</time>
      </trkpt>
      <trkpt lat="59.8491166" lon="17.5180727">
        <ele>32.8223</ele>
        <time>2013-04-21T12:25:55Z</time>
      </trkpt>
      <trkpt lat="59.8490964" lon="17.5180007">
        <ele>32.8223</ele>
        <time>2013-04-21T12:25:56Z</time>
      </trkpt>
      <trkpt lat="59.8490817" lon="17.517921">
        <ele>32.8223</ele>
        <time>2013-04-21T12:25:57Z</time>
      </trkpt>
      <trkpt lat="59.8490755" lon="17.5178352">
        <ele>32.8223</ele>
        <time>2013-04-21T12:25:58Z</time>
      </trkpt>
      <trkpt lat="59.8490725" lon="17.5177471">
        <ele>33.3029</ele>
        <time>2013-04-21T12:25:59Z</time>
      </trkpt>
      <trkpt lat="59.8490718" lon="17.517661">
        <ele>33.3029</ele>
        <time>2013-04-21T12:26:00Z</time>
      </trkpt>
      <trkpt lat="59.8490677" lon="17.5175792">
        <ele>33.3029</ele>
        <time>2013-04-21T12:26:01Z</time>
      </trkpt>
      <trkpt lat="59.8490486" lon="17.5175135">
        <ele>33.3029</ele>
        <time>2013-04-21T12:26:02Z</time>
      </trkpt>
      <trkpt lat="59.8490159" lon="17.5174768">
        <ele>33.3029</ele>
        <time>2013-04-21T12:26:03Z</time>
      </trkpt>
      <trkpt lat="59.8489762" lon="17.5174656">
        <ele>33.3029</ele>
        <time>2013-04-21T12:26:04Z</time>
      </trkpt>
      <trkpt lat="59.8489336" lon="17.5174674">
        <ele>32.8223</ele>
        <time>2013-04-21T12:26:05Z</time>
      </trkpt>
      <trkpt lat="59.8488897" lon="17.5174729">
        <ele>32.8223</ele>
        <time>2013-04-21T12:26:06Z</time>
      </trkpt>
      <trkpt lat="59.8488436" lon="17.5174791">
        <ele>32.3416</ele>
        <time>2013-04-21T12:26:07Z</time>
      </trkpt>
      <trkpt lat="59.8487957" lon="17.5174896">
        <ele>31.8607</ele>
        <time>2013-04-21T12:26:08Z</time>
      </trkpt>
      <trkpt lat="59.8487446" lon="17.5175003">
        <ele>31.3801</ele>
        <time>2013-04-21T12:26:09Z</time>
      </trkpt>
      <trkpt lat="59.848689" lon="17.5175113">
        <ele>30.8995</ele>
        <time>2013-04-21T12:26:10Z</time>
      </trkpt>
      <trkpt lat="59.8486286" lon="17.5175253">
        <ele>30.8995</ele>
        <time>2013-04-21T12:26:11Z</time>
      </trkpt>
      <trkpt lat="59.8485664" lon="17.5175464">
        <ele>30.4188</ele>
        <time>2013-04-21T12:26:12Z</time>
      </trkpt>
      <trkpt lat="59.8485015" lon="17.5175694">
        <ele>29.9381</ele>
        <time>2013-04-21T12:26:13Z</time>
      </trkpt>
      <trkpt lat="59.8484357" lon="17.5175897">
        <ele>29.4575</ele>
        <time>2013-04-21T12:26:14Z</time>
      </trkpt>
      <trkpt lat="59.8483675" lon="17.5176143">
        <ele>28.9769</ele>
        <time>2013-04-21T12:26:15Z</time>
      </trkpt>
      <trkpt lat="59.848298" lon="17.5176252">
        <ele>28.9769</ele>
        <time>2013-04-21T12:26:16Z</time>
      </trkpt>
      <trkpt lat="59.8482313" lon="17.5175967">
        <ele>28.9769</ele>
        <time>2013-04-21T12:26:17Z</time>
      </trkpt>
      <trkpt lat="59.8481769" lon="17.5175273">
        <ele>28.9769</ele>
        <time>2013-04-21T12:26:18Z</time>
      </trkpt>
      <trkpt lat="59.8481422" lon="17.5174295">
        <ele>28.9769</ele>
        <time>2013-04-21T12:26:19Z</time>
      </trkpt>
      <trkpt lat="59.848125" lon="17.5173145">
        <ele>28.9769</ele>
        <time>2013-04-21T12:26:20Z</time>
      </trkpt>
      <trkpt lat="59.8481173" lon="17.5171954">
        <ele>28.9769</ele>
        <time>2013-04-21T12:26:21Z</time>
      </trkpt>
      <trkpt lat="59.8481132" lon="17.5170776">
        <ele>28.9769</ele>
        <time>2013-04-21T12:26:22Z</time>
      </trkpt>
      <trkpt lat="59.8481111" lon="17.5169633">
        <ele>28.9769</ele>
        <time>2013-04-21T12:26:23Z</time>
      </trkpt>
      <trkpt lat="59.8481075" lon="17.5168533">
        <ele>28.9769</ele>
        <time>2013-04-21T12:26:24Z</time>
      </trkpt>
      <trkpt lat="59.8481055" lon="17.5167463">
        <ele>28.9769</ele>
        <time>2013-04-21T12:26:25Z</time>
      </trkpt>
      <trkpt lat="59.8481018" lon="17.5166385">
        <ele>28.4962</ele>
        <time>2013-04-21T12:26:26Z</time>
      </trkpt>
      <trkpt lat="59.8480992" lon="17.5165302">
        <ele>28.0155</ele>
        <time>2013-04-21T12:26:27Z</time>
      </trkpt>
      <trkpt lat="59.8480981" lon="17.5164239">
        <ele>27.5349</ele>
        <time>2013-04-21T12:26:28Z</time>
      </trkpt>
      <trkpt lat="59.8480976" lon="17.5163184">
        <ele>27.5349</ele>
        <time>2013-04-21T12:26:29Z</time>
      </trkpt>
      <trkpt lat="59.848096" lon="17.5162143">
        <ele>27.0543</ele>
        <time>2013-04-21T12:26:30Z</time>
      </trkpt>
      <trkpt lat="59.8480928" lon="17.5161121">
        <ele>26.0929</ele>
        <time>2013-04-21T12:26:31Z</time>
      </trkpt>
      <trkpt lat="59.8480826" lon="17.5159994">
        <ele>26.0929</ele>
        <time>2013-04-21T12:26:32Z</time>
      </trkpt>
      <trkpt lat="59.8480777" lon="17.5158965">
        <ele>25.6123</ele>
        <time>2013-04-21T12:26:33Z</time>
      </trkpt>
      <trkpt lat="59.8480721" lon="17.5157922">
        <ele>24.651</ele>
        <time>2013-04-21T12:26:34Z</time>
      </trkpt>
      <trkpt lat="59.8480665" lon="17.5156888">
        <ele>23.6896</ele>
        <time>2013-04-21T12:26:35Z</time>
      </trkpt>
      <trkpt lat="59.8480601" lon="17.5155796">
        <ele>23.209</ele>
        <time>2013-04-21T12:26:36Z</time>
      </trkpt>
      <trkpt lat="59.8480539" lon="17.5154662">
        <ele>23.209</ele>
        <time>2013-04-21T12:26:37Z</time>
      </trkpt>
      <trkpt lat="59.8480506" lon="17.5153524">
        <ele>22.7283</ele>
        <time>2013-04-21T12:26:38Z</time>
      </trkpt>
      <trkpt lat="59.8480468" lon="17.5152333">
        <ele>22.2476</ele>
        <time>2013-04-21T12:26:39Z</time>
      </trkpt>
      <trkpt lat="59.8480436" lon="17.5151176">
        <ele>21.2864</ele>
        <time>2013-04-21T12:26:40Z</time>
      </trkpt>
      <trkpt lat="59.8480401" lon="17.5150006">
        <ele>20.8057</ele>
        <time>2013-04-21T12:26:41Z</time>
      </trkpt>
      <trkpt lat="59.8480277" lon="17.5148703">
        <ele>21.767</ele>
        <time>2013-04-21T12:26:42Z</time>
      </trkpt>
      <trkpt lat="59.8480171" lon="17.5147411">
        <ele>22.7283</ele>
        <time>2013-04-21T12:26:43Z</time>
      </trkpt>
      <trkpt lat="59.8480088" lon="17.5146135">
        <ele>23.209</ele>
        <time>2013-04-21T12:26:44Z</time>
      </trkpt>
      <trkpt lat="59.8480002" lon="17.5144903">
        <ele>23.209</ele>
        <time>2013-04-21T12:26:45Z</time>
      </trkpt>
      <trkpt lat="59.8479902" lon="17.514363">
        <ele>23.6896</ele>
        <time>2013-04-21T12:26:46Z</time>
      </trkpt>
      <trkpt lat="59.8479765" lon="17.5142285">
        <ele>24.1703</ele>
        <time>2013-04-21T12:26:47Z</time>
      </trkpt>
      <trkpt lat="59.8479608" lon="17.5140941">
        <ele>24.1703</ele>
        <time>2013-04-21T12:26:48Z</time>
      </trkpt>
      <trkpt lat="59.8479418" lon="17.513964">
        <ele>24.1703</ele>
        <time>2013-04-21T12:26:49Z</time>
      </trkpt>
      <trkpt lat="59.8479184" lon="17.5138325">
        <ele>23.6896</ele>
        <time>2013-04-21T12:26:50Z</time>
      </trkpt>
      <trkpt lat="59.847894" lon="17.5137024">
        <ele>23.6896</ele>
        <time>2013-04-21T12:26:51Z</time>
      </trkpt>
      <trkpt lat="59.8478676" lon="17.5135753">
        <ele>23.209</ele>
        <time>2013-04-21T12:26:52Z</time>
      </trkpt>
      <trkpt lat="59.847841" lon="17.5134544">
        <ele>23.209</ele>
        <time>2013-04-21T12:26:53Z</time>
      </trkpt>
      <trkpt lat="59.8478142" lon="17.5133352">
        <ele>22.7283</ele>
        <time>2013-04-21T12:26:54Z</time>
      </trkpt>
      <trkpt lat="59.8477888" lon="17.5132181">
        <ele>22.2476</ele>
        <time>2013-04-21T12:26:55Z</time>
      </trkpt>
      <trkpt lat="59.8477654" lon="17.5131024">
        <ele>21.767</ele>
        <time>2013-04-21T12:26:56Z</time>
      </trkpt>
      <trkpt lat="59.8477439" lon="17.5129853">
        <ele>21.767</ele>
        <time>2013-04-21T12:26:57Z</time>
      </trkpt>
      <trkpt lat="59.8477248" lon="17.5128698">
        <ele>21.2864</ele>
        <time>2013-04-21T12:26:58Z</time>
      </trkpt>
      <trkpt lat="59.8477071" lon="17.5127555">
        <ele>21.2864</ele>
        <time>2013-04-21T12:26:59Z</time>
      </trkpt>
      <trkpt lat="59.8476899" lon="17.5126424">
        <ele>21.2864</ele>
        <time>2013-04-21T12:27:00Z</time>
      </trkpt>
      <trkpt lat="59.8476698" lon="17.5125206">
        <ele>21.767</ele>
        <time>2013-04-21T12:27:01Z</time>
      </trkpt>
      <trkpt lat="59.847655" lon="17.5123982">
        <ele>22.7283</ele>
        <time>2013-04-21T12:27:02Z</time>
      </trkpt>
      <trkpt lat="59.8476418" lon="17.5122774">
        <ele>23.209</ele>
        <time>2013-04-21T12:27:03Z</time>
      </trkpt>
      <trkpt lat="59.8476269" lon="17.5121558">
        <ele>23.209</ele>
        <time>2013-04-21T12:27:04Z</time>
      </trkpt>
      <trkpt lat="59.8476102" lon="17.5120395">
        <ele>22.2476</ele>
        <time>2013-04-21T12:27:05Z</time>
      </trkpt>
      <trkpt lat="59.8475911" lon="17.5119125">
        <ele>21.2864</ele>
        <time>2013-04-21T12:27:06Z</time>
      </trkpt>
      <trkpt lat="59.8475606" lon="17.5117806">
        <ele>20.325</ele>
        <time>2013-04-21T12:27:07Z</time>
      </trkpt>
      <trkpt lat="59.8475216" lon="17.511648">
        <ele>19.8444</ele>
        <time>2013-04-21T12:27:08Z</time>
      </trkpt>
      <trkpt lat="59.8474787" lon="17.5115175">
        <ele>19.3638</ele>
        <time>2013-04-21T12:27:09Z</time>
      </trkpt>
      <trkpt lat="59.8474338" lon="17.5113904">
        <ele>18.8831</ele>
        <time>2013-04-21T12:27:10Z</time>
      </trkpt>
      <trkpt lat="59.8473893" lon="17.5112631">
        <ele>18.8831</ele>
        <time>2013-04-21T12:27:11Z</time>
      </trkpt>
      <trkpt lat="59.847346" lon="17.5111358">
        <ele>18.8831</ele>
        <time>2013-04-21T12:27:12Z</time>
      </trkpt>
      <trkpt lat="59.8473036" lon="17.5110099">
        <ele>18.4023</ele>
        <time>2013-04-21T12:27:13Z</time>
      </trkpt>
      <trkpt lat="59.8472616" lon="17.5108865">
        <ele>18.4023</ele>
        <time>2013-04-21T12:27:14Z</time>
      </trkpt>
      <trkpt lat="59.8472196" lon="17.5107651">
        <ele>18.4023</ele>
        <time>2013-04-21T12:27:15Z</time>
      </trkpt>
      <trkpt lat="59.8471767" lon="17.5106418">
        <ele>18.4023</ele>
        <time>2013-04-21T12:27:16Z</time>
      </trkpt>
      <trkpt lat="59.8471311" lon="17.510522">
        <ele>18.4023</ele>
        <time>2013-04-21T12:27:17Z</time>
      </trkpt>
      <trkpt lat="59.8470819" lon="17.510411">
        <ele>17.9218</ele>
        <time>2013-04-21T12:27:18Z</time>
      </trkpt>
      <trkpt lat="59.8470306" lon="17.5103065">
        <ele>18.4023</ele>
        <time>2013-04-21T12:27:19Z</time>
      </trkpt>
      <trkpt lat="59.8469773" lon="17.510207">
        <ele>18.4023</ele>
        <time>2013-04-21T12:27:20Z</time>
      </trkpt>
      <trkpt lat="59.8469205" lon="17.5100985">
        <ele>19.3638</ele>
        <time>2013-04-21T12:27:21Z</time>
      </trkpt>
      <trkpt lat="59.8468617" lon="17.5100054">
        <ele>19.8444</ele>
        <time>2013-04-21T12:27:22Z</time>
      </trkpt>
      <trkpt lat="59.8467969" lon="17.5099283">
        <ele>19.8444</ele>
        <time>2013-04-21T12:27:23Z</time>
      </trkpt>
      <trkpt lat="59.8467274" lon="17.5098686">
        <ele>20.325</ele>
        <time>2013-04-21T12:27:24Z</time>
      </trkpt>
      <trkpt lat="59.8466571" lon="17.5098313">
        <ele>20.325</ele>
        <time>2013-04-21T12:27:25Z</time>
      </trkpt>
      <trkpt lat="59.846586" lon="17.5098078">
        <ele>19.8444</ele>
        <time>2013-04-21T12:27:26Z</time>
      </trkpt>
      <trkpt lat="59.8465154" lon="17.5097934">
        <ele>19.8444</ele>
        <time>2013-04-21T12:27:27Z</time>
      </trkpt>
      <trkpt lat="59.8464465" lon="17.5097863">
        <ele>19.8444</ele>
        <time>2013-04-21T12:27:28Z</time>
      </trkpt>
      <trkpt lat="59.8463773" lon="17.5097824">
        <ele>19.8444</ele>
        <time>2013-04-21T12:27:29Z</time>
      </trkpt>
      <trkpt lat="59.8463069" lon="17.5097763">
        <ele>20.325</ele>
        <time>2013-04-21T12:27:30Z</time>
      </trkpt>
      <trkpt lat="59.8462375" lon="17.5097698">
        <ele>20.325</ele>
        <time>2013-04-21T12:27:31Z</time>
      </trkpt>
      <trkpt lat="59.84617" lon="17.5097653">
        <ele>20.325</ele>
        <time>2013-04-21T12:27:32Z</time>
      </trkpt>
      <trkpt lat="59.8461043" lon="17.5097609">
        <ele>20.8057</ele>
        <time>2013-04-21T12:27:33Z</time>
      </trkpt>
      <trkpt lat="59.8460406" lon="17.5097571">
        <ele>20.8057</ele>
        <time>2013-04-21T12:27:34Z</time>
      </trkpt>
      <trkpt lat="59.84598" lon="17.5097534">
        <ele>20.8057</ele>
        <time>2013-04-21T12:27:35Z</time>
      </trkpt>
      <trkpt lat="59.8459213" lon="17.5097494">
        <ele>21.2864</ele>
        <time>2013-04-21T12:27:36Z</time>
      </trkpt>
      <trkpt lat="59.8458635" lon="17.5097472">
        <ele>21.2864</ele>
        <time>2013-04-21T12:27:37Z</time>
      </trkpt>
      <trkpt lat="59.845806" lon="17.5097479">
        <ele>21.2864</ele>
        <time>2013-04-21T12:27:38Z</time>
      </trkpt>
      <trkpt lat="59.8457486" lon="17.5097505">
        <ele>21.2864</ele>
        <time>2013-04-21T12:27:39Z</time>
      </trkpt>
      <trkpt lat="59.8456913" lon="17.5097574">
        <ele>21.767</ele>
        <time>2013-04-21T12:27:40Z</time>
      </trkpt>
      <trkpt lat="59.8456358" lon="17.5097757">
        <ele>21.767</ele>
        <time>2013-04-21T12:27:41Z</time>
      </trkpt>
      <trkpt lat="59.8455826" lon="17.5098085">
        <ele>21.767</ele>
        <time>2013-04-21T12:27:42Z</time>
      </trkpt>
      <trkpt lat="59.8455339" lon="17.5098556">
        <ele>22.2476</ele>
        <time>2013-04-21T12:27:43Z</time>
      </trkpt>
      <trkpt lat="59.8454889" lon="17.5099141">
        <ele>22.7283</ele>
        <time>2013-04-21T12:27:44Z</time>
      </trkpt>
      <trkpt lat="59.845448" lon="17.5099806">
        <ele>22.7283</ele>
        <time>2013-04-21T12:27:45Z</time>
      </trkpt>
      <trkpt lat="59.84541" lon="17.5100514">
        <ele>23.209</ele>
        <time>2013-04-21T12:27:46Z</time>
      </trkpt>
      <trkpt lat="59.8453723" lon="17.5101241">
        <ele>23.209</ele>
        <time>2013-04-21T12:27:47Z</time>
      </trkpt>
      <trkpt lat="59.8453344" lon="17.5101976">
        <ele>23.209</ele>
        <time>2013-04-21T12:27:48Z</time>
      </trkpt>
      <trkpt lat="59.8452946" lon="17.5102728">
        <ele>23.209</ele>
        <time>2013-04-21T12:27:49Z</time>
      </trkpt>
      <trkpt lat="59.8452523" lon="17.5103488">
        <ele>23.6896</ele>
        <time>2013-04-21T12:27:50Z</time>
      </trkpt>
      <trkpt lat="59.8452045" lon="17.5104219">
        <ele>23.6896</ele>
        <time>2013-04-21T12:27:51Z</time>
      </trkpt>
      <trkpt lat="59.8451531" lon="17.5104876">
        <ele>23.6896</ele>
        <time>2013-04-21T12:27:52Z</time>
      </trkpt>
      <trkpt lat="59.8450989" lon="17.510542">
        <ele>23.6896</ele>
        <time>2013-04-21T12:27:53Z</time>
      </trkpt>
      <trkpt lat="59.8450424" lon="17.5105866">
        <ele>24.1703</ele>
        <time>2013-04-21T12:27:54Z</time>
      </trkpt>
      <trkpt lat="59.8449844" lon="17.5106213">
        <ele>24.1703</ele>
        <time>2013-04-21T12:27:55Z</time>
      </trkpt>
      <trkpt lat="59.8449248" lon="17.5106475">
        <ele>24.1703</ele>
        <time>2013-04-21T12:27:56Z</time>
      </trkpt>
      <trkpt lat="59.8448643" lon="17.5106605">
        <ele>24.651</ele>
        <time>2013-04-21T12:27:57Z</time>
      </trkpt>
      <trkpt lat="59.8448022" lon="17.510656">
        <ele>24.651</ele>
        <time>2013-04-21T12:27:58Z</time>
      </trkpt>
      <trkpt lat="59.8447394" lon="17.5106353">
        <ele>25.1317</ele>
        <time>2013-04-21T12:27:59Z</time>
      </trkpt>
      <trkpt lat="59.8446809" lon="17.5106026">
        <ele>25.1317</ele>
        <time>2013-04-21T12:28:00Z</time>
      </trkpt>
      <trkpt lat="59.8446269" lon="17.5105565">
        <ele>24.651</ele>
        <time>2013-04-21T12:28:01Z</time>
      </trkpt>
      <trkpt lat="59.8445783" lon="17.5105016">
        <ele>24.651</ele>
        <time>2013-04-21T12:28:02Z</time>
      </trkpt>
      <trkpt lat="59.8445356" lon="17.5104311">
        <ele>24.651</ele>
        <time>2013-04-21T12:28:03Z</time>
      </trkpt>
      <trkpt lat="59.8444955" lon="17.5103595">
        <ele>25.1317</ele>
        <time>2013-04-21T12:28:04Z</time>
      </trkpt>
      <trkpt lat="59.844456" lon="17.5102863">
        <ele>25.1317</ele>
        <time>2013-04-21T12:28:05Z</time>
      </trkpt>
      <trkpt lat="59.8444172" lon="17.5102183">
        <ele>25.6123</ele>
        <time>2013-04-21T12:28:06Z</time>
      </trkpt>
      <trkpt lat="59.8443815" lon="17.5101581">
        <ele>25.6123</ele>
        <time>2013-04-21T12:28:07Z</time>
      </trkpt>
      <trkpt lat="59.8443467" lon="17.5100961">
        <ele>25.6123</ele>
        <time>2013-04-21T12:28:08Z</time>
      </trkpt>
      <trkpt lat="59.8443108" lon="17.5100275">
        <ele>25.6123</ele>
        <time>2013-04-21T12:28:09Z</time>
      </trkpt>
      <trkpt lat="59.8442797" lon="17.5099572">
        <ele>25.6123</ele>
        <time>2013-04-21T12:28:10Z</time>
      </trkpt>
      <trkpt lat="59.8442509" lon="17.5098842">
        <ele>24.651</ele>
        <time>2013-04-21T12:28:11Z</time>
      </trkpt>
      <trkpt lat="59.844222" lon="17.5098286">
        <ele>24.1703</ele>
        <time>2013-04-21T12:28:12Z</time>
      </trkpt>
      <trkpt lat="59.8442001" lon="17.509781">
        <ele>23.6896</ele>
        <time>2013-04-21T12:28:13Z</time>
      </trkpt>
      <trkpt lat="59.8441807" lon="17.5097261">
        <ele>24.1703</ele>
        <time>2013-04-21T12:28:14Z</time>
      </trkpt>
      <trkpt lat="59.8441642" lon="17.5096749">
        <ele>23.6896</ele>
        <time>2013-04-21T12:28:15Z</time>
      </trkpt>
      <trkpt lat="59.8441545" lon="17.5096292">
        <ele>22.7283</ele>
        <time>2013-04-21T12:28:16Z</time>
      </trkpt>
      <trkpt lat="59.8441489" lon="17.5095844">
        <ele>21.2864</ele>
        <time>2013-04-21T12:28:17Z</time>
      </trkpt>
      <trkpt lat="59.8441394" lon="17.5095353">
        <ele>20.8057</ele>
        <time>2013-04-21T12:28:18Z</time>
      </trkpt>
      <trkpt lat="59.8441297" lon="17.5094852">
        <ele>19.8444</ele>
        <time>2013-04-21T12:28:19Z</time>
      </trkpt>
      <trkpt lat="59.8441084" lon="17.5093936">
        <ele>21.767</ele>
        <time>2013-04-21T12:28:20Z</time>
      </trkpt>
      <trkpt lat="59.8440876" lon="17.5093045">
        <ele>22.7283</ele>
        <time>2013-04-21T12:28:21Z</time>
      </trkpt>
      <trkpt lat="59.8440661" lon="17.5092138">
        <ele>23.6896</ele>
        <time>2013-04-21T12:28:22Z</time>
      </trkpt>
      <trkpt lat="59.8440406" lon="17.5091235">
        <ele>24.1703</ele>
        <time>2013-04-21T12:28:23Z</time>
      </trkpt>
      <trkpt lat="59.8440181" lon="17.5090544">
        <ele>23.6896</ele>
        <time>2013-04-21T12:28:24Z</time>
      </trkpt>
      <trkpt lat="59.8439883" lon="17.5089827">
        <ele>23.6896</ele>
        <time>2013-04-21T12:28:25Z</time>
      </trkpt>
      <trkpt lat="59.8439513" lon="17.5089201">
        <ele>23.209</ele>
        <time>2013-04-21T12:28:26Z</time>
      </trkpt>
      <trkpt lat="59.8439095" lon="17.5088654">
        <ele>23.209</ele>
        <time>2013-04-21T12:28:27Z</time>
      </trkpt>
      <trkpt lat="59.8438656" lon="17.5088151">
        <ele>22.7283</ele>
        <time>2013-04-21T12:28:28Z</time>
      </trkpt>
      <trkpt lat="59.8438178" lon="17.5087643">
        <ele>23.209</ele>
        <time>2013-04-21T12:28:29Z</time>
      </trkpt>
      <trkpt lat="59.8437713" lon="17.5087129">
        <ele>23.6896</ele>
        <time>2013-04-21T12:28:30Z</time>
      </trkpt>
      <trkpt lat="59.843726" lon="17.5086648">
        <ele>23.6896</ele>
        <time>2013-04-21T12:28:31Z</time>
      </trkpt>
      <trkpt lat="59.8436769" lon="17.5086157">
        <ele>24.1703</ele>
        <time>2013-04-21T12:28:32Z</time>
      </trkpt>
      <trkpt lat="59.8436292" lon="17.5085654">
        <ele>24.651</ele>
        <time>2013-04-21T12:28:33Z</time>
      </trkpt>
      <trkpt lat="59.8435828" lon="17.5085081">
        <ele>25.1317</ele>
        <time>2013-04-21T12:28:34Z</time>
      </trkpt>
      <trkpt lat="59.8435372" lon="17.5084497">
        <ele>25.6123</ele>
        <time>2013-04-21T12:28:35Z</time>
      </trkpt>
      <trkpt lat="59.8434954" lon="17.5083958">
        <ele>25.6123</ele>
        <time>2013-04-21T12:28:36Z</time>
      </trkpt>
      <trkpt lat="59.8434538" lon="17.5083457">
        <ele>26.0929</ele>
        <time>2013-04-21T12:28:37Z</time>
      </trkpt>
      <trkpt lat="59.8434142" lon="17.5082881">
        <ele>26.0929</ele>
        <time>2013-04-21T12:28:38Z</time>
      </trkpt>
      <trkpt lat="59.8433755" lon="17.5082263">
        <ele>26.5736</ele>
        <time>2013-04-21T12:28:39Z</time>
      </trkpt>
      <trkpt lat="59.8433367" lon="17.5081674">
        <ele>27.0543</ele>
        <time>2013-04-21T12:28:40Z</time>
      </trkpt>
      <trkpt lat="59.843297" lon="17.508112">
        <ele>27.5349</ele>
        <time>2013-04-21T12:28:41Z</time>
      </trkpt>
      <trkpt lat="59.8432557" lon="17.5080623">
        <ele>28.0155</ele>
        <time>2013-04-21T12:28:42Z</time>
      </trkpt>
      <trkpt lat="59.8432133" lon="17.5080183">
        <ele>27.5349</ele>
        <time>2013-04-21T12:28:43Z</time>
      </trkpt>
      <trkpt lat="59.8431696" lon="17.5079767">
        <ele>27.5349</ele>
        <time>2013-04-21T12:28:44Z</time>
      </trkpt>
      <trkpt lat="59.8431227" lon="17.5079388">
        <ele>27.5349</ele>
        <time>2013-04-21T12:28:45Z</time>
      </trkpt>
      <trkpt lat="59.8430736" lon="17.5079091">
        <ele>27.5349</ele>
        <time>2013-04-21T12:28:46Z</time>
      </trkpt>
      <trkpt lat="59.843021" lon="17.5078821">
        <ele>27.5349</ele>
        <time>2013-04-21T12:28:47Z</time>
      </trkpt>
      <trkpt lat="59.8429666" lon="17.5078609">
        <ele>27.5349</ele>
        <time>2013-04-21T12:28:48Z</time>
      </trkpt>
      <trkpt lat="59.8428997" lon="17.5078195">
        <ele>27.5349</ele>
        <time>2013-04-21T12:28:49Z</time>
      </trkpt>
      <trkpt lat="59.842828" lon="17.5077888">
        <ele>27.5349</ele>
        <time>2013-04-21T12:28:50Z</time>
      </trkpt>
      <trkpt lat="59.8427662" lon="17.5077861">
        <ele>27.5349</ele>
        <time>2013-04-21T12:28:51Z</time>
      </trkpt>
      <trkpt lat="59.8427008" lon="17.5078404">
        <ele>27.5349</ele>
        <time>2013-04-21T12:28:52Z</time>
      </trkpt>
      <trkpt lat="59.8426394" lon="17.5079064">
        <ele>27.0543</ele>
        <time>2013-04-21T12:28:53Z</time>
      </trkpt>
      <trkpt lat="59.8425859" lon="17.5079783">
        <ele>27.0543</ele>
        <time>2013-04-21T12:28:54Z</time>
      </trkpt>
      <trkpt lat="59.8425337" lon="17.508051">
        <ele>27.0543</ele>
        <time>2013-04-21T12:28:55Z</time>
      </trkpt>
      <trkpt lat="59.842483" lon="17.5081223">
        <ele>26.5736</ele>
        <time>2013-04-21T12:28:56Z</time>
      </trkpt>
      <trkpt lat="59.842434" lon="17.5081938">
        <ele>26.5736</ele>
        <time>2013-04-21T12:28:57Z</time>
      </trkpt>
      <trkpt lat="59.8423845" lon="17.5082608">
        <ele>26.5736</ele>
        <time>2013-04-21T12:28:58Z</time>
      </trkpt>
      <trkpt lat="59.8423351" lon="17.5083273">
        <ele>26.5736</ele>
        <time>2013-04-21T12:28:59Z</time>
      </trkpt>
      <trkpt lat="59.8422866" lon="17.5083944">
        <ele>26.5736</ele>
        <time>2013-04-21T12:29:00Z</time>
      </trkpt>
      <trkpt lat="59.8422358" lon="17.5084577">
        <ele>26.5736</ele>
        <time>2013-04-21T12:29:01Z</time>
      </trkpt>
      <trkpt lat="59.8421849" lon="17.508519">
        <ele>26.5736</ele>
        <time>2013-04-21T12:29:02Z</time>
      </trkpt>
      <trkpt lat="59.8421359" lon="17.5085783">
        <ele>26.0929</ele>
        <time>2013-04-21T12:29:03Z</time>
      </trkpt>
      <trkpt lat="59.8420892" lon="17.5086367">
        <ele>26.5736</ele>
        <time>2013-04-21T12:29:04Z</time>
      </trkpt>
      <trkpt lat="59.8420416" lon="17.5086907">
        <ele>26.0929</ele>
        <time>2013-04-21T12:29:05Z</time>
      </trkpt>
      <trkpt lat="59.8419924" lon="17.5087407">
        <ele>26.0929</ele>
        <time>2013-04-21T12:29:06Z</time>
      </trkpt>
      <trkpt lat="59.8419426" lon="17.5087886">
        <ele>25.6123</ele>
        <time>2013-04-21T12:29:07Z</time>
      </trkpt>
      <trkpt lat="59.8418944" lon="17.5088347">
        <ele>25.6123</ele>
        <time>2013-04-21T12:29:08Z</time>
      </trkpt>
      <trkpt lat="59.8418459" lon="17.5088771">
        <ele>25.1317</ele>
        <time>2013-04-21T12:29:09Z</time>
      </trkpt>
      <trkpt lat="59.8417987" lon="17.5089179">
        <ele>25.1317</ele>
        <time>2013-04-21T12:29:10Z</time>
      </trkpt>
      <trkpt lat="59.8417516" lon="17.5089576">
        <ele>24.651</ele>
        <time>2013-04-21T12:29:11Z</time>
      </trkpt>
      <trkpt lat="59.8417044" lon="17.5089979">
        <ele>24.651</ele>
        <time>2013-04-21T12:29:12Z</time>
      </trkpt>
      <trkpt lat="59.8416567" lon="17.5090366">
        <ele>24.651</ele>
        <time>2013-04-21T12:29:13Z</time>
      </trkpt>
      <trkpt lat="59.8416096" lon="17.509075">
        <ele>24.651</ele>
        <time>2013-04-21T12:29:14Z</time>
      </trkpt>
      <trkpt lat="59.8415619" lon="17.5091113">
        <ele>24.651</ele>
        <time>2013-04-21T12:29:15Z</time>
      </trkpt>
      <trkpt lat="59.8415148" lon="17.5091444">
        <ele>24.651</ele>
        <time>2013-04-21T12:29:16Z</time>
      </trkpt>
      <trkpt lat="59.8414677" lon="17.5091739">
        <ele>24.651</ele>
        <time>2013-04-21T12:29:17Z</time>
      </trkpt>
      <trkpt lat="59.8414208" lon="17.5092004">
        <ele>24.651</ele>
        <time>2013-04-21T12:29:18Z</time>
      </trkpt>
      <trkpt lat="59.841374" lon="17.5092222">
        <ele>25.1317</ele>
        <time>2013-04-21T12:29:19Z</time>
      </trkpt>
      <trkpt lat="59.8413265" lon="17.5092411">
        <ele>25.6123</ele>
        <time>2013-04-21T12:29:20Z</time>
      </trkpt>
      <trkpt lat="59.8412774" lon="17.5092561">
        <ele>25.6123</ele>
        <time>2013-04-21T12:29:21Z</time>
      </trkpt>
      <trkpt lat="59.8412267" lon="17.5092679">
        <ele>25.6123</ele>
        <time>2013-04-21T12:29:22Z</time>
      </trkpt>
      <trkpt lat="59.8411755" lon="17.509277">
        <ele>25.6123</ele>
        <time>2013-04-21T12:29:23Z</time>
      </trkpt>
      <trkpt lat="59.8411216" lon="17.5092891">
        <ele>25.6123</ele>
        <time>2013-04-21T12:29:24Z</time>
      </trkpt>
      <trkpt lat="59.8410662" lon="17.5092982">
        <ele>26.0929</ele>
        <time>2013-04-21T12:29:25Z</time>
      </trkpt>
      <trkpt lat="59.8410102" lon="17.5093057">
        <ele>26.0929</ele>
        <time>2013-04-21T12:29:26Z</time>
      </trkpt>
      <trkpt lat="59.8409543" lon="17.5093165">
        <ele>26.5736</ele>
        <time>2013-04-21T12:29:27Z</time>
      </trkpt>
      <trkpt lat="59.8408979" lon="17.5093258">
        <ele>26.5736</ele>
        <time>2013-04-21T12:29:28Z</time>
      </trkpt>
      <trkpt lat="59.8408429" lon="17.5093274">
        <ele>26.5736</ele>
        <time>2013-04-21T12:29:29Z</time>
      </trkpt>
      <trkpt lat="59.8407879" lon="17.5093294">
        <ele>26.5736</ele>
        <time>2013-04-21T12:29:30Z</time>
      </trkpt>
      <trkpt lat="59.8407351" lon="17.5093314">
        <ele>27.0543</ele>
        <time>2013-04-21T12:29:31Z</time>
      </trkpt>
      <trkpt lat="59.8406826" lon="17.5093372">
        <ele>27.5349</ele>
        <time>2013-04-21T12:29:32Z</time>
      </trkpt>
      <trkpt lat="59.8406308" lon="17.5093453">
        <ele>28.0155</ele>
        <time>2013-04-21T12:29:33Z</time>
      </trkpt>
      <trkpt lat="59.840578" lon="17.5093546">
        <ele>28.4962</ele>
        <time>2013-04-21T12:29:34Z</time>
      </trkpt>
      <trkpt lat="59.8405248" lon="17.5093614">
        <ele>28.4962</ele>
        <time>2013-04-21T12:29:35Z</time>
      </trkpt>
      <trkpt lat="59.8404718" lon="17.509368">
        <ele>28.9769</ele>
        <time>2013-04-21T12:29:36Z</time>
      </trkpt>
      <trkpt lat="59.8404185" lon="17.5093738">
        <ele>28.9769</ele>
        <time>2013-04-21T12:29:37Z</time>
      </trkpt>
      <trkpt lat="59.8403643" lon="17.5093794">
        <ele>29.4575</ele>
        <time>2013-04-21T12:29:38Z</time>
      </trkpt>
      <trkpt lat="59.8403093" lon="17.5093872">
        <ele>29.4575</ele>
        <time>2013-04-21T12:29:39Z</time>
      </trkpt>
      <trkpt lat="59.8402537" lon="17.5093972">
        <ele>29.9381</ele>
        <time>2013-04-21T12:29:40Z</time>
      </trkpt>
      <trkpt lat="59.8401949" lon="17.5094056">
        <ele>29.9381</ele>
        <time>2013-04-21T12:29:41Z</time>
      </trkpt>
      <trkpt lat="59.8401369" lon="17.5094128">
        <ele>30.4188</ele>
        <time>2013-04-21T12:29:42Z</time>
      </trkpt>
      <trkpt lat="59.8400807" lon="17.5094172">
        <ele>30.8995</ele>
        <time>2013-04-21T12:29:43Z</time>
      </trkpt>
      <trkpt lat="59.8400243" lon="17.5094215">
        <ele>30.8995</ele>
        <time>2013-04-21T12:29:44Z</time>
      </trkpt>
      <trkpt lat="59.8399684" lon="17.5094299">
        <ele>31.3801</ele>
        <time>2013-04-21T12:29:45Z</time>
      </trkpt>
      <trkpt lat="59.839913" lon="17.5094413">
        <ele>31.3801</ele>
        <time>2013-04-21T12:29:46Z</time>
      </trkpt>
      <trkpt lat="59.8398586" lon="17.5094506">
        <ele>31.8607</ele>
        <time>2013-04-21T12:29:47Z</time>
      </trkpt>
      <trkpt lat="59.8398057" lon="17.5094566">
        <ele>31.8607</ele>
        <time>2013-04-21T12:29:48Z</time>
      </trkpt>
      <trkpt lat="59.8397531" lon="17.5094616">
        <ele>32.3416</ele>
        <time>2013-04-21T12:29:49Z</time>
      </trkpt>
      <trkpt lat="59.8397017" lon="17.5094703">
        <ele>32.8223</ele>
        <time>2013-04-21T12:29:50Z</time>
      </trkpt>
      <trkpt lat="59.8396525" lon="17.5094785">
        <ele>32.8223</ele>
        <time>2013-04-21T12:29:51Z</time>
      </trkpt>
      <trkpt lat="59.8396028" lon="17.5094841">
        <ele>33.3029</ele>
        <time>2013-04-21T12:29:52Z</time>
      </trkpt>
      <trkpt lat="59.8395541" lon="17.509488">
        <ele>33.7834</ele>
        <time>2013-04-21T12:29:53Z</time>
      </trkpt>
      <trkpt lat="59.8395054" lon="17.5094913">
        <ele>34.2642</ele>
        <time>2013-04-21T12:29:54Z</time>
      </trkpt>
      <trkpt lat="59.8394572" lon="17.5094957">
        <ele>34.2642</ele>
        <time>2013-04-21T12:29:55Z</time>
      </trkpt>
      <trkpt lat="59.8394111" lon="17.509501">
        <ele>34.2642</ele>
        <time>2013-04-21T12:29:56Z</time>
      </trkpt>
      <trkpt lat="59.839367" lon="17.5095096">
        <ele>34.2642</ele>
        <time>2013-04-21T12:29:57Z</time>
      </trkpt>
      <trkpt lat="59.8393234" lon="17.5095236">
        <ele>34.2642</ele>
        <time>2013-04-21T12:29:58Z</time>
      </trkpt>
      <trkpt lat="59.839279" lon="17.509541">
        <ele>34.2642</ele>
        <time>2013-04-21T12:29:59Z</time>
      </trkpt>
      <trkpt lat="59.8392354" lon="17.5095563">
        <ele>34.2642</ele>
        <time>2013-04-21T12:30:00Z</time>
      </trkpt>
      <trkpt lat="59.8391936" lon="17.5095704">
        <ele>34.2642</ele>
        <time>2013-04-21T12:30:01Z</time>
      </trkpt>
      <trkpt lat="59.8391533" lon="17.5095838">
        <ele>34.2642</ele>
        <time>2013-04-21T12:30:02Z</time>
      </trkpt>
      <trkpt lat="59.8391142" lon="17.5095988">
        <ele>34.2642</ele>
        <time>2013-04-21T12:30:03Z</time>
      </trkpt>
      <trkpt lat="59.8390739" lon="17.5096139">
        <ele>34.2642</ele>
        <time>2013-04-21T12:30:04Z</time>
      </trkpt>
      <trkpt lat="59.839032" lon="17.5096303">
        <ele>34.2642</ele>
        <time>2013-04-21T12:30:05Z</time>
      </trkpt>
      <trkpt lat="59.83899" lon="17.5096472">
        <ele>34.2642</ele>
        <time>2013-04-21T12:30:06Z</time>
      </trkpt>
      <trkpt lat="59.838948" lon="17.5096656">
        <ele>34.2642</ele>
        <time>2013-04-21T12:30:07Z</time>
      </trkpt>
      <trkpt lat="59.8389071" lon="17.5096863">
        <ele>34.2642</ele>
        <time>2013-04-21T12:30:08Z</time>
      </trkpt>
      <trkpt lat="59.8388686" lon="17.509708">
        <ele>33.7834</ele>
        <time>2013-04-21T12:30:09Z</time>
      </trkpt>
      <trkpt lat="59.8388321" lon="17.5097293">
        <ele>33.7834</ele>
        <time>2013-04-21T12:30:10Z</time>
      </trkpt>
      <trkpt lat="59.8387958" lon="17.5097536">
        <ele>33.7834</ele>
        <time>2013-04-21T12:30:11Z</time>
      </trkpt>
      <trkpt lat="59.83876" lon="17.5097796">
        <ele>34.2642</ele>
        <time>2013-04-21T12:30:12Z</time>
      </trkpt>
      <trkpt lat="59.8387215" lon="17.5098096">
        <ele>33.7834</ele>
        <time>2013-04-21T12:30:13Z</time>
      </trkpt>
      <trkpt lat="59.8386839" lon="17.5098422">
        <ele>33.7834</ele>
        <time>2013-04-21T12:30:14Z</time>
      </trkpt>
      <trkpt lat="59.8386466" lon="17.5098788">
        <ele>33.3029</ele>
        <time>2013-04-21T12:30:15Z</time>
      </trkpt>
      <trkpt lat="59.8386108" lon="17.5099115">
        <ele>33.3029</ele>
        <time>2013-04-21T12:30:16Z</time>
      </trkpt>
      <trkpt lat="59.8385703" lon="17.5099552">
        <ele>33.3029</ele>
        <time>2013-04-21T12:30:17Z</time>
      </trkpt>
      <trkpt lat="59.8385322" lon="17.5100013">
        <ele>33.3029</ele>
        <time>2013-04-21T12:30:18Z</time>
      </trkpt>
      <trkpt lat="59.8384985" lon="17.5100503">
        <ele>33.3029</ele>
        <time>2013-04-21T12:30:19Z</time>
      </trkpt>
      <trkpt lat="59.8384664" lon="17.5101012">
        <ele>33.3029</ele>
        <time>2013-04-21T12:30:20Z</time>
      </trkpt>
      <trkpt lat="59.8384319" lon="17.5101525">
        <ele>33.3029</ele>
        <time>2013-04-21T12:30:21Z</time>
      </trkpt>
      <trkpt lat="59.838398" lon="17.5102008">
        <ele>33.3029</ele>
        <time>2013-04-21T12:30:22Z</time>
      </trkpt>
      <trkpt lat="59.8383668" lon="17.5102494">
        <ele>33.3029</ele>
        <time>2013-04-21T12:30:23Z</time>
      </trkpt>
      <trkpt lat="59.8383389" lon="17.5102955">
        <ele>33.3029</ele>
        <time>2013-04-21T12:30:24Z</time>
      </trkpt>
      <trkpt lat="59.8383102" lon="17.5103377">
        <ele>33.3029</ele>
        <time>2013-04-21T12:30:25Z</time>
      </trkpt>
      <trkpt lat="59.8382803" lon="17.5103747">
        <ele>32.8223</ele>
        <time>2013-04-21T12:30:26Z</time>
      </trkpt>
      <trkpt lat="59.838253" lon="17.5104203">
        <ele>32.8223</ele>
        <time>2013-04-21T12:30:27Z</time>
      </trkpt>
      <trkpt lat="59.8382267" lon="17.5104762">
        <ele>33.3029</ele>
        <time>2013-04-21T12:30:28Z</time>
      </trkpt>
      <trkpt lat="59.8381989" lon="17.5105337">
        <ele>33.3029</ele>
        <time>2013-04-21T12:30:29Z</time>
      </trkpt>
      <trkpt lat="59.8381705" lon="17.5105809">
        <ele>33.7834</ele>
        <time>2013-04-21T12:30:30Z</time>
      </trkpt>
      <trkpt lat="59.8381385" lon="17.5106295">
        <ele>33.3029</ele>
        <time>2013-04-21T12:30:31Z</time>
      </trkpt>
      <trkpt lat="59.8381037" lon="17.5106776">
        <ele>33.7834</ele>
        <time>2013-04-21T12:30:32Z</time>
      </trkpt>
      <trkpt lat="59.8380706" lon="17.510729">
        <ele>33.7834</ele>
        <time>2013-04-21T12:30:33Z</time>
      </trkpt>
      <trkpt lat="59.8380343" lon="17.5107871">
        <ele>33.7834</ele>
        <time>2013-04-21T12:30:34Z</time>
      </trkpt>
      <trkpt lat="59.8379918" lon="17.5108466">
        <ele>33.3029</ele>
        <time>2013-04-21T12:30:35Z</time>
      </trkpt>
      <trkpt lat="59.8379483" lon="17.510902">
        <ele>33.3029</ele>
        <time>2013-04-21T12:30:36Z</time>
      </trkpt>
      <trkpt lat="59.8379056" lon="17.5109509">
        <ele>33.3029</ele>
        <time>2013-04-21T12:30:37Z</time>
      </trkpt>
      <trkpt lat="59.8378602" lon="17.5109973">
        <ele>32.8223</ele>
        <time>2013-04-21T12:30:38Z</time>
      </trkpt>
      <trkpt lat="59.8378147" lon="17.5110389">
        <ele>33.3029</ele>
        <time>2013-04-21T12:30:39Z</time>
      </trkpt>
      <trkpt lat="59.837769" lon="17.5110796">
        <ele>33.7834</ele>
        <time>2013-04-21T12:30:40Z</time>
      </trkpt>
      <trkpt lat="59.8377219" lon="17.5111187">
        <ele>33.7834</ele>
        <time>2013-04-21T12:30:41Z</time>
      </trkpt>
      <trkpt lat="59.8376741" lon="17.5111575">
        <ele>34.2642</ele>
        <time>2013-04-21T12:30:42Z</time>
      </trkpt>
      <trkpt lat="59.837624" lon="17.5111967">
        <ele>34.2642</ele>
        <time>2013-04-21T12:30:43Z</time>
      </trkpt>
      <trkpt lat="59.8375701" lon="17.5112399">
        <ele>34.2642</ele>
        <time>2013-04-21T12:30:44Z</time>
      </trkpt>
      <trkpt lat="59.8375163" lon="17.5112853">
        <ele>34.7449</ele>
        <time>2013-04-21T12:30:45Z</time>
      </trkpt>
      <trkpt lat="59.8374612" lon="17.5113399">
        <ele>34.7449</ele>
        <time>2013-04-21T12:30:46Z</time>
      </trkpt>
      <trkpt lat="59.8374043" lon="17.5114029">
        <ele>34.2642</ele>
        <time>2013-04-21T12:30:47Z</time>
      </trkpt>
      <trkpt lat="59.8373498" lon="17.5114701">
        <ele>34.2642</ele>
        <time>2013-04-21T12:30:48Z</time>
      </trkpt>
      <trkpt lat="59.8372961" lon="17.5115336">
        <ele>34.2642</ele>
        <time>2013-04-21T12:30:49Z</time>
      </trkpt>
      <trkpt lat="59.8372407" lon="17.5115972">
        <ele>33.7834</ele>
        <time>2013-04-21T12:30:50Z</time>
      </trkpt>
      <trkpt lat="59.8371864" lon="17.511651">
        <ele>33.3029</ele>
        <time>2013-04-21T12:30:51Z</time>
      </trkpt>
      <trkpt lat="59.8371339" lon="17.5116939">
        <ele>32.8223</ele>
        <time>2013-04-21T12:30:52Z</time>
      </trkpt>
      <trkpt lat="59.8370774" lon="17.5117274">
        <ele>32.3416</ele>
        <time>2013-04-21T12:30:53Z</time>
      </trkpt>
      <trkpt lat="59.8370193" lon="17.5117459">
        <ele>31.8607</ele>
        <time>2013-04-21T12:30:54Z</time>
      </trkpt>
      <trkpt lat="59.8369599" lon="17.5117587">
        <ele>31.3801</ele>
        <time>2013-04-21T12:30:55Z</time>
      </trkpt>
      <trkpt lat="59.836901" lon="17.5117717">
        <ele>30.8995</ele>
        <time>2013-04-21T12:30:56Z</time>
      </trkpt>
      <trkpt lat="59.8368443" lon="17.5117779">
        <ele>30.8995</ele>
        <time>2013-04-21T12:30:57Z</time>
      </trkpt>
      <trkpt lat="59.8367879" lon="17.5117805">
        <ele>30.4188</ele>
        <time>2013-04-21T12:30:58Z</time>
      </trkpt>
      <trkpt lat="59.836733" lon="17.5117758">
        <ele>29.4575</ele>
        <time>2013-04-21T12:30:59Z</time>
      </trkpt>
      <trkpt lat="59.8366826" lon="17.5117578">
        <ele>28.4962</ele>
        <time>2013-04-21T12:31:00Z</time>
      </trkpt>
      <trkpt lat="59.836631" lon="17.5117402">
        <ele>27.5349</ele>
        <time>2013-04-21T12:31:01Z</time>
      </trkpt>
      <trkpt lat="59.836585" lon="17.5117122">
        <ele>26.0929</ele>
        <time>2013-04-21T12:31:02Z</time>
      </trkpt>
      <trkpt lat="59.8365415" lon="17.5116718">
        <ele>24.651</ele>
        <time>2013-04-21T12:31:03Z</time>
      </trkpt>
      <trkpt lat="59.8364978" lon="17.5116211">
        <ele>22.7283</ele>
        <time>2013-04-21T12:31:04Z</time>
      </trkpt>
      <trkpt lat="59.8364563" lon="17.5115536">
        <ele>21.767</ele>
        <time>2013-04-21T12:31:05Z</time>
      </trkpt>
      <trkpt lat="59.8364161" lon="17.5114673">
        <ele>20.8057</ele>
        <time>2013-04-21T12:31:06Z</time>
      </trkpt>
      <trkpt lat="59.8363809" lon="17.5113823">
        <ele>19.3638</ele>
        <time>2013-04-21T12:31:07Z</time>
      </trkpt>
      <trkpt lat="59.836346" lon="17.5112914">
        <ele>18.4023</ele>
        <time>2013-04-21T12:31:08Z</time>
      </trkpt>
      <trkpt lat="59.8363099" lon="17.5111976">
        <ele>17.4412</ele>
        <time>2013-04-21T12:31:09Z</time>
      </trkpt>
      <trkpt lat="59.8362715" lon="17.5111067">
        <ele>16.4797</ele>
        <time>2013-04-21T12:31:10Z</time>
      </trkpt>
      <trkpt lat="59.8362336" lon="17.5110125">
        <ele>15.5184</ele>
        <time>2013-04-21T12:31:11Z</time>
      </trkpt>
      <trkpt lat="59.8361948" lon="17.5109187">
        <ele>14.557</ele>
        <time>2013-04-21T12:31:12Z</time>
      </trkpt>
      <trkpt lat="59.8361527" lon="17.5108268">
        <ele>13.5958</ele>
        <time>2013-04-21T12:31:13Z</time>
      </trkpt>
      <trkpt lat="59.8361053" lon="17.5107349">
        <ele>12.6344</ele>
        <time>2013-04-21T12:31:14Z</time>
      </trkpt>
      <trkpt lat="59.8360488" lon="17.5106218">
        <ele>13.1151</ele>
        <time>2013-04-21T12:31:15Z</time>
      </trkpt>
      <trkpt lat="59.8359959" lon="17.5105269">
        <ele>12.1538</ele>
        <time>2013-04-21T12:31:16Z</time>
      </trkpt>
      <trkpt lat="59.8359382" lon="17.5104305">
        <ele>11.6732</ele>
        <time>2013-04-21T12:31:17Z</time>
      </trkpt>
      <trkpt lat="59.8358783" lon="17.5103334">
        <ele>11.1925</ele>
        <time>2013-04-21T12:31:18Z</time>
      </trkpt>
      <trkpt lat="59.8358182" lon="17.5102334">
        <ele>10.7118</ele>
        <time>2013-04-21T12:31:19Z</time>
      </trkpt>
      <trkpt lat="59.835759" lon="17.5101306">
        <ele>10.2312</ele>
        <time>2013-04-21T12:31:20Z</time>
      </trkpt>
      <trkpt lat="59.8357002" lon="17.5100291">
        <ele>9.2699</ele>
        <time>2013-04-21T12:31:21Z</time>
      </trkpt>
      <trkpt lat="59.835645" lon="17.5099208">
        <ele>9.2699</ele>
        <time>2013-04-21T12:31:22Z</time>
      </trkpt>
      <trkpt lat="59.8355892" lon="17.5098174">
        <ele>8.30859</ele>
        <time>2013-04-21T12:31:23Z</time>
      </trkpt>
      <trkpt lat="59.8355307" lon="17.5097135">
        <ele>8.30859</ele>
        <time>2013-04-21T12:31:24Z</time>
      </trkpt>
      <trkpt lat="59.8354691" lon="17.5096164">
        <ele>7.34717</ele>
        <time>2013-04-21T12:31:25Z</time>
      </trkpt>
      <trkpt lat="59.8354027" lon="17.5095304">
        <ele>6.86646</ele>
        <time>2013-04-21T12:31:26Z</time>
      </trkpt>
      <trkpt lat="59.8353303" lon="17.5094536">
        <ele>6.86646</ele>
        <time>2013-04-21T12:31:27Z</time>
      </trkpt>
      <trkpt lat="59.8352523" lon="17.5093826">
        <ele>7.34717</ele>
        <time>2013-04-21T12:31:28Z</time>
      </trkpt>
      <trkpt lat="59.8351624" lon="17.5093036">
        <ele>7.82788</ele>
        <time>2013-04-21T12:31:29Z</time>
      </trkpt>
      <trkpt lat="59.8350687" lon="17.5092329">
        <ele>8.78918</ele>
        <time>2013-04-21T12:31:30Z</time>
      </trkpt>
      <trkpt lat="59.8349669" lon="17.5091401">
        <ele>8.78918</ele>
        <time>2013-04-21T12:31:31Z</time>
      </trkpt>
      <trkpt lat="59.8348623" lon="17.5090722">
        <ele>8.78918</ele>
        <time>2013-04-21T12:31:32Z</time>
      </trkpt>
      <trkpt lat="59.8347655" lon="17.5090419">
        <ele>8.78918</ele>
        <time>2013-04-21T12:31:33Z</time>
      </trkpt>
      <trkpt lat="59.8346694" lon="17.5090137">
        <ele>9.2699</ele>
        <time>2013-04-21T12:31:34Z</time>
      </trkpt>
      <trkpt lat="59.8345708" lon="17.5089777">
        <ele>10.2312</ele>
        <time>2013-04-21T12:31:35Z</time>
      </trkpt>
      <trkpt lat="59.8344802" lon="17.5089358">
        <ele>10.2312</ele>
        <time>2013-04-21T12:31:36Z</time>
      </trkpt>
      <trkpt lat="59.8343947" lon="17.5088998">
        <ele>10.7118</ele>
        <time>2013-04-21T12:31:37Z</time>
      </trkpt>
      <trkpt lat="59.8343175" lon="17.5088764">
        <ele>11.1925</ele>
        <time>2013-04-21T12:31:38Z</time>
      </trkpt>
      <trkpt lat="59.8342502" lon="17.5088586">
        <ele>11.1925</ele>
        <time>2013-04-21T12:31:39Z</time>
      </trkpt>
      <trkpt lat="59.8341602" lon="17.5087891">
        <ele>14.557</ele>
        <time>2013-04-21T12:31:40Z</time>
      </trkpt>
      <trkpt lat="59.8340798" lon="17.5087504">
        <ele>15.5184</ele>
        <time>2013-04-21T12:31:41Z</time>
      </trkpt>
      <trkpt lat="59.8339977" lon="17.508701">
        <ele>16.9604</ele>
        <time>2013-04-21T12:31:42Z</time>
      </trkpt>
      <trkpt lat="59.8339197" lon="17.5086597">
        <ele>17.9218</ele>
        <time>2013-04-21T12:31:43Z</time>
      </trkpt>
      <trkpt lat="59.8338473" lon="17.5086373">
        <ele>18.4023</ele>
        <time>2013-04-21T12:31:44Z</time>
      </trkpt>
      <trkpt lat="59.8337643" lon="17.5085917">
        <ele>18.8831</ele>
        <time>2013-04-21T12:31:45Z</time>
      </trkpt>
      <trkpt lat="59.8336892" lon="17.5085783">
        <ele>18.8831</ele>
        <time>2013-04-21T12:31:46Z</time>
      </trkpt>
      <trkpt lat="59.8336146" lon="17.5085779">
        <ele>19.8444</ele>
        <time>2013-04-21T12:31:47Z</time>
      </trkpt>
      <trkpt lat="59.8335508" lon="17.5085789">
        <ele>20.325</ele>
        <time>2013-04-21T12:31:48Z</time>
      </trkpt>
      <trkpt lat="59.8334872" lon="17.5085934">
        <ele>20.325</ele>
        <time>2013-04-21T12:31:49Z</time>
      </trkpt>
      <trkpt lat="59.8334277" lon="17.5086145">
        <ele>20.8057</ele>
        <time>2013-04-21T12:31:50Z</time>
      </trkpt>
      <trkpt lat="59.8333716" lon="17.5086089">
        <ele>21.2864</ele>
        <time>2013-04-21T12:31:51Z</time>
      </trkpt>
      <trkpt lat="59.8333261" lon="17.5085695">
        <ele>21.767</ele>
        <time>2013-04-21T12:31:52Z</time>
      </trkpt>
      <trkpt lat="59.8332911" lon="17.5085005">
        <ele>21.767</ele>
        <time>2013-04-21T12:31:53Z</time>
      </trkpt>
      <trkpt lat="59.8332676" lon="17.5084118">
        <ele>22.2476</ele>
        <time>2013-04-21T12:31:54Z</time>
      </trkpt>
      <trkpt lat="59.8332534" lon="17.5083114">
        <ele>22.7283</ele>
        <time>2013-04-21T12:31:55Z</time>
      </trkpt>
      <trkpt lat="59.8332318" lon="17.508213">
        <ele>23.209</ele>
        <time>2013-04-21T12:31:56Z</time>
      </trkpt>
      <trkpt lat="59.833207" lon="17.5081166">
        <ele>23.209</ele>
        <time>2013-04-21T12:31:57Z</time>
      </trkpt>
      <trkpt lat="59.8331845" lon="17.5080167">
        <ele>23.6896</ele>
        <time>2013-04-21T12:31:58Z</time>
      </trkpt>
      <trkpt lat="59.8331606" lon="17.5079195">
        <ele>24.1703</ele>
        <time>2013-04-21T12:31:59Z</time>
      </trkpt>
      <trkpt lat="59.833134" lon="17.5078268">
        <ele>24.1703</ele>
        <time>2013-04-21T12:32:00Z</time>
      </trkpt>
      <trkpt lat="59.8331073" lon="17.5077366">
        <ele>24.1703</ele>
        <time>2013-04-21T12:32:01Z</time>
      </trkpt>
      <trkpt lat="59.8330806" lon="17.5076479">
        <ele>24.651</ele>
        <time>2013-04-21T12:32:02Z</time>
      </trkpt>
      <trkpt lat="59.833056" lon="17.5075604">
        <ele>25.1317</ele>
        <time>2013-04-21T12:32:03Z</time>
      </trkpt>
      <trkpt lat="59.8330329" lon="17.5074718">
        <ele>25.1317</ele>
        <time>2013-04-21T12:32:04Z</time>
      </trkpt>
      <trkpt lat="59.8330116" lon="17.5073867">
        <ele>25.6123</ele>
        <time>2013-04-21T12:32:05Z</time>
      </trkpt>
      <trkpt lat="59.8329914" lon="17.5073007">
        <ele>26.0929</ele>
        <time>2013-04-21T12:32:06Z</time>
      </trkpt>
      <trkpt lat="59.8329723" lon="17.5072222">
        <ele>26.0929</ele>
        <time>2013-04-21T12:32:07Z</time>
      </trkpt>
      <trkpt lat="59.8329541" lon="17.5071509">
        <ele>26.5736</ele>
        <time>2013-04-21T12:32:08Z</time>
      </trkpt>
      <trkpt lat="59.832936" lon="17.5070924">
        <ele>26.5736</ele>
        <time>2013-04-21T12:32:09Z</time>
      </trkpt>
      <trkpt lat="59.8329187" lon="17.5070475">
        <ele>26.5736</ele>
        <time>2013-04-21T12:32:10Z</time>
      </trkpt>
      <trkpt lat="59.8329055" lon="17.5070097">
        <ele>26.5736</ele>
        <time>2013-04-21T12:32:11Z</time>
      </trkpt>
      <trkpt lat="59.8328997" lon="17.5069823">
        <ele>27.0543</ele>
        <time>2013-04-21T12:32:12Z</time>
      </trkpt>
      <trkpt lat="59.8328971" lon="17.5069735">
        <ele>27.0543</ele>
        <time>2013-04-21T12:32:13Z</time>
      </trkpt>
      <trkpt lat="59.8328987" lon="17.5069704">
        <ele>27.5349</ele>
        <time>2013-04-21T12:32:14Z</time>
      </trkpt>
      <trkpt lat="59.8328992" lon="17.5069652">
        <ele>28.0155</ele>
        <time>2013-04-21T12:32:15Z</time>
      </trkpt>
      <trkpt lat="59.8329057" lon="17.5069621">
        <ele>27.5349</ele>
        <time>2013-04-21T12:32:16Z</time>
      </trkpt>
      <trkpt lat="59.8329071" lon="17.5069481">
        <ele>27.5349</ele>
        <time>2013-04-21T12:32:17Z</time>
      </trkpt>
      <trkpt lat="59.8329052" lon="17.5069334">
        <ele>27.5349</ele>
        <time>2013-04-21T12:32:18Z</time>
      </trkpt>
      <trkpt lat="59.8328987" lon="17.5069227">
        <ele>27.5349</ele>
        <time>2013-04-21T12:32:19Z</time>
      </trkpt>
      <trkpt lat="59.8328919" lon="17.5069176">
        <ele>27.5349</ele>
        <time>2013-04-21T12:32:20Z</time>
      </trkpt>
      <trkpt lat="59.8328874" lon="17.5069166">
        <ele>27.5349</ele>
        <time>2013-04-21T12:32:21Z</time>
      </trkpt>
      <trkpt lat="59.8328864" lon="17.5069235">
        <ele>27.5349</ele>
        <time>2013-04-21T12:32:22Z</time>
      </trkpt>
      <trkpt lat="59.8328869" lon="17.5069331">
        <ele>27.5349</ele>
        <time>2013-04-21T12:32:23Z</time>
      </trkpt>
      <trkpt lat="59.832885" lon="17.5069375">
        <ele>27.5349</ele>
        <time>2013-04-21T12:32:24Z</time>
      </trkpt>
      <trkpt lat="59.8328817" lon="17.5069412">
        <ele>28.0155</ele>
        <time>2013-04-21T12:32:25Z</time>
      </trkpt>
      <trkpt lat="59.8328757" lon="17.5069389">
        <ele>28.0155</ele>
        <time>2013-04-21T12:32:26Z</time>
      </trkpt>
      <trkpt lat="59.8328701" lon="17.506934">
        <ele>28.0155</ele>
        <time>2013-04-21T12:32:27Z</time>
      </trkpt>
      <trkpt lat="59.8328417" lon="17.5069067">
        <ele>35.2255</ele>
        <time>2013-04-21T12:34:42Z</time>
      </trkpt>
      <trkpt lat="59.8328257" lon="17.5068766">
        <ele>35.2255</ele>
        <time>2013-04-21T12:34:43Z</time>
      </trkpt>
      <trkpt lat="59.8328052" lon="17.5068361">
        <ele>35.2255</ele>
        <time>2013-04-21T12:34:44Z</time>
      </trkpt>
      <trkpt lat="59.8327804" lon="17.5067819">
        <ele>35.2255</ele>
        <time>2013-04-21T12:34:45Z</time>
      </trkpt>
      <trkpt lat="59.8327541" lon="17.5067153">
        <ele>35.2255</ele>
        <time>2013-04-21T12:34:46Z</time>
      </trkpt>
      <trkpt lat="59.8327261" lon="17.5066426">
        <ele>35.2255</ele>
        <time>2013-04-21T12:34:47Z</time>
      </trkpt>
      <trkpt lat="59.8326986" lon="17.5065621">
        <ele>35.2255</ele>
        <time>2013-04-21T12:34:48Z</time>
      </trkpt>
      <trkpt lat="59.8326661" lon="17.5064802">
        <ele>35.2255</ele>
        <time>2013-04-21T12:34:49Z</time>
      </trkpt>
      <trkpt lat="59.8326361" lon="17.5063953">
        <ele>34.7449</ele>
        <time>2013-04-21T12:34:50Z</time>
      </trkpt>
      <trkpt lat="59.8326039" lon="17.5063094">
        <ele>34.2642</ele>
        <time>2013-04-21T12:34:51Z</time>
      </trkpt>
      <trkpt lat="59.832568" lon="17.5062228">
        <ele>33.7834</ele>
        <time>2013-04-21T12:34:52Z</time>
      </trkpt>
      <trkpt lat="59.8325267" lon="17.5061419">
        <ele>33.3029</ele>
        <time>2013-04-21T12:34:53Z</time>
      </trkpt>
      <trkpt lat="59.8324853" lon="17.5060598">
        <ele>33.3029</ele>
        <time>2013-04-21T12:34:54Z</time>
      </trkpt>
      <trkpt lat="59.832444" lon="17.5059779">
        <ele>32.8223</ele>
        <time>2013-04-21T12:34:55Z</time>
      </trkpt>
      <trkpt lat="59.8324034" lon="17.5058992">
        <ele>32.8223</ele>
        <time>2013-04-21T12:34:56Z</time>
      </trkpt>
      <trkpt lat="59.8323618" lon="17.5058236">
        <ele>32.8223</ele>
        <time>2013-04-21T12:34:57Z</time>
      </trkpt>
      <trkpt lat="59.83232" lon="17.505751">
        <ele>32.3416</ele>
        <time>2013-04-21T12:34:58Z</time>
      </trkpt>
      <trkpt lat="59.8322776" lon="17.5056793">
        <ele>32.3416</ele>
        <time>2013-04-21T12:34:59Z</time>
      </trkpt>
      <trkpt lat="59.8322345" lon="17.5056083">
        <ele>32.3416</ele>
        <time>2013-04-21T12:35:00Z</time>
      </trkpt>
      <trkpt lat="59.832193" lon="17.5055376">
        <ele>32.3416</ele>
        <time>2013-04-21T12:35:01Z</time>
      </trkpt>
      <trkpt lat="59.8321518" lon="17.5054679">
        <ele>31.8607</ele>
        <time>2013-04-21T12:35:02Z</time>
      </trkpt>
      <trkpt lat="59.8321108" lon="17.5053981">
        <ele>31.8607</ele>
        <time>2013-04-21T12:35:03Z</time>
      </trkpt>
      <trkpt lat="59.83207" lon="17.5053266">
        <ele>31.8607</ele>
        <time>2013-04-21T12:35:04Z</time>
      </trkpt>
      <trkpt lat="59.8320295" lon="17.5052537">
        <ele>31.8607</ele>
        <time>2013-04-21T12:35:05Z</time>
      </trkpt>
      <trkpt lat="59.831988" lon="17.5051808">
        <ele>31.3801</ele>
        <time>2013-04-21T12:35:06Z</time>
      </trkpt>
      <trkpt lat="59.8319448" lon="17.5051105">
        <ele>31.3801</ele>
        <time>2013-04-21T12:35:07Z</time>
      </trkpt>
      <trkpt lat="59.831901" lon="17.5050395">
        <ele>30.8995</ele>
        <time>2013-04-21T12:35:08Z</time>
      </trkpt>
      <trkpt lat="59.8318574" lon="17.5049656">
        <ele>30.8995</ele>
        <time>2013-04-21T12:35:09Z</time>
      </trkpt>
      <trkpt lat="59.831814" lon="17.5048888">
        <ele>30.4188</ele>
        <time>2013-04-21T12:35:10Z</time>
      </trkpt>
      <trkpt lat="59.8317694" lon="17.5048129">
        <ele>30.4188</ele>
        <time>2013-04-21T12:35:11Z</time>
      </trkpt>
      <trkpt lat="59.8317244" lon="17.5047384">
        <ele>29.9381</ele>
        <time>2013-04-21T12:35:12Z</time>
      </trkpt>
      <trkpt lat="59.8316801" lon="17.5046605">
        <ele>29.9381</ele>
        <time>2013-04-21T12:35:13Z</time>
      </trkpt>
      <trkpt lat="59.8316359" lon="17.5045796">
        <ele>29.9381</ele>
        <time>2013-04-21T12:35:14Z</time>
      </trkpt>
      <trkpt lat="59.8315907" lon="17.5045021">
        <ele>29.4575</ele>
        <time>2013-04-21T12:35:15Z</time>
      </trkpt>
      <trkpt lat="59.8315471" lon="17.5044326">
        <ele>29.4575</ele>
        <time>2013-04-21T12:35:16Z</time>
      </trkpt>
      <trkpt lat="59.8315061" lon="17.5043668">
        <ele>29.4575</ele>
        <time>2013-04-21T12:35:17Z</time>
      </trkpt>
      <trkpt lat="59.8314664" lon="17.504298">
        <ele>29.4575</ele>
        <time>2013-04-21T12:35:18Z</time>
      </trkpt>
      <trkpt lat="59.831426" lon="17.504229">
        <ele>29.4575</ele>
        <time>2013-04-21T12:35:19Z</time>
      </trkpt>
      <trkpt lat="59.8313835" lon="17.5041621">
        <ele>29.4575</ele>
        <time>2013-04-21T12:35:20Z</time>
      </trkpt>
      <trkpt lat="59.8313405" lon="17.5040916">
        <ele>29.4575</ele>
        <time>2013-04-21T12:35:21Z</time>
      </trkpt>
      <trkpt lat="59.8312984" lon="17.5040162">
        <ele>29.4575</ele>
        <time>2013-04-21T12:35:22Z</time>
      </trkpt>
      <trkpt lat="59.8312567" lon="17.5039378">
        <ele>29.4575</ele>
        <time>2013-04-21T12:35:23Z</time>
      </trkpt>
      <trkpt lat="59.8312147" lon="17.5038581">
        <ele>29.4575</ele>
        <time>2013-04-21T12:35:24Z</time>
      </trkpt>
      <trkpt lat="59.8311717" lon="17.5037799">
        <ele>29.4575</ele>
        <time>2013-04-21T12:35:25Z</time>
      </trkpt>
      <trkpt lat="59.8311284" lon="17.5037024">
        <ele>29.4575</ele>
        <time>2013-04-21T12:35:26Z</time>
      </trkpt>
      <trkpt lat="59.8310851" lon="17.5036256">
        <ele>29.4575</ele>
        <time>2013-04-21T12:35:27Z</time>
      </trkpt>
      <trkpt lat="59.8310428" lon="17.5035487">
        <ele>29.4575</ele>
        <time>2013-04-21T12:35:28Z</time>
      </trkpt>
      <trkpt lat="59.8310007" lon="17.5034733">
        <ele>29.4575</ele>
        <time>2013-04-21T12:35:29Z</time>
      </trkpt>
      <trkpt lat="59.8309581" lon="17.5034017">
        <ele>29.4575</ele>
        <time>2013-04-21T12:35:30Z</time>
      </trkpt>
      <trkpt lat="59.8309156" lon="17.5033308">
        <ele>29.9381</ele>
        <time>2013-04-21T12:35:31Z</time>
      </trkpt>
      <trkpt lat="59.8308734" lon="17.5032591">
        <ele>29.9381</ele>
        <time>2013-04-21T12:35:32Z</time>
      </trkpt>
      <trkpt lat="59.8308316" lon="17.5031868">
        <ele>29.9381</ele>
        <time>2013-04-21T12:35:33Z</time>
      </trkpt>
      <trkpt lat="59.8307904" lon="17.5031138">
        <ele>29.9381</ele>
        <time>2013-04-21T12:35:34Z</time>
      </trkpt>
      <trkpt lat="59.8307494" lon="17.5030405">
        <ele>29.9381</ele>
        <time>2013-04-21T12:35:35Z</time>
      </trkpt>
      <trkpt lat="59.8307076" lon="17.5029688">
        <ele>29.9381</ele>
        <time>2013-04-21T12:35:36Z</time>
      </trkpt>
      <trkpt lat="59.8306653" lon="17.5028987">
        <ele>29.9381</ele>
        <time>2013-04-21T12:35:37Z</time>
      </trkpt>
      <trkpt lat="59.8306236" lon="17.5028261">
        <ele>30.4188</ele>
        <time>2013-04-21T12:35:38Z</time>
      </trkpt>
      <trkpt lat="59.8305817" lon="17.5027526">
        <ele>30.4188</ele>
        <time>2013-04-21T12:35:39Z</time>
      </trkpt>
      <trkpt lat="59.8305392" lon="17.5026802">
        <ele>30.4188</ele>
        <time>2013-04-21T12:35:40Z</time>
      </trkpt>
      <trkpt lat="59.8304962" lon="17.5026096">
        <ele>30.4188</ele>
        <time>2013-04-21T12:35:41Z</time>
      </trkpt>
      <trkpt lat="59.830454" lon="17.5025388">
        <ele>30.4188</ele>
        <time>2013-04-21T12:35:42Z</time>
      </trkpt>
      <trkpt lat="59.8304133" lon="17.5024653">
        <ele>30.8995</ele>
        <time>2013-04-21T12:35:43Z</time>
      </trkpt>
      <trkpt lat="59.8303743" lon="17.5023896">
        <ele>30.8995</ele>
        <time>2013-04-21T12:35:44Z</time>
      </trkpt>
      <trkpt lat="59.830335" lon="17.502315">
        <ele>30.8995</ele>
        <time>2013-04-21T12:35:45Z</time>
      </trkpt>
      <trkpt lat="59.8302952" lon="17.502244">
        <ele>30.8995</ele>
        <time>2013-04-21T12:35:46Z</time>
      </trkpt>
      <trkpt lat="59.8302558" lon="17.5021746">
        <ele>31.3801</ele>
        <time>2013-04-21T12:35:47Z</time>
      </trkpt>
      <trkpt lat="59.830217" lon="17.5021063">
        <ele>31.3801</ele>
        <time>2013-04-21T12:35:48Z</time>
      </trkpt>
      <trkpt lat="59.8301785" lon="17.5020394">
        <ele>31.3801</ele>
        <time>2013-04-21T12:35:49Z</time>
      </trkpt>
      <trkpt lat="59.8301408" lon="17.5019731">
        <ele>31.3801</ele>
        <time>2013-04-21T12:35:50Z</time>
      </trkpt>
      <trkpt lat="59.830104" lon="17.5019079">
        <ele>31.3801</ele>
        <time>2013-04-21T12:35:51Z</time>
      </trkpt>
      <trkpt lat="59.830067" lon="17.5018436">
        <ele>31.3801</ele>
        <time>2013-04-21T12:35:52Z</time>
      </trkpt>
      <trkpt lat="59.8300305" lon="17.5017804">
        <ele>31.3801</ele>
        <time>2013-04-21T12:35:53Z</time>
      </trkpt>
      <trkpt lat="59.8299947" lon="17.5017176">
        <ele>31.3801</ele>
        <time>2013-04-21T12:35:54Z</time>
      </trkpt>
      <trkpt lat="59.8299599" lon="17.5016546">
        <ele>31.3801</ele>
        <time>2013-04-21T12:35:55Z</time>
      </trkpt>
      <trkpt lat="59.8299253" lon="17.5015934">
        <ele>31.3801</ele>
        <time>2013-04-21T12:35:56Z</time>
      </trkpt>
      <trkpt lat="59.8298909" lon="17.5015326">
        <ele>31.3801</ele>
        <time>2013-04-21T12:35:57Z</time>
      </trkpt>
      <trkpt lat="59.8298567" lon="17.50147">
        <ele>31.3801</ele>
        <time>2013-04-21T12:35:58Z</time>
      </trkpt>
      <trkpt lat="59.8298221" lon="17.501408">
        <ele>31.3801</ele>
        <time>2013-04-21T12:35:59Z</time>
      </trkpt>
      <trkpt lat="59.8297875" lon="17.5013474">
        <ele>31.3801</ele>
        <time>2013-04-21T12:36:00Z</time>
      </trkpt>
      <trkpt lat="59.8297529" lon="17.5012863">
        <ele>31.3801</ele>
        <time>2013-04-21T12:36:01Z</time>
      </trkpt>
      <trkpt lat="59.8297192" lon="17.5012234">
        <ele>31.3801</ele>
        <time>2013-04-21T12:36:02Z</time>
      </trkpt>
      <trkpt lat="59.829685" lon="17.5011638">
        <ele>30.8995</ele>
        <time>2013-04-21T12:36:03Z</time>
      </trkpt>
      <trkpt lat="59.8296501" lon="17.5011034">
        <ele>30.8995</ele>
        <time>2013-04-21T12:36:04Z</time>
      </trkpt>
      <trkpt lat="59.8296151" lon="17.5010407">
        <ele>30.8995</ele>
        <time>2013-04-21T12:36:05Z</time>
      </trkpt>
      <trkpt lat="59.8295808" lon="17.5009774">
        <ele>30.8995</ele>
        <time>2013-04-21T12:36:06Z</time>
      </trkpt>
      <trkpt lat="59.8295464" lon="17.5009136">
        <ele>30.8995</ele>
        <time>2013-04-21T12:36:07Z</time>
      </trkpt>
      <trkpt lat="59.8295114" lon="17.5008515">
        <ele>30.8995</ele>
        <time>2013-04-21T12:36:08Z</time>
      </trkpt>
      <trkpt lat="59.8294753" lon="17.5007916">
        <ele>30.8995</ele>
        <time>2013-04-21T12:36:09Z</time>
      </trkpt>
      <trkpt lat="59.8294399" lon="17.5007309">
        <ele>30.8995</ele>
        <time>2013-04-21T12:36:10Z</time>
      </trkpt>
      <trkpt lat="59.8294043" lon="17.5006722">
        <ele>30.8995</ele>
        <time>2013-04-21T12:36:11Z</time>
      </trkpt>
      <trkpt lat="59.8293674" lon="17.5006169">
        <ele>30.8995</ele>
        <time>2013-04-21T12:36:12Z</time>
      </trkpt>
      <trkpt lat="59.8293301" lon="17.5005593">
        <ele>30.8995</ele>
        <time>2013-04-21T12:36:13Z</time>
      </trkpt>
      <trkpt lat="59.8292931" lon="17.5004979">
        <ele>30.4188</ele>
        <time>2013-04-21T12:36:14Z</time>
      </trkpt>
      <trkpt lat="59.829257" lon="17.5004346">
        <ele>30.8995</ele>
        <time>2013-04-21T12:36:15Z</time>
      </trkpt>
      <trkpt lat="59.8292203" lon="17.5003707">
        <ele>30.4188</ele>
        <time>2013-04-21T12:36:16Z</time>
      </trkpt>
      <trkpt lat="59.8291828" lon="17.5003066">
        <ele>30.4188</ele>
        <time>2013-04-21T12:36:17Z</time>
      </trkpt>
      <trkpt lat="59.8291441" lon="17.5002415">
        <ele>30.4188</ele>
        <time>2013-04-21T12:36:18Z</time>
      </trkpt>
      <trkpt lat="59.8291047" lon="17.5001756">
        <ele>30.4188</ele>
        <time>2013-04-21T12:36:19Z</time>
      </trkpt>
      <trkpt lat="59.8290649" lon="17.5001074">
        <ele>30.4188</ele>
        <time>2013-04-21T12:36:20Z</time>
      </trkpt>
      <trkpt lat="59.8290253" lon="17.5000364">
        <ele>30.4188</ele>
        <time>2013-04-21T12:36:21Z</time>
      </trkpt>
      <trkpt lat="59.8289844" lon="17.4999665">
        <ele>30.4188</ele>
        <time>2013-04-21T12:36:22Z</time>
      </trkpt>
      <trkpt lat="59.828942" lon="17.4998979">
        <ele>29.9381</ele>
        <time>2013-04-21T12:36:23Z</time>
      </trkpt>
      <trkpt lat="59.8288981" lon="17.4998292">
        <ele>29.9381</ele>
        <time>2013-04-21T12:36:24Z</time>
      </trkpt>
      <trkpt lat="59.8288541" lon="17.4997586">
        <ele>29.9381</ele>
        <time>2013-04-21T12:36:25Z</time>
      </trkpt>
      <trkpt lat="59.82881" lon="17.4996842">
        <ele>29.9381</ele>
        <time>2013-04-21T12:36:26Z</time>
      </trkpt>
      <trkpt lat="59.8287669" lon="17.4996067">
        <ele>30.4188</ele>
        <time>2013-04-21T12:36:27Z</time>
      </trkpt>
      <trkpt lat="59.8287256" lon="17.4995245">
        <ele>30.4188</ele>
        <time>2013-04-21T12:36:28Z</time>
      </trkpt>
      <trkpt lat="59.8286853" lon="17.4994463">
        <ele>30.4188</ele>
        <time>2013-04-21T12:36:29Z</time>
      </trkpt>
      <trkpt lat="59.8286453" lon="17.4993696">
        <ele>30.4188</ele>
        <time>2013-04-21T12:36:30Z</time>
      </trkpt>
      <trkpt lat="59.8286066" lon="17.4992977">
        <ele>29.9381</ele>
        <time>2013-04-21T12:36:31Z</time>
      </trkpt>
      <trkpt lat="59.8285675" lon="17.4992293">
        <ele>29.4575</ele>
        <time>2013-04-21T12:36:32Z</time>
      </trkpt>
      <trkpt lat="59.8285281" lon="17.4991627">
        <ele>28.9769</ele>
        <time>2013-04-21T12:36:33Z</time>
      </trkpt>
      <trkpt lat="59.8284888" lon="17.4991002">
        <ele>28.4962</ele>
        <time>2013-04-21T12:36:34Z</time>
      </trkpt>
      <trkpt lat="59.8284491" lon="17.499036">
        <ele>28.4962</ele>
        <time>2013-04-21T12:36:35Z</time>
      </trkpt>
      <trkpt lat="59.8284096" lon="17.4989664">
        <ele>28.0155</ele>
        <time>2013-04-21T12:36:36Z</time>
      </trkpt>
      <trkpt lat="59.8283734" lon="17.4988972">
        <ele>28.4962</ele>
        <time>2013-04-21T12:36:37Z</time>
      </trkpt>
      <trkpt lat="59.8283374" lon="17.4988283">
        <ele>28.4962</ele>
        <time>2013-04-21T12:36:38Z</time>
      </trkpt>
      <trkpt lat="59.8283006" lon="17.4987594">
        <ele>28.4962</ele>
        <time>2013-04-21T12:36:39Z</time>
      </trkpt>
      <trkpt lat="59.8282625" lon="17.4986873">
        <ele>28.9769</ele>
        <time>2013-04-21T12:36:40Z</time>
      </trkpt>
      <trkpt lat="59.8282248" lon="17.498619">
        <ele>28.4962</ele>
        <time>2013-04-21T12:36:41Z</time>
      </trkpt>
      <trkpt lat="59.8281869" lon="17.4985486">
        <ele>28.9769</ele>
        <time>2013-04-21T12:36:42Z</time>
      </trkpt>
      <trkpt lat="59.8281495" lon="17.4984786">
        <ele>28.9769</ele>
        <time>2013-04-21T12:36:43Z</time>
      </trkpt>
      <trkpt lat="59.8281131" lon="17.4984118">
        <ele>28.9769</ele>
        <time>2013-04-21T12:36:44Z</time>
      </trkpt>
      <trkpt lat="59.8280782" lon="17.4983484">
        <ele>29.4575</ele>
        <time>2013-04-21T12:36:45Z</time>
      </trkpt>
      <trkpt lat="59.8280429" lon="17.4982844">
        <ele>29.9381</ele>
        <time>2013-04-21T12:36:46Z</time>
      </trkpt>
      <trkpt lat="59.8280087" lon="17.498226">
        <ele>29.4575</ele>
        <time>2013-04-21T12:36:47Z</time>
      </trkpt>
      <trkpt lat="59.8279756" lon="17.4981652">
        <ele>28.9769</ele>
        <time>2013-04-21T12:36:48Z</time>
      </trkpt>
      <trkpt lat="59.8279434" lon="17.4981062">
        <ele>28.9769</ele>
        <time>2013-04-21T12:36:49Z</time>
      </trkpt>
      <trkpt lat="59.8279121" lon="17.4980483">
        <ele>28.9769</ele>
        <time>2013-04-21T12:36:50Z</time>
      </trkpt>
      <trkpt lat="59.8278796" lon="17.4979925">
        <ele>28.4962</ele>
        <time>2013-04-21T12:36:51Z</time>
      </trkpt>
      <trkpt lat="59.8278459" lon="17.4979362">
        <ele>28.4962</ele>
        <time>2013-04-21T12:36:52Z</time>
      </trkpt>
      <trkpt lat="59.8278128" lon="17.4978793">
        <ele>28.4962</ele>
        <time>2013-04-21T12:36:53Z</time>
      </trkpt>
      <trkpt lat="59.8277796" lon="17.4978204">
        <ele>28.0155</ele>
        <time>2013-04-21T12:36:54Z</time>
      </trkpt>
      <trkpt lat="59.8277448" lon="17.4977617">
        <ele>28.0155</ele>
        <time>2013-04-21T12:36:55Z</time>
      </trkpt>
      <trkpt lat="59.827708" lon="17.4977067">
        <ele>28.0155</ele>
        <time>2013-04-21T12:36:56Z</time>
      </trkpt>
      <trkpt lat="59.8276684" lon="17.497656">
        <ele>27.5349</ele>
        <time>2013-04-21T12:36:57Z</time>
      </trkpt>
      <trkpt lat="59.8276259" lon="17.4976078">
        <ele>28.0155</ele>
        <time>2013-04-21T12:36:58Z</time>
      </trkpt>
      <trkpt lat="59.8275844" lon="17.497557">
        <ele>28.0155</ele>
        <time>2013-04-21T12:36:59Z</time>
      </trkpt>
      <trkpt lat="59.8275461" lon="17.497503">
        <ele>27.5349</ele>
        <time>2013-04-21T12:37:00Z</time>
      </trkpt>
      <trkpt lat="59.8275077" lon="17.4974522">
        <ele>27.0543</ele>
        <time>2013-04-21T12:37:01Z</time>
      </trkpt>
      <trkpt lat="59.8274679" lon="17.4974039">
        <ele>27.0543</ele>
        <time>2013-04-21T12:37:02Z</time>
      </trkpt>
      <trkpt lat="59.827428" lon="17.4973576">
        <ele>27.0543</ele>
        <time>2013-04-21T12:37:03Z</time>
      </trkpt>
      <trkpt lat="59.827387" lon="17.4973116">
        <ele>27.0543</ele>
        <time>2013-04-21T12:37:04Z</time>
      </trkpt>
      <trkpt lat="59.8273456" lon="17.4972696">
        <ele>27.5349</ele>
        <time>2013-04-21T12:37:05Z</time>
      </trkpt>
      <trkpt lat="59.8273072" lon="17.4972243">
        <ele>28.0155</ele>
        <time>2013-04-21T12:37:06Z</time>
      </trkpt>
      <trkpt lat="59.827269" lon="17.4971758">
        <ele>28.4962</ele>
        <time>2013-04-21T12:37:07Z</time>
      </trkpt>
      <trkpt lat="59.8272286" lon="17.4971307">
        <ele>28.0155</ele>
        <time>2013-04-21T12:37:08Z</time>
      </trkpt>
      <trkpt lat="59.8271876" lon="17.4970904">
        <ele>27.5349</ele>
        <time>2013-04-21T12:37:09Z</time>
      </trkpt>
      <trkpt lat="59.8271487" lon="17.4970526">
        <ele>27.0543</ele>
        <time>2013-04-21T12:37:10Z</time>
      </trkpt>
      <trkpt lat="59.8271092" lon="17.4970125">
        <ele>27.0543</ele>
        <time>2013-04-21T12:37:11Z</time>
      </trkpt>
      <trkpt lat="59.8270638" lon="17.4969614">
        <ele>28.0155</ele>
        <time>2013-04-21T12:37:12Z</time>
      </trkpt>
      <trkpt lat="59.827016" lon="17.4969203">
        <ele>29.4575</ele>
        <time>2013-04-21T12:37:13Z</time>
      </trkpt>
      <trkpt lat="59.8269664" lon="17.4968892">
        <ele>29.9381</ele>
        <time>2013-04-21T12:37:14Z</time>
      </trkpt>
      <trkpt lat="59.8269172" lon="17.4968526">
        <ele>30.8995</ele>
        <time>2013-04-21T12:37:15Z</time>
      </trkpt>
      <trkpt lat="59.8268668" lon="17.4968199">
        <ele>31.8607</ele>
        <time>2013-04-21T12:37:16Z</time>
      </trkpt>
      <trkpt lat="59.8268204" lon="17.4967935">
        <ele>31.8607</ele>
        <time>2013-04-21T12:37:17Z</time>
      </trkpt>
      <trkpt lat="59.8267739" lon="17.4967609">
        <ele>32.3416</ele>
        <time>2013-04-21T12:37:18Z</time>
      </trkpt>
      <trkpt lat="59.8267282" lon="17.4967318">
        <ele>32.3416</ele>
        <time>2013-04-21T12:37:19Z</time>
      </trkpt>
      <trkpt lat="59.8266793" lon="17.496702">
        <ele>32.8223</ele>
        <time>2013-04-21T12:37:20Z</time>
      </trkpt>
      <trkpt lat="59.8266295" lon="17.4966737">
        <ele>33.3029</ele>
        <time>2013-04-21T12:37:21Z</time>
      </trkpt>
      <trkpt lat="59.8265805" lon="17.4966463">
        <ele>33.7834</ele>
        <time>2013-04-21T12:37:22Z</time>
      </trkpt>
      <trkpt lat="59.8265314" lon="17.4966206">
        <ele>33.7834</ele>
        <time>2013-04-21T12:37:23Z</time>
      </trkpt>
      <trkpt lat="59.8264822" lon="17.4966006">
        <ele>33.7834</ele>
        <time>2013-04-21T12:37:24Z</time>
      </trkpt>
      <trkpt lat="59.8264327" lon="17.4965769">
        <ele>34.2642</ele>
        <time>2013-04-21T12:37:25Z</time>
      </trkpt>
      <trkpt lat="59.8263826" lon="17.4965563">
        <ele>34.7449</ele>
        <time>2013-04-21T12:37:26Z</time>
      </trkpt>
      <trkpt lat="59.8263329" lon="17.4965359">
        <ele>34.7449</ele>
        <time>2013-04-21T12:37:27Z</time>
      </trkpt>
      <trkpt lat="59.8262816" lon="17.4965164">
        <ele>35.2255</ele>
        <time>2013-04-21T12:37:28Z</time>
      </trkpt>
      <trkpt lat="59.8262284" lon="17.4965034">
        <ele>36.6675</ele>
        <time>2013-04-21T12:37:29Z</time>
      </trkpt>
      <trkpt lat="59.8261765" lon="17.4964956">
        <ele>37.1481</ele>
        <time>2013-04-21T12:37:30Z</time>
      </trkpt>
      <trkpt lat="59.8261231" lon="17.4964869">
        <ele>37.6287</ele>
        <time>2013-04-21T12:37:31Z</time>
      </trkpt>
      <trkpt lat="59.8260687" lon="17.4964755">
        <ele>38.1094</ele>
        <time>2013-04-21T12:37:32Z</time>
      </trkpt>
      <trkpt lat="59.8260159" lon="17.4964667">
        <ele>38.1094</ele>
        <time>2013-04-21T12:37:33Z</time>
      </trkpt>
      <trkpt lat="59.8259615" lon="17.4964645">
        <ele>38.1094</ele>
        <time>2013-04-21T12:37:34Z</time>
      </trkpt>
      <trkpt lat="59.8259086" lon="17.4964611">
        <ele>37.6287</ele>
        <time>2013-04-21T12:37:35Z</time>
      </trkpt>
      <trkpt lat="59.8258558" lon="17.4964542">
        <ele>37.1481</ele>
        <time>2013-04-21T12:37:36Z</time>
      </trkpt>
      <trkpt lat="59.8257989" lon="17.4964459">
        <ele>36.6675</ele>
        <time>2013-04-21T12:37:37Z</time>
      </trkpt>
      <trkpt lat="59.8257394" lon="17.4964393">
        <ele>36.1868</ele>
        <time>2013-04-21T12:37:38Z</time>
      </trkpt>
      <trkpt lat="59.8256761" lon="17.4964333">
        <ele>35.7061</ele>
        <time>2013-04-21T12:37:39Z</time>
      </trkpt>
      <trkpt lat="59.8256117" lon="17.4964231">
        <ele>35.2255</ele>
        <time>2013-04-21T12:37:40Z</time>
      </trkpt>
      <trkpt lat="59.8255482" lon="17.496408">
        <ele>34.7449</ele>
        <time>2013-04-21T12:37:41Z</time>
      </trkpt>
      <trkpt lat="59.825483" lon="17.496401">
        <ele>34.2642</ele>
        <time>2013-04-21T12:37:42Z</time>
      </trkpt>
      <trkpt lat="59.8254127" lon="17.4963931">
        <ele>34.2642</ele>
        <time>2013-04-21T12:37:43Z</time>
      </trkpt>
      <trkpt lat="59.8253425" lon="17.4963858">
        <ele>34.2642</ele>
        <time>2013-04-21T12:37:44Z</time>
      </trkpt>
      <trkpt lat="59.8252708" lon="17.4963761">
        <ele>33.7834</ele>
        <time>2013-04-21T12:37:45Z</time>
      </trkpt>
      <trkpt lat="59.8252007" lon="17.4963652">
        <ele>33.3029</ele>
        <time>2013-04-21T12:37:46Z</time>
      </trkpt>
      <trkpt lat="59.825133" lon="17.4963556">
        <ele>32.8223</ele>
        <time>2013-04-21T12:37:47Z</time>
      </trkpt>
      <trkpt lat="59.8250652" lon="17.4963413">
        <ele>32.8223</ele>
        <time>2013-04-21T12:37:48Z</time>
      </trkpt>
      <trkpt lat="59.8249974" lon="17.4963271">
        <ele>32.8223</ele>
        <time>2013-04-21T12:37:49Z</time>
      </trkpt>
      <trkpt lat="59.8249305" lon="17.4963139">
        <ele>32.3416</ele>
        <time>2013-04-21T12:37:50Z</time>
      </trkpt>
      <trkpt lat="59.8248652" lon="17.4963034">
        <ele>32.3416</ele>
        <time>2013-04-21T12:37:51Z</time>
      </trkpt>
      <trkpt lat="59.8248016" lon="17.4962916">
        <ele>32.3416</ele>
        <time>2013-04-21T12:37:52Z</time>
      </trkpt>
      <trkpt lat="59.8247406" lon="17.4962781">
        <ele>32.3416</ele>
        <time>2013-04-21T12:37:53Z</time>
      </trkpt>
      <trkpt lat="59.8246819" lon="17.4962657">
        <ele>31.8607</ele>
        <time>2013-04-21T12:37:54Z</time>
      </trkpt>
      <trkpt lat="59.824625" lon="17.4962553">
        <ele>31.8607</ele>
        <time>2013-04-21T12:37:55Z</time>
      </trkpt>
      <trkpt lat="59.824569" lon="17.4962481">
        <ele>31.8607</ele>
        <time>2013-04-21T12:37:56Z</time>
      </trkpt>
      <trkpt lat="59.8245131" lon="17.4962427">
        <ele>31.8607</ele>
        <time>2013-04-21T12:37:57Z</time>
      </trkpt>
      <trkpt lat="59.8244572" lon="17.4962365">
        <ele>31.3801</ele>
        <time>2013-04-21T12:37:58Z</time>
      </trkpt>
      <trkpt lat="59.8244018" lon="17.4962254">
        <ele>31.3801</ele>
        <time>2013-04-21T12:37:59Z</time>
      </trkpt>
      <trkpt lat="59.8243474" lon="17.4962121">
        <ele>31.3801</ele>
        <time>2013-04-21T12:38:00Z</time>
      </trkpt>
      <trkpt lat="59.8242956" lon="17.4961995">
        <ele>31.3801</ele>
        <time>2013-04-21T12:38:01Z</time>
      </trkpt>
      <trkpt lat="59.8242486" lon="17.4961864">
        <ele>31.3801</ele>
        <time>2013-04-21T12:38:02Z</time>
      </trkpt>
      <trkpt lat="59.8242075" lon="17.496173">
        <ele>30.8995</ele>
        <time>2013-04-21T12:38:03Z</time>
      </trkpt>
      <trkpt lat="59.8241706" lon="17.4961626">
        <ele>30.8995</ele>
        <time>2013-04-21T12:38:04Z</time>
      </trkpt>
      <trkpt lat="59.8241327" lon="17.4961568">
        <ele>30.8995</ele>
        <time>2013-04-21T12:38:05Z</time>
      </trkpt>
      <trkpt lat="59.8240902" lon="17.4961536">
        <ele>30.8995</ele>
        <time>2013-04-21T12:38:06Z</time>
      </trkpt>
      <trkpt lat="59.8240455" lon="17.4961553">
        <ele>31.3801</ele>
        <time>2013-04-21T12:38:07Z</time>
      </trkpt>
      <trkpt lat="59.8239988" lon="17.4961554">
        <ele>31.8607</ele>
        <time>2013-04-21T12:38:08Z</time>
      </trkpt>
      <trkpt lat="59.823949" lon="17.4961497">
        <ele>31.8607</ele>
        <time>2013-04-21T12:38:09Z</time>
      </trkpt>
      <trkpt lat="59.8238967" lon="17.4961346">
        <ele>32.3416</ele>
        <time>2013-04-21T12:38:10Z</time>
      </trkpt>
      <trkpt lat="59.8238354" lon="17.4961206">
        <ele>32.3416</ele>
        <time>2013-04-21T12:38:11Z</time>
      </trkpt>
      <trkpt lat="59.8237724" lon="17.4961093">
        <ele>32.8223</ele>
        <time>2013-04-21T12:38:12Z</time>
      </trkpt>
      <trkpt lat="59.8237108" lon="17.4960999">
        <ele>32.8223</ele>
        <time>2013-04-21T12:38:13Z</time>
      </trkpt>
      <trkpt lat="59.8236512" lon="17.4960896">
        <ele>32.8223</ele>
        <time>2013-04-21T12:38:14Z</time>
      </trkpt>
      <trkpt lat="59.8235927" lon="17.496076">
        <ele>32.8223</ele>
        <time>2013-04-21T12:38:15Z</time>
      </trkpt>
      <trkpt lat="59.823536" lon="17.4960641">
        <ele>32.8223</ele>
        <time>2013-04-21T12:38:16Z</time>
      </trkpt>
      <trkpt lat="59.8234818" lon="17.4960611">
        <ele>32.8223</ele>
        <time>2013-04-21T12:38:17Z</time>
      </trkpt>
      <trkpt lat="59.8234296" lon="17.4960565">
        <ele>32.8223</ele>
        <time>2013-04-21T12:38:18Z</time>
      </trkpt>
      <trkpt lat="59.823377" lon="17.4960533">
        <ele>33.3029</ele>
        <time>2013-04-21T12:38:19Z</time>
      </trkpt>
      <trkpt lat="59.8233237" lon="17.4960497">
        <ele>33.3029</ele>
        <time>2013-04-21T12:38:20Z</time>
      </trkpt>
      <trkpt lat="59.8232699" lon="17.4960526">
        <ele>32.8223</ele>
        <time>2013-04-21T12:38:21Z</time>
      </trkpt>
      <trkpt lat="59.8232146" lon="17.4960586">
        <ele>32.8223</ele>
        <time>2013-04-21T12:38:22Z</time>
      </trkpt>
      <trkpt lat="59.823158" lon="17.4960611">
        <ele>32.3416</ele>
        <time>2013-04-21T12:38:23Z</time>
      </trkpt>
      <trkpt lat="59.8231016" lon="17.4960585">
        <ele>32.3416</ele>
        <time>2013-04-21T12:38:24Z</time>
      </trkpt>
      <trkpt lat="59.8230472" lon="17.4960512">
        <ele>31.8607</ele>
        <time>2013-04-21T12:38:25Z</time>
      </trkpt>
      <trkpt lat="59.8229918" lon="17.4960377">
        <ele>31.3801</ele>
        <time>2013-04-21T12:38:26Z</time>
      </trkpt>
      <trkpt lat="59.8229358" lon="17.4960222">
        <ele>30.8995</ele>
        <time>2013-04-21T12:38:27Z</time>
      </trkpt>
      <trkpt lat="59.8228793" lon="17.4960044">
        <ele>30.8995</ele>
        <time>2013-04-21T12:38:28Z</time>
      </trkpt>
      <trkpt lat="59.8228228" lon="17.4959865">
        <ele>30.8995</ele>
        <time>2013-04-21T12:38:29Z</time>
      </trkpt>
      <trkpt lat="59.8227663" lon="17.49597">
        <ele>30.8995</ele>
        <time>2013-04-21T12:38:30Z</time>
      </trkpt>
      <trkpt lat="59.822709" lon="17.4959511">
        <ele>30.4188</ele>
        <time>2013-04-21T12:38:31Z</time>
      </trkpt>
      <trkpt lat="59.8226526" lon="17.4959311">
        <ele>30.4188</ele>
        <time>2013-04-21T12:38:32Z</time>
      </trkpt>
      <trkpt lat="59.8225976" lon="17.495912">
        <ele>29.9381</ele>
        <time>2013-04-21T12:38:33Z</time>
      </trkpt>
      <trkpt lat="59.8225427" lon="17.4958901">
        <ele>29.9381</ele>
        <time>2013-04-21T12:38:34Z</time>
      </trkpt>
      <trkpt lat="59.8224872" lon="17.4958663">
        <ele>29.4575</ele>
        <time>2013-04-21T12:38:35Z</time>
      </trkpt>
      <trkpt lat="59.8224333" lon="17.4958409">
        <ele>29.4575</ele>
        <time>2013-04-21T12:38:36Z</time>
      </trkpt>
      <trkpt lat="59.8223811" lon="17.4958134">
        <ele>28.9769</ele>
        <time>2013-04-21T12:38:37Z</time>
      </trkpt>
      <trkpt lat="59.8223304" lon="17.495785">
        <ele>28.9769</ele>
        <time>2013-04-21T12:38:38Z</time>
      </trkpt>
      <trkpt lat="59.8222809" lon="17.4957587">
        <ele>28.9769</ele>
        <time>2013-04-21T12:38:39Z</time>
      </trkpt>
      <trkpt lat="59.8222317" lon="17.4957353">
        <ele>28.4962</ele>
        <time>2013-04-21T12:38:40Z</time>
      </trkpt>
      <trkpt lat="59.8221837" lon="17.4957083">
        <ele>28.4962</ele>
        <time>2013-04-21T12:38:41Z</time>
      </trkpt>
      <trkpt lat="59.8221444" lon="17.4956746">
        <ele>28.0155</ele>
        <time>2013-04-21T12:38:42Z</time>
      </trkpt>
      <trkpt lat="59.8221199" lon="17.4956368">
        <ele>28.0155</ele>
        <time>2013-04-21T12:38:43Z</time>
      </trkpt>
      <trkpt lat="59.8221011" lon="17.4956182">
        <ele>28.0155</ele>
        <time>2013-04-21T12:38:44Z</time>
      </trkpt>
      <trkpt lat="59.8220892" lon="17.4956304">
        <ele>28.0155</ele>
        <time>2013-04-21T12:38:45Z</time>
      </trkpt>
      <trkpt lat="59.8220899" lon="17.4956462">
        <ele>28.4962</ele>
        <time>2013-04-21T12:38:46Z</time>
      </trkpt>
      <trkpt lat="59.8220981" lon="17.4956525">
        <ele>28.9769</ele>
        <time>2013-04-21T12:38:47Z</time>
      </trkpt>
      <trkpt lat="59.8221141" lon="17.4956606">
        <ele>29.4575</ele>
        <time>2013-04-21T12:38:48Z</time>
      </trkpt>
      <trkpt lat="59.8221354" lon="17.4956804">
        <ele>29.4575</ele>
        <time>2013-04-21T12:38:49Z</time>
      </trkpt>
      <trkpt lat="59.8221537" lon="17.4957188">
        <ele>29.4575</ele>
        <time>2013-04-21T12:38:50Z</time>
      </trkpt>
      <trkpt lat="59.8221659" lon="17.4957732">
        <ele>29.4575</ele>
        <time>2013-04-21T12:38:51Z</time>
      </trkpt>
      <trkpt lat="59.8221698" lon="17.4958364">
        <ele>29.4575</ele>
        <time>2013-04-21T12:38:52Z</time>
      </trkpt>
      <trkpt lat="59.8221692" lon="17.4958985">
        <ele>29.9381</ele>
        <time>2013-04-21T12:38:53Z</time>
      </trkpt>
      <trkpt lat="59.8221618" lon="17.4959581">
        <ele>29.9381</ele>
        <time>2013-04-21T12:38:54Z</time>
      </trkpt>
      <trkpt lat="59.8221495" lon="17.4960146">
        <ele>29.9381</ele>
        <time>2013-04-21T12:38:55Z</time>
      </trkpt>
      <trkpt lat="59.8221271" lon="17.4960591">
        <ele>30.4188</ele>
        <time>2013-04-21T12:38:56Z</time>
      </trkpt>
      <trkpt lat="59.8220945" lon="17.4960842">
        <ele>30.4188</ele>
        <time>2013-04-21T12:38:57Z</time>
      </trkpt>
      <trkpt lat="59.8220563" lon="17.4960853">
        <ele>30.4188</ele>
        <time>2013-04-21T12:38:58Z</time>
      </trkpt>
      <trkpt lat="59.8220182" lon="17.4960633">
        <ele>30.4188</ele>
        <time>2013-04-21T12:38:59Z</time>
      </trkpt>
      <trkpt lat="59.8219796" lon="17.4960257">
        <ele>30.4188</ele>
        <time>2013-04-21T12:39:00Z</time>
      </trkpt>
      <trkpt lat="59.8219397" lon="17.4959824">
        <ele>30.4188</ele>
        <time>2013-04-21T12:39:01Z</time>
      </trkpt>
      <trkpt lat="59.8218982" lon="17.4959317">
        <ele>29.9381</ele>
        <time>2013-04-21T12:39:02Z</time>
      </trkpt>
      <trkpt lat="59.8218546" lon="17.4958747">
        <ele>29.9381</ele>
        <time>2013-04-21T12:39:03Z</time>
      </trkpt>
      <trkpt lat="59.8218091" lon="17.495815">
        <ele>29.9381</ele>
        <time>2013-04-21T12:39:04Z</time>
      </trkpt>
      <trkpt lat="59.8217621" lon="17.4957506">
        <ele>29.9381</ele>
        <time>2013-04-21T12:39:05Z</time>
      </trkpt>
      <trkpt lat="59.8217134" lon="17.4956845">
        <ele>29.9381</ele>
        <time>2013-04-21T12:39:06Z</time>
      </trkpt>
      <trkpt lat="59.8216627" lon="17.4956228">
        <ele>29.9381</ele>
        <time>2013-04-21T12:39:07Z</time>
      </trkpt>
      <trkpt lat="59.8216114" lon="17.4955618">
        <ele>29.9381</ele>
        <time>2013-04-21T12:39:08Z</time>
      </trkpt>
      <trkpt lat="59.821561" lon="17.4954978">
        <ele>29.9381</ele>
        <time>2013-04-21T12:39:09Z</time>
      </trkpt>
      <trkpt lat="59.8215111" lon="17.4954316">
        <ele>29.4575</ele>
        <time>2013-04-21T12:39:10Z</time>
      </trkpt>
      <trkpt lat="59.8214608" lon="17.4953662">
        <ele>29.4575</ele>
        <time>2013-04-21T12:39:11Z</time>
      </trkpt>
      <trkpt lat="59.8214093" lon="17.4953032">
        <ele>29.4575</ele>
        <time>2013-04-21T12:39:12Z</time>
      </trkpt>
      <trkpt lat="59.8213574" lon="17.4952416">
        <ele>29.9381</ele>
        <time>2013-04-21T12:39:13Z</time>
      </trkpt>
      <trkpt lat="59.8213054" lon="17.4951793">
        <ele>29.9381</ele>
        <time>2013-04-21T12:39:14Z</time>
      </trkpt>
      <trkpt lat="59.8212549" lon="17.4951135">
        <ele>29.4575</ele>
        <time>2013-04-21T12:39:15Z</time>
      </trkpt>
      <trkpt lat="59.8212046" lon="17.4950473">
        <ele>29.4575</ele>
        <time>2013-04-21T12:39:16Z</time>
      </trkpt>
      <trkpt lat="59.8211529" lon="17.4949853">
        <ele>29.4575</ele>
        <time>2013-04-21T12:39:17Z</time>
      </trkpt>
      <trkpt lat="59.8211008" lon="17.4949235">
        <ele>29.4575</ele>
        <time>2013-04-21T12:39:18Z</time>
      </trkpt>
      <trkpt lat="59.8210493" lon="17.4948598">
        <ele>29.4575</ele>
        <time>2013-04-21T12:39:19Z</time>
      </trkpt>
      <trkpt lat="59.8209995" lon="17.4947955">
        <ele>29.4575</ele>
        <time>2013-04-21T12:39:20Z</time>
      </trkpt>
      <trkpt lat="59.8209508" lon="17.4947313">
        <ele>29.4575</ele>
        <time>2013-04-21T12:39:21Z</time>
      </trkpt>
      <trkpt lat="59.8209016" lon="17.4946683">
        <ele>29.4575</ele>
        <time>2013-04-21T12:39:22Z</time>
      </trkpt>
      <trkpt lat="59.8208524" lon="17.4946038">
        <ele>29.4575</ele>
        <time>2013-04-21T12:39:23Z</time>
      </trkpt>
      <trkpt lat="59.8208051" lon="17.4945382">
        <ele>28.9769</ele>
        <time>2013-04-21T12:39:24Z</time>
      </trkpt>
      <trkpt lat="59.8207603" lon="17.4944758">
        <ele>28.9769</ele>
        <time>2013-04-21T12:39:25Z</time>
      </trkpt>
      <trkpt lat="59.8207182" lon="17.4944159">
        <ele>28.9769</ele>
        <time>2013-04-21T12:39:26Z</time>
      </trkpt>
      <trkpt lat="59.8206768" lon="17.4943593">
        <ele>28.9769</ele>
        <time>2013-04-21T12:39:27Z</time>
      </trkpt>
      <trkpt lat="59.8206351" lon="17.4943043">
        <ele>28.9769</ele>
        <time>2013-04-21T12:39:28Z</time>
      </trkpt>
      <trkpt lat="59.8205943" lon="17.4942491">
        <ele>28.9769</ele>
        <time>2013-04-21T12:39:29Z</time>
      </trkpt>
      <trkpt lat="59.8205543" lon="17.4941935">
        <ele>28.4962</ele>
        <time>2013-04-21T12:39:30Z</time>
      </trkpt>
      <trkpt lat="59.8205136" lon="17.494137">
        <ele>28.4962</ele>
        <time>2013-04-21T12:39:31Z</time>
      </trkpt>
      <trkpt lat="59.8204725" lon="17.4940779">
        <ele>28.4962</ele>
        <time>2013-04-21T12:39:32Z</time>
      </trkpt>
      <trkpt lat="59.8204318" lon="17.4940192">
        <ele>28.9769</ele>
        <time>2013-04-21T12:39:33Z</time>
      </trkpt>
      <trkpt lat="59.8203913" lon="17.4939593">
        <ele>28.9769</ele>
        <time>2013-04-21T12:39:34Z</time>
      </trkpt>
      <trkpt lat="59.8203508" lon="17.4939011">
        <ele>28.9769</ele>
        <time>2013-04-21T12:39:35Z</time>
      </trkpt>
      <trkpt lat="59.8203116" lon="17.493846">
        <ele>28.4962</ele>
        <time>2013-04-21T12:39:36Z</time>
      </trkpt>
      <trkpt lat="59.8202736" lon="17.4937921">
        <ele>28.0155</ele>
        <time>2013-04-21T12:39:37Z</time>
      </trkpt>
      <trkpt lat="59.8202354" lon="17.4937342">
        <ele>28.0155</ele>
        <time>2013-04-21T12:39:38Z</time>
      </trkpt>
      <trkpt lat="59.8201969" lon="17.493674">
        <ele>27.5349</ele>
        <time>2013-04-21T12:39:39Z</time>
      </trkpt>
      <trkpt lat="59.8201577" lon="17.4936129">
        <ele>27.5349</ele>
        <time>2013-04-21T12:39:40Z</time>
      </trkpt>
      <trkpt lat="59.8201189" lon="17.4935508">
        <ele>27.0543</ele>
        <time>2013-04-21T12:39:41Z</time>
      </trkpt>
      <trkpt lat="59.820079" lon="17.4934955">
        <ele>27.0543</ele>
        <time>2013-04-21T12:39:42Z</time>
      </trkpt>
      <trkpt lat="59.820036" lon="17.4934532">
        <ele>27.0543</ele>
        <time>2013-04-21T12:39:43Z</time>
      </trkpt>
      <trkpt lat="59.8199916" lon="17.4934187">
        <ele>27.0543</ele>
        <time>2013-04-21T12:39:44Z</time>
      </trkpt>
      <trkpt lat="59.8199483" lon="17.493382">
        <ele>26.5736</ele>
        <time>2013-04-21T12:39:45Z</time>
      </trkpt>
      <trkpt lat="59.8199054" lon="17.4933424">
        <ele>26.5736</ele>
        <time>2013-04-21T12:39:46Z</time>
      </trkpt>
      <trkpt lat="59.8198629" lon="17.4932992">
        <ele>26.0929</ele>
        <time>2013-04-21T12:39:47Z</time>
      </trkpt>
      <trkpt lat="59.8198221" lon="17.4932473">
        <ele>26.0929</ele>
        <time>2013-04-21T12:39:48Z</time>
      </trkpt>
      <trkpt lat="59.8197805" lon="17.4931809">
        <ele>26.5736</ele>
        <time>2013-04-21T12:39:49Z</time>
      </trkpt>
      <trkpt lat="59.8197387" lon="17.4931162">
        <ele>27.0543</ele>
        <time>2013-04-21T12:39:50Z</time>
      </trkpt>
      <trkpt lat="59.819696" lon="17.4930528">
        <ele>27.0543</ele>
        <time>2013-04-21T12:39:51Z</time>
      </trkpt>
      <trkpt lat="59.8196521" lon="17.4929934">
        <ele>27.0543</ele>
        <time>2013-04-21T12:39:52Z</time>
      </trkpt>
      <trkpt lat="59.8196119" lon="17.4929311">
        <ele>27.0543</ele>
        <time>2013-04-21T12:39:53Z</time>
      </trkpt>
      <trkpt lat="59.8195716" lon="17.4928603">
        <ele>27.5349</ele>
        <time>2013-04-21T12:39:54Z</time>
      </trkpt>
      <trkpt lat="59.8195295" lon="17.4927856">
        <ele>28.0155</ele>
        <time>2013-04-21T12:39:55Z</time>
      </trkpt>
      <trkpt lat="59.8194878" lon="17.4927102">
        <ele>28.4962</ele>
        <time>2013-04-21T12:39:56Z</time>
      </trkpt>
      <trkpt lat="59.8194468" lon="17.4926369">
        <ele>28.4962</ele>
        <time>2013-04-21T12:39:57Z</time>
      </trkpt>
      <trkpt lat="59.8194049" lon="17.4925609">
        <ele>28.9769</ele>
        <time>2013-04-21T12:39:58Z</time>
      </trkpt>
      <trkpt lat="59.8193609" lon="17.4924905">
        <ele>29.4575</ele>
        <time>2013-04-21T12:39:59Z</time>
      </trkpt>
      <trkpt lat="59.8193104" lon="17.4924424">
        <ele>29.9381</ele>
        <time>2013-04-21T12:40:00Z</time>
      </trkpt>
      <trkpt lat="59.8192513" lon="17.4924426">
        <ele>30.4188</ele>
        <time>2013-04-21T12:40:01Z</time>
      </trkpt>
      <trkpt lat="59.8191927" lon="17.4924823">
        <ele>30.8995</ele>
        <time>2013-04-21T12:40:02Z</time>
      </trkpt>
      <trkpt lat="59.8191461" lon="17.4925495">
        <ele>31.3801</ele>
        <time>2013-04-21T12:40:03Z</time>
      </trkpt>
      <trkpt lat="59.8191091" lon="17.49264">
        <ele>32.3416</ele>
        <time>2013-04-21T12:40:04Z</time>
      </trkpt>
      <trkpt lat="59.8190829" lon="17.4927389">
        <ele>32.8223</ele>
        <time>2013-04-21T12:40:05Z</time>
      </trkpt>
      <trkpt lat="59.8190611" lon="17.4928475">
        <ele>32.8223</ele>
        <time>2013-04-21T12:40:06Z</time>
      </trkpt>
      <trkpt lat="59.8190399" lon="17.4929591">
        <ele>32.8223</ele>
        <time>2013-04-21T12:40:07Z</time>
      </trkpt>
      <trkpt lat="59.8190156" lon="17.4930678">
        <ele>33.3029</ele>
        <time>2013-04-21T12:40:08Z</time>
      </trkpt>
      <trkpt lat="59.8189896" lon="17.4931809">
        <ele>33.3029</ele>
        <time>2013-04-21T12:40:09Z</time>
      </trkpt>
      <trkpt lat="59.8189645" lon="17.4932954">
        <ele>33.7834</ele>
        <time>2013-04-21T12:40:10Z</time>
      </trkpt>
      <trkpt lat="59.8189397" lon="17.4934089">
        <ele>33.7834</ele>
        <time>2013-04-21T12:40:11Z</time>
      </trkpt>
      <trkpt lat="59.8189135" lon="17.4935197">
        <ele>33.7834</ele>
        <time>2013-04-21T12:40:12Z</time>
      </trkpt>
      <trkpt lat="59.818886" lon="17.493629">
        <ele>33.7834</ele>
        <time>2013-04-21T12:40:13Z</time>
      </trkpt>
      <trkpt lat="59.8188607" lon="17.4937386">
        <ele>33.7834</ele>
        <time>2013-04-21T12:40:14Z</time>
      </trkpt>
      <trkpt lat="59.8188353" lon="17.4938469">
        <ele>33.7834</ele>
        <time>2013-04-21T12:40:15Z</time>
      </trkpt>
      <trkpt lat="59.8188093" lon="17.4939542">
        <ele>34.2642</ele>
        <time>2013-04-21T12:40:16Z</time>
      </trkpt>
      <trkpt lat="59.8187843" lon="17.4940621">
        <ele>34.2642</ele>
        <time>2013-04-21T12:40:17Z</time>
      </trkpt>
      <trkpt lat="59.8187608" lon="17.4941714">
        <ele>34.2642</ele>
        <time>2013-04-21T12:40:18Z</time>
      </trkpt>
      <trkpt lat="59.8187367" lon="17.4942817">
        <ele>34.2642</ele>
        <time>2013-04-21T12:40:19Z</time>
      </trkpt>
      <trkpt lat="59.8187114" lon="17.4943945">
        <ele>33.7834</ele>
        <time>2013-04-21T12:40:20Z</time>
      </trkpt>
      <trkpt lat="59.8186862" lon="17.4945072">
        <ele>33.7834</ele>
        <time>2013-04-21T12:40:21Z</time>
      </trkpt>
      <trkpt lat="59.8186606" lon="17.49462">
        <ele>33.7834</ele>
        <time>2013-04-21T12:40:22Z</time>
      </trkpt>
      <trkpt lat="59.818633" lon="17.4947307">
        <ele>33.7834</ele>
        <time>2013-04-21T12:40:23Z</time>
      </trkpt>
      <trkpt lat="59.8186022" lon="17.4948407">
        <ele>33.7834</ele>
        <time>2013-04-21T12:40:24Z</time>
      </trkpt>
      <trkpt lat="59.8185696" lon="17.4949505">
        <ele>33.3029</ele>
        <time>2013-04-21T12:40:25Z</time>
      </trkpt>
      <trkpt lat="59.8185353" lon="17.4950606">
        <ele>33.3029</ele>
        <time>2013-04-21T12:40:26Z</time>
      </trkpt>
      <trkpt lat="59.8185012" lon="17.4951728">
        <ele>33.7834</ele>
        <time>2013-04-21T12:40:27Z</time>
      </trkpt>
      <trkpt lat="59.8184696" lon="17.4952885">
        <ele>33.7834</ele>
        <time>2013-04-21T12:40:28Z</time>
      </trkpt>
      <trkpt lat="59.8184389" lon="17.4954054">
        <ele>33.7834</ele>
        <time>2013-04-21T12:40:29Z</time>
      </trkpt>
      <trkpt lat="59.8184069" lon="17.495526">
        <ele>33.7834</ele>
        <time>2013-04-21T12:40:30Z</time>
      </trkpt>
      <trkpt lat="59.818375" lon="17.4956492">
        <ele>33.3029</ele>
        <time>2013-04-21T12:40:31Z</time>
      </trkpt>
      <trkpt lat="59.8183438" lon="17.4957758">
        <ele>33.3029</ele>
        <time>2013-04-21T12:40:32Z</time>
      </trkpt>
      <trkpt lat="59.8183127" lon="17.4959051">
        <ele>33.3029</ele>
        <time>2013-04-21T12:40:33Z</time>
      </trkpt>
      <trkpt lat="59.8182808" lon="17.4960342">
        <ele>32.8223</ele>
        <time>2013-04-21T12:40:34Z</time>
      </trkpt>
      <trkpt lat="59.8182474" lon="17.4961622">
        <ele>32.8223</ele>
        <time>2013-04-21T12:40:35Z</time>
      </trkpt>
      <trkpt lat="59.8182134" lon="17.4962884">
        <ele>32.8223</ele>
        <time>2013-04-21T12:40:36Z</time>
      </trkpt>
      <trkpt lat="59.8181783" lon="17.496414">
        <ele>32.3416</ele>
        <time>2013-04-21T12:40:37Z</time>
      </trkpt>
      <trkpt lat="59.8181416" lon="17.4965397">
        <ele>32.3416</ele>
        <time>2013-04-21T12:40:38Z</time>
      </trkpt>
      <trkpt lat="59.8181046" lon="17.4966665">
        <ele>31.8607</ele>
        <time>2013-04-21T12:40:39Z</time>
      </trkpt>
      <trkpt lat="59.8180686" lon="17.496797">
        <ele>31.8607</ele>
        <time>2013-04-21T12:40:40Z</time>
      </trkpt>
      <trkpt lat="59.8180332" lon="17.4969289">
        <ele>31.8607</ele>
        <time>2013-04-21T12:40:41Z</time>
      </trkpt>
      <trkpt lat="59.8179971" lon="17.4970598">
        <ele>31.3801</ele>
        <time>2013-04-21T12:40:42Z</time>
      </trkpt>
      <trkpt lat="59.8179612" lon="17.4971903">
        <ele>31.3801</ele>
        <time>2013-04-21T12:40:43Z</time>
      </trkpt>
      <trkpt lat="59.8179252" lon="17.4973235">
        <ele>31.3801</ele>
        <time>2013-04-21T12:40:44Z</time>
      </trkpt>
      <trkpt lat="59.8178891" lon="17.4974545">
        <ele>31.8607</ele>
        <time>2013-04-21T12:40:45Z</time>
      </trkpt>
      <trkpt lat="59.8178539" lon="17.4975851">
        <ele>31.8607</ele>
        <time>2013-04-21T12:40:46Z</time>
      </trkpt>
      <trkpt lat="59.817819" lon="17.497713">
        <ele>32.3416</ele>
        <time>2013-04-21T12:40:47Z</time>
      </trkpt>
      <trkpt lat="59.8177843" lon="17.4978385">
        <ele>32.3416</ele>
        <time>2013-04-21T12:40:48Z</time>
      </trkpt>
      <trkpt lat="59.8177503" lon="17.4979622">
        <ele>32.3416</ele>
        <time>2013-04-21T12:40:49Z</time>
      </trkpt>
      <trkpt lat="59.8177158" lon="17.4980834">
        <ele>32.8223</ele>
        <time>2013-04-21T12:40:50Z</time>
      </trkpt>
      <trkpt lat="59.8176806" lon="17.498202">
        <ele>32.8223</ele>
        <time>2013-04-21T12:40:51Z</time>
      </trkpt>
      <trkpt lat="59.8176443" lon="17.4983169">
        <ele>33.3029</ele>
        <time>2013-04-21T12:40:52Z</time>
      </trkpt>
      <trkpt lat="59.8176055" lon="17.4984263">
        <ele>33.3029</ele>
        <time>2013-04-21T12:40:53Z</time>
      </trkpt>
      <trkpt lat="59.8175624" lon="17.4985295">
        <ele>33.3029</ele>
        <time>2013-04-21T12:40:54Z</time>
      </trkpt>
      <trkpt lat="59.8175159" lon="17.4986261">
        <ele>33.3029</ele>
        <time>2013-04-21T12:40:55Z</time>
      </trkpt>
      <trkpt lat="59.8174686" lon="17.4987131">
        <ele>33.3029</ele>
        <time>2013-04-21T12:40:56Z</time>
      </trkpt>
      <trkpt lat="59.8174178" lon="17.4987939">
        <ele>33.3029</ele>
        <time>2013-04-21T12:40:57Z</time>
      </trkpt>
      <trkpt lat="59.8173647" lon="17.4988688">
        <ele>32.8223</ele>
        <time>2013-04-21T12:40:58Z</time>
      </trkpt>
      <trkpt lat="59.8173097" lon="17.4989382">
        <ele>32.8223</ele>
        <time>2013-04-21T12:40:59Z</time>
      </trkpt>
      <trkpt lat="59.8172522" lon="17.4989997">
        <ele>32.8223</ele>
        <time>2013-04-21T12:41:00Z</time>
      </trkpt>
      <trkpt lat="59.8171942" lon="17.4990535">
        <ele>32.8223</ele>
        <time>2013-04-21T12:41:01Z</time>
      </trkpt>
      <trkpt lat="59.8171365" lon="17.4991019">
        <ele>32.8223</ele>
        <time>2013-04-21T12:41:02Z</time>
      </trkpt>
      <trkpt lat="59.8170792" lon="17.4991464">
        <ele>32.8223</ele>
        <time>2013-04-21T12:41:03Z</time>
      </trkpt>
      <trkpt lat="59.817022" lon="17.4991907">
        <ele>32.8223</ele>
        <time>2013-04-21T12:41:04Z</time>
      </trkpt>
      <trkpt lat="59.8169637" lon="17.4992339">
        <ele>32.3416</ele>
        <time>2013-04-21T12:41:05Z</time>
      </trkpt>
      <trkpt lat="59.8169049" lon="17.4992764">
        <ele>32.3416</ele>
        <time>2013-04-21T12:41:06Z</time>
      </trkpt>
      <trkpt lat="59.8168449" lon="17.499321">
        <ele>32.3416</ele>
        <time>2013-04-21T12:41:07Z</time>
      </trkpt>
      <trkpt lat="59.816785" lon="17.4993658">
        <ele>32.3416</ele>
        <time>2013-04-21T12:41:08Z</time>
      </trkpt>
      <trkpt lat="59.8167265" lon="17.499409">
        <ele>31.8607</ele>
        <time>2013-04-21T12:41:09Z</time>
      </trkpt>
      <trkpt lat="59.8166689" lon="17.4994508">
        <ele>31.8607</ele>
        <time>2013-04-21T12:41:10Z</time>
      </trkpt>
      <trkpt lat="59.8166119" lon="17.4994918">
        <ele>31.8607</ele>
        <time>2013-04-21T12:41:11Z</time>
      </trkpt>
      <trkpt lat="59.8165553" lon="17.4995328">
        <ele>31.3801</ele>
        <time>2013-04-21T12:41:12Z</time>
      </trkpt>
      <trkpt lat="59.8164975" lon="17.4995727">
        <ele>31.3801</ele>
        <time>2013-04-21T12:41:13Z</time>
      </trkpt>
      <trkpt lat="59.8164387" lon="17.499612">
        <ele>31.3801</ele>
        <time>2013-04-21T12:41:14Z</time>
      </trkpt>
      <trkpt lat="59.8163789" lon="17.4996518">
        <ele>30.8995</ele>
        <time>2013-04-21T12:41:15Z</time>
      </trkpt>
      <trkpt lat="59.8163177" lon="17.4996903">
        <ele>30.8995</ele>
        <time>2013-04-21T12:41:16Z</time>
      </trkpt>
      <trkpt lat="59.816255" lon="17.499727">
        <ele>30.4188</ele>
        <time>2013-04-21T12:41:17Z</time>
      </trkpt>
      <trkpt lat="59.8161908" lon="17.4997612">
        <ele>30.4188</ele>
        <time>2013-04-21T12:41:18Z</time>
      </trkpt>
      <trkpt lat="59.816126" lon="17.4997933">
        <ele>30.4188</ele>
        <time>2013-04-21T12:41:19Z</time>
      </trkpt>
      <trkpt lat="59.8160604" lon="17.499823">
        <ele>29.9381</ele>
        <time>2013-04-21T12:41:20Z</time>
      </trkpt>
      <trkpt lat="59.8159945" lon="17.4998489">
        <ele>29.9381</ele>
        <time>2013-04-21T12:41:21Z</time>
      </trkpt>
      <trkpt lat="59.8159282" lon="17.4998741">
        <ele>29.9381</ele>
        <time>2013-04-21T12:41:22Z</time>
      </trkpt>
      <trkpt lat="59.8158619" lon="17.4999037">
        <ele>29.9381</ele>
        <time>2013-04-21T12:41:23Z</time>
      </trkpt>
      <trkpt lat="59.8157971" lon="17.4999351">
        <ele>29.4575</ele>
        <time>2013-04-21T12:41:24Z</time>
      </trkpt>
      <trkpt lat="59.8157335" lon="17.4999653">
        <ele>29.4575</ele>
        <time>2013-04-21T12:41:25Z</time>
      </trkpt>
      <trkpt lat="59.8156712" lon="17.5000015">
        <ele>29.4575</ele>
        <time>2013-04-21T12:41:26Z</time>
      </trkpt>
      <trkpt lat="59.8156094" lon="17.5000423">
        <ele>29.4575</ele>
        <time>2013-04-21T12:41:27Z</time>
      </trkpt>
      <trkpt lat="59.8155494" lon="17.5000861">
        <ele>29.4575</ele>
        <time>2013-04-21T12:41:28Z</time>
      </trkpt>
      <trkpt lat="59.8154905" lon="17.5001373">
        <ele>29.9381</ele>
        <time>2013-04-21T12:41:29Z</time>
      </trkpt>
      <trkpt lat="59.815433" lon="17.5001969">
        <ele>29.9381</ele>
        <time>2013-04-21T12:41:30Z</time>
      </trkpt>
      <trkpt lat="59.815376" lon="17.5002632">
        <ele>29.9381</ele>
        <time>2013-04-21T12:41:31Z</time>
      </trkpt>
      <trkpt lat="59.8153195" lon="17.5003358">
        <ele>30.4188</ele>
        <time>2013-04-21T12:41:32Z</time>
      </trkpt>
      <trkpt lat="59.8152651" lon="17.5004184">
        <ele>30.4188</ele>
        <time>2013-04-21T12:41:33Z</time>
      </trkpt>
      <trkpt lat="59.8152134" lon="17.5005111">
        <ele>30.4188</ele>
        <time>2013-04-21T12:41:34Z</time>
      </trkpt>
      <trkpt lat="59.8151626" lon="17.5006108">
        <ele>30.4188</ele>
        <time>2013-04-21T12:41:35Z</time>
      </trkpt>
      <trkpt lat="59.8151102" lon="17.5007107">
        <ele>29.9381</ele>
        <time>2013-04-21T12:41:36Z</time>
      </trkpt>
      <trkpt lat="59.815057" lon="17.5008107">
        <ele>29.9381</ele>
        <time>2013-04-21T12:41:37Z</time>
      </trkpt>
      <trkpt lat="59.8150031" lon="17.5009113">
        <ele>29.9381</ele>
        <time>2013-04-21T12:41:38Z</time>
      </trkpt>
      <trkpt lat="59.8149496" lon="17.5010133">
        <ele>29.9381</ele>
        <time>2013-04-21T12:41:39Z</time>
      </trkpt>
      <trkpt lat="59.8148963" lon="17.5011153">
        <ele>29.9381</ele>
        <time>2013-04-21T12:41:40Z</time>
      </trkpt>
      <trkpt lat="59.814843" lon="17.5012162">
        <ele>29.9381</ele>
        <time>2013-04-21T12:41:41Z</time>
      </trkpt>
      <trkpt lat="59.8147904" lon="17.5013158">
        <ele>29.9381</ele>
        <time>2013-04-21T12:41:42Z</time>
      </trkpt>
      <trkpt lat="59.8147383" lon="17.5014143">
        <ele>29.9381</ele>
        <time>2013-04-21T12:41:43Z</time>
      </trkpt>
      <trkpt lat="59.8146881" lon="17.5015131">
        <ele>29.9381</ele>
        <time>2013-04-21T12:41:44Z</time>
      </trkpt>
      <trkpt lat="59.8146387" lon="17.5016113">
        <ele>29.9381</ele>
        <time>2013-04-21T12:41:45Z</time>
      </trkpt>
      <trkpt lat="59.8145891" lon="17.5017079">
        <ele>29.9381</ele>
        <time>2013-04-21T12:41:46Z</time>
      </trkpt>
      <trkpt lat="59.8145404" lon="17.5018048">
        <ele>29.9381</ele>
        <time>2013-04-21T12:41:47Z</time>
      </trkpt>
      <trkpt lat="59.8144927" lon="17.5019042">
        <ele>29.9381</ele>
        <time>2013-04-21T12:41:48Z</time>
      </trkpt>
      <trkpt lat="59.8144456" lon="17.5020062">
        <ele>29.9381</ele>
        <time>2013-04-21T12:41:49Z</time>
      </trkpt>
      <trkpt lat="59.8143995" lon="17.5021104">
        <ele>29.4575</ele>
        <time>2013-04-21T12:41:50Z</time>
      </trkpt>
      <trkpt lat="59.814354" lon="17.5022175">
        <ele>29.4575</ele>
        <time>2013-04-21T12:41:51Z</time>
      </trkpt>
      <trkpt lat="59.8143094" lon="17.5023267">
        <ele>29.4575</ele>
        <time>2013-04-21T12:41:52Z</time>
      </trkpt>
      <trkpt lat="59.8142654" lon="17.5024377">
        <ele>29.4575</ele>
        <time>2013-04-21T12:41:53Z</time>
      </trkpt>
      <trkpt lat="59.8142235" lon="17.5025526">
        <ele>28.9769</ele>
        <time>2013-04-21T12:41:54Z</time>
      </trkpt>
      <trkpt lat="59.814184" lon="17.5026686">
        <ele>28.9769</ele>
        <time>2013-04-21T12:41:55Z</time>
      </trkpt>
      <trkpt lat="59.8141445" lon="17.5027839">
        <ele>28.9769</ele>
        <time>2013-04-21T12:41:56Z</time>
      </trkpt>
      <trkpt lat="59.814107" lon="17.5029012">
        <ele>28.9769</ele>
        <time>2013-04-21T12:41:57Z</time>
      </trkpt>
      <trkpt lat="59.8140721" lon="17.5030216">
        <ele>28.9769</ele>
        <time>2013-04-21T12:41:58Z</time>
      </trkpt>
      <trkpt lat="59.8140365" lon="17.5031423">
        <ele>28.4962</ele>
        <time>2013-04-21T12:41:59Z</time>
      </trkpt>
      <trkpt lat="59.8140001" lon="17.5032625">
        <ele>28.4962</ele>
        <time>2013-04-21T12:42:00Z</time>
      </trkpt>
      <trkpt lat="59.8139635" lon="17.5033826">
        <ele>28.4962</ele>
        <time>2013-04-21T12:42:01Z</time>
      </trkpt>
      <trkpt lat="59.8139271" lon="17.5035028">
        <ele>28.4962</ele>
        <time>2013-04-21T12:42:02Z</time>
      </trkpt>
      <trkpt lat="59.8138908" lon="17.5036243">
        <ele>28.0155</ele>
        <time>2013-04-21T12:42:03Z</time>
      </trkpt>
      <trkpt lat="59.8138551" lon="17.5037447">
        <ele>28.0155</ele>
        <time>2013-04-21T12:42:04Z</time>
      </trkpt>
      <trkpt lat="59.8138197" lon="17.5038634">
        <ele>28.0155</ele>
        <time>2013-04-21T12:42:05Z</time>
      </trkpt>
      <trkpt lat="59.8137845" lon="17.5039816">
        <ele>28.0155</ele>
        <time>2013-04-21T12:42:06Z</time>
      </trkpt>
      <trkpt lat="59.8137504" lon="17.5040971">
        <ele>28.0155</ele>
        <time>2013-04-21T12:42:07Z</time>
      </trkpt>
      <trkpt lat="59.8137178" lon="17.5042066">
        <ele>28.0155</ele>
        <time>2013-04-21T12:42:08Z</time>
      </trkpt>
      <trkpt lat="59.813686" lon="17.5043123">
        <ele>28.0155</ele>
        <time>2013-04-21T12:42:09Z</time>
      </trkpt>
      <trkpt lat="59.813655" lon="17.5044176">
        <ele>28.0155</ele>
        <time>2013-04-21T12:42:10Z</time>
      </trkpt>
      <trkpt lat="59.8136242" lon="17.5045217">
        <ele>28.0155</ele>
        <time>2013-04-21T12:42:11Z</time>
      </trkpt>
      <trkpt lat="59.8135936" lon="17.5046251">
        <ele>28.0155</ele>
        <time>2013-04-21T12:42:12Z</time>
      </trkpt>
      <trkpt lat="59.8135636" lon="17.5047289">
        <ele>28.0155</ele>
        <time>2013-04-21T12:42:13Z</time>
      </trkpt>
      <trkpt lat="59.8135334" lon="17.5048324">
        <ele>28.0155</ele>
        <time>2013-04-21T12:42:14Z</time>
      </trkpt>
      <trkpt lat="59.8135029" lon="17.5049355">
        <ele>28.0155</ele>
        <time>2013-04-21T12:42:15Z</time>
      </trkpt>
      <trkpt lat="59.8134724" lon="17.5050376">
        <ele>28.0155</ele>
        <time>2013-04-21T12:42:16Z</time>
      </trkpt>
      <trkpt lat="59.8134426" lon="17.5051392">
        <ele>28.0155</ele>
        <time>2013-04-21T12:42:17Z</time>
      </trkpt>
      <trkpt lat="59.8134136" lon="17.5052423">
        <ele>28.0155</ele>
        <time>2013-04-21T12:42:18Z</time>
      </trkpt>
      <trkpt lat="59.8133846" lon="17.5053452">
        <ele>28.0155</ele>
        <time>2013-04-21T12:42:19Z</time>
      </trkpt>
      <trkpt lat="59.8133553" lon="17.5054464">
        <ele>28.0155</ele>
        <time>2013-04-21T12:42:20Z</time>
      </trkpt>
      <trkpt lat="59.8133262" lon="17.5055458">
        <ele>28.0155</ele>
        <time>2013-04-21T12:42:21Z</time>
      </trkpt>
      <trkpt lat="59.813298" lon="17.5056431">
        <ele>28.0155</ele>
        <time>2013-04-21T12:42:22Z</time>
      </trkpt>
      <trkpt lat="59.8132714" lon="17.505738">
        <ele>28.4962</ele>
        <time>2013-04-21T12:42:23Z</time>
      </trkpt>
      <trkpt lat="59.8132454" lon="17.5058312">
        <ele>28.4962</ele>
        <time>2013-04-21T12:42:24Z</time>
      </trkpt>
      <trkpt lat="59.8132195" lon="17.5059214">
        <ele>28.4962</ele>
        <time>2013-04-21T12:42:25Z</time>
      </trkpt>
      <trkpt lat="59.813195" lon="17.5060054">
        <ele>28.4962</ele>
        <time>2013-04-21T12:42:26Z</time>
      </trkpt>
      <trkpt lat="59.8131699" lon="17.5060873">
        <ele>28.9769</ele>
        <time>2013-04-21T12:42:27Z</time>
      </trkpt>
      <trkpt lat="59.8131434" lon="17.50617">
        <ele>28.9769</ele>
        <time>2013-04-21T12:42:28Z</time>
      </trkpt>
      <trkpt lat="59.813117" lon="17.5062503">
        <ele>29.4575</ele>
        <time>2013-04-21T12:42:29Z</time>
      </trkpt>
      <trkpt lat="59.8130909" lon="17.5063301">
        <ele>29.4575</ele>
        <time>2013-04-21T12:42:30Z</time>
      </trkpt>
      <trkpt lat="59.8130646" lon="17.5064103">
        <ele>29.4575</ele>
        <time>2013-04-21T12:42:31Z</time>
      </trkpt>
      <trkpt lat="59.8130376" lon="17.5064908">
        <ele>29.4575</ele>
        <time>2013-04-21T12:42:32Z</time>
      </trkpt>
      <trkpt lat="59.8130081" lon="17.5065731">
        <ele>29.4575</ele>
        <time>2013-04-21T12:42:33Z</time>
      </trkpt>
      <trkpt lat="59.8129767" lon="17.5066599">
        <ele>29.4575</ele>
        <time>2013-04-21T12:42:34Z</time>
      </trkpt>
      <trkpt lat="59.812945" lon="17.5067481">
        <ele>29.4575</ele>
        <time>2013-04-21T12:42:35Z</time>
      </trkpt>
      <trkpt lat="59.8129155" lon="17.5068393">
        <ele>29.4575</ele>
        <time>2013-04-21T12:42:36Z</time>
      </trkpt>
      <trkpt lat="59.812887" lon="17.5069349">
        <ele>29.4575</ele>
        <time>2013-04-21T12:42:37Z</time>
      </trkpt>
      <trkpt lat="59.8128572" lon="17.5070315">
        <ele>29.9381</ele>
        <time>2013-04-21T12:42:38Z</time>
      </trkpt>
      <trkpt lat="59.8128263" lon="17.5071313">
        <ele>29.9381</ele>
        <time>2013-04-21T12:42:39Z</time>
      </trkpt>
      <trkpt lat="59.8127964" lon="17.5072361">
        <ele>29.9381</ele>
        <time>2013-04-21T12:42:40Z</time>
      </trkpt>
      <trkpt lat="59.8127678" lon="17.5073459">
        <ele>29.4575</ele>
        <time>2013-04-21T12:42:41Z</time>
      </trkpt>
      <trkpt lat="59.8127398" lon="17.5074594">
        <ele>29.4575</ele>
        <time>2013-04-21T12:42:42Z</time>
      </trkpt>
      <trkpt lat="59.8127118" lon="17.5075742">
        <ele>29.4575</ele>
        <time>2013-04-21T12:42:43Z</time>
      </trkpt>
      <trkpt lat="59.8126837" lon="17.5076912">
        <ele>29.9381</ele>
        <time>2013-04-21T12:42:44Z</time>
      </trkpt>
      <trkpt lat="59.8126543" lon="17.507813">
        <ele>29.9381</ele>
        <time>2013-04-21T12:42:45Z</time>
      </trkpt>
      <trkpt lat="59.8126251" lon="17.5079358">
        <ele>29.9381</ele>
        <time>2013-04-21T12:42:46Z</time>
      </trkpt>
      <trkpt lat="59.8125977" lon="17.508058">
        <ele>29.9381</ele>
        <time>2013-04-21T12:42:47Z</time>
      </trkpt>
      <trkpt lat="59.8125704" lon="17.508181">
        <ele>29.9381</ele>
        <time>2013-04-21T12:42:48Z</time>
      </trkpt>
      <trkpt lat="59.8125424" lon="17.5083043">
        <ele>29.9381</ele>
        <time>2013-04-21T12:42:49Z</time>
      </trkpt>
      <trkpt lat="59.8125139" lon="17.5084279">
        <ele>29.9381</ele>
        <time>2013-04-21T12:42:50Z</time>
      </trkpt>
      <trkpt lat="59.812487" lon="17.5085509">
        <ele>29.4575</ele>
        <time>2013-04-21T12:42:51Z</time>
      </trkpt>
      <trkpt lat="59.8124592" lon="17.5086746">
        <ele>29.4575</ele>
        <time>2013-04-21T12:42:52Z</time>
      </trkpt>
      <trkpt lat="59.8124299" lon="17.5087974">
        <ele>29.4575</ele>
        <time>2013-04-21T12:42:53Z</time>
      </trkpt>
      <trkpt lat="59.812401" lon="17.5089181">
        <ele>29.4575</ele>
        <time>2013-04-21T12:42:54Z</time>
      </trkpt>
      <trkpt lat="59.8123724" lon="17.5090377">
        <ele>29.4575</ele>
        <time>2013-04-21T12:42:55Z</time>
      </trkpt>
      <trkpt lat="59.8123439" lon="17.509157">
        <ele>29.4575</ele>
        <time>2013-04-21T12:42:56Z</time>
      </trkpt>
      <trkpt lat="59.8123155" lon="17.5092751">
        <ele>29.4575</ele>
        <time>2013-04-21T12:42:57Z</time>
      </trkpt>
      <trkpt lat="59.812286" lon="17.5093919">
        <ele>29.4575</ele>
        <time>2013-04-21T12:42:58Z</time>
      </trkpt>
      <trkpt lat="59.8122553" lon="17.5095069">
        <ele>28.9769</ele>
        <time>2013-04-21T12:42:59Z</time>
      </trkpt>
      <trkpt lat="59.812224" lon="17.5096203">
        <ele>28.9769</ele>
        <time>2013-04-21T12:43:00Z</time>
      </trkpt>
      <trkpt lat="59.8121919" lon="17.5097335">
        <ele>28.9769</ele>
        <time>2013-04-21T12:43:01Z</time>
      </trkpt>
      <trkpt lat="59.8121582" lon="17.5098464">
        <ele>28.9769</ele>
        <time>2013-04-21T12:43:02Z</time>
      </trkpt>
      <trkpt lat="59.8121234" lon="17.5099588">
        <ele>28.4962</ele>
        <time>2013-04-21T12:43:03Z</time>
      </trkpt>
      <trkpt lat="59.8120869" lon="17.5100702">
        <ele>28.4962</ele>
        <time>2013-04-21T12:43:04Z</time>
      </trkpt>
      <trkpt lat="59.8120482" lon="17.5101821">
        <ele>28.4962</ele>
        <time>2013-04-21T12:43:05Z</time>
      </trkpt>
      <trkpt lat="59.8120089" lon="17.510296">
        <ele>28.4962</ele>
        <time>2013-04-21T12:43:06Z</time>
      </trkpt>
      <trkpt lat="59.8119695" lon="17.5104116">
        <ele>28.0155</ele>
        <time>2013-04-21T12:43:07Z</time>
      </trkpt>
      <trkpt lat="59.8119292" lon="17.510528">
        <ele>28.0155</ele>
        <time>2013-04-21T12:43:08Z</time>
      </trkpt>
      <trkpt lat="59.8118883" lon="17.510641">
        <ele>28.0155</ele>
        <time>2013-04-21T12:43:09Z</time>
      </trkpt>
      <trkpt lat="59.8118477" lon="17.5107518">
        <ele>27.5349</ele>
        <time>2013-04-21T12:43:10Z</time>
      </trkpt>
      <trkpt lat="59.8118072" lon="17.5108615">
        <ele>27.5349</ele>
        <time>2013-04-21T12:43:11Z</time>
      </trkpt>
      <trkpt lat="59.8117684" lon="17.5109741">
        <ele>27.5349</ele>
        <time>2013-04-21T12:43:12Z</time>
      </trkpt>
      <trkpt lat="59.81173" lon="17.5110875">
        <ele>27.5349</ele>
        <time>2013-04-21T12:43:13Z</time>
      </trkpt>
      <trkpt lat="59.8116888" lon="17.5111963">
        <ele>27.5349</ele>
        <time>2013-04-21T12:43:14Z</time>
      </trkpt>
      <trkpt lat="59.8116452" lon="17.511303">
        <ele>27.0543</ele>
        <time>2013-04-21T12:43:15Z</time>
      </trkpt>
      <trkpt lat="59.8116" lon="17.5114088">
        <ele>27.0543</ele>
        <time>2013-04-21T12:43:16Z</time>
      </trkpt>
      <trkpt lat="59.8115555" lon="17.5115121">
        <ele>27.0543</ele>
        <time>2013-04-21T12:43:17Z</time>
      </trkpt>
      <trkpt lat="59.8115124" lon="17.5116108">
        <ele>27.5349</ele>
        <time>2013-04-21T12:43:18Z</time>
      </trkpt>
      <trkpt lat="59.8114689" lon="17.5117063">
        <ele>27.5349</ele>
        <time>2013-04-21T12:43:19Z</time>
      </trkpt>
      <trkpt lat="59.8114236" lon="17.5117982">
        <ele>27.5349</ele>
        <time>2013-04-21T12:43:20Z</time>
      </trkpt>
      <trkpt lat="59.8113785" lon="17.5118882">
        <ele>27.5349</ele>
        <time>2013-04-21T12:43:21Z</time>
      </trkpt>
      <trkpt lat="59.8113345" lon="17.511977">
        <ele>27.5349</ele>
        <time>2013-04-21T12:43:22Z</time>
      </trkpt>
      <trkpt lat="59.8112899" lon="17.512066">
        <ele>27.5349</ele>
        <time>2013-04-21T12:43:23Z</time>
      </trkpt>
      <trkpt lat="59.8112448" lon="17.5121556">
        <ele>27.5349</ele>
        <time>2013-04-21T12:43:24Z</time>
      </trkpt>
      <trkpt lat="59.8111982" lon="17.5122453">
        <ele>27.5349</ele>
        <time>2013-04-21T12:43:25Z</time>
      </trkpt>
      <trkpt lat="59.81115" lon="17.5123343">
        <ele>27.5349</ele>
        <time>2013-04-21T12:43:26Z</time>
      </trkpt>
      <trkpt lat="59.8111003" lon="17.512421">
        <ele>27.5349</ele>
        <time>2013-04-21T12:43:27Z</time>
      </trkpt>
      <trkpt lat="59.8110501" lon="17.5125028">
        <ele>27.5349</ele>
        <time>2013-04-21T12:43:28Z</time>
      </trkpt>
      <trkpt lat="59.8109988" lon="17.5125794">
        <ele>27.5349</ele>
        <time>2013-04-21T12:43:29Z</time>
      </trkpt>
      <trkpt lat="59.8109461" lon="17.5126545">
        <ele>27.0543</ele>
        <time>2013-04-21T12:43:30Z</time>
      </trkpt>
      <trkpt lat="59.8108935" lon="17.5127304">
        <ele>27.0543</ele>
        <time>2013-04-21T12:43:31Z</time>
      </trkpt>
      <trkpt lat="59.8108403" lon="17.5128059">
        <ele>27.0543</ele>
        <time>2013-04-21T12:43:32Z</time>
      </trkpt>
      <trkpt lat="59.8107863" lon="17.5128804">
        <ele>27.0543</ele>
        <time>2013-04-21T12:43:33Z</time>
      </trkpt>
      <trkpt lat="59.8107315" lon="17.512956">
        <ele>27.5349</ele>
        <time>2013-04-21T12:43:34Z</time>
      </trkpt>
      <trkpt lat="59.8106775" lon="17.5130326">
        <ele>27.5349</ele>
        <time>2013-04-21T12:43:35Z</time>
      </trkpt>
      <trkpt lat="59.8106253" lon="17.5131122">
        <ele>27.5349</ele>
        <time>2013-04-21T12:43:36Z</time>
      </trkpt>
      <trkpt lat="59.8105757" lon="17.5131946">
        <ele>28.0155</ele>
        <time>2013-04-21T12:43:37Z</time>
      </trkpt>
      <trkpt lat="59.810529" lon="17.5132761">
        <ele>28.0155</ele>
        <time>2013-04-21T12:43:38Z</time>
      </trkpt>
      <trkpt lat="59.8104818" lon="17.5133539">
        <ele>28.0155</ele>
        <time>2013-04-21T12:43:39Z</time>
      </trkpt>
      <trkpt lat="59.8104356" lon="17.5134354">
        <ele>28.0155</ele>
        <time>2013-04-21T12:43:40Z</time>
      </trkpt>
      <trkpt lat="59.8103906" lon="17.5135212">
        <ele>28.4962</ele>
        <time>2013-04-21T12:43:41Z</time>
      </trkpt>
      <trkpt lat="59.8103477" lon="17.5136102">
        <ele>28.4962</ele>
        <time>2013-04-21T12:43:42Z</time>
      </trkpt>
      <trkpt lat="59.8103061" lon="17.5136997">
        <ele>28.4962</ele>
        <time>2013-04-21T12:43:43Z</time>
      </trkpt>
      <trkpt lat="59.8102652" lon="17.5137894">
        <ele>28.9769</ele>
        <time>2013-04-21T12:43:44Z</time>
      </trkpt>
      <trkpt lat="59.8102254" lon="17.5138805">
        <ele>28.9769</ele>
        <time>2013-04-21T12:43:45Z</time>
      </trkpt>
      <trkpt lat="59.8101902" lon="17.5139708">
        <ele>29.4575</ele>
        <time>2013-04-21T12:43:46Z</time>
      </trkpt>
      <trkpt lat="59.8101559" lon="17.5140666">
        <ele>29.9381</ele>
        <time>2013-04-21T12:43:47Z</time>
      </trkpt>
      <trkpt lat="59.8101223" lon="17.5141643">
        <ele>29.9381</ele>
        <time>2013-04-21T12:43:48Z</time>
      </trkpt>
      <trkpt lat="59.8100902" lon="17.5142644">
        <ele>30.4188</ele>
        <time>2013-04-21T12:43:49Z</time>
      </trkpt>
      <trkpt lat="59.8100605" lon="17.514366">
        <ele>30.4188</ele>
        <time>2013-04-21T12:43:50Z</time>
      </trkpt>
      <trkpt lat="59.8100335" lon="17.5144689">
        <ele>30.4188</ele>
        <time>2013-04-21T12:43:51Z</time>
      </trkpt>
      <trkpt lat="59.8100089" lon="17.5145735">
        <ele>30.8995</ele>
        <time>2013-04-21T12:43:52Z</time>
      </trkpt>
      <trkpt lat="59.8099861" lon="17.5146815">
        <ele>30.8995</ele>
        <time>2013-04-21T12:43:53Z</time>
      </trkpt>
      <trkpt lat="59.8099662" lon="17.5147902">
        <ele>30.8995</ele>
        <time>2013-04-21T12:43:54Z</time>
      </trkpt>
      <trkpt lat="59.8099472" lon="17.5148996">
        <ele>30.8995</ele>
        <time>2013-04-21T12:43:55Z</time>
      </trkpt>
      <trkpt lat="59.809929" lon="17.5150114">
        <ele>30.8995</ele>
        <time>2013-04-21T12:43:56Z</time>
      </trkpt>
      <trkpt lat="59.8099131" lon="17.5151264">
        <ele>31.3801</ele>
        <time>2013-04-21T12:43:57Z</time>
      </trkpt>
      <trkpt lat="59.8098989" lon="17.5152409">
        <ele>31.3801</ele>
        <time>2013-04-21T12:43:58Z</time>
      </trkpt>
      <trkpt lat="59.8098839" lon="17.5153521">
        <ele>31.3801</ele>
        <time>2013-04-21T12:43:59Z</time>
      </trkpt>
      <trkpt lat="59.809868" lon="17.5154555">
        <ele>31.8607</ele>
        <time>2013-04-21T12:44:00Z</time>
      </trkpt>
      <trkpt lat="59.8098513" lon="17.5155627">
        <ele>32.3416</ele>
        <time>2013-04-21T12:44:01Z</time>
      </trkpt>
      <trkpt lat="59.8098348" lon="17.5156672">
        <ele>32.8223</ele>
        <time>2013-04-21T12:44:02Z</time>
      </trkpt>
      <trkpt lat="59.8098192" lon="17.5157681">
        <ele>33.3029</ele>
        <time>2013-04-21T12:44:03Z</time>
      </trkpt>
      <trkpt lat="59.8098043" lon="17.5158656">
        <ele>33.7834</ele>
        <time>2013-04-21T12:44:04Z</time>
      </trkpt>
      <trkpt lat="59.8097898" lon="17.515961">
        <ele>33.7834</ele>
        <time>2013-04-21T12:44:05Z</time>
      </trkpt>
      <trkpt lat="59.8097768" lon="17.5160531">
        <ele>34.2642</ele>
        <time>2013-04-21T12:44:06Z</time>
      </trkpt>
      <trkpt lat="59.8097623" lon="17.5161485">
        <ele>34.2642</ele>
        <time>2013-04-21T12:44:07Z</time>
      </trkpt>
      <trkpt lat="59.8097464" lon="17.5162484">
        <ele>34.2642</ele>
        <time>2013-04-21T12:44:08Z</time>
      </trkpt>
      <trkpt lat="59.8097317" lon="17.5163446">
        <ele>34.7449</ele>
        <time>2013-04-21T12:44:09Z</time>
      </trkpt>
      <trkpt lat="59.8097168" lon="17.5164411">
        <ele>34.7449</ele>
        <time>2013-04-21T12:44:10Z</time>
      </trkpt>
      <trkpt lat="59.8097038" lon="17.516534">
        <ele>35.2255</ele>
        <time>2013-04-21T12:44:11Z</time>
      </trkpt>
      <trkpt lat="59.8096928" lon="17.5166288">
        <ele>35.2255</ele>
        <time>2013-04-21T12:44:12Z</time>
      </trkpt>
      <trkpt lat="59.8096824" lon="17.516724">
        <ele>35.2255</ele>
        <time>2013-04-21T12:44:13Z</time>
      </trkpt>
      <trkpt lat="59.8096732" lon="17.5168217">
        <ele>35.2255</ele>
        <time>2013-04-21T12:44:14Z</time>
      </trkpt>
      <trkpt lat="59.809664" lon="17.5169223">
        <ele>35.2255</ele>
        <time>2013-04-21T12:44:15Z</time>
      </trkpt>
      <trkpt lat="59.8096551" lon="17.5170264">
        <ele>35.2255</ele>
        <time>2013-04-21T12:44:16Z</time>
      </trkpt>
      <trkpt lat="59.8096481" lon="17.5171328">
        <ele>35.2255</ele>
        <time>2013-04-21T12:44:17Z</time>
      </trkpt>
      <trkpt lat="59.8096431" lon="17.5172403">
        <ele>35.2255</ele>
        <time>2013-04-21T12:44:18Z</time>
      </trkpt>
      <trkpt lat="59.8096378" lon="17.5173486">
        <ele>35.2255</ele>
        <time>2013-04-21T12:44:19Z</time>
      </trkpt>
      <trkpt lat="59.8096319" lon="17.5174562">
        <ele>35.2255</ele>
        <time>2013-04-21T12:44:20Z</time>
      </trkpt>
      <trkpt lat="59.8096274" lon="17.5175632">
        <ele>35.2255</ele>
        <time>2013-04-21T12:44:21Z</time>
      </trkpt>
      <trkpt lat="59.8096235" lon="17.5176697">
        <ele>35.2255</ele>
        <time>2013-04-21T12:44:22Z</time>
      </trkpt>
      <trkpt lat="59.8096187" lon="17.5177762">
        <ele>35.2255</ele>
        <time>2013-04-21T12:44:23Z</time>
      </trkpt>
      <trkpt lat="59.8096167" lon="17.5178791">
        <ele>35.7061</ele>
        <time>2013-04-21T12:44:24Z</time>
      </trkpt>
      <trkpt lat="59.809611" lon="17.5179854">
        <ele>35.7061</ele>
        <time>2013-04-21T12:44:25Z</time>
      </trkpt>
      <trkpt lat="59.8096038" lon="17.5180932">
        <ele>35.7061</ele>
        <time>2013-04-21T12:44:26Z</time>
      </trkpt>
      <trkpt lat="59.809595" lon="17.5182014">
        <ele>35.7061</ele>
        <time>2013-04-21T12:44:27Z</time>
      </trkpt>
      <trkpt lat="59.8095842" lon="17.5183094">
        <ele>35.7061</ele>
        <time>2013-04-21T12:44:28Z</time>
      </trkpt>
      <trkpt lat="59.8095709" lon="17.5184178">
        <ele>35.7061</ele>
        <time>2013-04-21T12:44:29Z</time>
      </trkpt>
      <trkpt lat="59.8095541" lon="17.5185267">
        <ele>35.7061</ele>
        <time>2013-04-21T12:44:30Z</time>
      </trkpt>
      <trkpt lat="59.8095339" lon="17.5186352">
        <ele>35.7061</ele>
        <time>2013-04-21T12:44:31Z</time>
      </trkpt>
      <trkpt lat="59.8095115" lon="17.5187447">
        <ele>35.7061</ele>
        <time>2013-04-21T12:44:32Z</time>
      </trkpt>
      <trkpt lat="59.8094866" lon="17.5188541">
        <ele>35.7061</ele>
        <time>2013-04-21T12:44:33Z</time>
      </trkpt>
      <trkpt lat="59.8094598" lon="17.5189609">
        <ele>35.7061</ele>
        <time>2013-04-21T12:44:34Z</time>
      </trkpt>
      <trkpt lat="59.8094308" lon="17.5190679">
        <ele>35.7061</ele>
        <time>2013-04-21T12:44:35Z</time>
      </trkpt>
      <trkpt lat="59.8093992" lon="17.5191743">
        <ele>35.2255</ele>
        <time>2013-04-21T12:44:36Z</time>
      </trkpt>
      <trkpt lat="59.8093664" lon="17.5192805">
        <ele>35.2255</ele>
        <time>2013-04-21T12:44:37Z</time>
      </trkpt>
      <trkpt lat="59.8093335" lon="17.519387">
        <ele>35.2255</ele>
        <time>2013-04-21T12:44:38Z</time>
      </trkpt>
      <trkpt lat="59.8092996" lon="17.5194948">
        <ele>35.2255</ele>
        <time>2013-04-21T12:44:39Z</time>
      </trkpt>
      <trkpt lat="59.8092629" lon="17.519604">
        <ele>34.7449</ele>
        <time>2013-04-21T12:44:40Z</time>
      </trkpt>
      <trkpt lat="59.8092256" lon="17.5197138">
        <ele>34.7449</ele>
        <time>2013-04-21T12:44:41Z</time>
      </trkpt>
      <trkpt lat="59.8091894" lon="17.5198215">
        <ele>34.7449</ele>
        <time>2013-04-21T12:44:42Z</time>
      </trkpt>
      <trkpt lat="59.809153" lon="17.5199259">
        <ele>34.2642</ele>
        <time>2013-04-21T12:44:43Z</time>
      </trkpt>
      <trkpt lat="59.8091132" lon="17.5200373">
        <ele>34.2642</ele>
        <time>2013-04-21T12:44:44Z</time>
      </trkpt>
      <trkpt lat="59.8090722" lon="17.5201449">
        <ele>34.2642</ele>
        <time>2013-04-21T12:44:45Z</time>
      </trkpt>
      <trkpt lat="59.8090304" lon="17.5202552">
        <ele>33.7834</ele>
        <time>2013-04-21T12:44:46Z</time>
      </trkpt>
      <trkpt lat="59.808989" lon="17.5203729">
        <ele>33.7834</ele>
        <time>2013-04-21T12:44:47Z</time>
      </trkpt>
      <trkpt lat="59.8089488" lon="17.5204952">
        <ele>33.7834</ele>
        <time>2013-04-21T12:44:48Z</time>
      </trkpt>
      <trkpt lat="59.8089085" lon="17.5206214">
        <ele>33.3029</ele>
        <time>2013-04-21T12:44:49Z</time>
      </trkpt>
      <trkpt lat="59.8088691" lon="17.5207452">
        <ele>33.3029</ele>
        <time>2013-04-21T12:44:50Z</time>
      </trkpt>
      <trkpt lat="59.8088302" lon="17.5208728">
        <ele>33.3029</ele>
        <time>2013-04-21T12:44:51Z</time>
      </trkpt>
      <trkpt lat="59.8087909" lon="17.5210029">
        <ele>33.3029</ele>
        <time>2013-04-21T12:44:52Z</time>
      </trkpt>
      <trkpt lat="59.8087511" lon="17.5211305">
        <ele>33.7834</ele>
        <time>2013-04-21T12:44:53Z</time>
      </trkpt>
      <trkpt lat="59.8087128" lon="17.5212572">
        <ele>33.3029</ele>
        <time>2013-04-21T12:44:54Z</time>
      </trkpt>
      <trkpt lat="59.8086765" lon="17.5213845">
        <ele>33.3029</ele>
        <time>2013-04-21T12:44:55Z</time>
      </trkpt>
      <trkpt lat="59.8086418" lon="17.5215068">
        <ele>33.3029</ele>
        <time>2013-04-21T12:44:56Z</time>
      </trkpt>
      <trkpt lat="59.8086076" lon="17.5216276">
        <ele>32.8223</ele>
        <time>2013-04-21T12:44:57Z</time>
      </trkpt>
      <trkpt lat="59.8085725" lon="17.5217513">
        <ele>32.8223</ele>
        <time>2013-04-21T12:44:58Z</time>
      </trkpt>
      <trkpt lat="59.808535" lon="17.5218792">
        <ele>32.3416</ele>
        <time>2013-04-21T12:44:59Z</time>
      </trkpt>
      <trkpt lat="59.8084961" lon="17.5220099">
        <ele>32.3416</ele>
        <time>2013-04-21T12:45:00Z</time>
      </trkpt>
      <trkpt lat="59.8084575" lon="17.5221423">
        <ele>32.3416</ele>
        <time>2013-04-21T12:45:01Z</time>
      </trkpt>
      <trkpt lat="59.8084194" lon="17.5222755">
        <ele>31.8607</ele>
        <time>2013-04-21T12:45:02Z</time>
      </trkpt>
      <trkpt lat="59.8083813" lon="17.5224097">
        <ele>31.8607</ele>
        <time>2013-04-21T12:45:03Z</time>
      </trkpt>
      <trkpt lat="59.808344" lon="17.5225408">
        <ele>31.8607</ele>
        <time>2013-04-21T12:45:04Z</time>
      </trkpt>
      <trkpt lat="59.8083062" lon="17.5226688">
        <ele>31.3801</ele>
        <time>2013-04-21T12:45:05Z</time>
      </trkpt>
      <trkpt lat="59.8082687" lon="17.5227949">
        <ele>31.3801</ele>
        <time>2013-04-21T12:45:06Z</time>
      </trkpt>
      <trkpt lat="59.8082331" lon="17.5229182">
        <ele>31.3801</ele>
        <time>2013-04-21T12:45:07Z</time>
      </trkpt>
      <trkpt lat="59.808198" lon="17.5230393">
        <ele>30.8995</ele>
        <time>2013-04-21T12:45:08Z</time>
      </trkpt>
      <trkpt lat="59.8081632" lon="17.5231611">
        <ele>30.8995</ele>
        <time>2013-04-21T12:45:09Z</time>
      </trkpt>
      <trkpt lat="59.8081314" lon="17.5232799">
        <ele>31.3801</ele>
        <time>2013-04-21T12:45:10Z</time>
      </trkpt>
      <trkpt lat="59.8080985" lon="17.5234045">
        <ele>30.8995</ele>
        <time>2013-04-21T12:45:11Z</time>
      </trkpt>
      <trkpt lat="59.8080657" lon="17.5235278">
        <ele>31.3801</ele>
        <time>2013-04-21T12:45:12Z</time>
      </trkpt>
      <trkpt lat="59.8080307" lon="17.5236519">
        <ele>30.8995</ele>
        <time>2013-04-21T12:45:13Z</time>
      </trkpt>
      <trkpt lat="59.8079965" lon="17.5237746">
        <ele>30.8995</ele>
        <time>2013-04-21T12:45:14Z</time>
      </trkpt>
      <trkpt lat="59.807962" lon="17.5238965">
        <ele>30.8995</ele>
        <time>2013-04-21T12:45:15Z</time>
      </trkpt>
      <trkpt lat="59.8079264" lon="17.5240192">
        <ele>30.8995</ele>
        <time>2013-04-21T12:45:16Z</time>
      </trkpt>
      <trkpt lat="59.8078912" lon="17.5241429">
        <ele>30.8995</ele>
        <time>2013-04-21T12:45:17Z</time>
      </trkpt>
      <trkpt lat="59.8078577" lon="17.5242631">
        <ele>30.8995</ele>
        <time>2013-04-21T12:45:18Z</time>
      </trkpt>
      <trkpt lat="59.8078248" lon="17.5243877">
        <ele>30.8995</ele>
        <time>2013-04-21T12:45:19Z</time>
      </trkpt>
      <trkpt lat="59.8077921" lon="17.5245134">
        <ele>30.8995</ele>
        <time>2013-04-21T12:45:20Z</time>
      </trkpt>
      <trkpt lat="59.8077561" lon="17.5246431">
        <ele>30.8995</ele>
        <time>2013-04-21T12:45:21Z</time>
      </trkpt>
      <trkpt lat="59.8077188" lon="17.5247766">
        <ele>30.4188</ele>
        <time>2013-04-21T12:45:22Z</time>
      </trkpt>
      <trkpt lat="59.8076836" lon="17.5249076">
        <ele>30.4188</ele>
        <time>2013-04-21T12:45:23Z</time>
      </trkpt>
      <trkpt lat="59.8076493" lon="17.5250409">
        <ele>30.4188</ele>
        <time>2013-04-21T12:45:24Z</time>
      </trkpt>
      <trkpt lat="59.807613" lon="17.5251712">
        <ele>29.9381</ele>
        <time>2013-04-21T12:45:25Z</time>
      </trkpt>
      <trkpt lat="59.8075762" lon="17.5252945">
        <ele>29.9381</ele>
        <time>2013-04-21T12:45:26Z</time>
      </trkpt>
      <trkpt lat="59.8075373" lon="17.5254217">
        <ele>29.4575</ele>
        <time>2013-04-21T12:45:27Z</time>
      </trkpt>
      <trkpt lat="59.8074984" lon="17.5255523">
        <ele>29.4575</ele>
        <time>2013-04-21T12:45:28Z</time>
      </trkpt>
      <trkpt lat="59.8074598" lon="17.5256826">
        <ele>29.4575</ele>
        <time>2013-04-21T12:45:29Z</time>
      </trkpt>
      <trkpt lat="59.8074209" lon="17.5258139">
        <ele>29.4575</ele>
        <time>2013-04-21T12:45:30Z</time>
      </trkpt>
      <trkpt lat="59.8073815" lon="17.525946">
        <ele>28.9769</ele>
        <time>2013-04-21T12:45:31Z</time>
      </trkpt>
      <trkpt lat="59.8073423" lon="17.526079">
        <ele>28.9769</ele>
        <time>2013-04-21T12:45:32Z</time>
      </trkpt>
      <trkpt lat="59.8073033" lon="17.5262125">
        <ele>28.9769</ele>
        <time>2013-04-21T12:45:33Z</time>
      </trkpt>
      <trkpt lat="59.807265" lon="17.5263465">
        <ele>28.4962</ele>
        <time>2013-04-21T12:45:34Z</time>
      </trkpt>
      <trkpt lat="59.8072267" lon="17.5264824">
        <ele>28.4962</ele>
        <time>2013-04-21T12:45:35Z</time>
      </trkpt>
      <trkpt lat="59.8071882" lon="17.526619">
        <ele>28.4962</ele>
        <time>2013-04-21T12:45:36Z</time>
      </trkpt>
      <trkpt lat="59.8071498" lon="17.5267541">
        <ele>28.4962</ele>
        <time>2013-04-21T12:45:37Z</time>
      </trkpt>
      <trkpt lat="59.8071116" lon="17.5268863">
        <ele>28.0155</ele>
        <time>2013-04-21T12:45:38Z</time>
      </trkpt>
      <trkpt lat="59.8070738" lon="17.5270164">
        <ele>28.0155</ele>
        <time>2013-04-21T12:45:39Z</time>
      </trkpt>
      <trkpt lat="59.8070364" lon="17.5271469">
        <ele>28.0155</ele>
        <time>2013-04-21T12:45:40Z</time>
      </trkpt>
      <trkpt lat="59.8069978" lon="17.5272784">
        <ele>28.0155</ele>
        <time>2013-04-21T12:45:41Z</time>
      </trkpt>
      <trkpt lat="59.8069591" lon="17.5274111">
        <ele>28.0155</ele>
        <time>2013-04-21T12:45:42Z</time>
      </trkpt>
      <trkpt lat="59.8069205" lon="17.5275448">
        <ele>28.0155</ele>
        <time>2013-04-21T12:45:43Z</time>
      </trkpt>
      <trkpt lat="59.8068822" lon="17.5276781">
        <ele>28.0155</ele>
        <time>2013-04-21T12:45:44Z</time>
      </trkpt>
      <trkpt lat="59.8068449" lon="17.5278097">
        <ele>28.0155</ele>
        <time>2013-04-21T12:45:45Z</time>
      </trkpt>
      <trkpt lat="59.8068081" lon="17.5279393">
        <ele>28.0155</ele>
        <time>2013-04-21T12:45:46Z</time>
      </trkpt>
      <trkpt lat="59.8067707" lon="17.5280658">
        <ele>28.0155</ele>
        <time>2013-04-21T12:45:47Z</time>
      </trkpt>
      <trkpt lat="59.8067331" lon="17.5281904">
        <ele>28.0155</ele>
        <time>2013-04-21T12:45:48Z</time>
      </trkpt>
      <trkpt lat="59.8066967" lon="17.5283129">
        <ele>28.0155</ele>
        <time>2013-04-21T12:45:49Z</time>
      </trkpt>
      <trkpt lat="59.8066606" lon="17.528433">
        <ele>28.0155</ele>
        <time>2013-04-21T12:45:50Z</time>
      </trkpt>
      <trkpt lat="59.8066258" lon="17.5285512">
        <ele>28.4962</ele>
        <time>2013-04-21T12:45:51Z</time>
      </trkpt>
      <trkpt lat="59.8065924" lon="17.528667">
        <ele>28.4962</ele>
        <time>2013-04-21T12:45:52Z</time>
      </trkpt>
      <trkpt lat="59.8065594" lon="17.5287801">
        <ele>28.4962</ele>
        <time>2013-04-21T12:45:53Z</time>
      </trkpt>
      <trkpt lat="59.8065263" lon="17.528891">
        <ele>28.4962</ele>
        <time>2013-04-21T12:45:54Z</time>
      </trkpt>
      <trkpt lat="59.8064941" lon="17.5289998">
        <ele>28.9769</ele>
        <time>2013-04-21T12:45:55Z</time>
      </trkpt>
      <trkpt lat="59.8064631" lon="17.5291065">
        <ele>28.9769</ele>
        <time>2013-04-21T12:45:56Z</time>
      </trkpt>
      <trkpt lat="59.8064319" lon="17.5292097">
        <ele>29.4575</ele>
        <time>2013-04-21T12:45:57Z</time>
      </trkpt>
      <trkpt lat="59.8064007" lon="17.5293101">
        <ele>29.4575</ele>
        <time>2013-04-21T12:45:58Z</time>
      </trkpt>
      <trkpt lat="59.8063702" lon="17.5294095">
        <ele>29.4575</ele>
        <time>2013-04-21T12:45:59Z</time>
      </trkpt>
      <trkpt lat="59.8063404" lon="17.5295079">
        <ele>29.4575</ele>
        <time>2013-04-21T12:46:00Z</time>
      </trkpt>
      <trkpt lat="59.8063107" lon="17.5296049">
        <ele>29.9381</ele>
        <time>2013-04-21T12:46:01Z</time>
      </trkpt>
      <trkpt lat="59.8062808" lon="17.5297008">
        <ele>29.9381</ele>
        <time>2013-04-21T12:46:02Z</time>
      </trkpt>
      <trkpt lat="59.8062507" lon="17.5297979">
        <ele>29.9381</ele>
        <time>2013-04-21T12:46:03Z</time>
      </trkpt>
      <trkpt lat="59.8062202" lon="17.5298976">
        <ele>29.4575</ele>
        <time>2013-04-21T12:46:04Z</time>
      </trkpt>
      <trkpt lat="59.806189" lon="17.5300006">
        <ele>29.4575</ele>
        <time>2013-04-21T12:46:05Z</time>
      </trkpt>
      <trkpt lat="59.8061555" lon="17.5301047">
        <ele>29.4575</ele>
        <time>2013-04-21T12:46:06Z</time>
      </trkpt>
      <trkpt lat="59.8061197" lon="17.5302094">
        <ele>29.4575</ele>
        <time>2013-04-21T12:46:07Z</time>
      </trkpt>
      <trkpt lat="59.8060821" lon="17.5303171">
        <ele>28.9769</ele>
        <time>2013-04-21T12:46:08Z</time>
      </trkpt>
      <trkpt lat="59.8060435" lon="17.5304285">
        <ele>28.9769</ele>
        <time>2013-04-21T12:46:09Z</time>
      </trkpt>
      <trkpt lat="59.8060035" lon="17.5305422">
        <ele>28.9769</ele>
        <time>2013-04-21T12:46:10Z</time>
      </trkpt>
      <trkpt lat="59.8059627" lon="17.5306559">
        <ele>28.4962</ele>
        <time>2013-04-21T12:46:11Z</time>
      </trkpt>
      <trkpt lat="59.8059229" lon="17.5307688">
        <ele>28.4962</ele>
        <time>2013-04-21T12:46:12Z</time>
      </trkpt>
      <trkpt lat="59.8058836" lon="17.5308782">
        <ele>28.4962</ele>
        <time>2013-04-21T12:46:13Z</time>
      </trkpt>
      <trkpt lat="59.8058434" lon="17.5309864">
        <ele>28.0155</ele>
        <time>2013-04-21T12:46:14Z</time>
      </trkpt>
      <trkpt lat="59.8058024" lon="17.5310918">
        <ele>28.4962</ele>
        <time>2013-04-21T12:46:15Z</time>
      </trkpt>
      <trkpt lat="59.8057626" lon="17.5311954">
        <ele>28.4962</ele>
        <time>2013-04-21T12:46:16Z</time>
      </trkpt>
      <trkpt lat="59.8057223" lon="17.5313034">
        <ele>28.4962</ele>
        <time>2013-04-21T12:46:17Z</time>
      </trkpt>
      <trkpt lat="59.8056819" lon="17.5314127">
        <ele>28.4962</ele>
        <time>2013-04-21T12:46:18Z</time>
      </trkpt>
      <trkpt lat="59.8056413" lon="17.5315205">
        <ele>28.4962</ele>
        <time>2013-04-21T12:46:19Z</time>
      </trkpt>
      <trkpt lat="59.8055996" lon="17.5316287">
        <ele>28.4962</ele>
        <time>2013-04-21T12:46:20Z</time>
      </trkpt>
      <trkpt lat="59.8055592" lon="17.531739">
        <ele>28.4962</ele>
        <time>2013-04-21T12:46:21Z</time>
      </trkpt>
      <trkpt lat="59.8055196" lon="17.5318509">
        <ele>28.4962</ele>
        <time>2013-04-21T12:46:22Z</time>
      </trkpt>
      <trkpt lat="59.8054799" lon="17.531961">
        <ele>28.4962</ele>
        <time>2013-04-21T12:46:23Z</time>
      </trkpt>
      <trkpt lat="59.8054396" lon="17.5320695">
        <ele>28.4962</ele>
        <time>2013-04-21T12:46:24Z</time>
      </trkpt>
      <trkpt lat="59.8054" lon="17.5321778">
        <ele>28.4962</ele>
        <time>2013-04-21T12:46:25Z</time>
      </trkpt>
      <trkpt lat="59.8053613" lon="17.5322881">
        <ele>28.4962</ele>
        <time>2013-04-21T12:46:26Z</time>
      </trkpt>
      <trkpt lat="59.8053231" lon="17.5324011">
        <ele>28.4962</ele>
        <time>2013-04-21T12:46:27Z</time>
      </trkpt>
      <trkpt lat="59.8052849" lon="17.5325158">
        <ele>28.4962</ele>
        <time>2013-04-21T12:46:28Z</time>
      </trkpt>
      <trkpt lat="59.8052458" lon="17.5326315">
        <ele>28.0155</ele>
        <time>2013-04-21T12:46:29Z</time>
      </trkpt>
      <trkpt lat="59.805207" lon="17.5327498">
        <ele>28.0155</ele>
        <time>2013-04-21T12:46:30Z</time>
      </trkpt>
      <trkpt lat="59.8051687" lon="17.5328714">
        <ele>28.0155</ele>
        <time>2013-04-21T12:46:31Z</time>
      </trkpt>
      <trkpt lat="59.8051302" lon="17.5329942">
        <ele>28.0155</ele>
        <time>2013-04-21T12:46:32Z</time>
      </trkpt>
      <trkpt lat="59.8050909" lon="17.5331185">
        <ele>27.5349</ele>
        <time>2013-04-21T12:46:33Z</time>
      </trkpt>
      <trkpt lat="59.8050511" lon="17.5332442">
        <ele>27.5349</ele>
        <time>2013-04-21T12:46:34Z</time>
      </trkpt>
      <trkpt lat="59.8050114" lon="17.5333702">
        <ele>27.5349</ele>
        <time>2013-04-21T12:46:35Z</time>
      </trkpt>
      <trkpt lat="59.8049719" lon="17.533494">
        <ele>27.5349</ele>
        <time>2013-04-21T12:46:36Z</time>
      </trkpt>
      <trkpt lat="59.8049327" lon="17.5336142">
        <ele>27.0543</ele>
        <time>2013-04-21T12:46:37Z</time>
      </trkpt>
      <trkpt lat="59.8048945" lon="17.5337308">
        <ele>27.0543</ele>
        <time>2013-04-21T12:46:38Z</time>
      </trkpt>
      <trkpt lat="59.8048574" lon="17.5338446">
        <ele>27.0543</ele>
        <time>2013-04-21T12:46:39Z</time>
      </trkpt>
      <trkpt lat="59.80482" lon="17.5339551">
        <ele>27.0543</ele>
        <time>2013-04-21T12:46:40Z</time>
      </trkpt>
      <trkpt lat="59.8047821" lon="17.5340631">
        <ele>27.0543</ele>
        <time>2013-04-21T12:46:41Z</time>
      </trkpt>
      <trkpt lat="59.8047443" lon="17.5341715">
        <ele>27.0543</ele>
        <time>2013-04-21T12:46:42Z</time>
      </trkpt>
      <trkpt lat="59.804707" lon="17.5342786">
        <ele>27.0543</ele>
        <time>2013-04-21T12:46:43Z</time>
      </trkpt>
      <trkpt lat="59.8046683" lon="17.5343822">
        <ele>27.0543</ele>
        <time>2013-04-21T12:46:44Z</time>
      </trkpt>
      <trkpt lat="59.80463" lon="17.5344818">
        <ele>27.0543</ele>
        <time>2013-04-21T12:46:45Z</time>
      </trkpt>
      <trkpt lat="59.8045903" lon="17.5345816">
        <ele>27.0543</ele>
        <time>2013-04-21T12:46:46Z</time>
      </trkpt>
      <trkpt lat="59.8045517" lon="17.5346767">
        <ele>26.5736</ele>
        <time>2013-04-21T12:46:47Z</time>
      </trkpt>
      <trkpt lat="59.8045128" lon="17.534773">
        <ele>26.5736</ele>
        <time>2013-04-21T12:46:48Z</time>
      </trkpt>
      <trkpt lat="59.8044728" lon="17.5348708">
        <ele>26.5736</ele>
        <time>2013-04-21T12:46:49Z</time>
      </trkpt>
      <trkpt lat="59.8044328" lon="17.5349689">
        <ele>26.5736</ele>
        <time>2013-04-21T12:46:50Z</time>
      </trkpt>
      <trkpt lat="59.8043927" lon="17.5350678">
        <ele>26.5736</ele>
        <time>2013-04-21T12:46:51Z</time>
      </trkpt>
      <trkpt lat="59.804353" lon="17.5351684">
        <ele>26.5736</ele>
        <time>2013-04-21T12:46:52Z</time>
      </trkpt>
      <trkpt lat="59.8043135" lon="17.5352727">
        <ele>26.5736</ele>
        <time>2013-04-21T12:46:53Z</time>
      </trkpt>
      <trkpt lat="59.8042745" lon="17.5353801">
        <ele>26.5736</ele>
        <time>2013-04-21T12:46:54Z</time>
      </trkpt>
      <trkpt lat="59.8042363" lon="17.5354909">
        <ele>26.5736</ele>
        <time>2013-04-21T12:46:55Z</time>
      </trkpt>
      <trkpt lat="59.8041989" lon="17.5356043">
        <ele>26.5736</ele>
        <time>2013-04-21T12:46:56Z</time>
      </trkpt>
      <trkpt lat="59.8041622" lon="17.5357193">
        <ele>26.5736</ele>
        <time>2013-04-21T12:46:57Z</time>
      </trkpt>
      <trkpt lat="59.8041269" lon="17.535836">
        <ele>26.5736</ele>
        <time>2013-04-21T12:46:58Z</time>
      </trkpt>
      <trkpt lat="59.8040925" lon="17.5359546">
        <ele>26.5736</ele>
        <time>2013-04-21T12:46:59Z</time>
      </trkpt>
      <trkpt lat="59.8040584" lon="17.5360715">
        <ele>26.5736</ele>
        <time>2013-04-21T12:47:00Z</time>
      </trkpt>
      <trkpt lat="59.8040272" lon="17.5361851">
        <ele>26.5736</ele>
        <time>2013-04-21T12:47:01Z</time>
      </trkpt>
      <trkpt lat="59.8039989" lon="17.5362963">
        <ele>26.5736</ele>
        <time>2013-04-21T12:47:02Z</time>
      </trkpt>
      <trkpt lat="59.8039709" lon="17.5364047">
        <ele>26.5736</ele>
        <time>2013-04-21T12:47:03Z</time>
      </trkpt>
      <trkpt lat="59.8039422" lon="17.5365145">
        <ele>26.5736</ele>
        <time>2013-04-21T12:47:04Z</time>
      </trkpt>
      <trkpt lat="59.8039138" lon="17.5366263">
        <ele>27.0543</ele>
        <time>2013-04-21T12:47:05Z</time>
      </trkpt>
      <trkpt lat="59.8038865" lon="17.5367386">
        <ele>27.0543</ele>
        <time>2013-04-21T12:47:06Z</time>
      </trkpt>
      <trkpt lat="59.80386" lon="17.53685">
        <ele>27.0543</ele>
        <time>2013-04-21T12:47:07Z</time>
      </trkpt>
      <trkpt lat="59.8038335" lon="17.5369598">
        <ele>27.0543</ele>
        <time>2013-04-21T12:47:08Z</time>
      </trkpt>
      <trkpt lat="59.8038086" lon="17.5370699">
        <ele>27.0543</ele>
        <time>2013-04-21T12:47:09Z</time>
      </trkpt>
      <trkpt lat="59.8037848" lon="17.5371811">
        <ele>27.0543</ele>
        <time>2013-04-21T12:47:10Z</time>
      </trkpt>
      <trkpt lat="59.8037605" lon="17.5372915">
        <ele>27.0543</ele>
        <time>2013-04-21T12:47:11Z</time>
      </trkpt>
      <trkpt lat="59.8037363" lon="17.5374014">
        <ele>27.0543</ele>
        <time>2013-04-21T12:47:12Z</time>
      </trkpt>
      <trkpt lat="59.803712" lon="17.5375117">
        <ele>27.0543</ele>
        <time>2013-04-21T12:47:13Z</time>
      </trkpt>
      <trkpt lat="59.8036882" lon="17.5376229">
        <ele>27.0543</ele>
        <time>2013-04-21T12:47:14Z</time>
      </trkpt>
      <trkpt lat="59.8036649" lon="17.5377338">
        <ele>27.0543</ele>
        <time>2013-04-21T12:47:15Z</time>
      </trkpt>
      <trkpt lat="59.8036413" lon="17.5378443">
        <ele>27.0543</ele>
        <time>2013-04-21T12:47:16Z</time>
      </trkpt>
      <trkpt lat="59.8036178" lon="17.5379571">
        <ele>27.0543</ele>
        <time>2013-04-21T12:47:17Z</time>
      </trkpt>
      <trkpt lat="59.8035962" lon="17.5380731">
        <ele>27.0543</ele>
        <time>2013-04-21T12:47:18Z</time>
      </trkpt>
      <trkpt lat="59.8035745" lon="17.5381914">
        <ele>26.5736</ele>
        <time>2013-04-21T12:47:19Z</time>
      </trkpt>
      <trkpt lat="59.8035522" lon="17.5383094">
        <ele>26.5736</ele>
        <time>2013-04-21T12:47:20Z</time>
      </trkpt>
      <trkpt lat="59.8035313" lon="17.5384254">
        <ele>26.5736</ele>
        <time>2013-04-21T12:47:21Z</time>
      </trkpt>
      <trkpt lat="59.8035103" lon="17.5385389">
        <ele>26.5736</ele>
        <time>2013-04-21T12:47:22Z</time>
      </trkpt>
      <trkpt lat="59.8034867" lon="17.5386503">
        <ele>26.5736</ele>
        <time>2013-04-21T12:47:23Z</time>
      </trkpt>
      <trkpt lat="59.8034619" lon="17.5387627">
        <ele>26.0929</ele>
        <time>2013-04-21T12:47:24Z</time>
      </trkpt>
      <trkpt lat="59.8034374" lon="17.5388777">
        <ele>26.0929</ele>
        <time>2013-04-21T12:47:25Z</time>
      </trkpt>
      <trkpt lat="59.8034126" lon="17.5389933">
        <ele>26.0929</ele>
        <time>2013-04-21T12:47:26Z</time>
      </trkpt>
      <trkpt lat="59.8033873" lon="17.5391096">
        <ele>26.0929</ele>
        <time>2013-04-21T12:47:27Z</time>
      </trkpt>
      <trkpt lat="59.8033613" lon="17.5392264">
        <ele>26.0929</ele>
        <time>2013-04-21T12:47:28Z</time>
      </trkpt>
      <trkpt lat="59.8033336" lon="17.539344">
        <ele>26.0929</ele>
        <time>2013-04-21T12:47:29Z</time>
      </trkpt>
      <trkpt lat="59.8033051" lon="17.5394611">
        <ele>26.0929</ele>
        <time>2013-04-21T12:47:30Z</time>
      </trkpt>
      <trkpt lat="59.8032762" lon="17.5395777">
        <ele>26.0929</ele>
        <time>2013-04-21T12:47:31Z</time>
      </trkpt>
      <trkpt lat="59.8032455" lon="17.5396931">
        <ele>26.0929</ele>
        <time>2013-04-21T12:47:32Z</time>
      </trkpt>
      <trkpt lat="59.803213" lon="17.5398084">
        <ele>26.0929</ele>
        <time>2013-04-21T12:47:33Z</time>
      </trkpt>
      <trkpt lat="59.8031806" lon="17.5399242">
        <ele>26.0929</ele>
        <time>2013-04-21T12:47:34Z</time>
      </trkpt>
      <trkpt lat="59.8031483" lon="17.5400401">
        <ele>26.0929</ele>
        <time>2013-04-21T12:47:35Z</time>
      </trkpt>
      <trkpt lat="59.8031152" lon="17.5401555">
        <ele>26.0929</ele>
        <time>2013-04-21T12:47:36Z</time>
      </trkpt>
      <trkpt lat="59.8030819" lon="17.5402711">
        <ele>26.0929</ele>
        <time>2013-04-21T12:47:37Z</time>
      </trkpt>
      <trkpt lat="59.803049" lon="17.5403877">
        <ele>26.0929</ele>
        <time>2013-04-21T12:47:38Z</time>
      </trkpt>
      <trkpt lat="59.8030174" lon="17.5405033">
        <ele>26.0929</ele>
        <time>2013-04-21T12:47:39Z</time>
      </trkpt>
      <trkpt lat="59.8029871" lon="17.5406159">
        <ele>26.0929</ele>
        <time>2013-04-21T12:47:40Z</time>
      </trkpt>
      <trkpt lat="59.8029562" lon="17.5407255">
        <ele>26.0929</ele>
        <time>2013-04-21T12:47:41Z</time>
      </trkpt>
      <trkpt lat="59.8029254" lon="17.5408342">
        <ele>26.0929</ele>
        <time>2013-04-21T12:47:42Z</time>
      </trkpt>
      <trkpt lat="59.8028956" lon="17.5409429">
        <ele>26.0929</ele>
        <time>2013-04-21T12:47:43Z</time>
      </trkpt>
      <trkpt lat="59.8028654" lon="17.5410492">
        <ele>26.0929</ele>
        <time>2013-04-21T12:47:44Z</time>
      </trkpt>
      <trkpt lat="59.8028339" lon="17.5411542">
        <ele>26.0929</ele>
        <time>2013-04-21T12:47:45Z</time>
      </trkpt>
      <trkpt lat="59.8028033" lon="17.5412638">
        <ele>26.0929</ele>
        <time>2013-04-21T12:47:46Z</time>
      </trkpt>
      <trkpt lat="59.8027726" lon="17.5413761">
        <ele>26.0929</ele>
        <time>2013-04-21T12:47:47Z</time>
      </trkpt>
      <trkpt lat="59.8027413" lon="17.5414895">
        <ele>26.0929</ele>
        <time>2013-04-21T12:47:48Z</time>
      </trkpt>
      <trkpt lat="59.8027106" lon="17.5416053">
        <ele>26.0929</ele>
        <time>2013-04-21T12:47:49Z</time>
      </trkpt>
      <trkpt lat="59.8026793" lon="17.5417212">
        <ele>26.0929</ele>
        <time>2013-04-21T12:47:50Z</time>
      </trkpt>
      <trkpt lat="59.8026474" lon="17.5418361">
        <ele>26.0929</ele>
        <time>2013-04-21T12:47:51Z</time>
      </trkpt>
      <trkpt lat="59.8026163" lon="17.54195">
        <ele>26.0929</ele>
        <time>2013-04-21T12:47:52Z</time>
      </trkpt>
      <trkpt lat="59.8025857" lon="17.5420649">
        <ele>26.0929</ele>
        <time>2013-04-21T12:47:53Z</time>
      </trkpt>
      <trkpt lat="59.8025541" lon="17.5421811">
        <ele>26.0929</ele>
        <time>2013-04-21T12:47:54Z</time>
      </trkpt>
      <trkpt lat="59.8025216" lon="17.5422982">
        <ele>26.0929</ele>
        <time>2013-04-21T12:47:55Z</time>
      </trkpt>
      <trkpt lat="59.8024885" lon="17.5424157">
        <ele>26.0929</ele>
        <time>2013-04-21T12:47:56Z</time>
      </trkpt>
      <trkpt lat="59.8024554" lon="17.5425333">
        <ele>26.0929</ele>
        <time>2013-04-21T12:47:57Z</time>
      </trkpt>
      <trkpt lat="59.8024227" lon="17.5426515">
        <ele>26.0929</ele>
        <time>2013-04-21T12:47:58Z</time>
      </trkpt>
      <trkpt lat="59.8023905" lon="17.5427701">
        <ele>26.0929</ele>
        <time>2013-04-21T12:47:59Z</time>
      </trkpt>
      <trkpt lat="59.8023578" lon="17.542887">
        <ele>26.0929</ele>
        <time>2013-04-21T12:48:00Z</time>
      </trkpt>
      <trkpt lat="59.8023242" lon="17.5430021">
        <ele>25.6123</ele>
        <time>2013-04-21T12:48:01Z</time>
      </trkpt>
      <trkpt lat="59.8022906" lon="17.543116">
        <ele>25.6123</ele>
        <time>2013-04-21T12:48:02Z</time>
      </trkpt>
      <trkpt lat="59.8022567" lon="17.5432284">
        <ele>25.6123</ele>
        <time>2013-04-21T12:48:03Z</time>
      </trkpt>
      <trkpt lat="59.802222" lon="17.5433397">
        <ele>25.6123</ele>
        <time>2013-04-21T12:48:04Z</time>
      </trkpt>
      <trkpt lat="59.802186" lon="17.5434492">
        <ele>25.6123</ele>
        <time>2013-04-21T12:48:05Z</time>
      </trkpt>
      <trkpt lat="59.8021492" lon="17.5435584">
        <ele>25.6123</ele>
        <time>2013-04-21T12:48:06Z</time>
      </trkpt>
      <trkpt lat="59.8021122" lon="17.543667">
        <ele>25.6123</ele>
        <time>2013-04-21T12:48:07Z</time>
      </trkpt>
      <trkpt lat="59.802075" lon="17.543775">
        <ele>25.1317</ele>
        <time>2013-04-21T12:48:08Z</time>
      </trkpt>
      <trkpt lat="59.8020383" lon="17.5438833">
        <ele>25.1317</ele>
        <time>2013-04-21T12:48:09Z</time>
      </trkpt>
      <trkpt lat="59.8020013" lon="17.5439914">
        <ele>25.1317</ele>
        <time>2013-04-21T12:48:10Z</time>
      </trkpt>
      <trkpt lat="59.801963" lon="17.5440991">
        <ele>25.1317</ele>
        <time>2013-04-21T12:48:11Z</time>
      </trkpt>
      <trkpt lat="59.8019238" lon="17.544208">
        <ele>25.1317</ele>
        <time>2013-04-21T12:48:12Z</time>
      </trkpt>
      <trkpt lat="59.8018854" lon="17.5443182">
        <ele>25.1317</ele>
        <time>2013-04-21T12:48:13Z</time>
      </trkpt>
      <trkpt lat="59.8018476" lon="17.5444304">
        <ele>25.1317</ele>
        <time>2013-04-21T12:48:14Z</time>
      </trkpt>
      <trkpt lat="59.8018104" lon="17.5445437">
        <ele>25.1317</ele>
        <time>2013-04-21T12:48:15Z</time>
      </trkpt>
      <trkpt lat="59.8017741" lon="17.5446582">
        <ele>25.1317</ele>
        <time>2013-04-21T12:48:16Z</time>
      </trkpt>
      <trkpt lat="59.8017387" lon="17.5447727">
        <ele>24.651</ele>
        <time>2013-04-21T12:48:17Z</time>
      </trkpt>
      <trkpt lat="59.801704" lon="17.5448861">
        <ele>24.651</ele>
        <time>2013-04-21T12:48:18Z</time>
      </trkpt>
      <trkpt lat="59.8016694" lon="17.5450001">
        <ele>24.651</ele>
        <time>2013-04-21T12:48:19Z</time>
      </trkpt>
      <trkpt lat="59.8016351" lon="17.5451144">
        <ele>24.651</ele>
        <time>2013-04-21T12:48:20Z</time>
      </trkpt>
      <trkpt lat="59.8016017" lon="17.5452307">
        <ele>24.651</ele>
        <time>2013-04-21T12:48:21Z</time>
      </trkpt>
      <trkpt lat="59.8015682" lon="17.5453487">
        <ele>24.651</ele>
        <time>2013-04-21T12:48:22Z</time>
      </trkpt>
      <trkpt lat="59.8015338" lon="17.5454662">
        <ele>24.651</ele>
        <time>2013-04-21T12:48:23Z</time>
      </trkpt>
      <trkpt lat="59.8015003" lon="17.5455845">
        <ele>25.1317</ele>
        <time>2013-04-21T12:48:24Z</time>
      </trkpt>
      <trkpt lat="59.8014673" lon="17.545703">
        <ele>25.1317</ele>
        <time>2013-04-21T12:48:25Z</time>
      </trkpt>
      <trkpt lat="59.8014336" lon="17.5458195">
        <ele>25.1317</ele>
        <time>2013-04-21T12:48:26Z</time>
      </trkpt>
      <trkpt lat="59.8013996" lon="17.5459351">
        <ele>25.1317</ele>
        <time>2013-04-21T12:48:27Z</time>
      </trkpt>
      <trkpt lat="59.8013659" lon="17.5460515">
        <ele>25.1317</ele>
        <time>2013-04-21T12:48:28Z</time>
      </trkpt>
      <trkpt lat="59.8013323" lon="17.5461656">
        <ele>25.1317</ele>
        <time>2013-04-21T12:48:29Z</time>
      </trkpt>
      <trkpt lat="59.8012983" lon="17.5462832">
        <ele>25.1317</ele>
        <time>2013-04-21T12:48:30Z</time>
      </trkpt>
      <trkpt lat="59.8012639" lon="17.5464022">
        <ele>25.1317</ele>
        <time>2013-04-21T12:48:31Z</time>
      </trkpt>
      <trkpt lat="59.8012289" lon="17.5465231">
        <ele>25.1317</ele>
        <time>2013-04-21T12:48:32Z</time>
      </trkpt>
      <trkpt lat="59.8011928" lon="17.5466443">
        <ele>25.1317</ele>
        <time>2013-04-21T12:48:33Z</time>
      </trkpt>
      <trkpt lat="59.8011559" lon="17.5467649">
        <ele>25.1317</ele>
        <time>2013-04-21T12:48:34Z</time>
      </trkpt>
      <trkpt lat="59.8011188" lon="17.5468831">
        <ele>25.1317</ele>
        <time>2013-04-21T12:48:35Z</time>
      </trkpt>
      <trkpt lat="59.8010799" lon="17.5470059">
        <ele>25.1317</ele>
        <time>2013-04-21T12:48:36Z</time>
      </trkpt>
      <trkpt lat="59.80104" lon="17.5471268">
        <ele>24.651</ele>
        <time>2013-04-21T12:48:37Z</time>
      </trkpt>
      <trkpt lat="59.8009992" lon="17.5472383">
        <ele>24.651</ele>
        <time>2013-04-21T12:48:38Z</time>
      </trkpt>
      <trkpt lat="59.8009564" lon="17.5473456">
        <ele>24.651</ele>
        <time>2013-04-21T12:48:39Z</time>
      </trkpt>
      <trkpt lat="59.8009105" lon="17.5474539">
        <ele>24.651</ele>
        <time>2013-04-21T12:48:40Z</time>
      </trkpt>
      <trkpt lat="59.8008632" lon="17.5475601">
        <ele>24.651</ele>
        <time>2013-04-21T12:48:41Z</time>
      </trkpt>
      <trkpt lat="59.8008138" lon="17.54767">
        <ele>24.651</ele>
        <time>2013-04-21T12:48:42Z</time>
      </trkpt>
      <trkpt lat="59.8007653" lon="17.5477782">
        <ele>24.1703</ele>
        <time>2013-04-21T12:48:43Z</time>
      </trkpt>
      <trkpt lat="59.8007173" lon="17.5478829">
        <ele>24.1703</ele>
        <time>2013-04-21T12:48:44Z</time>
      </trkpt>
      <trkpt lat="59.8006706" lon="17.5479848">
        <ele>24.1703</ele>
        <time>2013-04-21T12:48:45Z</time>
      </trkpt>
      <trkpt lat="59.8006244" lon="17.5480877">
        <ele>24.1703</ele>
        <time>2013-04-21T12:48:46Z</time>
      </trkpt>
      <trkpt lat="59.8005796" lon="17.5481905">
        <ele>24.1703</ele>
        <time>2013-04-21T12:48:47Z</time>
      </trkpt>
      <trkpt lat="59.8005359" lon="17.5482983">
        <ele>24.1703</ele>
        <time>2013-04-21T12:48:48Z</time>
      </trkpt>
      <trkpt lat="59.8004934" lon="17.5484104">
        <ele>23.6896</ele>
        <time>2013-04-21T12:48:49Z</time>
      </trkpt>
      <trkpt lat="59.8004511" lon="17.548525">
        <ele>23.6896</ele>
        <time>2013-04-21T12:48:50Z</time>
      </trkpt>
      <trkpt lat="59.8004099" lon="17.5486423">
        <ele>23.6896</ele>
        <time>2013-04-21T12:48:51Z</time>
      </trkpt>
      <trkpt lat="59.8003706" lon="17.5487637">
        <ele>23.6896</ele>
        <time>2013-04-21T12:48:52Z</time>
      </trkpt>
      <trkpt lat="59.8003333" lon="17.5488882">
        <ele>23.6896</ele>
        <time>2013-04-21T12:48:53Z</time>
      </trkpt>
      <trkpt lat="59.8002971" lon="17.5490147">
        <ele>23.6896</ele>
        <time>2013-04-21T12:48:54Z</time>
      </trkpt>
      <trkpt lat="59.8002597" lon="17.5491395">
        <ele>23.6896</ele>
        <time>2013-04-21T12:48:55Z</time>
      </trkpt>
      <trkpt lat="59.8002214" lon="17.5492638">
        <ele>23.6896</ele>
        <time>2013-04-21T12:48:56Z</time>
      </trkpt>
      <trkpt lat="59.8001844" lon="17.5493901">
        <ele>23.6896</ele>
        <time>2013-04-21T12:48:57Z</time>
      </trkpt>
      <trkpt lat="59.8001481" lon="17.5495176">
        <ele>23.6896</ele>
        <time>2013-04-21T12:48:58Z</time>
      </trkpt>
      <trkpt lat="59.8001114" lon="17.5496452">
        <ele>23.6896</ele>
        <time>2013-04-21T12:48:59Z</time>
      </trkpt>
      <trkpt lat="59.8000736" lon="17.549773">
        <ele>23.209</ele>
        <time>2013-04-21T12:49:00Z</time>
      </trkpt>
      <trkpt lat="59.8000359" lon="17.5499018">
        <ele>23.209</ele>
        <time>2013-04-21T12:49:01Z</time>
      </trkpt>
      <trkpt lat="59.7999988" lon="17.5500326">
        <ele>23.209</ele>
        <time>2013-04-21T12:49:02Z</time>
      </trkpt>
      <trkpt lat="59.7999609" lon="17.5501631">
        <ele>23.209</ele>
        <time>2013-04-21T12:49:03Z</time>
      </trkpt>
      <trkpt lat="59.7999231" lon="17.5502936">
        <ele>23.209</ele>
        <time>2013-04-21T12:49:04Z</time>
      </trkpt>
      <trkpt lat="59.7998865" lon="17.5504248">
        <ele>23.209</ele>
        <time>2013-04-21T12:49:05Z</time>
      </trkpt>
      <trkpt lat="59.7998502" lon="17.5505537">
        <ele>23.209</ele>
        <time>2013-04-21T12:49:06Z</time>
      </trkpt>
      <trkpt lat="59.799813" lon="17.550681">
        <ele>23.209</ele>
        <time>2013-04-21T12:49:07Z</time>
      </trkpt>
      <trkpt lat="59.7997761" lon="17.5508085">
        <ele>23.209</ele>
        <time>2013-04-21T12:49:08Z</time>
      </trkpt>
      <trkpt lat="59.7997393" lon="17.5509357">
        <ele>23.209</ele>
        <time>2013-04-21T12:49:09Z</time>
      </trkpt>
      <trkpt lat="59.7997034" lon="17.5510604">
        <ele>23.209</ele>
        <time>2013-04-21T12:49:10Z</time>
      </trkpt>
      <trkpt lat="59.7996678" lon="17.551181">
        <ele>23.6896</ele>
        <time>2013-04-21T12:49:11Z</time>
      </trkpt>
      <trkpt lat="59.7996326" lon="17.5512999">
        <ele>23.6896</ele>
        <time>2013-04-21T12:49:12Z</time>
      </trkpt>
      <trkpt lat="59.7995979" lon="17.5514197">
        <ele>23.6896</ele>
        <time>2013-04-21T12:49:13Z</time>
      </trkpt>
      <trkpt lat="59.7995635" lon="17.5515388">
        <ele>23.6896</ele>
        <time>2013-04-21T12:49:14Z</time>
      </trkpt>
      <trkpt lat="59.7995286" lon="17.5516578">
        <ele>24.1703</ele>
        <time>2013-04-21T12:49:15Z</time>
      </trkpt>
      <trkpt lat="59.7994944" lon="17.5517775">
        <ele>24.1703</ele>
        <time>2013-04-21T12:49:16Z</time>
      </trkpt>
      <trkpt lat="59.7994599" lon="17.5518969">
        <ele>24.1703</ele>
        <time>2013-04-21T12:49:17Z</time>
      </trkpt>
      <trkpt lat="59.799425" lon="17.5520159">
        <ele>24.1703</ele>
        <time>2013-04-21T12:49:18Z</time>
      </trkpt>
      <trkpt lat="59.7993913" lon="17.552135">
        <ele>24.1703</ele>
        <time>2013-04-21T12:49:19Z</time>
      </trkpt>
      <trkpt lat="59.7993581" lon="17.5522521">
        <ele>24.1703</ele>
        <time>2013-04-21T12:49:20Z</time>
      </trkpt>
      <trkpt lat="59.799324" lon="17.552368">
        <ele>24.1703</ele>
        <time>2013-04-21T12:49:21Z</time>
      </trkpt>
      <trkpt lat="59.7992905" lon="17.5524846">
        <ele>24.651</ele>
        <time>2013-04-21T12:49:22Z</time>
      </trkpt>
      <trkpt lat="59.7992581" lon="17.5526015">
        <ele>24.651</ele>
        <time>2013-04-21T12:49:23Z</time>
      </trkpt>
      <trkpt lat="59.7992258" lon="17.5527163">
        <ele>24.651</ele>
        <time>2013-04-21T12:49:24Z</time>
      </trkpt>
      <trkpt lat="59.7991933" lon="17.5528309">
        <ele>24.651</ele>
        <time>2013-04-21T12:49:25Z</time>
      </trkpt>
      <trkpt lat="59.7991618" lon="17.5529458">
        <ele>24.651</ele>
        <time>2013-04-21T12:49:26Z</time>
      </trkpt>
      <trkpt lat="59.7991301" lon="17.5530596">
        <ele>24.651</ele>
        <time>2013-04-21T12:49:27Z</time>
      </trkpt>
      <trkpt lat="59.7990991" lon="17.5531743">
        <ele>25.1317</ele>
        <time>2013-04-21T12:49:28Z</time>
      </trkpt>
      <trkpt lat="59.7990701" lon="17.5532899">
        <ele>25.1317</ele>
        <time>2013-04-21T12:49:29Z</time>
      </trkpt>
      <trkpt lat="59.799041" lon="17.5534053">
        <ele>25.1317</ele>
        <time>2013-04-21T12:49:30Z</time>
      </trkpt>
      <trkpt lat="59.799012" lon="17.5535211">
        <ele>25.1317</ele>
        <time>2013-04-21T12:49:31Z</time>
      </trkpt>
      <trkpt lat="59.7989852" lon="17.5536369">
        <ele>25.1317</ele>
        <time>2013-04-21T12:49:32Z</time>
      </trkpt>
      <trkpt lat="59.7989605" lon="17.5537522">
        <ele>25.1317</ele>
        <time>2013-04-21T12:49:33Z</time>
      </trkpt>
      <trkpt lat="59.7989368" lon="17.5538659">
        <ele>25.6123</ele>
        <time>2013-04-21T12:49:34Z</time>
      </trkpt>
      <trkpt lat="59.7989135" lon="17.5539783">
        <ele>25.6123</ele>
        <time>2013-04-21T12:49:35Z</time>
      </trkpt>
      <trkpt lat="59.7988904" lon="17.5540897">
        <ele>25.6123</ele>
        <time>2013-04-21T12:49:36Z</time>
      </trkpt>
      <trkpt lat="59.7988669" lon="17.5541994">
        <ele>25.6123</ele>
        <time>2013-04-21T12:49:37Z</time>
      </trkpt>
      <trkpt lat="59.7988452" lon="17.5543075">
        <ele>25.6123</ele>
        <time>2013-04-21T12:49:38Z</time>
      </trkpt>
      <trkpt lat="59.7988245" lon="17.5544163">
        <ele>26.0929</ele>
        <time>2013-04-21T12:49:39Z</time>
      </trkpt>
      <trkpt lat="59.7988032" lon="17.5545226">
        <ele>26.0929</ele>
        <time>2013-04-21T12:49:40Z</time>
      </trkpt>
      <trkpt lat="59.7987809" lon="17.5546268">
        <ele>26.0929</ele>
        <time>2013-04-21T12:49:41Z</time>
      </trkpt>
      <trkpt lat="59.7987586" lon="17.5547303">
        <ele>26.0929</ele>
        <time>2013-04-21T12:49:42Z</time>
      </trkpt>
      <trkpt lat="59.7987359" lon="17.5548327">
        <ele>26.0929</ele>
        <time>2013-04-21T12:49:43Z</time>
      </trkpt>
      <trkpt lat="59.7987135" lon="17.5549351">
        <ele>26.5736</ele>
        <time>2013-04-21T12:49:44Z</time>
      </trkpt>
      <trkpt lat="59.798692" lon="17.5550376">
        <ele>26.5736</ele>
        <time>2013-04-21T12:49:45Z</time>
      </trkpt>
      <trkpt lat="59.7986711" lon="17.5551396">
        <ele>26.5736</ele>
        <time>2013-04-21T12:49:46Z</time>
      </trkpt>
      <trkpt lat="59.7986505" lon="17.5552401">
        <ele>26.5736</ele>
        <time>2013-04-21T12:49:47Z</time>
      </trkpt>
      <trkpt lat="59.7986306" lon="17.5553406">
        <ele>27.0543</ele>
        <time>2013-04-21T12:49:48Z</time>
      </trkpt>
      <trkpt lat="59.7986104" lon="17.5554412">
        <ele>27.0543</ele>
        <time>2013-04-21T12:49:49Z</time>
      </trkpt>
      <trkpt lat="59.7985888" lon="17.5555425">
        <ele>27.0543</ele>
        <time>2013-04-21T12:49:50Z</time>
      </trkpt>
      <trkpt lat="59.7985669" lon="17.5556452">
        <ele>27.0543</ele>
        <time>2013-04-21T12:49:51Z</time>
      </trkpt>
      <trkpt lat="59.7985452" lon="17.5557497">
        <ele>27.0543</ele>
        <time>2013-04-21T12:49:52Z</time>
      </trkpt>
      <trkpt lat="59.7985241" lon="17.5558565">
        <ele>27.0543</ele>
        <time>2013-04-21T12:49:53Z</time>
      </trkpt>
      <trkpt lat="59.7985024" lon="17.5559649">
        <ele>27.0543</ele>
        <time>2013-04-21T12:49:54Z</time>
      </trkpt>
      <trkpt lat="59.7984798" lon="17.5560767">
        <ele>26.5736</ele>
        <time>2013-04-21T12:49:55Z</time>
      </trkpt>
      <trkpt lat="59.7984565" lon="17.5561901">
        <ele>26.5736</ele>
        <time>2013-04-21T12:49:56Z</time>
      </trkpt>
      <trkpt lat="59.7984327" lon="17.5563051">
        <ele>26.5736</ele>
        <time>2013-04-21T12:49:57Z</time>
      </trkpt>
      <trkpt lat="59.7984084" lon="17.5564232">
        <ele>26.0929</ele>
        <time>2013-04-21T12:49:58Z</time>
      </trkpt>
      <trkpt lat="59.7983833" lon="17.5565444">
        <ele>26.0929</ele>
        <time>2013-04-21T12:49:59Z</time>
      </trkpt>
      <trkpt lat="59.7983584" lon="17.5566689">
        <ele>26.0929</ele>
        <time>2013-04-21T12:50:00Z</time>
      </trkpt>
      <trkpt lat="59.7983328" lon="17.5567939">
        <ele>25.6123</ele>
        <time>2013-04-21T12:50:01Z</time>
      </trkpt>
      <trkpt lat="59.7983069" lon="17.55692">
        <ele>25.6123</ele>
        <time>2013-04-21T12:50:02Z</time>
      </trkpt>
      <trkpt lat="59.798281" lon="17.5570481">
        <ele>25.6123</ele>
        <time>2013-04-21T12:50:03Z</time>
      </trkpt>
      <trkpt lat="59.7982545" lon="17.5571769">
        <ele>25.6123</ele>
        <time>2013-04-21T12:50:04Z</time>
      </trkpt>
      <trkpt lat="59.7982278" lon="17.5573064">
        <ele>25.1317</ele>
        <time>2013-04-21T12:50:05Z</time>
      </trkpt>
      <trkpt lat="59.7982006" lon="17.5574365">
        <ele>25.1317</ele>
        <time>2013-04-21T12:50:06Z</time>
      </trkpt>
      <trkpt lat="59.7981737" lon="17.5575665">
        <ele>25.1317</ele>
        <time>2013-04-21T12:50:07Z</time>
      </trkpt>
      <trkpt lat="59.7981465" lon="17.5576981">
        <ele>25.1317</ele>
        <time>2013-04-21T12:50:08Z</time>
      </trkpt>
      <trkpt lat="59.7981193" lon="17.5578316">
        <ele>25.1317</ele>
        <time>2013-04-21T12:50:09Z</time>
      </trkpt>
      <trkpt lat="59.7980913" lon="17.5579653">
        <ele>25.1317</ele>
        <time>2013-04-21T12:50:10Z</time>
      </trkpt>
      <trkpt lat="59.7980625" lon="17.5580964">
        <ele>25.1317</ele>
        <time>2013-04-21T12:50:11Z</time>
      </trkpt>
      <trkpt lat="59.7980351" lon="17.5582238">
        <ele>25.6123</ele>
        <time>2013-04-21T12:50:12Z</time>
      </trkpt>
      <trkpt lat="59.7980086" lon="17.5583488">
        <ele>25.6123</ele>
        <time>2013-04-21T12:50:13Z</time>
      </trkpt>
      <trkpt lat="59.7979825" lon="17.5584728">
        <ele>25.6123</ele>
        <time>2013-04-21T12:50:14Z</time>
      </trkpt>
      <trkpt lat="59.7979569" lon="17.5585973">
        <ele>25.6123</ele>
        <time>2013-04-21T12:50:15Z</time>
      </trkpt>
      <trkpt lat="59.7979305" lon="17.5587237">
        <ele>25.6123</ele>
        <time>2013-04-21T12:50:16Z</time>
      </trkpt>
      <trkpt lat="59.797904" lon="17.5588528">
        <ele>25.6123</ele>
        <time>2013-04-21T12:50:17Z</time>
      </trkpt>
      <trkpt lat="59.7978797" lon="17.5589818">
        <ele>25.6123</ele>
        <time>2013-04-21T12:50:18Z</time>
      </trkpt>
      <trkpt lat="59.7978582" lon="17.5591105">
        <ele>25.6123</ele>
        <time>2013-04-21T12:50:19Z</time>
      </trkpt>
      <trkpt lat="59.7978389" lon="17.5592371">
        <ele>25.6123</ele>
        <time>2013-04-21T12:50:20Z</time>
      </trkpt>
      <trkpt lat="59.7978204" lon="17.5593605">
        <ele>25.6123</ele>
        <time>2013-04-21T12:50:21Z</time>
      </trkpt>
      <trkpt lat="59.7977995" lon="17.5594821">
        <ele>25.6123</ele>
        <time>2013-04-21T12:50:22Z</time>
      </trkpt>
      <trkpt lat="59.7977775" lon="17.5596033">
        <ele>25.6123</ele>
        <time>2013-04-21T12:50:23Z</time>
      </trkpt>
      <trkpt lat="59.7977553" lon="17.5597254">
        <ele>25.6123</ele>
        <time>2013-04-21T12:50:24Z</time>
      </trkpt>
      <trkpt lat="59.7977331" lon="17.5598481">
        <ele>25.6123</ele>
        <time>2013-04-21T12:50:25Z</time>
      </trkpt>
      <trkpt lat="59.7977102" lon="17.5599702">
        <ele>25.6123</ele>
        <time>2013-04-21T12:50:26Z</time>
      </trkpt>
      <trkpt lat="59.7976866" lon="17.5600911">
        <ele>25.6123</ele>
        <time>2013-04-21T12:50:27Z</time>
      </trkpt>
      <trkpt lat="59.7976626" lon="17.5602114">
        <ele>25.6123</ele>
        <time>2013-04-21T12:50:28Z</time>
      </trkpt>
      <trkpt lat="59.7976389" lon="17.5603316">
        <ele>25.6123</ele>
        <time>2013-04-21T12:50:29Z</time>
      </trkpt>
      <trkpt lat="59.7976149" lon="17.5604512">
        <ele>25.6123</ele>
        <time>2013-04-21T12:50:30Z</time>
      </trkpt>
      <trkpt lat="59.7975904" lon="17.560571">
        <ele>26.0929</ele>
        <time>2013-04-21T12:50:31Z</time>
      </trkpt>
      <trkpt lat="59.7975673" lon="17.5606922">
        <ele>25.6123</ele>
        <time>2013-04-21T12:50:32Z</time>
      </trkpt>
      <trkpt lat="59.7975453" lon="17.5608128">
        <ele>25.6123</ele>
        <time>2013-04-21T12:50:33Z</time>
      </trkpt>
      <trkpt lat="59.7975238" lon="17.5609314">
        <ele>25.6123</ele>
        <time>2013-04-21T12:50:34Z</time>
      </trkpt>
      <trkpt lat="59.7975027" lon="17.5610469">
        <ele>25.6123</ele>
        <time>2013-04-21T12:50:35Z</time>
      </trkpt>
      <trkpt lat="59.7974823" lon="17.5611599">
        <ele>25.6123</ele>
        <time>2013-04-21T12:50:36Z</time>
      </trkpt>
      <trkpt lat="59.7974617" lon="17.5612743">
        <ele>25.6123</ele>
        <time>2013-04-21T12:50:37Z</time>
      </trkpt>
      <trkpt lat="59.7974413" lon="17.5613911">
        <ele>25.6123</ele>
        <time>2013-04-21T12:50:38Z</time>
      </trkpt>
      <trkpt lat="59.7974216" lon="17.5615096">
        <ele>25.1317</ele>
        <time>2013-04-21T12:50:39Z</time>
      </trkpt>
      <trkpt lat="59.7974021" lon="17.561629">
        <ele>25.1317</ele>
        <time>2013-04-21T12:50:40Z</time>
      </trkpt>
      <trkpt lat="59.7973823" lon="17.5617505">
        <ele>25.1317</ele>
        <time>2013-04-21T12:50:41Z</time>
      </trkpt>
      <trkpt lat="59.7973625" lon="17.561874">
        <ele>24.651</ele>
        <time>2013-04-21T12:50:42Z</time>
      </trkpt>
      <trkpt lat="59.7973441" lon="17.5619986">
        <ele>24.651</ele>
        <time>2013-04-21T12:50:43Z</time>
      </trkpt>
      <trkpt lat="59.7973264" lon="17.5621239">
        <ele>24.651</ele>
        <time>2013-04-21T12:50:44Z</time>
      </trkpt>
      <trkpt lat="59.7973094" lon="17.5622504">
        <ele>24.1703</ele>
        <time>2013-04-21T12:50:45Z</time>
      </trkpt>
      <trkpt lat="59.7972938" lon="17.5623796">
        <ele>24.1703</ele>
        <time>2013-04-21T12:50:46Z</time>
      </trkpt>
      <trkpt lat="59.7972788" lon="17.5625097">
        <ele>24.1703</ele>
        <time>2013-04-21T12:50:47Z</time>
      </trkpt>
      <trkpt lat="59.7972639" lon="17.5626397">
        <ele>23.6896</ele>
        <time>2013-04-21T12:50:48Z</time>
      </trkpt>
      <trkpt lat="59.7972502" lon="17.5627699">
        <ele>23.6896</ele>
        <time>2013-04-21T12:50:49Z</time>
      </trkpt>
      <trkpt lat="59.7972368" lon="17.5629004">
        <ele>23.6896</ele>
        <time>2013-04-21T12:50:50Z</time>
      </trkpt>
      <trkpt lat="59.7972227" lon="17.5630303">
        <ele>23.6896</ele>
        <time>2013-04-21T12:50:51Z</time>
      </trkpt>
      <trkpt lat="59.7972073" lon="17.5631611">
        <ele>23.6896</ele>
        <time>2013-04-21T12:50:52Z</time>
      </trkpt>
      <trkpt lat="59.7971912" lon="17.56329">
        <ele>23.6896</ele>
        <time>2013-04-21T12:50:53Z</time>
      </trkpt>
      <trkpt lat="59.7971752" lon="17.5634125">
        <ele>23.6896</ele>
        <time>2013-04-21T12:50:54Z</time>
      </trkpt>
      <trkpt lat="59.7971571" lon="17.5635299">
        <ele>23.6896</ele>
        <time>2013-04-21T12:50:55Z</time>
      </trkpt>
      <trkpt lat="59.797137" lon="17.5636425">
        <ele>23.6896</ele>
        <time>2013-04-21T12:50:56Z</time>
      </trkpt>
      <trkpt lat="59.7971172" lon="17.5637514">
        <ele>23.6896</ele>
        <time>2013-04-21T12:50:57Z</time>
      </trkpt>
      <trkpt lat="59.7970975" lon="17.5638611">
        <ele>23.6896</ele>
        <time>2013-04-21T12:50:58Z</time>
      </trkpt>
      <trkpt lat="59.7970768" lon="17.5639722">
        <ele>23.6896</ele>
        <time>2013-04-21T12:50:59Z</time>
      </trkpt>
      <trkpt lat="59.7970535" lon="17.5640856">
        <ele>23.6896</ele>
        <time>2013-04-21T12:51:00Z</time>
      </trkpt>
      <trkpt lat="59.7970295" lon="17.5641996">
        <ele>23.6896</ele>
        <time>2013-04-21T12:51:01Z</time>
      </trkpt>
      <trkpt lat="59.7970046" lon="17.5643126">
        <ele>23.209</ele>
        <time>2013-04-21T12:51:02Z</time>
      </trkpt>
      <trkpt lat="59.7969794" lon="17.5644265">
        <ele>23.209</ele>
        <time>2013-04-21T12:51:03Z</time>
      </trkpt>
      <trkpt lat="59.7969541" lon="17.5645423">
        <ele>23.209</ele>
        <time>2013-04-21T12:51:04Z</time>
      </trkpt>
      <trkpt lat="59.7969281" lon="17.5646581">
        <ele>23.209</ele>
        <time>2013-04-21T12:51:05Z</time>
      </trkpt>
      <trkpt lat="59.796901" lon="17.5647725">
        <ele>23.209</ele>
        <time>2013-04-21T12:51:06Z</time>
      </trkpt>
      <trkpt lat="59.7968735" lon="17.5648865">
        <ele>23.209</ele>
        <time>2013-04-21T12:51:07Z</time>
      </trkpt>
      <trkpt lat="59.7968465" lon="17.5650024">
        <ele>23.209</ele>
        <time>2013-04-21T12:51:08Z</time>
      </trkpt>
      <trkpt lat="59.7968198" lon="17.565118">
        <ele>23.209</ele>
        <time>2013-04-21T12:51:09Z</time>
      </trkpt>
      <trkpt lat="59.7967929" lon="17.5652325">
        <ele>23.209</ele>
        <time>2013-04-21T12:51:10Z</time>
      </trkpt>
      <trkpt lat="59.7967653" lon="17.5653475">
        <ele>23.209</ele>
        <time>2013-04-21T12:51:11Z</time>
      </trkpt>
      <trkpt lat="59.7967372" lon="17.5654623">
        <ele>23.209</ele>
        <time>2013-04-21T12:51:12Z</time>
      </trkpt>
      <trkpt lat="59.796709" lon="17.5655771">
        <ele>23.209</ele>
        <time>2013-04-21T12:51:13Z</time>
      </trkpt>
      <trkpt lat="59.7966826" lon="17.5656904">
        <ele>23.6896</ele>
        <time>2013-04-21T12:51:14Z</time>
      </trkpt>
      <trkpt lat="59.7966556" lon="17.5658031">
        <ele>23.6896</ele>
        <time>2013-04-21T12:51:15Z</time>
      </trkpt>
      <trkpt lat="59.7966282" lon="17.5659138">
        <ele>23.6896</ele>
        <time>2013-04-21T12:51:16Z</time>
      </trkpt>
      <trkpt lat="59.7966012" lon="17.5660236">
        <ele>24.1703</ele>
        <time>2013-04-21T12:51:17Z</time>
      </trkpt>
      <trkpt lat="59.7965763" lon="17.5661313">
        <ele>24.1703</ele>
        <time>2013-04-21T12:51:18Z</time>
      </trkpt>
      <trkpt lat="59.7965525" lon="17.566238">
        <ele>24.1703</ele>
        <time>2013-04-21T12:51:19Z</time>
      </trkpt>
      <trkpt lat="59.7965277" lon="17.5663488">
        <ele>24.1703</ele>
        <time>2013-04-21T12:51:20Z</time>
      </trkpt>
      <trkpt lat="59.7965018" lon="17.5664631">
        <ele>24.1703</ele>
        <time>2013-04-21T12:51:21Z</time>
      </trkpt>
      <trkpt lat="59.7964759" lon="17.5665807">
        <ele>23.6896</ele>
        <time>2013-04-21T12:51:22Z</time>
      </trkpt>
      <trkpt lat="59.7964506" lon="17.5667012">
        <ele>23.6896</ele>
        <time>2013-04-21T12:51:23Z</time>
      </trkpt>
      <trkpt lat="59.7964267" lon="17.5668238">
        <ele>23.6896</ele>
        <time>2013-04-21T12:51:24Z</time>
      </trkpt>
      <trkpt lat="59.7964027" lon="17.5669481">
        <ele>23.6896</ele>
        <time>2013-04-21T12:51:25Z</time>
      </trkpt>
      <trkpt lat="59.7963774" lon="17.5670704">
        <ele>23.6896</ele>
        <time>2013-04-21T12:51:26Z</time>
      </trkpt>
      <trkpt lat="59.7963518" lon="17.567193">
        <ele>23.6896</ele>
        <time>2013-04-21T12:51:27Z</time>
      </trkpt>
      <trkpt lat="59.7963259" lon="17.5673154">
        <ele>23.6896</ele>
        <time>2013-04-21T12:51:28Z</time>
      </trkpt>
      <trkpt lat="59.7962992" lon="17.5674372">
        <ele>23.6896</ele>
        <time>2013-04-21T12:51:29Z</time>
      </trkpt>
      <trkpt lat="59.7962712" lon="17.5675615">
        <ele>23.6896</ele>
        <time>2013-04-21T12:51:30Z</time>
      </trkpt>
      <trkpt lat="59.7962425" lon="17.5676868">
        <ele>23.6896</ele>
        <time>2013-04-21T12:51:31Z</time>
      </trkpt>
      <trkpt lat="59.7962132" lon="17.5678143">
        <ele>23.6896</ele>
        <time>2013-04-21T12:51:32Z</time>
      </trkpt>
      <trkpt lat="59.7961819" lon="17.5679441">
        <ele>23.6896</ele>
        <time>2013-04-21T12:51:33Z</time>
      </trkpt>
      <trkpt lat="59.7961494" lon="17.5680753">
        <ele>23.6896</ele>
        <time>2013-04-21T12:51:34Z</time>
      </trkpt>
      <trkpt lat="59.7961169" lon="17.5682068">
        <ele>23.6896</ele>
        <time>2013-04-21T12:51:35Z</time>
      </trkpt>
      <trkpt lat="59.7960842" lon="17.5683396">
        <ele>23.6896</ele>
        <time>2013-04-21T12:51:36Z</time>
      </trkpt>
      <trkpt lat="59.7960516" lon="17.568473">
        <ele>23.6896</ele>
        <time>2013-04-21T12:51:37Z</time>
      </trkpt>
      <trkpt lat="59.7960195" lon="17.5686045">
        <ele>23.6896</ele>
        <time>2013-04-21T12:51:38Z</time>
      </trkpt>
      <trkpt lat="59.7959885" lon="17.568734">
        <ele>23.6896</ele>
        <time>2013-04-21T12:51:39Z</time>
      </trkpt>
      <trkpt lat="59.7959583" lon="17.5688589">
        <ele>23.6896</ele>
        <time>2013-04-21T12:51:40Z</time>
      </trkpt>
      <trkpt lat="59.7959287" lon="17.5689813">
        <ele>23.6896</ele>
        <time>2013-04-21T12:51:41Z</time>
      </trkpt>
      <trkpt lat="59.7958998" lon="17.5691015">
        <ele>23.6896</ele>
        <time>2013-04-21T12:51:42Z</time>
      </trkpt>
      <trkpt lat="59.7958708" lon="17.5692186">
        <ele>23.6896</ele>
        <time>2013-04-21T12:51:43Z</time>
      </trkpt>
      <trkpt lat="59.7958413" lon="17.5693351">
        <ele>23.6896</ele>
        <time>2013-04-21T12:51:44Z</time>
      </trkpt>
      <trkpt lat="59.7958123" lon="17.5694522">
        <ele>24.1703</ele>
        <time>2013-04-21T12:51:45Z</time>
      </trkpt>
      <trkpt lat="59.7957837" lon="17.5695691">
        <ele>24.1703</ele>
        <time>2013-04-21T12:51:46Z</time>
      </trkpt>
      <trkpt lat="59.7957549" lon="17.5696856">
        <ele>24.1703</ele>
        <time>2013-04-21T12:51:47Z</time>
      </trkpt>
      <trkpt lat="59.7957257" lon="17.5698024">
        <ele>24.1703</ele>
        <time>2013-04-21T12:51:48Z</time>
      </trkpt>
      <trkpt lat="59.795696" lon="17.5699205">
        <ele>24.1703</ele>
        <time>2013-04-21T12:51:49Z</time>
      </trkpt>
      <trkpt lat="59.7956666" lon="17.5700396">
        <ele>24.1703</ele>
        <time>2013-04-21T12:51:50Z</time>
      </trkpt>
      <trkpt lat="59.7956363" lon="17.5701577">
        <ele>24.1703</ele>
        <time>2013-04-21T12:51:51Z</time>
      </trkpt>
      <trkpt lat="59.7956056" lon="17.5702754">
        <ele>24.1703</ele>
        <time>2013-04-21T12:51:52Z</time>
      </trkpt>
      <trkpt lat="59.7955755" lon="17.5703898">
        <ele>24.1703</ele>
        <time>2013-04-21T12:51:53Z</time>
      </trkpt>
      <trkpt lat="59.795545" lon="17.5705033">
        <ele>24.1703</ele>
        <time>2013-04-21T12:51:54Z</time>
      </trkpt>
      <trkpt lat="59.795514" lon="17.5706217">
        <ele>24.651</ele>
        <time>2013-04-21T12:51:55Z</time>
      </trkpt>
      <trkpt lat="59.7954828" lon="17.5707411">
        <ele>24.651</ele>
        <time>2013-04-21T12:51:56Z</time>
      </trkpt>
      <trkpt lat="59.7954508" lon="17.5708621">
        <ele>24.651</ele>
        <time>2013-04-21T12:51:57Z</time>
      </trkpt>
      <trkpt lat="59.7954182" lon="17.5709856">
        <ele>24.651</ele>
        <time>2013-04-21T12:51:58Z</time>
      </trkpt>
      <trkpt lat="59.7953837" lon="17.5711145">
        <ele>24.651</ele>
        <time>2013-04-21T12:51:59Z</time>
      </trkpt>
      <trkpt lat="59.7953477" lon="17.5712466">
        <ele>24.651</ele>
        <time>2013-04-21T12:52:00Z</time>
      </trkpt>
      <trkpt lat="59.7953119" lon="17.5713782">
        <ele>24.651</ele>
        <time>2013-04-21T12:52:01Z</time>
      </trkpt>
      <trkpt lat="59.7952771" lon="17.571507">
        <ele>24.651</ele>
        <time>2013-04-21T12:52:02Z</time>
      </trkpt>
      <trkpt lat="59.7952424" lon="17.5716341">
        <ele>24.651</ele>
        <time>2013-04-21T12:52:03Z</time>
      </trkpt>
      <trkpt lat="59.7952083" lon="17.5717606">
        <ele>24.651</ele>
        <time>2013-04-21T12:52:04Z</time>
      </trkpt>
      <trkpt lat="59.7951766" lon="17.5718882">
        <ele>24.651</ele>
        <time>2013-04-21T12:52:05Z</time>
      </trkpt>
      <trkpt lat="59.7951461" lon="17.5720157">
        <ele>24.1703</ele>
        <time>2013-04-21T12:52:06Z</time>
      </trkpt>
      <trkpt lat="59.7951164" lon="17.5721443">
        <ele>24.1703</ele>
        <time>2013-04-21T12:52:07Z</time>
      </trkpt>
      <trkpt lat="59.795089" lon="17.5722759">
        <ele>24.1703</ele>
        <time>2013-04-21T12:52:08Z</time>
      </trkpt>
      <trkpt lat="59.7950623" lon="17.5724093">
        <ele>24.1703</ele>
        <time>2013-04-21T12:52:09Z</time>
      </trkpt>
      <trkpt lat="59.7950357" lon="17.5725428">
        <ele>24.1703</ele>
        <time>2013-04-21T12:52:10Z</time>
      </trkpt>
      <trkpt lat="59.7950099" lon="17.5726768">
        <ele>23.6896</ele>
        <time>2013-04-21T12:52:11Z</time>
      </trkpt>
      <trkpt lat="59.7949845" lon="17.57281">
        <ele>23.6896</ele>
        <time>2013-04-21T12:52:12Z</time>
      </trkpt>
      <trkpt lat="59.7949595" lon="17.5729426">
        <ele>23.6896</ele>
        <time>2013-04-21T12:52:13Z</time>
      </trkpt>
      <trkpt lat="59.7949338" lon="17.5730739">
        <ele>23.6896</ele>
        <time>2013-04-21T12:52:14Z</time>
      </trkpt>
      <trkpt lat="59.7949064" lon="17.5732031">
        <ele>23.6896</ele>
        <time>2013-04-21T12:52:15Z</time>
      </trkpt>
      <trkpt lat="59.7948762" lon="17.5733301">
        <ele>23.6896</ele>
        <time>2013-04-21T12:52:16Z</time>
      </trkpt>
      <trkpt lat="59.7948445" lon="17.5734555">
        <ele>23.209</ele>
        <time>2013-04-21T12:52:17Z</time>
      </trkpt>
      <trkpt lat="59.7948098" lon="17.5735772">
        <ele>23.209</ele>
        <time>2013-04-21T12:52:18Z</time>
      </trkpt>
      <trkpt lat="59.7947726" lon="17.5736947">
        <ele>23.209</ele>
        <time>2013-04-21T12:52:19Z</time>
      </trkpt>
      <trkpt lat="59.7947327" lon="17.5738082">
        <ele>23.209</ele>
        <time>2013-04-21T12:52:20Z</time>
      </trkpt>
      <trkpt lat="59.7946898" lon="17.5739159">
        <ele>23.209</ele>
        <time>2013-04-21T12:52:21Z</time>
      </trkpt>
      <trkpt lat="59.7946437" lon="17.5740225">
        <ele>23.209</ele>
        <time>2013-04-21T12:52:22Z</time>
      </trkpt>
      <trkpt lat="59.7945974" lon="17.5741251">
        <ele>23.209</ele>
        <time>2013-04-21T12:52:23Z</time>
      </trkpt>
      <trkpt lat="59.7945516" lon="17.5742224">
        <ele>23.209</ele>
        <time>2013-04-21T12:52:24Z</time>
      </trkpt>
      <trkpt lat="59.7945067" lon="17.5743166">
        <ele>23.6896</ele>
        <time>2013-04-21T12:52:25Z</time>
      </trkpt>
      <trkpt lat="59.7944625" lon="17.5744111">
        <ele>23.6896</ele>
        <time>2013-04-21T12:52:26Z</time>
      </trkpt>
      <trkpt lat="59.7944195" lon="17.5745028">
        <ele>23.6896</ele>
        <time>2013-04-21T12:52:27Z</time>
      </trkpt>
      <trkpt lat="59.7943779" lon="17.5745909">
        <ele>23.6896</ele>
        <time>2013-04-21T12:52:28Z</time>
      </trkpt>
      <trkpt lat="59.7943375" lon="17.5746774">
        <ele>23.6896</ele>
        <time>2013-04-21T12:52:29Z</time>
      </trkpt>
      <trkpt lat="59.794299" lon="17.5747634">
        <ele>23.6896</ele>
        <time>2013-04-21T12:52:30Z</time>
      </trkpt>
      <trkpt lat="59.7942607" lon="17.5748482">
        <ele>23.6896</ele>
        <time>2013-04-21T12:52:31Z</time>
      </trkpt>
      <trkpt lat="59.7942236" lon="17.5749285">
        <ele>23.6896</ele>
        <time>2013-04-21T12:52:32Z</time>
      </trkpt>
      <trkpt lat="59.7941889" lon="17.5750099">
        <ele>23.6896</ele>
        <time>2013-04-21T12:52:33Z</time>
      </trkpt>
      <trkpt lat="59.794154" lon="17.5750944">
        <ele>23.6896</ele>
        <time>2013-04-21T12:52:34Z</time>
      </trkpt>
      <trkpt lat="59.7941188" lon="17.5751803">
        <ele>23.6896</ele>
        <time>2013-04-21T12:52:35Z</time>
      </trkpt>
      <trkpt lat="59.7940835" lon="17.5752665">
        <ele>23.6896</ele>
        <time>2013-04-21T12:52:36Z</time>
      </trkpt>
      <trkpt lat="59.7940485" lon="17.5753528">
        <ele>23.6896</ele>
        <time>2013-04-21T12:52:37Z</time>
      </trkpt>
      <trkpt lat="59.7940142" lon="17.5754394">
        <ele>23.6896</ele>
        <time>2013-04-21T12:52:38Z</time>
      </trkpt>
      <trkpt lat="59.7939796" lon="17.5755311">
        <ele>23.6896</ele>
        <time>2013-04-21T12:52:39Z</time>
      </trkpt>
      <trkpt lat="59.7939449" lon="17.5756284">
        <ele>23.6896</ele>
        <time>2013-04-21T12:52:40Z</time>
      </trkpt>
      <trkpt lat="59.7939091" lon="17.5757212">
        <ele>23.6896</ele>
        <time>2013-04-21T12:52:41Z</time>
      </trkpt>
      <trkpt lat="59.7938753" lon="17.575807">
        <ele>24.1703</ele>
        <time>2013-04-21T12:52:42Z</time>
      </trkpt>
      <trkpt lat="59.7938444" lon="17.5758935">
        <ele>24.1703</ele>
        <time>2013-04-21T12:52:43Z</time>
      </trkpt>
      <trkpt lat="59.7938142" lon="17.5759784">
        <ele>24.1703</ele>
        <time>2013-04-21T12:52:44Z</time>
      </trkpt>
      <trkpt lat="59.7937843" lon="17.5760644">
        <ele>24.1703</ele>
        <time>2013-04-21T12:52:45Z</time>
      </trkpt>
      <trkpt lat="59.7937554" lon="17.5761526">
        <ele>24.1703</ele>
        <time>2013-04-21T12:52:46Z</time>
      </trkpt>
      <trkpt lat="59.7937272" lon="17.5762408">
        <ele>24.1703</ele>
        <time>2013-04-21T12:52:47Z</time>
      </trkpt>
      <trkpt lat="59.7936996" lon="17.5763328">
        <ele>24.1703</ele>
        <time>2013-04-21T12:52:48Z</time>
      </trkpt>
      <trkpt lat="59.7936739" lon="17.5764424">
        <ele>24.1703</ele>
        <time>2013-04-21T12:52:49Z</time>
      </trkpt>
      <trkpt lat="59.7936497" lon="17.5765521">
        <ele>24.651</ele>
        <time>2013-04-21T12:52:50Z</time>
      </trkpt>
      <trkpt lat="59.7936248" lon="17.5766463">
        <ele>24.651</ele>
        <time>2013-04-21T12:52:51Z</time>
      </trkpt>
      <trkpt lat="59.7936019" lon="17.5767361">
        <ele>24.651</ele>
        <time>2013-04-21T12:52:52Z</time>
      </trkpt>
      <trkpt lat="59.793581" lon="17.5768254">
        <ele>24.651</ele>
        <time>2013-04-21T12:52:53Z</time>
      </trkpt>
      <trkpt lat="59.7935604" lon="17.576913">
        <ele>25.1317</ele>
        <time>2013-04-21T12:52:54Z</time>
      </trkpt>
      <trkpt lat="59.7935402" lon="17.5769991">
        <ele>25.1317</ele>
        <time>2013-04-21T12:52:55Z</time>
      </trkpt>
      <trkpt lat="59.7935206" lon="17.577085">
        <ele>25.1317</ele>
        <time>2013-04-21T12:52:56Z</time>
      </trkpt>
      <trkpt lat="59.793502" lon="17.57717">
        <ele>25.1317</ele>
        <time>2013-04-21T12:52:57Z</time>
      </trkpt>
      <trkpt lat="59.7934843" lon="17.577256">
        <ele>25.1317</ele>
        <time>2013-04-21T12:52:58Z</time>
      </trkpt>
      <trkpt lat="59.7934669" lon="17.5773416">
        <ele>25.6123</ele>
        <time>2013-04-21T12:52:59Z</time>
      </trkpt>
      <trkpt lat="59.7934492" lon="17.5774255">
        <ele>25.6123</ele>
        <time>2013-04-21T12:53:00Z</time>
      </trkpt>
      <trkpt lat="59.7934316" lon="17.5775089">
        <ele>25.6123</ele>
        <time>2013-04-21T12:53:01Z</time>
      </trkpt>
      <trkpt lat="59.7934143" lon="17.5775931">
        <ele>25.6123</ele>
        <time>2013-04-21T12:53:02Z</time>
      </trkpt>
      <trkpt lat="59.7933971" lon="17.5776772">
        <ele>25.6123</ele>
        <time>2013-04-21T12:53:03Z</time>
      </trkpt>
      <trkpt lat="59.7933797" lon="17.5777627">
        <ele>25.6123</ele>
        <time>2013-04-21T12:53:04Z</time>
      </trkpt>
      <trkpt lat="59.7933621" lon="17.5778493">
        <ele>25.6123</ele>
        <time>2013-04-21T12:53:05Z</time>
      </trkpt>
      <trkpt lat="59.7933433" lon="17.5779378">
        <ele>25.6123</ele>
        <time>2013-04-21T12:53:06Z</time>
      </trkpt>
      <trkpt lat="59.793323" lon="17.578029">
        <ele>25.6123</ele>
        <time>2013-04-21T12:53:07Z</time>
      </trkpt>
      <trkpt lat="59.7933021" lon="17.5781231">
        <ele>25.6123</ele>
        <time>2013-04-21T12:53:08Z</time>
      </trkpt>
      <trkpt lat="59.7932809" lon="17.578218">
        <ele>25.6123</ele>
        <time>2013-04-21T12:53:09Z</time>
      </trkpt>
      <trkpt lat="59.7932588" lon="17.5783123">
        <ele>25.1317</ele>
        <time>2013-04-21T12:53:10Z</time>
      </trkpt>
      <trkpt lat="59.793235" lon="17.5784065">
        <ele>25.6123</ele>
        <time>2013-04-21T12:53:11Z</time>
      </trkpt>
      <trkpt lat="59.7932115" lon="17.5784985">
        <ele>25.1317</ele>
        <time>2013-04-21T12:53:12Z</time>
      </trkpt>
      <trkpt lat="59.7931886" lon="17.5785909">
        <ele>25.1317</ele>
        <time>2013-04-21T12:53:13Z</time>
      </trkpt>
      <trkpt lat="59.7931636" lon="17.5786852">
        <ele>25.1317</ele>
        <time>2013-04-21T12:53:14Z</time>
      </trkpt>
      <trkpt lat="59.7931368" lon="17.5787786">
        <ele>25.1317</ele>
        <time>2013-04-21T12:53:15Z</time>
      </trkpt>
      <trkpt lat="59.7931103" lon="17.5788723">
        <ele>25.1317</ele>
        <time>2013-04-21T12:53:16Z</time>
      </trkpt>
      <trkpt lat="59.7930842" lon="17.5789665">
        <ele>25.1317</ele>
        <time>2013-04-21T12:53:17Z</time>
      </trkpt>
      <trkpt lat="59.793058" lon="17.579063">
        <ele>25.6123</ele>
        <time>2013-04-21T12:53:18Z</time>
      </trkpt>
      <trkpt lat="59.7930319" lon="17.5791587">
        <ele>25.1317</ele>
        <time>2013-04-21T12:53:19Z</time>
      </trkpt>
      <trkpt lat="59.7930056" lon="17.5792554">
        <ele>25.1317</ele>
        <time>2013-04-21T12:53:20Z</time>
      </trkpt>
      <trkpt lat="59.7929772" lon="17.5793555">
        <ele>24.651</ele>
        <time>2013-04-21T12:53:21Z</time>
      </trkpt>
      <trkpt lat="59.7929451" lon="17.5794581">
        <ele>24.651</ele>
        <time>2013-04-21T12:53:22Z</time>
      </trkpt>
      <trkpt lat="59.7929063" lon="17.5795606">
        <ele>24.1703</ele>
        <time>2013-04-21T12:53:23Z</time>
      </trkpt>
      <trkpt lat="59.7928616" lon="17.5796539">
        <ele>24.1703</ele>
        <time>2013-04-21T12:53:24Z</time>
      </trkpt>
      <trkpt lat="59.7928093" lon="17.5797314">
        <ele>23.6896</ele>
        <time>2013-04-21T12:53:25Z</time>
      </trkpt>
      <trkpt lat="59.7927529" lon="17.5797822">
        <ele>23.6896</ele>
        <time>2013-04-21T12:53:26Z</time>
      </trkpt>
      <trkpt lat="59.7926937" lon="17.579814">
        <ele>23.6896</ele>
        <time>2013-04-21T12:53:27Z</time>
      </trkpt>
      <trkpt lat="59.7926327" lon="17.5798274">
        <ele>23.6896</ele>
        <time>2013-04-21T12:53:28Z</time>
      </trkpt>
      <trkpt lat="59.7925719" lon="17.5798304">
        <ele>23.6896</ele>
        <time>2013-04-21T12:53:29Z</time>
      </trkpt>
      <trkpt lat="59.7925105" lon="17.579825">
        <ele>23.209</ele>
        <time>2013-04-21T12:53:30Z</time>
      </trkpt>
      <trkpt lat="59.7924473" lon="17.579816">
        <ele>22.7283</ele>
        <time>2013-04-21T12:53:31Z</time>
      </trkpt>
      <trkpt lat="59.792381" lon="17.5798115">
        <ele>22.2476</ele>
        <time>2013-04-21T12:53:32Z</time>
      </trkpt>
      <trkpt lat="59.7923126" lon="17.5798212">
        <ele>21.2864</ele>
        <time>2013-04-21T12:53:33Z</time>
      </trkpt>
      <trkpt lat="59.7922409" lon="17.5798616">
        <ele>20.8057</ele>
        <time>2013-04-21T12:53:34Z</time>
      </trkpt>
      <trkpt lat="59.7921703" lon="17.5799376">
        <ele>19.8444</ele>
        <time>2013-04-21T12:53:35Z</time>
      </trkpt>
      <trkpt lat="59.7921042" lon="17.5800471">
        <ele>19.3638</ele>
        <time>2013-04-21T12:53:36Z</time>
      </trkpt>
      <trkpt lat="59.7920427" lon="17.5801855">
        <ele>18.8831</ele>
        <time>2013-04-21T12:53:37Z</time>
      </trkpt>
      <trkpt lat="59.791995" lon="17.5803354">
        <ele>18.4023</ele>
        <time>2013-04-21T12:53:38Z</time>
      </trkpt>
      <trkpt lat="59.7919596" lon="17.5805019">
        <ele>17.9218</ele>
        <time>2013-04-21T12:53:39Z</time>
      </trkpt>
      <trkpt lat="59.7919317" lon="17.5806729">
        <ele>18.4023</ele>
        <time>2013-04-21T12:53:40Z</time>
      </trkpt>
      <trkpt lat="59.7919074" lon="17.5808462">
        <ele>18.4023</ele>
        <time>2013-04-21T12:53:41Z</time>
      </trkpt>
      <trkpt lat="59.7918847" lon="17.5810178">
        <ele>18.4023</ele>
        <time>2013-04-21T12:53:42Z</time>
      </trkpt>
      <trkpt lat="59.791863" lon="17.5811889">
        <ele>18.4023</ele>
        <time>2013-04-21T12:53:43Z</time>
      </trkpt>
      <trkpt lat="59.7918423" lon="17.5813608">
        <ele>18.4023</ele>
        <time>2013-04-21T12:53:44Z</time>
      </trkpt>
      <trkpt lat="59.7918221" lon="17.5815348">
        <ele>17.9218</ele>
        <time>2013-04-21T12:53:45Z</time>
      </trkpt>
      <trkpt lat="59.7918029" lon="17.5817095">
        <ele>17.9218</ele>
        <time>2013-04-21T12:53:46Z</time>
      </trkpt>
      <trkpt lat="59.7917863" lon="17.581885">
        <ele>17.4412</ele>
        <time>2013-04-21T12:53:47Z</time>
      </trkpt>
      <trkpt lat="59.7917727" lon="17.5820599">
        <ele>17.4412</ele>
        <time>2013-04-21T12:53:48Z</time>
      </trkpt>
      <trkpt lat="59.791764" lon="17.582229">
        <ele>17.4412</ele>
        <time>2013-04-21T12:53:49Z</time>
      </trkpt>
      <trkpt lat="59.7917615" lon="17.5823921">
        <ele>17.4412</ele>
        <time>2013-04-21T12:53:50Z</time>
      </trkpt>
      <trkpt lat="59.7917651" lon="17.5825501">
        <ele>17.4412</ele>
        <time>2013-04-21T12:53:51Z</time>
      </trkpt>
      <trkpt lat="59.7917748" lon="17.5827054">
        <ele>17.4412</ele>
        <time>2013-04-21T12:53:52Z</time>
      </trkpt>
      <trkpt lat="59.791793" lon="17.5828532">
        <ele>17.4412</ele>
        <time>2013-04-21T12:53:53Z</time>
      </trkpt>
      <trkpt lat="59.7918227" lon="17.5829835">
        <ele>17.4412</ele>
        <time>2013-04-21T12:53:54Z</time>
      </trkpt>
      <trkpt lat="59.7918624" lon="17.5830949">
        <ele>17.9218</ele>
        <time>2013-04-21T12:53:55Z</time>
      </trkpt>
      <trkpt lat="59.7919063" lon="17.5831907">
        <ele>17.9218</ele>
        <time>2013-04-21T12:53:56Z</time>
      </trkpt>
      <trkpt lat="59.7919516" lon="17.5832715">
        <ele>18.4023</ele>
        <time>2013-04-21T12:53:57Z</time>
      </trkpt>
      <trkpt lat="59.7919988" lon="17.583339">
        <ele>18.8831</ele>
        <time>2013-04-21T12:53:58Z</time>
      </trkpt>
      <trkpt lat="59.7920477" lon="17.5833951">
        <ele>19.3638</ele>
        <time>2013-04-21T12:53:59Z</time>
      </trkpt>
      <trkpt lat="59.7920977" lon="17.5834427">
        <ele>19.3638</ele>
        <time>2013-04-21T12:54:00Z</time>
      </trkpt>
      <trkpt lat="59.7921484" lon="17.5834854">
        <ele>19.3638</ele>
        <time>2013-04-21T12:54:01Z</time>
      </trkpt>
      <trkpt lat="59.7921986" lon="17.5835253">
        <ele>19.8444</ele>
        <time>2013-04-21T12:54:02Z</time>
      </trkpt>
      <trkpt lat="59.7922477" lon="17.5835655">
        <ele>19.8444</ele>
        <time>2013-04-21T12:54:03Z</time>
      </trkpt>
      <trkpt lat="59.7922966" lon="17.5836048">
        <ele>19.8444</ele>
        <time>2013-04-21T12:54:04Z</time>
      </trkpt>
      <trkpt lat="59.7923456" lon="17.5836426">
        <ele>20.325</ele>
        <time>2013-04-21T12:54:05Z</time>
      </trkpt>
      <trkpt lat="59.792394" lon="17.5836815">
        <ele>20.325</ele>
        <time>2013-04-21T12:54:06Z</time>
      </trkpt>
      <trkpt lat="59.7924435" lon="17.5837199">
        <ele>20.325</ele>
        <time>2013-04-21T12:54:07Z</time>
      </trkpt>
      <trkpt lat="59.7924925" lon="17.5837581">
        <ele>20.325</ele>
        <time>2013-04-21T12:54:08Z</time>
      </trkpt>
      <trkpt lat="59.7925403" lon="17.5837994">
        <ele>20.8057</ele>
        <time>2013-04-21T12:54:09Z</time>
      </trkpt>
      <trkpt lat="59.7925882" lon="17.5838416">
        <ele>20.8057</ele>
        <time>2013-04-21T12:54:10Z</time>
      </trkpt>
      <trkpt lat="59.792636" lon="17.5838841">
        <ele>21.2864</ele>
        <time>2013-04-21T12:54:11Z</time>
      </trkpt>
      <trkpt lat="59.7926821" lon="17.5839297">
        <ele>21.2864</ele>
        <time>2013-04-21T12:54:12Z</time>
      </trkpt>
      <trkpt lat="59.7927281" lon="17.5839767">
        <ele>21.2864</ele>
        <time>2013-04-21T12:54:13Z</time>
      </trkpt>
      <trkpt lat="59.7927747" lon="17.5840244">
        <ele>21.2864</ele>
        <time>2013-04-21T12:54:14Z</time>
      </trkpt>
      <trkpt lat="59.7928207" lon="17.5840741">
        <ele>21.2864</ele>
        <time>2013-04-21T12:54:15Z</time>
      </trkpt>
      <trkpt lat="59.7928664" lon="17.584125">
        <ele>21.2864</ele>
        <time>2013-04-21T12:54:16Z</time>
      </trkpt>
      <trkpt lat="59.7929129" lon="17.584177">
        <ele>21.2864</ele>
        <time>2013-04-21T12:54:17Z</time>
      </trkpt>
      <trkpt lat="59.7929601" lon="17.5842299">
        <ele>21.2864</ele>
        <time>2013-04-21T12:54:18Z</time>
      </trkpt>
      <trkpt lat="59.7930079" lon="17.5842847">
        <ele>21.767</ele>
        <time>2013-04-21T12:54:19Z</time>
      </trkpt>
      <trkpt lat="59.7930544" lon="17.5843424">
        <ele>21.767</ele>
        <time>2013-04-21T12:54:20Z</time>
      </trkpt>
      <trkpt lat="59.7931004" lon="17.5844013">
        <ele>21.767</ele>
        <time>2013-04-21T12:54:21Z</time>
      </trkpt>
      <trkpt lat="59.7931461" lon="17.5844622">
        <ele>21.767</ele>
        <time>2013-04-21T12:54:22Z</time>
      </trkpt>
      <trkpt lat="59.7931926" lon="17.5845248">
        <ele>21.767</ele>
        <time>2013-04-21T12:54:23Z</time>
      </trkpt>
      <trkpt lat="59.7932393" lon="17.5845875">
        <ele>21.767</ele>
        <time>2013-04-21T12:54:24Z</time>
      </trkpt>
      <trkpt lat="59.7932859" lon="17.584652">
        <ele>21.767</ele>
        <time>2013-04-21T12:54:25Z</time>
      </trkpt>
      <trkpt lat="59.793332" lon="17.584718">
        <ele>22.2476</ele>
        <time>2013-04-21T12:54:26Z</time>
      </trkpt>
      <trkpt lat="59.7933776" lon="17.5847858">
        <ele>22.2476</ele>
        <time>2013-04-21T12:54:27Z</time>
      </trkpt>
      <trkpt lat="59.793423" lon="17.5848547">
        <ele>22.2476</ele>
        <time>2013-04-21T12:54:28Z</time>
      </trkpt>
      <trkpt lat="59.7934678" lon="17.5849247">
        <ele>22.7283</ele>
        <time>2013-04-21T12:54:29Z</time>
      </trkpt>
      <trkpt lat="59.7935118" lon="17.5849946">
        <ele>22.7283</ele>
        <time>2013-04-21T12:54:30Z</time>
      </trkpt>
      <trkpt lat="59.7935542" lon="17.5850631">
        <ele>23.209</ele>
        <time>2013-04-21T12:54:31Z</time>
      </trkpt>
      <trkpt lat="59.7935961" lon="17.5851312">
        <ele>23.209</ele>
        <time>2013-04-21T12:54:32Z</time>
      </trkpt>
      <trkpt lat="59.7936371" lon="17.5851972">
        <ele>23.6896</ele>
        <time>2013-04-21T12:54:33Z</time>
      </trkpt>
      <trkpt lat="59.7936776" lon="17.5852617">
        <ele>23.6896</ele>
        <time>2013-04-21T12:54:34Z</time>
      </trkpt>
      <trkpt lat="59.7937178" lon="17.5853255">
        <ele>24.1703</ele>
        <time>2013-04-21T12:54:35Z</time>
      </trkpt>
      <trkpt lat="59.7937554" lon="17.5853907">
        <ele>24.1703</ele>
        <time>2013-04-21T12:54:36Z</time>
      </trkpt>
      <trkpt lat="59.7937922" lon="17.5854544">
        <ele>24.651</ele>
        <time>2013-04-21T12:54:37Z</time>
      </trkpt>
      <trkpt lat="59.7938293" lon="17.5855153">
        <ele>24.651</ele>
        <time>2013-04-21T12:54:38Z</time>
      </trkpt>
      <trkpt lat="59.7938665" lon="17.5855756">
        <ele>25.1317</ele>
        <time>2013-04-21T12:54:39Z</time>
      </trkpt>
      <trkpt lat="59.7939034" lon="17.5856367">
        <ele>25.1317</ele>
        <time>2013-04-21T12:54:40Z</time>
      </trkpt>
      <trkpt lat="59.7939402" lon="17.5856978">
        <ele>25.6123</ele>
        <time>2013-04-21T12:54:41Z</time>
      </trkpt>
      <trkpt lat="59.793978" lon="17.5857559">
        <ele>25.6123</ele>
        <time>2013-04-21T12:54:42Z</time>
      </trkpt>
      <trkpt lat="59.7940164" lon="17.5858129">
        <ele>25.6123</ele>
        <time>2013-04-21T12:54:43Z</time>
      </trkpt>
      <trkpt lat="59.7940553" lon="17.5858711">
        <ele>26.0929</ele>
        <time>2013-04-21T12:54:44Z</time>
      </trkpt>
      <trkpt lat="59.7940946" lon="17.5859317">
        <ele>26.0929</ele>
        <time>2013-04-21T12:54:45Z</time>
      </trkpt>
      <trkpt lat="59.7941345" lon="17.5859913">
        <ele>26.0929</ele>
        <time>2013-04-21T12:54:46Z</time>
      </trkpt>
      <trkpt lat="59.7941757" lon="17.5860485">
        <ele>26.5736</ele>
        <time>2013-04-21T12:54:47Z</time>
      </trkpt>
      <trkpt lat="59.7942172" lon="17.5861045">
        <ele>26.5736</ele>
        <time>2013-04-21T12:54:48Z</time>
      </trkpt>
      <trkpt lat="59.7942591" lon="17.5861595">
        <ele>26.5736</ele>
        <time>2013-04-21T12:54:49Z</time>
      </trkpt>
      <trkpt lat="59.7943012" lon="17.5862151">
        <ele>26.5736</ele>
        <time>2013-04-21T12:54:50Z</time>
      </trkpt>
      <trkpt lat="59.7943436" lon="17.5862669">
        <ele>27.0543</ele>
        <time>2013-04-21T12:54:51Z</time>
      </trkpt>
      <trkpt lat="59.794387" lon="17.586316">
        <ele>27.0543</ele>
        <time>2013-04-21T12:54:52Z</time>
      </trkpt>
      <trkpt lat="59.7944303" lon="17.5863668">
        <ele>27.0543</ele>
        <time>2013-04-21T12:54:53Z</time>
      </trkpt>
      <trkpt lat="59.7944743" lon="17.5864154">
        <ele>27.0543</ele>
        <time>2013-04-21T12:54:54Z</time>
      </trkpt>
      <trkpt lat="59.7945192" lon="17.5864642">
        <ele>27.0543</ele>
        <time>2013-04-21T12:54:55Z</time>
      </trkpt>
      <trkpt lat="59.7945654" lon="17.5865113">
        <ele>27.5349</ele>
        <time>2013-04-21T12:54:56Z</time>
      </trkpt>
      <trkpt lat="59.7946121" lon="17.5865593">
        <ele>27.5349</ele>
        <time>2013-04-21T12:54:57Z</time>
      </trkpt>
      <trkpt lat="59.7946587" lon="17.5866104">
        <ele>27.5349</ele>
        <time>2013-04-21T12:54:58Z</time>
      </trkpt>
      <trkpt lat="59.7947054" lon="17.5866622">
        <ele>27.5349</ele>
        <time>2013-04-21T12:54:59Z</time>
      </trkpt>
      <trkpt lat="59.7947529" lon="17.5867114">
        <ele>28.0155</ele>
        <time>2013-04-21T12:55:00Z</time>
      </trkpt>
      <trkpt lat="59.7948" lon="17.5867596">
        <ele>28.0155</ele>
        <time>2013-04-21T12:55:01Z</time>
      </trkpt>
      <trkpt lat="59.7948471" lon="17.5868085">
        <ele>28.0155</ele>
        <time>2013-04-21T12:55:02Z</time>
      </trkpt>
      <trkpt lat="59.7948943" lon="17.5868579">
        <ele>28.0155</ele>
        <time>2013-04-21T12:55:03Z</time>
      </trkpt>
      <trkpt lat="59.794941" lon="17.5869072">
        <ele>28.0155</ele>
        <time>2013-04-21T12:55:04Z</time>
      </trkpt>
      <trkpt lat="59.7949876" lon="17.5869561">
        <ele>28.0155</ele>
        <time>2013-04-21T12:55:05Z</time>
      </trkpt>
      <trkpt lat="59.7950337" lon="17.5870055">
        <ele>28.0155</ele>
        <time>2013-04-21T12:55:06Z</time>
      </trkpt>
      <trkpt lat="59.7950794" lon="17.5870537">
        <ele>28.0155</ele>
        <time>2013-04-21T12:55:07Z</time>
      </trkpt>
      <trkpt lat="59.7951238" lon="17.5870996">
        <ele>28.0155</ele>
        <time>2013-04-21T12:55:08Z</time>
      </trkpt>
      <trkpt lat="59.7951663" lon="17.5871433">
        <ele>28.0155</ele>
        <time>2013-04-21T12:55:09Z</time>
      </trkpt>
      <trkpt lat="59.7952074" lon="17.5871857">
        <ele>28.0155</ele>
        <time>2013-04-21T12:55:10Z</time>
      </trkpt>
      <trkpt lat="59.7952482" lon="17.587227">
        <ele>28.4962</ele>
        <time>2013-04-21T12:55:11Z</time>
      </trkpt>
      <trkpt lat="59.7952887" lon="17.5872661">
        <ele>28.4962</ele>
        <time>2013-04-21T12:55:12Z</time>
      </trkpt>
      <trkpt lat="59.795329" lon="17.5873023">
        <ele>28.4962</ele>
        <time>2013-04-21T12:55:13Z</time>
      </trkpt>
      <trkpt lat="59.7953714" lon="17.5873381">
        <ele>28.4962</ele>
        <time>2013-04-21T12:55:14Z</time>
      </trkpt>
      <trkpt lat="59.7954145" lon="17.5873733">
        <ele>28.9769</ele>
        <time>2013-04-21T12:55:15Z</time>
      </trkpt>
      <trkpt lat="59.795458" lon="17.5874047">
        <ele>28.9769</ele>
        <time>2013-04-21T12:55:16Z</time>
      </trkpt>
      <trkpt lat="59.7955021" lon="17.5874323">
        <ele>29.4575</ele>
        <time>2013-04-21T12:55:17Z</time>
      </trkpt>
      <trkpt lat="59.7955466" lon="17.5874586">
        <ele>29.4575</ele>
        <time>2013-04-21T12:55:18Z</time>
      </trkpt>
      <trkpt lat="59.7955909" lon="17.5874845">
        <ele>29.9381</ele>
        <time>2013-04-21T12:55:19Z</time>
      </trkpt>
      <trkpt lat="59.795636" lon="17.5875058">
        <ele>29.9381</ele>
        <time>2013-04-21T12:55:20Z</time>
      </trkpt>
      <trkpt lat="59.7956821" lon="17.5875231">
        <ele>30.4188</ele>
        <time>2013-04-21T12:55:21Z</time>
      </trkpt>
      <trkpt lat="59.7957284" lon="17.5875401">
        <ele>30.4188</ele>
        <time>2013-04-21T12:55:22Z</time>
      </trkpt>
      <trkpt lat="59.7957755" lon="17.5875549">
        <ele>30.8995</ele>
        <time>2013-04-21T12:55:23Z</time>
      </trkpt>
      <trkpt lat="59.7958224" lon="17.5875682">
        <ele>30.8995</ele>
        <time>2013-04-21T12:55:24Z</time>
      </trkpt>
      <trkpt lat="59.7958698" lon="17.58758">
        <ele>31.3801</ele>
        <time>2013-04-21T12:55:25Z</time>
      </trkpt>
      <trkpt lat="59.795917" lon="17.587592">
        <ele>31.3801</ele>
        <time>2013-04-21T12:55:26Z</time>
      </trkpt>
      <trkpt lat="59.7959646" lon="17.5876064">
        <ele>31.8607</ele>
        <time>2013-04-21T12:55:27Z</time>
      </trkpt>
      <trkpt lat="59.7960107" lon="17.5876241">
        <ele>31.8607</ele>
        <time>2013-04-21T12:55:28Z</time>
      </trkpt>
      <trkpt lat="59.7960576" lon="17.5876411">
        <ele>31.8607</ele>
        <time>2013-04-21T12:55:29Z</time>
      </trkpt>
      <trkpt lat="59.7961053" lon="17.5876586">
        <ele>31.8607</ele>
        <time>2013-04-21T12:55:30Z</time>
      </trkpt>
      <trkpt lat="59.7961542" lon="17.5876748">
        <ele>31.8607</ele>
        <time>2013-04-21T12:55:31Z</time>
      </trkpt>
      <trkpt lat="59.796206" lon="17.5876883">
        <ele>32.3416</ele>
        <time>2013-04-21T12:55:32Z</time>
      </trkpt>
      <trkpt lat="59.7962578" lon="17.5877067">
        <ele>32.3416</ele>
        <time>2013-04-21T12:55:33Z</time>
      </trkpt>
      <trkpt lat="59.7963121" lon="17.5877241">
        <ele>32.8223</ele>
        <time>2013-04-21T12:55:34Z</time>
      </trkpt>
      <trkpt lat="59.7963655" lon="17.5877426">
        <ele>32.8223</ele>
        <time>2013-04-21T12:55:35Z</time>
      </trkpt>
      <trkpt lat="59.7964199" lon="17.5877639">
        <ele>32.8223</ele>
        <time>2013-04-21T12:55:36Z</time>
      </trkpt>
      <trkpt lat="59.7964744" lon="17.5877867">
        <ele>33.3029</ele>
        <time>2013-04-21T12:55:37Z</time>
      </trkpt>
      <trkpt lat="59.7965293" lon="17.5878095">
        <ele>33.3029</ele>
        <time>2013-04-21T12:55:38Z</time>
      </trkpt>
      <trkpt lat="59.7965841" lon="17.5878354">
        <ele>33.3029</ele>
        <time>2013-04-21T12:55:39Z</time>
      </trkpt>
      <trkpt lat="59.7966395" lon="17.5878619">
        <ele>33.3029</ele>
        <time>2013-04-21T12:55:40Z</time>
      </trkpt>
      <trkpt lat="59.7966959" lon="17.5878926">
        <ele>33.7834</ele>
        <time>2013-04-21T12:55:41Z</time>
      </trkpt>
      <trkpt lat="59.7967514" lon="17.5879311">
        <ele>33.7834</ele>
        <time>2013-04-21T12:55:42Z</time>
      </trkpt>
      <trkpt lat="59.7968058" lon="17.5879726">
        <ele>33.7834</ele>
        <time>2013-04-21T12:55:43Z</time>
      </trkpt>
      <trkpt lat="59.7968629" lon="17.5880123">
        <ele>33.7834</ele>
        <time>2013-04-21T12:55:44Z</time>
      </trkpt>
      <trkpt lat="59.7969176" lon="17.5880539">
        <ele>33.7834</ele>
        <time>2013-04-21T12:55:45Z</time>
      </trkpt>
      <trkpt lat="59.7969724" lon="17.588098">
        <ele>33.7834</ele>
        <time>2013-04-21T12:55:46Z</time>
      </trkpt>
      <trkpt lat="59.7970282" lon="17.588143">
        <ele>33.7834</ele>
        <time>2013-04-21T12:55:47Z</time>
      </trkpt>
      <trkpt lat="59.7970843" lon="17.5881849">
        <ele>33.7834</ele>
        <time>2013-04-21T12:55:48Z</time>
      </trkpt>
      <trkpt lat="59.797142" lon="17.5882211">
        <ele>33.7834</ele>
        <time>2013-04-21T12:55:49Z</time>
      </trkpt>
      <trkpt lat="59.7972011" lon="17.5882517">
        <ele>33.7834</ele>
        <time>2013-04-21T12:55:50Z</time>
      </trkpt>
      <trkpt lat="59.7972621" lon="17.5882762">
        <ele>33.7834</ele>
        <time>2013-04-21T12:55:51Z</time>
      </trkpt>
      <trkpt lat="59.7973244" lon="17.5882957">
        <ele>33.7834</ele>
        <time>2013-04-21T12:55:52Z</time>
      </trkpt>
      <trkpt lat="59.7973876" lon="17.5883094">
        <ele>33.7834</ele>
        <time>2013-04-21T12:55:53Z</time>
      </trkpt>
      <trkpt lat="59.7974511" lon="17.5883153">
        <ele>33.7834</ele>
        <time>2013-04-21T12:55:54Z</time>
      </trkpt>
      <trkpt lat="59.7975143" lon="17.5883124">
        <ele>33.7834</ele>
        <time>2013-04-21T12:55:55Z</time>
      </trkpt>
      <trkpt lat="59.7975771" lon="17.5883032">
        <ele>33.7834</ele>
        <time>2013-04-21T12:55:56Z</time>
      </trkpt>
      <trkpt lat="59.7976398" lon="17.5882901">
        <ele>33.7834</ele>
        <time>2013-04-21T12:55:57Z</time>
      </trkpt>
      <trkpt lat="59.7977025" lon="17.588273">
        <ele>33.7834</ele>
        <time>2013-04-21T12:55:58Z</time>
      </trkpt>
      <trkpt lat="59.7977637" lon="17.5882545">
        <ele>33.7834</ele>
        <time>2013-04-21T12:55:59Z</time>
      </trkpt>
      <trkpt lat="59.7978253" lon="17.5882363">
        <ele>33.7834</ele>
        <time>2013-04-21T12:56:00Z</time>
      </trkpt>
      <trkpt lat="59.7978874" lon="17.5882195">
        <ele>33.7834</ele>
        <time>2013-04-21T12:56:01Z</time>
      </trkpt>
      <trkpt lat="59.7979501" lon="17.5882061">
        <ele>33.7834</ele>
        <time>2013-04-21T12:56:02Z</time>
      </trkpt>
      <trkpt lat="59.7980123" lon="17.5881927">
        <ele>33.3029</ele>
        <time>2013-04-21T12:56:03Z</time>
      </trkpt>
      <trkpt lat="59.7980734" lon="17.5881812">
        <ele>33.3029</ele>
        <time>2013-04-21T12:56:04Z</time>
      </trkpt>
      <trkpt lat="59.798133" lon="17.5881715">
        <ele>33.3029</ele>
        <time>2013-04-21T12:56:05Z</time>
      </trkpt>
      <trkpt lat="59.7981925" lon="17.5881642">
        <ele>33.3029</ele>
        <time>2013-04-21T12:56:06Z</time>
      </trkpt>
      <trkpt lat="59.7982517" lon="17.5881571">
        <ele>33.3029</ele>
        <time>2013-04-21T12:56:07Z</time>
      </trkpt>
      <trkpt lat="59.7983099" lon="17.5881556">
        <ele>33.3029</ele>
        <time>2013-04-21T12:56:08Z</time>
      </trkpt>
      <trkpt lat="59.7983671" lon="17.5881586">
        <ele>33.3029</ele>
        <time>2013-04-21T12:56:09Z</time>
      </trkpt>
      <trkpt lat="59.7984251" lon="17.5881618">
        <ele>32.8223</ele>
        <time>2013-04-21T12:56:10Z</time>
      </trkpt>
      <trkpt lat="59.7984838" lon="17.588173">
        <ele>32.8223</ele>
        <time>2013-04-21T12:56:11Z</time>
      </trkpt>
      <trkpt lat="59.7985427" lon="17.5881877">
        <ele>32.8223</ele>
        <time>2013-04-21T12:56:12Z</time>
      </trkpt>
      <trkpt lat="59.7986002" lon="17.5881998">
        <ele>32.8223</ele>
        <time>2013-04-21T12:56:13Z</time>
      </trkpt>
      <trkpt lat="59.7986581" lon="17.5882042">
        <ele>32.8223</ele>
        <time>2013-04-21T12:56:14Z</time>
      </trkpt>
      <trkpt lat="59.7987142" lon="17.5882098">
        <ele>32.8223</ele>
        <time>2013-04-21T12:56:15Z</time>
      </trkpt>
      <trkpt lat="59.7987697" lon="17.5882145">
        <ele>32.8223</ele>
        <time>2013-04-21T12:56:16Z</time>
      </trkpt>
      <trkpt lat="59.7988259" lon="17.588219">
        <ele>32.8223</ele>
        <time>2013-04-21T12:56:17Z</time>
      </trkpt>
      <trkpt lat="59.7988834" lon="17.5882197">
        <ele>32.8223</ele>
        <time>2013-04-21T12:56:18Z</time>
      </trkpt>
      <trkpt lat="59.7989416" lon="17.5882191">
        <ele>32.8223</ele>
        <time>2013-04-21T12:56:19Z</time>
      </trkpt>
      <trkpt lat="59.7989987" lon="17.5882233">
        <ele>32.8223</ele>
        <time>2013-04-21T12:56:20Z</time>
      </trkpt>
      <trkpt lat="59.7990557" lon="17.5882274">
        <ele>32.8223</ele>
        <time>2013-04-21T12:56:21Z</time>
      </trkpt>
      <trkpt lat="59.799114" lon="17.5882276">
        <ele>32.8223</ele>
        <time>2013-04-21T12:56:22Z</time>
      </trkpt>
      <trkpt lat="59.799173" lon="17.588227">
        <ele>32.8223</ele>
        <time>2013-04-21T12:56:23Z</time>
      </trkpt>
      <trkpt lat="59.799231" lon="17.588229">
        <ele>33.3029</ele>
        <time>2013-04-21T12:56:24Z</time>
      </trkpt>
      <trkpt lat="59.7992876" lon="17.5882306">
        <ele>32.8223</ele>
        <time>2013-04-21T12:56:25Z</time>
      </trkpt>
      <trkpt lat="59.7993425" lon="17.5882306">
        <ele>32.8223</ele>
        <time>2013-04-21T12:56:26Z</time>
      </trkpt>
      <trkpt lat="59.7993963" lon="17.5882335">
        <ele>32.8223</ele>
        <time>2013-04-21T12:56:27Z</time>
      </trkpt>
      <trkpt lat="59.7994472" lon="17.5882398">
        <ele>32.8223</ele>
        <time>2013-04-21T12:56:28Z</time>
      </trkpt>
      <trkpt lat="59.7994988" lon="17.5882482">
        <ele>32.8223</ele>
        <time>2013-04-21T12:56:29Z</time>
      </trkpt>
      <trkpt lat="59.7995506" lon="17.5882641">
        <ele>32.8223</ele>
        <time>2013-04-21T12:56:30Z</time>
      </trkpt>
      <trkpt lat="59.7996041" lon="17.5882872">
        <ele>32.3416</ele>
        <time>2013-04-21T12:56:31Z</time>
      </trkpt>
      <trkpt lat="59.7996601" lon="17.5883153">
        <ele>31.8607</ele>
        <time>2013-04-21T12:56:32Z</time>
      </trkpt>
      <trkpt lat="59.7997179" lon="17.5883469">
        <ele>31.8607</ele>
        <time>2013-04-21T12:56:33Z</time>
      </trkpt>
      <trkpt lat="59.7997777" lon="17.5883819">
        <ele>31.8607</ele>
        <time>2013-04-21T12:56:34Z</time>
      </trkpt>
      <trkpt lat="59.7998377" lon="17.5884212">
        <ele>31.8607</ele>
        <time>2013-04-21T12:56:35Z</time>
      </trkpt>
      <trkpt lat="59.7998973" lon="17.5884645">
        <ele>31.8607</ele>
        <time>2013-04-21T12:56:36Z</time>
      </trkpt>
      <trkpt lat="59.7999594" lon="17.5885029">
        <ele>31.3801</ele>
        <time>2013-04-21T12:56:37Z</time>
      </trkpt>
      <trkpt lat="59.8000215" lon="17.5885384">
        <ele>31.3801</ele>
        <time>2013-04-21T12:56:38Z</time>
      </trkpt>
      <trkpt lat="59.8000852" lon="17.5885693">
        <ele>30.8995</ele>
        <time>2013-04-21T12:56:39Z</time>
      </trkpt>
      <trkpt lat="59.8001501" lon="17.5885968">
        <ele>30.4188</ele>
        <time>2013-04-21T12:56:40Z</time>
      </trkpt>
      <trkpt lat="59.8002157" lon="17.5886243">
        <ele>30.4188</ele>
        <time>2013-04-21T12:56:41Z</time>
      </trkpt>
      <trkpt lat="59.8002821" lon="17.5886517">
        <ele>29.9381</ele>
        <time>2013-04-21T12:56:42Z</time>
      </trkpt>
      <trkpt lat="59.8003484" lon="17.5886776">
        <ele>29.9381</ele>
        <time>2013-04-21T12:56:43Z</time>
      </trkpt>
      <trkpt lat="59.8004141" lon="17.5887007">
        <ele>29.4575</ele>
        <time>2013-04-21T12:56:44Z</time>
      </trkpt>
      <trkpt lat="59.8004791" lon="17.5887236">
        <ele>29.4575</ele>
        <time>2013-04-21T12:56:45Z</time>
      </trkpt>
      <trkpt lat="59.8005437" lon="17.5887484">
        <ele>29.4575</ele>
        <time>2013-04-21T12:56:46Z</time>
      </trkpt>
      <trkpt lat="59.8006079" lon="17.5887788">
        <ele>29.4575</ele>
        <time>2013-04-21T12:56:47Z</time>
      </trkpt>
      <trkpt lat="59.8006705" lon="17.588815">
        <ele>29.4575</ele>
        <time>2013-04-21T12:56:48Z</time>
      </trkpt>
      <trkpt lat="59.8007316" lon="17.5888539">
        <ele>29.4575</ele>
        <time>2013-04-21T12:56:49Z</time>
      </trkpt>
      <trkpt lat="59.8007915" lon="17.5888962">
        <ele>29.4575</ele>
        <time>2013-04-21T12:56:50Z</time>
      </trkpt>
      <trkpt lat="59.8008494" lon="17.5889427">
        <ele>29.9381</ele>
        <time>2013-04-21T12:56:51Z</time>
      </trkpt>
      <trkpt lat="59.8009043" lon="17.588991">
        <ele>29.9381</ele>
        <time>2013-04-21T12:56:52Z</time>
      </trkpt>
      <trkpt lat="59.800956" lon="17.5890413">
        <ele>29.9381</ele>
        <time>2013-04-21T12:56:53Z</time>
      </trkpt>
      <trkpt lat="59.8010058" lon="17.5890931">
        <ele>30.4188</ele>
        <time>2013-04-21T12:56:54Z</time>
      </trkpt>
      <trkpt lat="59.8010559" lon="17.5891449">
        <ele>30.8995</ele>
        <time>2013-04-21T12:56:55Z</time>
      </trkpt>
      <trkpt lat="59.8011068" lon="17.589197">
        <ele>31.3801</ele>
        <time>2013-04-21T12:56:56Z</time>
      </trkpt>
      <trkpt lat="59.8011565" lon="17.5892479">
        <ele>31.8607</ele>
        <time>2013-04-21T12:56:57Z</time>
      </trkpt>
      <trkpt lat="59.8012022" lon="17.5892968">
        <ele>31.8607</ele>
        <time>2013-04-21T12:56:58Z</time>
      </trkpt>
      <trkpt lat="59.8012488" lon="17.5893462">
        <ele>32.3416</ele>
        <time>2013-04-21T12:56:59Z</time>
      </trkpt>
      <trkpt lat="59.8012961" lon="17.5893999">
        <ele>32.3416</ele>
        <time>2013-04-21T12:57:00Z</time>
      </trkpt>
      <trkpt lat="59.8013416" lon="17.5894574">
        <ele>32.8223</ele>
        <time>2013-04-21T12:57:01Z</time>
      </trkpt>
      <trkpt lat="59.8013896" lon="17.5895147">
        <ele>32.8223</ele>
        <time>2013-04-21T12:57:02Z</time>
      </trkpt>
      <trkpt lat="59.8014352" lon="17.5895728">
        <ele>32.8223</ele>
        <time>2013-04-21T12:57:03Z</time>
      </trkpt>
      <trkpt lat="59.8014788" lon="17.5896261">
        <ele>32.8223</ele>
        <time>2013-04-21T12:57:04Z</time>
      </trkpt>
      <trkpt lat="59.8015217" lon="17.5896746">
        <ele>33.3029</ele>
        <time>2013-04-21T12:57:05Z</time>
      </trkpt>
      <trkpt lat="59.8015625" lon="17.5897245">
        <ele>33.3029</ele>
        <time>2013-04-21T12:57:06Z</time>
      </trkpt>
      <trkpt lat="59.8016027" lon="17.5897772">
        <ele>33.7834</ele>
        <time>2013-04-21T12:57:07Z</time>
      </trkpt>
      <trkpt lat="59.8016421" lon="17.5898317">
        <ele>33.7834</ele>
        <time>2013-04-21T12:57:08Z</time>
      </trkpt>
      <trkpt lat="59.8016822" lon="17.5898849">
        <ele>34.2642</ele>
        <time>2013-04-21T12:57:09Z</time>
      </trkpt>
      <trkpt lat="59.8017249" lon="17.589936">
        <ele>34.2642</ele>
        <time>2013-04-21T12:57:10Z</time>
      </trkpt>
      <trkpt lat="59.8017646" lon="17.5899909">
        <ele>34.7449</ele>
        <time>2013-04-21T12:57:11Z</time>
      </trkpt>
      <trkpt lat="59.8018051" lon="17.5900471">
        <ele>34.7449</ele>
        <time>2013-04-21T12:57:12Z</time>
      </trkpt>
      <trkpt lat="59.8018466" lon="17.5901042">
        <ele>34.7449</ele>
        <time>2013-04-21T12:57:13Z</time>
      </trkpt>
      <trkpt lat="59.8018873" lon="17.5901637">
        <ele>35.2255</ele>
        <time>2013-04-21T12:57:14Z</time>
      </trkpt>
      <trkpt lat="59.8019277" lon="17.590226">
        <ele>35.2255</ele>
        <time>2013-04-21T12:57:15Z</time>
      </trkpt>
      <trkpt lat="59.8019672" lon="17.5902897">
        <ele>35.2255</ele>
        <time>2013-04-21T12:57:16Z</time>
      </trkpt>
      <trkpt lat="59.8020052" lon="17.590354">
        <ele>35.7061</ele>
        <time>2013-04-21T12:57:17Z</time>
      </trkpt>
      <trkpt lat="59.8020417" lon="17.5904207">
        <ele>35.7061</ele>
        <time>2013-04-21T12:57:18Z</time>
      </trkpt>
      <trkpt lat="59.802078" lon="17.5904874">
        <ele>35.7061</ele>
        <time>2013-04-21T12:57:19Z</time>
      </trkpt>
      <trkpt lat="59.8021153" lon="17.5905534">
        <ele>36.1868</ele>
        <time>2013-04-21T12:57:20Z</time>
      </trkpt>
      <trkpt lat="59.8021518" lon="17.5906212">
        <ele>36.1868</ele>
        <time>2013-04-21T12:57:21Z</time>
      </trkpt>
      <trkpt lat="59.802188" lon="17.5906911">
        <ele>36.1868</ele>
        <time>2013-04-21T12:57:22Z</time>
      </trkpt>
      <trkpt lat="59.8022241" lon="17.5907614">
        <ele>36.6675</ele>
        <time>2013-04-21T12:57:23Z</time>
      </trkpt>
      <trkpt lat="59.802259" lon="17.590832">
        <ele>36.6675</ele>
        <time>2013-04-21T12:57:24Z</time>
      </trkpt>
      <trkpt lat="59.802293" lon="17.5909026">
        <ele>37.1481</ele>
        <time>2013-04-21T12:57:25Z</time>
      </trkpt>
      <trkpt lat="59.8023277" lon="17.5909724">
        <ele>37.1481</ele>
        <time>2013-04-21T12:57:26Z</time>
      </trkpt>
      <trkpt lat="59.802362" lon="17.5910442">
        <ele>37.1481</ele>
        <time>2013-04-21T12:57:27Z</time>
      </trkpt>
      <trkpt lat="59.802395" lon="17.5911181">
        <ele>37.6287</ele>
        <time>2013-04-21T12:57:28Z</time>
      </trkpt>
      <trkpt lat="59.8024282" lon="17.5911915">
        <ele>37.6287</ele>
        <time>2013-04-21T12:57:29Z</time>
      </trkpt>
      <trkpt lat="59.8024615" lon="17.5912649">
        <ele>37.6287</ele>
        <time>2013-04-21T12:57:30Z</time>
      </trkpt>
      <trkpt lat="59.8024932" lon="17.5913395">
        <ele>37.6287</ele>
        <time>2013-04-21T12:57:31Z</time>
      </trkpt>
      <trkpt lat="59.8025239" lon="17.5914148">
        <ele>38.1094</ele>
        <time>2013-04-21T12:57:32Z</time>
      </trkpt>
      <trkpt lat="59.8025524" lon="17.591493">
        <ele>38.1094</ele>
        <time>2013-04-21T12:57:33Z</time>
      </trkpt>
      <trkpt lat="59.8025797" lon="17.5915728">
        <ele>38.1094</ele>
        <time>2013-04-21T12:57:34Z</time>
      </trkpt>
      <trkpt lat="59.8026054" lon="17.5916511">
        <ele>38.5901</ele>
        <time>2013-04-21T12:57:35Z</time>
      </trkpt>
      <trkpt lat="59.8026286" lon="17.5917325">
        <ele>39.0707</ele>
        <time>2013-04-21T12:57:36Z</time>
      </trkpt>
      <trkpt lat="59.8026508" lon="17.5918163">
        <ele>39.5513</ele>
        <time>2013-04-21T12:57:37Z</time>
      </trkpt>
      <trkpt lat="59.8026719" lon="17.5919023">
        <ele>40.0321</ele>
        <time>2013-04-21T12:57:38Z</time>
      </trkpt>
      <trkpt lat="59.8026935" lon="17.5919908">
        <ele>40.0321</ele>
        <time>2013-04-21T12:57:39Z</time>
      </trkpt>
      <trkpt lat="59.8027133" lon="17.5920798">
        <ele>40.5128</ele>
        <time>2013-04-21T12:57:40Z</time>
      </trkpt>
      <trkpt lat="59.8027327" lon="17.5921707">
        <ele>40.9934</ele>
        <time>2013-04-21T12:57:41Z</time>
      </trkpt>
      <trkpt lat="59.8027493" lon="17.592265">
        <ele>41.474</ele>
        <time>2013-04-21T12:57:42Z</time>
      </trkpt>
      <trkpt lat="59.8027635" lon="17.5923636">
        <ele>41.474</ele>
        <time>2013-04-21T12:57:43Z</time>
      </trkpt>
      <trkpt lat="59.8027772" lon="17.5924637">
        <ele>41.474</ele>
        <time>2013-04-21T12:57:44Z</time>
      </trkpt>
      <trkpt lat="59.8027912" lon="17.5925656">
        <ele>41.9547</ele>
        <time>2013-04-21T12:57:45Z</time>
      </trkpt>
      <trkpt lat="59.8028034" lon="17.5926705">
        <ele>42.4354</ele>
        <time>2013-04-21T12:57:46Z</time>
      </trkpt>
      <trkpt lat="59.8028115" lon="17.5927778">
        <ele>42.4354</ele>
        <time>2013-04-21T12:57:47Z</time>
      </trkpt>
      <trkpt lat="59.8028169" lon="17.5928868">
        <ele>42.916</ele>
        <time>2013-04-21T12:57:48Z</time>
      </trkpt>
      <trkpt lat="59.8028231" lon="17.592995">
        <ele>42.916</ele>
        <time>2013-04-21T12:57:49Z</time>
      </trkpt>
      <trkpt lat="59.8028286" lon="17.5931009">
        <ele>43.3966</ele>
        <time>2013-04-21T12:57:50Z</time>
      </trkpt>
      <trkpt lat="59.8028334" lon="17.5932044">
        <ele>43.3966</ele>
        <time>2013-04-21T12:57:51Z</time>
      </trkpt>
      <trkpt lat="59.8028406" lon="17.5933067">
        <ele>43.3966</ele>
        <time>2013-04-21T12:57:52Z</time>
      </trkpt>
      <trkpt lat="59.802847" lon="17.5934061">
        <ele>43.3966</ele>
        <time>2013-04-21T12:57:53Z</time>
      </trkpt>
      <trkpt lat="59.8028489" lon="17.5935065">
        <ele>43.3966</ele>
        <time>2013-04-21T12:57:54Z</time>
      </trkpt>
      <trkpt lat="59.8028518" lon="17.5936127">
        <ele>42.916</ele>
        <time>2013-04-21T12:57:55Z</time>
      </trkpt>
      <trkpt lat="59.8028556" lon="17.5937195">
        <ele>42.916</ele>
        <time>2013-04-21T12:57:56Z</time>
      </trkpt>
      <trkpt lat="59.8028582" lon="17.5938272">
        <ele>42.4354</ele>
        <time>2013-04-21T12:57:57Z</time>
      </trkpt>
      <trkpt lat="59.802861" lon="17.5939394">
        <ele>42.916</ele>
        <time>2013-04-21T12:57:58Z</time>
      </trkpt>
      <trkpt lat="59.8028638" lon="17.5940561">
        <ele>42.916</ele>
        <time>2013-04-21T12:57:59Z</time>
      </trkpt>
      <trkpt lat="59.8028655" lon="17.5941768">
        <ele>42.916</ele>
        <time>2013-04-21T12:58:00Z</time>
      </trkpt>
      <trkpt lat="59.8028674" lon="17.594301">
        <ele>42.4354</ele>
        <time>2013-04-21T12:58:01Z</time>
      </trkpt>
      <trkpt lat="59.802867" lon="17.5944308">
        <ele>41.9547</ele>
        <time>2013-04-21T12:58:02Z</time>
      </trkpt>
      <trkpt lat="59.802865" lon="17.5945649">
        <ele>41.9547</ele>
        <time>2013-04-21T12:58:03Z</time>
      </trkpt>
      <trkpt lat="59.8028604" lon="17.5947016">
        <ele>41.474</ele>
        <time>2013-04-21T12:58:04Z</time>
      </trkpt>
      <trkpt lat="59.8028527" lon="17.5948399">
        <ele>40.9934</ele>
        <time>2013-04-21T12:58:05Z</time>
      </trkpt>
      <trkpt lat="59.8028442" lon="17.5949795">
        <ele>40.9934</ele>
        <time>2013-04-21T12:58:06Z</time>
      </trkpt>
      <trkpt lat="59.8028307" lon="17.5951201">
        <ele>40.9934</ele>
        <time>2013-04-21T12:58:07Z</time>
      </trkpt>
      <trkpt lat="59.8028161" lon="17.5952605">
        <ele>40.5128</ele>
        <time>2013-04-21T12:58:08Z</time>
      </trkpt>
      <trkpt lat="59.8028002" lon="17.5953993">
        <ele>40.5128</ele>
        <time>2013-04-21T12:58:09Z</time>
      </trkpt>
      <trkpt lat="59.8027832" lon="17.5955367">
        <ele>40.0321</ele>
        <time>2013-04-21T12:58:10Z</time>
      </trkpt>
      <trkpt lat="59.8027655" lon="17.595675">
        <ele>40.0321</ele>
        <time>2013-04-21T12:58:11Z</time>
      </trkpt>
      <trkpt lat="59.8027479" lon="17.5958126">
        <ele>39.5513</ele>
        <time>2013-04-21T12:58:12Z</time>
      </trkpt>
      <trkpt lat="59.8027306" lon="17.5959506">
        <ele>39.0707</ele>
        <time>2013-04-21T12:58:13Z</time>
      </trkpt>
      <trkpt lat="59.8027116" lon="17.5960918">
        <ele>38.5901</ele>
        <time>2013-04-21T12:58:14Z</time>
      </trkpt>
      <trkpt lat="59.8026921" lon="17.5962332">
        <ele>38.5901</ele>
        <time>2013-04-21T12:58:15Z</time>
      </trkpt>
      <trkpt lat="59.8026728" lon="17.5963785">
        <ele>38.1094</ele>
        <time>2013-04-21T12:58:16Z</time>
      </trkpt>
      <trkpt lat="59.8026563" lon="17.5965203">
        <ele>37.6287</ele>
        <time>2013-04-21T12:58:17Z</time>
      </trkpt>
      <trkpt lat="59.8026359" lon="17.5966681">
        <ele>37.1481</ele>
        <time>2013-04-21T12:58:18Z</time>
      </trkpt>
      <trkpt lat="59.8026148" lon="17.5968151">
        <ele>36.6675</ele>
        <time>2013-04-21T12:58:19Z</time>
      </trkpt>
      <trkpt lat="59.8025932" lon="17.596962">
        <ele>36.6675</ele>
        <time>2013-04-21T12:58:20Z</time>
      </trkpt>
      <trkpt lat="59.8025721" lon="17.5971124">
        <ele>36.6675</ele>
        <time>2013-04-21T12:58:21Z</time>
      </trkpt>
      <trkpt lat="59.8025501" lon="17.5972638">
        <ele>36.1868</ele>
        <time>2013-04-21T12:58:22Z</time>
      </trkpt>
      <trkpt lat="59.8025281" lon="17.5974123">
        <ele>36.1868</ele>
        <time>2013-04-21T12:58:23Z</time>
      </trkpt>
      <trkpt lat="59.8025066" lon="17.5975618">
        <ele>36.1868</ele>
        <time>2013-04-21T12:58:24Z</time>
      </trkpt>
      <trkpt lat="59.8024884" lon="17.5977054">
        <ele>35.7061</ele>
        <time>2013-04-21T12:58:25Z</time>
      </trkpt>
      <trkpt lat="59.8024688" lon="17.5978489">
        <ele>35.7061</ele>
        <time>2013-04-21T12:58:26Z</time>
      </trkpt>
      <trkpt lat="59.8024511" lon="17.5979858">
        <ele>35.7061</ele>
        <time>2013-04-21T12:58:27Z</time>
      </trkpt>
      <trkpt lat="59.8024319" lon="17.5981206">
        <ele>35.2255</ele>
        <time>2013-04-21T12:58:28Z</time>
      </trkpt>
      <trkpt lat="59.8024112" lon="17.5982547">
        <ele>35.2255</ele>
        <time>2013-04-21T12:58:29Z</time>
      </trkpt>
      <trkpt lat="59.8023906" lon="17.5983919">
        <ele>34.7449</ele>
        <time>2013-04-21T12:58:30Z</time>
      </trkpt>
      <trkpt lat="59.8023707" lon="17.5985327">
        <ele>34.2642</ele>
        <time>2013-04-21T12:58:31Z</time>
      </trkpt>
      <trkpt lat="59.8023504" lon="17.5986752">
        <ele>34.2642</ele>
        <time>2013-04-21T12:58:32Z</time>
      </trkpt>
      <trkpt lat="59.8023298" lon="17.5988201">
        <ele>34.2642</ele>
        <time>2013-04-21T12:58:33Z</time>
      </trkpt>
      <trkpt lat="59.8023092" lon="17.5989649">
        <ele>33.7834</ele>
        <time>2013-04-21T12:58:34Z</time>
      </trkpt>
      <trkpt lat="59.8022886" lon="17.5991125">
        <ele>33.3029</ele>
        <time>2013-04-21T12:58:35Z</time>
      </trkpt>
      <trkpt lat="59.8022691" lon="17.59926">
        <ele>33.3029</ele>
        <time>2013-04-21T12:58:36Z</time>
      </trkpt>
      <trkpt lat="59.8022491" lon="17.5994087">
        <ele>32.8223</ele>
        <time>2013-04-21T12:58:37Z</time>
      </trkpt>
      <trkpt lat="59.8022279" lon="17.5995605">
        <ele>32.3416</ele>
        <time>2013-04-21T12:58:38Z</time>
      </trkpt>
      <trkpt lat="59.8022101" lon="17.5997114">
        <ele>32.3416</ele>
        <time>2013-04-21T12:58:39Z</time>
      </trkpt>
      <trkpt lat="59.8021906" lon="17.5998656">
        <ele>31.8607</ele>
        <time>2013-04-21T12:58:40Z</time>
      </trkpt>
      <trkpt lat="59.8021648" lon="17.6000251">
        <ele>31.8607</ele>
        <time>2013-04-21T12:58:41Z</time>
      </trkpt>
      <trkpt lat="59.8021418" lon="17.6001759">
        <ele>31.8607</ele>
        <time>2013-04-21T12:58:42Z</time>
      </trkpt>
      <trkpt lat="59.8021185" lon="17.6003256">
        <ele>31.3801</ele>
        <time>2013-04-21T12:58:43Z</time>
      </trkpt>
      <trkpt lat="59.8020947" lon="17.6004725">
        <ele>30.8995</ele>
        <time>2013-04-21T12:58:44Z</time>
      </trkpt>
      <trkpt lat="59.8020694" lon="17.600623">
        <ele>30.4188</ele>
        <time>2013-04-21T12:58:45Z</time>
      </trkpt>
      <trkpt lat="59.8020456" lon="17.6007751">
        <ele>29.9381</ele>
        <time>2013-04-21T12:58:46Z</time>
      </trkpt>
      <trkpt lat="59.8020222" lon="17.6009302">
        <ele>29.4575</ele>
        <time>2013-04-21T12:58:47Z</time>
      </trkpt>
      <trkpt lat="59.8019979" lon="17.6010879">
        <ele>29.4575</ele>
        <time>2013-04-21T12:58:48Z</time>
      </trkpt>
      <trkpt lat="59.8019733" lon="17.6012512">
        <ele>28.9769</ele>
        <time>2013-04-21T12:58:49Z</time>
      </trkpt>
      <trkpt lat="59.8019502" lon="17.6014177">
        <ele>28.4962</ele>
        <time>2013-04-21T12:58:50Z</time>
      </trkpt>
      <trkpt lat="59.8019253" lon="17.6015893">
        <ele>28.0155</ele>
        <time>2013-04-21T12:58:51Z</time>
      </trkpt>
      <trkpt lat="59.8019006" lon="17.6017634">
        <ele>28.0155</ele>
        <time>2013-04-21T12:58:52Z</time>
      </trkpt>
      <trkpt lat="59.8018787" lon="17.6019345">
        <ele>27.5349</ele>
        <time>2013-04-21T12:58:53Z</time>
      </trkpt>
      <trkpt lat="59.8018586" lon="17.602105">
        <ele>27.0543</ele>
        <time>2013-04-21T12:58:54Z</time>
      </trkpt>
      <trkpt lat="59.801844" lon="17.6022795">
        <ele>27.0543</ele>
        <time>2013-04-21T12:58:55Z</time>
      </trkpt>
      <trkpt lat="59.8018367" lon="17.6024591">
        <ele>26.5736</ele>
        <time>2013-04-21T12:58:56Z</time>
      </trkpt>
      <trkpt lat="59.8018383" lon="17.6026422">
        <ele>26.0929</ele>
        <time>2013-04-21T12:58:57Z</time>
      </trkpt>
      <trkpt lat="59.801848" lon="17.6028284">
        <ele>25.6123</ele>
        <time>2013-04-21T12:58:58Z</time>
      </trkpt>
      <trkpt lat="59.8018667" lon="17.603017">
        <ele>24.651</ele>
        <time>2013-04-21T12:58:59Z</time>
      </trkpt>
      <trkpt lat="59.8018927" lon="17.6032067">
        <ele>24.1703</ele>
        <time>2013-04-21T12:59:00Z</time>
      </trkpt>
      <trkpt lat="59.8019262" lon="17.6033943">
        <ele>23.209</ele>
        <time>2013-04-21T12:59:01Z</time>
      </trkpt>
      <trkpt lat="59.8019684" lon="17.603575">
        <ele>22.7283</ele>
        <time>2013-04-21T12:59:02Z</time>
      </trkpt>
      <trkpt lat="59.8020192" lon="17.6037466">
        <ele>22.2476</ele>
        <time>2013-04-21T12:59:03Z</time>
      </trkpt>
      <trkpt lat="59.8020788" lon="17.6039059">
        <ele>21.767</ele>
        <time>2013-04-21T12:59:04Z</time>
      </trkpt>
      <trkpt lat="59.8021451" lon="17.6040549">
        <ele>21.2864</ele>
        <time>2013-04-21T12:59:05Z</time>
      </trkpt>
      <trkpt lat="59.8022197" lon="17.6041951">
        <ele>20.325</ele>
        <time>2013-04-21T12:59:06Z</time>
      </trkpt>
      <trkpt lat="59.8022978" lon="17.6043229">
        <ele>19.8444</ele>
        <time>2013-04-21T12:59:07Z</time>
      </trkpt>
      <trkpt lat="59.8023848" lon="17.604433">
        <ele>19.3638</ele>
        <time>2013-04-21T12:59:08Z</time>
      </trkpt>
      <trkpt lat="59.8024816" lon="17.6045193">
        <ele>18.8831</ele>
        <time>2013-04-21T12:59:09Z</time>
      </trkpt>
      <trkpt lat="59.8025822" lon="17.60458">
        <ele>18.8831</ele>
        <time>2013-04-21T12:59:10Z</time>
      </trkpt>
      <trkpt lat="59.8026868" lon="17.6046086">
        <ele>18.4023</ele>
        <time>2013-04-21T12:59:11Z</time>
      </trkpt>
      <trkpt lat="59.8027928" lon="17.6046154">
        <ele>17.4412</ele>
        <time>2013-04-21T12:59:12Z</time>
      </trkpt>
      <trkpt lat="59.8028996" lon="17.6046076">
        <ele>16.9604</ele>
        <time>2013-04-21T12:59:13Z</time>
      </trkpt>
      <trkpt lat="59.8030101" lon="17.604586">
        <ele>16.4797</ele>
        <time>2013-04-21T12:59:14Z</time>
      </trkpt>
      <trkpt lat="59.803122" lon="17.6045562">
        <ele>16.4797</ele>
        <time>2013-04-21T12:59:15Z</time>
      </trkpt>
      <trkpt lat="59.8032306" lon="17.6045231">
        <ele>16.9604</ele>
        <time>2013-04-21T12:59:16Z</time>
      </trkpt>
      <trkpt lat="59.8033328" lon="17.6044913">
        <ele>16.4797</ele>
        <time>2013-04-21T12:59:17Z</time>
      </trkpt>
      <trkpt lat="59.8034362" lon="17.6044568">
        <ele>16.4797</ele>
        <time>2013-04-21T12:59:18Z</time>
      </trkpt>
      <trkpt lat="59.8035347" lon="17.604423">
        <ele>16.4797</ele>
        <time>2013-04-21T12:59:19Z</time>
      </trkpt>
      <trkpt lat="59.8036318" lon="17.6043874">
        <ele>16.4797</ele>
        <time>2013-04-21T12:59:20Z</time>
      </trkpt>
      <trkpt lat="59.8037257" lon="17.6043541">
        <ele>16.4797</ele>
        <time>2013-04-21T12:59:21Z</time>
      </trkpt>
      <trkpt lat="59.8038146" lon="17.6043267">
        <ele>15.999</ele>
        <time>2013-04-21T12:59:22Z</time>
      </trkpt>
      <trkpt lat="59.803901" lon="17.6043117">
        <ele>16.4797</ele>
        <time>2013-04-21T12:59:23Z</time>
      </trkpt>
      <trkpt lat="59.8039845" lon="17.604313">
        <ele>16.4797</ele>
        <time>2013-04-21T12:59:24Z</time>
      </trkpt>
      <trkpt lat="59.8040611" lon="17.6043436">
        <ele>15.999</ele>
        <time>2013-04-21T12:59:25Z</time>
      </trkpt>
      <trkpt lat="59.8041301" lon="17.6044011">
        <ele>15.999</ele>
        <time>2013-04-21T12:59:26Z</time>
      </trkpt>
      <trkpt lat="59.8041893" lon="17.6044822">
        <ele>15.999</ele>
        <time>2013-04-21T12:59:27Z</time>
      </trkpt>
      <trkpt lat="59.8042365" lon="17.6045779">
        <ele>15.999</ele>
        <time>2013-04-21T12:59:28Z</time>
      </trkpt>
      <trkpt lat="59.8042739" lon="17.6046783">
        <ele>16.4797</ele>
        <time>2013-04-21T12:59:29Z</time>
      </trkpt>
      <trkpt lat="59.8043017" lon="17.6047759">
        <ele>16.4797</ele>
        <time>2013-04-21T12:59:30Z</time>
      </trkpt>
      <trkpt lat="59.8043189" lon="17.6048674">
        <ele>16.4797</ele>
        <time>2013-04-21T12:59:31Z</time>
      </trkpt>
      <trkpt lat="59.8043252" lon="17.6049578">
        <ele>15.999</ele>
        <time>2013-04-21T12:59:32Z</time>
      </trkpt>
      <trkpt lat="59.8043184" lon="17.6050455">
        <ele>15.999</ele>
        <time>2013-04-21T12:59:33Z</time>
      </trkpt>
      <trkpt lat="59.8042962" lon="17.6051269">
        <ele>15.5184</ele>
        <time>2013-04-21T12:59:34Z</time>
      </trkpt>
      <trkpt lat="59.80426" lon="17.6051914">
        <ele>15.0377</ele>
        <time>2013-04-21T12:59:35Z</time>
      </trkpt>
      <trkpt lat="59.8042149" lon="17.6052351">
        <ele>15.0377</ele>
        <time>2013-04-21T12:59:36Z</time>
      </trkpt>
      <trkpt lat="59.8041652" lon="17.6052648">
        <ele>15.0377</ele>
        <time>2013-04-21T12:59:37Z</time>
      </trkpt>
      <trkpt lat="59.8041114" lon="17.605287">
        <ele>15.0377</ele>
        <time>2013-04-21T12:59:38Z</time>
      </trkpt>
      <trkpt lat="59.8040558" lon="17.6053052">
        <ele>15.0377</ele>
        <time>2013-04-21T12:59:39Z</time>
      </trkpt>
      <trkpt lat="59.8040021" lon="17.6053229">
        <ele>15.5184</ele>
        <time>2013-04-21T12:59:40Z</time>
      </trkpt>
      <trkpt lat="59.8039492" lon="17.605341">
        <ele>15.5184</ele>
        <time>2013-04-21T12:59:41Z</time>
      </trkpt>
      <trkpt lat="59.8038957" lon="17.6053642">
        <ele>15.5184</ele>
        <time>2013-04-21T12:59:42Z</time>
      </trkpt>
      <trkpt lat="59.803841" lon="17.6053902">
        <ele>15.5184</ele>
        <time>2013-04-21T12:59:43Z</time>
      </trkpt>
      <trkpt lat="59.803786" lon="17.6054161">
        <ele>15.999</ele>
        <time>2013-04-21T12:59:44Z</time>
      </trkpt>
      <trkpt lat="59.8037314" lon="17.6054454">
        <ele>16.4797</ele>
        <time>2013-04-21T12:59:45Z</time>
      </trkpt>
      <trkpt lat="59.8036771" lon="17.6054783">
        <ele>16.4797</ele>
        <time>2013-04-21T12:59:46Z</time>
      </trkpt>
      <trkpt lat="59.8036223" lon="17.6055131">
        <ele>16.9604</ele>
        <time>2013-04-21T12:59:47Z</time>
      </trkpt>
      <trkpt lat="59.8035669" lon="17.6055499">
        <ele>16.9604</ele>
        <time>2013-04-21T12:59:48Z</time>
      </trkpt>
      <trkpt lat="59.8035128" lon="17.6055894">
        <ele>16.9604</ele>
        <time>2013-04-21T12:59:49Z</time>
      </trkpt>
      <trkpt lat="59.8034613" lon="17.6056326">
        <ele>17.4412</ele>
        <time>2013-04-21T12:59:50Z</time>
      </trkpt>
      <trkpt lat="59.8034077" lon="17.6056797">
        <ele>17.9218</ele>
        <time>2013-04-21T12:59:51Z</time>
      </trkpt>
      <trkpt lat="59.803353" lon="17.6057293">
        <ele>18.4023</ele>
        <time>2013-04-21T12:59:52Z</time>
      </trkpt>
      <trkpt lat="59.8032968" lon="17.6057812">
        <ele>18.8831</ele>
        <time>2013-04-21T12:59:53Z</time>
      </trkpt>
      <trkpt lat="59.8032429" lon="17.6058363">
        <ele>19.3638</ele>
        <time>2013-04-21T12:59:54Z</time>
      </trkpt>
      <trkpt lat="59.8031915" lon="17.6058968">
        <ele>19.3638</ele>
        <time>2013-04-21T12:59:55Z</time>
      </trkpt>
      <trkpt lat="59.8031452" lon="17.6059538">
        <ele>19.8444</ele>
        <time>2013-04-21T12:59:56Z</time>
      </trkpt>
      <trkpt lat="59.8030984" lon="17.6060066">
        <ele>19.3638</ele>
        <time>2013-04-21T12:59:57Z</time>
      </trkpt>
      <trkpt lat="59.8030533" lon="17.6060608">
        <ele>19.3638</ele>
        <time>2013-04-21T12:59:58Z</time>
      </trkpt>
      <trkpt lat="59.8030054" lon="17.6061246">
        <ele>19.3638</ele>
        <time>2013-04-21T12:59:59Z</time>
      </trkpt>
      <trkpt lat="59.8029598" lon="17.6061894">
        <ele>19.8444</ele>
        <time>2013-04-21T13:00:00Z</time>
      </trkpt>
      <trkpt lat="59.80291" lon="17.6062579">
        <ele>20.325</ele>
        <time>2013-04-21T13:00:01Z</time>
      </trkpt>
      <trkpt lat="59.8028579" lon="17.6063315">
        <ele>20.8057</ele>
        <time>2013-04-21T13:00:02Z</time>
      </trkpt>
      <trkpt lat="59.8028079" lon="17.606406">
        <ele>21.2864</ele>
        <time>2013-04-21T13:00:03Z</time>
      </trkpt>
      <trkpt lat="59.8027573" lon="17.6064804">
        <ele>21.2864</ele>
        <time>2013-04-21T13:00:04Z</time>
      </trkpt>
      <trkpt lat="59.8027063" lon="17.6065605">
        <ele>20.8057</ele>
        <time>2013-04-21T13:00:05Z</time>
      </trkpt>
      <trkpt lat="59.8026521" lon="17.6066407">
        <ele>20.8057</ele>
        <time>2013-04-21T13:00:06Z</time>
      </trkpt>
      <trkpt lat="59.8026013" lon="17.6067189">
        <ele>20.325</ele>
        <time>2013-04-21T13:00:07Z</time>
      </trkpt>
      <trkpt lat="59.802551" lon="17.6068012">
        <ele>19.8444</ele>
        <time>2013-04-21T13:00:08Z</time>
      </trkpt>
      <trkpt lat="59.8025024" lon="17.6068777">
        <ele>19.8444</ele>
        <time>2013-04-21T13:00:09Z</time>
      </trkpt>
      <trkpt lat="59.8024542" lon="17.6069505">
        <ele>19.8444</ele>
        <time>2013-04-21T13:00:10Z</time>
      </trkpt>
      <trkpt lat="59.8024064" lon="17.6070266">
        <ele>19.8444</ele>
        <time>2013-04-21T13:00:11Z</time>
      </trkpt>
      <trkpt lat="59.8023595" lon="17.6071044">
        <ele>19.8444</ele>
        <time>2013-04-21T13:00:12Z</time>
      </trkpt>
      <trkpt lat="59.8023119" lon="17.607179">
        <ele>20.325</ele>
        <time>2013-04-21T13:00:13Z</time>
      </trkpt>
      <trkpt lat="59.8022652" lon="17.6072528">
        <ele>20.325</ele>
        <time>2013-04-21T13:00:14Z</time>
      </trkpt>
      <trkpt lat="59.8022197" lon="17.607327">
        <ele>20.8057</ele>
        <time>2013-04-21T13:00:15Z</time>
      </trkpt>
      <trkpt lat="59.8021744" lon="17.6073993">
        <ele>20.8057</ele>
        <time>2013-04-21T13:00:16Z</time>
      </trkpt>
      <trkpt lat="59.8021294" lon="17.6074691">
        <ele>20.8057</ele>
        <time>2013-04-21T13:00:17Z</time>
      </trkpt>
      <trkpt lat="59.8020859" lon="17.6075374">
        <ele>20.8057</ele>
        <time>2013-04-21T13:00:18Z</time>
      </trkpt>
      <trkpt lat="59.8020443" lon="17.6076053">
        <ele>21.2864</ele>
        <time>2013-04-21T13:00:19Z</time>
      </trkpt>
      <trkpt lat="59.8020065" lon="17.6076715">
        <ele>21.767</ele>
        <time>2013-04-21T13:00:20Z</time>
      </trkpt>
      <trkpt lat="59.8019678" lon="17.6077362">
        <ele>22.2476</ele>
        <time>2013-04-21T13:00:21Z</time>
      </trkpt>
      <trkpt lat="59.8019305" lon="17.6078011">
        <ele>22.7283</ele>
        <time>2013-04-21T13:00:22Z</time>
      </trkpt>
      <trkpt lat="59.8018922" lon="17.6078653">
        <ele>22.7283</ele>
        <time>2013-04-21T13:00:23Z</time>
      </trkpt>
      <trkpt lat="59.8018533" lon="17.6079282">
        <ele>23.209</ele>
        <time>2013-04-21T13:00:24Z</time>
      </trkpt>
      <trkpt lat="59.8018134" lon="17.6079998">
        <ele>23.6896</ele>
        <time>2013-04-21T13:00:25Z</time>
      </trkpt>
      <trkpt lat="59.8017719" lon="17.6080709">
        <ele>23.6896</ele>
        <time>2013-04-21T13:00:26Z</time>
      </trkpt>
      <trkpt lat="59.8017355" lon="17.6081334">
        <ele>23.6896</ele>
        <time>2013-04-21T13:00:27Z</time>
      </trkpt>
      <trkpt lat="59.8017008" lon="17.6081987">
        <ele>24.1703</ele>
        <time>2013-04-21T13:00:28Z</time>
      </trkpt>
      <trkpt lat="59.8016601" lon="17.6082765">
        <ele>24.1703</ele>
        <time>2013-04-21T13:00:29Z</time>
      </trkpt>
      <trkpt lat="59.8016214" lon="17.6083557">
        <ele>24.1703</ele>
        <time>2013-04-21T13:00:30Z</time>
      </trkpt>
      <trkpt lat="59.801581" lon="17.6084397">
        <ele>24.1703</ele>
        <time>2013-04-21T13:00:31Z</time>
      </trkpt>
      <trkpt lat="59.8015409" lon="17.6085242">
        <ele>24.651</ele>
        <time>2013-04-21T13:00:32Z</time>
      </trkpt>
      <trkpt lat="59.8014958" lon="17.6086138">
        <ele>24.651</ele>
        <time>2013-04-21T13:00:33Z</time>
      </trkpt>
      <trkpt lat="59.8014477" lon="17.608709">
        <ele>25.1317</ele>
        <time>2013-04-21T13:00:34Z</time>
      </trkpt>
      <trkpt lat="59.8014031" lon="17.6088028">
        <ele>25.1317</ele>
        <time>2013-04-21T13:00:35Z</time>
      </trkpt>
      <trkpt lat="59.8013602" lon="17.6089017">
        <ele>25.6123</ele>
        <time>2013-04-21T13:00:36Z</time>
      </trkpt>
      <trkpt lat="59.8013176" lon="17.6090101">
        <ele>25.1317</ele>
        <time>2013-04-21T13:00:37Z</time>
      </trkpt>
      <trkpt lat="59.8012771" lon="17.6091183">
        <ele>24.651</ele>
        <time>2013-04-21T13:00:38Z</time>
      </trkpt>
      <trkpt lat="59.8012338" lon="17.6092302">
        <ele>24.651</ele>
        <time>2013-04-21T13:00:39Z</time>
      </trkpt>
      <trkpt lat="59.8011923" lon="17.6093458">
        <ele>24.651</ele>
        <time>2013-04-21T13:00:40Z</time>
      </trkpt>
      <trkpt lat="59.8011587" lon="17.6094623">
        <ele>23.6896</ele>
        <time>2013-04-21T13:00:41Z</time>
      </trkpt>
      <trkpt lat="59.8011266" lon="17.6095845">
        <ele>23.209</ele>
        <time>2013-04-21T13:00:42Z</time>
      </trkpt>
      <trkpt lat="59.8010951" lon="17.6097119">
        <ele>22.7283</ele>
        <time>2013-04-21T13:00:43Z</time>
      </trkpt>
      <trkpt lat="59.8010644" lon="17.6098426">
        <ele>22.2476</ele>
        <time>2013-04-21T13:00:44Z</time>
      </trkpt>
      <trkpt lat="59.8010333" lon="17.6099757">
        <ele>21.767</ele>
        <time>2013-04-21T13:00:45Z</time>
      </trkpt>
      <trkpt lat="59.8010034" lon="17.6101106">
        <ele>21.2864</ele>
        <time>2013-04-21T13:00:46Z</time>
      </trkpt>
      <trkpt lat="59.8009746" lon="17.6102458">
        <ele>21.2864</ele>
        <time>2013-04-21T13:00:47Z</time>
      </trkpt>
      <trkpt lat="59.800945" lon="17.6103795">
        <ele>20.8057</ele>
        <time>2013-04-21T13:00:48Z</time>
      </trkpt>
      <trkpt lat="59.8009162" lon="17.6105121">
        <ele>20.8057</ele>
        <time>2013-04-21T13:00:49Z</time>
      </trkpt>
      <trkpt lat="59.8008898" lon="17.6106439">
        <ele>20.8057</ele>
        <time>2013-04-21T13:00:50Z</time>
      </trkpt>
      <trkpt lat="59.8008644" lon="17.6107727">
        <ele>20.8057</ele>
        <time>2013-04-21T13:00:51Z</time>
      </trkpt>
      <trkpt lat="59.800839" lon="17.6108986">
        <ele>20.8057</ele>
        <time>2013-04-21T13:00:52Z</time>
      </trkpt>
      <trkpt lat="59.8008147" lon="17.6110203">
        <ele>20.8057</ele>
        <time>2013-04-21T13:00:53Z</time>
      </trkpt>
      <trkpt lat="59.8007919" lon="17.6111381">
        <ele>20.8057</ele>
        <time>2013-04-21T13:00:54Z</time>
      </trkpt>
      <trkpt lat="59.8007696" lon="17.6112523">
        <ele>21.2864</ele>
        <time>2013-04-21T13:00:55Z</time>
      </trkpt>
      <trkpt lat="59.800749" lon="17.6113603">
        <ele>21.2864</ele>
        <time>2013-04-21T13:00:56Z</time>
      </trkpt>
      <trkpt lat="59.8007294" lon="17.6114647">
        <ele>21.2864</ele>
        <time>2013-04-21T13:00:57Z</time>
      </trkpt>
      <trkpt lat="59.8007088" lon="17.611568">
        <ele>21.767</ele>
        <time>2013-04-21T13:00:58Z</time>
      </trkpt>
      <trkpt lat="59.8006883" lon="17.6116691">
        <ele>21.767</ele>
        <time>2013-04-21T13:00:59Z</time>
      </trkpt>
      <trkpt lat="59.8006702" lon="17.6117747">
        <ele>21.767</ele>
        <time>2013-04-21T13:01:00Z</time>
      </trkpt>
      <trkpt lat="59.8006527" lon="17.6118773">
        <ele>21.767</ele>
        <time>2013-04-21T13:01:01Z</time>
      </trkpt>
      <trkpt lat="59.8006334" lon="17.6119773">
        <ele>21.767</ele>
        <time>2013-04-21T13:01:02Z</time>
      </trkpt>
      <trkpt lat="59.8006126" lon="17.6120693">
        <ele>22.2476</ele>
        <time>2013-04-21T13:01:03Z</time>
      </trkpt>
      <trkpt lat="59.8005916" lon="17.612154">
        <ele>22.2476</ele>
        <time>2013-04-21T13:01:04Z</time>
      </trkpt>
      <trkpt lat="59.800576" lon="17.6122412">
        <ele>22.7283</ele>
        <time>2013-04-21T13:01:05Z</time>
      </trkpt>
      <trkpt lat="59.8005589" lon="17.6123326">
        <ele>22.7283</ele>
        <time>2013-04-21T13:01:06Z</time>
      </trkpt>
      <trkpt lat="59.8005448" lon="17.6124227">
        <ele>22.7283</ele>
        <time>2013-04-21T13:01:07Z</time>
      </trkpt>
      <trkpt lat="59.8005349" lon="17.6125085">
        <ele>22.7283</ele>
        <time>2013-04-21T13:01:08Z</time>
      </trkpt>
      <trkpt lat="59.8005218" lon="17.6125914">
        <ele>22.7283</ele>
        <time>2013-04-21T13:01:09Z</time>
      </trkpt>
      <trkpt lat="59.8005085" lon="17.612673">
        <ele>23.209</ele>
        <time>2013-04-21T13:01:10Z</time>
      </trkpt>
      <trkpt lat="59.8004947" lon="17.6127542">
        <ele>23.209</ele>
        <time>2013-04-21T13:01:11Z</time>
      </trkpt>
      <trkpt lat="59.8004823" lon="17.6128313">
        <ele>23.209</ele>
        <time>2013-04-21T13:01:12Z</time>
      </trkpt>
      <trkpt lat="59.8004686" lon="17.612907">
        <ele>23.6896</ele>
        <time>2013-04-21T13:01:13Z</time>
      </trkpt>
      <trkpt lat="59.8004546" lon="17.6129754">
        <ele>23.209</ele>
        <time>2013-04-21T13:01:14Z</time>
      </trkpt>
      <trkpt lat="59.8004412" lon="17.6130416">
        <ele>23.209</ele>
        <time>2013-04-21T13:01:15Z</time>
      </trkpt>
      <trkpt lat="59.8004293" lon="17.6131042">
        <ele>23.6896</ele>
        <time>2013-04-21T13:01:16Z</time>
      </trkpt>
      <trkpt lat="59.8004154" lon="17.613167">
        <ele>23.6896</ele>
        <time>2013-04-21T13:01:17Z</time>
      </trkpt>
      <trkpt lat="59.8003993" lon="17.6132325">
        <ele>24.651</ele>
        <time>2013-04-21T13:01:18Z</time>
      </trkpt>
      <trkpt lat="59.8003879" lon="17.6132946">
        <ele>25.1317</ele>
        <time>2013-04-21T13:01:19Z</time>
      </trkpt>
      <trkpt lat="59.8003738" lon="17.6133679">
        <ele>25.1317</ele>
        <time>2013-04-21T13:01:20Z</time>
      </trkpt>
      <trkpt lat="59.8003595" lon="17.6134337">
        <ele>25.6123</ele>
        <time>2013-04-21T13:01:21Z</time>
      </trkpt>
      <trkpt lat="59.8003471" lon="17.613498">
        <ele>25.6123</ele>
        <time>2013-04-21T13:01:22Z</time>
      </trkpt>
      <trkpt lat="59.8003336" lon="17.6135652">
        <ele>26.0929</ele>
        <time>2013-04-21T13:01:23Z</time>
      </trkpt>
      <trkpt lat="59.800321" lon="17.6136313">
        <ele>26.0929</ele>
        <time>2013-04-21T13:01:24Z</time>
      </trkpt>
      <trkpt lat="59.8003067" lon="17.6136976">
        <ele>26.0929</ele>
        <time>2013-04-21T13:01:25Z</time>
      </trkpt>
      <trkpt lat="59.8002925" lon="17.6137669">
        <ele>26.5736</ele>
        <time>2013-04-21T13:01:26Z</time>
      </trkpt>
      <trkpt lat="59.800277" lon="17.6138389">
        <ele>26.5736</ele>
        <time>2013-04-21T13:01:27Z</time>
      </trkpt>
      <trkpt lat="59.8002603" lon="17.6139109">
        <ele>26.5736</ele>
        <time>2013-04-21T13:01:28Z</time>
      </trkpt>
      <trkpt lat="59.8002413" lon="17.6139807">
        <ele>27.0543</ele>
        <time>2013-04-21T13:01:29Z</time>
      </trkpt>
      <trkpt lat="59.8002238" lon="17.6140496">
        <ele>27.5349</ele>
        <time>2013-04-21T13:01:30Z</time>
      </trkpt>
      <trkpt lat="59.800204" lon="17.614119">
        <ele>28.0155</ele>
        <time>2013-04-21T13:01:31Z</time>
      </trkpt>
      <trkpt lat="59.8001849" lon="17.6141875">
        <ele>28.0155</ele>
        <time>2013-04-21T13:01:32Z</time>
      </trkpt>
      <trkpt lat="59.8001636" lon="17.614258">
        <ele>28.4962</ele>
        <time>2013-04-21T13:01:33Z</time>
      </trkpt>
      <trkpt lat="59.8001414" lon="17.614329">
        <ele>28.4962</ele>
        <time>2013-04-21T13:01:34Z</time>
      </trkpt>
      <trkpt lat="59.8001175" lon="17.6144003">
        <ele>28.4962</ele>
        <time>2013-04-21T13:01:35Z</time>
      </trkpt>
      <trkpt lat="59.8000935" lon="17.6144702">
        <ele>28.9769</ele>
        <time>2013-04-21T13:01:36Z</time>
      </trkpt>
      <trkpt lat="59.8000698" lon="17.6145398">
        <ele>28.9769</ele>
        <time>2013-04-21T13:01:37Z</time>
      </trkpt>
      <trkpt lat="59.8000466" lon="17.6146071">
        <ele>28.9769</ele>
        <time>2013-04-21T13:01:38Z</time>
      </trkpt>
      <trkpt lat="59.8000254" lon="17.6146703">
        <ele>28.9769</ele>
        <time>2013-04-21T13:01:39Z</time>
      </trkpt>
      <trkpt lat="59.8000015" lon="17.6147409">
        <ele>29.4575</ele>
        <time>2013-04-21T13:01:40Z</time>
      </trkpt>
      <trkpt lat="59.7999793" lon="17.6148061">
        <ele>29.4575</ele>
        <time>2013-04-21T13:01:41Z</time>
      </trkpt>
      <trkpt lat="59.7999568" lon="17.6148701">
        <ele>29.4575</ele>
        <time>2013-04-21T13:01:42Z</time>
      </trkpt>
      <trkpt lat="59.7999336" lon="17.6149305">
        <ele>29.9381</ele>
        <time>2013-04-21T13:01:43Z</time>
      </trkpt>
      <trkpt lat="59.7999086" lon="17.6149932">
        <ele>29.9381</ele>
        <time>2013-04-21T13:01:44Z</time>
      </trkpt>
      <trkpt lat="59.7998859" lon="17.6150543">
        <ele>29.9381</ele>
        <time>2013-04-21T13:01:45Z</time>
      </trkpt>
      <trkpt lat="59.7998621" lon="17.6151138">
        <ele>29.9381</ele>
        <time>2013-04-21T13:01:46Z</time>
      </trkpt>
      <trkpt lat="59.7998362" lon="17.6151723">
        <ele>29.9381</ele>
        <time>2013-04-21T13:01:47Z</time>
      </trkpt>
      <trkpt lat="59.7998081" lon="17.615237">
        <ele>29.9381</ele>
        <time>2013-04-21T13:01:48Z</time>
      </trkpt>
      <trkpt lat="59.7997812" lon="17.6153016">
        <ele>29.9381</ele>
        <time>2013-04-21T13:01:49Z</time>
      </trkpt>
      <trkpt lat="59.7997531" lon="17.6153664">
        <ele>29.9381</ele>
        <time>2013-04-21T13:01:50Z</time>
      </trkpt>
      <trkpt lat="59.7997213" lon="17.6154313">
        <ele>29.9381</ele>
        <time>2013-04-21T13:01:51Z</time>
      </trkpt>
      <trkpt lat="59.7996894" lon="17.6154955">
        <ele>29.9381</ele>
        <time>2013-04-21T13:01:52Z</time>
      </trkpt>
      <trkpt lat="59.7996569" lon="17.6155608">
        <ele>29.9381</ele>
        <time>2013-04-21T13:01:53Z</time>
      </trkpt>
      <trkpt lat="59.7996206" lon="17.6156298">
        <ele>29.9381</ele>
        <time>2013-04-21T13:01:54Z</time>
      </trkpt>
      <trkpt lat="59.7995816" lon="17.615698">
        <ele>29.4575</ele>
        <time>2013-04-21T13:01:55Z</time>
      </trkpt>
      <trkpt lat="59.7995424" lon="17.6157591">
        <ele>29.4575</ele>
        <time>2013-04-21T13:01:56Z</time>
      </trkpt>
      <trkpt lat="59.7995011" lon="17.6158232">
        <ele>28.9769</ele>
        <time>2013-04-21T13:01:57Z</time>
      </trkpt>
      <trkpt lat="59.7994587" lon="17.6158899">
        <ele>28.4962</ele>
        <time>2013-04-21T13:01:58Z</time>
      </trkpt>
      <trkpt lat="59.7994165" lon="17.615953">
        <ele>28.4962</ele>
        <time>2013-04-21T13:01:59Z</time>
      </trkpt>
      <trkpt lat="59.7993725" lon="17.6160135">
        <ele>28.0155</ele>
        <time>2013-04-21T13:02:00Z</time>
      </trkpt>
      <trkpt lat="59.7993257" lon="17.6160721">
        <ele>27.5349</ele>
        <time>2013-04-21T13:02:01Z</time>
      </trkpt>
      <trkpt lat="59.799283" lon="17.6161265">
        <ele>27.5349</ele>
        <time>2013-04-21T13:02:02Z</time>
      </trkpt>
      <trkpt lat="59.7992366" lon="17.616187">
        <ele>27.0543</ele>
        <time>2013-04-21T13:02:03Z</time>
      </trkpt>
      <trkpt lat="59.7991895" lon="17.6162442">
        <ele>26.5736</ele>
        <time>2013-04-21T13:02:04Z</time>
      </trkpt>
      <trkpt lat="59.7991395" lon="17.6163017">
        <ele>26.5736</ele>
        <time>2013-04-21T13:02:05Z</time>
      </trkpt>
      <trkpt lat="59.7990883" lon="17.6163576">
        <ele>26.0929</ele>
        <time>2013-04-21T13:02:06Z</time>
      </trkpt>
      <trkpt lat="59.799036" lon="17.6164109">
        <ele>26.0929</ele>
        <time>2013-04-21T13:02:07Z</time>
      </trkpt>
      <trkpt lat="59.7989841" lon="17.6164612">
        <ele>26.0929</ele>
        <time>2013-04-21T13:02:08Z</time>
      </trkpt>
      <trkpt lat="59.7989313" lon="17.6165138">
        <ele>25.6123</ele>
        <time>2013-04-21T13:02:09Z</time>
      </trkpt>
      <trkpt lat="59.7988805" lon="17.6165655">
        <ele>25.6123</ele>
        <time>2013-04-21T13:02:10Z</time>
      </trkpt>
      <trkpt lat="59.7988287" lon="17.6166199">
        <ele>25.6123</ele>
        <time>2013-04-21T13:02:11Z</time>
      </trkpt>
      <trkpt lat="59.7987744" lon="17.6166734">
        <ele>25.6123</ele>
        <time>2013-04-21T13:02:12Z</time>
      </trkpt>
      <trkpt lat="59.7987188" lon="17.6167206">
        <ele>25.6123</ele>
        <time>2013-04-21T13:02:13Z</time>
      </trkpt>
      <trkpt lat="59.7986642" lon="17.6167667">
        <ele>25.6123</ele>
        <time>2013-04-21T13:02:14Z</time>
      </trkpt>
      <trkpt lat="59.7986114" lon="17.6168132">
        <ele>25.6123</ele>
        <time>2013-04-21T13:02:15Z</time>
      </trkpt>
      <trkpt lat="59.7985584" lon="17.6168615">
        <ele>25.6123</ele>
        <time>2013-04-21T13:02:16Z</time>
      </trkpt>
      <trkpt lat="59.7985042" lon="17.6169097">
        <ele>25.6123</ele>
        <time>2013-04-21T13:02:17Z</time>
      </trkpt>
      <trkpt lat="59.7984491" lon="17.6169584">
        <ele>25.6123</ele>
        <time>2013-04-21T13:02:18Z</time>
      </trkpt>
      <trkpt lat="59.7983946" lon="17.6170088">
        <ele>26.0929</ele>
        <time>2013-04-21T13:02:19Z</time>
      </trkpt>
      <trkpt lat="59.7983398" lon="17.61706">
        <ele>26.0929</ele>
        <time>2013-04-21T13:02:20Z</time>
      </trkpt>
      <trkpt lat="59.7982848" lon="17.6171115">
        <ele>26.0929</ele>
        <time>2013-04-21T13:02:21Z</time>
      </trkpt>
      <trkpt lat="59.7982288" lon="17.6171625">
        <ele>26.0929</ele>
        <time>2013-04-21T13:02:22Z</time>
      </trkpt>
      <trkpt lat="59.798173" lon="17.6172127">
        <ele>26.0929</ele>
        <time>2013-04-21T13:02:23Z</time>
      </trkpt>
      <trkpt lat="59.798118" lon="17.6172625">
        <ele>26.5736</ele>
        <time>2013-04-21T13:02:24Z</time>
      </trkpt>
      <trkpt lat="59.7980634" lon="17.6173121">
        <ele>26.5736</ele>
        <time>2013-04-21T13:02:25Z</time>
      </trkpt>
      <trkpt lat="59.7980091" lon="17.6173615">
        <ele>26.5736</ele>
        <time>2013-04-21T13:02:26Z</time>
      </trkpt>
      <trkpt lat="59.7979557" lon="17.6174122">
        <ele>26.5736</ele>
        <time>2013-04-21T13:02:27Z</time>
      </trkpt>
      <trkpt lat="59.7979025" lon="17.6174625">
        <ele>27.0543</ele>
        <time>2013-04-21T13:02:28Z</time>
      </trkpt>
      <trkpt lat="59.7978491" lon="17.6175142">
        <ele>27.0543</ele>
        <time>2013-04-21T13:02:29Z</time>
      </trkpt>
      <trkpt lat="59.7977947" lon="17.6175659">
        <ele>27.0543</ele>
        <time>2013-04-21T13:02:30Z</time>
      </trkpt>
      <trkpt lat="59.7977391" lon="17.6176169">
        <ele>27.0543</ele>
        <time>2013-04-21T13:02:31Z</time>
      </trkpt>
      <trkpt lat="59.7976833" lon="17.6176692">
        <ele>27.0543</ele>
        <time>2013-04-21T13:02:32Z</time>
      </trkpt>
      <trkpt lat="59.7976277" lon="17.6177225">
        <ele>27.0543</ele>
        <time>2013-04-21T13:02:33Z</time>
      </trkpt>
      <trkpt lat="59.7975721" lon="17.6177753">
        <ele>27.0543</ele>
        <time>2013-04-21T13:02:34Z</time>
      </trkpt>
      <trkpt lat="59.7975163" lon="17.6178285">
        <ele>26.5736</ele>
        <time>2013-04-21T13:02:35Z</time>
      </trkpt>
      <trkpt lat="59.7974596" lon="17.6178814">
        <ele>26.5736</ele>
        <time>2013-04-21T13:02:36Z</time>
      </trkpt>
      <trkpt lat="59.7974021" lon="17.6179338">
        <ele>26.5736</ele>
        <time>2013-04-21T13:02:37Z</time>
      </trkpt>
      <trkpt lat="59.7973452" lon="17.6179851">
        <ele>26.5736</ele>
        <time>2013-04-21T13:02:38Z</time>
      </trkpt>
      <trkpt lat="59.7972898" lon="17.6180364">
        <ele>26.0929</ele>
        <time>2013-04-21T13:02:39Z</time>
      </trkpt>
      <trkpt lat="59.7972354" lon="17.618087">
        <ele>26.0929</ele>
        <time>2013-04-21T13:02:40Z</time>
      </trkpt>
      <trkpt lat="59.7971814" lon="17.6181359">
        <ele>26.0929</ele>
        <time>2013-04-21T13:02:41Z</time>
      </trkpt>
      <trkpt lat="59.7971275" lon="17.6181855">
        <ele>26.0929</ele>
        <time>2013-04-21T13:02:42Z</time>
      </trkpt>
      <trkpt lat="59.7970736" lon="17.6182363">
        <ele>26.0929</ele>
        <time>2013-04-21T13:02:43Z</time>
      </trkpt>
      <trkpt lat="59.7970197" lon="17.6182887">
        <ele>26.0929</ele>
        <time>2013-04-21T13:02:44Z</time>
      </trkpt>
      <trkpt lat="59.7969648" lon="17.6183403">
        <ele>26.0929</ele>
        <time>2013-04-21T13:02:45Z</time>
      </trkpt>
      <trkpt lat="59.7969082" lon="17.6183922">
        <ele>26.0929</ele>
        <time>2013-04-21T13:02:46Z</time>
      </trkpt>
      <trkpt lat="59.7968499" lon="17.6184481">
        <ele>26.0929</ele>
        <time>2013-04-21T13:02:47Z</time>
      </trkpt>
      <trkpt lat="59.7967907" lon="17.6185062">
        <ele>26.0929</ele>
        <time>2013-04-21T13:02:48Z</time>
      </trkpt>
      <trkpt lat="59.796731" lon="17.6185632">
        <ele>26.5736</ele>
        <time>2013-04-21T13:02:49Z</time>
      </trkpt>
      <trkpt lat="59.7966704" lon="17.6186179">
        <ele>26.5736</ele>
        <time>2013-04-21T13:02:50Z</time>
      </trkpt>
      <trkpt lat="59.7966088" lon="17.6186678">
        <ele>27.0543</ele>
        <time>2013-04-21T13:02:51Z</time>
      </trkpt>
      <trkpt lat="59.7965479" lon="17.6187166">
        <ele>27.0543</ele>
        <time>2013-04-21T13:02:52Z</time>
      </trkpt>
      <trkpt lat="59.7964883" lon="17.6187673">
        <ele>27.5349</ele>
        <time>2013-04-21T13:02:53Z</time>
      </trkpt>
      <trkpt lat="59.7964303" lon="17.6188191">
        <ele>27.5349</ele>
        <time>2013-04-21T13:02:54Z</time>
      </trkpt>
      <trkpt lat="59.7963734" lon="17.6188702">
        <ele>27.5349</ele>
        <time>2013-04-21T13:02:55Z</time>
      </trkpt>
      <trkpt lat="59.7963179" lon="17.6189216">
        <ele>28.0155</ele>
        <time>2013-04-21T13:02:56Z</time>
      </trkpt>
      <trkpt lat="59.7962633" lon="17.6189724">
        <ele>28.0155</ele>
        <time>2013-04-21T13:02:57Z</time>
      </trkpt>
      <trkpt lat="59.7962079" lon="17.6190211">
        <ele>28.4962</ele>
        <time>2013-04-21T13:02:58Z</time>
      </trkpt>
      <trkpt lat="59.7961526" lon="17.6190713">
        <ele>28.4962</ele>
        <time>2013-04-21T13:02:59Z</time>
      </trkpt>
      <trkpt lat="59.7960983" lon="17.6191214">
        <ele>28.4962</ele>
        <time>2013-04-21T13:03:00Z</time>
      </trkpt>
      <trkpt lat="59.7960443" lon="17.6191704">
        <ele>28.9769</ele>
        <time>2013-04-21T13:03:01Z</time>
      </trkpt>
      <trkpt lat="59.795991" lon="17.6192211">
        <ele>28.9769</ele>
        <time>2013-04-21T13:03:02Z</time>
      </trkpt>
      <trkpt lat="59.7959388" lon="17.6192727">
        <ele>28.9769</ele>
        <time>2013-04-21T13:03:03Z</time>
      </trkpt>
      <trkpt lat="59.7958862" lon="17.6193225">
        <ele>29.4575</ele>
        <time>2013-04-21T13:03:04Z</time>
      </trkpt>
      <trkpt lat="59.7958331" lon="17.6193733">
        <ele>29.4575</ele>
        <time>2013-04-21T13:03:05Z</time>
      </trkpt>
      <trkpt lat="59.7957807" lon="17.6194267">
        <ele>28.9769</ele>
        <time>2013-04-21T13:03:06Z</time>
      </trkpt>
      <trkpt lat="59.7957284" lon="17.6194821">
        <ele>28.9769</ele>
        <time>2013-04-21T13:03:07Z</time>
      </trkpt>
      <trkpt lat="59.7956759" lon="17.6195368">
        <ele>28.9769</ele>
        <time>2013-04-21T13:03:08Z</time>
      </trkpt>
      <trkpt lat="59.7956222" lon="17.6195873">
        <ele>28.9769</ele>
        <time>2013-04-21T13:03:09Z</time>
      </trkpt>
      <trkpt lat="59.7955674" lon="17.6196324">
        <ele>28.9769</ele>
        <time>2013-04-21T13:03:10Z</time>
      </trkpt>
      <trkpt lat="59.795513" lon="17.6196758">
        <ele>28.9769</ele>
        <time>2013-04-21T13:03:11Z</time>
      </trkpt>
      <trkpt lat="59.7954591" lon="17.6197209">
        <ele>28.9769</ele>
        <time>2013-04-21T13:03:12Z</time>
      </trkpt>
      <trkpt lat="59.7954055" lon="17.6197668">
        <ele>28.9769</ele>
        <time>2013-04-21T13:03:13Z</time>
      </trkpt>
      <trkpt lat="59.7953518" lon="17.6198131">
        <ele>28.9769</ele>
        <time>2013-04-21T13:03:14Z</time>
      </trkpt>
      <trkpt lat="59.7952984" lon="17.6198612">
        <ele>28.9769</ele>
        <time>2013-04-21T13:03:15Z</time>
      </trkpt>
      <trkpt lat="59.7952452" lon="17.6199105">
        <ele>28.9769</ele>
        <time>2013-04-21T13:03:16Z</time>
      </trkpt>
      <trkpt lat="59.7951933" lon="17.6199598">
        <ele>29.4575</ele>
        <time>2013-04-21T13:03:17Z</time>
      </trkpt>
      <trkpt lat="59.7951399" lon="17.6200091">
        <ele>29.4575</ele>
        <time>2013-04-21T13:03:18Z</time>
      </trkpt>
      <trkpt lat="59.7950872" lon="17.6200606">
        <ele>29.9381</ele>
        <time>2013-04-21T13:03:19Z</time>
      </trkpt>
      <trkpt lat="59.7950333" lon="17.6201136">
        <ele>29.9381</ele>
        <time>2013-04-21T13:03:20Z</time>
      </trkpt>
      <trkpt lat="59.7949788" lon="17.6201638">
        <ele>30.4188</ele>
        <time>2013-04-21T13:03:21Z</time>
      </trkpt>
      <trkpt lat="59.7949225" lon="17.6202156">
        <ele>30.4188</ele>
        <time>2013-04-21T13:03:22Z</time>
      </trkpt>
      <trkpt lat="59.7948665" lon="17.620268">
        <ele>30.4188</ele>
        <time>2013-04-21T13:03:23Z</time>
      </trkpt>
      <trkpt lat="59.7948077" lon="17.6203227">
        <ele>29.9381</ele>
        <time>2013-04-21T13:03:24Z</time>
      </trkpt>
      <trkpt lat="59.7947483" lon="17.6203793">
        <ele>29.9381</ele>
        <time>2013-04-21T13:03:25Z</time>
      </trkpt>
      <trkpt lat="59.7946877" lon="17.6204357">
        <ele>29.4575</ele>
        <time>2013-04-21T13:03:26Z</time>
      </trkpt>
      <trkpt lat="59.7946253" lon="17.6204915">
        <ele>29.4575</ele>
        <time>2013-04-21T13:03:27Z</time>
      </trkpt>
      <trkpt lat="59.7945622" lon="17.6205488">
        <ele>28.9769</ele>
        <time>2013-04-21T13:03:28Z</time>
      </trkpt>
      <trkpt lat="59.7944994" lon="17.6206077">
        <ele>28.9769</ele>
        <time>2013-04-21T13:03:29Z</time>
      </trkpt>
      <trkpt lat="59.7944366" lon="17.6206666">
        <ele>28.4962</ele>
        <time>2013-04-21T13:03:30Z</time>
      </trkpt>
      <trkpt lat="59.7943741" lon="17.6207247">
        <ele>28.4962</ele>
        <time>2013-04-21T13:03:31Z</time>
      </trkpt>
      <trkpt lat="59.7943119" lon="17.6207817">
        <ele>28.0155</ele>
        <time>2013-04-21T13:03:32Z</time>
      </trkpt>
      <trkpt lat="59.7942501" lon="17.6208394">
        <ele>28.0155</ele>
        <time>2013-04-21T13:03:33Z</time>
      </trkpt>
      <trkpt lat="59.7941882" lon="17.6208962">
        <ele>27.5349</ele>
        <time>2013-04-21T13:03:34Z</time>
      </trkpt>
      <trkpt lat="59.7941261" lon="17.6209531">
        <ele>27.5349</ele>
        <time>2013-04-21T13:03:35Z</time>
      </trkpt>
      <trkpt lat="59.7940649" lon="17.6210137">
        <ele>27.5349</ele>
        <time>2013-04-21T13:03:36Z</time>
      </trkpt>
      <trkpt lat="59.7940049" lon="17.6210771">
        <ele>27.5349</ele>
        <time>2013-04-21T13:03:37Z</time>
      </trkpt>
      <trkpt lat="59.7939433" lon="17.6211387">
        <ele>27.0543</ele>
        <time>2013-04-21T13:03:38Z</time>
      </trkpt>
      <trkpt lat="59.7938796" lon="17.6211998">
        <ele>27.0543</ele>
        <time>2013-04-21T13:03:39Z</time>
      </trkpt>
      <trkpt lat="59.7938139" lon="17.6212599">
        <ele>26.5736</ele>
        <time>2013-04-21T13:03:40Z</time>
      </trkpt>
      <trkpt lat="59.7937489" lon="17.6213215">
        <ele>26.5736</ele>
        <time>2013-04-21T13:03:41Z</time>
      </trkpt>
      <trkpt lat="59.7936846" lon="17.62139">
        <ele>26.5736</ele>
        <time>2013-04-21T13:03:42Z</time>
      </trkpt>
      <trkpt lat="59.7936194" lon="17.6214588">
        <ele>26.5736</ele>
        <time>2013-04-21T13:03:43Z</time>
      </trkpt>
      <trkpt lat="59.7935526" lon="17.6215276">
        <ele>26.0929</ele>
        <time>2013-04-21T13:03:44Z</time>
      </trkpt>
      <trkpt lat="59.793485" lon="17.6216002">
        <ele>26.0929</ele>
        <time>2013-04-21T13:03:45Z</time>
      </trkpt>
      <trkpt lat="59.7934145" lon="17.6216769">
        <ele>25.6123</ele>
        <time>2013-04-21T13:03:46Z</time>
      </trkpt>
      <trkpt lat="59.7933438" lon="17.6217531">
        <ele>25.6123</ele>
        <time>2013-04-21T13:03:47Z</time>
      </trkpt>
      <trkpt lat="59.7932731" lon="17.6218282">
        <ele>25.1317</ele>
        <time>2013-04-21T13:03:48Z</time>
      </trkpt>
      <trkpt lat="59.7932035" lon="17.6219039">
        <ele>24.651</ele>
        <time>2013-04-21T13:03:49Z</time>
      </trkpt>
      <trkpt lat="59.7931332" lon="17.6219794">
        <ele>24.651</ele>
        <time>2013-04-21T13:03:50Z</time>
      </trkpt>
      <trkpt lat="59.7930622" lon="17.6220541">
        <ele>24.1703</ele>
        <time>2013-04-21T13:03:51Z</time>
      </trkpt>
      <trkpt lat="59.7929915" lon="17.622129">
        <ele>23.6896</ele>
        <time>2013-04-21T13:03:52Z</time>
      </trkpt>
      <trkpt lat="59.7929208" lon="17.6222041">
        <ele>23.6896</ele>
        <time>2013-04-21T13:03:53Z</time>
      </trkpt>
      <trkpt lat="59.7928503" lon="17.6222804">
        <ele>23.209</ele>
        <time>2013-04-21T13:03:54Z</time>
      </trkpt>
      <trkpt lat="59.7927795" lon="17.6223565">
        <ele>22.7283</ele>
        <time>2013-04-21T13:03:55Z</time>
      </trkpt>
      <trkpt lat="59.7927077" lon="17.6224332">
        <ele>22.2476</ele>
        <time>2013-04-21T13:03:56Z</time>
      </trkpt>
      <trkpt lat="59.7926394" lon="17.62251">
        <ele>21.767</ele>
        <time>2013-04-21T13:03:57Z</time>
      </trkpt>
      <trkpt lat="59.7925694" lon="17.6225881">
        <ele>21.2864</ele>
        <time>2013-04-21T13:03:58Z</time>
      </trkpt>
      <trkpt lat="59.792499" lon="17.6226652">
        <ele>21.2864</ele>
        <time>2013-04-21T13:03:59Z</time>
      </trkpt>
      <trkpt lat="59.7924288" lon="17.6227431">
        <ele>20.8057</ele>
        <time>2013-04-21T13:04:00Z</time>
      </trkpt>
      <trkpt lat="59.7923592" lon="17.6228218">
        <ele>20.325</ele>
        <time>2013-04-21T13:04:01Z</time>
      </trkpt>
      <trkpt lat="59.7922896" lon="17.6228994">
        <ele>20.325</ele>
        <time>2013-04-21T13:04:02Z</time>
      </trkpt>
      <trkpt lat="59.7922189" lon="17.6229729">
        <ele>19.8444</ele>
        <time>2013-04-21T13:04:03Z</time>
      </trkpt>
      <trkpt lat="59.7921484" lon="17.6230451">
        <ele>19.8444</ele>
        <time>2013-04-21T13:04:04Z</time>
      </trkpt>
      <trkpt lat="59.7920789" lon="17.6231204">
        <ele>19.3638</ele>
        <time>2013-04-21T13:04:05Z</time>
      </trkpt>
      <trkpt lat="59.7920087" lon="17.6231963">
        <ele>19.3638</ele>
        <time>2013-04-21T13:04:06Z</time>
      </trkpt>
      <trkpt lat="59.7919389" lon="17.623274">
        <ele>18.8831</ele>
        <time>2013-04-21T13:04:07Z</time>
      </trkpt>
      <trkpt lat="59.7918692" lon="17.6233536">
        <ele>18.4023</ele>
        <time>2013-04-21T13:04:08Z</time>
      </trkpt>
      <trkpt lat="59.7917987" lon="17.6234309">
        <ele>18.4023</ele>
        <time>2013-04-21T13:04:09Z</time>
      </trkpt>
      <trkpt lat="59.7917278" lon="17.623506">
        <ele>17.9218</ele>
        <time>2013-04-21T13:04:10Z</time>
      </trkpt>
      <trkpt lat="59.7916573" lon="17.6235817">
        <ele>17.9218</ele>
        <time>2013-04-21T13:04:11Z</time>
      </trkpt>
      <trkpt lat="59.791588" lon="17.6236592">
        <ele>17.4412</ele>
        <time>2013-04-21T13:04:12Z</time>
      </trkpt>
      <trkpt lat="59.7915202" lon="17.6237353">
        <ele>17.4412</ele>
        <time>2013-04-21T13:04:13Z</time>
      </trkpt>
      <trkpt lat="59.7914548" lon="17.6238123">
        <ele>16.9604</ele>
        <time>2013-04-21T13:04:14Z</time>
      </trkpt>
      <trkpt lat="59.7913901" lon="17.6238886">
        <ele>16.9604</ele>
        <time>2013-04-21T13:04:15Z</time>
      </trkpt>
      <trkpt lat="59.7913247" lon="17.6239583">
        <ele>16.4797</ele>
        <time>2013-04-21T13:04:16Z</time>
      </trkpt>
      <trkpt lat="59.7912581" lon="17.6240216">
        <ele>16.4797</ele>
        <time>2013-04-21T13:04:17Z</time>
      </trkpt>
      <trkpt lat="59.7911921" lon="17.6240858">
        <ele>16.4797</ele>
        <time>2013-04-21T13:04:18Z</time>
      </trkpt>
      <trkpt lat="59.7911274" lon="17.6241544">
        <ele>16.4797</ele>
        <time>2013-04-21T13:04:19Z</time>
      </trkpt>
      <trkpt lat="59.7910633" lon="17.6242249">
        <ele>16.4797</ele>
        <time>2013-04-21T13:04:20Z</time>
      </trkpt>
      <trkpt lat="59.7909996" lon="17.6242953">
        <ele>16.4797</ele>
        <time>2013-04-21T13:04:21Z</time>
      </trkpt>
      <trkpt lat="59.7909364" lon="17.6243634">
        <ele>16.4797</ele>
        <time>2013-04-21T13:04:22Z</time>
      </trkpt>
      <trkpt lat="59.7908737" lon="17.6244305">
        <ele>16.4797</ele>
        <time>2013-04-21T13:04:23Z</time>
      </trkpt>
      <trkpt lat="59.7908114" lon="17.624497">
        <ele>16.4797</ele>
        <time>2013-04-21T13:04:24Z</time>
      </trkpt>
      <trkpt lat="59.7907489" lon="17.6245637">
        <ele>15.999</ele>
        <time>2013-04-21T13:04:25Z</time>
      </trkpt>
      <trkpt lat="59.7906867" lon="17.6246306">
        <ele>15.999</ele>
        <time>2013-04-21T13:04:26Z</time>
      </trkpt>
      <trkpt lat="59.7906245" lon="17.6246974">
        <ele>15.999</ele>
        <time>2013-04-21T13:04:27Z</time>
      </trkpt>
      <trkpt lat="59.7905628" lon="17.6247652">
        <ele>15.999</ele>
        <time>2013-04-21T13:04:28Z</time>
      </trkpt>
      <trkpt lat="59.7905011" lon="17.6248325">
        <ele>15.999</ele>
        <time>2013-04-21T13:04:29Z</time>
      </trkpt>
      <trkpt lat="59.7904385" lon="17.6248986">
        <ele>15.999</ele>
        <time>2013-04-21T13:04:30Z</time>
      </trkpt>
      <trkpt lat="59.7903754" lon="17.6249637">
        <ele>15.999</ele>
        <time>2013-04-21T13:04:31Z</time>
      </trkpt>
      <trkpt lat="59.7903122" lon="17.6250288">
        <ele>15.5184</ele>
        <time>2013-04-21T13:04:32Z</time>
      </trkpt>
      <trkpt lat="59.7902494" lon="17.6250961">
        <ele>15.5184</ele>
        <time>2013-04-21T13:04:33Z</time>
      </trkpt>
      <trkpt lat="59.7901871" lon="17.6251642">
        <ele>15.5184</ele>
        <time>2013-04-21T13:04:34Z</time>
      </trkpt>
      <trkpt lat="59.7901249" lon="17.6252315">
        <ele>15.5184</ele>
        <time>2013-04-21T13:04:35Z</time>
      </trkpt>
      <trkpt lat="59.7900634" lon="17.6252998">
        <ele>15.5184</ele>
        <time>2013-04-21T13:04:36Z</time>
      </trkpt>
      <trkpt lat="59.7900019" lon="17.6253673">
        <ele>15.5184</ele>
        <time>2013-04-21T13:04:37Z</time>
      </trkpt>
      <trkpt lat="59.7899401" lon="17.6254328">
        <ele>15.5184</ele>
        <time>2013-04-21T13:04:38Z</time>
      </trkpt>
      <trkpt lat="59.7898781" lon="17.6254984">
        <ele>15.5184</ele>
        <time>2013-04-21T13:04:39Z</time>
      </trkpt>
      <trkpt lat="59.7898163" lon="17.6255645">
        <ele>15.5184</ele>
        <time>2013-04-21T13:04:40Z</time>
      </trkpt>
      <trkpt lat="59.7897545" lon="17.6256303">
        <ele>15.5184</ele>
        <time>2013-04-21T13:04:41Z</time>
      </trkpt>
      <trkpt lat="59.7896926" lon="17.6256965">
        <ele>15.5184</ele>
        <time>2013-04-21T13:04:42Z</time>
      </trkpt>
      <trkpt lat="59.7896314" lon="17.6257644">
        <ele>15.0377</ele>
        <time>2013-04-21T13:04:43Z</time>
      </trkpt>
      <trkpt lat="59.7895701" lon="17.6258322">
        <ele>15.0377</ele>
        <time>2013-04-21T13:04:44Z</time>
      </trkpt>
      <trkpt lat="59.7895084" lon="17.6258988">
        <ele>15.0377</ele>
        <time>2013-04-21T13:04:45Z</time>
      </trkpt>
      <trkpt lat="59.7894458" lon="17.6259653">
        <ele>14.557</ele>
        <time>2013-04-21T13:04:46Z</time>
      </trkpt>
      <trkpt lat="59.7893828" lon="17.6260334">
        <ele>14.557</ele>
        <time>2013-04-21T13:04:47Z</time>
      </trkpt>
      <trkpt lat="59.7893196" lon="17.6261028">
        <ele>14.557</ele>
        <time>2013-04-21T13:04:48Z</time>
      </trkpt>
      <trkpt lat="59.7892554" lon="17.6261705">
        <ele>14.557</ele>
        <time>2013-04-21T13:04:49Z</time>
      </trkpt>
      <trkpt lat="59.789191" lon="17.6262394">
        <ele>14.0764</ele>
        <time>2013-04-21T13:04:50Z</time>
      </trkpt>
      <trkpt lat="59.7891264" lon="17.626312">
        <ele>14.0764</ele>
        <time>2013-04-21T13:04:51Z</time>
      </trkpt>
      <trkpt lat="59.7890615" lon="17.6263831">
        <ele>14.0764</ele>
        <time>2013-04-21T13:04:52Z</time>
      </trkpt>
      <trkpt lat="59.7889958" lon="17.6264535">
        <ele>13.5958</ele>
        <time>2013-04-21T13:04:53Z</time>
      </trkpt>
      <trkpt lat="59.7889317" lon="17.6265245">
        <ele>13.5958</ele>
        <time>2013-04-21T13:04:54Z</time>
      </trkpt>
      <trkpt lat="59.7888693" lon="17.6265938">
        <ele>14.0764</ele>
        <time>2013-04-21T13:04:55Z</time>
      </trkpt>
      <trkpt lat="59.7888078" lon="17.6266587">
        <ele>14.0764</ele>
        <time>2013-04-21T13:04:56Z</time>
      </trkpt>
      <trkpt lat="59.7887481" lon="17.6267198">
        <ele>13.5958</ele>
        <time>2013-04-21T13:04:57Z</time>
      </trkpt>
      <trkpt lat="59.7886891" lon="17.6267813">
        <ele>13.5958</ele>
        <time>2013-04-21T13:04:58Z</time>
      </trkpt>
      <trkpt lat="59.7886288" lon="17.626845">
        <ele>13.5958</ele>
        <time>2013-04-21T13:04:59Z</time>
      </trkpt>
      <trkpt lat="59.78857" lon="17.6269112">
        <ele>13.5958</ele>
        <time>2013-04-21T13:05:00Z</time>
      </trkpt>
      <trkpt lat="59.7885105" lon="17.6269789">
        <ele>13.5958</ele>
        <time>2013-04-21T13:05:01Z</time>
      </trkpt>
      <trkpt lat="59.7884502" lon="17.6270433">
        <ele>14.0764</ele>
        <time>2013-04-21T13:05:02Z</time>
      </trkpt>
      <trkpt lat="59.7883892" lon="17.6271039">
        <ele>14.0764</ele>
        <time>2013-04-21T13:05:03Z</time>
      </trkpt>
      <trkpt lat="59.7883281" lon="17.6271674">
        <ele>14.557</ele>
        <time>2013-04-21T13:05:04Z</time>
      </trkpt>
      <trkpt lat="59.788267" lon="17.6272334">
        <ele>14.557</ele>
        <time>2013-04-21T13:05:05Z</time>
      </trkpt>
      <trkpt lat="59.7882043" lon="17.6273003">
        <ele>14.557</ele>
        <time>2013-04-21T13:05:06Z</time>
      </trkpt>
      <trkpt lat="59.7881432" lon="17.6273653">
        <ele>14.557</ele>
        <time>2013-04-21T13:05:07Z</time>
      </trkpt>
      <trkpt lat="59.7880784" lon="17.6274356">
        <ele>14.557</ele>
        <time>2013-04-21T13:05:08Z</time>
      </trkpt>
      <trkpt lat="59.788013" lon="17.6275054">
        <ele>14.557</ele>
        <time>2013-04-21T13:05:09Z</time>
      </trkpt>
      <trkpt lat="59.78795" lon="17.6275693">
        <ele>14.557</ele>
        <time>2013-04-21T13:05:10Z</time>
      </trkpt>
      <trkpt lat="59.7878863" lon="17.6276316">
        <ele>14.557</ele>
        <time>2013-04-21T13:05:11Z</time>
      </trkpt>
      <trkpt lat="59.7878231" lon="17.6276952">
        <ele>14.557</ele>
        <time>2013-04-21T13:05:12Z</time>
      </trkpt>
      <trkpt lat="59.7877615" lon="17.6277604">
        <ele>15.0377</ele>
        <time>2013-04-21T13:05:13Z</time>
      </trkpt>
      <trkpt lat="59.7877039" lon="17.6278262">
        <ele>15.5184</ele>
        <time>2013-04-21T13:05:14Z</time>
      </trkpt>
      <trkpt lat="59.7876464" lon="17.6278956">
        <ele>15.5184</ele>
        <time>2013-04-21T13:05:15Z</time>
      </trkpt>
      <trkpt lat="59.7875835" lon="17.62797">
        <ele>15.0377</ele>
        <time>2013-04-21T13:05:16Z</time>
      </trkpt>
      <trkpt lat="59.7875214" lon="17.6280427">
        <ele>15.0377</ele>
        <time>2013-04-21T13:05:17Z</time>
      </trkpt>
      <trkpt lat="59.7874642" lon="17.6281082">
        <ele>15.0377</ele>
        <time>2013-04-21T13:05:18Z</time>
      </trkpt>
      <trkpt lat="59.7874046" lon="17.6281793">
        <ele>15.0377</ele>
        <time>2013-04-21T13:05:19Z</time>
      </trkpt>
      <trkpt lat="59.7873413" lon="17.6282555">
        <ele>14.557</ele>
        <time>2013-04-21T13:05:20Z</time>
      </trkpt>
      <trkpt lat="59.7872774" lon="17.6283363">
        <ele>14.0764</ele>
        <time>2013-04-21T13:05:21Z</time>
      </trkpt>
      <trkpt lat="59.7872144" lon="17.6284199">
        <ele>14.0764</ele>
        <time>2013-04-21T13:05:22Z</time>
      </trkpt>
      <trkpt lat="59.7871543" lon="17.62851">
        <ele>13.5958</ele>
        <time>2013-04-21T13:05:23Z</time>
      </trkpt>
      <trkpt lat="59.7870997" lon="17.6286075">
        <ele>13.1151</ele>
        <time>2013-04-21T13:05:24Z</time>
      </trkpt>
      <trkpt lat="59.787049" lon="17.628707">
        <ele>12.1538</ele>
        <time>2013-04-21T13:05:25Z</time>
      </trkpt>
      <trkpt lat="59.7869978" lon="17.6288126">
        <ele>12.1538</ele>
        <time>2013-04-21T13:05:26Z</time>
      </trkpt>
      <trkpt lat="59.7869481" lon="17.628923">
        <ele>11.6732</ele>
        <time>2013-04-21T13:05:27Z</time>
      </trkpt>
      <trkpt lat="59.7869004" lon="17.6290382">
        <ele>11.1925</ele>
        <time>2013-04-21T13:05:28Z</time>
      </trkpt>
      <trkpt lat="59.7868552" lon="17.6291533">
        <ele>11.1925</ele>
        <time>2013-04-21T13:05:29Z</time>
      </trkpt>
      <trkpt lat="59.7868106" lon="17.6292709">
        <ele>10.7118</ele>
        <time>2013-04-21T13:05:30Z</time>
      </trkpt>
      <trkpt lat="59.7867694" lon="17.6293913">
        <ele>10.7118</ele>
        <time>2013-04-21T13:05:31Z</time>
      </trkpt>
      <trkpt lat="59.7867298" lon="17.6295163">
        <ele>10.7118</ele>
        <time>2013-04-21T13:05:32Z</time>
      </trkpt>
      <trkpt lat="59.786693" lon="17.629643">
        <ele>10.7118</ele>
        <time>2013-04-21T13:05:33Z</time>
      </trkpt>
      <trkpt lat="59.7866592" lon="17.6297693">
        <ele>10.7118</ele>
        <time>2013-04-21T13:05:34Z</time>
      </trkpt>
      <trkpt lat="59.7866275" lon="17.629895">
        <ele>10.7118</ele>
        <time>2013-04-21T13:05:35Z</time>
      </trkpt>
      <trkpt lat="59.7865984" lon="17.6300204">
        <ele>11.1925</ele>
        <time>2013-04-21T13:05:36Z</time>
      </trkpt>
      <trkpt lat="59.7865713" lon="17.6301448">
        <ele>11.6732</ele>
        <time>2013-04-21T13:05:37Z</time>
      </trkpt>
      <trkpt lat="59.7865481" lon="17.6302669">
        <ele>11.6732</ele>
        <time>2013-04-21T13:05:38Z</time>
      </trkpt>
      <trkpt lat="59.7865271" lon="17.6303867">
        <ele>12.1538</ele>
        <time>2013-04-21T13:05:39Z</time>
      </trkpt>
      <trkpt lat="59.7865058" lon="17.6305057">
        <ele>12.6344</ele>
        <time>2013-04-21T13:05:40Z</time>
      </trkpt>
      <trkpt lat="59.7864869" lon="17.630623">
        <ele>12.6344</ele>
        <time>2013-04-21T13:05:41Z</time>
      </trkpt>
      <trkpt lat="59.7864704" lon="17.6307383">
        <ele>13.1151</ele>
        <time>2013-04-21T13:05:42Z</time>
      </trkpt>
      <trkpt lat="59.7864548" lon="17.6308541">
        <ele>12.6344</ele>
        <time>2013-04-21T13:05:43Z</time>
      </trkpt>
      <trkpt lat="59.786441" lon="17.6309681">
        <ele>12.6344</ele>
        <time>2013-04-21T13:05:44Z</time>
      </trkpt>
      <trkpt lat="59.7864284" lon="17.63108">
        <ele>13.1151</ele>
        <time>2013-04-21T13:05:45Z</time>
      </trkpt>
      <trkpt lat="59.7864201" lon="17.6311872">
        <ele>13.1151</ele>
        <time>2013-04-21T13:05:46Z</time>
      </trkpt>
      <trkpt lat="59.7864128" lon="17.6312938">
        <ele>13.5958</ele>
        <time>2013-04-21T13:05:47Z</time>
      </trkpt>
      <trkpt lat="59.7864052" lon="17.6313964">
        <ele>14.0764</ele>
        <time>2013-04-21T13:05:48Z</time>
      </trkpt>
      <trkpt lat="59.7863955" lon="17.6315">
        <ele>14.0764</ele>
        <time>2013-04-21T13:05:49Z</time>
      </trkpt>
      <trkpt lat="59.7863871" lon="17.6316023">
        <ele>14.557</ele>
        <time>2013-04-21T13:05:50Z</time>
      </trkpt>
      <trkpt lat="59.7863809" lon="17.6317035">
        <ele>14.557</ele>
        <time>2013-04-21T13:05:51Z</time>
      </trkpt>
      <trkpt lat="59.7863771" lon="17.6318049">
        <ele>15.0377</ele>
        <time>2013-04-21T13:05:52Z</time>
      </trkpt>
      <trkpt lat="59.7863756" lon="17.6319018">
        <ele>15.5184</ele>
        <time>2013-04-21T13:05:53Z</time>
      </trkpt>
      <trkpt lat="59.7863757" lon="17.6319991">
        <ele>15.5184</ele>
        <time>2013-04-21T13:05:54Z</time>
      </trkpt>
      <trkpt lat="59.7863778" lon="17.6320977">
        <ele>15.999</ele>
        <time>2013-04-21T13:05:55Z</time>
      </trkpt>
      <trkpt lat="59.7863788" lon="17.6321993">
        <ele>16.9604</ele>
        <time>2013-04-21T13:05:56Z</time>
      </trkpt>
      <trkpt lat="59.7863793" lon="17.632291">
        <ele>17.4412</ele>
        <time>2013-04-21T13:05:57Z</time>
      </trkpt>
      <trkpt lat="59.7863829" lon="17.6323837">
        <ele>17.4412</ele>
        <time>2013-04-21T13:05:58Z</time>
      </trkpt>
      <trkpt lat="59.7863861" lon="17.6324778">
        <ele>17.4412</ele>
        <time>2013-04-21T13:05:59Z</time>
      </trkpt>
      <trkpt lat="59.7863911" lon="17.6325722">
        <ele>17.9218</ele>
        <time>2013-04-21T13:06:00Z</time>
      </trkpt>
      <trkpt lat="59.7863976" lon="17.6326691">
        <ele>18.4023</ele>
        <time>2013-04-21T13:06:01Z</time>
      </trkpt>
      <trkpt lat="59.7864055" lon="17.632767">
        <ele>18.4023</ele>
        <time>2013-04-21T13:06:02Z</time>
      </trkpt>
      <trkpt lat="59.7864149" lon="17.6328629">
        <ele>18.8831</ele>
        <time>2013-04-21T13:06:03Z</time>
      </trkpt>
      <trkpt lat="59.786425" lon="17.6329556">
        <ele>19.3638</ele>
        <time>2013-04-21T13:06:04Z</time>
      </trkpt>
      <trkpt lat="59.7864358" lon="17.6330478">
        <ele>19.3638</ele>
        <time>2013-04-21T13:06:05Z</time>
      </trkpt>
      <trkpt lat="59.7864468" lon="17.6331393">
        <ele>19.8444</ele>
        <time>2013-04-21T13:06:06Z</time>
      </trkpt>
      <trkpt lat="59.7864576" lon="17.6332296">
        <ele>19.8444</ele>
        <time>2013-04-21T13:06:07Z</time>
      </trkpt>
      <trkpt lat="59.7864695" lon="17.6333212">
        <ele>20.325</ele>
        <time>2013-04-21T13:06:08Z</time>
      </trkpt>
      <trkpt lat="59.7864851" lon="17.6334148">
        <ele>20.8057</ele>
        <time>2013-04-21T13:06:09Z</time>
      </trkpt>
      <trkpt lat="59.7865042" lon="17.63351">
        <ele>21.2864</ele>
        <time>2013-04-21T13:06:10Z</time>
      </trkpt>
      <trkpt lat="59.7865209" lon="17.6336065">
        <ele>21.2864</ele>
        <time>2013-04-21T13:06:11Z</time>
      </trkpt>
      <trkpt lat="59.7865395" lon="17.6336974">
        <ele>21.2864</ele>
        <time>2013-04-21T13:06:12Z</time>
      </trkpt>
      <trkpt lat="59.7865581" lon="17.633787">
        <ele>21.767</ele>
        <time>2013-04-21T13:06:13Z</time>
      </trkpt>
      <trkpt lat="59.7865746" lon="17.6338756">
        <ele>21.767</ele>
        <time>2013-04-21T13:06:14Z</time>
      </trkpt>
      <trkpt lat="59.7865906" lon="17.6339625">
        <ele>21.767</ele>
        <time>2013-04-21T13:06:15Z</time>
      </trkpt>
      <trkpt lat="59.7866086" lon="17.6340477">
        <ele>21.767</ele>
        <time>2013-04-21T13:06:16Z</time>
      </trkpt>
      <trkpt lat="59.7866265" lon="17.6341328">
        <ele>21.767</ele>
        <time>2013-04-21T13:06:17Z</time>
      </trkpt>
      <trkpt lat="59.786645" lon="17.6342174">
        <ele>21.767</ele>
        <time>2013-04-21T13:06:18Z</time>
      </trkpt>
      <trkpt lat="59.7866646" lon="17.6343025">
        <ele>21.767</ele>
        <time>2013-04-21T13:06:19Z</time>
      </trkpt>
      <trkpt lat="59.786683" lon="17.6343884">
        <ele>21.767</ele>
        <time>2013-04-21T13:06:20Z</time>
      </trkpt>
      <trkpt lat="59.7867005" lon="17.6344738">
        <ele>21.767</ele>
        <time>2013-04-21T13:06:21Z</time>
      </trkpt>
      <trkpt lat="59.7867176" lon="17.6345578">
        <ele>21.767</ele>
        <time>2013-04-21T13:06:22Z</time>
      </trkpt>
      <trkpt lat="59.7867347" lon="17.6346415">
        <ele>21.767</ele>
        <time>2013-04-21T13:06:23Z</time>
      </trkpt>
      <trkpt lat="59.7867519" lon="17.6347251">
        <ele>21.767</ele>
        <time>2013-04-21T13:06:24Z</time>
      </trkpt>
      <trkpt lat="59.7867699" lon="17.6348088">
        <ele>21.767</ele>
        <time>2013-04-21T13:06:25Z</time>
      </trkpt>
      <trkpt lat="59.7867889" lon="17.6348919">
        <ele>21.767</ele>
        <time>2013-04-21T13:06:26Z</time>
      </trkpt>
      <trkpt lat="59.7868082" lon="17.6349748">
        <ele>21.767</ele>
        <time>2013-04-21T13:06:27Z</time>
      </trkpt>
      <trkpt lat="59.7868294" lon="17.6350566">
        <ele>22.2476</ele>
        <time>2013-04-21T13:06:28Z</time>
      </trkpt>
      <trkpt lat="59.7868516" lon="17.635137">
        <ele>22.2476</ele>
        <time>2013-04-21T13:06:29Z</time>
      </trkpt>
      <trkpt lat="59.7868741" lon="17.6352171">
        <ele>22.2476</ele>
        <time>2013-04-21T13:06:30Z</time>
      </trkpt>
      <trkpt lat="59.7868958" lon="17.6352988">
        <ele>22.2476</ele>
        <time>2013-04-21T13:06:31Z</time>
      </trkpt>
      <trkpt lat="59.7869171" lon="17.6353788">
        <ele>22.2476</ele>
        <time>2013-04-21T13:06:32Z</time>
      </trkpt>
      <trkpt lat="59.7869393" lon="17.6354535">
        <ele>22.7283</ele>
        <time>2013-04-21T13:06:33Z</time>
      </trkpt>
      <trkpt lat="59.7869624" lon="17.6355235">
        <ele>22.7283</ele>
        <time>2013-04-21T13:06:34Z</time>
      </trkpt>
      <trkpt lat="59.7869843" lon="17.6355913">
        <ele>22.7283</ele>
        <time>2013-04-21T13:06:35Z</time>
      </trkpt>
      <trkpt lat="59.7870044" lon="17.6356578">
        <ele>22.7283</ele>
        <time>2013-04-21T13:06:36Z</time>
      </trkpt>
      <trkpt lat="59.7870249" lon="17.6357202">
        <ele>23.209</ele>
        <time>2013-04-21T13:06:37Z</time>
      </trkpt>
      <trkpt lat="59.7870455" lon="17.6357768">
        <ele>23.209</ele>
        <time>2013-04-21T13:06:38Z</time>
      </trkpt>
      <trkpt lat="59.7870646" lon="17.6358275">
        <ele>23.6896</ele>
        <time>2013-04-21T13:06:39Z</time>
      </trkpt>
      <trkpt lat="59.7870834" lon="17.6358771">
        <ele>23.6896</ele>
        <time>2013-04-21T13:06:40Z</time>
      </trkpt>
      <trkpt lat="59.7871038" lon="17.6359285">
        <ele>23.6896</ele>
        <time>2013-04-21T13:06:41Z</time>
      </trkpt>
      <trkpt lat="59.7871253" lon="17.6359806">
        <ele>24.1703</ele>
        <time>2013-04-21T13:06:42Z</time>
      </trkpt>
      <trkpt lat="59.787147" lon="17.6360353">
        <ele>24.651</ele>
        <time>2013-04-21T13:06:43Z</time>
      </trkpt>
      <trkpt lat="59.7871692" lon="17.6360921">
        <ele>24.651</ele>
        <time>2013-04-21T13:06:44Z</time>
      </trkpt>
      <trkpt lat="59.787192" lon="17.6361507">
        <ele>25.1317</ele>
        <time>2013-04-21T13:06:45Z</time>
      </trkpt>
      <trkpt lat="59.7872153" lon="17.6362098">
        <ele>25.1317</ele>
        <time>2013-04-21T13:06:46Z</time>
      </trkpt>
      <trkpt lat="59.7872393" lon="17.6362702">
        <ele>25.6123</ele>
        <time>2013-04-21T13:06:47Z</time>
      </trkpt>
      <trkpt lat="59.7872647" lon="17.6363316">
        <ele>25.6123</ele>
        <time>2013-04-21T13:06:48Z</time>
      </trkpt>
      <trkpt lat="59.7872909" lon="17.6363945">
        <ele>26.0929</ele>
        <time>2013-04-21T13:06:49Z</time>
      </trkpt>
      <trkpt lat="59.7873167" lon="17.6364578">
        <ele>26.0929</ele>
        <time>2013-04-21T13:06:50Z</time>
      </trkpt>
      <trkpt lat="59.7873423" lon="17.6365185">
        <ele>26.5736</ele>
        <time>2013-04-21T13:06:51Z</time>
      </trkpt>
      <trkpt lat="59.7873698" lon="17.6365766">
        <ele>26.5736</ele>
        <time>2013-04-21T13:06:52Z</time>
      </trkpt>
      <trkpt lat="59.7873972" lon="17.6366376">
        <ele>26.5736</ele>
        <time>2013-04-21T13:06:53Z</time>
      </trkpt>
      <trkpt lat="59.7874226" lon="17.6366987">
        <ele>27.0543</ele>
        <time>2013-04-21T13:06:54Z</time>
      </trkpt>
      <trkpt lat="59.7874481" lon="17.6367592">
        <ele>27.5349</ele>
        <time>2013-04-21T13:06:55Z</time>
      </trkpt>
      <trkpt lat="59.7874714" lon="17.6368182">
        <ele>27.5349</ele>
        <time>2013-04-21T13:06:56Z</time>
      </trkpt>
      <trkpt lat="59.7874914" lon="17.6368767">
        <ele>28.0155</ele>
        <time>2013-04-21T13:06:57Z</time>
      </trkpt>
      <trkpt lat="59.7875071" lon="17.6369329">
        <ele>28.0155</ele>
        <time>2013-04-21T13:06:58Z</time>
      </trkpt>
      <trkpt lat="59.7875144" lon="17.6369853">
        <ele>28.0155</ele>
        <time>2013-04-21T13:06:59Z</time>
      </trkpt>
      <trkpt lat="59.7875127" lon="17.63703">
        <ele>28.4962</ele>
        <time>2013-04-21T13:07:00Z</time>
      </trkpt>
      <trkpt lat="59.7875065" lon="17.6370577">
        <ele>28.4962</ele>
        <time>2013-04-21T13:07:01Z</time>
      </trkpt>
      <trkpt lat="59.7875024" lon="17.6370685">
        <ele>28.4962</ele>
        <time>2013-04-21T13:07:02Z</time>
      </trkpt>
      <trkpt lat="59.7875017" lon="17.637072">
        <ele>28.4962</ele>
        <time>2013-04-21T13:07:03Z</time>
      </trkpt>
      <trkpt lat="59.7875951" lon="17.6370115">
        <ele>24.1703</ele>
        <time>2013-04-21T13:09:41Z</time>
      </trkpt>
      <trkpt lat="59.7876099" lon="17.637038">
        <ele>24.651</ele>
        <time>2013-04-21T13:09:42Z</time>
      </trkpt>
      <trkpt lat="59.7876232" lon="17.6370673">
        <ele>23.6896</ele>
        <time>2013-04-21T13:09:43Z</time>
      </trkpt>
      <trkpt lat="59.7876434" lon="17.6371054">
        <ele>23.6896</ele>
        <time>2013-04-21T13:09:44Z</time>
      </trkpt>
      <trkpt lat="59.7876635" lon="17.6371499">
        <ele>23.6896</ele>
        <time>2013-04-21T13:09:45Z</time>
      </trkpt>
      <trkpt lat="59.7876843" lon="17.6371937">
        <ele>23.209</ele>
        <time>2013-04-21T13:09:46Z</time>
      </trkpt>
      <trkpt lat="59.7877079" lon="17.637239">
        <ele>23.209</ele>
        <time>2013-04-21T13:09:47Z</time>
      </trkpt>
      <trkpt lat="59.7877308" lon="17.6372911">
        <ele>23.209</ele>
        <time>2013-04-21T13:09:48Z</time>
      </trkpt>
      <trkpt lat="59.787753" lon="17.6373427">
        <ele>22.2476</ele>
        <time>2013-04-21T13:09:49Z</time>
      </trkpt>
      <trkpt lat="59.7877811" lon="17.6373883">
        <ele>22.7283</ele>
        <time>2013-04-21T13:09:50Z</time>
      </trkpt>
      <trkpt lat="59.7878055" lon="17.6374308">
        <ele>20.8057</ele>
        <time>2013-04-21T13:09:51Z</time>
      </trkpt>
      <trkpt lat="59.7878314" lon="17.6374726">
        <ele>18.8831</ele>
        <time>2013-04-21T13:09:52Z</time>
      </trkpt>
      <trkpt lat="59.7878601" lon="17.6375194">
        <ele>17.4412</ele>
        <time>2013-04-21T13:09:53Z</time>
      </trkpt>
      <trkpt lat="59.7878836" lon="17.6375657">
        <ele>15.999</ele>
        <time>2013-04-21T13:09:54Z</time>
      </trkpt>
      <trkpt lat="59.7879105" lon="17.6376191">
        <ele>15.0377</ele>
        <time>2013-04-21T13:09:55Z</time>
      </trkpt>
      <trkpt lat="59.7879397" lon="17.637671">
        <ele>13.5958</ele>
        <time>2013-04-21T13:09:56Z</time>
      </trkpt>
      <trkpt lat="59.78797" lon="17.637728">
        <ele>13.1151</ele>
        <time>2013-04-21T13:09:57Z</time>
      </trkpt>
      <trkpt lat="59.7879982" lon="17.6377927">
        <ele>13.5958</ele>
        <time>2013-04-21T13:09:58Z</time>
      </trkpt>
      <trkpt lat="59.7880239" lon="17.6378658">
        <ele>13.5958</ele>
        <time>2013-04-21T13:09:59Z</time>
      </trkpt>
      <trkpt lat="59.7880492" lon="17.6379368">
        <ele>13.1151</ele>
        <time>2013-04-21T13:10:00Z</time>
      </trkpt>
      <trkpt lat="59.7880732" lon="17.6380128">
        <ele>13.1151</ele>
        <time>2013-04-21T13:10:01Z</time>
      </trkpt>
      <trkpt lat="59.7880958" lon="17.6380933">
        <ele>13.5958</ele>
        <time>2013-04-21T13:10:02Z</time>
      </trkpt>
      <trkpt lat="59.7881188" lon="17.6381673">
        <ele>13.1151</ele>
        <time>2013-04-21T13:10:03Z</time>
      </trkpt>
      <trkpt lat="59.7881495" lon="17.6382424">
        <ele>14.0764</ele>
        <time>2013-04-21T13:10:04Z</time>
      </trkpt>
      <trkpt lat="59.7881825" lon="17.638318">
        <ele>15.0377</ele>
        <time>2013-04-21T13:10:05Z</time>
      </trkpt>
      <trkpt lat="59.7882105" lon="17.6383874">
        <ele>15.0377</ele>
        <time>2013-04-21T13:10:06Z</time>
      </trkpt>
      <trkpt lat="59.7882379" lon="17.6384568">
        <ele>14.557</ele>
        <time>2013-04-21T13:10:07Z</time>
      </trkpt>
      <trkpt lat="59.788266" lon="17.6385286">
        <ele>14.557</ele>
        <time>2013-04-21T13:10:08Z</time>
      </trkpt>
      <trkpt lat="59.7882943" lon="17.6386018">
        <ele>15.0377</ele>
        <time>2013-04-21T13:10:09Z</time>
      </trkpt>
      <trkpt lat="59.7883258" lon="17.638677">
        <ele>15.5184</ele>
        <time>2013-04-21T13:10:10Z</time>
      </trkpt>
      <trkpt lat="59.7883561" lon="17.6387511">
        <ele>15.5184</ele>
        <time>2013-04-21T13:10:11Z</time>
      </trkpt>
      <trkpt lat="59.7883871" lon="17.638824">
        <ele>15.999</ele>
        <time>2013-04-21T13:10:12Z</time>
      </trkpt>
      <trkpt lat="59.788422" lon="17.638897">
        <ele>16.4797</ele>
        <time>2013-04-21T13:10:13Z</time>
      </trkpt>
      <trkpt lat="59.7884541" lon="17.6389664">
        <ele>16.4797</ele>
        <time>2013-04-21T13:10:14Z</time>
      </trkpt>
      <trkpt lat="59.7884845" lon="17.6390396">
        <ele>16.4797</ele>
        <time>2013-04-21T13:10:15Z</time>
      </trkpt>
      <trkpt lat="59.7885161" lon="17.6391125">
        <ele>16.4797</ele>
        <time>2013-04-21T13:10:16Z</time>
      </trkpt>
      <trkpt lat="59.7885497" lon="17.6391868">
        <ele>16.9604</ele>
        <time>2013-04-21T13:10:17Z</time>
      </trkpt>
      <trkpt lat="59.7885848" lon="17.6392621">
        <ele>16.9604</ele>
        <time>2013-04-21T13:10:18Z</time>
      </trkpt>
      <trkpt lat="59.7886182" lon="17.6393358">
        <ele>17.4412</ele>
        <time>2013-04-21T13:10:19Z</time>
      </trkpt>
      <trkpt lat="59.7886528" lon="17.6394085">
        <ele>16.9604</ele>
        <time>2013-04-21T13:10:20Z</time>
      </trkpt>
      <trkpt lat="59.7886886" lon="17.6394841">
        <ele>16.9604</ele>
        <time>2013-04-21T13:10:21Z</time>
      </trkpt>
      <trkpt lat="59.7887244" lon="17.6395628">
        <ele>17.4412</ele>
        <time>2013-04-21T13:10:22Z</time>
      </trkpt>
      <trkpt lat="59.7887612" lon="17.6396435">
        <ele>17.9218</ele>
        <time>2013-04-21T13:10:23Z</time>
      </trkpt>
      <trkpt lat="59.7887973" lon="17.6397282">
        <ele>18.8831</ele>
        <time>2013-04-21T13:10:24Z</time>
      </trkpt>
      <trkpt lat="59.788831" lon="17.6398089">
        <ele>19.3638</ele>
        <time>2013-04-21T13:10:25Z</time>
      </trkpt>
      <trkpt lat="59.7888648" lon="17.6398944">
        <ele>20.325</ele>
        <time>2013-04-21T13:10:26Z</time>
      </trkpt>
      <trkpt lat="59.7888982" lon="17.6399808">
        <ele>22.2476</ele>
        <time>2013-04-21T13:10:27Z</time>
      </trkpt>
      <trkpt lat="59.7889294" lon="17.6400668">
        <ele>23.209</ele>
        <time>2013-04-21T13:10:28Z</time>
      </trkpt>
      <trkpt lat="59.7889581" lon="17.6401549">
        <ele>23.6896</ele>
        <time>2013-04-21T13:10:29Z</time>
      </trkpt>
      <trkpt lat="59.7889873" lon="17.6402475">
        <ele>24.1703</ele>
        <time>2013-04-21T13:10:30Z</time>
      </trkpt>
      <trkpt lat="59.7890138" lon="17.6403444">
        <ele>24.651</ele>
        <time>2013-04-21T13:10:31Z</time>
      </trkpt>
      <trkpt lat="59.7890388" lon="17.6404419">
        <ele>25.1317</ele>
        <time>2013-04-21T13:10:32Z</time>
      </trkpt>
      <trkpt lat="59.7890615" lon="17.6405433">
        <ele>25.1317</ele>
        <time>2013-04-21T13:10:33Z</time>
      </trkpt>
      <trkpt lat="59.7890824" lon="17.6406483">
        <ele>25.6123</ele>
        <time>2013-04-21T13:10:34Z</time>
      </trkpt>
      <trkpt lat="59.7891024" lon="17.6407578">
        <ele>26.0929</ele>
        <time>2013-04-21T13:10:35Z</time>
      </trkpt>
      <trkpt lat="59.7891133" lon="17.6408722">
        <ele>27.0543</ele>
        <time>2013-04-21T13:10:36Z</time>
      </trkpt>
      <trkpt lat="59.7891242" lon="17.6409889">
        <ele>27.5349</ele>
        <time>2013-04-21T13:10:37Z</time>
      </trkpt>
      <trkpt lat="59.7891331" lon="17.6411084">
        <ele>27.5349</ele>
        <time>2013-04-21T13:10:38Z</time>
      </trkpt>
      <trkpt lat="59.7891398" lon="17.6412276">
        <ele>28.0155</ele>
        <time>2013-04-21T13:10:39Z</time>
      </trkpt>
      <trkpt lat="59.7891429" lon="17.6413445">
        <ele>28.4962</ele>
        <time>2013-04-21T13:10:40Z</time>
      </trkpt>
      <trkpt lat="59.7891463" lon="17.6414656">
        <ele>28.9769</ele>
        <time>2013-04-21T13:10:41Z</time>
      </trkpt>
      <trkpt lat="59.7891487" lon="17.6415891">
        <ele>29.4575</ele>
        <time>2013-04-21T13:10:42Z</time>
      </trkpt>
      <trkpt lat="59.789146" lon="17.6417156">
        <ele>29.9381</ele>
        <time>2013-04-21T13:10:43Z</time>
      </trkpt>
      <trkpt lat="59.7891429" lon="17.6418409">
        <ele>30.8995</ele>
        <time>2013-04-21T13:10:44Z</time>
      </trkpt>
      <trkpt lat="59.7891368" lon="17.6419617">
        <ele>31.8607</ele>
        <time>2013-04-21T13:10:45Z</time>
      </trkpt>
      <trkpt lat="59.7891295" lon="17.642083">
        <ele>32.3416</ele>
        <time>2013-04-21T13:10:46Z</time>
      </trkpt>
      <trkpt lat="59.789121" lon="17.6422057">
        <ele>32.8223</ele>
        <time>2013-04-21T13:10:47Z</time>
      </trkpt>
      <trkpt lat="59.7891114" lon="17.6423259">
        <ele>33.3029</ele>
        <time>2013-04-21T13:10:48Z</time>
      </trkpt>
      <trkpt lat="59.7891016" lon="17.6424461">
        <ele>33.7834</ele>
        <time>2013-04-21T13:10:49Z</time>
      </trkpt>
      <trkpt lat="59.7890911" lon="17.6425736">
        <ele>33.7834</ele>
        <time>2013-04-21T13:10:50Z</time>
      </trkpt>
      <trkpt lat="59.7890801" lon="17.6427018">
        <ele>34.2642</ele>
        <time>2013-04-21T13:10:51Z</time>
      </trkpt>
      <trkpt lat="59.7890715" lon="17.6428279">
        <ele>34.7449</ele>
        <time>2013-04-21T13:10:52Z</time>
      </trkpt>
      <trkpt lat="59.7890605" lon="17.642955">
        <ele>35.2255</ele>
        <time>2013-04-21T13:10:53Z</time>
      </trkpt>
      <trkpt lat="59.7890534" lon="17.643093">
        <ele>35.7061</ele>
        <time>2013-04-21T13:10:54Z</time>
      </trkpt>
      <trkpt lat="59.7890453" lon="17.6432219">
        <ele>36.6675</ele>
        <time>2013-04-21T13:10:55Z</time>
      </trkpt>
      <trkpt lat="59.7890382" lon="17.6433525">
        <ele>37.6287</ele>
        <time>2013-04-21T13:10:56Z</time>
      </trkpt>
      <trkpt lat="59.7890315" lon="17.643487">
        <ele>38.5901</ele>
        <time>2013-04-21T13:10:57Z</time>
      </trkpt>
      <trkpt lat="59.7890252" lon="17.6436245">
        <ele>39.5513</ele>
        <time>2013-04-21T13:10:58Z</time>
      </trkpt>
      <trkpt lat="59.7890168" lon="17.6437616">
        <ele>40.5128</ele>
        <time>2013-04-21T13:10:59Z</time>
      </trkpt>
      <trkpt lat="59.789005" lon="17.6438877">
        <ele>41.474</ele>
        <time>2013-04-21T13:11:00Z</time>
      </trkpt>
      <trkpt lat="59.7889926" lon="17.6440208">
        <ele>41.474</ele>
        <time>2013-04-21T13:11:01Z</time>
      </trkpt>
      <trkpt lat="59.7889816" lon="17.6441535">
        <ele>41.474</ele>
        <time>2013-04-21T13:11:02Z</time>
      </trkpt>
      <trkpt lat="59.7889742" lon="17.6442995">
        <ele>41.9547</ele>
        <time>2013-04-21T13:11:03Z</time>
      </trkpt>
      <trkpt lat="59.7889663" lon="17.6444429">
        <ele>41.9547</ele>
        <time>2013-04-21T13:11:04Z</time>
      </trkpt>
      <trkpt lat="59.7889557" lon="17.6445834">
        <ele>41.9547</ele>
        <time>2013-04-21T13:11:05Z</time>
      </trkpt>
      <trkpt lat="59.7889435" lon="17.6447238">
        <ele>41.9547</ele>
        <time>2013-04-21T13:11:06Z</time>
      </trkpt>
      <trkpt lat="59.7889322" lon="17.6448583">
        <ele>41.474</ele>
        <time>2013-04-21T13:11:07Z</time>
      </trkpt>
      <trkpt lat="59.7889181" lon="17.6449911">
        <ele>41.474</ele>
        <time>2013-04-21T13:11:08Z</time>
      </trkpt>
      <trkpt lat="59.7889046" lon="17.6451269">
        <ele>40.9934</ele>
        <time>2013-04-21T13:11:09Z</time>
      </trkpt>
      <trkpt lat="59.7888899" lon="17.6452625">
        <ele>40.9934</ele>
        <time>2013-04-21T13:11:10Z</time>
      </trkpt>
      <trkpt lat="59.7888777" lon="17.6453991">
        <ele>40.5128</ele>
        <time>2013-04-21T13:11:11Z</time>
      </trkpt>
      <trkpt lat="59.7888659" lon="17.6455361">
        <ele>40.0321</ele>
        <time>2013-04-21T13:11:12Z</time>
      </trkpt>
      <trkpt lat="59.7888563" lon="17.6456727">
        <ele>40.5128</ele>
        <time>2013-04-21T13:11:13Z</time>
      </trkpt>
      <trkpt lat="59.7888471" lon="17.6458068">
        <ele>40.0321</ele>
        <time>2013-04-21T13:11:14Z</time>
      </trkpt>
      <trkpt lat="59.7888402" lon="17.6459422">
        <ele>40.5128</ele>
        <time>2013-04-21T13:11:15Z</time>
      </trkpt>
      <trkpt lat="59.7888321" lon="17.6460786">
        <ele>40.5128</ele>
        <time>2013-04-21T13:11:16Z</time>
      </trkpt>
      <trkpt lat="59.7888257" lon="17.6462196">
        <ele>40.5128</ele>
        <time>2013-04-21T13:11:17Z</time>
      </trkpt>
      <trkpt lat="59.7888172" lon="17.6463627">
        <ele>40.5128</ele>
        <time>2013-04-21T13:11:18Z</time>
      </trkpt>
      <trkpt lat="59.7888097" lon="17.646506">
        <ele>40.5128</ele>
        <time>2013-04-21T13:11:19Z</time>
      </trkpt>
      <trkpt lat="59.788799" lon="17.6466488">
        <ele>40.0321</ele>
        <time>2013-04-21T13:11:20Z</time>
      </trkpt>
      <trkpt lat="59.7887897" lon="17.6467858">
        <ele>40.0321</ele>
        <time>2013-04-21T13:11:21Z</time>
      </trkpt>
      <trkpt lat="59.7887781" lon="17.6469284">
        <ele>39.0707</ele>
        <time>2013-04-21T13:11:22Z</time>
      </trkpt>
      <trkpt lat="59.7887664" lon="17.6470854">
        <ele>38.5901</ele>
        <time>2013-04-21T13:11:23Z</time>
      </trkpt>
      <trkpt lat="59.7887611" lon="17.6472512">
        <ele>38.5901</ele>
        <time>2013-04-21T13:11:24Z</time>
      </trkpt>
      <trkpt lat="59.7887559" lon="17.6474227">
        <ele>38.5901</ele>
        <time>2013-04-21T13:11:25Z</time>
      </trkpt>
      <trkpt lat="59.7887473" lon="17.6476071">
        <ele>38.1094</ele>
        <time>2013-04-21T13:11:26Z</time>
      </trkpt>
      <trkpt lat="59.7887673" lon="17.6477695">
        <ele>39.0707</ele>
        <time>2013-04-21T13:11:27Z</time>
      </trkpt>
      <trkpt lat="59.7887507" lon="17.6479743">
        <ele>39.0707</ele>
        <time>2013-04-21T13:11:28Z</time>
      </trkpt>
      <trkpt lat="59.7887248" lon="17.6481802">
        <ele>37.6287</ele>
        <time>2013-04-21T13:11:29Z</time>
      </trkpt>
      <trkpt lat="59.7887187" lon="17.6483887">
        <ele>37.1481</ele>
        <time>2013-04-21T13:11:30Z</time>
      </trkpt>
      <trkpt lat="59.7887073" lon="17.6486108">
        <ele>36.1868</ele>
        <time>2013-04-21T13:11:31Z</time>
      </trkpt>
      <trkpt lat="59.7887126" lon="17.6488286">
        <ele>34.7449</ele>
        <time>2013-04-21T13:11:32Z</time>
      </trkpt>
      <trkpt lat="59.7887257" lon="17.6490579">
        <ele>33.3029</ele>
        <time>2013-04-21T13:11:33Z</time>
      </trkpt>
      <trkpt lat="59.7887361" lon="17.64929">
        <ele>31.8607</ele>
        <time>2013-04-21T13:11:34Z</time>
      </trkpt>
      <trkpt lat="59.7887358" lon="17.6495297">
        <ele>30.4188</ele>
        <time>2013-04-21T13:11:35Z</time>
      </trkpt>
      <trkpt lat="59.7887305" lon="17.6497733">
        <ele>29.9381</ele>
        <time>2013-04-21T13:11:36Z</time>
      </trkpt>
      <trkpt lat="59.7887324" lon="17.6500219">
        <ele>28.4962</ele>
        <time>2013-04-21T13:11:37Z</time>
      </trkpt>
      <trkpt lat="59.788743" lon="17.6502712">
        <ele>27.0543</ele>
        <time>2013-04-21T13:11:38Z</time>
      </trkpt>
      <trkpt lat="59.7887601" lon="17.6505337">
        <ele>25.6123</ele>
        <time>2013-04-21T13:11:39Z</time>
      </trkpt>
      <trkpt lat="59.7887725" lon="17.6507962">
        <ele>24.1703</ele>
        <time>2013-04-21T13:11:40Z</time>
      </trkpt>
      <trkpt lat="59.7887809" lon="17.6510533">
        <ele>23.6896</ele>
        <time>2013-04-21T13:11:41Z</time>
      </trkpt>
      <trkpt lat="59.7887868" lon="17.6513113">
        <ele>21.767</ele>
        <time>2013-04-21T13:11:42Z</time>
      </trkpt>
      <trkpt lat="59.7887956" lon="17.651564">
        <ele>20.325</ele>
        <time>2013-04-21T13:11:43Z</time>
      </trkpt>
      <trkpt lat="59.788807" lon="17.6518126">
        <ele>18.4023</ele>
        <time>2013-04-21T13:11:44Z</time>
      </trkpt>
      <trkpt lat="59.7888224" lon="17.6520582">
        <ele>17.4412</ele>
        <time>2013-04-21T13:11:45Z</time>
      </trkpt>
      <trkpt lat="59.7888391" lon="17.6522999">
        <ele>15.999</ele>
        <time>2013-04-21T13:11:46Z</time>
      </trkpt>
      <trkpt lat="59.7888565" lon="17.6525389">
        <ele>15.0377</ele>
        <time>2013-04-21T13:11:47Z</time>
      </trkpt>
      <trkpt lat="59.7888711" lon="17.6527762">
        <ele>13.5958</ele>
        <time>2013-04-21T13:11:48Z</time>
      </trkpt>
      <trkpt lat="59.7888896" lon="17.6530123">
        <ele>12.6344</ele>
        <time>2013-04-21T13:11:49Z</time>
      </trkpt>
      <trkpt lat="59.7889088" lon="17.6532492">
        <ele>12.1538</ele>
        <time>2013-04-21T13:11:50Z</time>
      </trkpt>
      <trkpt lat="59.788928" lon="17.6534828">
        <ele>11.1925</ele>
        <time>2013-04-21T13:11:51Z</time>
      </trkpt>
      <trkpt lat="59.7889487" lon="17.6537089">
        <ele>10.2312</ele>
        <time>2013-04-21T13:11:52Z</time>
      </trkpt>
      <trkpt lat="59.7889724" lon="17.6539271">
        <ele>9.75061</ele>
        <time>2013-04-21T13:11:53Z</time>
      </trkpt>
      <trkpt lat="59.7889946" lon="17.6541366">
        <ele>9.2699</ele>
        <time>2013-04-21T13:11:54Z</time>
      </trkpt>
      <trkpt lat="59.7890169" lon="17.6543396">
        <ele>8.78918</ele>
        <time>2013-04-21T13:11:55Z</time>
      </trkpt>
      <trkpt lat="59.7890409" lon="17.6545312">
        <ele>8.78918</ele>
        <time>2013-04-21T13:11:56Z</time>
      </trkpt>
      <trkpt lat="59.78907" lon="17.6547078">
        <ele>8.30859</ele>
        <time>2013-04-21T13:11:57Z</time>
      </trkpt>
      <trkpt lat="59.7891002" lon="17.6548762">
        <ele>8.30859</ele>
        <time>2013-04-21T13:11:58Z</time>
      </trkpt>
      <trkpt lat="59.789128" lon="17.655034">
        <ele>7.82788</ele>
        <time>2013-04-21T13:11:59Z</time>
      </trkpt>
      <trkpt lat="59.789159" lon="17.6551922">
        <ele>7.82788</ele>
        <time>2013-04-21T13:12:00Z</time>
      </trkpt>
      <trkpt lat="59.7891941" lon="17.6553341">
        <ele>7.82788</ele>
        <time>2013-04-21T13:12:01Z</time>
      </trkpt>
      <trkpt lat="59.7892306" lon="17.6554733">
        <ele>7.82788</ele>
        <time>2013-04-21T13:12:02Z</time>
      </trkpt>
      <trkpt lat="59.7892709" lon="17.6556018">
        <ele>8.30859</ele>
        <time>2013-04-21T13:12:03Z</time>
      </trkpt>
      <trkpt lat="59.7893118" lon="17.6557283">
        <ele>8.30859</ele>
        <time>2013-04-21T13:12:04Z</time>
      </trkpt>
      <trkpt lat="59.7893538" lon="17.65585">
        <ele>8.78918</ele>
        <time>2013-04-21T13:12:05Z</time>
      </trkpt>
      <trkpt lat="59.7893961" lon="17.6559645">
        <ele>9.2699</ele>
        <time>2013-04-21T13:12:06Z</time>
      </trkpt>
      <trkpt lat="59.7894371" lon="17.6560744">
        <ele>9.2699</ele>
        <time>2013-04-21T13:12:07Z</time>
      </trkpt>
      <trkpt lat="59.7894716" lon="17.6561877">
        <ele>9.2699</ele>
        <time>2013-04-21T13:12:08Z</time>
      </trkpt>
      <trkpt lat="59.7895038" lon="17.656294">
        <ele>9.2699</ele>
        <time>2013-04-21T13:12:09Z</time>
      </trkpt>
      <trkpt lat="59.7895376" lon="17.6564028">
        <ele>9.75061</ele>
        <time>2013-04-21T13:12:10Z</time>
      </trkpt>
      <trkpt lat="59.7895712" lon="17.6565091">
        <ele>9.75061</ele>
        <time>2013-04-21T13:12:11Z</time>
      </trkpt>
      <trkpt lat="59.7896044" lon="17.6566163">
        <ele>9.75061</ele>
        <time>2013-04-21T13:12:12Z</time>
      </trkpt>
      <trkpt lat="59.7896417" lon="17.6567203">
        <ele>10.7118</ele>
        <time>2013-04-21T13:12:13Z</time>
      </trkpt>
      <trkpt lat="59.789678" lon="17.6568217">
        <ele>10.7118</ele>
        <time>2013-04-21T13:12:14Z</time>
      </trkpt>
      <trkpt lat="59.7897113" lon="17.6569192">
        <ele>10.7118</ele>
        <time>2013-04-21T13:12:15Z</time>
      </trkpt>
      <trkpt lat="59.7897441" lon="17.6570112">
        <ele>11.1925</ele>
        <time>2013-04-21T13:12:16Z</time>
      </trkpt>
      <trkpt lat="59.7897738" lon="17.6571086">
        <ele>11.1925</ele>
        <time>2013-04-21T13:12:17Z</time>
      </trkpt>
      <trkpt lat="59.7898018" lon="17.6572104">
        <ele>11.6732</ele>
        <time>2013-04-21T13:12:18Z</time>
      </trkpt>
      <trkpt lat="59.7898214" lon="17.6573202">
        <ele>12.1538</ele>
        <time>2013-04-21T13:12:19Z</time>
      </trkpt>
      <trkpt lat="59.7898376" lon="17.6574351">
        <ele>12.6344</ele>
        <time>2013-04-21T13:12:20Z</time>
      </trkpt>
      <trkpt lat="59.7898505" lon="17.6575482">
        <ele>13.1151</ele>
        <time>2013-04-21T13:12:21Z</time>
      </trkpt>
      <trkpt lat="59.7898643" lon="17.6576563">
        <ele>13.5958</ele>
        <time>2013-04-21T13:12:22Z</time>
      </trkpt>
      <trkpt lat="59.78988" lon="17.6577645">
        <ele>13.5958</ele>
        <time>2013-04-21T13:12:23Z</time>
      </trkpt>
      <trkpt lat="59.7898929" lon="17.6578686">
        <ele>14.0764</ele>
        <time>2013-04-21T13:12:24Z</time>
      </trkpt>
      <trkpt lat="59.7899033" lon="17.6579656">
        <ele>14.0764</ele>
        <time>2013-04-21T13:12:25Z</time>
      </trkpt>
      <trkpt lat="59.7899167" lon="17.6580499">
        <ele>14.0764</ele>
        <time>2013-04-21T13:12:26Z</time>
      </trkpt>
      <trkpt lat="59.7899251" lon="17.6581303">
        <ele>14.0764</ele>
        <time>2013-04-21T13:12:27Z</time>
      </trkpt>
      <trkpt lat="59.789928" lon="17.6582027">
        <ele>14.557</ele>
        <time>2013-04-21T13:12:28Z</time>
      </trkpt>
      <trkpt lat="59.7899203" lon="17.6582656">
        <ele>14.557</ele>
        <time>2013-04-21T13:12:29Z</time>
      </trkpt>
      <trkpt lat="59.7899075" lon="17.6583206">
        <ele>15.0377</ele>
        <time>2013-04-21T13:12:30Z</time>
      </trkpt>
      <trkpt lat="59.7898892" lon="17.6583661">
        <ele>15.0377</ele>
        <time>2013-04-21T13:12:31Z</time>
      </trkpt>
      <trkpt lat="59.7898671" lon="17.6584016">
        <ele>15.5184</ele>
        <time>2013-04-21T13:12:32Z</time>
      </trkpt>
      <trkpt lat="59.78984" lon="17.6584292">
        <ele>15.999</ele>
        <time>2013-04-21T13:12:33Z</time>
      </trkpt>
      <trkpt lat="59.7898049" lon="17.6584487">
        <ele>15.999</ele>
        <time>2013-04-21T13:12:34Z</time>
      </trkpt>
      <trkpt lat="59.7897686" lon="17.6584723">
        <ele>16.4797</ele>
        <time>2013-04-21T13:12:35Z</time>
      </trkpt>
      <trkpt lat="59.7897289" lon="17.6584944">
        <ele>16.9604</ele>
        <time>2013-04-21T13:12:36Z</time>
      </trkpt>
      <trkpt lat="59.7896866" lon="17.6585129">
        <ele>17.4412</ele>
        <time>2013-04-21T13:12:37Z</time>
      </trkpt>
      <trkpt lat="59.7896405" lon="17.6585308">
        <ele>17.9218</ele>
        <time>2013-04-21T13:12:38Z</time>
      </trkpt>
      <trkpt lat="59.7895927" lon="17.6585488">
        <ele>18.4023</ele>
        <time>2013-04-21T13:12:39Z</time>
      </trkpt>
      <trkpt lat="59.7895457" lon="17.6585627">
        <ele>18.8831</ele>
        <time>2013-04-21T13:12:40Z</time>
      </trkpt>
      <trkpt lat="59.7894966" lon="17.6585741">
        <ele>20.325</ele>
        <time>2013-04-21T13:12:41Z</time>
      </trkpt>
      <trkpt lat="59.789448" lon="17.6585924">
        <ele>19.8444</ele>
        <time>2013-04-21T13:12:42Z</time>
      </trkpt>
      <trkpt lat="59.7893998" lon="17.6586157">
        <ele>20.325</ele>
        <time>2013-04-21T13:12:43Z</time>
      </trkpt>
      <trkpt lat="59.7893517" lon="17.6586401">
        <ele>20.8057</ele>
        <time>2013-04-21T13:12:44Z</time>
      </trkpt>
      <trkpt lat="59.7893044" lon="17.6586613">
        <ele>21.2864</ele>
        <time>2013-04-21T13:12:45Z</time>
      </trkpt>
      <trkpt lat="59.7892558" lon="17.6586901">
        <ele>21.2864</ele>
        <time>2013-04-21T13:12:46Z</time>
      </trkpt>
      <trkpt lat="59.789206" lon="17.6587395">
        <ele>21.767</ele>
        <time>2013-04-21T13:12:47Z</time>
      </trkpt>
      <trkpt lat="59.7891548" lon="17.6587826">
        <ele>22.7283</ele>
        <time>2013-04-21T13:12:48Z</time>
      </trkpt>
      <trkpt lat="59.7890997" lon="17.6588266">
        <ele>22.7283</ele>
        <time>2013-04-21T13:12:49Z</time>
      </trkpt>
      <trkpt lat="59.7890497" lon="17.658869">
        <ele>22.2476</ele>
        <time>2013-04-21T13:12:50Z</time>
      </trkpt>
      <trkpt lat="59.7890003" lon="17.658912">
        <ele>21.767</ele>
        <time>2013-04-21T13:12:51Z</time>
      </trkpt>
      <trkpt lat="59.7889552" lon="17.6589484">
        <ele>22.2476</ele>
        <time>2013-04-21T13:12:52Z</time>
      </trkpt>
      <trkpt lat="59.7889083" lon="17.658995">
        <ele>22.2476</ele>
        <time>2013-04-21T13:12:53Z</time>
      </trkpt>
      <trkpt lat="59.7888615" lon="17.6590399">
        <ele>22.2476</ele>
        <time>2013-04-21T13:12:54Z</time>
      </trkpt>
      <trkpt lat="59.7888164" lon="17.6590766">
        <ele>21.767</ele>
        <time>2013-04-21T13:12:55Z</time>
      </trkpt>
      <trkpt lat="59.7887706" lon="17.6591145">
        <ele>21.2864</ele>
        <time>2013-04-21T13:12:56Z</time>
      </trkpt>
      <trkpt lat="59.7887271" lon="17.6591535">
        <ele>21.2864</ele>
        <time>2013-04-21T13:12:57Z</time>
      </trkpt>
      <trkpt lat="59.7886829" lon="17.6592078">
        <ele>20.8057</ele>
        <time>2013-04-21T13:12:58Z</time>
      </trkpt>
      <trkpt lat="59.7886373" lon="17.6592652">
        <ele>21.2864</ele>
        <time>2013-04-21T13:12:59Z</time>
      </trkpt>
      <trkpt lat="59.7885913" lon="17.6593233">
        <ele>20.8057</ele>
        <time>2013-04-21T13:13:00Z</time>
      </trkpt>
      <trkpt lat="59.7885441" lon="17.6593855">
        <ele>20.8057</ele>
        <time>2013-04-21T13:13:01Z</time>
      </trkpt>
      <trkpt lat="59.7884939" lon="17.6594511">
        <ele>20.325</ele>
        <time>2013-04-21T13:13:02Z</time>
      </trkpt>
      <trkpt lat="59.7884446" lon="17.6595238">
        <ele>19.8444</ele>
        <time>2013-04-21T13:13:03Z</time>
      </trkpt>
      <trkpt lat="59.7883963" lon="17.6595952">
        <ele>19.3638</ele>
        <time>2013-04-21T13:13:04Z</time>
      </trkpt>
      <trkpt lat="59.7883496" lon="17.6596738">
        <ele>19.3638</ele>
        <time>2013-04-21T13:13:05Z</time>
      </trkpt>
      <trkpt lat="59.7883063" lon="17.6597645">
        <ele>18.8831</ele>
        <time>2013-04-21T13:13:06Z</time>
      </trkpt>
      <trkpt lat="59.7882618" lon="17.6598496">
        <ele>18.4023</ele>
        <time>2013-04-21T13:13:07Z</time>
      </trkpt>
      <trkpt lat="59.7882181" lon="17.6599375">
        <ele>18.4023</ele>
        <time>2013-04-21T13:13:08Z</time>
      </trkpt>
      <trkpt lat="59.7881683" lon="17.6600312">
        <ele>17.4412</ele>
        <time>2013-04-21T13:13:09Z</time>
      </trkpt>
      <trkpt lat="59.7881219" lon="17.660118">
        <ele>16.4797</ele>
        <time>2013-04-21T13:13:10Z</time>
      </trkpt>
      <trkpt lat="59.7880763" lon="17.6602156">
        <ele>16.4797</ele>
        <time>2013-04-21T13:13:11Z</time>
      </trkpt>
      <trkpt lat="59.7880276" lon="17.6603168">
        <ele>15.5184</ele>
        <time>2013-04-21T13:13:12Z</time>
      </trkpt>
      <trkpt lat="59.7879765" lon="17.6604392">
        <ele>14.557</ele>
        <time>2013-04-21T13:13:13Z</time>
      </trkpt>
      <trkpt lat="59.7879261" lon="17.6605708">
        <ele>13.5958</ele>
        <time>2013-04-21T13:13:14Z</time>
      </trkpt>
      <trkpt lat="59.7878789" lon="17.6607164">
        <ele>13.1151</ele>
        <time>2013-04-21T13:13:15Z</time>
      </trkpt>
      <trkpt lat="59.7878343" lon="17.6608596">
        <ele>12.6344</ele>
        <time>2013-04-21T13:13:16Z</time>
      </trkpt>
      <trkpt lat="59.7877912" lon="17.6610079">
        <ele>11.1925</ele>
        <time>2013-04-21T13:13:17Z</time>
      </trkpt>
      <trkpt lat="59.7877438" lon="17.6611598">
        <ele>10.2312</ele>
        <time>2013-04-21T13:13:18Z</time>
      </trkpt>
      <trkpt lat="59.787695" lon="17.6613192">
        <ele>9.75061</ele>
        <time>2013-04-21T13:13:19Z</time>
      </trkpt>
      <trkpt lat="59.7876397" lon="17.6614814">
        <ele>9.75061</ele>
        <time>2013-04-21T13:13:20Z</time>
      </trkpt>
      <trkpt lat="59.7875862" lon="17.6616365">
        <ele>9.2699</ele>
        <time>2013-04-21T13:13:21Z</time>
      </trkpt>
      <trkpt lat="59.7875377" lon="17.6617891">
        <ele>8.78918</ele>
        <time>2013-04-21T13:13:22Z</time>
      </trkpt>
      <trkpt lat="59.7874913" lon="17.6619381">
        <ele>8.30859</ele>
        <time>2013-04-21T13:13:23Z</time>
      </trkpt>
      <trkpt lat="59.7874471" lon="17.6620802">
        <ele>8.30859</ele>
        <time>2013-04-21T13:13:24Z</time>
      </trkpt>
      <trkpt lat="59.7874049" lon="17.6622176">
        <ele>7.82788</ele>
        <time>2013-04-21T13:13:25Z</time>
      </trkpt>
      <trkpt lat="59.7873641" lon="17.6623545">
        <ele>6.86646</ele>
        <time>2013-04-21T13:13:26Z</time>
      </trkpt>
      <trkpt lat="59.7873255" lon="17.6624991">
        <ele>5.42456</ele>
        <time>2013-04-21T13:13:27Z</time>
      </trkpt>
      <trkpt lat="59.7872858" lon="17.6626325">
        <ele>5.90527</ele>
        <time>2013-04-21T13:13:28Z</time>
      </trkpt>
      <trkpt lat="59.7872443" lon="17.6627547">
        <ele>5.42456</ele>
        <time>2013-04-21T13:13:29Z</time>
      </trkpt>
      <trkpt lat="59.7872062" lon="17.6628718">
        <ele>4.94385</ele>
        <time>2013-04-21T13:13:30Z</time>
      </trkpt>
      <trkpt lat="59.7871693" lon="17.6629877">
        <ele>4.46326</ele>
        <time>2013-04-21T13:13:31Z</time>
      </trkpt>
      <trkpt lat="59.7871336" lon="17.6631038">
        <ele>4.46326</ele>
        <time>2013-04-21T13:13:32Z</time>
      </trkpt>
      <trkpt lat="59.7870993" lon="17.6632162">
        <ele>4.46326</ele>
        <time>2013-04-21T13:13:33Z</time>
      </trkpt>
      <trkpt lat="59.7870661" lon="17.6633234">
        <ele>4.46326</ele>
        <time>2013-04-21T13:13:34Z</time>
      </trkpt>
      <trkpt lat="59.7870345" lon="17.6634157">
        <ele>2.06006</ele>
        <time>2013-04-21T13:13:35Z</time>
      </trkpt>
      <trkpt lat="59.7870041" lon="17.6635143">
        <ele>2.06006</ele>
        <time>2013-04-21T13:13:36Z</time>
      </trkpt>
      <trkpt lat="59.7869753" lon="17.6636081">
        <ele>2.54065</ele>
        <time>2013-04-21T13:13:37Z</time>
      </trkpt>
      <trkpt lat="59.7869489" lon="17.6636977">
        <ele>3.02124</ele>
        <time>2013-04-21T13:13:38Z</time>
      </trkpt>
      <trkpt lat="59.7869238" lon="17.6637822">
        <ele>3.50195</ele>
        <time>2013-04-21T13:13:39Z</time>
      </trkpt>
      <trkpt lat="59.7868994" lon="17.6638624">
        <ele>4.46326</ele>
        <time>2013-04-21T13:13:40Z</time>
      </trkpt>
      <trkpt lat="59.7868759" lon="17.6639355">
        <ele>4.46326</ele>
        <time>2013-04-21T13:13:41Z</time>
      </trkpt>
      <trkpt lat="59.7868539" lon="17.6640078">
        <ele>4.46326</ele>
        <time>2013-04-21T13:13:42Z</time>
      </trkpt>
      <trkpt lat="59.7868322" lon="17.6640816">
        <ele>4.94385</ele>
        <time>2013-04-21T13:13:43Z</time>
      </trkpt>
      <trkpt lat="59.7868103" lon="17.6641547">
        <ele>4.94385</ele>
        <time>2013-04-21T13:13:44Z</time>
      </trkpt>
      <trkpt lat="59.7867886" lon="17.6642253">
        <ele>5.42456</ele>
        <time>2013-04-21T13:13:45Z</time>
      </trkpt>
      <trkpt lat="59.7867687" lon="17.6642909">
        <ele>6.86646</ele>
        <time>2013-04-21T13:13:46Z</time>
      </trkpt>
      <trkpt lat="59.7867497" lon="17.6643548">
        <ele>7.82788</ele>
        <time>2013-04-21T13:13:47Z</time>
      </trkpt>
      <trkpt lat="59.7867321" lon="17.6644216">
        <ele>8.30859</ele>
        <time>2013-04-21T13:13:48Z</time>
      </trkpt>
      <trkpt lat="59.7867135" lon="17.6644895">
        <ele>9.2699</ele>
        <time>2013-04-21T13:13:49Z</time>
      </trkpt>
      <trkpt lat="59.7866912" lon="17.6645531">
        <ele>9.75061</ele>
        <time>2013-04-21T13:13:50Z</time>
      </trkpt>
      <trkpt lat="59.7866663" lon="17.6646091">
        <ele>9.75061</ele>
        <time>2013-04-21T13:13:51Z</time>
      </trkpt>
      <trkpt lat="59.7866415" lon="17.6646677">
        <ele>10.7118</ele>
        <time>2013-04-21T13:13:52Z</time>
      </trkpt>
      <trkpt lat="59.786616" lon="17.6647263">
        <ele>11.6732</ele>
        <time>2013-04-21T13:13:53Z</time>
      </trkpt>
      <trkpt lat="59.78659" lon="17.6647842">
        <ele>12.1538</ele>
        <time>2013-04-21T13:13:54Z</time>
      </trkpt>
      <trkpt lat="59.7865637" lon="17.6648382">
        <ele>13.1151</ele>
        <time>2013-04-21T13:13:55Z</time>
      </trkpt>
      <trkpt lat="59.7865371" lon="17.6648902">
        <ele>13.5958</ele>
        <time>2013-04-21T13:13:56Z</time>
      </trkpt>
      <trkpt lat="59.7865119" lon="17.6649438">
        <ele>14.557</ele>
        <time>2013-04-21T13:13:57Z</time>
      </trkpt>
      <trkpt lat="59.7864886" lon="17.6649958">
        <ele>15.5184</ele>
        <time>2013-04-21T13:13:58Z</time>
      </trkpt>
      <trkpt lat="59.7864679" lon="17.6650483">
        <ele>15.999</ele>
        <time>2013-04-21T13:13:59Z</time>
      </trkpt>
      <trkpt lat="59.786456" lon="17.6651077">
        <ele>15.999</ele>
        <time>2013-04-21T13:14:00Z</time>
      </trkpt>
      <trkpt lat="59.7864592" lon="17.6651742">
        <ele>16.4797</ele>
        <time>2013-04-21T13:14:01Z</time>
      </trkpt>
      <trkpt lat="59.7864819" lon="17.6652224">
        <ele>16.4797</ele>
        <time>2013-04-21T13:14:02Z</time>
      </trkpt>
      <trkpt lat="59.7865181" lon="17.6652469">
        <ele>16.4797</ele>
        <time>2013-04-21T13:14:03Z</time>
      </trkpt>
      <trkpt lat="59.78656" lon="17.6652631">
        <ele>16.9604</ele>
        <time>2013-04-21T13:14:04Z</time>
      </trkpt>
      <trkpt lat="59.7866051" lon="17.66527">
        <ele>16.9604</ele>
        <time>2013-04-21T13:14:05Z</time>
      </trkpt>
      <trkpt lat="59.7866537" lon="17.6652742">
        <ele>17.4412</ele>
        <time>2013-04-21T13:14:06Z</time>
      </trkpt>
      <trkpt lat="59.7867036" lon="17.6652803">
        <ele>16.9604</ele>
        <time>2013-04-21T13:14:07Z</time>
      </trkpt>
      <trkpt lat="59.7867554" lon="17.6652852">
        <ele>16.9604</ele>
        <time>2013-04-21T13:14:08Z</time>
      </trkpt>
      <trkpt lat="59.7868096" lon="17.6652862">
        <ele>16.9604</ele>
        <time>2013-04-21T13:14:09Z</time>
      </trkpt>
      <trkpt lat="59.7868656" lon="17.6652834">
        <ele>16.9604</ele>
        <time>2013-04-21T13:14:10Z</time>
      </trkpt>
      <trkpt lat="59.7869227" lon="17.6652787">
        <ele>16.9604</ele>
        <time>2013-04-21T13:14:11Z</time>
      </trkpt>
      <trkpt lat="59.7869808" lon="17.6652742">
        <ele>16.9604</ele>
        <time>2013-04-21T13:14:12Z</time>
      </trkpt>
      <trkpt lat="59.7870403" lon="17.6652701">
        <ele>16.4797</ele>
        <time>2013-04-21T13:14:13Z</time>
      </trkpt>
      <trkpt lat="59.7871003" lon="17.6652607">
        <ele>16.4797</ele>
        <time>2013-04-21T13:14:14Z</time>
      </trkpt>
      <trkpt lat="59.7871621" lon="17.6652447">
        <ele>15.999</ele>
        <time>2013-04-21T13:14:15Z</time>
      </trkpt>
      <trkpt lat="59.7872266" lon="17.6652274">
        <ele>15.999</ele>
        <time>2013-04-21T13:14:16Z</time>
      </trkpt>
      <trkpt lat="59.7872931" lon="17.6652094">
        <ele>15.5184</ele>
        <time>2013-04-21T13:14:17Z</time>
      </trkpt>
      <trkpt lat="59.7873623" lon="17.6651886">
        <ele>15.0377</ele>
        <time>2013-04-21T13:14:18Z</time>
      </trkpt>
      <trkpt lat="59.7874335" lon="17.6651659">
        <ele>15.0377</ele>
        <time>2013-04-21T13:14:19Z</time>
      </trkpt>
      <trkpt lat="59.7875073" lon="17.6651415">
        <ele>14.557</ele>
        <time>2013-04-21T13:14:20Z</time>
      </trkpt>
      <trkpt lat="59.7875837" lon="17.6651162">
        <ele>14.0764</ele>
        <time>2013-04-21T13:14:21Z</time>
      </trkpt>
      <trkpt lat="59.7876605" lon="17.6650924">
        <ele>13.5958</ele>
        <time>2013-04-21T13:14:22Z</time>
      </trkpt>
      <trkpt lat="59.7877403" lon="17.6650682">
        <ele>13.1151</ele>
        <time>2013-04-21T13:14:23Z</time>
      </trkpt>
      <trkpt lat="59.7878208" lon="17.6650583">
        <ele>12.1538</ele>
        <time>2013-04-21T13:14:24Z</time>
      </trkpt>
      <trkpt lat="59.787901" lon="17.6650596">
        <ele>11.6732</ele>
        <time>2013-04-21T13:14:25Z</time>
      </trkpt>
      <trkpt lat="59.7879837" lon="17.6650645">
        <ele>11.1925</ele>
        <time>2013-04-21T13:14:26Z</time>
      </trkpt>
      <trkpt lat="59.7880685" lon="17.6650708">
        <ele>11.1925</ele>
        <time>2013-04-21T13:14:27Z</time>
      </trkpt>
      <trkpt lat="59.788153" lon="17.6650752">
        <ele>11.1925</ele>
        <time>2013-04-21T13:14:28Z</time>
      </trkpt>
      <trkpt lat="59.7882383" lon="17.6650787">
        <ele>11.1925</ele>
        <time>2013-04-21T13:14:29Z</time>
      </trkpt>
      <trkpt lat="59.7883243" lon="17.6650803">
        <ele>11.1925</ele>
        <time>2013-04-21T13:14:30Z</time>
      </trkpt>
      <trkpt lat="59.7884103" lon="17.6650805">
        <ele>11.1925</ele>
        <time>2013-04-21T13:14:31Z</time>
      </trkpt>
      <trkpt lat="59.7884978" lon="17.6650779">
        <ele>11.1925</ele>
        <time>2013-04-21T13:14:32Z</time>
      </trkpt>
      <trkpt lat="59.7885849" lon="17.665077">
        <ele>11.1925</ele>
        <time>2013-04-21T13:14:33Z</time>
      </trkpt>
      <trkpt lat="59.7886719" lon="17.6650851">
        <ele>11.1925</ele>
        <time>2013-04-21T13:14:34Z</time>
      </trkpt>
      <trkpt lat="59.7887568" lon="17.6651106">
        <ele>11.1925</ele>
        <time>2013-04-21T13:14:35Z</time>
      </trkpt>
      <trkpt lat="59.7888383" lon="17.6651534">
        <ele>10.7118</ele>
        <time>2013-04-21T13:14:36Z</time>
      </trkpt>
      <trkpt lat="59.7889161" lon="17.6652053">
        <ele>10.7118</ele>
        <time>2013-04-21T13:14:37Z</time>
      </trkpt>
      <trkpt lat="59.7890003" lon="17.6652725">
        <ele>11.1925</ele>
        <time>2013-04-21T13:14:38Z</time>
      </trkpt>
      <trkpt lat="59.7890673" lon="17.6653544">
        <ele>11.1925</ele>
        <time>2013-04-21T13:14:39Z</time>
      </trkpt>
      <trkpt lat="59.7891398" lon="17.6654038">
        <ele>11.1925</ele>
        <time>2013-04-21T13:14:40Z</time>
      </trkpt>
      <trkpt lat="59.7892061" lon="17.6654685">
        <ele>11.6732</ele>
        <time>2013-04-21T13:14:41Z</time>
      </trkpt>
      <trkpt lat="59.7892605" lon="17.6655264">
        <ele>11.1925</ele>
        <time>2013-04-21T13:14:42Z</time>
      </trkpt>
      <trkpt lat="59.7893197" lon="17.6656007">
        <ele>12.1538</ele>
        <time>2013-04-21T13:14:43Z</time>
      </trkpt>
      <trkpt lat="59.789382" lon="17.6656611">
        <ele>11.6732</ele>
        <time>2013-04-21T13:14:44Z</time>
      </trkpt>
      <trkpt lat="59.7894366" lon="17.6657056">
        <ele>11.1925</ele>
        <time>2013-04-21T13:14:45Z</time>
      </trkpt>
      <trkpt lat="59.7894873" lon="17.6657574">
        <ele>9.75061</ele>
        <time>2013-04-21T13:14:46Z</time>
      </trkpt>
      <trkpt lat="59.7895407" lon="17.6658062">
        <ele>8.78918</ele>
        <time>2013-04-21T13:14:47Z</time>
      </trkpt>
      <trkpt lat="59.7896087" lon="17.6658439">
        <ele>8.78918</ele>
        <time>2013-04-21T13:14:48Z</time>
      </trkpt>
      <trkpt lat="59.7896721" lon="17.6658967">
        <ele>8.30859</ele>
        <time>2013-04-21T13:14:49Z</time>
      </trkpt>
      <trkpt lat="59.7897351" lon="17.6659509">
        <ele>7.34717</ele>
        <time>2013-04-21T13:14:50Z</time>
      </trkpt>
      <trkpt lat="59.7898018" lon="17.6660087">
        <ele>5.42456</ele>
        <time>2013-04-21T13:14:51Z</time>
      </trkpt>
      <trkpt lat="59.7898713" lon="17.6660518">
        <ele>3.98267</ele>
        <time>2013-04-21T13:14:52Z</time>
      </trkpt>
      <trkpt lat="59.7899412" lon="17.6661107">
        <ele>3.02124</ele>
        <time>2013-04-21T13:14:53Z</time>
      </trkpt>
      <trkpt lat="59.790012" lon="17.6661767">
        <ele>2.06006</ele>
        <time>2013-04-21T13:14:54Z</time>
      </trkpt>
      <trkpt lat="59.7900774" lon="17.6662553">
        <ele>1.09863</ele>
        <time>2013-04-21T13:14:55Z</time>
      </trkpt>
      <trkpt lat="59.7901411" lon="17.666339">
        <ele>0.137451</ele>
        <time>2013-04-21T13:14:56Z</time>
      </trkpt>
      <trkpt lat="59.7902041" lon="17.6664258">
        <ele>0</ele>
        <time>2013-04-21T13:14:57Z</time>
      </trkpt>
      <trkpt lat="59.7902649" lon="17.6665225">
        <ele>0</ele>
        <time>2013-04-21T13:14:58Z</time>
      </trkpt>
      <trkpt lat="59.7903228" lon="17.6666272">
        <ele>0</ele>
        <time>2013-04-21T13:14:59Z</time>
      </trkpt>
      <trkpt lat="59.7903773" lon="17.6667374">
        <ele>0</ele>
        <time>2013-04-21T13:15:00Z</time>
      </trkpt>
      <trkpt lat="59.7904306" lon="17.6668619">
        <ele>0</ele>
        <time>2013-04-21T13:15:01Z</time>
      </trkpt>
      <trkpt lat="59.7904855" lon="17.6669884">
        <ele>0</ele>
        <time>2013-04-21T13:15:02Z</time>
      </trkpt>
      <trkpt lat="59.7905378" lon="17.6671093">
        <ele>0</ele>
        <time>2013-04-21T13:15:03Z</time>
      </trkpt>
      <trkpt lat="59.7905929" lon="17.6672365">
        <ele>0</ele>
        <time>2013-04-21T13:15:04Z</time>
      </trkpt>
      <trkpt lat="59.7906513" lon="17.66736">
        <ele>0</ele>
        <time>2013-04-21T13:15:05Z</time>
      </trkpt>
      <trkpt lat="59.7907042" lon="17.6674768">
        <ele>0</ele>
        <time>2013-04-21T13:15:06Z</time>
      </trkpt>
      <trkpt lat="59.790787" lon="17.6675836">
        <ele>0</ele>
        <time>2013-04-21T13:15:07Z</time>
      </trkpt>
      <trkpt lat="59.7908804" lon="17.6676856">
        <ele>0</ele>
        <time>2013-04-21T13:15:08Z</time>
      </trkpt>
      <trkpt lat="59.7909724" lon="17.6677835">
        <ele>1.09863</ele>
        <time>2013-04-21T13:15:09Z</time>
      </trkpt>
      <trkpt lat="59.7910457" lon="17.6678797">
        <ele>2.06006</ele>
        <time>2013-04-21T13:15:10Z</time>
      </trkpt>
      <trkpt lat="59.7911138" lon="17.6679809">
        <ele>2.54065</ele>
        <time>2013-04-21T13:15:11Z</time>
      </trkpt>
      <trkpt lat="59.7911808" lon="17.6680794">
        <ele>3.02124</ele>
        <time>2013-04-21T13:15:12Z</time>
      </trkpt>
      <trkpt lat="59.7912505" lon="17.6681735">
        <ele>3.02124</ele>
        <time>2013-04-21T13:15:13Z</time>
      </trkpt>
      <trkpt lat="59.7913237" lon="17.6682539">
        <ele>3.50195</ele>
        <time>2013-04-21T13:15:14Z</time>
      </trkpt>
      <trkpt lat="59.7913958" lon="17.668316">
        <ele>3.02124</ele>
        <time>2013-04-21T13:15:15Z</time>
      </trkpt>
      <trkpt lat="59.7914611" lon="17.6683973">
        <ele>2.54065</ele>
        <time>2013-04-21T13:15:16Z</time>
      </trkpt>
      <trkpt lat="59.7915294" lon="17.6684719">
        <ele>2.54065</ele>
        <time>2013-04-21T13:15:17Z</time>
      </trkpt>
      <trkpt lat="59.7916001" lon="17.6685325">
        <ele>2.54065</ele>
        <time>2013-04-21T13:15:18Z</time>
      </trkpt>
      <trkpt lat="59.7916691" lon="17.6685858">
        <ele>2.06006</ele>
        <time>2013-04-21T13:15:19Z</time>
      </trkpt>
      <trkpt lat="59.7917387" lon="17.6686323">
        <ele>2.06006</ele>
        <time>2013-04-21T13:15:20Z</time>
      </trkpt>
      <trkpt lat="59.7918058" lon="17.6686836">
        <ele>1.09863</ele>
        <time>2013-04-21T13:15:21Z</time>
      </trkpt>
      <trkpt lat="59.791879" lon="17.6687252">
        <ele>1.57935</ele>
        <time>2013-04-21T13:15:22Z</time>
      </trkpt>
      <trkpt lat="59.7919534" lon="17.6687732">
        <ele>2.54065</ele>
        <time>2013-04-21T13:15:23Z</time>
      </trkpt>
      <trkpt lat="59.7920268" lon="17.6688162">
        <ele>2.54065</ele>
        <time>2013-04-21T13:15:24Z</time>
      </trkpt>
      <trkpt lat="59.7921009" lon="17.6688511">
        <ele>3.02124</ele>
        <time>2013-04-21T13:15:25Z</time>
      </trkpt>
      <trkpt lat="59.7921729" lon="17.668895">
        <ele>3.02124</ele>
        <time>2013-04-21T13:15:26Z</time>
      </trkpt>
      <trkpt lat="59.7922432" lon="17.6689567">
        <ele>3.02124</ele>
        <time>2013-04-21T13:15:27Z</time>
      </trkpt>
      <trkpt lat="59.7923137" lon="17.6690157">
        <ele>3.50195</ele>
        <time>2013-04-21T13:15:28Z</time>
      </trkpt>
      <trkpt lat="59.7923814" lon="17.6690669">
        <ele>2.54065</ele>
        <time>2013-04-21T13:15:29Z</time>
      </trkpt>
      <trkpt lat="59.7924526" lon="17.669098">
        <ele>1.57935</ele>
        <time>2013-04-21T13:15:30Z</time>
      </trkpt>
      <trkpt lat="59.7925275" lon="17.6691173">
        <ele>2.06006</ele>
        <time>2013-04-21T13:15:31Z</time>
      </trkpt>
      <trkpt lat="59.7926038" lon="17.6691441">
        <ele>2.06006</ele>
        <time>2013-04-21T13:15:32Z</time>
      </trkpt>
      <trkpt lat="59.7926812" lon="17.669161">
        <ele>2.54065</ele>
        <time>2013-04-21T13:15:33Z</time>
      </trkpt>
      <trkpt lat="59.7927579" lon="17.6691843">
        <ele>2.54065</ele>
        <time>2013-04-21T13:15:34Z</time>
      </trkpt>
      <trkpt lat="59.7928316" lon="17.6692136">
        <ele>2.06006</ele>
        <time>2013-04-21T13:15:35Z</time>
      </trkpt>
      <trkpt lat="59.7929067" lon="17.6692389">
        <ele>1.57935</ele>
        <time>2013-04-21T13:15:36Z</time>
      </trkpt>
      <trkpt lat="59.7929839" lon="17.6692645">
        <ele>2.06006</ele>
        <time>2013-04-21T13:15:37Z</time>
      </trkpt>
      <trkpt lat="59.7930583" lon="17.66928">
        <ele>1.57935</ele>
        <time>2013-04-21T13:15:38Z</time>
      </trkpt>
      <trkpt lat="59.7931333" lon="17.6692894">
        <ele>2.06006</ele>
        <time>2013-04-21T13:15:39Z</time>
      </trkpt>
      <trkpt lat="59.7932067" lon="17.6693073">
        <ele>2.54065</ele>
        <time>2013-04-21T13:15:40Z</time>
      </trkpt>
      <trkpt lat="59.7932785" lon="17.6693231">
        <ele>3.02124</ele>
        <time>2013-04-21T13:15:41Z</time>
      </trkpt>
      <trkpt lat="59.7933508" lon="17.6693347">
        <ele>4.46326</ele>
        <time>2013-04-21T13:15:42Z</time>
      </trkpt>
      <trkpt lat="59.7934195" lon="17.6693592">
        <ele>4.94385</ele>
        <time>2013-04-21T13:15:43Z</time>
      </trkpt>
      <trkpt lat="59.7934867" lon="17.6693853">
        <ele>5.42456</ele>
        <time>2013-04-21T13:15:44Z</time>
      </trkpt>
      <trkpt lat="59.7935557" lon="17.6694162">
        <ele>5.42456</ele>
        <time>2013-04-21T13:15:45Z</time>
      </trkpt>
      <trkpt lat="59.7936261" lon="17.6694536">
        <ele>6.38586</ele>
        <time>2013-04-21T13:15:46Z</time>
      </trkpt>
      <trkpt lat="59.7936988" lon="17.6695012">
        <ele>7.34717</ele>
        <time>2013-04-21T13:15:47Z</time>
      </trkpt>
      <trkpt lat="59.793772" lon="17.6695548">
        <ele>8.30859</ele>
        <time>2013-04-21T13:15:48Z</time>
      </trkpt>
      <trkpt lat="59.7938432" lon="17.669622">
        <ele>9.2699</ele>
        <time>2013-04-21T13:15:49Z</time>
      </trkpt>
      <trkpt lat="59.7939123" lon="17.6696948">
        <ele>10.2312</ele>
        <time>2013-04-21T13:15:50Z</time>
      </trkpt>
      <trkpt lat="59.7939759" lon="17.6697712">
        <ele>10.7118</ele>
        <time>2013-04-21T13:15:51Z</time>
      </trkpt>
      <trkpt lat="59.7940372" lon="17.669853">
        <ele>10.7118</ele>
        <time>2013-04-21T13:15:52Z</time>
      </trkpt>
      <trkpt lat="59.7940962" lon="17.6699394">
        <ele>10.2312</ele>
        <time>2013-04-21T13:15:53Z</time>
      </trkpt>
      <trkpt lat="59.7941578" lon="17.6700161">
        <ele>10.2312</ele>
        <time>2013-04-21T13:15:54Z</time>
      </trkpt>
      <trkpt lat="59.7942177" lon="17.6700933">
        <ele>9.2699</ele>
        <time>2013-04-21T13:15:55Z</time>
      </trkpt>
      <trkpt lat="59.7942796" lon="17.6701652">
        <ele>8.78918</ele>
        <time>2013-04-21T13:15:56Z</time>
      </trkpt>
      <trkpt lat="59.7943433" lon="17.6702311">
        <ele>8.78918</ele>
        <time>2013-04-21T13:15:57Z</time>
      </trkpt>
      <trkpt lat="59.7944084" lon="17.6702927">
        <ele>8.78918</ele>
        <time>2013-04-21T13:15:58Z</time>
      </trkpt>
      <trkpt lat="59.7944751" lon="17.6703467">
        <ele>8.78918</ele>
        <time>2013-04-21T13:15:59Z</time>
      </trkpt>
      <trkpt lat="59.7945432" lon="17.6703948">
        <ele>8.78918</ele>
        <time>2013-04-21T13:16:00Z</time>
      </trkpt>
      <trkpt lat="59.794615" lon="17.6704337">
        <ele>8.78918</ele>
        <time>2013-04-21T13:16:01Z</time>
      </trkpt>
      <trkpt lat="59.7946882" lon="17.6704692">
        <ele>8.30859</ele>
        <time>2013-04-21T13:16:02Z</time>
      </trkpt>
      <trkpt lat="59.7947632" lon="17.6704937">
        <ele>7.82788</ele>
        <time>2013-04-21T13:16:03Z</time>
      </trkpt>
      <trkpt lat="59.7948437" lon="17.6705019">
        <ele>7.82788</ele>
        <time>2013-04-21T13:16:04Z</time>
      </trkpt>
      <trkpt lat="59.7949207" lon="17.6705013">
        <ele>8.30859</ele>
        <time>2013-04-21T13:16:05Z</time>
      </trkpt>
      <trkpt lat="59.7949967" lon="17.670488">
        <ele>8.30859</ele>
        <time>2013-04-21T13:16:06Z</time>
      </trkpt>
      <trkpt lat="59.7950726" lon="17.6704672">
        <ele>8.78918</ele>
        <time>2013-04-21T13:16:07Z</time>
      </trkpt>
      <trkpt lat="59.7951461" lon="17.6704502">
        <ele>8.78918</ele>
        <time>2013-04-21T13:16:08Z</time>
      </trkpt>
      <trkpt lat="59.7952192" lon="17.6704428">
        <ele>8.78918</ele>
        <time>2013-04-21T13:16:09Z</time>
      </trkpt>
      <trkpt lat="59.7952931" lon="17.6704451">
        <ele>9.2699</ele>
        <time>2013-04-21T13:16:10Z</time>
      </trkpt>
      <trkpt lat="59.7953668" lon="17.6704572">
        <ele>9.2699</ele>
        <time>2013-04-21T13:16:11Z</time>
      </trkpt>
      <trkpt lat="59.7954398" lon="17.6704769">
        <ele>9.75061</ele>
        <time>2013-04-21T13:16:12Z</time>
      </trkpt>
      <trkpt lat="59.7955168" lon="17.6704844">
        <ele>9.75061</ele>
        <time>2013-04-21T13:16:13Z</time>
      </trkpt>
      <trkpt lat="59.7955897" lon="17.6705179">
        <ele>9.75061</ele>
        <time>2013-04-21T13:16:14Z</time>
      </trkpt>
      <trkpt lat="59.7956624" lon="17.6705611">
        <ele>9.75061</ele>
        <time>2013-04-21T13:16:15Z</time>
      </trkpt>
      <trkpt lat="59.7957445" lon="17.6706299">
        <ele>10.7118</ele>
        <time>2013-04-21T13:16:16Z</time>
      </trkpt>
      <trkpt lat="59.7958118" lon="17.6706765">
        <ele>11.1925</ele>
        <time>2013-04-21T13:16:17Z</time>
      </trkpt>
      <trkpt lat="59.7958815" lon="17.6707185">
        <ele>11.1925</ele>
        <time>2013-04-21T13:16:18Z</time>
      </trkpt>
      <trkpt lat="59.7959505" lon="17.670767">
        <ele>11.1925</ele>
        <time>2013-04-21T13:16:19Z</time>
      </trkpt>
      <trkpt lat="59.7960225" lon="17.6708159">
        <ele>11.1925</ele>
        <time>2013-04-21T13:16:20Z</time>
      </trkpt>
      <trkpt lat="59.7960976" lon="17.6708672">
        <ele>11.6732</ele>
        <time>2013-04-21T13:16:21Z</time>
      </trkpt>
      <trkpt lat="59.7961708" lon="17.6709215">
        <ele>11.6732</ele>
        <time>2013-04-21T13:16:22Z</time>
      </trkpt>
      <trkpt lat="59.7962454" lon="17.6709771">
        <ele>12.1538</ele>
        <time>2013-04-21T13:16:23Z</time>
      </trkpt>
      <trkpt lat="59.7963178" lon="17.6710371">
        <ele>12.6344</ele>
        <time>2013-04-21T13:16:24Z</time>
      </trkpt>
      <trkpt lat="59.7963873" lon="17.6710973">
        <ele>12.6344</ele>
        <time>2013-04-21T13:16:25Z</time>
      </trkpt>
      <trkpt lat="59.7964515" lon="17.6711605">
        <ele>12.1538</ele>
        <time>2013-04-21T13:16:26Z</time>
      </trkpt>
      <trkpt lat="59.796524" lon="17.6712151">
        <ele>12.1538</ele>
        <time>2013-04-21T13:16:27Z</time>
      </trkpt>
      <trkpt lat="59.796596" lon="17.6712729">
        <ele>11.6732</ele>
        <time>2013-04-21T13:16:28Z</time>
      </trkpt>
      <trkpt lat="59.7966629" lon="17.6713378">
        <ele>10.7118</ele>
        <time>2013-04-21T13:16:29Z</time>
      </trkpt>
      <trkpt lat="59.7967364" lon="17.6714017">
        <ele>10.2312</ele>
        <time>2013-04-21T13:16:30Z</time>
      </trkpt>
      <trkpt lat="59.7968141" lon="17.6714593">
        <ele>9.75061</ele>
        <time>2013-04-21T13:16:31Z</time>
      </trkpt>
      <trkpt lat="59.7968939" lon="17.6715125">
        <ele>9.2699</ele>
        <time>2013-04-21T13:16:32Z</time>
      </trkpt>
      <trkpt lat="59.7969752" lon="17.6715628">
        <ele>9.2699</ele>
        <time>2013-04-21T13:16:33Z</time>
      </trkpt>
      <trkpt lat="59.7970556" lon="17.6716141">
        <ele>8.78918</ele>
        <time>2013-04-21T13:16:34Z</time>
      </trkpt>
      <trkpt lat="59.7971378" lon="17.6716587">
        <ele>8.30859</ele>
        <time>2013-04-21T13:16:35Z</time>
      </trkpt>
      <trkpt lat="59.7972172" lon="17.6717082">
        <ele>8.30859</ele>
        <time>2013-04-21T13:16:36Z</time>
      </trkpt>
      <trkpt lat="59.7972973" lon="17.6717533">
        <ele>7.82788</ele>
        <time>2013-04-21T13:16:37Z</time>
      </trkpt>
      <trkpt lat="59.7973747" lon="17.6717966">
        <ele>6.86646</ele>
        <time>2013-04-21T13:16:38Z</time>
      </trkpt>
      <trkpt lat="59.7974478" lon="17.6718509">
        <ele>6.38586</ele>
        <time>2013-04-21T13:16:39Z</time>
      </trkpt>
      <trkpt lat="59.7975558" lon="17.6718733">
        <ele>6.86646</ele>
        <time>2013-04-21T13:16:40Z</time>
      </trkpt>
      <trkpt lat="59.797644" lon="17.6719145">
        <ele>6.38586</ele>
        <time>2013-04-21T13:16:41Z</time>
      </trkpt>
      <trkpt lat="59.7977216" lon="17.6719405">
        <ele>6.38586</ele>
        <time>2013-04-21T13:16:42Z</time>
      </trkpt>
      <trkpt lat="59.7977973" lon="17.6719548">
        <ele>6.86646</ele>
        <time>2013-04-21T13:16:43Z</time>
      </trkpt>
      <trkpt lat="59.7978797" lon="17.6719529">
        <ele>6.86646</ele>
        <time>2013-04-21T13:16:44Z</time>
      </trkpt>
      <trkpt lat="59.7979598" lon="17.6719404">
        <ele>6.86646</ele>
        <time>2013-04-21T13:16:45Z</time>
      </trkpt>
      <trkpt lat="59.7980302" lon="17.6719421">
        <ele>6.86646</ele>
        <time>2013-04-21T13:16:46Z</time>
      </trkpt>
      <trkpt lat="59.7981136" lon="17.6719255">
        <ele>6.86646</ele>
        <time>2013-04-21T13:16:47Z</time>
      </trkpt>
      <trkpt lat="59.7981989" lon="17.6718952">
        <ele>7.34717</ele>
        <time>2013-04-21T13:16:48Z</time>
      </trkpt>
      <trkpt lat="59.798284" lon="17.6718751">
        <ele>7.34717</ele>
        <time>2013-04-21T13:16:49Z</time>
      </trkpt>
      <trkpt lat="59.7983682" lon="17.6718576">
        <ele>7.82788</ele>
        <time>2013-04-21T13:16:50Z</time>
      </trkpt>
      <trkpt lat="59.7984495" lon="17.6718431">
        <ele>7.82788</ele>
        <time>2013-04-21T13:16:51Z</time>
      </trkpt>
      <trkpt lat="59.7985291" lon="17.6718312">
        <ele>8.30859</ele>
        <time>2013-04-21T13:16:52Z</time>
      </trkpt>
      <trkpt lat="59.7986059" lon="17.6718208">
        <ele>8.30859</ele>
        <time>2013-04-21T13:16:53Z</time>
      </trkpt>
      <trkpt lat="59.7986821" lon="17.6718116">
        <ele>9.2699</ele>
        <time>2013-04-21T13:16:54Z</time>
      </trkpt>
      <trkpt lat="59.7987565" lon="17.6718041">
        <ele>9.2699</ele>
        <time>2013-04-21T13:16:55Z</time>
      </trkpt>
      <trkpt lat="59.7988291" lon="17.6717969">
        <ele>9.75061</ele>
        <time>2013-04-21T13:16:56Z</time>
      </trkpt>
      <trkpt lat="59.798901" lon="17.6717902">
        <ele>10.2312</ele>
        <time>2013-04-21T13:16:57Z</time>
      </trkpt>
      <trkpt lat="59.7989723" lon="17.6717829">
        <ele>10.7118</ele>
        <time>2013-04-21T13:16:58Z</time>
      </trkpt>
      <trkpt lat="59.7990425" lon="17.6717732">
        <ele>10.2312</ele>
        <time>2013-04-21T13:16:59Z</time>
      </trkpt>
      <trkpt lat="59.799111" lon="17.6717654">
        <ele>10.7118</ele>
        <time>2013-04-21T13:17:00Z</time>
      </trkpt>
      <trkpt lat="59.7991776" lon="17.6717581">
        <ele>10.7118</ele>
        <time>2013-04-21T13:17:01Z</time>
      </trkpt>
      <trkpt lat="59.7992425" lon="17.6717489">
        <ele>11.6732</ele>
        <time>2013-04-21T13:17:02Z</time>
      </trkpt>
      <trkpt lat="59.7993067" lon="17.6717341">
        <ele>11.6732</ele>
        <time>2013-04-21T13:17:03Z</time>
      </trkpt>
      <trkpt lat="59.799373" lon="17.6717049">
        <ele>12.1538</ele>
        <time>2013-04-21T13:17:04Z</time>
      </trkpt>
      <trkpt lat="59.7994378" lon="17.6716727">
        <ele>12.6344</ele>
        <time>2013-04-21T13:17:05Z</time>
      </trkpt>
      <trkpt lat="59.7995026" lon="17.6716406">
        <ele>12.6344</ele>
        <time>2013-04-21T13:17:06Z</time>
      </trkpt>
      <trkpt lat="59.7995651" lon="17.6716136">
        <ele>13.1151</ele>
        <time>2013-04-21T13:17:07Z</time>
      </trkpt>
      <trkpt lat="59.7996304" lon="17.6715837">
        <ele>13.5958</ele>
        <time>2013-04-21T13:17:08Z</time>
      </trkpt>
      <trkpt lat="59.7996942" lon="17.6715572">
        <ele>14.0764</ele>
        <time>2013-04-21T13:17:09Z</time>
      </trkpt>
      <trkpt lat="59.7997596" lon="17.6715364">
        <ele>14.557</ele>
        <time>2013-04-21T13:17:10Z</time>
      </trkpt>
      <trkpt lat="59.799819" lon="17.6715354">
        <ele>14.0764</ele>
        <time>2013-04-21T13:17:11Z</time>
      </trkpt>
      <trkpt lat="59.7998833" lon="17.671538">
        <ele>13.5958</ele>
        <time>2013-04-21T13:17:12Z</time>
      </trkpt>
      <trkpt lat="59.7999541" lon="17.6715431">
        <ele>13.1151</ele>
        <time>2013-04-21T13:17:13Z</time>
      </trkpt>
      <trkpt lat="59.8000287" lon="17.671549">
        <ele>13.1151</ele>
        <time>2013-04-21T13:17:14Z</time>
      </trkpt>
      <trkpt lat="59.8001053" lon="17.671553">
        <ele>13.1151</ele>
        <time>2013-04-21T13:17:15Z</time>
      </trkpt>
      <trkpt lat="59.8001842" lon="17.6715618">
        <ele>13.1151</ele>
        <time>2013-04-21T13:17:16Z</time>
      </trkpt>
      <trkpt lat="59.8002605" lon="17.6715805">
        <ele>13.1151</ele>
        <time>2013-04-21T13:17:17Z</time>
      </trkpt>
      <trkpt lat="59.8003382" lon="17.6715981">
        <ele>13.1151</ele>
        <time>2013-04-21T13:17:18Z</time>
      </trkpt>
      <trkpt lat="59.8004044" lon="17.6716581">
        <ele>12.6344</ele>
        <time>2013-04-21T13:17:19Z</time>
      </trkpt>
      <trkpt lat="59.8004728" lon="17.671668">
        <ele>12.1538</ele>
        <time>2013-04-21T13:17:20Z</time>
      </trkpt>
      <trkpt lat="59.8005339" lon="17.6716802">
        <ele>12.1538</ele>
        <time>2013-04-21T13:17:21Z</time>
      </trkpt>
      <trkpt lat="59.8006106" lon="17.6716771">
        <ele>12.1538</ele>
        <time>2013-04-21T13:17:22Z</time>
      </trkpt>
      <trkpt lat="59.8006822" lon="17.6716808">
        <ele>12.6344</ele>
        <time>2013-04-21T13:17:23Z</time>
      </trkpt>
      <trkpt lat="59.800755" lon="17.6716811">
        <ele>12.1538</ele>
        <time>2013-04-21T13:17:24Z</time>
      </trkpt>
      <trkpt lat="59.8008307" lon="17.6716934">
        <ele>11.6732</ele>
        <time>2013-04-21T13:17:25Z</time>
      </trkpt>
      <trkpt lat="59.8009048" lon="17.6717157">
        <ele>11.1925</ele>
        <time>2013-04-21T13:17:26Z</time>
      </trkpt>
      <trkpt lat="59.8009748" lon="17.6717502">
        <ele>10.7118</ele>
        <time>2013-04-21T13:17:27Z</time>
      </trkpt>
      <trkpt lat="59.8010488" lon="17.671773">
        <ele>10.2312</ele>
        <time>2013-04-21T13:17:28Z</time>
      </trkpt>
      <trkpt lat="59.8011213" lon="17.671796">
        <ele>10.2312</ele>
        <time>2013-04-21T13:17:29Z</time>
      </trkpt>
      <trkpt lat="59.8011877" lon="17.6718453">
        <ele>9.2699</ele>
        <time>2013-04-21T13:17:30Z</time>
      </trkpt>
      <trkpt lat="59.8012605" lon="17.671872">
        <ele>9.2699</ele>
        <time>2013-04-21T13:17:31Z</time>
      </trkpt>
      <trkpt lat="59.8013348" lon="17.6718742">
        <ele>9.75061</ele>
        <time>2013-04-21T13:17:32Z</time>
      </trkpt>
      <trkpt lat="59.8014141" lon="17.671866">
        <ele>10.2312</ele>
        <time>2013-04-21T13:17:33Z</time>
      </trkpt>
      <trkpt lat="59.8014941" lon="17.6718529">
        <ele>10.7118</ele>
        <time>2013-04-21T13:17:34Z</time>
      </trkpt>
      <trkpt lat="59.8015732" lon="17.6718325">
        <ele>10.7118</ele>
        <time>2013-04-21T13:17:35Z</time>
      </trkpt>
      <trkpt lat="59.8016447" lon="17.6717955">
        <ele>10.7118</ele>
        <time>2013-04-21T13:17:36Z</time>
      </trkpt>
      <trkpt lat="59.8017217" lon="17.6717476">
        <ele>10.7118</ele>
        <time>2013-04-21T13:17:37Z</time>
      </trkpt>
      <trkpt lat="59.8017995" lon="17.6717025">
        <ele>11.6732</ele>
        <time>2013-04-21T13:17:38Z</time>
      </trkpt>
      <trkpt lat="59.8018708" lon="17.6716671">
        <ele>10.7118</ele>
        <time>2013-04-21T13:17:39Z</time>
      </trkpt>
      <trkpt lat="59.8019414" lon="17.6716379">
        <ele>9.2699</ele>
        <time>2013-04-21T13:17:40Z</time>
      </trkpt>
      <trkpt lat="59.8020181" lon="17.6716077">
        <ele>9.2699</ele>
        <time>2013-04-21T13:17:41Z</time>
      </trkpt>
      <trkpt lat="59.8020978" lon="17.6715824">
        <ele>9.2699</ele>
        <time>2013-04-21T13:17:42Z</time>
      </trkpt>
      <trkpt lat="59.8021764" lon="17.6715738">
        <ele>9.2699</ele>
        <time>2013-04-21T13:17:43Z</time>
      </trkpt>
      <trkpt lat="59.8022574" lon="17.671572">
        <ele>8.78918</ele>
        <time>2013-04-21T13:17:44Z</time>
      </trkpt>
      <trkpt lat="59.8023367" lon="17.6715686">
        <ele>8.78918</ele>
        <time>2013-04-21T13:17:45Z</time>
      </trkpt>
      <trkpt lat="59.8024097" lon="17.6715805">
        <ele>7.82788</ele>
        <time>2013-04-21T13:17:46Z</time>
      </trkpt>
      <trkpt lat="59.8024901" lon="17.6715863">
        <ele>7.82788</ele>
        <time>2013-04-21T13:17:47Z</time>
      </trkpt>
      <trkpt lat="59.802574" lon="17.6715893">
        <ele>7.34717</ele>
        <time>2013-04-21T13:17:48Z</time>
      </trkpt>
      <trkpt lat="59.8026593" lon="17.6715856">
        <ele>6.86646</ele>
        <time>2013-04-21T13:17:49Z</time>
      </trkpt>
      <trkpt lat="59.8027429" lon="17.6715896">
        <ele>6.38586</ele>
        <time>2013-04-21T13:17:50Z</time>
      </trkpt>
      <trkpt lat="59.8028311" lon="17.6715868">
        <ele>6.86646</ele>
        <time>2013-04-21T13:17:51Z</time>
      </trkpt>
      <trkpt lat="59.8029184" lon="17.671584">
        <ele>6.86646</ele>
        <time>2013-04-21T13:17:52Z</time>
      </trkpt>
      <trkpt lat="59.8030145" lon="17.6715778">
        <ele>6.86646</ele>
        <time>2013-04-21T13:17:53Z</time>
      </trkpt>
      <trkpt lat="59.8030991" lon="17.6715678">
        <ele>6.86646</ele>
        <time>2013-04-21T13:17:54Z</time>
      </trkpt>
      <trkpt lat="59.80318" lon="17.6715612">
        <ele>6.38586</ele>
        <time>2013-04-21T13:17:55Z</time>
      </trkpt>
      <trkpt lat="59.8032649" lon="17.6715617">
        <ele>6.38586</ele>
        <time>2013-04-21T13:17:56Z</time>
      </trkpt>
      <trkpt lat="59.8033466" lon="17.6715637">
        <ele>6.38586</ele>
        <time>2013-04-21T13:17:57Z</time>
      </trkpt>
      <trkpt lat="59.8034276" lon="17.6715671">
        <ele>6.86646</ele>
        <time>2013-04-21T13:17:58Z</time>
      </trkpt>
      <trkpt lat="59.8035079" lon="17.6715728">
        <ele>7.82788</ele>
        <time>2013-04-21T13:17:59Z</time>
      </trkpt>
      <trkpt lat="59.8035882" lon="17.6715753">
        <ele>7.82788</ele>
        <time>2013-04-21T13:18:00Z</time>
      </trkpt>
      <trkpt lat="59.8036654" lon="17.6715779">
        <ele>7.82788</ele>
        <time>2013-04-21T13:18:01Z</time>
      </trkpt>
      <trkpt lat="59.8037411" lon="17.6715792">
        <ele>8.30859</ele>
        <time>2013-04-21T13:18:02Z</time>
      </trkpt>
      <trkpt lat="59.8038175" lon="17.6715754">
        <ele>8.78918</ele>
        <time>2013-04-21T13:18:03Z</time>
      </trkpt>
      <trkpt lat="59.8038946" lon="17.6715727">
        <ele>9.2699</ele>
        <time>2013-04-21T13:18:04Z</time>
      </trkpt>
      <trkpt lat="59.8039725" lon="17.6715663">
        <ele>9.2699</ele>
        <time>2013-04-21T13:18:05Z</time>
      </trkpt>
      <trkpt lat="59.8040481" lon="17.6715628">
        <ele>9.75061</ele>
        <time>2013-04-21T13:18:06Z</time>
      </trkpt>
      <trkpt lat="59.8041233" lon="17.6715632">
        <ele>10.2312</ele>
        <time>2013-04-21T13:18:07Z</time>
      </trkpt>
      <trkpt lat="59.8041967" lon="17.6715669">
        <ele>10.7118</ele>
        <time>2013-04-21T13:18:08Z</time>
      </trkpt>
      <trkpt lat="59.8042743" lon="17.6715642">
        <ele>10.7118</ele>
        <time>2013-04-21T13:18:09Z</time>
      </trkpt>
      <trkpt lat="59.8043537" lon="17.6715582">
        <ele>10.7118</ele>
        <time>2013-04-21T13:18:10Z</time>
      </trkpt>
      <trkpt lat="59.8044383" lon="17.6715499">
        <ele>9.75061</ele>
        <time>2013-04-21T13:18:11Z</time>
      </trkpt>
      <trkpt lat="59.8045242" lon="17.671555">
        <ele>9.75061</ele>
        <time>2013-04-21T13:18:12Z</time>
      </trkpt>
      <trkpt lat="59.8046103" lon="17.6715608">
        <ele>9.2699</ele>
        <time>2013-04-21T13:18:13Z</time>
      </trkpt>
      <trkpt lat="59.8046963" lon="17.6715737">
        <ele>8.78918</ele>
        <time>2013-04-21T13:18:14Z</time>
      </trkpt>
      <trkpt lat="59.8047841" lon="17.6715925">
        <ele>8.30859</ele>
        <time>2013-04-21T13:18:15Z</time>
      </trkpt>
      <trkpt lat="59.8048718" lon="17.6716192">
        <ele>8.30859</ele>
        <time>2013-04-21T13:18:16Z</time>
      </trkpt>
      <trkpt lat="59.8049601" lon="17.6716504">
        <ele>7.82788</ele>
        <time>2013-04-21T13:18:17Z</time>
      </trkpt>
      <trkpt lat="59.8050473" lon="17.6716897">
        <ele>7.82788</ele>
        <time>2013-04-21T13:18:18Z</time>
      </trkpt>
      <trkpt lat="59.8051313" lon="17.6717395">
        <ele>7.34717</ele>
        <time>2013-04-21T13:18:19Z</time>
      </trkpt>
      <trkpt lat="59.8052141" lon="17.6717987">
        <ele>7.82788</ele>
        <time>2013-04-21T13:18:20Z</time>
      </trkpt>
      <trkpt lat="59.805293" lon="17.6718636">
        <ele>7.34717</ele>
        <time>2013-04-21T13:18:21Z</time>
      </trkpt>
      <trkpt lat="59.80537" lon="17.6719307">
        <ele>6.86646</ele>
        <time>2013-04-21T13:18:22Z</time>
      </trkpt>
      <trkpt lat="59.8054462" lon="17.6720005">
        <ele>6.86646</ele>
        <time>2013-04-21T13:18:23Z</time>
      </trkpt>
      <trkpt lat="59.8055219" lon="17.672071">
        <ele>6.38586</ele>
        <time>2013-04-21T13:18:24Z</time>
      </trkpt>
      <trkpt lat="59.8055979" lon="17.672139">
        <ele>5.90527</ele>
        <time>2013-04-21T13:18:25Z</time>
      </trkpt>
      <trkpt lat="59.8056757" lon="17.6722041">
        <ele>5.90527</ele>
        <time>2013-04-21T13:18:26Z</time>
      </trkpt>
      <trkpt lat="59.8057539" lon="17.6722672">
        <ele>5.42456</ele>
        <time>2013-04-21T13:18:27Z</time>
      </trkpt>
      <trkpt lat="59.8058337" lon="17.6723306">
        <ele>4.94385</ele>
        <time>2013-04-21T13:18:28Z</time>
      </trkpt>
      <trkpt lat="59.8059117" lon="17.6724001">
        <ele>4.94385</ele>
        <time>2013-04-21T13:18:29Z</time>
      </trkpt>
      <trkpt lat="59.8059896" lon="17.6724766">
        <ele>4.94385</ele>
        <time>2013-04-21T13:18:30Z</time>
      </trkpt>
      <trkpt lat="59.8060668" lon="17.6725581">
        <ele>5.42456</ele>
        <time>2013-04-21T13:18:31Z</time>
      </trkpt>
      <trkpt lat="59.8061403" lon="17.6726445">
        <ele>5.42456</ele>
        <time>2013-04-21T13:18:32Z</time>
      </trkpt>
      <trkpt lat="59.8062122" lon="17.672732">
        <ele>5.90527</ele>
        <time>2013-04-21T13:18:33Z</time>
      </trkpt>
      <trkpt lat="59.8062834" lon="17.6728197">
        <ele>6.38586</ele>
        <time>2013-04-21T13:18:34Z</time>
      </trkpt>
      <trkpt lat="59.8063554" lon="17.672905">
        <ele>6.38586</ele>
        <time>2013-04-21T13:18:35Z</time>
      </trkpt>
      <trkpt lat="59.8064284" lon="17.6729847">
        <ele>6.38586</ele>
        <time>2013-04-21T13:18:36Z</time>
      </trkpt>
      <trkpt lat="59.806504" lon="17.673058">
        <ele>6.38586</ele>
        <time>2013-04-21T13:18:37Z</time>
      </trkpt>
      <trkpt lat="59.8065817" lon="17.6731241">
        <ele>6.38586</ele>
        <time>2013-04-21T13:18:38Z</time>
      </trkpt>
      <trkpt lat="59.8066605" lon="17.6731853">
        <ele>6.38586</ele>
        <time>2013-04-21T13:18:39Z</time>
      </trkpt>
      <trkpt lat="59.8067407" lon="17.6732465">
        <ele>6.86646</ele>
        <time>2013-04-21T13:18:40Z</time>
      </trkpt>
      <trkpt lat="59.8068194" lon="17.6733133">
        <ele>6.38586</ele>
        <time>2013-04-21T13:18:41Z</time>
      </trkpt>
      <trkpt lat="59.8069001" lon="17.6733789">
        <ele>6.38586</ele>
        <time>2013-04-21T13:18:42Z</time>
      </trkpt>
      <trkpt lat="59.8069827" lon="17.6734406">
        <ele>6.38586</ele>
        <time>2013-04-21T13:18:43Z</time>
      </trkpt>
      <trkpt lat="59.8070634" lon="17.6735097">
        <ele>6.38586</ele>
        <time>2013-04-21T13:18:44Z</time>
      </trkpt>
      <trkpt lat="59.8071434" lon="17.673582">
        <ele>5.90527</ele>
        <time>2013-04-21T13:18:45Z</time>
      </trkpt>
      <trkpt lat="59.807225" lon="17.6736551">
        <ele>5.90527</ele>
        <time>2013-04-21T13:18:46Z</time>
      </trkpt>
      <trkpt lat="59.8073064" lon="17.6737296">
        <ele>6.38586</ele>
        <time>2013-04-21T13:18:47Z</time>
      </trkpt>
      <trkpt lat="59.8073862" lon="17.6738077">
        <ele>5.90527</ele>
        <time>2013-04-21T13:18:48Z</time>
      </trkpt>
      <trkpt lat="59.8074618" lon="17.6738965">
        <ele>5.90527</ele>
        <time>2013-04-21T13:18:49Z</time>
      </trkpt>
      <trkpt lat="59.8075317" lon="17.6740047">
        <ele>6.38586</ele>
        <time>2013-04-21T13:18:50Z</time>
      </trkpt>
      <trkpt lat="59.8075965" lon="17.6741279">
        <ele>6.38586</ele>
        <time>2013-04-21T13:18:51Z</time>
      </trkpt>
      <trkpt lat="59.8076581" lon="17.6742607">
        <ele>6.86646</ele>
        <time>2013-04-21T13:18:52Z</time>
      </trkpt>
      <trkpt lat="59.8077134" lon="17.6744021">
        <ele>7.82788</ele>
        <time>2013-04-21T13:18:53Z</time>
      </trkpt>
      <trkpt lat="59.807765" lon="17.6745481">
        <ele>8.30859</ele>
        <time>2013-04-21T13:18:54Z</time>
      </trkpt>
      <trkpt lat="59.8078149" lon="17.6746971">
        <ele>8.78918</ele>
        <time>2013-04-21T13:18:55Z</time>
      </trkpt>
      <trkpt lat="59.8078626" lon="17.6748491">
        <ele>8.78918</ele>
        <time>2013-04-21T13:18:56Z</time>
      </trkpt>
      <trkpt lat="59.8079078" lon="17.6750034">
        <ele>9.2699</ele>
        <time>2013-04-21T13:18:57Z</time>
      </trkpt>
      <trkpt lat="59.8079534" lon="17.6751559">
        <ele>9.75061</ele>
        <time>2013-04-21T13:18:58Z</time>
      </trkpt>
      <trkpt lat="59.8080014" lon="17.675302">
        <ele>9.75061</ele>
        <time>2013-04-21T13:18:59Z</time>
      </trkpt>
      <trkpt lat="59.8080532" lon="17.6754424">
        <ele>9.75061</ele>
        <time>2013-04-21T13:19:00Z</time>
      </trkpt>
      <trkpt lat="59.8081127" lon="17.6755695">
        <ele>10.7118</ele>
        <time>2013-04-21T13:19:01Z</time>
      </trkpt>
      <trkpt lat="59.808173" lon="17.6756894">
        <ele>11.6732</ele>
        <time>2013-04-21T13:19:02Z</time>
      </trkpt>
      <trkpt lat="59.8082303" lon="17.6758114">
        <ele>12.6344</ele>
        <time>2013-04-21T13:19:03Z</time>
      </trkpt>
      <trkpt lat="59.8082811" lon="17.6759319">
        <ele>12.6344</ele>
        <time>2013-04-21T13:19:04Z</time>
      </trkpt>
      <trkpt lat="59.8083372" lon="17.676037">
        <ele>12.6344</ele>
        <time>2013-04-21T13:19:05Z</time>
      </trkpt>
      <trkpt lat="59.8083958" lon="17.6761413">
        <ele>12.6344</ele>
        <time>2013-04-21T13:19:06Z</time>
      </trkpt>
      <trkpt lat="59.8084554" lon="17.676241">
        <ele>12.6344</ele>
        <time>2013-04-21T13:19:07Z</time>
      </trkpt>
      <trkpt lat="59.8085166" lon="17.6763312">
        <ele>12.6344</ele>
        <time>2013-04-21T13:19:08Z</time>
      </trkpt>
      <trkpt lat="59.8085756" lon="17.6764228">
        <ele>12.1538</ele>
        <time>2013-04-21T13:19:09Z</time>
      </trkpt>
      <trkpt lat="59.8086461" lon="17.6765063">
        <ele>13.1151</ele>
        <time>2013-04-21T13:19:10Z</time>
      </trkpt>
      <trkpt lat="59.8087065" lon="17.6766009">
        <ele>12.6344</ele>
        <time>2013-04-21T13:19:11Z</time>
      </trkpt>
      <trkpt lat="59.8087672" lon="17.6766958">
        <ele>12.6344</ele>
        <time>2013-04-21T13:19:12Z</time>
      </trkpt>
      <trkpt lat="59.8088252" lon="17.6767899">
        <ele>12.6344</ele>
        <time>2013-04-21T13:19:13Z</time>
      </trkpt>
      <trkpt lat="59.8088789" lon="17.676888">
        <ele>11.6732</ele>
        <time>2013-04-21T13:19:14Z</time>
      </trkpt>
      <trkpt lat="59.8089314" lon="17.6769828">
        <ele>11.1925</ele>
        <time>2013-04-21T13:19:15Z</time>
      </trkpt>
      <trkpt lat="59.8089811" lon="17.6770797">
        <ele>10.7118</ele>
        <time>2013-04-21T13:19:16Z</time>
      </trkpt>
      <trkpt lat="59.8090317" lon="17.677174">
        <ele>9.75061</ele>
        <time>2013-04-21T13:19:17Z</time>
      </trkpt>
      <trkpt lat="59.8090814" lon="17.6772681">
        <ele>9.2699</ele>
        <time>2013-04-21T13:19:18Z</time>
      </trkpt>
      <trkpt lat="59.8091351" lon="17.6773545">
        <ele>8.78918</ele>
        <time>2013-04-21T13:19:19Z</time>
      </trkpt>
      <trkpt lat="59.8091872" lon="17.6774439">
        <ele>8.30859</ele>
        <time>2013-04-21T13:19:20Z</time>
      </trkpt>
      <trkpt lat="59.809242" lon="17.6775201">
        <ele>8.30859</ele>
        <time>2013-04-21T13:19:21Z</time>
      </trkpt>
      <trkpt lat="59.809296" lon="17.6775908">
        <ele>8.30859</ele>
        <time>2013-04-21T13:19:22Z</time>
      </trkpt>
      <trkpt lat="59.809349" lon="17.6776537">
        <ele>7.82788</ele>
        <time>2013-04-21T13:19:23Z</time>
      </trkpt>
      <trkpt lat="59.8094049" lon="17.6777126">
        <ele>7.82788</ele>
        <time>2013-04-21T13:19:24Z</time>
      </trkpt>
      <trkpt lat="59.8094665" lon="17.6777676">
        <ele>7.82788</ele>
        <time>2013-04-21T13:19:25Z</time>
      </trkpt>
      <trkpt lat="59.8095474" lon="17.6778045">
        <ele>7.34717</ele>
        <time>2013-04-21T13:19:26Z</time>
      </trkpt>
      <trkpt lat="59.8096239" lon="17.6778581">
        <ele>7.82788</ele>
        <time>2013-04-21T13:19:27Z</time>
      </trkpt>
      <trkpt lat="59.8096912" lon="17.6779095">
        <ele>7.34717</ele>
        <time>2013-04-21T13:19:28Z</time>
      </trkpt>
      <trkpt lat="59.8097686" lon="17.6779634">
        <ele>7.82788</ele>
        <time>2013-04-21T13:19:29Z</time>
      </trkpt>
      <trkpt lat="59.8098447" lon="17.6780257">
        <ele>7.82788</ele>
        <time>2013-04-21T13:19:30Z</time>
      </trkpt>
      <trkpt lat="59.8099128" lon="17.6780883">
        <ele>8.30859</ele>
        <time>2013-04-21T13:19:31Z</time>
      </trkpt>
      <trkpt lat="59.8099817" lon="17.6781612">
        <ele>7.34717</ele>
        <time>2013-04-21T13:19:32Z</time>
      </trkpt>
      <trkpt lat="59.8100462" lon="17.678239">
        <ele>7.34717</ele>
        <time>2013-04-21T13:19:33Z</time>
      </trkpt>
      <trkpt lat="59.8100871" lon="17.6783523">
        <ele>6.86646</ele>
        <time>2013-04-21T13:19:34Z</time>
      </trkpt>
      <trkpt lat="59.8101762" lon="17.6784441">
        <ele>10.2312</ele>
        <time>2013-04-21T13:19:35Z</time>
      </trkpt>
      <trkpt lat="59.8102371" lon="17.6785585">
        <ele>11.6732</ele>
        <time>2013-04-21T13:19:36Z</time>
      </trkpt>
      <trkpt lat="59.8102969" lon="17.6786788">
        <ele>13.1151</ele>
        <time>2013-04-21T13:19:37Z</time>
      </trkpt>
      <trkpt lat="59.8103517" lon="17.6787921">
        <ele>14.557</ele>
        <time>2013-04-21T13:19:38Z</time>
      </trkpt>
      <trkpt lat="59.810408" lon="17.6789143">
        <ele>15.5184</ele>
        <time>2013-04-21T13:19:39Z</time>
      </trkpt>
      <trkpt lat="59.810446" lon="17.6790444">
        <ele>15.999</ele>
        <time>2013-04-21T13:19:40Z</time>
      </trkpt>
      <trkpt lat="59.8104749" lon="17.6791401">
        <ele>15.5184</ele>
        <time>2013-04-21T13:19:41Z</time>
      </trkpt>
      <trkpt lat="59.8105129" lon="17.6792476">
        <ele>16.4797</ele>
        <time>2013-04-21T13:19:42Z</time>
      </trkpt>
      <trkpt lat="59.8105474" lon="17.67936">
        <ele>16.9604</ele>
        <time>2013-04-21T13:19:43Z</time>
      </trkpt>
      <trkpt lat="59.8105833" lon="17.6794763">
        <ele>17.4412</ele>
        <time>2013-04-21T13:19:44Z</time>
      </trkpt>
      <trkpt lat="59.8106236" lon="17.679567">
        <ele>17.9218</ele>
        <time>2013-04-21T13:19:45Z</time>
      </trkpt>
      <trkpt lat="59.8106705" lon="17.6796738">
        <ele>17.9218</ele>
        <time>2013-04-21T13:19:46Z</time>
      </trkpt>
      <trkpt lat="59.8107179" lon="17.679763">
        <ele>17.9218</ele>
        <time>2013-04-21T13:19:47Z</time>
      </trkpt>
      <trkpt lat="59.8107693" lon="17.6798438">
        <ele>17.9218</ele>
        <time>2013-04-21T13:19:48Z</time>
      </trkpt>
      <trkpt lat="59.8108223" lon="17.6799226">
        <ele>17.4412</ele>
        <time>2013-04-21T13:19:49Z</time>
      </trkpt>
      <trkpt lat="59.8108791" lon="17.6799919">
        <ele>17.4412</ele>
        <time>2013-04-21T13:19:50Z</time>
      </trkpt>
      <trkpt lat="59.810939" lon="17.6800555">
        <ele>16.9604</ele>
        <time>2013-04-21T13:19:51Z</time>
      </trkpt>
      <trkpt lat="59.8110014" lon="17.6801146">
        <ele>16.9604</ele>
        <time>2013-04-21T13:19:52Z</time>
      </trkpt>
      <trkpt lat="59.8110671" lon="17.6801676">
        <ele>16.4797</ele>
        <time>2013-04-21T13:19:53Z</time>
      </trkpt>
      <trkpt lat="59.8111364" lon="17.6802127">
        <ele>15.999</ele>
        <time>2013-04-21T13:19:54Z</time>
      </trkpt>
      <trkpt lat="59.8112081" lon="17.6802514">
        <ele>15.5184</ele>
        <time>2013-04-21T13:19:55Z</time>
      </trkpt>
      <trkpt lat="59.8112817" lon="17.6802872">
        <ele>15.5184</ele>
        <time>2013-04-21T13:19:56Z</time>
      </trkpt>
      <trkpt lat="59.8113578" lon="17.6803197">
        <ele>15.0377</ele>
        <time>2013-04-21T13:19:57Z</time>
      </trkpt>
      <trkpt lat="59.8114368" lon="17.6803482">
        <ele>14.557</ele>
        <time>2013-04-21T13:19:58Z</time>
      </trkpt>
      <trkpt lat="59.8115183" lon="17.6803726">
        <ele>14.557</ele>
        <time>2013-04-21T13:19:59Z</time>
      </trkpt>
      <trkpt lat="59.8116013" lon="17.6803938">
        <ele>14.0764</ele>
        <time>2013-04-21T13:20:00Z</time>
      </trkpt>
      <trkpt lat="59.8116862" lon="17.6804127">
        <ele>13.5958</ele>
        <time>2013-04-21T13:20:01Z</time>
      </trkpt>
      <trkpt lat="59.8117732" lon="17.6804277">
        <ele>13.5958</ele>
        <time>2013-04-21T13:20:02Z</time>
      </trkpt>
      <trkpt lat="59.8118616" lon="17.6804384">
        <ele>13.1151</ele>
        <time>2013-04-21T13:20:03Z</time>
      </trkpt>
      <trkpt lat="59.8119505" lon="17.6804463">
        <ele>12.6344</ele>
        <time>2013-04-21T13:20:04Z</time>
      </trkpt>
      <trkpt lat="59.8120393" lon="17.680453">
        <ele>12.6344</ele>
        <time>2013-04-21T13:20:05Z</time>
      </trkpt>
      <trkpt lat="59.8121276" lon="17.6804556">
        <ele>12.1538</ele>
        <time>2013-04-21T13:20:06Z</time>
      </trkpt>
      <trkpt lat="59.8122171" lon="17.6804524">
        <ele>11.6732</ele>
        <time>2013-04-21T13:20:07Z</time>
      </trkpt>
      <trkpt lat="59.8123079" lon="17.6804458">
        <ele>11.1925</ele>
        <time>2013-04-21T13:20:08Z</time>
      </trkpt>
      <trkpt lat="59.8124001" lon="17.6804396">
        <ele>11.1925</ele>
        <time>2013-04-21T13:20:09Z</time>
      </trkpt>
      <trkpt lat="59.8124927" lon="17.6804334">
        <ele>10.7118</ele>
        <time>2013-04-21T13:20:10Z</time>
      </trkpt>
      <trkpt lat="59.8125855" lon="17.6804235">
        <ele>10.2312</ele>
        <time>2013-04-21T13:20:11Z</time>
      </trkpt>
      <trkpt lat="59.8126757" lon="17.6804149">
        <ele>10.2312</ele>
        <time>2013-04-21T13:20:12Z</time>
      </trkpt>
      <trkpt lat="59.8127604" lon="17.6804177">
        <ele>9.2699</ele>
        <time>2013-04-21T13:20:13Z</time>
      </trkpt>
      <trkpt lat="59.8128424" lon="17.6804297">
        <ele>8.30859</ele>
        <time>2013-04-21T13:20:14Z</time>
      </trkpt>
      <trkpt lat="59.8129207" lon="17.6804544">
        <ele>7.82788</ele>
        <time>2013-04-21T13:20:15Z</time>
      </trkpt>
      <trkpt lat="59.8129999" lon="17.6804874">
        <ele>8.30859</ele>
        <time>2013-04-21T13:20:16Z</time>
      </trkpt>
      <trkpt lat="59.8130713" lon="17.6805368">
        <ele>8.30859</ele>
        <time>2013-04-21T13:20:17Z</time>
      </trkpt>
      <trkpt lat="59.8131371" lon="17.6805993">
        <ele>8.78918</ele>
        <time>2013-04-21T13:20:18Z</time>
      </trkpt>
      <trkpt lat="59.8131987" lon="17.6806726">
        <ele>9.75061</ele>
        <time>2013-04-21T13:20:19Z</time>
      </trkpt>
      <trkpt lat="59.8132537" lon="17.6807559">
        <ele>10.2312</ele>
        <time>2013-04-21T13:20:20Z</time>
      </trkpt>
      <trkpt lat="59.8133064" lon="17.6808363">
        <ele>10.7118</ele>
        <time>2013-04-21T13:20:21Z</time>
      </trkpt>
      <trkpt lat="59.8133569" lon="17.6809119">
        <ele>11.1925</ele>
        <time>2013-04-21T13:20:22Z</time>
      </trkpt>
      <trkpt lat="59.8134058" lon="17.6809891">
        <ele>11.6732</ele>
        <time>2013-04-21T13:20:23Z</time>
      </trkpt>
      <trkpt lat="59.8134543" lon="17.6810652">
        <ele>12.6344</ele>
        <time>2013-04-21T13:20:24Z</time>
      </trkpt>
      <trkpt lat="59.8135016" lon="17.6811445">
        <ele>12.6344</ele>
        <time>2013-04-21T13:20:25Z</time>
      </trkpt>
      <trkpt lat="59.8135469" lon="17.6812293">
        <ele>13.1151</ele>
        <time>2013-04-21T13:20:26Z</time>
      </trkpt>
      <trkpt lat="59.8135919" lon="17.681314">
        <ele>13.5958</ele>
        <time>2013-04-21T13:20:27Z</time>
      </trkpt>
      <trkpt lat="59.8136369" lon="17.6813984">
        <ele>14.0764</ele>
        <time>2013-04-21T13:20:28Z</time>
      </trkpt>
      <trkpt lat="59.8136812" lon="17.6814823">
        <ele>14.0764</ele>
        <time>2013-04-21T13:20:29Z</time>
      </trkpt>
      <trkpt lat="59.8137246" lon="17.6815655">
        <ele>14.557</ele>
        <time>2013-04-21T13:20:30Z</time>
      </trkpt>
      <trkpt lat="59.8137655" lon="17.6816491">
        <ele>14.557</ele>
        <time>2013-04-21T13:20:31Z</time>
      </trkpt>
      <trkpt lat="59.8138053" lon="17.6817314">
        <ele>14.557</ele>
        <time>2013-04-21T13:20:32Z</time>
      </trkpt>
      <trkpt lat="59.8138437" lon="17.681813">
        <ele>15.0377</ele>
        <time>2013-04-21T13:20:33Z</time>
      </trkpt>
      <trkpt lat="59.813882" lon="17.6818928">
        <ele>15.0377</ele>
        <time>2013-04-21T13:20:34Z</time>
      </trkpt>
      <trkpt lat="59.8139196" lon="17.6819718">
        <ele>15.5184</ele>
        <time>2013-04-21T13:20:35Z</time>
      </trkpt>
      <trkpt lat="59.8139557" lon="17.6820514">
        <ele>15.5184</ele>
        <time>2013-04-21T13:20:36Z</time>
      </trkpt>
      <trkpt lat="59.8139909" lon="17.6821316">
        <ele>15.5184</ele>
        <time>2013-04-21T13:20:37Z</time>
      </trkpt>
      <trkpt lat="59.8140259" lon="17.6822126">
        <ele>15.999</ele>
        <time>2013-04-21T13:20:38Z</time>
      </trkpt>
      <trkpt lat="59.8140602" lon="17.682294">
        <ele>15.999</ele>
        <time>2013-04-21T13:20:39Z</time>
      </trkpt>
      <trkpt lat="59.8140955" lon="17.6823752">
        <ele>16.4797</ele>
        <time>2013-04-21T13:20:40Z</time>
      </trkpt>
      <trkpt lat="59.814131" lon="17.6824571">
        <ele>16.4797</ele>
        <time>2013-04-21T13:20:41Z</time>
      </trkpt>
      <trkpt lat="59.8141662" lon="17.6825409">
        <ele>16.4797</ele>
        <time>2013-04-21T13:20:42Z</time>
      </trkpt>
      <trkpt lat="59.8142011" lon="17.6826244">
        <ele>16.9604</ele>
        <time>2013-04-21T13:20:43Z</time>
      </trkpt>
      <trkpt lat="59.8142358" lon="17.6827084">
        <ele>17.4412</ele>
        <time>2013-04-21T13:20:44Z</time>
      </trkpt>
      <trkpt lat="59.8142703" lon="17.6827932">
        <ele>17.4412</ele>
        <time>2013-04-21T13:20:45Z</time>
      </trkpt>
      <trkpt lat="59.8143051" lon="17.6828784">
        <ele>17.9218</ele>
        <time>2013-04-21T13:20:46Z</time>
      </trkpt>
      <trkpt lat="59.8143393" lon="17.6829652">
        <ele>18.4023</ele>
        <time>2013-04-21T13:20:47Z</time>
      </trkpt>
      <trkpt lat="59.8143721" lon="17.683054">
        <ele>18.4023</ele>
        <time>2013-04-21T13:20:48Z</time>
      </trkpt>
      <trkpt lat="59.8144037" lon="17.6831444">
        <ele>18.8831</ele>
        <time>2013-04-21T13:20:49Z</time>
      </trkpt>
      <trkpt lat="59.8144347" lon="17.6832355">
        <ele>18.8831</ele>
        <time>2013-04-21T13:20:50Z</time>
      </trkpt>
      <trkpt lat="59.8144664" lon="17.683327">
        <ele>19.3638</ele>
        <time>2013-04-21T13:20:51Z</time>
      </trkpt>
      <trkpt lat="59.8144988" lon="17.6834164">
        <ele>19.3638</ele>
        <time>2013-04-21T13:20:52Z</time>
      </trkpt>
      <trkpt lat="59.8145296" lon="17.6835081">
        <ele>19.8444</ele>
        <time>2013-04-21T13:20:53Z</time>
      </trkpt>
      <trkpt lat="59.8145596" lon="17.6836025">
        <ele>20.325</ele>
        <time>2013-04-21T13:20:54Z</time>
      </trkpt>
      <trkpt lat="59.8145872" lon="17.6837007">
        <ele>20.325</ele>
        <time>2013-04-21T13:20:55Z</time>
      </trkpt>
      <trkpt lat="59.8146114" lon="17.6838034">
        <ele>20.8057</ele>
        <time>2013-04-21T13:20:56Z</time>
      </trkpt>
      <trkpt lat="59.8146304" lon="17.6839108">
        <ele>20.8057</ele>
        <time>2013-04-21T13:20:57Z</time>
      </trkpt>
      <trkpt lat="59.8146464" lon="17.6840215">
        <ele>20.8057</ele>
        <time>2013-04-21T13:20:58Z</time>
      </trkpt>
      <trkpt lat="59.8146594" lon="17.6841339">
        <ele>20.8057</ele>
        <time>2013-04-21T13:20:59Z</time>
      </trkpt>
      <trkpt lat="59.8146674" lon="17.6842479">
        <ele>21.2864</ele>
        <time>2013-04-21T13:21:00Z</time>
      </trkpt>
      <trkpt lat="59.8146706" lon="17.6843602">
        <ele>21.2864</ele>
        <time>2013-04-21T13:21:01Z</time>
      </trkpt>
      <trkpt lat="59.8146716" lon="17.6844712">
        <ele>21.767</ele>
        <time>2013-04-21T13:21:02Z</time>
      </trkpt>
      <trkpt lat="59.8146668" lon="17.6845774">
        <ele>21.767</ele>
        <time>2013-04-21T13:21:03Z</time>
      </trkpt>
      <trkpt lat="59.8146573" lon="17.6846758">
        <ele>22.2476</ele>
        <time>2013-04-21T13:21:04Z</time>
      </trkpt>
      <trkpt lat="59.8146462" lon="17.684771">
        <ele>22.2476</ele>
        <time>2013-04-21T13:21:05Z</time>
      </trkpt>
      <trkpt lat="59.8146325" lon="17.6848657">
        <ele>22.2476</ele>
        <time>2013-04-21T13:21:06Z</time>
      </trkpt>
      <trkpt lat="59.8146177" lon="17.6849607">
        <ele>22.2476</ele>
        <time>2013-04-21T13:21:07Z</time>
      </trkpt>
      <trkpt lat="59.8146034" lon="17.6850581">
        <ele>21.767</ele>
        <time>2013-04-21T13:21:08Z</time>
      </trkpt>
      <trkpt lat="59.8145876" lon="17.685157">
        <ele>21.2864</ele>
        <time>2013-04-21T13:21:09Z</time>
      </trkpt>
      <trkpt lat="59.814571" lon="17.6852576">
        <ele>21.2864</ele>
        <time>2013-04-21T13:21:10Z</time>
      </trkpt>
      <trkpt lat="59.8145554" lon="17.6853612">
        <ele>20.8057</ele>
        <time>2013-04-21T13:21:11Z</time>
      </trkpt>
      <trkpt lat="59.8145394" lon="17.6854666">
        <ele>20.8057</ele>
        <time>2013-04-21T13:21:12Z</time>
      </trkpt>
      <trkpt lat="59.8145221" lon="17.6855719">
        <ele>20.8057</ele>
        <time>2013-04-21T13:21:13Z</time>
      </trkpt>
      <trkpt lat="59.8145031" lon="17.6856771">
        <ele>20.8057</ele>
        <time>2013-04-21T13:21:14Z</time>
      </trkpt>
      <trkpt lat="59.8144839" lon="17.6857901">
        <ele>20.325</ele>
        <time>2013-04-21T13:21:15Z</time>
      </trkpt>
      <trkpt lat="59.8144661" lon="17.6858992">
        <ele>20.325</ele>
        <time>2013-04-21T13:21:16Z</time>
      </trkpt>
      <trkpt lat="59.814447" lon="17.686007">
        <ele>20.325</ele>
        <time>2013-04-21T13:21:17Z</time>
      </trkpt>
      <trkpt lat="59.814428" lon="17.6861133">
        <ele>19.8444</ele>
        <time>2013-04-21T13:21:18Z</time>
      </trkpt>
      <trkpt lat="59.8144104" lon="17.68622">
        <ele>19.8444</ele>
        <time>2013-04-21T13:21:19Z</time>
      </trkpt>
      <trkpt lat="59.8143931" lon="17.686327">
        <ele>19.8444</ele>
        <time>2013-04-21T13:21:20Z</time>
      </trkpt>
      <trkpt lat="59.8143747" lon="17.6864322">
        <ele>19.8444</ele>
        <time>2013-04-21T13:21:21Z</time>
      </trkpt>
      <trkpt lat="59.8143556" lon="17.6865365">
        <ele>19.8444</ele>
        <time>2013-04-21T13:21:22Z</time>
      </trkpt>
      <trkpt lat="59.8143348" lon="17.6866473">
        <ele>19.3638</ele>
        <time>2013-04-21T13:21:23Z</time>
      </trkpt>
      <trkpt lat="59.8143171" lon="17.6867489">
        <ele>18.8831</ele>
        <time>2013-04-21T13:21:24Z</time>
      </trkpt>
      <trkpt lat="59.8142996" lon="17.6868493">
        <ele>18.4023</ele>
        <time>2013-04-21T13:21:25Z</time>
      </trkpt>
      <trkpt lat="59.8142822" lon="17.6869501">
        <ele>18.4023</ele>
        <time>2013-04-21T13:21:26Z</time>
      </trkpt>
      <trkpt lat="59.814265" lon="17.6870506">
        <ele>18.4023</ele>
        <time>2013-04-21T13:21:27Z</time>
      </trkpt>
      <trkpt lat="59.8142476" lon="17.6871489">
        <ele>17.9218</ele>
        <time>2013-04-21T13:21:28Z</time>
      </trkpt>
      <trkpt lat="59.8142305" lon="17.6872471">
        <ele>17.9218</ele>
        <time>2013-04-21T13:21:29Z</time>
      </trkpt>
      <trkpt lat="59.8142129" lon="17.6873431">
        <ele>17.4412</ele>
        <time>2013-04-21T13:21:30Z</time>
      </trkpt>
      <trkpt lat="59.8141949" lon="17.6874404">
        <ele>17.9218</ele>
        <time>2013-04-21T13:21:31Z</time>
      </trkpt>
      <trkpt lat="59.8141771" lon="17.6875383">
        <ele>17.9218</ele>
        <time>2013-04-21T13:21:32Z</time>
      </trkpt>
      <trkpt lat="59.8141592" lon="17.6876362">
        <ele>17.9218</ele>
        <time>2013-04-21T13:21:33Z</time>
      </trkpt>
      <trkpt lat="59.8141425" lon="17.6877363">
        <ele>17.9218</ele>
        <time>2013-04-21T13:21:34Z</time>
      </trkpt>
      <trkpt lat="59.8141255" lon="17.6878387">
        <ele>18.4023</ele>
        <time>2013-04-21T13:21:35Z</time>
      </trkpt>
      <trkpt lat="59.8141069" lon="17.6879428">
        <ele>17.9218</ele>
        <time>2013-04-21T13:21:36Z</time>
      </trkpt>
      <trkpt lat="59.8140877" lon="17.6880507">
        <ele>17.9218</ele>
        <time>2013-04-21T13:21:37Z</time>
      </trkpt>
      <trkpt lat="59.8140701" lon="17.6881654">
        <ele>18.8831</ele>
        <time>2013-04-21T13:21:38Z</time>
      </trkpt>
      <trkpt lat="59.8140525" lon="17.6882795">
        <ele>19.3638</ele>
        <time>2013-04-21T13:21:39Z</time>
      </trkpt>
      <trkpt lat="59.8140322" lon="17.688394">
        <ele>19.3638</ele>
        <time>2013-04-21T13:21:40Z</time>
      </trkpt>
      <trkpt lat="59.8140125" lon="17.6885112">
        <ele>19.3638</ele>
        <time>2013-04-21T13:21:41Z</time>
      </trkpt>
      <trkpt lat="59.813995" lon="17.6886321">
        <ele>19.3638</ele>
        <time>2013-04-21T13:21:42Z</time>
      </trkpt>
      <trkpt lat="59.8139795" lon="17.6887567">
        <ele>19.8444</ele>
        <time>2013-04-21T13:21:43Z</time>
      </trkpt>
      <trkpt lat="59.813965" lon="17.688885">
        <ele>19.8444</ele>
        <time>2013-04-21T13:21:44Z</time>
      </trkpt>
      <trkpt lat="59.8139514" lon="17.6890161">
        <ele>20.325</ele>
        <time>2013-04-21T13:21:45Z</time>
      </trkpt>
      <trkpt lat="59.8139401" lon="17.689152">
        <ele>20.325</ele>
        <time>2013-04-21T13:21:46Z</time>
      </trkpt>
      <trkpt lat="59.8139316" lon="17.6892892">
        <ele>19.8444</ele>
        <time>2013-04-21T13:21:47Z</time>
      </trkpt>
      <trkpt lat="59.8139254" lon="17.6894254">
        <ele>19.3638</ele>
        <time>2013-04-21T13:21:48Z</time>
      </trkpt>
      <trkpt lat="59.8139209" lon="17.6895694">
        <ele>19.8444</ele>
        <time>2013-04-21T13:21:49Z</time>
      </trkpt>
      <trkpt lat="59.8139191" lon="17.6897101">
        <ele>20.325</ele>
        <time>2013-04-21T13:21:50Z</time>
      </trkpt>
      <trkpt lat="59.8139209" lon="17.6898458">
        <ele>19.8444</ele>
        <time>2013-04-21T13:21:51Z</time>
      </trkpt>
      <trkpt lat="59.8139257" lon="17.6899878">
        <ele>20.325</ele>
        <time>2013-04-21T13:21:52Z</time>
      </trkpt>
      <trkpt lat="59.8139334" lon="17.6901318">
        <ele>20.8057</ele>
        <time>2013-04-21T13:21:53Z</time>
      </trkpt>
      <trkpt lat="59.813945" lon="17.690276">
        <ele>21.2864</ele>
        <time>2013-04-21T13:21:54Z</time>
      </trkpt>
      <trkpt lat="59.8139588" lon="17.6904205">
        <ele>21.767</ele>
        <time>2013-04-21T13:21:55Z</time>
      </trkpt>
      <trkpt lat="59.8139754" lon="17.6905655">
        <ele>22.2476</ele>
        <time>2013-04-21T13:21:56Z</time>
      </trkpt>
      <trkpt lat="59.8139961" lon="17.6907083">
        <ele>23.209</ele>
        <time>2013-04-21T13:21:57Z</time>
      </trkpt>
      <trkpt lat="59.8140188" lon="17.6908495">
        <ele>23.6896</ele>
        <time>2013-04-21T13:21:58Z</time>
      </trkpt>
      <trkpt lat="59.8140421" lon="17.6909861">
        <ele>24.1703</ele>
        <time>2013-04-21T13:21:59Z</time>
      </trkpt>
      <trkpt lat="59.8140668" lon="17.6911232">
        <ele>24.651</ele>
        <time>2013-04-21T13:22:00Z</time>
      </trkpt>
      <trkpt lat="59.8140902" lon="17.6912577">
        <ele>24.1703</ele>
        <time>2013-04-21T13:22:01Z</time>
      </trkpt>
      <trkpt lat="59.8141157" lon="17.6913937">
        <ele>24.1703</ele>
        <time>2013-04-21T13:22:02Z</time>
      </trkpt>
      <trkpt lat="59.8141457" lon="17.6915266">
        <ele>24.651</ele>
        <time>2013-04-21T13:22:03Z</time>
      </trkpt>
      <trkpt lat="59.8141804" lon="17.691658">
        <ele>25.1317</ele>
        <time>2013-04-21T13:22:04Z</time>
      </trkpt>
      <trkpt lat="59.8142183" lon="17.6917835">
        <ele>25.1317</ele>
        <time>2013-04-21T13:22:05Z</time>
      </trkpt>
      <trkpt lat="59.8142593" lon="17.6919056">
        <ele>25.6123</ele>
        <time>2013-04-21T13:22:06Z</time>
      </trkpt>
      <trkpt lat="59.8143016" lon="17.6920257">
        <ele>25.6123</ele>
        <time>2013-04-21T13:22:07Z</time>
      </trkpt>
      <trkpt lat="59.8143446" lon="17.6921425">
        <ele>26.0929</ele>
        <time>2013-04-21T13:22:08Z</time>
      </trkpt>
      <trkpt lat="59.8143884" lon="17.6922549">
        <ele>26.0929</ele>
        <time>2013-04-21T13:22:09Z</time>
      </trkpt>
      <trkpt lat="59.8144353" lon="17.6923608">
        <ele>26.0929</ele>
        <time>2013-04-21T13:22:10Z</time>
      </trkpt>
      <trkpt lat="59.8144849" lon="17.6924626">
        <ele>26.0929</ele>
        <time>2013-04-21T13:22:11Z</time>
      </trkpt>
      <trkpt lat="59.8145347" lon="17.6925639">
        <ele>26.0929</ele>
        <time>2013-04-21T13:22:12Z</time>
      </trkpt>
      <trkpt lat="59.8145874" lon="17.6926619">
        <ele>26.0929</ele>
        <time>2013-04-21T13:22:13Z</time>
      </trkpt>
      <trkpt lat="59.8146434" lon="17.6927557">
        <ele>26.5736</ele>
        <time>2013-04-21T13:22:14Z</time>
      </trkpt>
      <trkpt lat="59.8147009" lon="17.6928469">
        <ele>26.5736</ele>
        <time>2013-04-21T13:22:15Z</time>
      </trkpt>
      <trkpt lat="59.8147606" lon="17.6929326">
        <ele>26.5736</ele>
        <time>2013-04-21T13:22:16Z</time>
      </trkpt>
      <trkpt lat="59.8148226" lon="17.6930158">
        <ele>27.0543</ele>
        <time>2013-04-21T13:22:17Z</time>
      </trkpt>
      <trkpt lat="59.8148866" lon="17.6930963">
        <ele>27.0543</ele>
        <time>2013-04-21T13:22:18Z</time>
      </trkpt>
      <trkpt lat="59.8149521" lon="17.6931738">
        <ele>27.0543</ele>
        <time>2013-04-21T13:22:19Z</time>
      </trkpt>
      <trkpt lat="59.8150192" lon="17.6932455">
        <ele>27.0543</ele>
        <time>2013-04-21T13:22:20Z</time>
      </trkpt>
      <trkpt lat="59.8150878" lon="17.693308">
        <ele>27.0543</ele>
        <time>2013-04-21T13:22:21Z</time>
      </trkpt>
      <trkpt lat="59.8151579" lon="17.6933637">
        <ele>27.5349</ele>
        <time>2013-04-21T13:22:22Z</time>
      </trkpt>
      <trkpt lat="59.8152289" lon="17.6934162">
        <ele>27.5349</ele>
        <time>2013-04-21T13:22:23Z</time>
      </trkpt>
      <trkpt lat="59.8152988" lon="17.6934674">
        <ele>27.5349</ele>
        <time>2013-04-21T13:22:24Z</time>
      </trkpt>
      <trkpt lat="59.8153692" lon="17.6935156">
        <ele>27.5349</ele>
        <time>2013-04-21T13:22:25Z</time>
      </trkpt>
      <trkpt lat="59.8154392" lon="17.6935612">
        <ele>27.5349</ele>
        <time>2013-04-21T13:22:26Z</time>
      </trkpt>
      <trkpt lat="59.8155087" lon="17.6936058">
        <ele>27.5349</ele>
        <time>2013-04-21T13:22:27Z</time>
      </trkpt>
      <trkpt lat="59.8155791" lon="17.6936499">
        <ele>27.5349</ele>
        <time>2013-04-21T13:22:28Z</time>
      </trkpt>
      <trkpt lat="59.8156489" lon="17.6936944">
        <ele>27.5349</ele>
        <time>2013-04-21T13:22:29Z</time>
      </trkpt>
      <trkpt lat="59.8157194" lon="17.6937378">
        <ele>27.5349</ele>
        <time>2013-04-21T13:22:30Z</time>
      </trkpt>
      <trkpt lat="59.8157899" lon="17.6937824">
        <ele>28.0155</ele>
        <time>2013-04-21T13:22:31Z</time>
      </trkpt>
      <trkpt lat="59.8158593" lon="17.693828">
        <ele>28.0155</ele>
        <time>2013-04-21T13:22:32Z</time>
      </trkpt>
      <trkpt lat="59.8159291" lon="17.6938704">
        <ele>28.0155</ele>
        <time>2013-04-21T13:22:33Z</time>
      </trkpt>
      <trkpt lat="59.8159981" lon="17.693911">
        <ele>28.0155</ele>
        <time>2013-04-21T13:22:34Z</time>
      </trkpt>
      <trkpt lat="59.8160665" lon="17.6939497">
        <ele>28.0155</ele>
        <time>2013-04-21T13:22:35Z</time>
      </trkpt>
      <trkpt lat="59.8161349" lon="17.6939896">
        <ele>28.0155</ele>
        <time>2013-04-21T13:22:36Z</time>
      </trkpt>
      <trkpt lat="59.8162036" lon="17.6940336">
        <ele>28.0155</ele>
        <time>2013-04-21T13:22:37Z</time>
      </trkpt>
      <trkpt lat="59.8162737" lon="17.6940796">
        <ele>28.4962</ele>
        <time>2013-04-21T13:22:38Z</time>
      </trkpt>
      <trkpt lat="59.8163453" lon="17.6941264">
        <ele>28.4962</ele>
        <time>2013-04-21T13:22:39Z</time>
      </trkpt>
      <trkpt lat="59.8164182" lon="17.6941743">
        <ele>28.0155</ele>
        <time>2013-04-21T13:22:40Z</time>
      </trkpt>
      <trkpt lat="59.8164931" lon="17.6942214">
        <ele>28.0155</ele>
        <time>2013-04-21T13:22:41Z</time>
      </trkpt>
      <trkpt lat="59.8165684" lon="17.6942688">
        <ele>28.0155</ele>
        <time>2013-04-21T13:22:42Z</time>
      </trkpt>
      <trkpt lat="59.8166439" lon="17.694322">
        <ele>28.0155</ele>
        <time>2013-04-21T13:22:43Z</time>
      </trkpt>
      <trkpt lat="59.8167186" lon="17.6943848">
        <ele>27.5349</ele>
        <time>2013-04-21T13:22:44Z</time>
      </trkpt>
      <trkpt lat="59.8167954" lon="17.6944469">
        <ele>27.0543</ele>
        <time>2013-04-21T13:22:45Z</time>
      </trkpt>
      <trkpt lat="59.8168744" lon="17.694506">
        <ele>26.5736</ele>
        <time>2013-04-21T13:22:46Z</time>
      </trkpt>
      <trkpt lat="59.8169542" lon="17.6945677">
        <ele>26.0929</ele>
        <time>2013-04-21T13:22:47Z</time>
      </trkpt>
      <trkpt lat="59.8170336" lon="17.694634">
        <ele>25.6123</ele>
        <time>2013-04-21T13:22:48Z</time>
      </trkpt>
      <trkpt lat="59.8171127" lon="17.6947011">
        <ele>24.651</ele>
        <time>2013-04-21T13:22:49Z</time>
      </trkpt>
      <trkpt lat="59.8171937" lon="17.6947667">
        <ele>24.651</ele>
        <time>2013-04-21T13:22:50Z</time>
      </trkpt>
      <trkpt lat="59.817275" lon="17.6948341">
        <ele>24.651</ele>
        <time>2013-04-21T13:22:51Z</time>
      </trkpt>
      <trkpt lat="59.8173522" lon="17.694904">
        <ele>24.651</ele>
        <time>2013-04-21T13:22:52Z</time>
      </trkpt>
      <trkpt lat="59.8174212" lon="17.6949711">
        <ele>24.651</ele>
        <time>2013-04-21T13:22:53Z</time>
      </trkpt>
      <trkpt lat="59.817483" lon="17.6950322">
        <ele>24.651</ele>
        <time>2013-04-21T13:22:54Z</time>
      </trkpt>
      <trkpt lat="59.817537" lon="17.6950934">
        <ele>24.651</ele>
        <time>2013-04-21T13:22:55Z</time>
      </trkpt>
      <trkpt lat="59.8175826" lon="17.6951655">
        <ele>24.651</ele>
        <time>2013-04-21T13:22:56Z</time>
      </trkpt>
      <trkpt lat="59.8176143" lon="17.6952536">
        <ele>24.651</ele>
        <time>2013-04-21T13:22:57Z</time>
      </trkpt>
      <trkpt lat="59.8176402" lon="17.6953421">
        <ele>24.651</ele>
        <time>2013-04-21T13:22:58Z</time>
      </trkpt>
      <trkpt lat="59.8176656" lon="17.6954271">
        <ele>24.651</ele>
        <time>2013-04-21T13:22:59Z</time>
      </trkpt>
      <trkpt lat="59.8176975" lon="17.6955002">
        <ele>24.651</ele>
        <time>2013-04-21T13:23:00Z</time>
      </trkpt>
      <trkpt lat="59.8177371" lon="17.695561">
        <ele>24.651</ele>
        <time>2013-04-21T13:23:01Z</time>
      </trkpt>
      <trkpt lat="59.8177801" lon="17.6956186">
        <ele>24.651</ele>
        <time>2013-04-21T13:23:02Z</time>
      </trkpt>
      <trkpt lat="59.8178245" lon="17.6956727">
        <ele>24.651</ele>
        <time>2013-04-21T13:23:03Z</time>
      </trkpt>
      <trkpt lat="59.8178712" lon="17.6957243">
        <ele>24.651</ele>
        <time>2013-04-21T13:23:04Z</time>
      </trkpt>
      <trkpt lat="59.8179185" lon="17.6957824">
        <ele>24.651</ele>
        <time>2013-04-21T13:23:05Z</time>
      </trkpt>
      <trkpt lat="59.8179686" lon="17.6958478">
        <ele>24.651</ele>
        <time>2013-04-21T13:23:06Z</time>
      </trkpt>
      <trkpt lat="59.8180215" lon="17.6959115">
        <ele>25.1317</ele>
        <time>2013-04-21T13:23:07Z</time>
      </trkpt>
      <trkpt lat="59.8180784" lon="17.6959746">
        <ele>25.1317</ele>
        <time>2013-04-21T13:23:08Z</time>
      </trkpt>
      <trkpt lat="59.8181368" lon="17.6960388">
        <ele>25.1317</ele>
        <time>2013-04-21T13:23:09Z</time>
      </trkpt>
      <trkpt lat="59.8181981" lon="17.6960962">
        <ele>25.1317</ele>
        <time>2013-04-21T13:23:10Z</time>
      </trkpt>
      <trkpt lat="59.8182626" lon="17.696143">
        <ele>25.1317</ele>
        <time>2013-04-21T13:23:11Z</time>
      </trkpt>
      <trkpt lat="59.8183284" lon="17.6961798">
        <ele>25.1317</ele>
        <time>2013-04-21T13:23:12Z</time>
      </trkpt>
      <trkpt lat="59.818397" lon="17.6962045">
        <ele>25.1317</ele>
        <time>2013-04-21T13:23:13Z</time>
      </trkpt>
      <trkpt lat="59.8184662" lon="17.696217">
        <ele>25.1317</ele>
        <time>2013-04-21T13:23:14Z</time>
      </trkpt>
      <trkpt lat="59.8185348" lon="17.6962196">
        <ele>24.651</ele>
        <time>2013-04-21T13:23:15Z</time>
      </trkpt>
      <trkpt lat="59.8186032" lon="17.6962194">
        <ele>24.1703</ele>
        <time>2013-04-21T13:23:16Z</time>
      </trkpt>
      <trkpt lat="59.8186729" lon="17.6962282">
        <ele>24.1703</ele>
        <time>2013-04-21T13:23:17Z</time>
      </trkpt>
      <trkpt lat="59.8187415" lon="17.6962534">
        <ele>23.6896</ele>
        <time>2013-04-21T13:23:18Z</time>
      </trkpt>
      <trkpt lat="59.8188093" lon="17.6962968">
        <ele>23.209</ele>
        <time>2013-04-21T13:23:19Z</time>
      </trkpt>
      <trkpt lat="59.8188751" lon="17.6963611">
        <ele>23.209</ele>
        <time>2013-04-21T13:23:20Z</time>
      </trkpt>
      <trkpt lat="59.8189381" lon="17.6964432">
        <ele>23.6896</ele>
        <time>2013-04-21T13:23:21Z</time>
      </trkpt>
      <trkpt lat="59.8189954" lon="17.6965386">
        <ele>23.6896</ele>
        <time>2013-04-21T13:23:22Z</time>
      </trkpt>
      <trkpt lat="59.8190498" lon="17.6966406">
        <ele>23.6896</ele>
        <time>2013-04-21T13:23:23Z</time>
      </trkpt>
      <trkpt lat="59.819102" lon="17.6967426">
        <ele>24.1703</ele>
        <time>2013-04-21T13:23:24Z</time>
      </trkpt>
      <trkpt lat="59.8191538" lon="17.6968407">
        <ele>24.1703</ele>
        <time>2013-04-21T13:23:25Z</time>
      </trkpt>
      <trkpt lat="59.8192077" lon="17.6969308">
        <ele>24.1703</ele>
        <time>2013-04-21T13:23:26Z</time>
      </trkpt>
      <trkpt lat="59.8192656" lon="17.697008">
        <ele>24.1703</ele>
        <time>2013-04-21T13:23:27Z</time>
      </trkpt>
      <trkpt lat="59.8193279" lon="17.6970655">
        <ele>23.6896</ele>
        <time>2013-04-21T13:23:28Z</time>
      </trkpt>
      <trkpt lat="59.8193946" lon="17.6971002">
        <ele>23.209</ele>
        <time>2013-04-21T13:23:29Z</time>
      </trkpt>
      <trkpt lat="59.8194635" lon="17.6971079">
        <ele>22.7283</ele>
        <time>2013-04-21T13:23:30Z</time>
      </trkpt>
      <trkpt lat="59.8195307" lon="17.6970754">
        <ele>22.7283</ele>
        <time>2013-04-21T13:23:31Z</time>
      </trkpt>
      <trkpt lat="59.8195936" lon="17.6970142">
        <ele>22.2476</ele>
        <time>2013-04-21T13:23:32Z</time>
      </trkpt>
      <trkpt lat="59.8196488" lon="17.6969291">
        <ele>22.2476</ele>
        <time>2013-04-21T13:23:33Z</time>
      </trkpt>
      <trkpt lat="59.8197018" lon="17.6968231">
        <ele>22.2476</ele>
        <time>2013-04-21T13:23:34Z</time>
      </trkpt>
      <trkpt lat="59.8197555" lon="17.696708">
        <ele>21.767</ele>
        <time>2013-04-21T13:23:35Z</time>
      </trkpt>
      <trkpt lat="59.8198136" lon="17.6966019">
        <ele>22.2476</ele>
        <time>2013-04-21T13:23:36Z</time>
      </trkpt>
      <trkpt lat="59.8198709" lon="17.6965299">
        <ele>21.767</ele>
        <time>2013-04-21T13:23:37Z</time>
      </trkpt>
      <trkpt lat="59.8199318" lon="17.6964884">
        <ele>21.767</ele>
        <time>2013-04-21T13:23:38Z</time>
      </trkpt>
      <trkpt lat="59.8199938" lon="17.6964589">
        <ele>21.2864</ele>
        <time>2013-04-21T13:23:39Z</time>
      </trkpt>
      <trkpt lat="59.8200561" lon="17.6964295">
        <ele>21.2864</ele>
        <time>2013-04-21T13:23:40Z</time>
      </trkpt>
      <trkpt lat="59.8201199" lon="17.6963952">
        <ele>20.8057</ele>
        <time>2013-04-21T13:23:41Z</time>
      </trkpt>
      <trkpt lat="59.8201852" lon="17.6963605">
        <ele>20.325</ele>
        <time>2013-04-21T13:23:42Z</time>
      </trkpt>
      <trkpt lat="59.8202499" lon="17.696335">
        <ele>20.325</ele>
        <time>2013-04-21T13:23:43Z</time>
      </trkpt>
      <trkpt lat="59.8203143" lon="17.6963202">
        <ele>19.8444</ele>
        <time>2013-04-21T13:23:44Z</time>
      </trkpt>
      <trkpt lat="59.8203795" lon="17.6963113">
        <ele>19.3638</ele>
        <time>2013-04-21T13:23:45Z</time>
      </trkpt>
      <trkpt lat="59.8204461" lon="17.6963095">
        <ele>19.3638</ele>
        <time>2013-04-21T13:23:46Z</time>
      </trkpt>
      <trkpt lat="59.8205115" lon="17.6963165">
        <ele>19.3638</ele>
        <time>2013-04-21T13:23:47Z</time>
      </trkpt>
      <trkpt lat="59.8205753" lon="17.6963277">
        <ele>18.4023</ele>
        <time>2013-04-21T13:23:48Z</time>
      </trkpt>
      <trkpt lat="59.8206411" lon="17.6963382">
        <ele>18.4023</ele>
        <time>2013-04-21T13:23:49Z</time>
      </trkpt>
      <trkpt lat="59.8207041" lon="17.6963503">
        <ele>18.4023</ele>
        <time>2013-04-21T13:23:50Z</time>
      </trkpt>
      <trkpt lat="59.8207602" lon="17.696366">
        <ele>17.9218</ele>
        <time>2013-04-21T13:23:51Z</time>
      </trkpt>
      <trkpt lat="59.8208094" lon="17.6963885">
        <ele>18.4023</ele>
        <time>2013-04-21T13:23:52Z</time>
      </trkpt>
      <trkpt lat="59.8208481" lon="17.6964253">
        <ele>19.3638</ele>
        <time>2013-04-21T13:23:53Z</time>
      </trkpt>
      <trkpt lat="59.8208684" lon="17.6964797">
        <ele>18.8831</ele>
        <time>2013-04-21T13:23:54Z</time>
      </trkpt>
      <trkpt lat="59.8208781" lon="17.6965418">
        <ele>18.4023</ele>
        <time>2013-04-21T13:23:55Z</time>
      </trkpt>
      <trkpt lat="59.8208798" lon="17.6966118">
        <ele>18.4023</ele>
        <time>2013-04-21T13:23:56Z</time>
      </trkpt>
      <trkpt lat="59.8208762" lon="17.696692">
        <ele>18.4023</ele>
        <time>2013-04-21T13:23:57Z</time>
      </trkpt>
      <trkpt lat="59.8208739" lon="17.696779">
        <ele>18.8831</ele>
        <time>2013-04-21T13:23:58Z</time>
      </trkpt>
      <trkpt lat="59.8208734" lon="17.6968657">
        <ele>18.8831</ele>
        <time>2013-04-21T13:23:59Z</time>
      </trkpt>
      <trkpt lat="59.8208731" lon="17.6969538">
        <ele>18.8831</ele>
        <time>2013-04-21T13:24:00Z</time>
      </trkpt>
      <trkpt lat="59.8208726" lon="17.6970447">
        <ele>18.8831</ele>
        <time>2013-04-21T13:24:01Z</time>
      </trkpt>
      <trkpt lat="59.8208679" lon="17.6971335">
        <ele>18.8831</ele>
        <time>2013-04-21T13:24:02Z</time>
      </trkpt>
      <trkpt lat="59.8208625" lon="17.6972256">
        <ele>18.8831</ele>
        <time>2013-04-21T13:24:03Z</time>
      </trkpt>
      <trkpt lat="59.8208569" lon="17.6973124">
        <ele>19.3638</ele>
        <time>2013-04-21T13:24:04Z</time>
      </trkpt>
      <trkpt lat="59.8208508" lon="17.6974003">
        <ele>19.3638</ele>
        <time>2013-04-21T13:24:05Z</time>
      </trkpt>
      <trkpt lat="59.8208434" lon="17.6974777">
        <ele>19.3638</ele>
        <time>2013-04-21T13:24:06Z</time>
      </trkpt>
      <trkpt lat="59.8208337" lon="17.6975626">
        <ele>18.8831</ele>
        <time>2013-04-21T13:24:07Z</time>
      </trkpt>
      <trkpt lat="59.8208213" lon="17.6976272">
        <ele>19.3638</ele>
        <time>2013-04-21T13:24:08Z</time>
      </trkpt>
      <trkpt lat="59.8208112" lon="17.6976954">
        <ele>19.3638</ele>
        <time>2013-04-21T13:24:09Z</time>
      </trkpt>
      <trkpt lat="59.8205281" lon="17.6981963">
        <ele>18.8831</ele>
        <time>2013-04-21T13:37:44Z</time>
      </trkpt>
      <trkpt lat="59.8205389" lon="17.6982016">
        <ele>18.8831</ele>
        <time>2013-04-21T13:37:45Z</time>
      </trkpt>
      <trkpt lat="59.8205545" lon="17.698203">
        <ele>19.3638</ele>
        <time>2013-04-21T13:37:46Z</time>
      </trkpt>
      <trkpt lat="59.820569" lon="17.6982101">
        <ele>18.8831</ele>
        <time>2013-04-21T13:37:47Z</time>
      </trkpt>
      <trkpt lat="59.8205871" lon="17.6982088">
        <ele>18.4023</ele>
        <time>2013-04-21T13:37:48Z</time>
      </trkpt>
      <trkpt lat="59.8206101" lon="17.6981999">
        <ele>18.8831</ele>
        <time>2013-04-21T13:37:49Z</time>
      </trkpt>
      <trkpt lat="59.8206333" lon="17.6982008">
        <ele>18.8831</ele>
        <time>2013-04-21T13:37:50Z</time>
      </trkpt>
      <trkpt lat="59.8206621" lon="17.6982026">
        <ele>19.3638</ele>
        <time>2013-04-21T13:37:51Z</time>
      </trkpt>
      <trkpt lat="59.8206913" lon="17.6982">
        <ele>19.8444</ele>
        <time>2013-04-21T13:37:52Z</time>
      </trkpt>
      <trkpt lat="59.8207176" lon="17.6981999">
        <ele>20.325</ele>
        <time>2013-04-21T13:37:53Z</time>
      </trkpt>
      <trkpt lat="59.8207415" lon="17.6981974">
        <ele>20.325</ele>
        <time>2013-04-21T13:37:54Z</time>
      </trkpt>
      <trkpt lat="59.8207633" lon="17.6981974">
        <ele>20.8057</ele>
        <time>2013-04-21T13:37:55Z</time>
      </trkpt>
      <trkpt lat="59.8207831" lon="17.6981994">
        <ele>21.2864</ele>
        <time>2013-04-21T13:37:56Z</time>
      </trkpt>
      <trkpt lat="59.8208009" lon="17.6982001">
        <ele>21.2864</ele>
        <time>2013-04-21T13:37:57Z</time>
      </trkpt>
      <trkpt lat="59.8208172" lon="17.6981996">
        <ele>21.767</ele>
        <time>2013-04-21T13:37:58Z</time>
      </trkpt>
      <trkpt lat="59.8208359" lon="17.6982076">
        <ele>21.2864</ele>
        <time>2013-04-21T13:37:59Z</time>
      </trkpt>
      <trkpt lat="59.8208581" lon="17.6982259">
        <ele>21.767</ele>
        <time>2013-04-21T13:38:00Z</time>
      </trkpt>
      <trkpt lat="59.8208752" lon="17.6982614">
        <ele>22.2476</ele>
        <time>2013-04-21T13:38:01Z</time>
      </trkpt>
      <trkpt lat="59.820884" lon="17.6983134">
        <ele>22.2476</ele>
        <time>2013-04-21T13:38:02Z</time>
      </trkpt>
      <trkpt lat="59.8208846" lon="17.6983744">
        <ele>22.2476</ele>
        <time>2013-04-21T13:38:03Z</time>
      </trkpt>
      <trkpt lat="59.8208757" lon="17.6984356">
        <ele>22.2476</ele>
        <time>2013-04-21T13:38:04Z</time>
      </trkpt>
      <trkpt lat="59.8208602" lon="17.6984978">
        <ele>21.2864</ele>
        <time>2013-04-21T13:38:05Z</time>
      </trkpt>
      <trkpt lat="59.8208428" lon="17.69856">
        <ele>21.2864</ele>
        <time>2013-04-21T13:38:06Z</time>
      </trkpt>
      <trkpt lat="59.8208206" lon="17.6986227">
        <ele>20.8057</ele>
        <time>2013-04-21T13:38:07Z</time>
      </trkpt>
      <trkpt lat="59.8207938" lon="17.698682">
        <ele>21.2864</ele>
        <time>2013-04-21T13:38:08Z</time>
      </trkpt>
      <trkpt lat="59.8207616" lon="17.698737">
        <ele>21.2864</ele>
        <time>2013-04-21T13:38:09Z</time>
      </trkpt>
      <trkpt lat="59.8207336" lon="17.6987925">
        <ele>21.2864</ele>
        <time>2013-04-21T13:38:10Z</time>
      </trkpt>
      <trkpt lat="59.8207111" lon="17.6988501">
        <ele>20.8057</ele>
        <time>2013-04-21T13:38:11Z</time>
      </trkpt>
      <trkpt lat="59.8206935" lon="17.6989139">
        <ele>20.8057</ele>
        <time>2013-04-21T13:38:12Z</time>
      </trkpt>
      <trkpt lat="59.820683" lon="17.6989874">
        <ele>20.8057</ele>
        <time>2013-04-21T13:38:13Z</time>
      </trkpt>
      <trkpt lat="59.8206804" lon="17.6990701">
        <ele>20.8057</ele>
        <time>2013-04-21T13:38:14Z</time>
      </trkpt>
      <trkpt lat="59.8206935" lon="17.6991552">
        <ele>21.2864</ele>
        <time>2013-04-21T13:38:15Z</time>
      </trkpt>
      <trkpt lat="59.8207123" lon="17.699242">
        <ele>22.2476</ele>
        <time>2013-04-21T13:38:16Z</time>
      </trkpt>
      <trkpt lat="59.8207327" lon="17.6993255">
        <ele>22.7283</ele>
        <time>2013-04-21T13:38:17Z</time>
      </trkpt>
      <trkpt lat="59.8207529" lon="17.6994086">
        <ele>23.209</ele>
        <time>2013-04-21T13:38:18Z</time>
      </trkpt>
      <trkpt lat="59.8207721" lon="17.6994914">
        <ele>23.6896</ele>
        <time>2013-04-21T13:38:19Z</time>
      </trkpt>
      <trkpt lat="59.8207885" lon="17.699577">
        <ele>23.6896</ele>
        <time>2013-04-21T13:38:20Z</time>
      </trkpt>
      <trkpt lat="59.8208051" lon="17.6996681">
        <ele>23.6896</ele>
        <time>2013-04-21T13:38:21Z</time>
      </trkpt>
      <trkpt lat="59.8208206" lon="17.6997674">
        <ele>23.6896</ele>
        <time>2013-04-21T13:38:22Z</time>
      </trkpt>
      <trkpt lat="59.8208323" lon="17.699876">
        <ele>23.209</ele>
        <time>2013-04-21T13:38:23Z</time>
      </trkpt>
      <trkpt lat="59.8208394" lon="17.6999874">
        <ele>23.209</ele>
        <time>2013-04-21T13:38:24Z</time>
      </trkpt>
      <trkpt lat="59.8208424" lon="17.700098">
        <ele>23.209</ele>
        <time>2013-04-21T13:38:25Z</time>
      </trkpt>
      <trkpt lat="59.820841" lon="17.7002099">
        <ele>23.209</ele>
        <time>2013-04-21T13:38:26Z</time>
      </trkpt>
      <trkpt lat="59.820834" lon="17.7003208">
        <ele>23.209</ele>
        <time>2013-04-21T13:38:27Z</time>
      </trkpt>
      <trkpt lat="59.8208239" lon="17.700431">
        <ele>23.209</ele>
        <time>2013-04-21T13:38:28Z</time>
      </trkpt>
      <trkpt lat="59.8208157" lon="17.7005398">
        <ele>23.6896</ele>
        <time>2013-04-21T13:38:29Z</time>
      </trkpt>
      <trkpt lat="59.8208094" lon="17.7006482">
        <ele>23.6896</ele>
        <time>2013-04-21T13:38:30Z</time>
      </trkpt>
      <trkpt lat="59.8208021" lon="17.7007585">
        <ele>23.6896</ele>
        <time>2013-04-21T13:38:31Z</time>
      </trkpt>
      <trkpt lat="59.8207968" lon="17.700876">
        <ele>23.209</ele>
        <time>2013-04-21T13:38:32Z</time>
      </trkpt>
      <trkpt lat="59.8207917" lon="17.7009927">
        <ele>23.209</ele>
        <time>2013-04-21T13:38:33Z</time>
      </trkpt>
      <trkpt lat="59.8207882" lon="17.7011013">
        <ele>23.6896</ele>
        <time>2013-04-21T13:38:34Z</time>
      </trkpt>
      <trkpt lat="59.8207855" lon="17.7012064">
        <ele>23.209</ele>
        <time>2013-04-21T13:38:35Z</time>
      </trkpt>
      <trkpt lat="59.8207875" lon="17.7013106">
        <ele>23.6896</ele>
        <time>2013-04-21T13:38:36Z</time>
      </trkpt>
      <trkpt lat="59.820787" lon="17.7014164">
        <ele>24.1703</ele>
        <time>2013-04-21T13:38:37Z</time>
      </trkpt>
      <trkpt lat="59.8207857" lon="17.701519">
        <ele>25.1317</ele>
        <time>2013-04-21T13:38:38Z</time>
      </trkpt>
      <trkpt lat="59.8207814" lon="17.7016218">
        <ele>24.651</ele>
        <time>2013-04-21T13:38:39Z</time>
      </trkpt>
      <trkpt lat="59.8207763" lon="17.701721">
        <ele>24.651</ele>
        <time>2013-04-21T13:38:40Z</time>
      </trkpt>
      <trkpt lat="59.8207622" lon="17.7018172">
        <ele>24.651</ele>
        <time>2013-04-21T13:38:41Z</time>
      </trkpt>
      <trkpt lat="59.82074" lon="17.7019233">
        <ele>23.6896</ele>
        <time>2013-04-21T13:38:42Z</time>
      </trkpt>
      <trkpt lat="59.8207271" lon="17.7020193">
        <ele>24.1703</ele>
        <time>2013-04-21T13:38:43Z</time>
      </trkpt>
      <trkpt lat="59.8207168" lon="17.7021138">
        <ele>24.651</ele>
        <time>2013-04-21T13:38:44Z</time>
      </trkpt>
      <trkpt lat="59.8207113" lon="17.7022097">
        <ele>25.1317</ele>
        <time>2013-04-21T13:38:45Z</time>
      </trkpt>
      <trkpt lat="59.8207011" lon="17.7023063">
        <ele>24.651</ele>
        <time>2013-04-21T13:38:46Z</time>
      </trkpt>
      <trkpt lat="59.8206933" lon="17.7024016">
        <ele>24.651</ele>
        <time>2013-04-21T13:38:47Z</time>
      </trkpt>
      <trkpt lat="59.8206888" lon="17.7024978">
        <ele>25.1317</ele>
        <time>2013-04-21T13:38:48Z</time>
      </trkpt>
      <trkpt lat="59.8206819" lon="17.7026031">
        <ele>25.1317</ele>
        <time>2013-04-21T13:38:49Z</time>
      </trkpt>
      <trkpt lat="59.8206763" lon="17.7027194">
        <ele>25.1317</ele>
        <time>2013-04-21T13:38:50Z</time>
      </trkpt>
      <trkpt lat="59.8206678" lon="17.7028341">
        <ele>25.6123</ele>
        <time>2013-04-21T13:38:51Z</time>
      </trkpt>
      <trkpt lat="59.8206612" lon="17.7029486">
        <ele>25.6123</ele>
        <time>2013-04-21T13:38:52Z</time>
      </trkpt>
      <trkpt lat="59.8206548" lon="17.7030568">
        <ele>26.0929</ele>
        <time>2013-04-21T13:38:53Z</time>
      </trkpt>
      <trkpt lat="59.8206513" lon="17.7031623">
        <ele>26.0929</ele>
        <time>2013-04-21T13:38:54Z</time>
      </trkpt>
      <trkpt lat="59.8206474" lon="17.7032703">
        <ele>27.0543</ele>
        <time>2013-04-21T13:38:55Z</time>
      </trkpt>
      <trkpt lat="59.8206411" lon="17.7033745">
        <ele>28.0155</ele>
        <time>2013-04-21T13:38:56Z</time>
      </trkpt>
      <trkpt lat="59.8206334" lon="17.7034775">
        <ele>28.4962</ele>
        <time>2013-04-21T13:38:57Z</time>
      </trkpt>
      <trkpt lat="59.8206224" lon="17.7035739">
        <ele>28.4962</ele>
        <time>2013-04-21T13:38:58Z</time>
      </trkpt>
      <trkpt lat="59.8206187" lon="17.703666">
        <ele>28.9769</ele>
        <time>2013-04-21T13:38:59Z</time>
      </trkpt>
      <trkpt lat="59.8206186" lon="17.703757">
        <ele>30.4188</ele>
        <time>2013-04-21T13:39:00Z</time>
      </trkpt>
      <trkpt lat="59.8206206" lon="17.7038422">
        <ele>31.3801</ele>
        <time>2013-04-21T13:39:01Z</time>
      </trkpt>
      <trkpt lat="59.8206154" lon="17.7039327">
        <ele>31.8607</ele>
        <time>2013-04-21T13:39:02Z</time>
      </trkpt>
      <trkpt lat="59.8206089" lon="17.7040261">
        <ele>31.8607</ele>
        <time>2013-04-21T13:39:03Z</time>
      </trkpt>
      <trkpt lat="59.8206061" lon="17.7041188">
        <ele>32.3416</ele>
        <time>2013-04-21T13:39:04Z</time>
      </trkpt>
      <trkpt lat="59.8206049" lon="17.7042142">
        <ele>33.3029</ele>
        <time>2013-04-21T13:39:05Z</time>
      </trkpt>
      <trkpt lat="59.8206015" lon="17.7043146">
        <ele>33.3029</ele>
        <time>2013-04-21T13:39:06Z</time>
      </trkpt>
      <trkpt lat="59.8205969" lon="17.7044169">
        <ele>33.3029</ele>
        <time>2013-04-21T13:39:07Z</time>
      </trkpt>
      <trkpt lat="59.8205895" lon="17.7045182">
        <ele>33.3029</ele>
        <time>2013-04-21T13:39:08Z</time>
      </trkpt>
      <trkpt lat="59.8205818" lon="17.7046248">
        <ele>33.7834</ele>
        <time>2013-04-21T13:39:09Z</time>
      </trkpt>
      <trkpt lat="59.8205728" lon="17.7047293">
        <ele>33.7834</ele>
        <time>2013-04-21T13:39:10Z</time>
      </trkpt>
      <trkpt lat="59.8205623" lon="17.7048363">
        <ele>33.7834</ele>
        <time>2013-04-21T13:39:11Z</time>
      </trkpt>
      <trkpt lat="59.8205504" lon="17.7049474">
        <ele>33.3029</ele>
        <time>2013-04-21T13:39:12Z</time>
      </trkpt>
      <trkpt lat="59.8205384" lon="17.7050615">
        <ele>32.8223</ele>
        <time>2013-04-21T13:39:13Z</time>
      </trkpt>
      <trkpt lat="59.8205302" lon="17.7051729">
        <ele>32.8223</ele>
        <time>2013-04-21T13:39:14Z</time>
      </trkpt>
      <trkpt lat="59.8205215" lon="17.7052839">
        <ele>33.3029</ele>
        <time>2013-04-21T13:39:15Z</time>
      </trkpt>
      <trkpt lat="59.8205094" lon="17.7053962">
        <ele>33.3029</ele>
        <time>2013-04-21T13:39:16Z</time>
      </trkpt>
      <trkpt lat="59.8204959" lon="17.7055123">
        <ele>33.3029</ele>
        <time>2013-04-21T13:39:17Z</time>
      </trkpt>
      <trkpt lat="59.8204856" lon="17.7056193">
        <ele>34.2642</ele>
        <time>2013-04-21T13:39:18Z</time>
      </trkpt>
      <trkpt lat="59.8204748" lon="17.7057254">
        <ele>34.7449</ele>
        <time>2013-04-21T13:39:19Z</time>
      </trkpt>
      <trkpt lat="59.8204649" lon="17.7058356">
        <ele>34.7449</ele>
        <time>2013-04-21T13:39:20Z</time>
      </trkpt>
      <trkpt lat="59.820454" lon="17.7059458">
        <ele>34.7449</ele>
        <time>2013-04-21T13:39:21Z</time>
      </trkpt>
      <trkpt lat="59.8204432" lon="17.7060564">
        <ele>35.2255</ele>
        <time>2013-04-21T13:39:22Z</time>
      </trkpt>
      <trkpt lat="59.8204318" lon="17.7061664">
        <ele>35.2255</ele>
        <time>2013-04-21T13:39:23Z</time>
      </trkpt>
      <trkpt lat="59.8204192" lon="17.7062779">
        <ele>34.7449</ele>
        <time>2013-04-21T13:39:24Z</time>
      </trkpt>
      <trkpt lat="59.8204077" lon="17.7063891">
        <ele>34.7449</ele>
        <time>2013-04-21T13:39:25Z</time>
      </trkpt>
      <trkpt lat="59.8203969" lon="17.7064947">
        <ele>34.7449</ele>
        <time>2013-04-21T13:39:26Z</time>
      </trkpt>
      <trkpt lat="59.8203868" lon="17.7065974">
        <ele>34.7449</ele>
        <time>2013-04-21T13:39:27Z</time>
      </trkpt>
      <trkpt lat="59.8203732" lon="17.7067003">
        <ele>34.2642</ele>
        <time>2013-04-21T13:39:28Z</time>
      </trkpt>
      <trkpt lat="59.8203566" lon="17.7067995">
        <ele>33.7834</ele>
        <time>2013-04-21T13:39:29Z</time>
      </trkpt>
      <trkpt lat="59.8203424" lon="17.7068905">
        <ele>33.7834</ele>
        <time>2013-04-21T13:39:30Z</time>
      </trkpt>
      <trkpt lat="59.8203297" lon="17.706986">
        <ele>33.3029</ele>
        <time>2013-04-21T13:39:31Z</time>
      </trkpt>
      <trkpt lat="59.8203172" lon="17.7070875">
        <ele>33.3029</ele>
        <time>2013-04-21T13:39:32Z</time>
      </trkpt>
      <trkpt lat="59.820302" lon="17.7071906">
        <ele>32.3416</ele>
        <time>2013-04-21T13:39:33Z</time>
      </trkpt>
      <trkpt lat="59.8202886" lon="17.7072895">
        <ele>32.3416</ele>
        <time>2013-04-21T13:39:34Z</time>
      </trkpt>
      <trkpt lat="59.8202752" lon="17.7073857">
        <ele>32.3416</ele>
        <time>2013-04-21T13:39:35Z</time>
      </trkpt>
      <trkpt lat="59.8202649" lon="17.7074848">
        <ele>32.3416</ele>
        <time>2013-04-21T13:39:36Z</time>
      </trkpt>
      <trkpt lat="59.8202544" lon="17.7075847">
        <ele>32.3416</ele>
        <time>2013-04-21T13:39:37Z</time>
      </trkpt>
      <trkpt lat="59.8202402" lon="17.7076848">
        <ele>31.8607</ele>
        <time>2013-04-21T13:39:38Z</time>
      </trkpt>
      <trkpt lat="59.8202272" lon="17.7077862">
        <ele>31.8607</ele>
        <time>2013-04-21T13:39:39Z</time>
      </trkpt>
      <trkpt lat="59.820211" lon="17.7078894">
        <ele>31.8607</ele>
        <time>2013-04-21T13:39:40Z</time>
      </trkpt>
      <trkpt lat="59.8201996" lon="17.7079888">
        <ele>31.8607</ele>
        <time>2013-04-21T13:39:41Z</time>
      </trkpt>
      <trkpt lat="59.8201883" lon="17.7080825">
        <ele>31.8607</ele>
        <time>2013-04-21T13:39:42Z</time>
      </trkpt>
      <trkpt lat="59.8201774" lon="17.7081752">
        <ele>31.8607</ele>
        <time>2013-04-21T13:39:43Z</time>
      </trkpt>
      <trkpt lat="59.8201661" lon="17.7082632">
        <ele>31.8607</ele>
        <time>2013-04-21T13:39:44Z</time>
      </trkpt>
      <trkpt lat="59.8201572" lon="17.7083483">
        <ele>31.8607</ele>
        <time>2013-04-21T13:39:45Z</time>
      </trkpt>
      <trkpt lat="59.8201623" lon="17.7084633">
        <ele>32.3416</ele>
        <time>2013-04-21T13:39:46Z</time>
      </trkpt>
      <trkpt lat="59.8201503" lon="17.7085649">
        <ele>31.8607</ele>
        <time>2013-04-21T13:39:47Z</time>
      </trkpt>
      <trkpt lat="59.8201389" lon="17.7086622">
        <ele>31.3801</ele>
        <time>2013-04-21T13:39:48Z</time>
      </trkpt>
      <trkpt lat="59.8201303" lon="17.7087615">
        <ele>31.3801</ele>
        <time>2013-04-21T13:39:49Z</time>
      </trkpt>
      <trkpt lat="59.8201275" lon="17.7088596">
        <ele>31.3801</ele>
        <time>2013-04-21T13:39:50Z</time>
      </trkpt>
      <trkpt lat="59.8201169" lon="17.7089615">
        <ele>31.3801</ele>
        <time>2013-04-21T13:39:51Z</time>
      </trkpt>
      <trkpt lat="59.8201057" lon="17.7090568">
        <ele>31.3801</ele>
        <time>2013-04-21T13:39:52Z</time>
      </trkpt>
      <trkpt lat="59.8200877" lon="17.7091554">
        <ele>30.8995</ele>
        <time>2013-04-21T13:39:53Z</time>
      </trkpt>
      <trkpt lat="59.8200666" lon="17.7092523">
        <ele>30.8995</ele>
        <time>2013-04-21T13:39:54Z</time>
      </trkpt>
      <trkpt lat="59.8200428" lon="17.7093339">
        <ele>30.4188</ele>
        <time>2013-04-21T13:39:55Z</time>
      </trkpt>
      <trkpt lat="59.8200225" lon="17.7094237">
        <ele>30.8995</ele>
        <time>2013-04-21T13:39:56Z</time>
      </trkpt>
      <trkpt lat="59.8200065" lon="17.7095186">
        <ele>30.8995</ele>
        <time>2013-04-21T13:39:57Z</time>
      </trkpt>
      <trkpt lat="59.8199887" lon="17.709615">
        <ele>30.8995</ele>
        <time>2013-04-21T13:39:58Z</time>
      </trkpt>
      <trkpt lat="59.8199648" lon="17.7097151">
        <ele>31.3801</ele>
        <time>2013-04-21T13:39:59Z</time>
      </trkpt>
      <trkpt lat="59.8199372" lon="17.7098154">
        <ele>31.3801</ele>
        <time>2013-04-21T13:40:00Z</time>
      </trkpt>
      <trkpt lat="59.8199162" lon="17.7099127">
        <ele>31.3801</ele>
        <time>2013-04-21T13:40:01Z</time>
      </trkpt>
      <trkpt lat="59.8198977" lon="17.7100132">
        <ele>31.8607</ele>
        <time>2013-04-21T13:40:02Z</time>
      </trkpt>
      <trkpt lat="59.8198822" lon="17.7101064">
        <ele>32.8223</ele>
        <time>2013-04-21T13:40:03Z</time>
      </trkpt>
      <trkpt lat="59.8198624" lon="17.7102026">
        <ele>33.3029</ele>
        <time>2013-04-21T13:40:04Z</time>
      </trkpt>
      <trkpt lat="59.819837" lon="17.7102995">
        <ele>33.3029</ele>
        <time>2013-04-21T13:40:05Z</time>
      </trkpt>
      <trkpt lat="59.8198156" lon="17.7103961">
        <ele>33.7834</ele>
        <time>2013-04-21T13:40:06Z</time>
      </trkpt>
      <trkpt lat="59.8197957" lon="17.7104906">
        <ele>34.2642</ele>
        <time>2013-04-21T13:40:07Z</time>
      </trkpt>
      <trkpt lat="59.8197732" lon="17.7105875">
        <ele>35.7061</ele>
        <time>2013-04-21T13:40:08Z</time>
      </trkpt>
      <trkpt lat="59.819749" lon="17.7106831">
        <ele>36.6675</ele>
        <time>2013-04-21T13:40:09Z</time>
      </trkpt>
      <trkpt lat="59.8197239" lon="17.710784">
        <ele>36.6675</ele>
        <time>2013-04-21T13:40:10Z</time>
      </trkpt>
      <trkpt lat="59.8197019" lon="17.7108855">
        <ele>36.6675</ele>
        <time>2013-04-21T13:40:11Z</time>
      </trkpt>
      <trkpt lat="59.8196755" lon="17.7109778">
        <ele>35.7061</ele>
        <time>2013-04-21T13:40:12Z</time>
      </trkpt>
      <trkpt lat="59.8196582" lon="17.7110781">
        <ele>35.2255</ele>
        <time>2013-04-21T13:40:13Z</time>
      </trkpt>
      <trkpt lat="59.8196411" lon="17.7111759">
        <ele>34.7449</ele>
        <time>2013-04-21T13:40:14Z</time>
      </trkpt>
      <trkpt lat="59.8196248" lon="17.7112839">
        <ele>34.2642</ele>
        <time>2013-04-21T13:40:15Z</time>
      </trkpt>
      <trkpt lat="59.8196036" lon="17.7113868">
        <ele>33.7834</ele>
        <time>2013-04-21T13:40:16Z</time>
      </trkpt>
      <trkpt lat="59.8195791" lon="17.711488">
        <ele>33.7834</ele>
        <time>2013-04-21T13:40:17Z</time>
      </trkpt>
      <trkpt lat="59.8195543" lon="17.7115948">
        <ele>32.8223</ele>
        <time>2013-04-21T13:40:18Z</time>
      </trkpt>
      <trkpt lat="59.8195309" lon="17.7116904">
        <ele>32.8223</ele>
        <time>2013-04-21T13:40:19Z</time>
      </trkpt>
      <trkpt lat="59.8195022" lon="17.7117863">
        <ele>32.8223</ele>
        <time>2013-04-21T13:40:20Z</time>
      </trkpt>
      <trkpt lat="59.8194737" lon="17.7118936">
        <ele>31.8607</ele>
        <time>2013-04-21T13:40:21Z</time>
      </trkpt>
      <trkpt lat="59.8194453" lon="17.7119899">
        <ele>31.8607</ele>
        <time>2013-04-21T13:40:22Z</time>
      </trkpt>
      <trkpt lat="59.8194108" lon="17.7120966">
        <ele>30.8995</ele>
        <time>2013-04-21T13:40:23Z</time>
      </trkpt>
      <trkpt lat="59.8193819" lon="17.712199">
        <ele>30.4188</ele>
        <time>2013-04-21T13:40:24Z</time>
      </trkpt>
      <trkpt lat="59.8193479" lon="17.7122955">
        <ele>29.4575</ele>
        <time>2013-04-21T13:40:25Z</time>
      </trkpt>
      <trkpt lat="59.8193186" lon="17.7123924">
        <ele>28.9769</ele>
        <time>2013-04-21T13:40:26Z</time>
      </trkpt>
      <trkpt lat="59.8192911" lon="17.712497">
        <ele>28.9769</ele>
        <time>2013-04-21T13:40:27Z</time>
      </trkpt>
      <trkpt lat="59.8192569" lon="17.7126041">
        <ele>28.0155</ele>
        <time>2013-04-21T13:40:28Z</time>
      </trkpt>
      <trkpt lat="59.8192236" lon="17.7127077">
        <ele>27.5349</ele>
        <time>2013-04-21T13:40:29Z</time>
      </trkpt>
      <trkpt lat="59.8191866" lon="17.712811">
        <ele>26.5736</ele>
        <time>2013-04-21T13:40:30Z</time>
      </trkpt>
      <trkpt lat="59.8191588" lon="17.7129052">
        <ele>27.0543</ele>
        <time>2013-04-21T13:40:31Z</time>
      </trkpt>
      <trkpt lat="59.8191308" lon="17.7129947">
        <ele>27.0543</ele>
        <time>2013-04-21T13:40:32Z</time>
      </trkpt>
      <trkpt lat="59.8191036" lon="17.713084">
        <ele>27.5349</ele>
        <time>2013-04-21T13:40:33Z</time>
      </trkpt>
      <trkpt lat="59.8190749" lon="17.7131832">
        <ele>27.0543</ele>
        <time>2013-04-21T13:40:34Z</time>
      </trkpt>
      <trkpt lat="59.8190399" lon="17.7132794">
        <ele>27.0543</ele>
        <time>2013-04-21T13:40:35Z</time>
      </trkpt>
      <trkpt lat="59.8190031" lon="17.7133735">
        <ele>26.5736</ele>
        <time>2013-04-21T13:40:36Z</time>
      </trkpt>
      <trkpt lat="59.8189619" lon="17.7134589">
        <ele>26.0929</ele>
        <time>2013-04-21T13:40:37Z</time>
      </trkpt>
      <trkpt lat="59.8189182" lon="17.7135419">
        <ele>25.6123</ele>
        <time>2013-04-21T13:40:38Z</time>
      </trkpt>
      <trkpt lat="59.8188755" lon="17.7136305">
        <ele>26.5736</ele>
        <time>2013-04-21T13:40:39Z</time>
      </trkpt>
      <trkpt lat="59.8188335" lon="17.7137031">
        <ele>28.0155</ele>
        <time>2013-04-21T13:40:40Z</time>
      </trkpt>
      <trkpt lat="59.8187865" lon="17.7137821">
        <ele>28.4962</ele>
        <time>2013-04-21T13:40:41Z</time>
      </trkpt>
      <trkpt lat="59.818743" lon="17.713878">
        <ele>28.9769</ele>
        <time>2013-04-21T13:40:42Z</time>
      </trkpt>
      <trkpt lat="59.8186996" lon="17.713978">
        <ele>29.4575</ele>
        <time>2013-04-21T13:40:43Z</time>
      </trkpt>
      <trkpt lat="59.8186497" lon="17.7140688">
        <ele>28.4962</ele>
        <time>2013-04-21T13:40:44Z</time>
      </trkpt>
      <trkpt lat="59.8185986" lon="17.7141584">
        <ele>28.0155</ele>
        <time>2013-04-21T13:40:45Z</time>
      </trkpt>
      <trkpt lat="59.8185481" lon="17.7142489">
        <ele>27.5349</ele>
        <time>2013-04-21T13:40:46Z</time>
      </trkpt>
      <trkpt lat="59.8184986" lon="17.7143428">
        <ele>27.0543</ele>
        <time>2013-04-21T13:40:47Z</time>
      </trkpt>
      <trkpt lat="59.8184548" lon="17.7144323">
        <ele>27.0543</ele>
        <time>2013-04-21T13:40:48Z</time>
      </trkpt>
      <trkpt lat="59.8184116" lon="17.7145188">
        <ele>27.0543</ele>
        <time>2013-04-21T13:40:49Z</time>
      </trkpt>
      <trkpt lat="59.818369" lon="17.7145984">
        <ele>26.5736</ele>
        <time>2013-04-21T13:40:50Z</time>
      </trkpt>
      <trkpt lat="59.8183236" lon="17.7146721">
        <ele>26.5736</ele>
        <time>2013-04-21T13:40:51Z</time>
      </trkpt>
      <trkpt lat="59.8182788" lon="17.7147462">
        <ele>26.5736</ele>
        <time>2013-04-21T13:40:52Z</time>
      </trkpt>
      <trkpt lat="59.8182324" lon="17.7148243">
        <ele>26.5736</ele>
        <time>2013-04-21T13:40:53Z</time>
      </trkpt>
      <trkpt lat="59.8181876" lon="17.7148965">
        <ele>26.5736</ele>
        <time>2013-04-21T13:40:54Z</time>
      </trkpt>
      <trkpt lat="59.8181423" lon="17.7149707">
        <ele>26.5736</ele>
        <time>2013-04-21T13:40:55Z</time>
      </trkpt>
      <trkpt lat="59.818095" lon="17.7150481">
        <ele>26.0929</ele>
        <time>2013-04-21T13:40:56Z</time>
      </trkpt>
      <trkpt lat="59.8180494" lon="17.7151187">
        <ele>26.0929</ele>
        <time>2013-04-21T13:40:57Z</time>
      </trkpt>
      <trkpt lat="59.8180017" lon="17.7151881">
        <ele>26.5736</ele>
        <time>2013-04-21T13:40:58Z</time>
      </trkpt>
      <trkpt lat="59.8179597" lon="17.7152488">
        <ele>27.0543</ele>
        <time>2013-04-21T13:40:59Z</time>
      </trkpt>
      <trkpt lat="59.8179173" lon="17.715304">
        <ele>27.5349</ele>
        <time>2013-04-21T13:41:00Z</time>
      </trkpt>
      <trkpt lat="59.8178759" lon="17.7153601">
        <ele>28.0155</ele>
        <time>2013-04-21T13:41:01Z</time>
      </trkpt>
      <trkpt lat="59.817835" lon="17.7154189">
        <ele>28.4962</ele>
        <time>2013-04-21T13:41:02Z</time>
      </trkpt>
      <trkpt lat="59.8177949" lon="17.7154756">
        <ele>28.9769</ele>
        <time>2013-04-21T13:41:03Z</time>
      </trkpt>
      <trkpt lat="59.8177522" lon="17.7155336">
        <ele>29.4575</ele>
        <time>2013-04-21T13:41:04Z</time>
      </trkpt>
      <trkpt lat="59.8177106" lon="17.7155998">
        <ele>29.4575</ele>
        <time>2013-04-21T13:41:05Z</time>
      </trkpt>
      <trkpt lat="59.8176681" lon="17.7156635">
        <ele>28.9769</ele>
        <time>2013-04-21T13:41:06Z</time>
      </trkpt>
      <trkpt lat="59.8176251" lon="17.7157243">
        <ele>28.9769</ele>
        <time>2013-04-21T13:41:07Z</time>
      </trkpt>
      <trkpt lat="59.8175832" lon="17.715791">
        <ele>28.9769</ele>
        <time>2013-04-21T13:41:08Z</time>
      </trkpt>
      <trkpt lat="59.8175436" lon="17.7158501">
        <ele>29.4575</ele>
        <time>2013-04-21T13:41:09Z</time>
      </trkpt>
      <trkpt lat="59.8175019" lon="17.715915">
        <ele>29.9381</ele>
        <time>2013-04-21T13:41:10Z</time>
      </trkpt>
      <trkpt lat="59.817461" lon="17.715991">
        <ele>30.4188</ele>
        <time>2013-04-21T13:41:11Z</time>
      </trkpt>
      <trkpt lat="59.8174186" lon="17.7160628">
        <ele>30.8995</ele>
        <time>2013-04-21T13:41:12Z</time>
      </trkpt>
      <trkpt lat="59.8173766" lon="17.7161191">
        <ele>31.3801</ele>
        <time>2013-04-21T13:41:13Z</time>
      </trkpt>
      <trkpt lat="59.8173372" lon="17.7161873">
        <ele>31.8607</ele>
        <time>2013-04-21T13:41:14Z</time>
      </trkpt>
      <trkpt lat="59.8172953" lon="17.7162485">
        <ele>32.3416</ele>
        <time>2013-04-21T13:41:15Z</time>
      </trkpt>
      <trkpt lat="59.8172548" lon="17.7163127">
        <ele>32.3416</ele>
        <time>2013-04-21T13:41:16Z</time>
      </trkpt>
      <trkpt lat="59.8172163" lon="17.7163828">
        <ele>32.8223</ele>
        <time>2013-04-21T13:41:17Z</time>
      </trkpt>
      <trkpt lat="59.8171756" lon="17.7164469">
        <ele>32.8223</ele>
        <time>2013-04-21T13:41:18Z</time>
      </trkpt>
      <trkpt lat="59.8171372" lon="17.716511">
        <ele>33.3029</ele>
        <time>2013-04-21T13:41:19Z</time>
      </trkpt>
      <trkpt lat="59.8170973" lon="17.7165684">
        <ele>33.7834</ele>
        <time>2013-04-21T13:41:20Z</time>
      </trkpt>
      <trkpt lat="59.8170581" lon="17.7166188">
        <ele>34.2642</ele>
        <time>2013-04-21T13:41:21Z</time>
      </trkpt>
      <trkpt lat="59.8170173" lon="17.7166754">
        <ele>33.7834</ele>
        <time>2013-04-21T13:41:22Z</time>
      </trkpt>
      <trkpt lat="59.8169778" lon="17.7167393">
        <ele>34.2642</ele>
        <time>2013-04-21T13:41:23Z</time>
      </trkpt>
      <trkpt lat="59.8169335" lon="17.7168007">
        <ele>34.7449</ele>
        <time>2013-04-21T13:41:24Z</time>
      </trkpt>
      <trkpt lat="59.8168939" lon="17.7168649">
        <ele>35.2255</ele>
        <time>2013-04-21T13:41:25Z</time>
      </trkpt>
      <trkpt lat="59.8168568" lon="17.7169315">
        <ele>35.2255</ele>
        <time>2013-04-21T13:41:26Z</time>
      </trkpt>
      <trkpt lat="59.8168193" lon="17.7169945">
        <ele>34.7449</ele>
        <time>2013-04-21T13:41:27Z</time>
      </trkpt>
      <trkpt lat="59.8167842" lon="17.7170488">
        <ele>35.2255</ele>
        <time>2013-04-21T13:41:28Z</time>
      </trkpt>
      <trkpt lat="59.8167478" lon="17.7170991">
        <ele>35.7061</ele>
        <time>2013-04-21T13:41:29Z</time>
      </trkpt>
      <trkpt lat="59.8167104" lon="17.7171517">
        <ele>35.7061</ele>
        <time>2013-04-21T13:41:30Z</time>
      </trkpt>
      <trkpt lat="59.8166751" lon="17.7172051">
        <ele>35.7061</ele>
        <time>2013-04-21T13:41:31Z</time>
      </trkpt>
      <trkpt lat="59.8166376" lon="17.7172545">
        <ele>35.2255</ele>
        <time>2013-04-21T13:41:32Z</time>
      </trkpt>
      <trkpt lat="59.8165972" lon="17.7172975">
        <ele>34.7449</ele>
        <time>2013-04-21T13:41:33Z</time>
      </trkpt>
      <trkpt lat="59.8165559" lon="17.7173361">
        <ele>34.7449</ele>
        <time>2013-04-21T13:41:34Z</time>
      </trkpt>
      <trkpt lat="59.8165162" lon="17.7173797">
        <ele>34.2642</ele>
        <time>2013-04-21T13:41:35Z</time>
      </trkpt>
      <trkpt lat="59.8164767" lon="17.7174252">
        <ele>34.2642</ele>
        <time>2013-04-21T13:41:36Z</time>
      </trkpt>
      <trkpt lat="59.8164362" lon="17.7174706">
        <ele>34.7449</ele>
        <time>2013-04-21T13:41:37Z</time>
      </trkpt>
      <trkpt lat="59.8163953" lon="17.7175128">
        <ele>34.7449</ele>
        <time>2013-04-21T13:41:38Z</time>
      </trkpt>
      <trkpt lat="59.8163529" lon="17.7175523">
        <ele>35.2255</ele>
        <time>2013-04-21T13:41:39Z</time>
      </trkpt>
      <trkpt lat="59.816309" lon="17.7175915">
        <ele>35.2255</ele>
        <time>2013-04-21T13:41:40Z</time>
      </trkpt>
      <trkpt lat="59.8162647" lon="17.7176311">
        <ele>35.2255</ele>
        <time>2013-04-21T13:41:41Z</time>
      </trkpt>
      <trkpt lat="59.8162187" lon="17.7176611">
        <ele>35.2255</ele>
        <time>2013-04-21T13:41:42Z</time>
      </trkpt>
      <trkpt lat="59.816172" lon="17.7176916">
        <ele>35.2255</ele>
        <time>2013-04-21T13:41:43Z</time>
      </trkpt>
      <trkpt lat="59.8161255" lon="17.7177242">
        <ele>35.2255</ele>
        <time>2013-04-21T13:41:44Z</time>
      </trkpt>
      <trkpt lat="59.8160805" lon="17.7177621">
        <ele>35.2255</ele>
        <time>2013-04-21T13:41:45Z</time>
      </trkpt>
      <trkpt lat="59.8160352" lon="17.7177966">
        <ele>35.7061</ele>
        <time>2013-04-21T13:41:46Z</time>
      </trkpt>
      <trkpt lat="59.8159878" lon="17.7178261">
        <ele>35.7061</ele>
        <time>2013-04-21T13:41:47Z</time>
      </trkpt>
      <trkpt lat="59.8159394" lon="17.7178518">
        <ele>35.7061</ele>
        <time>2013-04-21T13:41:48Z</time>
      </trkpt>
      <trkpt lat="59.8158896" lon="17.7178764">
        <ele>35.2255</ele>
        <time>2013-04-21T13:41:49Z</time>
      </trkpt>
      <trkpt lat="59.8158391" lon="17.7179009">
        <ele>35.2255</ele>
        <time>2013-04-21T13:41:50Z</time>
      </trkpt>
      <trkpt lat="59.8157888" lon="17.7179222">
        <ele>34.7449</ele>
        <time>2013-04-21T13:41:51Z</time>
      </trkpt>
      <trkpt lat="59.8157375" lon="17.7179382">
        <ele>34.7449</ele>
        <time>2013-04-21T13:41:52Z</time>
      </trkpt>
      <trkpt lat="59.8156857" lon="17.7179507">
        <ele>34.2642</ele>
        <time>2013-04-21T13:41:53Z</time>
      </trkpt>
      <trkpt lat="59.8156334" lon="17.7179626">
        <ele>34.2642</ele>
        <time>2013-04-21T13:41:54Z</time>
      </trkpt>
      <trkpt lat="59.8155807" lon="17.7179765">
        <ele>34.2642</ele>
        <time>2013-04-21T13:41:55Z</time>
      </trkpt>
      <trkpt lat="59.8155277" lon="17.7179925">
        <ele>34.2642</ele>
        <time>2013-04-21T13:41:56Z</time>
      </trkpt>
      <trkpt lat="59.8154748" lon="17.7180102">
        <ele>34.2642</ele>
        <time>2013-04-21T13:41:57Z</time>
      </trkpt>
      <trkpt lat="59.8154216" lon="17.7180247">
        <ele>34.2642</ele>
        <time>2013-04-21T13:41:58Z</time>
      </trkpt>
      <trkpt lat="59.8153687" lon="17.7180409">
        <ele>34.2642</ele>
        <time>2013-04-21T13:41:59Z</time>
      </trkpt>
      <trkpt lat="59.8153154" lon="17.7180579">
        <ele>34.2642</ele>
        <time>2013-04-21T13:42:00Z</time>
      </trkpt>
      <trkpt lat="59.8152618" lon="17.7180763">
        <ele>34.7449</ele>
        <time>2013-04-21T13:42:01Z</time>
      </trkpt>
      <trkpt lat="59.8152079" lon="17.7180931">
        <ele>34.7449</ele>
        <time>2013-04-21T13:42:02Z</time>
      </trkpt>
      <trkpt lat="59.8151552" lon="17.7181071">
        <ele>34.7449</ele>
        <time>2013-04-21T13:42:03Z</time>
      </trkpt>
      <trkpt lat="59.815104" lon="17.71812">
        <ele>34.7449</ele>
        <time>2013-04-21T13:42:04Z</time>
      </trkpt>
      <trkpt lat="59.8150525" lon="17.7181346">
        <ele>34.7449</ele>
        <time>2013-04-21T13:42:05Z</time>
      </trkpt>
      <trkpt lat="59.8150029" lon="17.7181589">
        <ele>35.2255</ele>
        <time>2013-04-21T13:42:06Z</time>
      </trkpt>
      <trkpt lat="59.8149555" lon="17.7181877">
        <ele>35.2255</ele>
        <time>2013-04-21T13:42:07Z</time>
      </trkpt>
      <trkpt lat="59.8149107" lon="17.7182257">
        <ele>35.2255</ele>
        <time>2013-04-21T13:42:08Z</time>
      </trkpt>
      <trkpt lat="59.8148678" lon="17.7182724">
        <ele>35.7061</ele>
        <time>2013-04-21T13:42:09Z</time>
      </trkpt>
      <trkpt lat="59.8148253" lon="17.7183226">
        <ele>35.7061</ele>
        <time>2013-04-21T13:42:10Z</time>
      </trkpt>
      <trkpt lat="59.8147852" lon="17.7183734">
        <ele>36.6675</ele>
        <time>2013-04-21T13:42:11Z</time>
      </trkpt>
      <trkpt lat="59.8147481" lon="17.7184284">
        <ele>37.1481</ele>
        <time>2013-04-21T13:42:12Z</time>
      </trkpt>
      <trkpt lat="59.814715" lon="17.7184946">
        <ele>37.6287</ele>
        <time>2013-04-21T13:42:13Z</time>
      </trkpt>
      <trkpt lat="59.8146851" lon="17.7185674">
        <ele>38.5901</ele>
        <time>2013-04-21T13:42:14Z</time>
      </trkpt>
      <trkpt lat="59.8146527" lon="17.7186443">
        <ele>38.5901</ele>
        <time>2013-04-21T13:42:15Z</time>
      </trkpt>
      <trkpt lat="59.8146192" lon="17.7187257">
        <ele>38.5901</ele>
        <time>2013-04-21T13:42:16Z</time>
      </trkpt>
      <trkpt lat="59.8145903" lon="17.7188121">
        <ele>38.5901</ele>
        <time>2013-04-21T13:42:17Z</time>
      </trkpt>
      <trkpt lat="59.8145656" lon="17.7189017">
        <ele>38.5901</ele>
        <time>2013-04-21T13:42:18Z</time>
      </trkpt>
      <trkpt lat="59.8145419" lon="17.7190001">
        <ele>38.1094</ele>
        <time>2013-04-21T13:42:19Z</time>
      </trkpt>
      <trkpt lat="59.814517" lon="17.7191052">
        <ele>38.1094</ele>
        <time>2013-04-21T13:42:20Z</time>
      </trkpt>
      <trkpt lat="59.8144983" lon="17.7192146">
        <ele>38.1094</ele>
        <time>2013-04-21T13:42:21Z</time>
      </trkpt>
      <trkpt lat="59.814481" lon="17.7193337">
        <ele>38.1094</ele>
        <time>2013-04-21T13:42:22Z</time>
      </trkpt>
      <trkpt lat="59.8144643" lon="17.7194519">
        <ele>38.1094</ele>
        <time>2013-04-21T13:42:23Z</time>
      </trkpt>
      <trkpt lat="59.8144524" lon="17.7195815">
        <ele>38.1094</ele>
        <time>2013-04-21T13:42:24Z</time>
      </trkpt>
      <trkpt lat="59.8144415" lon="17.7197177">
        <ele>38.1094</ele>
        <time>2013-04-21T13:42:25Z</time>
      </trkpt>
      <trkpt lat="59.8144258" lon="17.71986">
        <ele>37.6287</ele>
        <time>2013-04-21T13:42:26Z</time>
      </trkpt>
      <trkpt lat="59.8144145" lon="17.7200066">
        <ele>37.1481</ele>
        <time>2013-04-21T13:42:27Z</time>
      </trkpt>
      <trkpt lat="59.814409" lon="17.7201653">
        <ele>36.6675</ele>
        <time>2013-04-21T13:42:28Z</time>
      </trkpt>
      <trkpt lat="59.8144057" lon="17.7203317">
        <ele>36.1868</ele>
        <time>2013-04-21T13:42:29Z</time>
      </trkpt>
      <trkpt lat="59.8144026" lon="17.7205032">
        <ele>36.1868</ele>
        <time>2013-04-21T13:42:30Z</time>
      </trkpt>
      <trkpt lat="59.8143985" lon="17.7206794">
        <ele>35.7061</ele>
        <time>2013-04-21T13:42:31Z</time>
      </trkpt>
      <trkpt lat="59.814395" lon="17.7208632">
        <ele>35.2255</ele>
        <time>2013-04-21T13:42:32Z</time>
      </trkpt>
      <trkpt lat="59.8143916" lon="17.7210485">
        <ele>35.2255</ele>
        <time>2013-04-21T13:42:33Z</time>
      </trkpt>
      <trkpt lat="59.8143858" lon="17.7212318">
        <ele>34.2642</ele>
        <time>2013-04-21T13:42:34Z</time>
      </trkpt>
      <trkpt lat="59.8143814" lon="17.7214111">
        <ele>34.7449</ele>
        <time>2013-04-21T13:42:35Z</time>
      </trkpt>
      <trkpt lat="59.8143736" lon="17.7215907">
        <ele>34.7449</ele>
        <time>2013-04-21T13:42:36Z</time>
      </trkpt>
      <trkpt lat="59.8143456" lon="17.7217685">
        <ele>34.2642</ele>
        <time>2013-04-21T13:42:37Z</time>
      </trkpt>
      <trkpt lat="59.8143243" lon="17.7219187">
        <ele>34.2642</ele>
        <time>2013-04-21T13:42:38Z</time>
      </trkpt>
      <trkpt lat="59.8142906" lon="17.7220631">
        <ele>32.8223</ele>
        <time>2013-04-21T13:42:39Z</time>
      </trkpt>
      <trkpt lat="59.8142778" lon="17.7221938">
        <ele>31.3801</ele>
        <time>2013-04-21T13:42:40Z</time>
      </trkpt>
      <trkpt lat="59.8142841" lon="17.7223111">
        <ele>30.8995</ele>
        <time>2013-04-21T13:42:41Z</time>
      </trkpt>
      <trkpt lat="59.8142973" lon="17.7224323">
        <ele>29.9381</ele>
        <time>2013-04-21T13:42:42Z</time>
      </trkpt>
      <trkpt lat="59.814327" lon="17.7225463">
        <ele>28.9769</ele>
        <time>2013-04-21T13:42:43Z</time>
      </trkpt>
      <trkpt lat="59.8143711" lon="17.7226556">
        <ele>28.0155</ele>
        <time>2013-04-21T13:42:44Z</time>
      </trkpt>
      <trkpt lat="59.8144252" lon="17.7227645">
        <ele>27.0543</ele>
        <time>2013-04-21T13:42:45Z</time>
      </trkpt>
      <trkpt lat="59.8144824" lon="17.7228772">
        <ele>26.5736</ele>
        <time>2013-04-21T13:42:46Z</time>
      </trkpt>
      <trkpt lat="59.8145425" lon="17.722994">
        <ele>26.0929</ele>
        <time>2013-04-21T13:42:47Z</time>
      </trkpt>
      <trkpt lat="59.814604" lon="17.7231177">
        <ele>25.1317</ele>
        <time>2013-04-21T13:42:48Z</time>
      </trkpt>
      <trkpt lat="59.8146673" lon="17.7232452">
        <ele>24.651</ele>
        <time>2013-04-21T13:42:49Z</time>
      </trkpt>
      <trkpt lat="59.8147321" lon="17.7233767">
        <ele>24.1703</ele>
        <time>2013-04-21T13:42:50Z</time>
      </trkpt>
      <trkpt lat="59.8147972" lon="17.7235126">
        <ele>24.1703</ele>
        <time>2013-04-21T13:42:51Z</time>
      </trkpt>
      <trkpt lat="59.8148626" lon="17.7236475">
        <ele>23.6896</ele>
        <time>2013-04-21T13:42:52Z</time>
      </trkpt>
      <trkpt lat="59.8149285" lon="17.7237757">
        <ele>23.6896</ele>
        <time>2013-04-21T13:42:53Z</time>
      </trkpt>
      <trkpt lat="59.8149932" lon="17.723896">
        <ele>23.209</ele>
        <time>2013-04-21T13:42:54Z</time>
      </trkpt>
      <trkpt lat="59.815063" lon="17.7240015">
        <ele>23.209</ele>
        <time>2013-04-21T13:42:55Z</time>
      </trkpt>
      <trkpt lat="59.8151368" lon="17.7240775">
        <ele>23.209</ele>
        <time>2013-04-21T13:42:56Z</time>
      </trkpt>
      <trkpt lat="59.8152171" lon="17.7241471">
        <ele>22.7283</ele>
        <time>2013-04-21T13:42:57Z</time>
      </trkpt>
      <trkpt lat="59.8152979" lon="17.7242174">
        <ele>22.2476</ele>
        <time>2013-04-21T13:42:58Z</time>
      </trkpt>
      <trkpt lat="59.8153843" lon="17.7242709">
        <ele>21.767</ele>
        <time>2013-04-21T13:42:59Z</time>
      </trkpt>
      <trkpt lat="59.8154739" lon="17.7243215">
        <ele>20.8057</ele>
        <time>2013-04-21T13:43:00Z</time>
      </trkpt>
      <trkpt lat="59.8155687" lon="17.7243743">
        <ele>19.8444</ele>
        <time>2013-04-21T13:43:01Z</time>
      </trkpt>
      <trkpt lat="59.815668" lon="17.7244202">
        <ele>19.3638</ele>
        <time>2013-04-21T13:43:02Z</time>
      </trkpt>
      <trkpt lat="59.8157676" lon="17.7244691">
        <ele>18.4023</ele>
        <time>2013-04-21T13:43:03Z</time>
      </trkpt>
      <trkpt lat="59.8158675" lon="17.7245242">
        <ele>17.4412</ele>
        <time>2013-04-21T13:43:04Z</time>
      </trkpt>
      <trkpt lat="59.8159669" lon="17.7245837">
        <ele>16.4797</ele>
        <time>2013-04-21T13:43:05Z</time>
      </trkpt>
      <trkpt lat="59.816068" lon="17.7246397">
        <ele>15.5184</ele>
        <time>2013-04-21T13:43:06Z</time>
      </trkpt>
      <trkpt lat="59.8161694" lon="17.7246976">
        <ele>15.0377</ele>
        <time>2013-04-21T13:43:07Z</time>
      </trkpt>
      <trkpt lat="59.8162702" lon="17.7247573">
        <ele>14.557</ele>
        <time>2013-04-21T13:43:08Z</time>
      </trkpt>
      <trkpt lat="59.8163707" lon="17.7248169">
        <ele>13.5958</ele>
        <time>2013-04-21T13:43:09Z</time>
      </trkpt>
      <trkpt lat="59.8164705" lon="17.7248786">
        <ele>13.1151</ele>
        <time>2013-04-21T13:43:10Z</time>
      </trkpt>
      <trkpt lat="59.8165688" lon="17.7249429">
        <ele>12.6344</ele>
        <time>2013-04-21T13:43:11Z</time>
      </trkpt>
      <trkpt lat="59.8166669" lon="17.7250049">
        <ele>12.1538</ele>
        <time>2013-04-21T13:43:12Z</time>
      </trkpt>
      <trkpt lat="59.8167642" lon="17.7250662">
        <ele>11.6732</ele>
        <time>2013-04-21T13:43:13Z</time>
      </trkpt>
      <trkpt lat="59.8168599" lon="17.7251259">
        <ele>11.1925</ele>
        <time>2013-04-21T13:43:14Z</time>
      </trkpt>
      <trkpt lat="59.8169544" lon="17.7251847">
        <ele>11.1925</ele>
        <time>2013-04-21T13:43:15Z</time>
      </trkpt>
      <trkpt lat="59.8170484" lon="17.7252452">
        <ele>10.7118</ele>
        <time>2013-04-21T13:43:16Z</time>
      </trkpt>
      <trkpt lat="59.8171441" lon="17.7253075">
        <ele>10.7118</ele>
        <time>2013-04-21T13:43:17Z</time>
      </trkpt>
      <trkpt lat="59.8172385" lon="17.7253692">
        <ele>10.2312</ele>
        <time>2013-04-21T13:43:18Z</time>
      </trkpt>
      <trkpt lat="59.817332" lon="17.7254292">
        <ele>10.2312</ele>
        <time>2013-04-21T13:43:19Z</time>
      </trkpt>
      <trkpt lat="59.8174252" lon="17.7254897">
        <ele>10.2312</ele>
        <time>2013-04-21T13:43:20Z</time>
      </trkpt>
      <trkpt lat="59.8175168" lon="17.7255468">
        <ele>10.2312</ele>
        <time>2013-04-21T13:43:21Z</time>
      </trkpt>
      <trkpt lat="59.8176039" lon="17.7256037">
        <ele>9.2699</ele>
        <time>2013-04-21T13:43:22Z</time>
      </trkpt>
      <trkpt lat="59.8176899" lon="17.7256581">
        <ele>8.78918</ele>
        <time>2013-04-21T13:43:23Z</time>
      </trkpt>
      <trkpt lat="59.8177749" lon="17.7257131">
        <ele>7.82788</ele>
        <time>2013-04-21T13:43:24Z</time>
      </trkpt>
      <trkpt lat="59.8178607" lon="17.725767">
        <ele>7.82788</ele>
        <time>2013-04-21T13:43:25Z</time>
      </trkpt>
      <trkpt lat="59.8179458" lon="17.7258191">
        <ele>7.34717</ele>
        <time>2013-04-21T13:43:26Z</time>
      </trkpt>
      <trkpt lat="59.8180273" lon="17.7258752">
        <ele>6.86646</ele>
        <time>2013-04-21T13:43:27Z</time>
      </trkpt>
      <trkpt lat="59.8181088" lon="17.7259307">
        <ele>6.38586</ele>
        <time>2013-04-21T13:43:28Z</time>
      </trkpt>
      <trkpt lat="59.8181897" lon="17.7259819">
        <ele>5.90527</ele>
        <time>2013-04-21T13:43:29Z</time>
      </trkpt>
      <trkpt lat="59.8182697" lon="17.7260304">
        <ele>5.90527</ele>
        <time>2013-04-21T13:43:30Z</time>
      </trkpt>
      <trkpt lat="59.8183492" lon="17.7260778">
        <ele>5.90527</ele>
        <time>2013-04-21T13:43:31Z</time>
      </trkpt>
      <trkpt lat="59.8184274" lon="17.7261258">
        <ele>5.90527</ele>
        <time>2013-04-21T13:43:32Z</time>
      </trkpt>
      <trkpt lat="59.8185032" lon="17.7261756">
        <ele>5.90527</ele>
        <time>2013-04-21T13:43:33Z</time>
      </trkpt>
      <trkpt lat="59.8185769" lon="17.7262262">
        <ele>5.90527</ele>
        <time>2013-04-21T13:43:34Z</time>
      </trkpt>
      <trkpt lat="59.8186487" lon="17.7262755">
        <ele>5.90527</ele>
        <time>2013-04-21T13:43:35Z</time>
      </trkpt>
      <trkpt lat="59.818719" lon="17.7263211">
        <ele>5.90527</ele>
        <time>2013-04-21T13:43:36Z</time>
      </trkpt>
      <trkpt lat="59.8187881" lon="17.7263629">
        <ele>5.90527</ele>
        <time>2013-04-21T13:43:37Z</time>
      </trkpt>
      <trkpt lat="59.8188549" lon="17.7264041">
        <ele>5.42456</ele>
        <time>2013-04-21T13:43:38Z</time>
      </trkpt>
      <trkpt lat="59.8189202" lon="17.7264468">
        <ele>5.42456</ele>
        <time>2013-04-21T13:43:39Z</time>
      </trkpt>
      <trkpt lat="59.8189843" lon="17.7264901">
        <ele>5.42456</ele>
        <time>2013-04-21T13:43:40Z</time>
      </trkpt>
      <trkpt lat="59.8190479" lon="17.7265315">
        <ele>5.42456</ele>
        <time>2013-04-21T13:43:41Z</time>
      </trkpt>
      <trkpt lat="59.8191108" lon="17.7265683">
        <ele>5.90527</ele>
        <time>2013-04-21T13:43:42Z</time>
      </trkpt>
      <trkpt lat="59.819173" lon="17.7266045">
        <ele>5.90527</ele>
        <time>2013-04-21T13:43:43Z</time>
      </trkpt>
      <trkpt lat="59.8192331" lon="17.7266435">
        <ele>5.90527</ele>
        <time>2013-04-21T13:43:44Z</time>
      </trkpt>
      <trkpt lat="59.8192952" lon="17.7266807">
        <ele>6.38586</ele>
        <time>2013-04-21T13:43:45Z</time>
      </trkpt>
      <trkpt lat="59.819359" lon="17.7267154">
        <ele>6.38586</ele>
        <time>2013-04-21T13:43:46Z</time>
      </trkpt>
      <trkpt lat="59.8194247" lon="17.7267522">
        <ele>6.38586</ele>
        <time>2013-04-21T13:43:47Z</time>
      </trkpt>
      <trkpt lat="59.8194926" lon="17.7267936">
        <ele>6.38586</ele>
        <time>2013-04-21T13:43:48Z</time>
      </trkpt>
      <trkpt lat="59.8195625" lon="17.7268391">
        <ele>6.38586</ele>
        <time>2013-04-21T13:43:49Z</time>
      </trkpt>
      <trkpt lat="59.8196328" lon="17.7268863">
        <ele>5.90527</ele>
        <time>2013-04-21T13:43:50Z</time>
      </trkpt>
      <trkpt lat="59.8197044" lon="17.7269329">
        <ele>5.90527</ele>
        <time>2013-04-21T13:43:51Z</time>
      </trkpt>
      <trkpt lat="59.8197785" lon="17.72698">
        <ele>5.90527</ele>
        <time>2013-04-21T13:43:52Z</time>
      </trkpt>
      <trkpt lat="59.8198547" lon="17.7270273">
        <ele>5.90527</ele>
        <time>2013-04-21T13:43:53Z</time>
      </trkpt>
      <trkpt lat="59.8199308" lon="17.7270743">
        <ele>5.90527</ele>
        <time>2013-04-21T13:43:54Z</time>
      </trkpt>
      <trkpt lat="59.8200081" lon="17.7271213">
        <ele>5.42456</ele>
        <time>2013-04-21T13:43:55Z</time>
      </trkpt>
      <trkpt lat="59.8200862" lon="17.7271713">
        <ele>5.42456</ele>
        <time>2013-04-21T13:43:56Z</time>
      </trkpt>
      <trkpt lat="59.8201659" lon="17.7272226">
        <ele>5.42456</ele>
        <time>2013-04-21T13:43:57Z</time>
      </trkpt>
      <trkpt lat="59.8202463" lon="17.7272703">
        <ele>5.42456</ele>
        <time>2013-04-21T13:43:58Z</time>
      </trkpt>
      <trkpt lat="59.8203283" lon="17.7273174">
        <ele>5.42456</ele>
        <time>2013-04-21T13:43:59Z</time>
      </trkpt>
      <trkpt lat="59.82041" lon="17.727367">
        <ele>4.94385</ele>
        <time>2013-04-21T13:44:00Z</time>
      </trkpt>
      <trkpt lat="59.8204925" lon="17.7274189">
        <ele>5.42456</ele>
        <time>2013-04-21T13:44:01Z</time>
      </trkpt>
      <trkpt lat="59.8205752" lon="17.7274707">
        <ele>5.42456</ele>
        <time>2013-04-21T13:44:02Z</time>
      </trkpt>
      <trkpt lat="59.820658" lon="17.7275224">
        <ele>4.94385</ele>
        <time>2013-04-21T13:44:03Z</time>
      </trkpt>
      <trkpt lat="59.8207409" lon="17.7275753">
        <ele>4.94385</ele>
        <time>2013-04-21T13:44:04Z</time>
      </trkpt>
      <trkpt lat="59.8208252" lon="17.7276277">
        <ele>5.42456</ele>
        <time>2013-04-21T13:44:05Z</time>
      </trkpt>
      <trkpt lat="59.8209095" lon="17.72768">
        <ele>5.42456</ele>
        <time>2013-04-21T13:44:06Z</time>
      </trkpt>
      <trkpt lat="59.8209934" lon="17.7277333">
        <ele>5.42456</ele>
        <time>2013-04-21T13:44:07Z</time>
      </trkpt>
      <trkpt lat="59.8210777" lon="17.7277855">
        <ele>5.42456</ele>
        <time>2013-04-21T13:44:08Z</time>
      </trkpt>
      <trkpt lat="59.8211614" lon="17.7278357">
        <ele>5.42456</ele>
        <time>2013-04-21T13:44:09Z</time>
      </trkpt>
      <trkpt lat="59.821243" lon="17.7278859">
        <ele>5.42456</ele>
        <time>2013-04-21T13:44:10Z</time>
      </trkpt>
      <trkpt lat="59.8213241" lon="17.7279359">
        <ele>5.90527</ele>
        <time>2013-04-21T13:44:11Z</time>
      </trkpt>
      <trkpt lat="59.821406" lon="17.7279865">
        <ele>5.90527</ele>
        <time>2013-04-21T13:44:12Z</time>
      </trkpt>
      <trkpt lat="59.8214867" lon="17.7280379">
        <ele>5.90527</ele>
        <time>2013-04-21T13:44:13Z</time>
      </trkpt>
      <trkpt lat="59.8215672" lon="17.7280887">
        <ele>5.90527</ele>
        <time>2013-04-21T13:44:14Z</time>
      </trkpt>
      <trkpt lat="59.8216486" lon="17.7281387">
        <ele>6.38586</ele>
        <time>2013-04-21T13:44:15Z</time>
      </trkpt>
      <trkpt lat="59.8217308" lon="17.7281882">
        <ele>6.38586</ele>
        <time>2013-04-21T13:44:16Z</time>
      </trkpt>
      <trkpt lat="59.8218124" lon="17.7282377">
        <ele>6.38586</ele>
        <time>2013-04-21T13:44:17Z</time>
      </trkpt>
      <trkpt lat="59.8218942" lon="17.7282869">
        <ele>6.86646</ele>
        <time>2013-04-21T13:44:18Z</time>
      </trkpt>
      <trkpt lat="59.8219768" lon="17.7283373">
        <ele>6.86646</ele>
        <time>2013-04-21T13:44:19Z</time>
      </trkpt>
      <trkpt lat="59.8220581" lon="17.7283894">
        <ele>6.86646</ele>
        <time>2013-04-21T13:44:20Z</time>
      </trkpt>
      <trkpt lat="59.8221396" lon="17.7284422">
        <ele>7.34717</ele>
        <time>2013-04-21T13:44:21Z</time>
      </trkpt>
      <trkpt lat="59.822221" lon="17.7284923">
        <ele>7.34717</ele>
        <time>2013-04-21T13:44:22Z</time>
      </trkpt>
      <trkpt lat="59.8223021" lon="17.728541">
        <ele>7.34717</ele>
        <time>2013-04-21T13:44:23Z</time>
      </trkpt>
      <trkpt lat="59.8223829" lon="17.7285906">
        <ele>7.34717</ele>
        <time>2013-04-21T13:44:24Z</time>
      </trkpt>
      <trkpt lat="59.8224644" lon="17.7286404">
        <ele>7.34717</ele>
        <time>2013-04-21T13:44:25Z</time>
      </trkpt>
      <trkpt lat="59.8225443" lon="17.7286926">
        <ele>7.34717</ele>
        <time>2013-04-21T13:44:26Z</time>
      </trkpt>
      <trkpt lat="59.8226225" lon="17.7287464">
        <ele>7.34717</ele>
        <time>2013-04-21T13:44:27Z</time>
      </trkpt>
      <trkpt lat="59.8227001" lon="17.7288003">
        <ele>7.34717</ele>
        <time>2013-04-21T13:44:28Z</time>
      </trkpt>
      <trkpt lat="59.8227769" lon="17.7288585">
        <ele>7.34717</ele>
        <time>2013-04-21T13:44:29Z</time>
      </trkpt>
      <trkpt lat="59.8228525" lon="17.7289233">
        <ele>7.34717</ele>
        <time>2013-04-21T13:44:30Z</time>
      </trkpt>
      <trkpt lat="59.8229264" lon="17.7289936">
        <ele>7.34717</ele>
        <time>2013-04-21T13:44:31Z</time>
      </trkpt>
      <trkpt lat="59.8229993" lon="17.7290696">
        <ele>7.82788</ele>
        <time>2013-04-21T13:44:32Z</time>
      </trkpt>
      <trkpt lat="59.8230711" lon="17.729151">
        <ele>7.82788</ele>
        <time>2013-04-21T13:44:33Z</time>
      </trkpt>
      <trkpt lat="59.8231424" lon="17.729235">
        <ele>7.82788</ele>
        <time>2013-04-21T13:44:34Z</time>
      </trkpt>
      <trkpt lat="59.8232124" lon="17.7293225">
        <ele>7.82788</ele>
        <time>2013-04-21T13:44:35Z</time>
      </trkpt>
      <trkpt lat="59.8232814" lon="17.7294157">
        <ele>7.82788</ele>
        <time>2013-04-21T13:44:36Z</time>
      </trkpt>
      <trkpt lat="59.823349" lon="17.7295091">
        <ele>7.82788</ele>
        <time>2013-04-21T13:44:37Z</time>
      </trkpt>
      <trkpt lat="59.8234164" lon="17.729602">
        <ele>7.82788</ele>
        <time>2013-04-21T13:44:38Z</time>
      </trkpt>
      <trkpt lat="59.823484" lon="17.7296919">
        <ele>7.82788</ele>
        <time>2013-04-21T13:44:39Z</time>
      </trkpt>
      <trkpt lat="59.8235522" lon="17.7297805">
        <ele>7.82788</ele>
        <time>2013-04-21T13:44:40Z</time>
      </trkpt>
      <trkpt lat="59.8236199" lon="17.7298675">
        <ele>8.30859</ele>
        <time>2013-04-21T13:44:41Z</time>
      </trkpt>
      <trkpt lat="59.8236859" lon="17.7299577">
        <ele>8.30859</ele>
        <time>2013-04-21T13:44:42Z</time>
      </trkpt>
      <trkpt lat="59.8237517" lon="17.730047">
        <ele>8.30859</ele>
        <time>2013-04-21T13:44:43Z</time>
      </trkpt>
      <trkpt lat="59.8238179" lon="17.7301338">
        <ele>8.30859</ele>
        <time>2013-04-21T13:44:44Z</time>
      </trkpt>
      <trkpt lat="59.8238833" lon="17.7302207">
        <ele>8.30859</ele>
        <time>2013-04-21T13:44:45Z</time>
      </trkpt>
      <trkpt lat="59.8239481" lon="17.7303076">
        <ele>8.30859</ele>
        <time>2013-04-21T13:44:46Z</time>
      </trkpt>
      <trkpt lat="59.8240128" lon="17.7303954">
        <ele>8.78918</ele>
        <time>2013-04-21T13:44:47Z</time>
      </trkpt>
      <trkpt lat="59.8240775" lon="17.7304847">
        <ele>8.78918</ele>
        <time>2013-04-21T13:44:48Z</time>
      </trkpt>
      <trkpt lat="59.8241423" lon="17.7305699">
        <ele>8.78918</ele>
        <time>2013-04-21T13:44:49Z</time>
      </trkpt>
      <trkpt lat="59.8242084" lon="17.7306526">
        <ele>8.78918</ele>
        <time>2013-04-21T13:44:50Z</time>
      </trkpt>
      <trkpt lat="59.8242718" lon="17.7307365">
        <ele>9.2699</ele>
        <time>2013-04-21T13:44:51Z</time>
      </trkpt>
      <trkpt lat="59.8243339" lon="17.7308201">
        <ele>9.2699</ele>
        <time>2013-04-21T13:44:52Z</time>
      </trkpt>
      <trkpt lat="59.8243957" lon="17.7309045">
        <ele>9.2699</ele>
        <time>2013-04-21T13:44:53Z</time>
      </trkpt>
      <trkpt lat="59.8244582" lon="17.7309934">
        <ele>9.75061</ele>
        <time>2013-04-21T13:44:54Z</time>
      </trkpt>
      <trkpt lat="59.8245193" lon="17.7310838">
        <ele>10.2312</ele>
        <time>2013-04-21T13:44:55Z</time>
      </trkpt>
      <trkpt lat="59.8245788" lon="17.7311747">
        <ele>10.2312</ele>
        <time>2013-04-21T13:44:56Z</time>
      </trkpt>
      <trkpt lat="59.8246359" lon="17.7312659">
        <ele>10.2312</ele>
        <time>2013-04-21T13:44:57Z</time>
      </trkpt>
      <trkpt lat="59.8246909" lon="17.7313571">
        <ele>10.2312</ele>
        <time>2013-04-21T13:44:58Z</time>
      </trkpt>
      <trkpt lat="59.8247443" lon="17.7314472">
        <ele>10.2312</ele>
        <time>2013-04-21T13:44:59Z</time>
      </trkpt>
      <trkpt lat="59.8247986" lon="17.7315304">
        <ele>10.2312</ele>
        <time>2013-04-21T13:45:00Z</time>
      </trkpt>
      <trkpt lat="59.8248575" lon="17.7315971">
        <ele>10.2312</ele>
        <time>2013-04-21T13:45:01Z</time>
      </trkpt>
      <trkpt lat="59.8249212" lon="17.7316354">
        <ele>10.2312</ele>
        <time>2013-04-21T13:45:02Z</time>
      </trkpt>
      <trkpt lat="59.8249856" lon="17.7316375">
        <ele>10.7118</ele>
        <time>2013-04-21T13:45:03Z</time>
      </trkpt>
      <trkpt lat="59.8250483" lon="17.7316078">
        <ele>10.7118</ele>
        <time>2013-04-21T13:45:04Z</time>
      </trkpt>
      <trkpt lat="59.8251079" lon="17.7315546">
        <ele>10.7118</ele>
        <time>2013-04-21T13:45:05Z</time>
      </trkpt>
      <trkpt lat="59.8251646" lon="17.7314868">
        <ele>10.2312</ele>
        <time>2013-04-21T13:45:06Z</time>
      </trkpt>
      <trkpt lat="59.8252203" lon="17.7314111">
        <ele>10.7118</ele>
        <time>2013-04-21T13:45:07Z</time>
      </trkpt>
      <trkpt lat="59.8252747" lon="17.7313375">
        <ele>10.7118</ele>
        <time>2013-04-21T13:45:08Z</time>
      </trkpt>
      <trkpt lat="59.8253293" lon="17.7312613">
        <ele>10.2312</ele>
        <time>2013-04-21T13:45:09Z</time>
      </trkpt>
      <trkpt lat="59.8253839" lon="17.7311853">
        <ele>10.2312</ele>
        <time>2013-04-21T13:45:10Z</time>
      </trkpt>
      <trkpt lat="59.8254388" lon="17.7311098">
        <ele>10.2312</ele>
        <time>2013-04-21T13:45:11Z</time>
      </trkpt>
      <trkpt lat="59.8254935" lon="17.7310356">
        <ele>10.2312</ele>
        <time>2013-04-21T13:45:12Z</time>
      </trkpt>
      <trkpt lat="59.8255469" lon="17.730961">
        <ele>10.2312</ele>
        <time>2013-04-21T13:45:13Z</time>
      </trkpt>
      <trkpt lat="59.8256003" lon="17.7308898">
        <ele>10.2312</ele>
        <time>2013-04-21T13:45:14Z</time>
      </trkpt>
      <trkpt lat="59.8256569" lon="17.7308393">
        <ele>10.7118</ele>
        <time>2013-04-21T13:45:15Z</time>
      </trkpt>
      <trkpt lat="59.8257181" lon="17.7308292">
        <ele>10.2312</ele>
        <time>2013-04-21T13:45:16Z</time>
      </trkpt>
      <trkpt lat="59.82578" lon="17.7308749">
        <ele>10.7118</ele>
        <time>2013-04-21T13:45:17Z</time>
      </trkpt>
      <trkpt lat="59.8258263" lon="17.7309682">
        <ele>10.2312</ele>
        <time>2013-04-21T13:45:18Z</time>
      </trkpt>
      <trkpt lat="59.8258594" lon="17.7310848">
        <ele>10.2312</ele>
        <time>2013-04-21T13:45:19Z</time>
      </trkpt>
      <trkpt lat="59.8258885" lon="17.7312096">
        <ele>10.2312</ele>
        <time>2013-04-21T13:45:20Z</time>
      </trkpt>
      <trkpt lat="59.8259195" lon="17.7313353">
        <ele>10.2312</ele>
        <time>2013-04-21T13:45:21Z</time>
      </trkpt>
      <trkpt lat="59.825952" lon="17.7314629">
        <ele>10.2312</ele>
        <time>2013-04-21T13:45:22Z</time>
      </trkpt>
      <trkpt lat="59.8259854" lon="17.7315915">
        <ele>10.2312</ele>
        <time>2013-04-21T13:45:23Z</time>
      </trkpt>
      <trkpt lat="59.8260194" lon="17.7317193">
        <ele>10.7118</ele>
        <time>2013-04-21T13:45:24Z</time>
      </trkpt>
      <trkpt lat="59.8260532" lon="17.7318469">
        <ele>10.7118</ele>
        <time>2013-04-21T13:45:25Z</time>
      </trkpt>
      <trkpt lat="59.8260884" lon="17.7319745">
        <ele>10.7118</ele>
        <time>2013-04-21T13:45:26Z</time>
      </trkpt>
      <trkpt lat="59.8261257" lon="17.7321022">
        <ele>10.7118</ele>
        <time>2013-04-21T13:45:27Z</time>
      </trkpt>
      <trkpt lat="59.8261644" lon="17.7322307">
        <ele>10.7118</ele>
        <time>2013-04-21T13:45:28Z</time>
      </trkpt>
      <trkpt lat="59.8262029" lon="17.7323601">
        <ele>11.1925</ele>
        <time>2013-04-21T13:45:29Z</time>
      </trkpt>
      <trkpt lat="59.8262421" lon="17.7324906">
        <ele>11.1925</ele>
        <time>2013-04-21T13:45:30Z</time>
      </trkpt>
      <trkpt lat="59.8262832" lon="17.7326212">
        <ele>11.6732</ele>
        <time>2013-04-21T13:45:31Z</time>
      </trkpt>
      <trkpt lat="59.8263262" lon="17.7327512">
        <ele>11.6732</ele>
        <time>2013-04-21T13:45:32Z</time>
      </trkpt>
      <trkpt lat="59.8263713" lon="17.7328782">
        <ele>12.1538</ele>
        <time>2013-04-21T13:45:33Z</time>
      </trkpt>
      <trkpt lat="59.8264174" lon="17.7330015">
        <ele>12.1538</ele>
        <time>2013-04-21T13:45:34Z</time>
      </trkpt>
      <trkpt lat="59.8264645" lon="17.7331202">
        <ele>12.1538</ele>
        <time>2013-04-21T13:45:35Z</time>
      </trkpt>
      <trkpt lat="59.8265111" lon="17.7332375">
        <ele>12.6344</ele>
        <time>2013-04-21T13:45:36Z</time>
      </trkpt>
      <trkpt lat="59.8265578" lon="17.7333555">
        <ele>12.6344</ele>
        <time>2013-04-21T13:45:37Z</time>
      </trkpt>
      <trkpt lat="59.8266063" lon="17.7334723">
        <ele>12.6344</ele>
        <time>2013-04-21T13:45:38Z</time>
      </trkpt>
      <trkpt lat="59.8266562" lon="17.7335866">
        <ele>12.6344</ele>
        <time>2013-04-21T13:45:39Z</time>
      </trkpt>
      <trkpt lat="59.8267076" lon="17.7336982">
        <ele>13.1151</ele>
        <time>2013-04-21T13:45:40Z</time>
      </trkpt>
      <trkpt lat="59.8267598" lon="17.7338096">
        <ele>13.1151</ele>
        <time>2013-04-21T13:45:41Z</time>
      </trkpt>
      <trkpt lat="59.8268114" lon="17.7339223">
        <ele>13.1151</ele>
        <time>2013-04-21T13:45:42Z</time>
      </trkpt>
      <trkpt lat="59.8268628" lon="17.7340352">
        <ele>13.5958</ele>
        <time>2013-04-21T13:45:43Z</time>
      </trkpt>
      <trkpt lat="59.826914" lon="17.7341473">
        <ele>13.5958</ele>
        <time>2013-04-21T13:45:44Z</time>
      </trkpt>
      <trkpt lat="59.8269659" lon="17.7342587">
        <ele>13.5958</ele>
        <time>2013-04-21T13:45:45Z</time>
      </trkpt>
      <trkpt lat="59.8270182" lon="17.7343712">
        <ele>14.0764</ele>
        <time>2013-04-21T13:45:46Z</time>
      </trkpt>
      <trkpt lat="59.82707" lon="17.7344841">
        <ele>14.0764</ele>
        <time>2013-04-21T13:45:47Z</time>
      </trkpt>
      <trkpt lat="59.8271211" lon="17.7345954">
        <ele>14.557</ele>
        <time>2013-04-21T13:45:48Z</time>
      </trkpt>
      <trkpt lat="59.8271716" lon="17.7347045">
        <ele>14.557</ele>
        <time>2013-04-21T13:45:49Z</time>
      </trkpt>
      <trkpt lat="59.8272218" lon="17.7348134">
        <ele>14.557</ele>
        <time>2013-04-21T13:45:50Z</time>
      </trkpt>
      <trkpt lat="59.827271" lon="17.7349234">
        <ele>14.557</ele>
        <time>2013-04-21T13:45:51Z</time>
      </trkpt>
      <trkpt lat="59.8273195" lon="17.7350346">
        <ele>14.557</ele>
        <time>2013-04-21T13:45:52Z</time>
      </trkpt>
      <trkpt lat="59.8273673" lon="17.7351455">
        <ele>14.557</ele>
        <time>2013-04-21T13:45:53Z</time>
      </trkpt>
      <trkpt lat="59.8274154" lon="17.7352557">
        <ele>14.557</ele>
        <time>2013-04-21T13:45:54Z</time>
      </trkpt>
      <trkpt lat="59.8274653" lon="17.7353642">
        <ele>14.557</ele>
        <time>2013-04-21T13:45:55Z</time>
      </trkpt>
      <trkpt lat="59.8275158" lon="17.7354728">
        <ele>15.0377</ele>
        <time>2013-04-21T13:45:56Z</time>
      </trkpt>
      <trkpt lat="59.8275663" lon="17.735583">
        <ele>15.0377</ele>
        <time>2013-04-21T13:45:57Z</time>
      </trkpt>
      <trkpt lat="59.8276179" lon="17.7356939">
        <ele>15.0377</ele>
        <time>2013-04-21T13:45:58Z</time>
      </trkpt>
      <trkpt lat="59.82767" lon="17.7358054">
        <ele>15.0377</ele>
        <time>2013-04-21T13:45:59Z</time>
      </trkpt>
      <trkpt lat="59.8277226" lon="17.7359185">
        <ele>15.0377</ele>
        <time>2013-04-21T13:46:00Z</time>
      </trkpt>
      <trkpt lat="59.8277751" lon="17.7360331">
        <ele>15.5184</ele>
        <time>2013-04-21T13:46:01Z</time>
      </trkpt>
      <trkpt lat="59.827827" lon="17.7361502">
        <ele>15.5184</ele>
        <time>2013-04-21T13:46:02Z</time>
      </trkpt>
      <trkpt lat="59.8278805" lon="17.7362678">
        <ele>15.5184</ele>
        <time>2013-04-21T13:46:03Z</time>
      </trkpt>
      <trkpt lat="59.8279361" lon="17.7363846">
        <ele>15.5184</ele>
        <time>2013-04-21T13:46:04Z</time>
      </trkpt>
      <trkpt lat="59.8279927" lon="17.7364997">
        <ele>15.5184</ele>
        <time>2013-04-21T13:46:05Z</time>
      </trkpt>
      <trkpt lat="59.8280497" lon="17.7366171">
        <ele>15.0377</ele>
        <time>2013-04-21T13:46:06Z</time>
      </trkpt>
      <trkpt lat="59.8281066" lon="17.7367359">
        <ele>14.557</ele>
        <time>2013-04-21T13:46:07Z</time>
      </trkpt>
      <trkpt lat="59.8281621" lon="17.7368589">
        <ele>14.0764</ele>
        <time>2013-04-21T13:46:08Z</time>
      </trkpt>
      <trkpt lat="59.8282198" lon="17.7369827">
        <ele>13.1151</ele>
        <time>2013-04-21T13:46:09Z</time>
      </trkpt>
      <trkpt lat="59.8282779" lon="17.7371103">
        <ele>12.6344</ele>
        <time>2013-04-21T13:46:10Z</time>
      </trkpt>
      <trkpt lat="59.8283395" lon="17.7372357">
        <ele>12.6344</ele>
        <time>2013-04-21T13:46:11Z</time>
      </trkpt>
      <trkpt lat="59.8284024" lon="17.7373608">
        <ele>12.6344</ele>
        <time>2013-04-21T13:46:12Z</time>
      </trkpt>
      <trkpt lat="59.8284675" lon="17.7374859">
        <ele>12.6344</ele>
        <time>2013-04-21T13:46:13Z</time>
      </trkpt>
      <trkpt lat="59.8285361" lon="17.7376086">
        <ele>12.6344</ele>
        <time>2013-04-21T13:46:14Z</time>
      </trkpt>
      <trkpt lat="59.828608" lon="17.7377266">
        <ele>13.1151</ele>
        <time>2013-04-21T13:46:15Z</time>
      </trkpt>
      <trkpt lat="59.8286821" lon="17.7378416">
        <ele>13.1151</ele>
        <time>2013-04-21T13:46:16Z</time>
      </trkpt>
      <trkpt lat="59.8287571" lon="17.7379588">
        <ele>13.1151</ele>
        <time>2013-04-21T13:46:17Z</time>
      </trkpt>
      <trkpt lat="59.8288323" lon="17.7380748">
        <ele>13.1151</ele>
        <time>2013-04-21T13:46:18Z</time>
      </trkpt>
      <trkpt lat="59.8289095" lon="17.7381898">
        <ele>13.1151</ele>
        <time>2013-04-21T13:46:19Z</time>
      </trkpt>
      <trkpt lat="59.8289882" lon="17.7383131">
        <ele>13.1151</ele>
        <time>2013-04-21T13:46:20Z</time>
      </trkpt>
      <trkpt lat="59.8290685" lon="17.7384412">
        <ele>13.5958</ele>
        <time>2013-04-21T13:46:21Z</time>
      </trkpt>
      <trkpt lat="59.8291488" lon="17.7385695">
        <ele>14.0764</ele>
        <time>2013-04-21T13:46:22Z</time>
      </trkpt>
      <trkpt lat="59.8292187" lon="17.7386852">
        <ele>14.557</ele>
        <time>2013-04-21T13:46:23Z</time>
      </trkpt>
      <trkpt lat="59.8292834" lon="17.7387877">
        <ele>14.557</ele>
        <time>2013-04-21T13:46:24Z</time>
      </trkpt>
      <trkpt lat="59.8293463" lon="17.7388798">
        <ele>14.557</ele>
        <time>2013-04-21T13:46:25Z</time>
      </trkpt>
      <trkpt lat="59.8294078" lon="17.7389683">
        <ele>14.0764</ele>
        <time>2013-04-21T13:46:26Z</time>
      </trkpt>
      <trkpt lat="59.8294765" lon="17.7390477">
        <ele>14.557</ele>
        <time>2013-04-21T13:46:27Z</time>
      </trkpt>
      <trkpt lat="59.8295467" lon="17.7391311">
        <ele>15.0377</ele>
        <time>2013-04-21T13:46:28Z</time>
      </trkpt>
      <trkpt lat="59.8296161" lon="17.7392144">
        <ele>15.5184</ele>
        <time>2013-04-21T13:46:29Z</time>
      </trkpt>
      <trkpt lat="59.8296848" lon="17.7392973">
        <ele>15.5184</ele>
        <time>2013-04-21T13:46:30Z</time>
      </trkpt>
      <trkpt lat="59.8297534" lon="17.7393776">
        <ele>15.5184</ele>
        <time>2013-04-21T13:46:31Z</time>
      </trkpt>
      <trkpt lat="59.8298222" lon="17.7394548">
        <ele>15.5184</ele>
        <time>2013-04-21T13:46:32Z</time>
      </trkpt>
      <trkpt lat="59.8298915" lon="17.7395289">
        <ele>15.999</ele>
        <time>2013-04-21T13:46:33Z</time>
      </trkpt>
      <trkpt lat="59.8299603" lon="17.7395998">
        <ele>15.999</ele>
        <time>2013-04-21T13:46:34Z</time>
      </trkpt>
      <trkpt lat="59.8300304" lon="17.7396678">
        <ele>15.999</ele>
        <time>2013-04-21T13:46:35Z</time>
      </trkpt>
      <trkpt lat="59.8301003" lon="17.7397345">
        <ele>15.999</ele>
        <time>2013-04-21T13:46:36Z</time>
      </trkpt>
      <trkpt lat="59.8301698" lon="17.7398017">
        <ele>15.999</ele>
        <time>2013-04-21T13:46:37Z</time>
      </trkpt>
      <trkpt lat="59.8302395" lon="17.7398686">
        <ele>16.4797</ele>
        <time>2013-04-21T13:46:38Z</time>
      </trkpt>
      <trkpt lat="59.8303038" lon="17.7399314">
        <ele>16.9604</ele>
        <time>2013-04-21T13:46:39Z</time>
      </trkpt>
      <trkpt lat="59.8303647" lon="17.7399914">
        <ele>16.9604</ele>
        <time>2013-04-21T13:46:40Z</time>
      </trkpt>
      <trkpt lat="59.8304242" lon="17.7400501">
        <ele>17.4412</ele>
        <time>2013-04-21T13:46:41Z</time>
      </trkpt>
      <trkpt lat="59.8304805" lon="17.7401097">
        <ele>17.9218</ele>
        <time>2013-04-21T13:46:42Z</time>
      </trkpt>
      <trkpt lat="59.8305278" lon="17.7401702">
        <ele>17.4412</ele>
        <time>2013-04-21T13:46:43Z</time>
      </trkpt>
      <trkpt lat="59.8305789" lon="17.740225">
        <ele>17.4412</ele>
        <time>2013-04-21T13:46:44Z</time>
      </trkpt>
      <trkpt lat="59.8306303" lon="17.7402764">
        <ele>17.4412</ele>
        <time>2013-04-21T13:46:45Z</time>
      </trkpt>
      <trkpt lat="59.8306812" lon="17.7403264">
        <ele>17.4412</ele>
        <time>2013-04-21T13:46:46Z</time>
      </trkpt>
      <trkpt lat="59.8307261" lon="17.7403773">
        <ele>16.4797</ele>
        <time>2013-04-21T13:46:47Z</time>
      </trkpt>
      <trkpt lat="59.8307719" lon="17.7404276">
        <ele>15.999</ele>
        <time>2013-04-21T13:46:48Z</time>
      </trkpt>
      <trkpt lat="59.8308247" lon="17.7404764">
        <ele>16.4797</ele>
        <time>2013-04-21T13:46:49Z</time>
      </trkpt>
      <trkpt lat="59.8308754" lon="17.7405249">
        <ele>16.9604</ele>
        <time>2013-04-21T13:46:50Z</time>
      </trkpt>
      <trkpt lat="59.8309223" lon="17.7405715">
        <ele>16.9604</ele>
        <time>2013-04-21T13:46:51Z</time>
      </trkpt>
      <trkpt lat="59.8309722" lon="17.7406156">
        <ele>17.4412</ele>
        <time>2013-04-21T13:46:52Z</time>
      </trkpt>
      <trkpt lat="59.83102" lon="17.7406617">
        <ele>17.9218</ele>
        <time>2013-04-21T13:46:53Z</time>
      </trkpt>
      <trkpt lat="59.8310649" lon="17.7407105">
        <ele>17.9218</ele>
        <time>2013-04-21T13:46:54Z</time>
      </trkpt>
      <trkpt lat="59.8311091" lon="17.7407619">
        <ele>17.9218</ele>
        <time>2013-04-21T13:46:55Z</time>
      </trkpt>
      <trkpt lat="59.8311521" lon="17.7408149">
        <ele>17.9218</ele>
        <time>2013-04-21T13:46:56Z</time>
      </trkpt>
      <trkpt lat="59.8311937" lon="17.7408706">
        <ele>17.9218</ele>
        <time>2013-04-21T13:46:57Z</time>
      </trkpt>
      <trkpt lat="59.8312368" lon="17.7409243">
        <ele>17.9218</ele>
        <time>2013-04-21T13:46:58Z</time>
      </trkpt>
      <trkpt lat="59.8312803" lon="17.7409747">
        <ele>17.9218</ele>
        <time>2013-04-21T13:46:59Z</time>
      </trkpt>
      <trkpt lat="59.8313246" lon="17.7410266">
        <ele>17.9218</ele>
        <time>2013-04-21T13:47:00Z</time>
      </trkpt>
      <trkpt lat="59.831368" lon="17.7410792">
        <ele>18.4023</ele>
        <time>2013-04-21T13:47:01Z</time>
      </trkpt>
      <trkpt lat="59.8314105" lon="17.7411315">
        <ele>18.4023</ele>
        <time>2013-04-21T13:47:02Z</time>
      </trkpt>
      <trkpt lat="59.831452" lon="17.7411848">
        <ele>18.4023</ele>
        <time>2013-04-21T13:47:03Z</time>
      </trkpt>
      <trkpt lat="59.8314937" lon="17.7412413">
        <ele>18.8831</ele>
        <time>2013-04-21T13:47:04Z</time>
      </trkpt>
      <trkpt lat="59.8315347" lon="17.7413019">
        <ele>18.8831</ele>
        <time>2013-04-21T13:47:05Z</time>
      </trkpt>
      <trkpt lat="59.8315731" lon="17.7413625">
        <ele>18.8831</ele>
        <time>2013-04-21T13:47:06Z</time>
      </trkpt>
      <trkpt lat="59.8316125" lon="17.7414201">
        <ele>18.8831</ele>
        <time>2013-04-21T13:47:07Z</time>
      </trkpt>
      <trkpt lat="59.8316522" lon="17.7414786">
        <ele>18.8831</ele>
        <time>2013-04-21T13:47:08Z</time>
      </trkpt>
      <trkpt lat="59.8316927" lon="17.7415356">
        <ele>18.8831</ele>
        <time>2013-04-21T13:47:09Z</time>
      </trkpt>
      <trkpt lat="59.831734" lon="17.7415961">
        <ele>18.8831</ele>
        <time>2013-04-21T13:47:10Z</time>
      </trkpt>
      <trkpt lat="59.8317751" lon="17.741661">
        <ele>19.3638</ele>
        <time>2013-04-21T13:47:11Z</time>
      </trkpt>
      <trkpt lat="59.8318161" lon="17.7417282">
        <ele>19.3638</ele>
        <time>2013-04-21T13:47:12Z</time>
      </trkpt>
      <trkpt lat="59.8318575" lon="17.7417967">
        <ele>19.3638</ele>
        <time>2013-04-21T13:47:13Z</time>
      </trkpt>
      <trkpt lat="59.8318964" lon="17.7418677">
        <ele>19.3638</ele>
        <time>2013-04-21T13:47:14Z</time>
      </trkpt>
      <trkpt lat="59.8319342" lon="17.7419402">
        <ele>18.8831</ele>
        <time>2013-04-21T13:47:15Z</time>
      </trkpt>
      <trkpt lat="59.831972" lon="17.7420102">
        <ele>18.8831</ele>
        <time>2013-04-21T13:47:16Z</time>
      </trkpt>
      <trkpt lat="59.8320088" lon="17.742078">
        <ele>19.3638</ele>
        <time>2013-04-21T13:47:17Z</time>
      </trkpt>
      <trkpt lat="59.832037" lon="17.7421465">
        <ele>19.3638</ele>
        <time>2013-04-21T13:47:18Z</time>
      </trkpt>
      <trkpt lat="59.8320657" lon="17.7422096">
        <ele>18.8831</ele>
        <time>2013-04-21T13:47:19Z</time>
      </trkpt>
      <trkpt lat="59.8320962" lon="17.7422667">
        <ele>19.3638</ele>
        <time>2013-04-21T13:47:20Z</time>
      </trkpt>
      <trkpt lat="59.8321243" lon="17.7423354">
        <ele>19.3638</ele>
        <time>2013-04-21T13:47:21Z</time>
      </trkpt>
      <trkpt lat="59.8321532" lon="17.7424128">
        <ele>18.4023</ele>
        <time>2013-04-21T13:47:22Z</time>
      </trkpt>
      <trkpt lat="59.8321845" lon="17.7424907">
        <ele>18.4023</ele>
        <time>2013-04-21T13:47:23Z</time>
      </trkpt>
      <trkpt lat="59.8322124" lon="17.7425653">
        <ele>17.9218</ele>
        <time>2013-04-21T13:47:24Z</time>
      </trkpt>
      <trkpt lat="59.8322398" lon="17.7426374">
        <ele>17.4412</ele>
        <time>2013-04-21T13:47:25Z</time>
      </trkpt>
      <trkpt lat="59.8322667" lon="17.7427106">
        <ele>16.9604</ele>
        <time>2013-04-21T13:47:26Z</time>
      </trkpt>
      <trkpt lat="59.8322973" lon="17.7427872">
        <ele>16.9604</ele>
        <time>2013-04-21T13:47:27Z</time>
      </trkpt>
      <trkpt lat="59.8323247" lon="17.7428638">
        <ele>16.9604</ele>
        <time>2013-04-21T13:47:28Z</time>
      </trkpt>
      <trkpt lat="59.832353" lon="17.7429421">
        <ele>16.9604</ele>
        <time>2013-04-21T13:47:29Z</time>
      </trkpt>
      <trkpt lat="59.8323786" lon="17.7430238">
        <ele>16.9604</ele>
        <time>2013-04-21T13:47:30Z</time>
      </trkpt>
      <trkpt lat="59.8324048" lon="17.7431073">
        <ele>16.9604</ele>
        <time>2013-04-21T13:47:31Z</time>
      </trkpt>
      <trkpt lat="59.8324307" lon="17.7431884">
        <ele>16.4797</ele>
        <time>2013-04-21T13:47:32Z</time>
      </trkpt>
      <trkpt lat="59.8324597" lon="17.7432674">
        <ele>15.999</ele>
        <time>2013-04-21T13:47:33Z</time>
      </trkpt>
      <trkpt lat="59.8324952" lon="17.7433445">
        <ele>16.9604</ele>
        <time>2013-04-21T13:47:34Z</time>
      </trkpt>
      <trkpt lat="59.8325357" lon="17.7434104">
        <ele>16.9604</ele>
        <time>2013-04-21T13:47:35Z</time>
      </trkpt>
      <trkpt lat="59.8325813" lon="17.7434744">
        <ele>17.4412</ele>
        <time>2013-04-21T13:47:36Z</time>
      </trkpt>
      <trkpt lat="59.8326315" lon="17.7435287">
        <ele>17.4412</ele>
        <time>2013-04-21T13:47:37Z</time>
      </trkpt>
      <trkpt lat="59.8326814" lon="17.7435868">
        <ele>17.9218</ele>
        <time>2013-04-21T13:47:38Z</time>
      </trkpt>
      <trkpt lat="59.8327266" lon="17.7436559">
        <ele>17.9218</ele>
        <time>2013-04-21T13:47:39Z</time>
      </trkpt>
      <trkpt lat="59.8327737" lon="17.7437214">
        <ele>17.4412</ele>
        <time>2013-04-21T13:47:40Z</time>
      </trkpt>
      <trkpt lat="59.8328286" lon="17.7437846">
        <ele>17.9218</ele>
        <time>2013-04-21T13:47:41Z</time>
      </trkpt>
      <trkpt lat="59.8328788" lon="17.7438385">
        <ele>17.9218</ele>
        <time>2013-04-21T13:47:42Z</time>
      </trkpt>
      <trkpt lat="59.8329256" lon="17.7438873">
        <ele>17.9218</ele>
        <time>2013-04-21T13:47:43Z</time>
      </trkpt>
      <trkpt lat="59.8329665" lon="17.7439222">
        <ele>17.4412</ele>
        <time>2013-04-21T13:47:44Z</time>
      </trkpt>
      <trkpt lat="59.8330058" lon="17.7439453">
        <ele>17.4412</ele>
        <time>2013-04-21T13:47:45Z</time>
      </trkpt>
      <trkpt lat="59.8330479" lon="17.7439801">
        <ele>17.4412</ele>
        <time>2013-04-21T13:47:46Z</time>
      </trkpt>
      <trkpt lat="59.8330871" lon="17.7440204">
        <ele>16.9604</ele>
        <time>2013-04-21T13:47:47Z</time>
      </trkpt>
      <trkpt lat="59.8331282" lon="17.744058">
        <ele>15.999</ele>
        <time>2013-04-21T13:47:48Z</time>
      </trkpt>
      <trkpt lat="59.8331705" lon="17.7440916">
        <ele>15.0377</ele>
        <time>2013-04-21T13:47:49Z</time>
      </trkpt>
      <trkpt lat="59.8332151" lon="17.7441246">
        <ele>14.0764</ele>
        <time>2013-04-21T13:47:50Z</time>
      </trkpt>
      <trkpt lat="59.8332645" lon="17.7441583">
        <ele>13.5958</ele>
        <time>2013-04-21T13:47:51Z</time>
      </trkpt>
      <trkpt lat="59.833317" lon="17.7441889">
        <ele>13.1151</ele>
        <time>2013-04-21T13:47:52Z</time>
      </trkpt>
      <trkpt lat="59.8333696" lon="17.7442125">
        <ele>12.1538</ele>
        <time>2013-04-21T13:47:53Z</time>
      </trkpt>
      <trkpt lat="59.833424" lon="17.744231">
        <ele>11.1925</ele>
        <time>2013-04-21T13:47:54Z</time>
      </trkpt>
      <trkpt lat="59.8334772" lon="17.7442499">
        <ele>10.2312</ele>
        <time>2013-04-21T13:47:55Z</time>
      </trkpt>
      <trkpt lat="59.8335289" lon="17.7442766">
        <ele>8.78918</ele>
        <time>2013-04-21T13:47:56Z</time>
      </trkpt>
      <trkpt lat="59.8335809" lon="17.744308">
        <ele>7.82788</ele>
        <time>2013-04-21T13:47:57Z</time>
      </trkpt>
      <trkpt lat="59.8336326" lon="17.7443355">
        <ele>5.90527</ele>
        <time>2013-04-21T13:47:58Z</time>
      </trkpt>
      <trkpt lat="59.8336896" lon="17.7443609">
        <ele>4.94385</ele>
        <time>2013-04-21T13:47:59Z</time>
      </trkpt>
      <trkpt lat="59.8337481" lon="17.7443894">
        <ele>3.50195</ele>
        <time>2013-04-21T13:48:00Z</time>
      </trkpt>
      <trkpt lat="59.8338057" lon="17.7444202">
        <ele>2.06006</ele>
        <time>2013-04-21T13:48:01Z</time>
      </trkpt>
      <trkpt lat="59.8338662" lon="17.7444509">
        <ele>1.09863</ele>
        <time>2013-04-21T13:48:02Z</time>
      </trkpt>
      <trkpt lat="59.8339301" lon="17.7444804">
        <ele>0.137451</ele>
        <time>2013-04-21T13:48:03Z</time>
      </trkpt>
      <trkpt lat="59.8339964" lon="17.744511">
        <ele>0</ele>
        <time>2013-04-21T13:48:04Z</time>
      </trkpt>
      <trkpt lat="59.8340612" lon="17.744543">
        <ele>0</ele>
        <time>2013-04-21T13:48:05Z</time>
      </trkpt>
      <trkpt lat="59.8341282" lon="17.7445721">
        <ele>0</ele>
        <time>2013-04-21T13:48:06Z</time>
      </trkpt>
      <trkpt lat="59.8341958" lon="17.744596">
        <ele>0</ele>
        <time>2013-04-21T13:48:07Z</time>
      </trkpt>
      <trkpt lat="59.8342668" lon="17.7446182">
        <ele>0</ele>
        <time>2013-04-21T13:48:08Z</time>
      </trkpt>
      <trkpt lat="59.8343358" lon="17.7446414">
        <ele>0</ele>
        <time>2013-04-21T13:48:09Z</time>
      </trkpt>
      <trkpt lat="59.8344045" lon="17.7446629">
        <ele>0</ele>
        <time>2013-04-21T13:48:10Z</time>
      </trkpt>
      <trkpt lat="59.8344739" lon="17.7446805">
        <ele>0</ele>
        <time>2013-04-21T13:48:11Z</time>
      </trkpt>
      <trkpt lat="59.8345432" lon="17.7446932">
        <ele>0</ele>
        <time>2013-04-21T13:48:12Z</time>
      </trkpt>
      <trkpt lat="59.8346119" lon="17.7446995">
        <ele>0</ele>
        <time>2013-04-21T13:48:13Z</time>
      </trkpt>
      <trkpt lat="59.8346816" lon="17.744701">
        <ele>0</ele>
        <time>2013-04-21T13:48:14Z</time>
      </trkpt>
      <trkpt lat="59.8347506" lon="17.7447011">
        <ele>0</ele>
        <time>2013-04-21T13:48:15Z</time>
      </trkpt>
      <trkpt lat="59.8348173" lon="17.7446981">
        <ele>0</ele>
        <time>2013-04-21T13:48:16Z</time>
      </trkpt>
      <trkpt lat="59.8348838" lon="17.7446914">
        <ele>0</ele>
        <time>2013-04-21T13:48:17Z</time>
      </trkpt>
      <trkpt lat="59.8349516" lon="17.7446789">
        <ele>0</ele>
        <time>2013-04-21T13:48:18Z</time>
      </trkpt>
      <trkpt lat="59.8350192" lon="17.7446618">
        <ele>0</ele>
        <time>2013-04-21T13:48:19Z</time>
      </trkpt>
      <trkpt lat="59.8350886" lon="17.7446353">
        <ele>0</ele>
        <time>2013-04-21T13:48:20Z</time>
      </trkpt>
      <trkpt lat="59.8351576" lon="17.7445998">
        <ele>0</ele>
        <time>2013-04-21T13:48:21Z</time>
      </trkpt>
      <trkpt lat="59.8352275" lon="17.7445608">
        <ele>0</ele>
        <time>2013-04-21T13:48:22Z</time>
      </trkpt>
      <trkpt lat="59.8352977" lon="17.7445192">
        <ele>0</ele>
        <time>2013-04-21T13:48:23Z</time>
      </trkpt>
      <trkpt lat="59.8353678" lon="17.7444721">
        <ele>0</ele>
        <time>2013-04-21T13:48:24Z</time>
      </trkpt>
      <trkpt lat="59.8354391" lon="17.7444184">
        <ele>0</ele>
        <time>2013-04-21T13:48:25Z</time>
      </trkpt>
      <trkpt lat="59.8355098" lon="17.7443645">
        <ele>0</ele>
        <time>2013-04-21T13:48:26Z</time>
      </trkpt>
      <trkpt lat="59.8355794" lon="17.7443105">
        <ele>0</ele>
        <time>2013-04-21T13:48:27Z</time>
      </trkpt>
      <trkpt lat="59.8356484" lon="17.744255">
        <ele>0</ele>
        <time>2013-04-21T13:48:28Z</time>
      </trkpt>
      <trkpt lat="59.8357172" lon="17.7441987">
        <ele>0</ele>
        <time>2013-04-21T13:48:29Z</time>
      </trkpt>
      <trkpt lat="59.8357861" lon="17.7441442">
        <ele>0</ele>
        <time>2013-04-21T13:48:30Z</time>
      </trkpt>
      <trkpt lat="59.8358553" lon="17.744092">
        <ele>0</ele>
        <time>2013-04-21T13:48:31Z</time>
      </trkpt>
      <trkpt lat="59.8359244" lon="17.7440411">
        <ele>0</ele>
        <time>2013-04-21T13:48:32Z</time>
      </trkpt>
      <trkpt lat="59.8359932" lon="17.7439879">
        <ele>0.137451</ele>
        <time>2013-04-21T13:48:33Z</time>
      </trkpt>
      <trkpt lat="59.8360617" lon="17.7439331">
        <ele>0.618042</ele>
        <time>2013-04-21T13:48:34Z</time>
      </trkpt>
      <trkpt lat="59.8361302" lon="17.7438786">
        <ele>0.618042</ele>
        <time>2013-04-21T13:48:35Z</time>
      </trkpt>
      <trkpt lat="59.8361992" lon="17.7438235">
        <ele>1.09863</ele>
        <time>2013-04-21T13:48:36Z</time>
      </trkpt>
      <trkpt lat="59.8362689" lon="17.7437698">
        <ele>1.57935</ele>
        <time>2013-04-21T13:48:37Z</time>
      </trkpt>
      <trkpt lat="59.8363389" lon="17.7437175">
        <ele>1.57935</ele>
        <time>2013-04-21T13:48:38Z</time>
      </trkpt>
      <trkpt lat="59.836409" lon="17.7436641">
        <ele>2.06006</ele>
        <time>2013-04-21T13:48:39Z</time>
      </trkpt>
      <trkpt lat="59.8364796" lon="17.7436104">
        <ele>2.06006</ele>
        <time>2013-04-21T13:48:40Z</time>
      </trkpt>
      <trkpt lat="59.8365499" lon="17.7435572">
        <ele>2.06006</ele>
        <time>2013-04-21T13:48:41Z</time>
      </trkpt>
      <trkpt lat="59.8366201" lon="17.7435026">
        <ele>2.54065</ele>
        <time>2013-04-21T13:48:42Z</time>
      </trkpt>
      <trkpt lat="59.8366914" lon="17.7434465">
        <ele>2.54065</ele>
        <time>2013-04-21T13:48:43Z</time>
      </trkpt>
      <trkpt lat="59.8367631" lon="17.7433901">
        <ele>3.02124</ele>
        <time>2013-04-21T13:48:44Z</time>
      </trkpt>
      <trkpt lat="59.8368352" lon="17.7433335">
        <ele>3.02124</ele>
        <time>2013-04-21T13:48:45Z</time>
      </trkpt>
      <trkpt lat="59.8369081" lon="17.743278">
        <ele>3.50195</ele>
        <time>2013-04-21T13:48:46Z</time>
      </trkpt>
      <trkpt lat="59.836982" lon="17.743226">
        <ele>3.98267</ele>
        <time>2013-04-21T13:48:47Z</time>
      </trkpt>
      <trkpt lat="59.8370567" lon="17.743177">
        <ele>3.98267</ele>
        <time>2013-04-21T13:48:48Z</time>
      </trkpt>
      <trkpt lat="59.8371314" lon="17.7431315">
        <ele>4.46326</ele>
        <time>2013-04-21T13:48:49Z</time>
      </trkpt>
      <trkpt lat="59.837206" lon="17.7430892">
        <ele>4.46326</ele>
        <time>2013-04-21T13:48:50Z</time>
      </trkpt>
      <trkpt lat="59.8372801" lon="17.7430487">
        <ele>4.46326</ele>
        <time>2013-04-21T13:48:51Z</time>
      </trkpt>
      <trkpt lat="59.8373535" lon="17.7430119">
        <ele>4.46326</ele>
        <time>2013-04-21T13:48:52Z</time>
      </trkpt>
      <trkpt lat="59.8374266" lon="17.7429768">
        <ele>4.46326</ele>
        <time>2013-04-21T13:48:53Z</time>
      </trkpt>
      <trkpt lat="59.8374992" lon="17.7429427">
        <ele>4.46326</ele>
        <time>2013-04-21T13:48:54Z</time>
      </trkpt>
      <trkpt lat="59.8375722" lon="17.7429103">
        <ele>3.98267</ele>
        <time>2013-04-21T13:48:55Z</time>
      </trkpt>
      <trkpt lat="59.8376463" lon="17.7428773">
        <ele>3.98267</ele>
        <time>2013-04-21T13:48:56Z</time>
      </trkpt>
      <trkpt lat="59.8377217" lon="17.7428425">
        <ele>4.46326</ele>
        <time>2013-04-21T13:48:57Z</time>
      </trkpt>
      <trkpt lat="59.8377978" lon="17.7428079">
        <ele>4.46326</ele>
        <time>2013-04-21T13:48:58Z</time>
      </trkpt>
      <trkpt lat="59.8378745" lon="17.742772">
        <ele>4.46326</ele>
        <time>2013-04-21T13:48:59Z</time>
      </trkpt>
      <trkpt lat="59.8379515" lon="17.7427327">
        <ele>3.98267</ele>
        <time>2013-04-21T13:49:00Z</time>
      </trkpt>
      <trkpt lat="59.8380304" lon="17.7426959">
        <ele>3.98267</ele>
        <time>2013-04-21T13:49:01Z</time>
      </trkpt>
      <trkpt lat="59.8381097" lon="17.7426608">
        <ele>3.98267</ele>
        <time>2013-04-21T13:49:02Z</time>
      </trkpt>
      <trkpt lat="59.8381887" lon="17.7426235">
        <ele>3.50195</ele>
        <time>2013-04-21T13:49:03Z</time>
      </trkpt>
      <trkpt lat="59.8382682" lon="17.7425856">
        <ele>3.50195</ele>
        <time>2013-04-21T13:49:04Z</time>
      </trkpt>
      <trkpt lat="59.8383483" lon="17.7425478">
        <ele>3.50195</ele>
        <time>2013-04-21T13:49:05Z</time>
      </trkpt>
      <trkpt lat="59.8384295" lon="17.7425121">
        <ele>3.50195</ele>
        <time>2013-04-21T13:49:06Z</time>
      </trkpt>
      <trkpt lat="59.8385108" lon="17.7424769">
        <ele>3.02124</ele>
        <time>2013-04-21T13:49:07Z</time>
      </trkpt>
      <trkpt lat="59.8385916" lon="17.7424389">
        <ele>3.02124</ele>
        <time>2013-04-21T13:49:08Z</time>
      </trkpt>
      <trkpt lat="59.8386728" lon="17.7423998">
        <ele>2.54065</ele>
        <time>2013-04-21T13:49:09Z</time>
      </trkpt>
      <trkpt lat="59.8387542" lon="17.7423627">
        <ele>2.54065</ele>
        <time>2013-04-21T13:49:10Z</time>
      </trkpt>
      <trkpt lat="59.8388351" lon="17.7423275">
        <ele>2.06006</ele>
        <time>2013-04-21T13:49:11Z</time>
      </trkpt>
      <trkpt lat="59.8389226" lon="17.7422967">
        <ele>2.54065</ele>
        <time>2013-04-21T13:49:12Z</time>
      </trkpt>
      <trkpt lat="59.8390177" lon="17.7422641">
        <ele>4.46326</ele>
        <time>2013-04-21T13:49:13Z</time>
      </trkpt>
      <trkpt lat="59.8391091" lon="17.742236">
        <ele>6.38586</ele>
        <time>2013-04-21T13:49:14Z</time>
      </trkpt>
      <trkpt lat="59.8391955" lon="17.7422114">
        <ele>7.34717</ele>
        <time>2013-04-21T13:49:15Z</time>
      </trkpt>
      <trkpt lat="59.8392802" lon="17.7421897">
        <ele>7.82788</ele>
        <time>2013-04-21T13:49:16Z</time>
      </trkpt>
      <trkpt lat="59.8393646" lon="17.7421734">
        <ele>8.78918</ele>
        <time>2013-04-21T13:49:17Z</time>
      </trkpt>
      <trkpt lat="59.8394484" lon="17.7421599">
        <ele>9.2699</ele>
        <time>2013-04-21T13:49:18Z</time>
      </trkpt>
      <trkpt lat="59.8395338" lon="17.7421459">
        <ele>9.75061</ele>
        <time>2013-04-21T13:49:19Z</time>
      </trkpt>
      <trkpt lat="59.8396189" lon="17.7421312">
        <ele>10.2312</ele>
        <time>2013-04-21T13:49:20Z</time>
      </trkpt>
      <trkpt lat="59.8397038" lon="17.7421154">
        <ele>10.7118</ele>
        <time>2013-04-21T13:49:21Z</time>
      </trkpt>
      <trkpt lat="59.8397886" lon="17.7420983">
        <ele>11.1925</ele>
        <time>2013-04-21T13:49:22Z</time>
      </trkpt>
      <trkpt lat="59.8398725" lon="17.7420802">
        <ele>11.1925</ele>
        <time>2013-04-21T13:49:23Z</time>
      </trkpt>
      <trkpt lat="59.8399557" lon="17.7420635">
        <ele>11.6732</ele>
        <time>2013-04-21T13:49:24Z</time>
      </trkpt>
      <trkpt lat="59.8400389" lon="17.7420476">
        <ele>12.1538</ele>
        <time>2013-04-21T13:49:25Z</time>
      </trkpt>
      <trkpt lat="59.8401213" lon="17.7420314">
        <ele>12.1538</ele>
        <time>2013-04-21T13:49:26Z</time>
      </trkpt>
      <trkpt lat="59.8402036" lon="17.7420137">
        <ele>12.6344</ele>
        <time>2013-04-21T13:49:27Z</time>
      </trkpt>
      <trkpt lat="59.8402858" lon="17.7419972">
        <ele>13.1151</ele>
        <time>2013-04-21T13:49:28Z</time>
      </trkpt>
      <trkpt lat="59.8403666" lon="17.7419813">
        <ele>13.5958</ele>
        <time>2013-04-21T13:49:29Z</time>
      </trkpt>
      <trkpt lat="59.8404456" lon="17.741965">
        <ele>14.0764</ele>
        <time>2013-04-21T13:49:30Z</time>
      </trkpt>
      <trkpt lat="59.8405228" lon="17.7419496">
        <ele>14.557</ele>
        <time>2013-04-21T13:49:31Z</time>
      </trkpt>
      <trkpt lat="59.8405978" lon="17.7419382">
        <ele>15.0377</ele>
        <time>2013-04-21T13:49:32Z</time>
      </trkpt>
      <trkpt lat="59.8406729" lon="17.7419269">
        <ele>15.5184</ele>
        <time>2013-04-21T13:49:33Z</time>
      </trkpt>
      <trkpt lat="59.8407471" lon="17.7419123">
        <ele>15.999</ele>
        <time>2013-04-21T13:49:34Z</time>
      </trkpt>
      <trkpt lat="59.8408194" lon="17.7418976">
        <ele>15.999</ele>
        <time>2013-04-21T13:49:35Z</time>
      </trkpt>
      <trkpt lat="59.840891" lon="17.7418808">
        <ele>16.4797</ele>
        <time>2013-04-21T13:49:36Z</time>
      </trkpt>
      <trkpt lat="59.8409627" lon="17.7418667">
        <ele>16.9604</ele>
        <time>2013-04-21T13:49:37Z</time>
      </trkpt>
      <trkpt lat="59.841034" lon="17.7418543">
        <ele>16.9604</ele>
        <time>2013-04-21T13:49:38Z</time>
      </trkpt>
      <trkpt lat="59.841106" lon="17.7418383">
        <ele>17.4412</ele>
        <time>2013-04-21T13:49:39Z</time>
      </trkpt>
      <trkpt lat="59.8411785" lon="17.7418217">
        <ele>17.4412</ele>
        <time>2013-04-21T13:49:40Z</time>
      </trkpt>
      <trkpt lat="59.8412512" lon="17.7418095">
        <ele>17.9218</ele>
        <time>2013-04-21T13:49:41Z</time>
      </trkpt>
      <trkpt lat="59.8413246" lon="17.741797">
        <ele>17.9218</ele>
        <time>2013-04-21T13:49:42Z</time>
      </trkpt>
      <trkpt lat="59.8413978" lon="17.7417807">
        <ele>17.9218</ele>
        <time>2013-04-21T13:49:43Z</time>
      </trkpt>
      <trkpt lat="59.8414718" lon="17.7417615">
        <ele>18.4023</ele>
        <time>2013-04-21T13:49:44Z</time>
      </trkpt>
      <trkpt lat="59.8415457" lon="17.7417445">
        <ele>18.4023</ele>
        <time>2013-04-21T13:49:45Z</time>
      </trkpt>
      <trkpt lat="59.8416178" lon="17.7417289">
        <ele>18.4023</ele>
        <time>2013-04-21T13:49:46Z</time>
      </trkpt>
      <trkpt lat="59.8416886" lon="17.7417113">
        <ele>18.8831</ele>
        <time>2013-04-21T13:49:47Z</time>
      </trkpt>
      <trkpt lat="59.8417596" lon="17.7416916">
        <ele>19.3638</ele>
        <time>2013-04-21T13:49:48Z</time>
      </trkpt>
      <trkpt lat="59.8418318" lon="17.7416693">
        <ele>19.8444</ele>
        <time>2013-04-21T13:49:49Z</time>
      </trkpt>
      <trkpt lat="59.8419027" lon="17.7416471">
        <ele>19.8444</ele>
        <time>2013-04-21T13:49:50Z</time>
      </trkpt>
      <trkpt lat="59.8419737" lon="17.7416264">
        <ele>20.325</ele>
        <time>2013-04-21T13:49:51Z</time>
      </trkpt>
      <trkpt lat="59.8420451" lon="17.7416056">
        <ele>20.8057</ele>
        <time>2013-04-21T13:49:52Z</time>
      </trkpt>
      <trkpt lat="59.8421173" lon="17.7415852">
        <ele>20.8057</ele>
        <time>2013-04-21T13:49:53Z</time>
      </trkpt>
      <trkpt lat="59.8421919" lon="17.741561">
        <ele>20.8057</ele>
        <time>2013-04-21T13:49:54Z</time>
      </trkpt>
      <trkpt lat="59.8422646" lon="17.7415485">
        <ele>20.325</ele>
        <time>2013-04-21T13:49:55Z</time>
      </trkpt>
      <trkpt lat="59.8423367" lon="17.7415201">
        <ele>20.325</ele>
        <time>2013-04-21T13:49:56Z</time>
      </trkpt>
      <trkpt lat="59.8424109" lon="17.7414926">
        <ele>20.8057</ele>
        <time>2013-04-21T13:49:57Z</time>
      </trkpt>
      <trkpt lat="59.842486" lon="17.7414693">
        <ele>20.8057</ele>
        <time>2013-04-21T13:49:58Z</time>
      </trkpt>
      <trkpt lat="59.8425594" lon="17.7414464">
        <ele>20.8057</ele>
        <time>2013-04-21T13:49:59Z</time>
      </trkpt>
      <trkpt lat="59.842633" lon="17.7414139">
        <ele>21.2864</ele>
        <time>2013-04-21T13:50:00Z</time>
      </trkpt>
      <trkpt lat="59.8427029" lon="17.7413769">
        <ele>20.8057</ele>
        <time>2013-04-21T13:50:01Z</time>
      </trkpt>
      <trkpt lat="59.8427668" lon="17.741344">
        <ele>19.8444</ele>
        <time>2013-04-21T13:50:02Z</time>
      </trkpt>
      <trkpt lat="59.8428326" lon="17.7413122">
        <ele>19.3638</ele>
        <time>2013-04-21T13:50:03Z</time>
      </trkpt>
      <trkpt lat="59.8428964" lon="17.7412869">
        <ele>18.8831</ele>
        <time>2013-04-21T13:50:04Z</time>
      </trkpt>
      <trkpt lat="59.8429645" lon="17.7412503">
        <ele>18.8831</ele>
        <time>2013-04-21T13:50:05Z</time>
      </trkpt>
      <trkpt lat="59.8430259" lon="17.7412115">
        <ele>17.4412</ele>
        <time>2013-04-21T13:50:06Z</time>
      </trkpt>
      <trkpt lat="59.8430858" lon="17.7411803">
        <ele>16.9604</ele>
        <time>2013-04-21T13:50:07Z</time>
      </trkpt>
      <trkpt lat="59.8431404" lon="17.7411473">
        <ele>15.999</ele>
        <time>2013-04-21T13:50:08Z</time>
      </trkpt>
      <trkpt lat="59.8431999" lon="17.7411083">
        <ele>15.0377</ele>
        <time>2013-04-21T13:50:09Z</time>
      </trkpt>
      <trkpt lat="59.8432647" lon="17.7410803">
        <ele>15.999</ele>
        <time>2013-04-21T13:50:10Z</time>
      </trkpt>
      <trkpt lat="59.8433302" lon="17.7410521">
        <ele>16.4797</ele>
        <time>2013-04-21T13:50:11Z</time>
      </trkpt>
      <trkpt lat="59.8433929" lon="17.7410213">
        <ele>15.999</ele>
        <time>2013-04-21T13:50:12Z</time>
      </trkpt>
      <trkpt lat="59.8434547" lon="17.7409912">
        <ele>15.999</ele>
        <time>2013-04-21T13:50:13Z</time>
      </trkpt>
      <trkpt lat="59.8435153" lon="17.7409615">
        <ele>15.999</ele>
        <time>2013-04-21T13:50:14Z</time>
      </trkpt>
      <trkpt lat="59.8435764" lon="17.7409278">
        <ele>15.999</ele>
        <time>2013-04-21T13:50:15Z</time>
      </trkpt>
      <trkpt lat="59.8436287" lon="17.7408924">
        <ele>15.999</ele>
        <time>2013-04-21T13:50:16Z</time>
      </trkpt>
      <trkpt lat="59.8436788" lon="17.7408581">
        <ele>16.4797</ele>
        <time>2013-04-21T13:50:17Z</time>
      </trkpt>
      <trkpt lat="59.8437244" lon="17.7408296">
        <ele>15.999</ele>
        <time>2013-04-21T13:50:18Z</time>
      </trkpt>
      <trkpt lat="59.8437711" lon="17.7408046">
        <ele>15.999</ele>
        <time>2013-04-21T13:50:19Z</time>
      </trkpt>
      <trkpt lat="59.8438189" lon="17.7407833">
        <ele>16.4797</ele>
        <time>2013-04-21T13:50:20Z</time>
      </trkpt>
      <trkpt lat="59.8438689" lon="17.7407711">
        <ele>17.4412</ele>
        <time>2013-04-21T13:50:21Z</time>
      </trkpt>
      <trkpt lat="59.843925" lon="17.7407607">
        <ele>18.8831</ele>
        <time>2013-04-21T13:50:22Z</time>
      </trkpt>
      <trkpt lat="59.843981" lon="17.740751">
        <ele>19.8444</ele>
        <time>2013-04-21T13:50:23Z</time>
      </trkpt>
      <trkpt lat="59.8440374" lon="17.740741">
        <ele>20.325</ele>
        <time>2013-04-21T13:50:24Z</time>
      </trkpt>
      <trkpt lat="59.8440965" lon="17.7407338">
        <ele>20.8057</ele>
        <time>2013-04-21T13:50:25Z</time>
      </trkpt>
      <trkpt lat="59.8441592" lon="17.7407281">
        <ele>21.767</ele>
        <time>2013-04-21T13:50:26Z</time>
      </trkpt>
      <trkpt lat="59.8442239" lon="17.7407187">
        <ele>22.2476</ele>
        <time>2013-04-21T13:50:27Z</time>
      </trkpt>
      <trkpt lat="59.844286" lon="17.7407088">
        <ele>21.767</ele>
        <time>2013-04-21T13:50:28Z</time>
      </trkpt>
      <trkpt lat="59.8443508" lon="17.7406975">
        <ele>21.767</ele>
        <time>2013-04-21T13:50:29Z</time>
      </trkpt>
      <trkpt lat="59.8444167" lon="17.7406803">
        <ele>21.2864</ele>
        <time>2013-04-21T13:50:30Z</time>
      </trkpt>
      <trkpt lat="59.844483" lon="17.7406533">
        <ele>21.767</ele>
        <time>2013-04-21T13:50:31Z</time>
      </trkpt>
      <trkpt lat="59.8445446" lon="17.740611">
        <ele>22.2476</ele>
        <time>2013-04-21T13:50:32Z</time>
      </trkpt>
      <trkpt lat="59.8446066" lon="17.740556">
        <ele>22.7283</ele>
        <time>2013-04-21T13:50:33Z</time>
      </trkpt>
      <trkpt lat="59.8446653" lon="17.7404969">
        <ele>22.7283</ele>
        <time>2013-04-21T13:50:34Z</time>
      </trkpt>
      <trkpt lat="59.8447238" lon="17.7404298">
        <ele>23.209</ele>
        <time>2013-04-21T13:50:35Z</time>
      </trkpt>
      <trkpt lat="59.8447802" lon="17.740357">
        <ele>23.209</ele>
        <time>2013-04-21T13:50:36Z</time>
      </trkpt>
      <trkpt lat="59.8448371" lon="17.740286">
        <ele>23.209</ele>
        <time>2013-04-21T13:50:37Z</time>
      </trkpt>
      <trkpt lat="59.8448964" lon="17.7402195">
        <ele>23.209</ele>
        <time>2013-04-21T13:50:38Z</time>
      </trkpt>
      <trkpt lat="59.8449575" lon="17.7401572">
        <ele>23.209</ele>
        <time>2013-04-21T13:50:39Z</time>
      </trkpt>
      <trkpt lat="59.8450208" lon="17.7401023">
        <ele>23.6896</ele>
        <time>2013-04-21T13:50:40Z</time>
      </trkpt>
      <trkpt lat="59.8450876" lon="17.7400583">
        <ele>23.6896</ele>
        <time>2013-04-21T13:50:41Z</time>
      </trkpt>
      <trkpt lat="59.8451553" lon="17.7400159">
        <ele>23.209</ele>
        <time>2013-04-21T13:50:42Z</time>
      </trkpt>
      <trkpt lat="59.8452253" lon="17.7399752">
        <ele>23.6896</ele>
        <time>2013-04-21T13:50:43Z</time>
      </trkpt>
      <trkpt lat="59.8452965" lon="17.7399365">
        <ele>23.6896</ele>
        <time>2013-04-21T13:50:44Z</time>
      </trkpt>
      <trkpt lat="59.8453676" lon="17.7398977">
        <ele>23.6896</ele>
        <time>2013-04-21T13:50:45Z</time>
      </trkpt>
      <trkpt lat="59.8454382" lon="17.7398593">
        <ele>24.1703</ele>
        <time>2013-04-21T13:50:46Z</time>
      </trkpt>
      <trkpt lat="59.8455081" lon="17.7398215">
        <ele>23.6896</ele>
        <time>2013-04-21T13:50:47Z</time>
      </trkpt>
      <trkpt lat="59.8455781" lon="17.7397852">
        <ele>23.6896</ele>
        <time>2013-04-21T13:50:48Z</time>
      </trkpt>
      <trkpt lat="59.8456483" lon="17.7397488">
        <ele>23.6896</ele>
        <time>2013-04-21T13:50:49Z</time>
      </trkpt>
      <trkpt lat="59.8457188" lon="17.7397143">
        <ele>23.6896</ele>
        <time>2013-04-21T13:50:50Z</time>
      </trkpt>
      <trkpt lat="59.8457893" lon="17.7396838">
        <ele>23.6896</ele>
        <time>2013-04-21T13:50:51Z</time>
      </trkpt>
      <trkpt lat="59.8458601" lon="17.7396549">
        <ele>23.6896</ele>
        <time>2013-04-21T13:50:52Z</time>
      </trkpt>
      <trkpt lat="59.8459298" lon="17.7396282">
        <ele>23.6896</ele>
        <time>2013-04-21T13:50:53Z</time>
      </trkpt>
      <trkpt lat="59.8459987" lon="17.7396044">
        <ele>24.1703</ele>
        <time>2013-04-21T13:50:54Z</time>
      </trkpt>
      <trkpt lat="59.846067" lon="17.7395792">
        <ele>24.1703</ele>
        <time>2013-04-21T13:50:55Z</time>
      </trkpt>
      <trkpt lat="59.8461358" lon="17.7395527">
        <ele>24.1703</ele>
        <time>2013-04-21T13:50:56Z</time>
      </trkpt>
      <trkpt lat="59.8462053" lon="17.7395273">
        <ele>24.1703</ele>
        <time>2013-04-21T13:50:57Z</time>
      </trkpt>
      <trkpt lat="59.8462759" lon="17.7395015">
        <ele>24.1703</ele>
        <time>2013-04-21T13:50:58Z</time>
      </trkpt>
      <trkpt lat="59.8463476" lon="17.7394755">
        <ele>24.1703</ele>
        <time>2013-04-21T13:50:59Z</time>
      </trkpt>
      <trkpt lat="59.8464193" lon="17.7394463">
        <ele>24.1703</ele>
        <time>2013-04-21T13:51:00Z</time>
      </trkpt>
      <trkpt lat="59.8464919" lon="17.7394168">
        <ele>23.6896</ele>
        <time>2013-04-21T13:51:01Z</time>
      </trkpt>
      <trkpt lat="59.8465653" lon="17.7393885">
        <ele>23.6896</ele>
        <time>2013-04-21T13:51:02Z</time>
      </trkpt>
      <trkpt lat="59.8466394" lon="17.739361">
        <ele>23.6896</ele>
        <time>2013-04-21T13:51:03Z</time>
      </trkpt>
      <trkpt lat="59.8467143" lon="17.7393314">
        <ele>23.209</ele>
        <time>2013-04-21T13:51:04Z</time>
      </trkpt>
      <trkpt lat="59.8467898" lon="17.7393013">
        <ele>23.209</ele>
        <time>2013-04-21T13:51:05Z</time>
      </trkpt>
      <trkpt lat="59.8468653" lon="17.7392725">
        <ele>23.6896</ele>
        <time>2013-04-21T13:51:06Z</time>
      </trkpt>
      <trkpt lat="59.8469409" lon="17.7392444">
        <ele>23.6896</ele>
        <time>2013-04-21T13:51:07Z</time>
      </trkpt>
      <trkpt lat="59.8470167" lon="17.739217">
        <ele>23.6896</ele>
        <time>2013-04-21T13:51:08Z</time>
      </trkpt>
      <trkpt lat="59.847093" lon="17.7391901">
        <ele>23.6896</ele>
        <time>2013-04-21T13:51:09Z</time>
      </trkpt>
      <trkpt lat="59.8471693" lon="17.7391632">
        <ele>23.6896</ele>
        <time>2013-04-21T13:51:10Z</time>
      </trkpt>
      <trkpt lat="59.8472455" lon="17.7391348">
        <ele>23.6896</ele>
        <time>2013-04-21T13:51:11Z</time>
      </trkpt>
      <trkpt lat="59.8473218" lon="17.739106">
        <ele>23.6896</ele>
        <time>2013-04-21T13:51:12Z</time>
      </trkpt>
      <trkpt lat="59.8473973" lon="17.7390752">
        <ele>23.6896</ele>
        <time>2013-04-21T13:51:13Z</time>
      </trkpt>
      <trkpt lat="59.8474723" lon="17.7390433">
        <ele>23.6896</ele>
        <time>2013-04-21T13:51:14Z</time>
      </trkpt>
      <trkpt lat="59.8475459" lon="17.7390104">
        <ele>23.6896</ele>
        <time>2013-04-21T13:51:15Z</time>
      </trkpt>
      <trkpt lat="59.8476173" lon="17.7389849">
        <ele>23.6896</ele>
        <time>2013-04-21T13:51:16Z</time>
      </trkpt>
      <trkpt lat="59.8476867" lon="17.7389798">
        <ele>24.1703</ele>
        <time>2013-04-21T13:51:17Z</time>
      </trkpt>
      <trkpt lat="59.8477531" lon="17.7389781">
        <ele>24.1703</ele>
        <time>2013-04-21T13:51:18Z</time>
      </trkpt>
      <trkpt lat="59.8478153" lon="17.7389693">
        <ele>24.1703</ele>
        <time>2013-04-21T13:51:19Z</time>
      </trkpt>
      <trkpt lat="59.8478753" lon="17.7389568">
        <ele>24.1703</ele>
        <time>2013-04-21T13:51:20Z</time>
      </trkpt>
      <trkpt lat="59.8479349" lon="17.7389354">
        <ele>24.1703</ele>
        <time>2013-04-21T13:51:21Z</time>
      </trkpt>
      <trkpt lat="59.8479966" lon="17.7389099">
        <ele>24.1703</ele>
        <time>2013-04-21T13:51:22Z</time>
      </trkpt>
      <trkpt lat="59.8480606" lon="17.7388825">
        <ele>24.1703</ele>
        <time>2013-04-21T13:51:23Z</time>
      </trkpt>
      <trkpt lat="59.8481269" lon="17.7388534">
        <ele>24.1703</ele>
        <time>2013-04-21T13:51:24Z</time>
      </trkpt>
      <trkpt lat="59.8481945" lon="17.7388222">
        <ele>24.1703</ele>
        <time>2013-04-21T13:51:25Z</time>
      </trkpt>
      <trkpt lat="59.8482632" lon="17.7387877">
        <ele>24.1703</ele>
        <time>2013-04-21T13:51:26Z</time>
      </trkpt>
      <trkpt lat="59.848334" lon="17.7387544">
        <ele>24.1703</ele>
        <time>2013-04-21T13:51:27Z</time>
      </trkpt>
      <trkpt lat="59.8484059" lon="17.7387221">
        <ele>24.1703</ele>
        <time>2013-04-21T13:51:28Z</time>
      </trkpt>
      <trkpt lat="59.8484793" lon="17.7386881">
        <ele>24.1703</ele>
        <time>2013-04-21T13:51:29Z</time>
      </trkpt>
      <trkpt lat="59.8485535" lon="17.7386496">
        <ele>23.6896</ele>
        <time>2013-04-21T13:51:30Z</time>
      </trkpt>
      <trkpt lat="59.8486286" lon="17.7386103">
        <ele>23.6896</ele>
        <time>2013-04-21T13:51:31Z</time>
      </trkpt>
      <trkpt lat="59.848704" lon="17.7385711">
        <ele>23.6896</ele>
        <time>2013-04-21T13:51:32Z</time>
      </trkpt>
      <trkpt lat="59.8487794" lon="17.7385326">
        <ele>23.6896</ele>
        <time>2013-04-21T13:51:33Z</time>
      </trkpt>
      <trkpt lat="59.8488545" lon="17.7384939">
        <ele>23.6896</ele>
        <time>2013-04-21T13:51:34Z</time>
      </trkpt>
      <trkpt lat="59.8489296" lon="17.7384539">
        <ele>23.6896</ele>
        <time>2013-04-21T13:51:35Z</time>
      </trkpt>
      <trkpt lat="59.849005" lon="17.7384141">
        <ele>23.6896</ele>
        <time>2013-04-21T13:51:36Z</time>
      </trkpt>
      <trkpt lat="59.8490807" lon="17.7383756">
        <ele>23.6896</ele>
        <time>2013-04-21T13:51:37Z</time>
      </trkpt>
      <trkpt lat="59.8491557" lon="17.738339">
        <ele>23.6896</ele>
        <time>2013-04-21T13:51:38Z</time>
      </trkpt>
      <trkpt lat="59.8492309" lon="17.7382991">
        <ele>23.6896</ele>
        <time>2013-04-21T13:51:39Z</time>
      </trkpt>
      <trkpt lat="59.8493062" lon="17.738263">
        <ele>23.209</ele>
        <time>2013-04-21T13:51:40Z</time>
      </trkpt>
      <trkpt lat="59.8493824" lon="17.7382245">
        <ele>22.7283</ele>
        <time>2013-04-21T13:51:41Z</time>
      </trkpt>
      <trkpt lat="59.8494608" lon="17.7381888">
        <ele>22.2476</ele>
        <time>2013-04-21T13:51:42Z</time>
      </trkpt>
      <trkpt lat="59.8495406" lon="17.7381546">
        <ele>22.2476</ele>
        <time>2013-04-21T13:51:43Z</time>
      </trkpt>
      <trkpt lat="59.8496197" lon="17.7381236">
        <ele>21.767</ele>
        <time>2013-04-21T13:51:44Z</time>
      </trkpt>
      <trkpt lat="59.8496988" lon="17.7380964">
        <ele>22.2476</ele>
        <time>2013-04-21T13:51:45Z</time>
      </trkpt>
      <trkpt lat="59.8497759" lon="17.7380692">
        <ele>22.2476</ele>
        <time>2013-04-21T13:51:46Z</time>
      </trkpt>
      <trkpt lat="59.8498512" lon="17.7380425">
        <ele>22.2476</ele>
        <time>2013-04-21T13:51:47Z</time>
      </trkpt>
      <trkpt lat="59.8499267" lon="17.7380145">
        <ele>22.2476</ele>
        <time>2013-04-21T13:51:48Z</time>
      </trkpt>
      <trkpt lat="59.8500013" lon="17.7379785">
        <ele>21.2864</ele>
        <time>2013-04-21T13:51:49Z</time>
      </trkpt>
      <trkpt lat="59.8500788" lon="17.7379417">
        <ele>22.2476</ele>
        <time>2013-04-21T13:51:50Z</time>
      </trkpt>
      <trkpt lat="59.8501563" lon="17.7379044">
        <ele>22.7283</ele>
        <time>2013-04-21T13:51:51Z</time>
      </trkpt>
      <trkpt lat="59.8502313" lon="17.7378635">
        <ele>22.7283</ele>
        <time>2013-04-21T13:51:52Z</time>
      </trkpt>
      <trkpt lat="59.8503044" lon="17.7378184">
        <ele>22.7283</ele>
        <time>2013-04-21T13:51:53Z</time>
      </trkpt>
      <trkpt lat="59.8503764" lon="17.7377745">
        <ele>22.7283</ele>
        <time>2013-04-21T13:51:54Z</time>
      </trkpt>
      <trkpt lat="59.8504483" lon="17.7377303">
        <ele>22.7283</ele>
        <time>2013-04-21T13:51:55Z</time>
      </trkpt>
      <trkpt lat="59.8505196" lon="17.7376822">
        <ele>22.7283</ele>
        <time>2013-04-21T13:51:56Z</time>
      </trkpt>
      <trkpt lat="59.8505908" lon="17.7376319">
        <ele>22.7283</ele>
        <time>2013-04-21T13:51:57Z</time>
      </trkpt>
      <trkpt lat="59.8506621" lon="17.7375787">
        <ele>22.7283</ele>
        <time>2013-04-21T13:51:58Z</time>
      </trkpt>
      <trkpt lat="59.8507331" lon="17.7375232">
        <ele>22.7283</ele>
        <time>2013-04-21T13:51:59Z</time>
      </trkpt>
      <trkpt lat="59.8508046" lon="17.7374692">
        <ele>22.7283</ele>
        <time>2013-04-21T13:52:00Z</time>
      </trkpt>
      <trkpt lat="59.8508752" lon="17.7374159">
        <ele>23.209</ele>
        <time>2013-04-21T13:52:01Z</time>
      </trkpt>
      <trkpt lat="59.8509454" lon="17.737362">
        <ele>23.209</ele>
        <time>2013-04-21T13:52:02Z</time>
      </trkpt>
      <trkpt lat="59.8510145" lon="17.7373066">
        <ele>23.209</ele>
        <time>2013-04-21T13:52:03Z</time>
      </trkpt>
      <trkpt lat="59.851082" lon="17.7372503">
        <ele>23.209</ele>
        <time>2013-04-21T13:52:04Z</time>
      </trkpt>
      <trkpt lat="59.8511483" lon="17.7371946">
        <ele>23.209</ele>
        <time>2013-04-21T13:52:05Z</time>
      </trkpt>
      <trkpt lat="59.8512146" lon="17.7371377">
        <ele>23.209</ele>
        <time>2013-04-21T13:52:06Z</time>
      </trkpt>
      <trkpt lat="59.8512808" lon="17.7370795">
        <ele>23.209</ele>
        <time>2013-04-21T13:52:07Z</time>
      </trkpt>
      <trkpt lat="59.8513469" lon="17.7370184">
        <ele>23.6896</ele>
        <time>2013-04-21T13:52:08Z</time>
      </trkpt>
      <trkpt lat="59.8514111" lon="17.7369505">
        <ele>23.6896</ele>
        <time>2013-04-21T13:52:09Z</time>
      </trkpt>
      <trkpt lat="59.8514717" lon="17.7368699">
        <ele>23.6896</ele>
        <time>2013-04-21T13:52:10Z</time>
      </trkpt>
      <trkpt lat="59.8515321" lon="17.7367887">
        <ele>23.6896</ele>
        <time>2013-04-21T13:52:11Z</time>
      </trkpt>
      <trkpt lat="59.8515915" lon="17.7367046">
        <ele>23.209</ele>
        <time>2013-04-21T13:52:12Z</time>
      </trkpt>
      <trkpt lat="59.8516501" lon="17.7366161">
        <ele>23.209</ele>
        <time>2013-04-21T13:52:13Z</time>
      </trkpt>
      <trkpt lat="59.8517076" lon="17.7365237">
        <ele>23.209</ele>
        <time>2013-04-21T13:52:14Z</time>
      </trkpt>
      <trkpt lat="59.8517641" lon="17.7364276">
        <ele>23.209</ele>
        <time>2013-04-21T13:52:15Z</time>
      </trkpt>
      <trkpt lat="59.8518202" lon="17.7363305">
        <ele>23.209</ele>
        <time>2013-04-21T13:52:16Z</time>
      </trkpt>
      <trkpt lat="59.8518754" lon="17.7362354">
        <ele>23.209</ele>
        <time>2013-04-21T13:52:17Z</time>
      </trkpt>
      <trkpt lat="59.8519299" lon="17.736142">
        <ele>23.209</ele>
        <time>2013-04-21T13:52:18Z</time>
      </trkpt>
      <trkpt lat="59.8519857" lon="17.7360489">
        <ele>23.209</ele>
        <time>2013-04-21T13:52:19Z</time>
      </trkpt>
      <trkpt lat="59.8520438" lon="17.7359601">
        <ele>22.7283</ele>
        <time>2013-04-21T13:52:20Z</time>
      </trkpt>
      <trkpt lat="59.8521044" lon="17.7358748">
        <ele>22.7283</ele>
        <time>2013-04-21T13:52:21Z</time>
      </trkpt>
      <trkpt lat="59.8521665" lon="17.7357913">
        <ele>22.7283</ele>
        <time>2013-04-21T13:52:22Z</time>
      </trkpt>
      <trkpt lat="59.8522303" lon="17.735709">
        <ele>22.7283</ele>
        <time>2013-04-21T13:52:23Z</time>
      </trkpt>
      <trkpt lat="59.8522956" lon="17.7356281">
        <ele>22.2476</ele>
        <time>2013-04-21T13:52:24Z</time>
      </trkpt>
      <trkpt lat="59.8523623" lon="17.7355459">
        <ele>22.2476</ele>
        <time>2013-04-21T13:52:25Z</time>
      </trkpt>
      <trkpt lat="59.8524298" lon="17.735464">
        <ele>21.767</ele>
        <time>2013-04-21T13:52:26Z</time>
      </trkpt>
      <trkpt lat="59.8524976" lon="17.7353831">
        <ele>21.767</ele>
        <time>2013-04-21T13:52:27Z</time>
      </trkpt>
      <trkpt lat="59.8525651" lon="17.7353022">
        <ele>21.2864</ele>
        <time>2013-04-21T13:52:28Z</time>
      </trkpt>
      <trkpt lat="59.8526996" lon="17.7351407">
        <ele>20.8057</ele>
        <time>2013-04-21T13:52:29Z</time>
      </trkpt>
      <trkpt lat="59.8527675" lon="17.735061">
        <ele>20.8057</ele>
        <time>2013-04-21T13:52:30Z</time>
      </trkpt>
      <trkpt lat="59.852836" lon="17.7349812">
        <ele>20.8057</ele>
        <time>2013-04-21T13:52:31Z</time>
      </trkpt>
      <trkpt lat="59.8529047" lon="17.734902">
        <ele>20.325</ele>
        <time>2013-04-21T13:52:32Z</time>
      </trkpt>
      <trkpt lat="59.8529725" lon="17.7348232">
        <ele>20.325</ele>
        <time>2013-04-21T13:52:33Z</time>
      </trkpt>
      <trkpt lat="59.8530403" lon="17.7347428">
        <ele>20.325</ele>
        <time>2013-04-21T13:52:34Z</time>
      </trkpt>
      <trkpt lat="59.8531092" lon="17.734661">
        <ele>19.8444</ele>
        <time>2013-04-21T13:52:35Z</time>
      </trkpt>
      <trkpt lat="59.8531789" lon="17.7345779">
        <ele>19.8444</ele>
        <time>2013-04-21T13:52:36Z</time>
      </trkpt>
      <trkpt lat="59.8532487" lon="17.7344897">
        <ele>19.3638</ele>
        <time>2013-04-21T13:52:37Z</time>
      </trkpt>
      <trkpt lat="59.853318" lon="17.7343926">
        <ele>19.3638</ele>
        <time>2013-04-21T13:52:38Z</time>
      </trkpt>
      <trkpt lat="59.853386" lon="17.7342876">
        <ele>18.8831</ele>
        <time>2013-04-21T13:52:39Z</time>
      </trkpt>
      <trkpt lat="59.8534516" lon="17.7341721">
        <ele>18.4023</ele>
        <time>2013-04-21T13:52:40Z</time>
      </trkpt>
      <trkpt lat="59.8535148" lon="17.7340432">
        <ele>17.4412</ele>
        <time>2013-04-21T13:52:41Z</time>
      </trkpt>
      <trkpt lat="59.8535745" lon="17.7339012">
        <ele>16.9604</ele>
        <time>2013-04-21T13:52:42Z</time>
      </trkpt>
      <trkpt lat="59.8536293" lon="17.7337461">
        <ele>15.999</ele>
        <time>2013-04-21T13:52:43Z</time>
      </trkpt>
      <trkpt lat="59.8536802" lon="17.7335814">
        <ele>15.5184</ele>
        <time>2013-04-21T13:52:44Z</time>
      </trkpt>
      <trkpt lat="59.8537263" lon="17.7334071">
        <ele>15.0377</ele>
        <time>2013-04-21T13:52:45Z</time>
      </trkpt>
      <trkpt lat="59.853766" lon="17.7332237">
        <ele>14.557</ele>
        <time>2013-04-21T13:52:46Z</time>
      </trkpt>
      <trkpt lat="59.8537998" lon="17.7330351">
        <ele>14.0764</ele>
        <time>2013-04-21T13:52:47Z</time>
      </trkpt>
      <trkpt lat="59.8538283" lon="17.7328501">
        <ele>13.5958</ele>
        <time>2013-04-21T13:52:48Z</time>
      </trkpt>
      <trkpt lat="59.8538496" lon="17.7326702">
        <ele>13.1151</ele>
        <time>2013-04-21T13:52:49Z</time>
      </trkpt>
      <trkpt lat="59.8538696" lon="17.7324963">
        <ele>12.6344</ele>
        <time>2013-04-21T13:52:50Z</time>
      </trkpt>
      <trkpt lat="59.8538844" lon="17.7322944">
        <ele>13.1151</ele>
        <time>2013-04-21T13:52:51Z</time>
      </trkpt>
      <trkpt lat="59.8539178" lon="17.7321044">
        <ele>12.6344</ele>
        <time>2013-04-21T13:52:52Z</time>
      </trkpt>
      <trkpt lat="59.8539335" lon="17.7319425">
        <ele>13.1151</ele>
        <time>2013-04-21T13:52:53Z</time>
      </trkpt>
      <trkpt lat="59.8539502" lon="17.731785">
        <ele>13.1151</ele>
        <time>2013-04-21T13:52:54Z</time>
      </trkpt>
      <trkpt lat="59.853964" lon="17.7316297">
        <ele>13.5958</ele>
        <time>2013-04-21T13:52:55Z</time>
      </trkpt>
      <trkpt lat="59.8539781" lon="17.7314816">
        <ele>13.5958</ele>
        <time>2013-04-21T13:52:56Z</time>
      </trkpt>
      <trkpt lat="59.8539947" lon="17.7313433">
        <ele>13.5958</ele>
        <time>2013-04-21T13:52:57Z</time>
      </trkpt>
      <trkpt lat="59.854011" lon="17.731212">
        <ele>14.0764</ele>
        <time>2013-04-21T13:52:58Z</time>
      </trkpt>
      <trkpt lat="59.8540242" lon="17.7310877">
        <ele>14.557</ele>
        <time>2013-04-21T13:52:59Z</time>
      </trkpt>
      <trkpt lat="59.8540402" lon="17.7309661">
        <ele>15.0377</ele>
        <time>2013-04-21T13:53:00Z</time>
      </trkpt>
      <trkpt lat="59.8540598" lon="17.7308496">
        <ele>15.5184</ele>
        <time>2013-04-21T13:53:01Z</time>
      </trkpt>
      <trkpt lat="59.8540801" lon="17.7307382">
        <ele>15.999</ele>
        <time>2013-04-21T13:53:02Z</time>
      </trkpt>
      <trkpt lat="59.8541019" lon="17.7306331">
        <ele>15.999</ele>
        <time>2013-04-21T13:53:03Z</time>
      </trkpt>
      <trkpt lat="59.8541255" lon="17.7305311">
        <ele>16.4797</ele>
        <time>2013-04-21T13:53:04Z</time>
      </trkpt>
      <trkpt lat="59.8541512" lon="17.7304351">
        <ele>16.9604</ele>
        <time>2013-04-21T13:53:05Z</time>
      </trkpt>
      <trkpt lat="59.8541768" lon="17.7303423">
        <ele>17.4412</ele>
        <time>2013-04-21T13:53:06Z</time>
      </trkpt>
      <trkpt lat="59.854203" lon="17.7302529">
        <ele>17.9218</ele>
        <time>2013-04-21T13:53:07Z</time>
      </trkpt>
      <trkpt lat="59.8542317" lon="17.7301679">
        <ele>18.4023</ele>
        <time>2013-04-21T13:53:08Z</time>
      </trkpt>
      <trkpt lat="59.8542609" lon="17.7300841">
        <ele>18.8831</ele>
        <time>2013-04-21T13:53:09Z</time>
      </trkpt>
      <trkpt lat="59.8542894" lon="17.7300017">
        <ele>19.3638</ele>
        <time>2013-04-21T13:53:10Z</time>
      </trkpt>
      <trkpt lat="59.8543189" lon="17.7299214">
        <ele>19.3638</ele>
        <time>2013-04-21T13:53:11Z</time>
      </trkpt>
      <trkpt lat="59.8543499" lon="17.7298434">
        <ele>19.8444</ele>
        <time>2013-04-21T13:53:12Z</time>
      </trkpt>
      <trkpt lat="59.8543812" lon="17.7297626">
        <ele>20.325</ele>
        <time>2013-04-21T13:53:13Z</time>
      </trkpt>
      <trkpt lat="59.8544122" lon="17.7296792">
        <ele>20.325</ele>
        <time>2013-04-21T13:53:14Z</time>
      </trkpt>
      <trkpt lat="59.8544453" lon="17.7295967">
        <ele>20.8057</ele>
        <time>2013-04-21T13:53:15Z</time>
      </trkpt>
      <trkpt lat="59.8544791" lon="17.7295126">
        <ele>20.8057</ele>
        <time>2013-04-21T13:53:16Z</time>
      </trkpt>
      <trkpt lat="59.854512" lon="17.7294256">
        <ele>20.8057</ele>
        <time>2013-04-21T13:53:17Z</time>
      </trkpt>
      <trkpt lat="59.8545444" lon="17.729339">
        <ele>21.2864</ele>
        <time>2013-04-21T13:53:18Z</time>
      </trkpt>
      <trkpt lat="59.8545772" lon="17.7292547">
        <ele>21.2864</ele>
        <time>2013-04-21T13:53:19Z</time>
      </trkpt>
      <trkpt lat="59.8546106" lon="17.7291702">
        <ele>21.2864</ele>
        <time>2013-04-21T13:53:20Z</time>
      </trkpt>
      <trkpt lat="59.854644" lon="17.7290832">
        <ele>21.2864</ele>
        <time>2013-04-21T13:53:21Z</time>
      </trkpt>
      <trkpt lat="59.854677" lon="17.7289939">
        <ele>21.2864</ele>
        <time>2013-04-21T13:53:22Z</time>
      </trkpt>
      <trkpt lat="59.8547105" lon="17.7289041">
        <ele>21.2864</ele>
        <time>2013-04-21T13:53:23Z</time>
      </trkpt>
      <trkpt lat="59.8547448" lon="17.7288144">
        <ele>21.2864</ele>
        <time>2013-04-21T13:53:24Z</time>
      </trkpt>
      <trkpt lat="59.8547797" lon="17.728723">
        <ele>21.2864</ele>
        <time>2013-04-21T13:53:25Z</time>
      </trkpt>
      <trkpt lat="59.8548152" lon="17.7286306">
        <ele>21.2864</ele>
        <time>2013-04-21T13:53:26Z</time>
      </trkpt>
      <trkpt lat="59.8548514" lon="17.7285377">
        <ele>21.2864</ele>
        <time>2013-04-21T13:53:27Z</time>
      </trkpt>
      <trkpt lat="59.8548878" lon="17.7284429">
        <ele>20.8057</ele>
        <time>2013-04-21T13:53:28Z</time>
      </trkpt>
      <trkpt lat="59.8549249" lon="17.7283455">
        <ele>20.8057</ele>
        <time>2013-04-21T13:53:29Z</time>
      </trkpt>
      <trkpt lat="59.8549624" lon="17.7282466">
        <ele>20.8057</ele>
        <time>2013-04-21T13:53:30Z</time>
      </trkpt>
      <trkpt lat="59.8550006" lon="17.7281465">
        <ele>20.8057</ele>
        <time>2013-04-21T13:53:31Z</time>
      </trkpt>
      <trkpt lat="59.8550391" lon="17.7280441">
        <ele>20.8057</ele>
        <time>2013-04-21T13:53:32Z</time>
      </trkpt>
      <trkpt lat="59.8550778" lon="17.7279411">
        <ele>20.8057</ele>
        <time>2013-04-21T13:53:33Z</time>
      </trkpt>
      <trkpt lat="59.8551161" lon="17.7278374">
        <ele>20.325</ele>
        <time>2013-04-21T13:53:34Z</time>
      </trkpt>
      <trkpt lat="59.8551549" lon="17.7277339">
        <ele>20.325</ele>
        <time>2013-04-21T13:53:35Z</time>
      </trkpt>
      <trkpt lat="59.8551947" lon="17.7276306">
        <ele>20.325</ele>
        <time>2013-04-21T13:53:36Z</time>
      </trkpt>
      <trkpt lat="59.8552347" lon="17.7275266">
        <ele>19.8444</ele>
        <time>2013-04-21T13:53:37Z</time>
      </trkpt>
      <trkpt lat="59.8552726" lon="17.7274217">
        <ele>19.8444</ele>
        <time>2013-04-21T13:53:38Z</time>
      </trkpt>
      <trkpt lat="59.8553093" lon="17.7273156">
        <ele>19.8444</ele>
        <time>2013-04-21T13:53:39Z</time>
      </trkpt>
      <trkpt lat="59.855346" lon="17.7272106">
        <ele>19.8444</ele>
        <time>2013-04-21T13:53:40Z</time>
      </trkpt>
      <trkpt lat="59.8553824" lon="17.7271054">
        <ele>19.8444</ele>
        <time>2013-04-21T13:53:41Z</time>
      </trkpt>
      <trkpt lat="59.8554193" lon="17.7269987">
        <ele>19.3638</ele>
        <time>2013-04-21T13:53:42Z</time>
      </trkpt>
      <trkpt lat="59.8554561" lon="17.7268895">
        <ele>19.3638</ele>
        <time>2013-04-21T13:53:43Z</time>
      </trkpt>
      <trkpt lat="59.8554928" lon="17.7267786">
        <ele>19.3638</ele>
        <time>2013-04-21T13:53:44Z</time>
      </trkpt>
      <trkpt lat="59.8555312" lon="17.7266687">
        <ele>19.3638</ele>
        <time>2013-04-21T13:53:45Z</time>
      </trkpt>
      <trkpt lat="59.8555708" lon="17.7265588">
        <ele>19.3638</ele>
        <time>2013-04-21T13:53:46Z</time>
      </trkpt>
      <trkpt lat="59.8556094" lon="17.7264471">
        <ele>18.8831</ele>
        <time>2013-04-21T13:53:47Z</time>
      </trkpt>
      <trkpt lat="59.8556476" lon="17.7263341">
        <ele>18.8831</ele>
        <time>2013-04-21T13:53:48Z</time>
      </trkpt>
      <trkpt lat="59.855686" lon="17.7262207">
        <ele>18.8831</ele>
        <time>2013-04-21T13:53:49Z</time>
      </trkpt>
      <trkpt lat="59.8557246" lon="17.7261067">
        <ele>18.8831</ele>
        <time>2013-04-21T13:53:50Z</time>
      </trkpt>
      <trkpt lat="59.8557631" lon="17.7259931">
        <ele>18.8831</ele>
        <time>2013-04-21T13:53:51Z</time>
      </trkpt>
      <trkpt lat="59.8558018" lon="17.7258805">
        <ele>18.8831</ele>
        <time>2013-04-21T13:53:52Z</time>
      </trkpt>
      <trkpt lat="59.8558408" lon="17.7257693">
        <ele>18.8831</ele>
        <time>2013-04-21T13:53:53Z</time>
      </trkpt>
      <trkpt lat="59.8558814" lon="17.7256598">
        <ele>18.8831</ele>
        <time>2013-04-21T13:53:54Z</time>
      </trkpt>
      <trkpt lat="59.8559235" lon="17.7255517">
        <ele>18.8831</ele>
        <time>2013-04-21T13:53:55Z</time>
      </trkpt>
      <trkpt lat="59.8559667" lon="17.7254457">
        <ele>18.8831</ele>
        <time>2013-04-21T13:53:56Z</time>
      </trkpt>
      <trkpt lat="59.8560102" lon="17.7253411">
        <ele>18.8831</ele>
        <time>2013-04-21T13:53:57Z</time>
      </trkpt>
      <trkpt lat="59.8560533" lon="17.7252386">
        <ele>18.8831</ele>
        <time>2013-04-21T13:53:58Z</time>
      </trkpt>
      <trkpt lat="59.8560965" lon="17.7251395">
        <ele>18.8831</ele>
        <time>2013-04-21T13:53:59Z</time>
      </trkpt>
      <trkpt lat="59.8561385" lon="17.7250396">
        <ele>18.8831</ele>
        <time>2013-04-21T13:54:00Z</time>
      </trkpt>
      <trkpt lat="59.8561796" lon="17.7249386">
        <ele>18.8831</ele>
        <time>2013-04-21T13:54:01Z</time>
      </trkpt>
      <trkpt lat="59.8562205" lon="17.7248376">
        <ele>18.8831</ele>
        <time>2013-04-21T13:54:02Z</time>
      </trkpt>
      <trkpt lat="59.8562611" lon="17.724737">
        <ele>19.3638</ele>
        <time>2013-04-21T13:54:03Z</time>
      </trkpt>
      <trkpt lat="59.8563019" lon="17.7246369">
        <ele>19.3638</ele>
        <time>2013-04-21T13:54:04Z</time>
      </trkpt>
      <trkpt lat="59.8563423" lon="17.7245356">
        <ele>19.3638</ele>
        <time>2013-04-21T13:54:05Z</time>
      </trkpt>
      <trkpt lat="59.8563828" lon="17.7244333">
        <ele>19.3638</ele>
        <time>2013-04-21T13:54:06Z</time>
      </trkpt>
      <trkpt lat="59.8564241" lon="17.724332">
        <ele>19.3638</ele>
        <time>2013-04-21T13:54:07Z</time>
      </trkpt>
      <trkpt lat="59.8564657" lon="17.7242327">
        <ele>19.3638</ele>
        <time>2013-04-21T13:54:08Z</time>
      </trkpt>
      <trkpt lat="59.8565075" lon="17.7241352">
        <ele>19.3638</ele>
        <time>2013-04-21T13:54:09Z</time>
      </trkpt>
      <trkpt lat="59.8565489" lon="17.7240424">
        <ele>19.3638</ele>
        <time>2013-04-21T13:54:10Z</time>
      </trkpt>
      <trkpt lat="59.8565902" lon="17.7239569">
        <ele>19.3638</ele>
        <time>2013-04-21T13:54:11Z</time>
      </trkpt>
      <trkpt lat="59.8566318" lon="17.7238725">
        <ele>19.8444</ele>
        <time>2013-04-21T13:54:12Z</time>
      </trkpt>
      <trkpt lat="59.8566734" lon="17.723788">
        <ele>19.8444</ele>
        <time>2013-04-21T13:54:13Z</time>
      </trkpt>
      <trkpt lat="59.8567152" lon="17.7237035">
        <ele>20.325</ele>
        <time>2013-04-21T13:54:14Z</time>
      </trkpt>
      <trkpt lat="59.8567567" lon="17.7236188">
        <ele>20.8057</ele>
        <time>2013-04-21T13:54:15Z</time>
      </trkpt>
      <trkpt lat="59.8567981" lon="17.7235369">
        <ele>21.2864</ele>
        <time>2013-04-21T13:54:16Z</time>
      </trkpt>
      <trkpt lat="59.8568384" lon="17.7234559">
        <ele>21.2864</ele>
        <time>2013-04-21T13:54:17Z</time>
      </trkpt>
      <trkpt lat="59.8568769" lon="17.7233782">
        <ele>21.767</ele>
        <time>2013-04-21T13:54:18Z</time>
      </trkpt>
      <trkpt lat="59.8569155" lon="17.7233042">
        <ele>22.2476</ele>
        <time>2013-04-21T13:54:19Z</time>
      </trkpt>
      <trkpt lat="59.8569542" lon="17.7232333">
        <ele>22.7283</ele>
        <time>2013-04-21T13:54:20Z</time>
      </trkpt>
      <trkpt lat="59.8569938" lon="17.7231648">
        <ele>22.7283</ele>
        <time>2013-04-21T13:54:21Z</time>
      </trkpt>
      <trkpt lat="59.8570328" lon="17.7230966">
        <ele>23.209</ele>
        <time>2013-04-21T13:54:22Z</time>
      </trkpt>
      <trkpt lat="59.857072" lon="17.7230309">
        <ele>23.6896</ele>
        <time>2013-04-21T13:54:23Z</time>
      </trkpt>
      <trkpt lat="59.8571126" lon="17.7229676">
        <ele>24.1703</ele>
        <time>2013-04-21T13:54:24Z</time>
      </trkpt>
      <trkpt lat="59.8571562" lon="17.7229038">
        <ele>24.1703</ele>
        <time>2013-04-21T13:54:25Z</time>
      </trkpt>
      <trkpt lat="59.8571997" lon="17.7228381">
        <ele>24.651</ele>
        <time>2013-04-21T13:54:26Z</time>
      </trkpt>
      <trkpt lat="59.8572409" lon="17.7227731">
        <ele>24.651</ele>
        <time>2013-04-21T13:54:27Z</time>
      </trkpt>
      <trkpt lat="59.8572814" lon="17.7227058">
        <ele>25.1317</ele>
        <time>2013-04-21T13:54:28Z</time>
      </trkpt>
      <trkpt lat="59.8573209" lon="17.7226343">
        <ele>25.1317</ele>
        <time>2013-04-21T13:54:29Z</time>
      </trkpt>
      <trkpt lat="59.8573602" lon="17.7225621">
        <ele>25.1317</ele>
        <time>2013-04-21T13:54:30Z</time>
      </trkpt>
      <trkpt lat="59.8573999" lon="17.7224913">
        <ele>25.6123</ele>
        <time>2013-04-21T13:54:31Z</time>
      </trkpt>
      <trkpt lat="59.8574395" lon="17.7224201">
        <ele>25.6123</ele>
        <time>2013-04-21T13:54:32Z</time>
      </trkpt>
      <trkpt lat="59.8574793" lon="17.7223486">
        <ele>25.6123</ele>
        <time>2013-04-21T13:54:33Z</time>
      </trkpt>
      <trkpt lat="59.8575165" lon="17.7222738">
        <ele>25.6123</ele>
        <time>2013-04-21T13:54:34Z</time>
      </trkpt>
      <trkpt lat="59.8575501" lon="17.7221937">
        <ele>25.6123</ele>
        <time>2013-04-21T13:54:35Z</time>
      </trkpt>
      <trkpt lat="59.8575823" lon="17.7221091">
        <ele>25.6123</ele>
        <time>2013-04-21T13:54:36Z</time>
      </trkpt>
      <trkpt lat="59.857613" lon="17.7220207">
        <ele>25.6123</ele>
        <time>2013-04-21T13:54:37Z</time>
      </trkpt>
      <trkpt lat="59.8576404" lon="17.7219274">
        <ele>25.6123</ele>
        <time>2013-04-21T13:54:38Z</time>
      </trkpt>
      <trkpt lat="59.857664" lon="17.7218295">
        <ele>25.1317</ele>
        <time>2013-04-21T13:54:39Z</time>
      </trkpt>
      <trkpt lat="59.8576839" lon="17.721727">
        <ele>25.1317</ele>
        <time>2013-04-21T13:54:40Z</time>
      </trkpt>
      <trkpt lat="59.8577001" lon="17.7216208">
        <ele>24.651</ele>
        <time>2013-04-21T13:54:41Z</time>
      </trkpt>
      <trkpt lat="59.8577117" lon="17.7215111">
        <ele>24.651</ele>
        <time>2013-04-21T13:54:42Z</time>
      </trkpt>
      <trkpt lat="59.8577176" lon="17.7213974">
        <ele>24.651</ele>
        <time>2013-04-21T13:54:43Z</time>
      </trkpt>
      <trkpt lat="59.8577186" lon="17.7212813">
        <ele>24.651</ele>
        <time>2013-04-21T13:54:44Z</time>
      </trkpt>
      <trkpt lat="59.857716" lon="17.7211627">
        <ele>24.651</ele>
        <time>2013-04-21T13:54:45Z</time>
      </trkpt>
      <trkpt lat="59.857714" lon="17.7210404">
        <ele>24.1703</ele>
        <time>2013-04-21T13:54:46Z</time>
      </trkpt>
      <trkpt lat="59.8577132" lon="17.7209167">
        <ele>24.1703</ele>
        <time>2013-04-21T13:54:47Z</time>
      </trkpt>
      <trkpt lat="59.8577148" lon="17.7207893">
        <ele>23.6896</ele>
        <time>2013-04-21T13:54:48Z</time>
      </trkpt>
      <trkpt lat="59.8577179" lon="17.7206573">
        <ele>23.6896</ele>
        <time>2013-04-21T13:54:49Z</time>
      </trkpt>
      <trkpt lat="59.8577203" lon="17.7205187">
        <ele>23.6896</ele>
        <time>2013-04-21T13:54:50Z</time>
      </trkpt>
      <trkpt lat="59.8577202" lon="17.7203755">
        <ele>23.209</ele>
        <time>2013-04-21T13:54:51Z</time>
      </trkpt>
      <trkpt lat="59.8577171" lon="17.7202294">
        <ele>22.7283</ele>
        <time>2013-04-21T13:54:52Z</time>
      </trkpt>
      <trkpt lat="59.8577124" lon="17.7200812">
        <ele>22.7283</ele>
        <time>2013-04-21T13:54:53Z</time>
      </trkpt>
      <trkpt lat="59.8577061" lon="17.7199318">
        <ele>22.2476</ele>
        <time>2013-04-21T13:54:54Z</time>
      </trkpt>
      <trkpt lat="59.8576989" lon="17.7197813">
        <ele>21.767</ele>
        <time>2013-04-21T13:54:55Z</time>
      </trkpt>
      <trkpt lat="59.8576915" lon="17.7196295">
        <ele>21.767</ele>
        <time>2013-04-21T13:54:56Z</time>
      </trkpt>
      <trkpt lat="59.8576834" lon="17.7194783">
        <ele>21.767</ele>
        <time>2013-04-21T13:54:57Z</time>
      </trkpt>
      <trkpt lat="59.8576762" lon="17.7193281">
        <ele>21.2864</ele>
        <time>2013-04-21T13:54:58Z</time>
      </trkpt>
      <trkpt lat="59.8576705" lon="17.7191794">
        <ele>21.2864</ele>
        <time>2013-04-21T13:54:59Z</time>
      </trkpt>
      <trkpt lat="59.8576653" lon="17.7190323">
        <ele>21.2864</ele>
        <time>2013-04-21T13:55:00Z</time>
      </trkpt>
      <trkpt lat="59.8576586" lon="17.7188867">
        <ele>21.2864</ele>
        <time>2013-04-21T13:55:01Z</time>
      </trkpt>
      <trkpt lat="59.8576537" lon="17.7187438">
        <ele>20.8057</ele>
        <time>2013-04-21T13:55:02Z</time>
      </trkpt>
      <trkpt lat="59.8576506" lon="17.7186023">
        <ele>20.8057</ele>
        <time>2013-04-21T13:55:03Z</time>
      </trkpt>
      <trkpt lat="59.85765" lon="17.7184623">
        <ele>20.8057</ele>
        <time>2013-04-21T13:55:04Z</time>
      </trkpt>
      <trkpt lat="59.8576542" lon="17.7183236">
        <ele>20.8057</ele>
        <time>2013-04-21T13:55:05Z</time>
      </trkpt>
      <trkpt lat="59.8576627" lon="17.7181863">
        <ele>20.8057</ele>
        <time>2013-04-21T13:55:06Z</time>
      </trkpt>
      <trkpt lat="59.8576706" lon="17.7180496">
        <ele>20.8057</ele>
        <time>2013-04-21T13:55:07Z</time>
      </trkpt>
      <trkpt lat="59.857676" lon="17.7179143">
        <ele>20.325</ele>
        <time>2013-04-21T13:55:08Z</time>
      </trkpt>
      <trkpt lat="59.8576798" lon="17.7177813">
        <ele>20.325</ele>
        <time>2013-04-21T13:55:09Z</time>
      </trkpt>
      <trkpt lat="59.8576824" lon="17.7176496">
        <ele>20.325</ele>
        <time>2013-04-21T13:55:10Z</time>
      </trkpt>
      <trkpt lat="59.8576832" lon="17.7175181">
        <ele>20.325</ele>
        <time>2013-04-21T13:55:11Z</time>
      </trkpt>
      <trkpt lat="59.8576827" lon="17.7173871">
        <ele>20.325</ele>
        <time>2013-04-21T13:55:12Z</time>
      </trkpt>
      <trkpt lat="59.8576811" lon="17.7172564">
        <ele>20.325</ele>
        <time>2013-04-21T13:55:13Z</time>
      </trkpt>
      <trkpt lat="59.8576773" lon="17.7171265">
        <ele>20.325</ele>
        <time>2013-04-21T13:55:14Z</time>
      </trkpt>
      <trkpt lat="59.8576716" lon="17.7169971">
        <ele>20.325</ele>
        <time>2013-04-21T13:55:15Z</time>
      </trkpt>
      <trkpt lat="59.8576651" lon="17.7168676">
        <ele>20.325</ele>
        <time>2013-04-21T13:55:16Z</time>
      </trkpt>
      <trkpt lat="59.8576583" lon="17.716738">
        <ele>20.325</ele>
        <time>2013-04-21T13:55:17Z</time>
      </trkpt>
      <trkpt lat="59.8576512" lon="17.7166075">
        <ele>19.8444</ele>
        <time>2013-04-21T13:55:18Z</time>
      </trkpt>
      <trkpt lat="59.8576444" lon="17.7164769">
        <ele>19.8444</ele>
        <time>2013-04-21T13:55:19Z</time>
      </trkpt>
      <trkpt lat="59.8576384" lon="17.7163472">
        <ele>19.8444</ele>
        <time>2013-04-21T13:55:20Z</time>
      </trkpt>
      <trkpt lat="59.8576352" lon="17.7162162">
        <ele>19.8444</ele>
        <time>2013-04-21T13:55:21Z</time>
      </trkpt>
      <trkpt lat="59.8576356" lon="17.7160838">
        <ele>19.8444</ele>
        <time>2013-04-21T13:55:22Z</time>
      </trkpt>
      <trkpt lat="59.8576402" lon="17.7159506">
        <ele>19.8444</ele>
        <time>2013-04-21T13:55:23Z</time>
      </trkpt>
      <trkpt lat="59.8576503" lon="17.715816">
        <ele>19.8444</ele>
        <time>2013-04-21T13:55:24Z</time>
      </trkpt>
      <trkpt lat="59.8576651" lon="17.7156805">
        <ele>19.8444</ele>
        <time>2013-04-21T13:55:25Z</time>
      </trkpt>
      <trkpt lat="59.8576829" lon="17.7155441">
        <ele>19.8444</ele>
        <time>2013-04-21T13:55:26Z</time>
      </trkpt>
      <trkpt lat="59.857704" lon="17.7154086">
        <ele>19.8444</ele>
        <time>2013-04-21T13:55:27Z</time>
      </trkpt>
      <trkpt lat="59.8577269" lon="17.715273">
        <ele>19.8444</ele>
        <time>2013-04-21T13:55:28Z</time>
      </trkpt>
      <trkpt lat="59.8577523" lon="17.7151389">
        <ele>19.8444</ele>
        <time>2013-04-21T13:55:29Z</time>
      </trkpt>
      <trkpt lat="59.8577793" lon="17.7150068">
        <ele>19.8444</ele>
        <time>2013-04-21T13:55:30Z</time>
      </trkpt>
      <trkpt lat="59.8578063" lon="17.7148763">
        <ele>19.8444</ele>
        <time>2013-04-21T13:55:31Z</time>
      </trkpt>
      <trkpt lat="59.8578357" lon="17.7147513">
        <ele>19.8444</ele>
        <time>2013-04-21T13:55:32Z</time>
      </trkpt>
      <trkpt lat="59.8578697" lon="17.7146343">
        <ele>19.8444</ele>
        <time>2013-04-21T13:55:33Z</time>
      </trkpt>
      <trkpt lat="59.8579059" lon="17.7145234">
        <ele>19.8444</ele>
        <time>2013-04-21T13:55:34Z</time>
      </trkpt>
      <trkpt lat="59.8579433" lon="17.7144157">
        <ele>19.8444</ele>
        <time>2013-04-21T13:55:35Z</time>
      </trkpt>
      <trkpt lat="59.8579819" lon="17.7143102">
        <ele>19.8444</ele>
        <time>2013-04-21T13:55:36Z</time>
      </trkpt>
      <trkpt lat="59.8580215" lon="17.7142065">
        <ele>19.8444</ele>
        <time>2013-04-21T13:55:37Z</time>
      </trkpt>
      <trkpt lat="59.8580604" lon="17.7141029">
        <ele>20.325</ele>
        <time>2013-04-21T13:55:38Z</time>
      </trkpt>
      <trkpt lat="59.8580958" lon="17.7139962">
        <ele>19.8444</ele>
        <time>2013-04-21T13:55:39Z</time>
      </trkpt>
      <trkpt lat="59.8581273" lon="17.7138841">
        <ele>20.325</ele>
        <time>2013-04-21T13:55:40Z</time>
      </trkpt>
      <trkpt lat="59.8581557" lon="17.7137665">
        <ele>20.325</ele>
        <time>2013-04-21T13:55:41Z</time>
      </trkpt>
      <trkpt lat="59.8581794" lon="17.7136423">
        <ele>20.325</ele>
        <time>2013-04-21T13:55:42Z</time>
      </trkpt>
      <trkpt lat="59.8581993" lon="17.7135123">
        <ele>20.325</ele>
        <time>2013-04-21T13:55:43Z</time>
      </trkpt>
      <trkpt lat="59.8582178" lon="17.7133796">
        <ele>20.325</ele>
        <time>2013-04-21T13:55:44Z</time>
      </trkpt>
      <trkpt lat="59.8582338" lon="17.7132456">
        <ele>20.325</ele>
        <time>2013-04-21T13:55:45Z</time>
      </trkpt>
      <trkpt lat="59.858247" lon="17.7131122">
        <ele>20.325</ele>
        <time>2013-04-21T13:55:46Z</time>
      </trkpt>
      <trkpt lat="59.8582587" lon="17.7129802">
        <ele>20.325</ele>
        <time>2013-04-21T13:55:47Z</time>
      </trkpt>
      <trkpt lat="59.8582708" lon="17.7128504">
        <ele>20.325</ele>
        <time>2013-04-21T13:55:48Z</time>
      </trkpt>
      <trkpt lat="59.8582848" lon="17.712724">
        <ele>20.325</ele>
        <time>2013-04-21T13:55:49Z</time>
      </trkpt>
      <trkpt lat="59.8583014" lon="17.7126012">
        <ele>20.8057</ele>
        <time>2013-04-21T13:55:50Z</time>
      </trkpt>
      <trkpt lat="59.8583198" lon="17.7124813">
        <ele>20.8057</ele>
        <time>2013-04-21T13:55:51Z</time>
      </trkpt>
      <trkpt lat="59.8583397" lon="17.7123643">
        <ele>20.8057</ele>
        <time>2013-04-21T13:55:52Z</time>
      </trkpt>
      <trkpt lat="59.8583628" lon="17.71225">
        <ele>21.2864</ele>
        <time>2013-04-21T13:55:53Z</time>
      </trkpt>
      <trkpt lat="59.8583877" lon="17.7121373">
        <ele>21.2864</ele>
        <time>2013-04-21T13:55:54Z</time>
      </trkpt>
      <trkpt lat="59.8584124" lon="17.7120275">
        <ele>21.2864</ele>
        <time>2013-04-21T13:55:55Z</time>
      </trkpt>
      <trkpt lat="59.8584359" lon="17.7119188">
        <ele>21.2864</ele>
        <time>2013-04-21T13:55:56Z</time>
      </trkpt>
      <trkpt lat="59.8584584" lon="17.7118116">
        <ele>21.2864</ele>
        <time>2013-04-21T13:55:57Z</time>
      </trkpt>
      <trkpt lat="59.8584799" lon="17.7117034">
        <ele>21.2864</ele>
        <time>2013-04-21T13:55:58Z</time>
      </trkpt>
      <trkpt lat="59.8584993" lon="17.7115924">
        <ele>21.2864</ele>
        <time>2013-04-21T13:55:59Z</time>
      </trkpt>
      <trkpt lat="59.8585153" lon="17.711479">
        <ele>21.2864</ele>
        <time>2013-04-21T13:56:00Z</time>
      </trkpt>
      <trkpt lat="59.8585266" lon="17.7113646">
        <ele>21.2864</ele>
        <time>2013-04-21T13:56:01Z</time>
      </trkpt>
      <trkpt lat="59.858534" lon="17.7112516">
        <ele>21.2864</ele>
        <time>2013-04-21T13:56:02Z</time>
      </trkpt>
      <trkpt lat="59.8585381" lon="17.7111365">
        <ele>21.2864</ele>
        <time>2013-04-21T13:56:03Z</time>
      </trkpt>
      <trkpt lat="59.858537" lon="17.7110197">
        <ele>21.2864</ele>
        <time>2013-04-21T13:56:04Z</time>
      </trkpt>
      <trkpt lat="59.8585309" lon="17.7109021">
        <ele>20.8057</ele>
        <time>2013-04-21T13:56:05Z</time>
      </trkpt>
      <trkpt lat="59.8585205" lon="17.710784">
        <ele>20.325</ele>
        <time>2013-04-21T13:56:06Z</time>
      </trkpt>
      <trkpt lat="59.8585076" lon="17.7106657">
        <ele>19.8444</ele>
        <time>2013-04-21T13:56:07Z</time>
      </trkpt>
      <trkpt lat="59.8584929" lon="17.7105484">
        <ele>19.3638</ele>
        <time>2013-04-21T13:56:08Z</time>
      </trkpt>
      <trkpt lat="59.8584748" lon="17.710438">
        <ele>19.3638</ele>
        <time>2013-04-21T13:56:09Z</time>
      </trkpt>
      <trkpt lat="59.8584582" lon="17.7103314">
        <ele>18.8831</ele>
        <time>2013-04-21T13:56:10Z</time>
      </trkpt>
      <trkpt lat="59.8584418" lon="17.7102286">
        <ele>18.4023</ele>
        <time>2013-04-21T13:56:11Z</time>
      </trkpt>
      <trkpt lat="59.8584257" lon="17.7101234">
        <ele>17.9218</ele>
        <time>2013-04-21T13:56:12Z</time>
      </trkpt>
      <trkpt lat="59.8584092" lon="17.7100143">
        <ele>17.9218</ele>
        <time>2013-04-21T13:56:13Z</time>
      </trkpt>
      <trkpt lat="59.8583932" lon="17.7098993">
        <ele>17.4412</ele>
        <time>2013-04-21T13:56:14Z</time>
      </trkpt>
      <trkpt lat="59.858376" lon="17.7097788">
        <ele>17.4412</ele>
        <time>2013-04-21T13:56:15Z</time>
      </trkpt>
      <trkpt lat="59.8583585" lon="17.7096552">
        <ele>17.4412</ele>
        <time>2013-04-21T13:56:16Z</time>
      </trkpt>
      <trkpt lat="59.8583424" lon="17.7095287">
        <ele>16.9604</ele>
        <time>2013-04-21T13:56:17Z</time>
      </trkpt>
      <trkpt lat="59.8583299" lon="17.7094059">
        <ele>16.9604</ele>
        <time>2013-04-21T13:56:18Z</time>
      </trkpt>
      <trkpt lat="59.858323" lon="17.7092818">
        <ele>16.9604</ele>
        <time>2013-04-21T13:56:19Z</time>
      </trkpt>
      <trkpt lat="59.8583216" lon="17.7091548">
        <ele>16.9604</ele>
        <time>2013-04-21T13:56:20Z</time>
      </trkpt>
      <trkpt lat="59.8583248" lon="17.7090258">
        <ele>16.4797</ele>
        <time>2013-04-21T13:56:21Z</time>
      </trkpt>
      <trkpt lat="59.8583326" lon="17.7088975">
        <ele>16.4797</ele>
        <time>2013-04-21T13:56:22Z</time>
      </trkpt>
      <trkpt lat="59.8583449" lon="17.7087693">
        <ele>16.4797</ele>
        <time>2013-04-21T13:56:23Z</time>
      </trkpt>
      <trkpt lat="59.8583579" lon="17.7086379">
        <ele>16.4797</ele>
        <time>2013-04-21T13:56:24Z</time>
      </trkpt>
      <trkpt lat="59.8583704" lon="17.7085006">
        <ele>16.4797</ele>
        <time>2013-04-21T13:56:25Z</time>
      </trkpt>
      <trkpt lat="59.8584006" lon="17.708224">
        <ele>15.999</ele>
        <time>2013-04-21T13:56:27Z</time>
      </trkpt>
      <trkpt lat="59.8584165" lon="17.7080836">
        <ele>15.999</ele>
        <time>2013-04-21T13:56:28Z</time>
      </trkpt>
      <trkpt lat="59.8584329" lon="17.7079422">
        <ele>15.5184</ele>
        <time>2013-04-21T13:56:29Z</time>
      </trkpt>
      <trkpt lat="59.8584509" lon="17.7078003">
        <ele>15.0377</ele>
        <time>2013-04-21T13:56:30Z</time>
      </trkpt>
      <trkpt lat="59.8584703" lon="17.7076583">
        <ele>15.0377</ele>
        <time>2013-04-21T13:56:31Z</time>
      </trkpt>
      <trkpt lat="59.8584887" lon="17.7075164">
        <ele>14.557</ele>
        <time>2013-04-21T13:56:32Z</time>
      </trkpt>
      <trkpt lat="59.8585058" lon="17.7073766">
        <ele>14.0764</ele>
        <time>2013-04-21T13:56:33Z</time>
      </trkpt>
      <trkpt lat="59.8585211" lon="17.7072346">
        <ele>14.0764</ele>
        <time>2013-04-21T13:56:34Z</time>
      </trkpt>
      <trkpt lat="59.858539" lon="17.7070957">
        <ele>13.5958</ele>
        <time>2013-04-21T13:56:35Z</time>
      </trkpt>
      <trkpt lat="59.858555" lon="17.7069579">
        <ele>13.5958</ele>
        <time>2013-04-21T13:56:36Z</time>
      </trkpt>
      <trkpt lat="59.8585718" lon="17.706822">
        <ele>13.5958</ele>
        <time>2013-04-21T13:56:37Z</time>
      </trkpt>
      <trkpt lat="59.8585894" lon="17.7066865">
        <ele>13.5958</ele>
        <time>2013-04-21T13:56:38Z</time>
      </trkpt>
      <trkpt lat="59.8586055" lon="17.7065493">
        <ele>13.5958</ele>
        <time>2013-04-21T13:56:39Z</time>
      </trkpt>
      <trkpt lat="59.8586209" lon="17.7064115">
        <ele>13.5958</ele>
        <time>2013-04-21T13:56:40Z</time>
      </trkpt>
      <trkpt lat="59.8586376" lon="17.7062774">
        <ele>13.5958</ele>
        <time>2013-04-21T13:56:41Z</time>
      </trkpt>
      <trkpt lat="59.8586567" lon="17.7061487">
        <ele>13.1151</ele>
        <time>2013-04-21T13:56:42Z</time>
      </trkpt>
      <trkpt lat="59.8586757" lon="17.706025">
        <ele>13.1151</ele>
        <time>2013-04-21T13:56:43Z</time>
      </trkpt>
      <trkpt lat="59.8586955" lon="17.705908">
        <ele>13.5958</ele>
        <time>2013-04-21T13:56:44Z</time>
      </trkpt>
      <trkpt lat="59.8587149" lon="17.7057926">
        <ele>14.557</ele>
        <time>2013-04-21T13:56:45Z</time>
      </trkpt>
      <trkpt lat="59.8587332" lon="17.705679">
        <ele>15.0377</ele>
        <time>2013-04-21T13:56:46Z</time>
      </trkpt>
      <trkpt lat="59.8587505" lon="17.7055702">
        <ele>15.5184</ele>
        <time>2013-04-21T13:56:47Z</time>
      </trkpt>
      <trkpt lat="59.8587749" lon="17.7054821">
        <ele>15.999</ele>
        <time>2013-04-21T13:56:48Z</time>
      </trkpt>
      <trkpt lat="59.8588126" lon="17.7054287">
        <ele>15.999</ele>
        <time>2013-04-21T13:56:49Z</time>
      </trkpt>
      <trkpt lat="59.858856" lon="17.7054168">
        <ele>15.999</ele>
        <time>2013-04-21T13:56:50Z</time>
      </trkpt>
      <trkpt lat="59.8588976" lon="17.7054547">
        <ele>15.999</ele>
        <time>2013-04-21T13:56:51Z</time>
      </trkpt>
      <trkpt lat="59.8589319" lon="17.7055293">
        <ele>15.999</ele>
        <time>2013-04-21T13:56:52Z</time>
      </trkpt>
      <trkpt lat="59.8589619" lon="17.7056189">
        <ele>16.4797</ele>
        <time>2013-04-21T13:56:53Z</time>
      </trkpt>
      <trkpt lat="59.8589953" lon="17.7057096">
        <ele>16.4797</ele>
        <time>2013-04-21T13:56:54Z</time>
      </trkpt>
      <trkpt lat="59.8590338" lon="17.705799">
        <ele>16.4797</ele>
        <time>2013-04-21T13:56:55Z</time>
      </trkpt>
      <trkpt lat="59.8590749" lon="17.7058898">
        <ele>16.9604</ele>
        <time>2013-04-21T13:56:56Z</time>
      </trkpt>
      <trkpt lat="59.8591161" lon="17.7059836">
        <ele>16.9604</ele>
        <time>2013-04-21T13:56:57Z</time>
      </trkpt>
      <trkpt lat="59.859158" lon="17.7060774">
        <ele>16.9604</ele>
        <time>2013-04-21T13:56:58Z</time>
      </trkpt>
      <trkpt lat="59.8592033" lon="17.7061686">
        <ele>16.9604</ele>
        <time>2013-04-21T13:56:59Z</time>
      </trkpt>
      <trkpt lat="59.8592519" lon="17.7062584">
        <ele>17.4412</ele>
        <time>2013-04-21T13:57:00Z</time>
      </trkpt>
      <trkpt lat="59.8593017" lon="17.7063505">
        <ele>17.4412</ele>
        <time>2013-04-21T13:57:01Z</time>
      </trkpt>
      <trkpt lat="59.8593539" lon="17.706445">
        <ele>17.4412</ele>
        <time>2013-04-21T13:57:02Z</time>
      </trkpt>
      <trkpt lat="59.8594073" lon="17.7065406">
        <ele>17.4412</ele>
        <time>2013-04-21T13:57:03Z</time>
      </trkpt>
      <trkpt lat="59.8594634" lon="17.7066367">
        <ele>17.9218</ele>
        <time>2013-04-21T13:57:04Z</time>
      </trkpt>
      <trkpt lat="59.8595223" lon="17.7067306">
        <ele>17.9218</ele>
        <time>2013-04-21T13:57:05Z</time>
      </trkpt>
      <trkpt lat="59.8595834" lon="17.7068234">
        <ele>17.9218</ele>
        <time>2013-04-21T13:57:06Z</time>
      </trkpt>
      <trkpt lat="59.8596477" lon="17.7069164">
        <ele>17.9218</ele>
        <time>2013-04-21T13:57:07Z</time>
      </trkpt>
      <trkpt lat="59.859714" lon="17.7070093">
        <ele>17.9218</ele>
        <time>2013-04-21T13:57:08Z</time>
      </trkpt>
      <trkpt lat="59.8597813" lon="17.7071004">
        <ele>17.9218</ele>
        <time>2013-04-21T13:57:09Z</time>
      </trkpt>
      <trkpt lat="59.8598497" lon="17.7071886">
        <ele>17.9218</ele>
        <time>2013-04-21T13:57:10Z</time>
      </trkpt>
      <trkpt lat="59.8599207" lon="17.707274">
        <ele>17.9218</ele>
        <time>2013-04-21T13:57:11Z</time>
      </trkpt>
      <trkpt lat="59.8599884" lon="17.7073589">
        <ele>17.9218</ele>
        <time>2013-04-21T13:57:12Z</time>
      </trkpt>
      <trkpt lat="59.8600549" lon="17.7074432">
        <ele>17.9218</ele>
        <time>2013-04-21T13:57:13Z</time>
      </trkpt>
      <trkpt lat="59.8601181" lon="17.7075286">
        <ele>18.4023</ele>
        <time>2013-04-21T13:57:14Z</time>
      </trkpt>
      <trkpt lat="59.8601793" lon="17.7076128">
        <ele>18.4023</ele>
        <time>2013-04-21T13:57:15Z</time>
      </trkpt>
      <trkpt lat="59.8602407" lon="17.7076951">
        <ele>18.8831</ele>
        <time>2013-04-21T13:57:16Z</time>
      </trkpt>
      <trkpt lat="59.8603007" lon="17.707775">
        <ele>18.8831</ele>
        <time>2013-04-21T13:57:17Z</time>
      </trkpt>
      <trkpt lat="59.860361" lon="17.7078546">
        <ele>18.8831</ele>
        <time>2013-04-21T13:57:18Z</time>
      </trkpt>
      <trkpt lat="59.8604222" lon="17.7079339">
        <ele>19.3638</ele>
        <time>2013-04-21T13:57:19Z</time>
      </trkpt>
      <trkpt lat="59.8604842" lon="17.7080126">
        <ele>19.3638</ele>
        <time>2013-04-21T13:57:20Z</time>
      </trkpt>
      <trkpt lat="59.8605464" lon="17.7080907">
        <ele>19.8444</ele>
        <time>2013-04-21T13:57:21Z</time>
      </trkpt>
      <trkpt lat="59.8606089" lon="17.7081695">
        <ele>20.325</ele>
        <time>2013-04-21T13:57:22Z</time>
      </trkpt>
      <trkpt lat="59.8606734" lon="17.7082473">
        <ele>20.8057</ele>
        <time>2013-04-21T13:57:23Z</time>
      </trkpt>
      <trkpt lat="59.860735" lon="17.708326">
        <ele>20.8057</ele>
        <time>2013-04-21T13:57:24Z</time>
      </trkpt>
      <trkpt lat="59.860796" lon="17.7084043">
        <ele>21.2864</ele>
        <time>2013-04-21T13:57:25Z</time>
      </trkpt>
      <trkpt lat="59.8608561" lon="17.7084846">
        <ele>21.767</ele>
        <time>2013-04-21T13:57:26Z</time>
      </trkpt>
      <trkpt lat="59.8609122" lon="17.7085717">
        <ele>21.767</ele>
        <time>2013-04-21T13:57:27Z</time>
      </trkpt>
      <trkpt lat="59.860967" lon="17.7086695">
        <ele>21.767</ele>
        <time>2013-04-21T13:57:28Z</time>
      </trkpt>
      <trkpt lat="59.8610184" lon="17.7087744">
        <ele>21.767</ele>
        <time>2013-04-21T13:57:29Z</time>
      </trkpt>
      <trkpt lat="59.8610689" lon="17.7088813">
        <ele>21.767</ele>
        <time>2013-04-21T13:57:30Z</time>
      </trkpt>
      <trkpt lat="59.8611194" lon="17.7089892">
        <ele>22.2476</ele>
        <time>2013-04-21T13:57:31Z</time>
      </trkpt>
      <trkpt lat="59.8611715" lon="17.7090959">
        <ele>22.2476</ele>
        <time>2013-04-21T13:57:32Z</time>
      </trkpt>
      <trkpt lat="59.861225" lon="17.7092004">
        <ele>22.2476</ele>
        <time>2013-04-21T13:57:33Z</time>
      </trkpt>
      <trkpt lat="59.8612788" lon="17.709304">
        <ele>22.2476</ele>
        <time>2013-04-21T13:57:34Z</time>
      </trkpt>
      <trkpt lat="59.8613322" lon="17.7094092">
        <ele>22.2476</ele>
        <time>2013-04-21T13:57:35Z</time>
      </trkpt>
      <trkpt lat="59.8613846" lon="17.7095167">
        <ele>22.2476</ele>
        <time>2013-04-21T13:57:36Z</time>
      </trkpt>
      <trkpt lat="59.8614364" lon="17.7096256">
        <ele>22.2476</ele>
        <time>2013-04-21T13:57:37Z</time>
      </trkpt>
      <trkpt lat="59.8614887" lon="17.709734">
        <ele>22.2476</ele>
        <time>2013-04-21T13:57:38Z</time>
      </trkpt>
      <trkpt lat="59.8615416" lon="17.709842">
        <ele>22.2476</ele>
        <time>2013-04-21T13:57:39Z</time>
      </trkpt>
      <trkpt lat="59.8615944" lon="17.7099521">
        <ele>22.2476</ele>
        <time>2013-04-21T13:57:40Z</time>
      </trkpt>
      <trkpt lat="59.8616476" lon="17.710064">
        <ele>22.2476</ele>
        <time>2013-04-21T13:57:41Z</time>
      </trkpt>
      <trkpt lat="59.8617011" lon="17.7101744">
        <ele>22.2476</ele>
        <time>2013-04-21T13:57:42Z</time>
      </trkpt>
      <trkpt lat="59.8617537" lon="17.710283">
        <ele>22.2476</ele>
        <time>2013-04-21T13:57:43Z</time>
      </trkpt>
      <trkpt lat="59.861803" lon="17.7103939">
        <ele>22.7283</ele>
        <time>2013-04-21T13:57:44Z</time>
      </trkpt>
      <trkpt lat="59.8618497" lon="17.7105063">
        <ele>22.2476</ele>
        <time>2013-04-21T13:57:45Z</time>
      </trkpt>
      <trkpt lat="59.8618972" lon="17.7106163">
        <ele>22.2476</ele>
        <time>2013-04-21T13:57:46Z</time>
      </trkpt>
      <trkpt lat="59.8619469" lon="17.7107259">
        <ele>22.2476</ele>
        <time>2013-04-21T13:57:47Z</time>
      </trkpt>
      <trkpt lat="59.8619964" lon="17.7108362">
        <ele>22.2476</ele>
        <time>2013-04-21T13:57:48Z</time>
      </trkpt>
      <trkpt lat="59.8620461" lon="17.7109452">
        <ele>22.2476</ele>
        <time>2013-04-21T13:57:49Z</time>
      </trkpt>
      <trkpt lat="59.8620962" lon="17.7110517">
        <ele>22.2476</ele>
        <time>2013-04-21T13:57:50Z</time>
      </trkpt>
      <trkpt lat="59.8621475" lon="17.7111548">
        <ele>22.2476</ele>
        <time>2013-04-21T13:57:51Z</time>
      </trkpt>
      <trkpt lat="59.8622013" lon="17.7112523">
        <ele>22.2476</ele>
        <time>2013-04-21T13:57:52Z</time>
      </trkpt>
      <trkpt lat="59.8622593" lon="17.7113407">
        <ele>22.2476</ele>
        <time>2013-04-21T13:57:53Z</time>
      </trkpt>
      <trkpt lat="59.8623213" lon="17.7114192">
        <ele>22.2476</ele>
        <time>2013-04-21T13:57:54Z</time>
      </trkpt>
      <trkpt lat="59.8623867" lon="17.7114886">
        <ele>22.2476</ele>
        <time>2013-04-21T13:57:55Z</time>
      </trkpt>
      <trkpt lat="59.8624539" lon="17.7115492">
        <ele>22.2476</ele>
        <time>2013-04-21T13:57:56Z</time>
      </trkpt>
      <trkpt lat="59.8625242" lon="17.7116002">
        <ele>22.2476</ele>
        <time>2013-04-21T13:57:57Z</time>
      </trkpt>
      <trkpt lat="59.8625962" lon="17.7116381">
        <ele>21.767</ele>
        <time>2013-04-21T13:57:58Z</time>
      </trkpt>
      <trkpt lat="59.8626714" lon="17.711663">
        <ele>21.767</ele>
        <time>2013-04-21T13:57:59Z</time>
      </trkpt>
      <trkpt lat="59.862749" lon="17.7116739">
        <ele>21.2864</ele>
        <time>2013-04-21T13:58:00Z</time>
      </trkpt>
      <trkpt lat="59.8628283" lon="17.7116713">
        <ele>20.8057</ele>
        <time>2013-04-21T13:58:01Z</time>
      </trkpt>
      <trkpt lat="59.8629086" lon="17.7116523">
        <ele>20.8057</ele>
        <time>2013-04-21T13:58:02Z</time>
      </trkpt>
      <trkpt lat="59.8629878" lon="17.711617">
        <ele>20.325</ele>
        <time>2013-04-21T13:58:03Z</time>
      </trkpt>
      <trkpt lat="59.8630666" lon="17.7115681">
        <ele>19.8444</ele>
        <time>2013-04-21T13:58:04Z</time>
      </trkpt>
      <trkpt lat="59.8631432" lon="17.7115046">
        <ele>19.8444</ele>
        <time>2013-04-21T13:58:05Z</time>
      </trkpt>
      <trkpt lat="59.8632168" lon="17.7114261">
        <ele>19.3638</ele>
        <time>2013-04-21T13:58:06Z</time>
      </trkpt>
      <trkpt lat="59.8632856" lon="17.7113347">
        <ele>19.3638</ele>
        <time>2013-04-21T13:58:07Z</time>
      </trkpt>
      <trkpt lat="59.863351" lon="17.7112388">
        <ele>19.3638</ele>
        <time>2013-04-21T13:58:08Z</time>
      </trkpt>
      <trkpt lat="59.8634139" lon="17.7111409">
        <ele>19.3638</ele>
        <time>2013-04-21T13:58:09Z</time>
      </trkpt>
      <trkpt lat="59.8634742" lon="17.7110421">
        <ele>19.3638</ele>
        <time>2013-04-21T13:58:10Z</time>
      </trkpt>
      <trkpt lat="59.8635328" lon="17.7109425">
        <ele>19.3638</ele>
        <time>2013-04-21T13:58:11Z</time>
      </trkpt>
      <trkpt lat="59.8635903" lon="17.7108426">
        <ele>19.3638</ele>
        <time>2013-04-21T13:58:12Z</time>
      </trkpt>
      <trkpt lat="59.8636467" lon="17.7107441">
        <ele>19.3638</ele>
        <time>2013-04-21T13:58:13Z</time>
      </trkpt>
      <trkpt lat="59.863703" lon="17.7106478">
        <ele>19.3638</ele>
        <time>2013-04-21T13:58:14Z</time>
      </trkpt>
      <trkpt lat="59.8637586" lon="17.7105538">
        <ele>19.3638</ele>
        <time>2013-04-21T13:58:15Z</time>
      </trkpt>
      <trkpt lat="59.8638133" lon="17.7104618">
        <ele>19.3638</ele>
        <time>2013-04-21T13:58:16Z</time>
      </trkpt>
      <trkpt lat="59.8638675" lon="17.7103705">
        <ele>19.3638</ele>
        <time>2013-04-21T13:58:17Z</time>
      </trkpt>
      <trkpt lat="59.8639223" lon="17.7102779">
        <ele>19.3638</ele>
        <time>2013-04-21T13:58:18Z</time>
      </trkpt>
      <trkpt lat="59.8639786" lon="17.7101846">
        <ele>18.8831</ele>
        <time>2013-04-21T13:58:19Z</time>
      </trkpt>
      <trkpt lat="59.8640356" lon="17.7100889">
        <ele>18.8831</ele>
        <time>2013-04-21T13:58:20Z</time>
      </trkpt>
      <trkpt lat="59.8640927" lon="17.7099933">
        <ele>18.4023</ele>
        <time>2013-04-21T13:58:21Z</time>
      </trkpt>
      <trkpt lat="59.8641518" lon="17.7099014">
        <ele>17.9218</ele>
        <time>2013-04-21T13:58:22Z</time>
      </trkpt>
      <trkpt lat="59.8642127" lon="17.7098138">
        <ele>17.9218</ele>
        <time>2013-04-21T13:58:23Z</time>
      </trkpt>
      <trkpt lat="59.8642746" lon="17.7097277">
        <ele>17.9218</ele>
        <time>2013-04-21T13:58:24Z</time>
      </trkpt>
      <trkpt lat="59.8643376" lon="17.7096431">
        <ele>17.4412</ele>
        <time>2013-04-21T13:58:25Z</time>
      </trkpt>
      <trkpt lat="59.8644016" lon="17.7095599">
        <ele>17.4412</ele>
        <time>2013-04-21T13:58:26Z</time>
      </trkpt>
      <trkpt lat="59.8644647" lon="17.7094746">
        <ele>16.9604</ele>
        <time>2013-04-21T13:58:27Z</time>
      </trkpt>
      <trkpt lat="59.864529" lon="17.7093889">
        <ele>16.9604</ele>
        <time>2013-04-21T13:58:28Z</time>
      </trkpt>
      <trkpt lat="59.864595" lon="17.7093057">
        <ele>16.9604</ele>
        <time>2013-04-21T13:58:29Z</time>
      </trkpt>
      <trkpt lat="59.8646613" lon="17.7092258">
        <ele>16.4797</ele>
        <time>2013-04-21T13:58:30Z</time>
      </trkpt>
      <trkpt lat="59.8647278" lon="17.7091455">
        <ele>15.999</ele>
        <time>2013-04-21T13:58:31Z</time>
      </trkpt>
      <trkpt lat="59.8647946" lon="17.7090632">
        <ele>15.999</ele>
        <time>2013-04-21T13:58:32Z</time>
      </trkpt>
      <trkpt lat="59.8648615" lon="17.7089808">
        <ele>15.5184</ele>
        <time>2013-04-21T13:58:33Z</time>
      </trkpt>
      <trkpt lat="59.8649288" lon="17.7089">
        <ele>15.5184</ele>
        <time>2013-04-21T13:58:34Z</time>
      </trkpt>
      <trkpt lat="59.8649956" lon="17.7088193">
        <ele>15.0377</ele>
        <time>2013-04-21T13:58:35Z</time>
      </trkpt>
      <trkpt lat="59.8650607" lon="17.7087369">
        <ele>15.0377</ele>
        <time>2013-04-21T13:58:36Z</time>
      </trkpt>
      <trkpt lat="59.8651245" lon="17.7086519">
        <ele>15.0377</ele>
        <time>2013-04-21T13:58:37Z</time>
      </trkpt>
      <trkpt lat="59.8651862" lon="17.7085633">
        <ele>14.557</ele>
        <time>2013-04-21T13:58:38Z</time>
      </trkpt>
      <trkpt lat="59.8652461" lon="17.7084707">
        <ele>14.557</ele>
        <time>2013-04-21T13:58:39Z</time>
      </trkpt>
      <trkpt lat="59.8653043" lon="17.7083768">
        <ele>15.0377</ele>
        <time>2013-04-21T13:58:40Z</time>
      </trkpt>
      <trkpt lat="59.8653606" lon="17.7082825">
        <ele>15.0377</ele>
        <time>2013-04-21T13:58:41Z</time>
      </trkpt>
      <trkpt lat="59.8654145" lon="17.7081861">
        <ele>15.0377</ele>
        <time>2013-04-21T13:58:42Z</time>
      </trkpt>
      <trkpt lat="59.8654661" lon="17.7080868">
        <ele>15.0377</ele>
        <time>2013-04-21T13:58:43Z</time>
      </trkpt>
      <trkpt lat="59.8655162" lon="17.7079873">
        <ele>15.0377</ele>
        <time>2013-04-21T13:58:44Z</time>
      </trkpt>
      <trkpt lat="59.8655654" lon="17.7078883">
        <ele>15.0377</ele>
        <time>2013-04-21T13:58:45Z</time>
      </trkpt>
      <trkpt lat="59.8656119" lon="17.7077873">
        <ele>15.5184</ele>
        <time>2013-04-21T13:58:46Z</time>
      </trkpt>
      <trkpt lat="59.8656528" lon="17.7076816">
        <ele>15.5184</ele>
        <time>2013-04-21T13:58:47Z</time>
      </trkpt>
      <trkpt lat="59.8656881" lon="17.7075728">
        <ele>15.5184</ele>
        <time>2013-04-21T13:58:48Z</time>
      </trkpt>
      <trkpt lat="59.8657228" lon="17.7074642">
        <ele>15.5184</ele>
        <time>2013-04-21T13:58:49Z</time>
      </trkpt>
      <trkpt lat="59.8657533" lon="17.7073526">
        <ele>15.0377</ele>
        <time>2013-04-21T13:58:50Z</time>
      </trkpt>
      <trkpt lat="59.8657764" lon="17.7072349">
        <ele>15.0377</ele>
        <time>2013-04-21T13:58:51Z</time>
      </trkpt>
      <trkpt lat="59.865787" lon="17.7071129">
        <ele>15.0377</ele>
        <time>2013-04-21T13:58:52Z</time>
      </trkpt>
      <trkpt lat="59.8657804" lon="17.7069885">
        <ele>14.557</ele>
        <time>2013-04-21T13:58:53Z</time>
      </trkpt>
      <trkpt lat="59.8657587" lon="17.7068688">
        <ele>14.557</ele>
        <time>2013-04-21T13:58:54Z</time>
      </trkpt>
      <trkpt lat="59.8657277" lon="17.7067547">
        <ele>14.0764</ele>
        <time>2013-04-21T13:58:55Z</time>
      </trkpt>
      <trkpt lat="59.8656932" lon="17.7066446">
        <ele>14.0764</ele>
        <time>2013-04-21T13:58:56Z</time>
      </trkpt>
      <trkpt lat="59.865657" lon="17.7065367">
        <ele>13.5958</ele>
        <time>2013-04-21T13:58:57Z</time>
      </trkpt>
      <trkpt lat="59.8656192" lon="17.7064302">
        <ele>13.5958</ele>
        <time>2013-04-21T13:58:58Z</time>
      </trkpt>
      <trkpt lat="59.8655803" lon="17.7063249">
        <ele>13.5958</ele>
        <time>2013-04-21T13:58:59Z</time>
      </trkpt>
      <trkpt lat="59.8655399" lon="17.7062219">
        <ele>13.1151</ele>
        <time>2013-04-21T13:59:00Z</time>
      </trkpt>
      <trkpt lat="59.8654981" lon="17.7061215">
        <ele>13.1151</ele>
        <time>2013-04-21T13:59:01Z</time>
      </trkpt>
      <trkpt lat="59.8654577" lon="17.7060198">
        <ele>12.6344</ele>
        <time>2013-04-21T13:59:02Z</time>
      </trkpt>
      <trkpt lat="59.8654194" lon="17.7059147">
        <ele>12.6344</ele>
        <time>2013-04-21T13:59:03Z</time>
      </trkpt>
      <trkpt lat="59.8653841" lon="17.7058067">
        <ele>12.6344</ele>
        <time>2013-04-21T13:59:04Z</time>
      </trkpt>
      <trkpt lat="59.8653532" lon="17.7056951">
        <ele>12.1538</ele>
        <time>2013-04-21T13:59:05Z</time>
      </trkpt>
      <trkpt lat="59.865325" lon="17.7055806">
        <ele>12.1538</ele>
        <time>2013-04-21T13:59:06Z</time>
      </trkpt>
      <trkpt lat="59.8652964" lon="17.7054664">
        <ele>12.1538</ele>
        <time>2013-04-21T13:59:07Z</time>
      </trkpt>
      <trkpt lat="59.8652661" lon="17.7053552">
        <ele>12.1538</ele>
        <time>2013-04-21T13:59:08Z</time>
      </trkpt>
      <trkpt lat="59.8652348" lon="17.7052475">
        <ele>12.1538</ele>
        <time>2013-04-21T13:59:09Z</time>
      </trkpt>
      <trkpt lat="59.8652075" lon="17.7051376">
        <ele>11.6732</ele>
        <time>2013-04-21T13:59:10Z</time>
      </trkpt>
      <trkpt lat="59.8651952" lon="17.7050196">
        <ele>11.6732</ele>
        <time>2013-04-21T13:59:11Z</time>
      </trkpt>
      <trkpt lat="59.8652048" lon="17.7049021">
        <ele>12.1538</ele>
        <time>2013-04-21T13:59:12Z</time>
      </trkpt>
      <trkpt lat="59.8652339" lon="17.7048032">
        <ele>12.1538</ele>
        <time>2013-04-21T13:59:13Z</time>
      </trkpt>
      <trkpt lat="59.8652751" lon="17.7047295">
        <ele>12.1538</ele>
        <time>2013-04-21T13:59:14Z</time>
      </trkpt>
      <trkpt lat="59.8653214" lon="17.7046673">
        <ele>12.1538</ele>
        <time>2013-04-21T13:59:15Z</time>
      </trkpt>
      <trkpt lat="59.8653677" lon="17.7046078">
        <ele>12.1538</ele>
        <time>2013-04-21T13:59:16Z</time>
      </trkpt>
      <trkpt lat="59.8654122" lon="17.7045477">
        <ele>12.6344</ele>
        <time>2013-04-21T13:59:17Z</time>
      </trkpt>
      <trkpt lat="59.865456" lon="17.7044854">
        <ele>12.6344</ele>
        <time>2013-04-21T13:59:18Z</time>
      </trkpt>
      <trkpt lat="59.8654998" lon="17.7044185">
        <ele>12.6344</ele>
        <time>2013-04-21T13:59:19Z</time>
      </trkpt>
      <trkpt lat="59.8655447" lon="17.7043497">
        <ele>12.6344</ele>
        <time>2013-04-21T13:59:20Z</time>
      </trkpt>
      <trkpt lat="59.8655908" lon="17.7042789">
        <ele>12.6344</ele>
        <time>2013-04-21T13:59:21Z</time>
      </trkpt>
      <trkpt lat="59.8656353" lon="17.7042052">
        <ele>12.6344</ele>
        <time>2013-04-21T13:59:22Z</time>
      </trkpt>
      <trkpt lat="59.8656799" lon="17.7041302">
        <ele>12.6344</ele>
        <time>2013-04-21T13:59:23Z</time>
      </trkpt>
      <trkpt lat="59.8657239" lon="17.70405">
        <ele>12.6344</ele>
        <time>2013-04-21T13:59:24Z</time>
      </trkpt>
      <trkpt lat="59.8657667" lon="17.7039647">
        <ele>12.6344</ele>
        <time>2013-04-21T13:59:25Z</time>
      </trkpt>
      <trkpt lat="59.8658111" lon="17.70388">
        <ele>13.1151</ele>
        <time>2013-04-21T13:59:26Z</time>
      </trkpt>
      <trkpt lat="59.8658554" lon="17.7037959">
        <ele>13.1151</ele>
        <time>2013-04-21T13:59:27Z</time>
      </trkpt>
      <trkpt lat="59.8658971" lon="17.703708">
        <ele>13.5958</ele>
        <time>2013-04-21T13:59:28Z</time>
      </trkpt>
      <trkpt lat="59.8659379" lon="17.7036177">
        <ele>13.5958</ele>
        <time>2013-04-21T13:59:29Z</time>
      </trkpt>
      <trkpt lat="59.8659789" lon="17.7035288">
        <ele>14.0764</ele>
        <time>2013-04-21T13:59:30Z</time>
      </trkpt>
      <trkpt lat="59.8660197" lon="17.7034407">
        <ele>14.557</ele>
        <time>2013-04-21T13:59:31Z</time>
      </trkpt>
      <trkpt lat="59.8660605" lon="17.7033511">
        <ele>14.557</ele>
        <time>2013-04-21T13:59:32Z</time>
      </trkpt>
      <trkpt lat="59.8661031" lon="17.7032585">
        <ele>15.0377</ele>
        <time>2013-04-21T13:59:33Z</time>
      </trkpt>
      <trkpt lat="59.8661419" lon="17.7031682">
        <ele>15.0377</ele>
        <time>2013-04-21T13:59:34Z</time>
      </trkpt>
      <trkpt lat="59.8661782" lon="17.7030811">
        <ele>15.5184</ele>
        <time>2013-04-21T13:59:35Z</time>
      </trkpt>
      <trkpt lat="59.8662146" lon="17.7029973">
        <ele>15.5184</ele>
        <time>2013-04-21T13:59:36Z</time>
      </trkpt>
      <trkpt lat="59.8662524" lon="17.7029181">
        <ele>15.5184</ele>
        <time>2013-04-21T13:59:37Z</time>
      </trkpt>
      <trkpt lat="59.8662915" lon="17.7028398">
        <ele>15.5184</ele>
        <time>2013-04-21T13:59:38Z</time>
      </trkpt>
      <trkpt lat="59.86633" lon="17.7027584">
        <ele>15.5184</ele>
        <time>2013-04-21T13:59:39Z</time>
      </trkpt>
      <trkpt lat="59.8663693" lon="17.7026751">
        <ele>15.5184</ele>
        <time>2013-04-21T13:59:40Z</time>
      </trkpt>
      <trkpt lat="59.8664087" lon="17.70259">
        <ele>15.5184</ele>
        <time>2013-04-21T13:59:41Z</time>
      </trkpt>
      <trkpt lat="59.8664497" lon="17.702505">
        <ele>15.5184</ele>
        <time>2013-04-21T13:59:42Z</time>
      </trkpt>
      <trkpt lat="59.866491" lon="17.7024182">
        <ele>15.999</ele>
        <time>2013-04-21T13:59:43Z</time>
      </trkpt>
      <trkpt lat="59.8665315" lon="17.702329">
        <ele>15.999</ele>
        <time>2013-04-21T13:59:44Z</time>
      </trkpt>
      <trkpt lat="59.8665731" lon="17.702241">
        <ele>15.999</ele>
        <time>2013-04-21T13:59:45Z</time>
      </trkpt>
      <trkpt lat="59.8666164" lon="17.7021555">
        <ele>15.999</ele>
        <time>2013-04-21T13:59:46Z</time>
      </trkpt>
      <trkpt lat="59.8666608" lon="17.702072">
        <ele>15.999</ele>
        <time>2013-04-21T13:59:47Z</time>
      </trkpt>
      <trkpt lat="59.8667062" lon="17.7019908">
        <ele>15.999</ele>
        <time>2013-04-21T13:59:48Z</time>
      </trkpt>
      <trkpt lat="59.8667527" lon="17.7019139">
        <ele>15.999</ele>
        <time>2013-04-21T13:59:49Z</time>
      </trkpt>
      <trkpt lat="59.8668003" lon="17.7018446">
        <ele>15.999</ele>
        <time>2013-04-21T13:59:50Z</time>
      </trkpt>
      <trkpt lat="59.8668497" lon="17.7017832">
        <ele>15.999</ele>
        <time>2013-04-21T13:59:51Z</time>
      </trkpt>
      <trkpt lat="59.8669005" lon="17.7017246">
        <ele>15.999</ele>
        <time>2013-04-21T13:59:52Z</time>
      </trkpt>
      <trkpt lat="59.8669523" lon="17.7016648">
        <ele>16.4797</ele>
        <time>2013-04-21T13:59:53Z</time>
      </trkpt>
      <trkpt lat="59.8670043" lon="17.7016047">
        <ele>16.4797</ele>
        <time>2013-04-21T13:59:54Z</time>
      </trkpt>
      <trkpt lat="59.8670563" lon="17.7015459">
        <ele>16.4797</ele>
        <time>2013-04-21T13:59:55Z</time>
      </trkpt>
      <trkpt lat="59.8671103" lon="17.7014877">
        <ele>16.4797</ele>
        <time>2013-04-21T13:59:56Z</time>
      </trkpt>
      <trkpt lat="59.8671656" lon="17.7014299">
        <ele>16.4797</ele>
        <time>2013-04-21T13:59:57Z</time>
      </trkpt>
      <trkpt lat="59.8672223" lon="17.7013731">
        <ele>16.4797</ele>
        <time>2013-04-21T13:59:58Z</time>
      </trkpt>
      <trkpt lat="59.8672786" lon="17.7013153">
        <ele>16.4797</ele>
        <time>2013-04-21T13:59:59Z</time>
      </trkpt>
      <trkpt lat="59.8673344" lon="17.7012552">
        <ele>16.4797</ele>
        <time>2013-04-21T14:00:00Z</time>
      </trkpt>
      <trkpt lat="59.8673915" lon="17.7011972">
        <ele>16.4797</ele>
        <time>2013-04-21T14:00:01Z</time>
      </trkpt>
      <trkpt lat="59.8674499" lon="17.70114">
        <ele>16.4797</ele>
        <time>2013-04-21T14:00:02Z</time>
      </trkpt>
      <trkpt lat="59.8675085" lon="17.7010804">
        <ele>16.4797</ele>
        <time>2013-04-21T14:00:03Z</time>
      </trkpt>
      <trkpt lat="59.8675694" lon="17.7010226">
        <ele>15.999</ele>
        <time>2013-04-21T14:00:04Z</time>
      </trkpt>
      <trkpt lat="59.8676324" lon="17.7009678">
        <ele>15.999</ele>
        <time>2013-04-21T14:00:05Z</time>
      </trkpt>
      <trkpt lat="59.8676964" lon="17.7009147">
        <ele>15.999</ele>
        <time>2013-04-21T14:00:06Z</time>
      </trkpt>
      <trkpt lat="59.8677612" lon="17.700862">
        <ele>15.999</ele>
        <time>2013-04-21T14:00:07Z</time>
      </trkpt>
      <trkpt lat="59.867828" lon="17.7008118">
        <ele>15.999</ele>
        <time>2013-04-21T14:00:08Z</time>
      </trkpt>
      <trkpt lat="59.8678971" lon="17.7007655">
        <ele>15.999</ele>
        <time>2013-04-21T14:00:09Z</time>
      </trkpt>
      <trkpt lat="59.867965" lon="17.700721">
        <ele>15.999</ele>
        <time>2013-04-21T14:00:10Z</time>
      </trkpt>
      <trkpt lat="59.8680322" lon="17.7006771">
        <ele>15.999</ele>
        <time>2013-04-21T14:00:11Z</time>
      </trkpt>
      <trkpt lat="59.8680988" lon="17.7006362">
        <ele>15.999</ele>
        <time>2013-04-21T14:00:12Z</time>
      </trkpt>
      <trkpt lat="59.8681644" lon="17.7005974">
        <ele>15.999</ele>
        <time>2013-04-21T14:00:13Z</time>
      </trkpt>
      <trkpt lat="59.868229" lon="17.7005607">
        <ele>15.999</ele>
        <time>2013-04-21T14:00:14Z</time>
      </trkpt>
      <trkpt lat="59.8682905" lon="17.7005221">
        <ele>15.999</ele>
        <time>2013-04-21T14:00:15Z</time>
      </trkpt>
      <trkpt lat="59.8683465" lon="17.7004809">
        <ele>15.999</ele>
        <time>2013-04-21T14:00:16Z</time>
      </trkpt>
      <trkpt lat="59.8683982" lon="17.7004407">
        <ele>15.5184</ele>
        <time>2013-04-21T14:00:17Z</time>
      </trkpt>
      <trkpt lat="59.8684471" lon="17.7004037">
        <ele>15.5184</ele>
        <time>2013-04-21T14:00:18Z</time>
      </trkpt>
      <trkpt lat="59.8684928" lon="17.7003678">
        <ele>15.0377</ele>
        <time>2013-04-21T14:00:19Z</time>
      </trkpt>
      <trkpt lat="59.8685357" lon="17.7003336">
        <ele>14.0764</ele>
        <time>2013-04-21T14:00:20Z</time>
      </trkpt>
      <trkpt lat="59.8685783" lon="17.7003055">
        <ele>14.0764</ele>
        <time>2013-04-21T14:00:21Z</time>
      </trkpt>
      <trkpt lat="59.8686202" lon="17.7002811">
        <ele>14.0764</ele>
        <time>2013-04-21T14:00:22Z</time>
      </trkpt>
      <trkpt lat="59.8686631" lon="17.7002543">
        <ele>14.557</ele>
        <time>2013-04-21T14:00:23Z</time>
      </trkpt>
      <trkpt lat="59.8687002" lon="17.700225">
        <ele>14.0764</ele>
        <time>2013-04-21T14:00:24Z</time>
      </trkpt>
      <trkpt lat="59.8687393" lon="17.7001957">
        <ele>14.0764</ele>
        <time>2013-04-21T14:00:25Z</time>
      </trkpt>
      <trkpt lat="59.8687802" lon="17.7001644">
        <ele>14.0764</ele>
        <time>2013-04-21T14:00:26Z</time>
      </trkpt>
      <trkpt lat="59.8688232" lon="17.700133">
        <ele>14.0764</ele>
        <time>2013-04-21T14:00:27Z</time>
      </trkpt>
      <trkpt lat="59.8688653" lon="17.7001012">
        <ele>14.0764</ele>
        <time>2013-04-21T14:00:28Z</time>
      </trkpt>
      <trkpt lat="59.8689095" lon="17.7000704">
        <ele>14.557</ele>
        <time>2013-04-21T14:00:29Z</time>
      </trkpt>
      <trkpt lat="59.8689538" lon="17.7000348">
        <ele>15.0377</ele>
        <time>2013-04-21T14:00:30Z</time>
      </trkpt>
      <trkpt lat="59.8689967" lon="17.7000016">
        <ele>15.0377</ele>
        <time>2013-04-21T14:00:31Z</time>
      </trkpt>
      <trkpt lat="59.8690413" lon="17.6999657">
        <ele>15.5184</ele>
        <time>2013-04-21T14:00:32Z</time>
      </trkpt>
      <trkpt lat="59.8690816" lon="17.6999327">
        <ele>15.5184</ele>
        <time>2013-04-21T14:00:33Z</time>
      </trkpt>
      <trkpt lat="59.8691177" lon="17.6998995">
        <ele>14.557</ele>
        <time>2013-04-21T14:00:34Z</time>
      </trkpt>
      <trkpt lat="59.8691501" lon="17.6998678">
        <ele>14.0764</ele>
        <time>2013-04-21T14:00:35Z</time>
      </trkpt>
      <trkpt lat="59.8691769" lon="17.6998441">
        <ele>14.0764</ele>
        <time>2013-04-21T14:00:36Z</time>
      </trkpt>
      <trkpt lat="59.8692049" lon="17.6998154">
        <ele>15.999</ele>
        <time>2013-04-21T14:00:37Z</time>
      </trkpt>
      <trkpt lat="59.8692274" lon="17.6997752">
        <ele>17.4412</ele>
        <time>2013-04-21T14:00:38Z</time>
      </trkpt>
      <trkpt lat="59.8692372" lon="17.6997269">
        <ele>17.9218</ele>
        <time>2013-04-21T14:00:39Z</time>
      </trkpt>
      <trkpt lat="59.8692403" lon="17.6996756">
        <ele>18.4023</ele>
        <time>2013-04-21T14:00:40Z</time>
      </trkpt>
      <trkpt lat="59.869245" lon="17.6996147">
        <ele>19.3638</ele>
        <time>2013-04-21T14:00:41Z</time>
      </trkpt>
      <trkpt lat="59.8692449" lon="17.6995544">
        <ele>20.325</ele>
        <time>2013-04-21T14:00:42Z</time>
      </trkpt>
      <trkpt lat="59.8692426" lon="17.6994956">
        <ele>20.325</ele>
        <time>2013-04-21T14:00:43Z</time>
      </trkpt>
      <trkpt lat="59.8692438" lon="17.6994331">
        <ele>21.767</ele>
        <time>2013-04-21T14:00:44Z</time>
      </trkpt>
      <trkpt lat="59.8692476" lon="17.6993608">
        <ele>24.1703</ele>
        <time>2013-04-21T14:00:45Z</time>
      </trkpt>
      <trkpt lat="59.8692467" lon="17.6992727">
        <ele>24.651</ele>
        <time>2013-04-21T14:00:46Z</time>
      </trkpt>
      <trkpt lat="59.8692414" lon="17.6991873">
        <ele>24.651</ele>
        <time>2013-04-21T14:00:47Z</time>
      </trkpt>
      <trkpt lat="59.8692412" lon="17.6990951">
        <ele>25.1317</ele>
        <time>2013-04-21T14:00:48Z</time>
      </trkpt>
      <trkpt lat="59.8692367" lon="17.699002">
        <ele>25.1317</ele>
        <time>2013-04-21T14:00:49Z</time>
      </trkpt>
      <trkpt lat="59.8692307" lon="17.6989012">
        <ele>25.1317</ele>
        <time>2013-04-21T14:00:50Z</time>
      </trkpt>
      <trkpt lat="59.8692239" lon="17.6987961">
        <ele>25.1317</ele>
        <time>2013-04-21T14:00:51Z</time>
      </trkpt>
      <trkpt lat="59.8692069" lon="17.6986993">
        <ele>23.6896</ele>
        <time>2013-04-21T14:00:52Z</time>
      </trkpt>
      <trkpt lat="59.8691988" lon="17.6986113">
        <ele>24.1703</ele>
        <time>2013-04-21T14:00:53Z</time>
      </trkpt>
      <trkpt lat="59.8691941" lon="17.6985319">
        <ele>24.651</ele>
        <time>2013-04-21T14:00:54Z</time>
      </trkpt>
      <trkpt lat="59.8691847" lon="17.6984492">
        <ele>24.1703</ele>
        <time>2013-04-21T14:00:55Z</time>
      </trkpt>
      <trkpt lat="59.8691744" lon="17.6983589">
        <ele>23.6896</ele>
        <time>2013-04-21T14:00:56Z</time>
      </trkpt>
      <trkpt lat="59.8691623" lon="17.6982656">
        <ele>22.7283</ele>
        <time>2013-04-21T14:00:57Z</time>
      </trkpt>
      <trkpt lat="59.8691516" lon="17.698173">
        <ele>22.7283</ele>
        <time>2013-04-21T14:00:58Z</time>
      </trkpt>
      <trkpt lat="59.8691448" lon="17.6980817">
        <ele>22.7283</ele>
        <time>2013-04-21T14:00:59Z</time>
      </trkpt>
      <trkpt lat="59.8691362" lon="17.6979921">
        <ele>21.767</ele>
        <time>2013-04-21T14:01:00Z</time>
      </trkpt>
      <trkpt lat="59.8691439" lon="17.6979019">
        <ele>22.2476</ele>
        <time>2013-04-21T14:01:01Z</time>
      </trkpt>
      <trkpt lat="59.8691651" lon="17.6978172">
        <ele>22.2476</ele>
        <time>2013-04-21T14:01:02Z</time>
      </trkpt>
      <trkpt lat="59.8691915" lon="17.6977378">
        <ele>22.7283</ele>
        <time>2013-04-21T14:01:03Z</time>
      </trkpt>
      <trkpt lat="59.8692268" lon="17.6976759">
        <ele>22.7283</ele>
        <time>2013-04-21T14:01:04Z</time>
      </trkpt>
      <trkpt lat="59.8692656" lon="17.6976168">
        <ele>22.7283</ele>
        <time>2013-04-21T14:01:05Z</time>
      </trkpt>
      <trkpt lat="59.8693033" lon="17.6975548">
        <ele>23.209</ele>
        <time>2013-04-21T14:01:06Z</time>
      </trkpt>
      <trkpt lat="59.8693428" lon="17.6974961">
        <ele>23.209</ele>
        <time>2013-04-21T14:01:07Z</time>
      </trkpt>
      <trkpt lat="59.8693856" lon="17.6974482">
        <ele>23.209</ele>
        <time>2013-04-21T14:01:08Z</time>
      </trkpt>
      <trkpt lat="59.8694288" lon="17.6973937">
        <ele>23.209</ele>
        <time>2013-04-21T14:01:09Z</time>
      </trkpt>
      <trkpt lat="59.8694727" lon="17.6973383">
        <ele>23.209</ele>
        <time>2013-04-21T14:01:10Z</time>
      </trkpt>
      <trkpt lat="59.8695173" lon="17.6972779">
        <ele>23.209</ele>
        <time>2013-04-21T14:01:11Z</time>
      </trkpt>
      <trkpt lat="59.8695634" lon="17.6972117">
        <ele>23.209</ele>
        <time>2013-04-21T14:01:12Z</time>
      </trkpt>
      <trkpt lat="59.8696121" lon="17.6971439">
        <ele>23.209</ele>
        <time>2013-04-21T14:01:13Z</time>
      </trkpt>
      <trkpt lat="59.8696643" lon="17.6970902">
        <ele>22.7283</ele>
        <time>2013-04-21T14:01:14Z</time>
      </trkpt>
      <trkpt lat="59.8697182" lon="17.6970561">
        <ele>22.2476</ele>
        <time>2013-04-21T14:01:15Z</time>
      </trkpt>
      <trkpt lat="59.8697748" lon="17.6970287">
        <ele>21.767</ele>
        <time>2013-04-21T14:01:16Z</time>
      </trkpt>
      <trkpt lat="59.8698328" lon="17.6970074">
        <ele>21.2864</ele>
        <time>2013-04-21T14:01:17Z</time>
      </trkpt>
      <trkpt lat="59.8698928" lon="17.6969903">
        <ele>21.2864</ele>
        <time>2013-04-21T14:01:18Z</time>
      </trkpt>
      <trkpt lat="59.869955" lon="17.6969804">
        <ele>20.8057</ele>
        <time>2013-04-21T14:01:19Z</time>
      </trkpt>
      <trkpt lat="59.8700183" lon="17.6969789">
        <ele>20.325</ele>
        <time>2013-04-21T14:01:20Z</time>
      </trkpt>
      <trkpt lat="59.8700819" lon="17.6969837">
        <ele>19.8444</ele>
        <time>2013-04-21T14:01:21Z</time>
      </trkpt>
      <trkpt lat="59.8701492" lon="17.6969835">
        <ele>19.8444</ele>
        <time>2013-04-21T14:01:22Z</time>
      </trkpt>
      <trkpt lat="59.8702172" lon="17.6969703">
        <ele>19.3638</ele>
        <time>2013-04-21T14:01:23Z</time>
      </trkpt>
      <trkpt lat="59.8702761" lon="17.6969443">
        <ele>18.4023</ele>
        <time>2013-04-21T14:01:24Z</time>
      </trkpt>
      <trkpt lat="59.8703309" lon="17.6969141">
        <ele>16.4797</ele>
        <time>2013-04-21T14:01:25Z</time>
      </trkpt>
      <trkpt lat="59.8703941" lon="17.6968842">
        <ele>15.999</ele>
        <time>2013-04-21T14:01:26Z</time>
      </trkpt>
      <trkpt lat="59.8704602" lon="17.6968434">
        <ele>15.5184</ele>
        <time>2013-04-21T14:01:27Z</time>
      </trkpt>
      <trkpt lat="59.8705244" lon="17.6967952">
        <ele>15.0377</ele>
        <time>2013-04-21T14:01:28Z</time>
      </trkpt>
      <trkpt lat="59.8705896" lon="17.6967376">
        <ele>14.557</ele>
        <time>2013-04-21T14:01:29Z</time>
      </trkpt>
      <trkpt lat="59.8706545" lon="17.6966729">
        <ele>14.557</ele>
        <time>2013-04-21T14:01:30Z</time>
      </trkpt>
      <trkpt lat="59.8707198" lon="17.6966066">
        <ele>14.0764</ele>
        <time>2013-04-21T14:01:31Z</time>
      </trkpt>
      <trkpt lat="59.8707854" lon="17.6965422">
        <ele>13.5958</ele>
        <time>2013-04-21T14:01:32Z</time>
      </trkpt>
      <trkpt lat="59.8708565" lon="17.6964812">
        <ele>14.557</ele>
        <time>2013-04-21T14:01:33Z</time>
      </trkpt>
      <trkpt lat="59.8709233" lon="17.696417">
        <ele>14.557</ele>
        <time>2013-04-21T14:01:34Z</time>
      </trkpt>
      <trkpt lat="59.8709885" lon="17.6963501">
        <ele>14.0764</ele>
        <time>2013-04-21T14:01:35Z</time>
      </trkpt>
      <trkpt lat="59.8710537" lon="17.6962808">
        <ele>13.5958</ele>
        <time>2013-04-21T14:01:36Z</time>
      </trkpt>
      <trkpt lat="59.8711191" lon="17.6962065">
        <ele>13.5958</ele>
        <time>2013-04-21T14:01:37Z</time>
      </trkpt>
      <trkpt lat="59.8711827" lon="17.6961374">
        <ele>13.1151</ele>
        <time>2013-04-21T14:01:38Z</time>
      </trkpt>
      <trkpt lat="59.8712464" lon="17.6960694">
        <ele>12.6344</ele>
        <time>2013-04-21T14:01:39Z</time>
      </trkpt>
      <trkpt lat="59.8713107" lon="17.6960001">
        <ele>12.6344</ele>
        <time>2013-04-21T14:01:40Z</time>
      </trkpt>
      <trkpt lat="59.8713733" lon="17.6959338">
        <ele>12.1538</ele>
        <time>2013-04-21T14:01:41Z</time>
      </trkpt>
      <trkpt lat="59.871436" lon="17.6958708">
        <ele>12.1538</ele>
        <time>2013-04-21T14:01:42Z</time>
      </trkpt>
      <trkpt lat="59.8714996" lon="17.695813">
        <ele>12.1538</ele>
        <time>2013-04-21T14:01:43Z</time>
      </trkpt>
      <trkpt lat="59.8715639" lon="17.6957581">
        <ele>12.1538</ele>
        <time>2013-04-21T14:01:44Z</time>
      </trkpt>
      <trkpt lat="59.8716281" lon="17.6957026">
        <ele>12.1538</ele>
        <time>2013-04-21T14:01:45Z</time>
      </trkpt>
      <trkpt lat="59.8716929" lon="17.6956446">
        <ele>12.1538</ele>
        <time>2013-04-21T14:01:46Z</time>
      </trkpt>
      <trkpt lat="59.8717573" lon="17.6955907">
        <ele>11.6732</ele>
        <time>2013-04-21T14:01:47Z</time>
      </trkpt>
      <trkpt lat="59.8718223" lon="17.6955394">
        <ele>11.6732</ele>
        <time>2013-04-21T14:01:48Z</time>
      </trkpt>
      <trkpt lat="59.8718853" lon="17.6954877">
        <ele>11.1925</ele>
        <time>2013-04-21T14:01:49Z</time>
      </trkpt>
      <trkpt lat="59.8719489" lon="17.6954385">
        <ele>10.7118</ele>
        <time>2013-04-21T14:01:50Z</time>
      </trkpt>
      <trkpt lat="59.8720126" lon="17.6953974">
        <ele>9.75061</ele>
        <time>2013-04-21T14:01:51Z</time>
      </trkpt>
      <trkpt lat="59.8720784" lon="17.6953582">
        <ele>9.75061</ele>
        <time>2013-04-21T14:01:52Z</time>
      </trkpt>
      <trkpt lat="59.8721425" lon="17.6953225">
        <ele>9.2699</ele>
        <time>2013-04-21T14:01:53Z</time>
      </trkpt>
      <trkpt lat="59.8722079" lon="17.695295">
        <ele>8.78918</ele>
        <time>2013-04-21T14:01:54Z</time>
      </trkpt>
      <trkpt lat="59.8722752" lon="17.695271">
        <ele>8.30859</ele>
        <time>2013-04-21T14:01:55Z</time>
      </trkpt>
      <trkpt lat="59.8723498" lon="17.6952459">
        <ele>9.2699</ele>
        <time>2013-04-21T14:01:56Z</time>
      </trkpt>
      <trkpt lat="59.8724233" lon="17.6952212">
        <ele>10.2312</ele>
        <time>2013-04-21T14:01:57Z</time>
      </trkpt>
      <trkpt lat="59.8724945" lon="17.6952017">
        <ele>11.1925</ele>
        <time>2013-04-21T14:01:58Z</time>
      </trkpt>
      <trkpt lat="59.8725662" lon="17.6951809">
        <ele>11.1925</ele>
        <time>2013-04-21T14:01:59Z</time>
      </trkpt>
      <trkpt lat="59.8726325" lon="17.6951617">
        <ele>11.1925</ele>
        <time>2013-04-21T14:02:00Z</time>
      </trkpt>
      <trkpt lat="59.8726988" lon="17.695143">
        <ele>10.7118</ele>
        <time>2013-04-21T14:02:01Z</time>
      </trkpt>
      <trkpt lat="59.8727672" lon="17.6951244">
        <ele>11.1925</ele>
        <time>2013-04-21T14:02:02Z</time>
      </trkpt>
      <trkpt lat="59.8728368" lon="17.6951015">
        <ele>11.1925</ele>
        <time>2013-04-21T14:02:03Z</time>
      </trkpt>
      <trkpt lat="59.8729108" lon="17.6950789">
        <ele>12.1538</ele>
        <time>2013-04-21T14:02:04Z</time>
      </trkpt>
      <trkpt lat="59.8729864" lon="17.6950555">
        <ele>13.5958</ele>
        <time>2013-04-21T14:02:05Z</time>
      </trkpt>
      <trkpt lat="59.8730608" lon="17.6950308">
        <ele>14.557</ele>
        <time>2013-04-21T14:02:06Z</time>
      </trkpt>
      <trkpt lat="59.8731342" lon="17.6950028">
        <ele>14.557</ele>
        <time>2013-04-21T14:02:07Z</time>
      </trkpt>
      <trkpt lat="59.8732085" lon="17.6949727">
        <ele>15.0377</ele>
        <time>2013-04-21T14:02:08Z</time>
      </trkpt>
      <trkpt lat="59.8732847" lon="17.6949392">
        <ele>15.0377</ele>
        <time>2013-04-21T14:02:09Z</time>
      </trkpt>
      <trkpt lat="59.8733606" lon="17.694899">
        <ele>15.5184</ele>
        <time>2013-04-21T14:02:10Z</time>
      </trkpt>
      <trkpt lat="59.8734362" lon="17.694853">
        <ele>15.999</ele>
        <time>2013-04-21T14:02:11Z</time>
      </trkpt>
      <trkpt lat="59.8735111" lon="17.6948049">
        <ele>15.999</ele>
        <time>2013-04-21T14:02:12Z</time>
      </trkpt>
      <trkpt lat="59.8735849" lon="17.6947569">
        <ele>15.999</ele>
        <time>2013-04-21T14:02:13Z</time>
      </trkpt>
      <trkpt lat="59.8736582" lon="17.6947085">
        <ele>15.5184</ele>
        <time>2013-04-21T14:02:14Z</time>
      </trkpt>
      <trkpt lat="59.8737314" lon="17.6946512">
        <ele>15.5184</ele>
        <time>2013-04-21T14:02:15Z</time>
      </trkpt>
      <trkpt lat="59.8738023" lon="17.6945869">
        <ele>15.5184</ele>
        <time>2013-04-21T14:02:16Z</time>
      </trkpt>
      <trkpt lat="59.8738717" lon="17.6945157">
        <ele>15.999</ele>
        <time>2013-04-21T14:02:17Z</time>
      </trkpt>
      <trkpt lat="59.8739394" lon="17.6944356">
        <ele>15.5184</ele>
        <time>2013-04-21T14:02:18Z</time>
      </trkpt>
      <trkpt lat="59.8740041" lon="17.6943517">
        <ele>15.0377</ele>
        <time>2013-04-21T14:02:19Z</time>
      </trkpt>
      <trkpt lat="59.874066" lon="17.6942696">
        <ele>15.5184</ele>
        <time>2013-04-21T14:02:20Z</time>
      </trkpt>
      <trkpt lat="59.8741255" lon="17.6941812">
        <ele>15.999</ele>
        <time>2013-04-21T14:02:21Z</time>
      </trkpt>
      <trkpt lat="59.8741818" lon="17.6940902">
        <ele>15.999</ele>
        <time>2013-04-21T14:02:22Z</time>
      </trkpt>
      <trkpt lat="59.8742369" lon="17.6939992">
        <ele>15.999</ele>
        <time>2013-04-21T14:02:23Z</time>
      </trkpt>
      <trkpt lat="59.8742916" lon="17.6939046">
        <ele>15.5184</ele>
        <time>2013-04-21T14:02:24Z</time>
      </trkpt>
      <trkpt lat="59.8743453" lon="17.6938124">
        <ele>15.0377</ele>
        <time>2013-04-21T14:02:25Z</time>
      </trkpt>
      <trkpt lat="59.8743978" lon="17.6937183">
        <ele>15.0377</ele>
        <time>2013-04-21T14:02:26Z</time>
      </trkpt>
      <trkpt lat="59.8744483" lon="17.6936228">
        <ele>15.0377</ele>
        <time>2013-04-21T14:02:27Z</time>
      </trkpt>
      <trkpt lat="59.8744975" lon="17.6935287">
        <ele>14.557</ele>
        <time>2013-04-21T14:02:28Z</time>
      </trkpt>
      <trkpt lat="59.874546" lon="17.6934389">
        <ele>14.557</ele>
        <time>2013-04-21T14:02:29Z</time>
      </trkpt>
      <trkpt lat="59.8745901" lon="17.6933481">
        <ele>13.5958</ele>
        <time>2013-04-21T14:02:30Z</time>
      </trkpt>
      <trkpt lat="59.8746291" lon="17.6932545">
        <ele>11.6732</ele>
        <time>2013-04-21T14:02:31Z</time>
      </trkpt>
      <trkpt lat="59.8746652" lon="17.6931629">
        <ele>10.7118</ele>
        <time>2013-04-21T14:02:32Z</time>
      </trkpt>
      <trkpt lat="59.8747011" lon="17.6930661">
        <ele>10.2312</ele>
        <time>2013-04-21T14:02:33Z</time>
      </trkpt>
      <trkpt lat="59.8747409" lon="17.6929701">
        <ele>10.2312</ele>
        <time>2013-04-21T14:02:34Z</time>
      </trkpt>
      <trkpt lat="59.8747839" lon="17.692882">
        <ele>10.2312</ele>
        <time>2013-04-21T14:02:35Z</time>
      </trkpt>
      <trkpt lat="59.8748255" lon="17.6927992">
        <ele>9.75061</ele>
        <time>2013-04-21T14:02:36Z</time>
      </trkpt>
      <trkpt lat="59.8748705" lon="17.6927177">
        <ele>10.7118</ele>
        <time>2013-04-21T14:02:37Z</time>
      </trkpt>
      <trkpt lat="59.8749103" lon="17.6926359">
        <ele>11.1925</ele>
        <time>2013-04-21T14:02:38Z</time>
      </trkpt>
      <trkpt lat="59.8749481" lon="17.6925558">
        <ele>11.6732</ele>
        <time>2013-04-21T14:02:39Z</time>
      </trkpt>
      <trkpt lat="59.8749839" lon="17.692479">
        <ele>11.6732</ele>
        <time>2013-04-21T14:02:40Z</time>
      </trkpt>
      <trkpt lat="59.8750203" lon="17.6924081">
        <ele>12.1538</ele>
        <time>2013-04-21T14:02:41Z</time>
      </trkpt>
      <trkpt lat="59.8750569" lon="17.6923404">
        <ele>12.1538</ele>
        <time>2013-04-21T14:02:42Z</time>
      </trkpt>
      <trkpt lat="59.8750907" lon="17.6922704">
        <ele>12.1538</ele>
        <time>2013-04-21T14:02:43Z</time>
      </trkpt>
      <trkpt lat="59.8751217" lon="17.6921991">
        <ele>12.6344</ele>
        <time>2013-04-21T14:02:44Z</time>
      </trkpt>
      <trkpt lat="59.8751548" lon="17.6921188">
        <ele>15.5184</ele>
        <time>2013-04-21T14:02:45Z</time>
      </trkpt>
      <trkpt lat="59.8751769" lon="17.692035">
        <ele>15.999</ele>
        <time>2013-04-21T14:02:46Z</time>
      </trkpt>
      <trkpt lat="59.875187" lon="17.6919471">
        <ele>16.4797</ele>
        <time>2013-04-21T14:02:47Z</time>
      </trkpt>
      <trkpt lat="59.8751817" lon="17.691861">
        <ele>16.9604</ele>
        <time>2013-04-21T14:02:48Z</time>
      </trkpt>
      <trkpt lat="59.8751667" lon="17.6917767">
        <ele>17.9218</ele>
        <time>2013-04-21T14:02:49Z</time>
      </trkpt>
      <trkpt lat="59.875145" lon="17.6916926">
        <ele>18.8831</ele>
        <time>2013-04-21T14:02:50Z</time>
      </trkpt>
      <trkpt lat="59.875118" lon="17.6916131">
        <ele>19.8444</ele>
        <time>2013-04-21T14:02:51Z</time>
      </trkpt>
      <trkpt lat="59.8750876" lon="17.6915452">
        <ele>20.325</ele>
        <time>2013-04-21T14:02:52Z</time>
      </trkpt>
      <trkpt lat="59.8750624" lon="17.6914705">
        <ele>20.8057</ele>
        <time>2013-04-21T14:02:53Z</time>
      </trkpt>
      <trkpt lat="59.8750377" lon="17.6913929">
        <ele>21.2864</ele>
        <time>2013-04-21T14:02:54Z</time>
      </trkpt>
      <trkpt lat="59.8750103" lon="17.6913207">
        <ele>22.2476</ele>
        <time>2013-04-21T14:02:55Z</time>
      </trkpt>
      <trkpt lat="59.8749813" lon="17.691247">
        <ele>22.7283</ele>
        <time>2013-04-21T14:02:56Z</time>
      </trkpt>
      <trkpt lat="59.8749518" lon="17.6911751">
        <ele>23.209</ele>
        <time>2013-04-21T14:02:57Z</time>
      </trkpt>
      <trkpt lat="59.8749208" lon="17.6911043">
        <ele>24.1703</ele>
        <time>2013-04-21T14:02:58Z</time>
      </trkpt>
      <trkpt lat="59.8748908" lon="17.6910241">
        <ele>24.1703</ele>
        <time>2013-04-21T14:02:59Z</time>
      </trkpt>
      <trkpt lat="59.8748616" lon="17.6909427">
        <ele>24.651</ele>
        <time>2013-04-21T14:03:00Z</time>
      </trkpt>
      <trkpt lat="59.874831" lon="17.6908614">
        <ele>25.1317</ele>
        <time>2013-04-21T14:03:01Z</time>
      </trkpt>
      <trkpt lat="59.8748016" lon="17.6907731">
        <ele>25.1317</ele>
        <time>2013-04-21T14:03:02Z</time>
      </trkpt>
      <trkpt lat="59.8747678" lon="17.690686">
        <ele>25.6123</ele>
        <time>2013-04-21T14:03:03Z</time>
      </trkpt>
      <trkpt lat="59.8747353" lon="17.690598">
        <ele>25.6123</ele>
        <time>2013-04-21T14:03:04Z</time>
      </trkpt>
      <trkpt lat="59.8747048" lon="17.6905049">
        <ele>25.6123</ele>
        <time>2013-04-21T14:03:05Z</time>
      </trkpt>
      <trkpt lat="59.8746747" lon="17.6904079">
        <ele>25.6123</ele>
        <time>2013-04-21T14:03:06Z</time>
      </trkpt>
      <trkpt lat="59.8746431" lon="17.6903116">
        <ele>25.6123</ele>
        <time>2013-04-21T14:03:07Z</time>
      </trkpt>
      <trkpt lat="59.8746115" lon="17.6902148">
        <ele>25.6123</ele>
        <time>2013-04-21T14:03:08Z</time>
      </trkpt>
      <trkpt lat="59.8745778" lon="17.6901176">
        <ele>25.6123</ele>
        <time>2013-04-21T14:03:09Z</time>
      </trkpt>
      <trkpt lat="59.8745447" lon="17.6900222">
        <ele>25.6123</ele>
        <time>2013-04-21T14:03:10Z</time>
      </trkpt>
      <trkpt lat="59.8745128" lon="17.6899304">
        <ele>25.1317</ele>
        <time>2013-04-21T14:03:11Z</time>
      </trkpt>
      <trkpt lat="59.874481" lon="17.6898258">
        <ele>25.6123</ele>
        <time>2013-04-21T14:03:12Z</time>
      </trkpt>
      <trkpt lat="59.874451" lon="17.6897269">
        <ele>25.1317</ele>
        <time>2013-04-21T14:03:13Z</time>
      </trkpt>
      <trkpt lat="59.8744228" lon="17.6896264">
        <ele>25.1317</ele>
        <time>2013-04-21T14:03:14Z</time>
      </trkpt>
      <trkpt lat="59.8743954" lon="17.68953">
        <ele>25.1317</ele>
        <time>2013-04-21T14:03:15Z</time>
      </trkpt>
      <trkpt lat="59.8743686" lon="17.6894357">
        <ele>25.1317</ele>
        <time>2013-04-21T14:03:16Z</time>
      </trkpt>
      <trkpt lat="59.874344" lon="17.6893406">
        <ele>25.1317</ele>
        <time>2013-04-21T14:03:17Z</time>
      </trkpt>
      <trkpt lat="59.8743198" lon="17.6892442">
        <ele>24.651</ele>
        <time>2013-04-21T14:03:18Z</time>
      </trkpt>
      <trkpt lat="59.8742951" lon="17.6891481">
        <ele>24.651</ele>
        <time>2013-04-21T14:03:19Z</time>
      </trkpt>
      <trkpt lat="59.8742711" lon="17.6890536">
        <ele>24.651</ele>
        <time>2013-04-21T14:03:20Z</time>
      </trkpt>
      <trkpt lat="59.8742466" lon="17.6889616">
        <ele>24.651</ele>
        <time>2013-04-21T14:03:21Z</time>
      </trkpt>
      <trkpt lat="59.8742207" lon="17.6888701">
        <ele>24.651</ele>
        <time>2013-04-21T14:03:22Z</time>
      </trkpt>
      <trkpt lat="59.8741938" lon="17.6887784">
        <ele>24.651</ele>
        <time>2013-04-21T14:03:23Z</time>
      </trkpt>
      <trkpt lat="59.8741668" lon="17.6886857">
        <ele>24.1703</ele>
        <time>2013-04-21T14:03:24Z</time>
      </trkpt>
      <trkpt lat="59.8741386" lon="17.688592">
        <ele>24.1703</ele>
        <time>2013-04-21T14:03:25Z</time>
      </trkpt>
      <trkpt lat="59.8741105" lon="17.6884976">
        <ele>24.1703</ele>
        <time>2013-04-21T14:03:26Z</time>
      </trkpt>
      <trkpt lat="59.8740844" lon="17.6884033">
        <ele>24.1703</ele>
        <time>2013-04-21T14:03:27Z</time>
      </trkpt>
      <trkpt lat="59.874059" lon="17.6883078">
        <ele>24.1703</ele>
        <time>2013-04-21T14:03:28Z</time>
      </trkpt>
      <trkpt lat="59.8740342" lon="17.6882107">
        <ele>24.1703</ele>
        <time>2013-04-21T14:03:29Z</time>
      </trkpt>
      <trkpt lat="59.8740095" lon="17.6881138">
        <ele>24.1703</ele>
        <time>2013-04-21T14:03:30Z</time>
      </trkpt>
      <trkpt lat="59.8739842" lon="17.688018">
        <ele>24.1703</ele>
        <time>2013-04-21T14:03:31Z</time>
      </trkpt>
      <trkpt lat="59.873963" lon="17.6879076">
        <ele>24.651</ele>
        <time>2013-04-21T14:03:32Z</time>
      </trkpt>
      <trkpt lat="59.8739404" lon="17.6878009">
        <ele>25.1317</ele>
        <time>2013-04-21T14:03:33Z</time>
      </trkpt>
      <trkpt lat="59.8739199" lon="17.6876933">
        <ele>25.1317</ele>
        <time>2013-04-21T14:03:34Z</time>
      </trkpt>
      <trkpt lat="59.8739132" lon="17.6875792">
        <ele>25.1317</ele>
        <time>2013-04-21T14:03:35Z</time>
      </trkpt>
      <trkpt lat="59.8739245" lon="17.6874611">
        <ele>25.1317</ele>
        <time>2013-04-21T14:03:36Z</time>
      </trkpt>
      <trkpt lat="59.87395" lon="17.6873456">
        <ele>24.651</ele>
        <time>2013-04-21T14:03:37Z</time>
      </trkpt>
      <trkpt lat="59.8739873" lon="17.6872452">
        <ele>24.651</ele>
        <time>2013-04-21T14:03:38Z</time>
      </trkpt>
      <trkpt lat="59.8740324" lon="17.6871533">
        <ele>24.651</ele>
        <time>2013-04-21T14:03:39Z</time>
      </trkpt>
      <trkpt lat="59.8740793" lon="17.6870591">
        <ele>25.1317</ele>
        <time>2013-04-21T14:03:40Z</time>
      </trkpt>
      <trkpt lat="59.8741255" lon="17.6869616">
        <ele>25.1317</ele>
        <time>2013-04-21T14:03:41Z</time>
      </trkpt>
      <trkpt lat="59.874172" lon="17.6868639">
        <ele>25.1317</ele>
        <time>2013-04-21T14:03:42Z</time>
      </trkpt>
      <trkpt lat="59.8742189" lon="17.6867673">
        <ele>25.1317</ele>
        <time>2013-04-21T14:03:43Z</time>
      </trkpt>
      <trkpt lat="59.8742663" lon="17.6866711">
        <ele>25.6123</ele>
        <time>2013-04-21T14:03:44Z</time>
      </trkpt>
      <trkpt lat="59.8743124" lon="17.6865744">
        <ele>25.6123</ele>
        <time>2013-04-21T14:03:45Z</time>
      </trkpt>
      <trkpt lat="59.8743581" lon="17.6864788">
        <ele>26.0929</ele>
        <time>2013-04-21T14:03:46Z</time>
      </trkpt>
      <trkpt lat="59.8744032" lon="17.686383">
        <ele>26.0929</ele>
        <time>2013-04-21T14:03:47Z</time>
      </trkpt>
      <trkpt lat="59.8744478" lon="17.6862872">
        <ele>25.6123</ele>
        <time>2013-04-21T14:03:48Z</time>
      </trkpt>
      <trkpt lat="59.874495" lon="17.6861897">
        <ele>25.6123</ele>
        <time>2013-04-21T14:03:49Z</time>
      </trkpt>
      <trkpt lat="59.8745399" lon="17.6860904">
        <ele>25.6123</ele>
        <time>2013-04-21T14:03:50Z</time>
      </trkpt>
      <trkpt lat="59.8745861" lon="17.6859939">
        <ele>25.6123</ele>
        <time>2013-04-21T14:03:51Z</time>
      </trkpt>
      <trkpt lat="59.8746341" lon="17.6858983">
        <ele>25.1317</ele>
        <time>2013-04-21T14:03:52Z</time>
      </trkpt>
      <trkpt lat="59.8746825" lon="17.6858031">
        <ele>25.6123</ele>
        <time>2013-04-21T14:03:53Z</time>
      </trkpt>
      <trkpt lat="59.87473" lon="17.6857096">
        <ele>25.6123</ele>
        <time>2013-04-21T14:03:54Z</time>
      </trkpt>
      <trkpt lat="59.8747767" lon="17.685616">
        <ele>26.0929</ele>
        <time>2013-04-21T14:03:55Z</time>
      </trkpt>
      <trkpt lat="59.8748207" lon="17.6855228">
        <ele>26.0929</ele>
        <time>2013-04-21T14:03:56Z</time>
      </trkpt>
      <trkpt lat="59.8748641" lon="17.68543">
        <ele>25.6123</ele>
        <time>2013-04-21T14:03:57Z</time>
      </trkpt>
      <trkpt lat="59.8749097" lon="17.6853404">
        <ele>26.0929</ele>
        <time>2013-04-21T14:03:58Z</time>
      </trkpt>
      <trkpt lat="59.8749554" lon="17.6852523">
        <ele>26.0929</ele>
        <time>2013-04-21T14:03:59Z</time>
      </trkpt>
      <trkpt lat="59.8750019" lon="17.6851623">
        <ele>26.5736</ele>
        <time>2013-04-21T14:04:00Z</time>
      </trkpt>
      <trkpt lat="59.8750466" lon="17.6850718">
        <ele>27.0543</ele>
        <time>2013-04-21T14:04:01Z</time>
      </trkpt>
      <trkpt lat="59.8750917" lon="17.6849807">
        <ele>27.5349</ele>
        <time>2013-04-21T14:04:02Z</time>
      </trkpt>
      <trkpt lat="59.8751375" lon="17.6848886">
        <ele>28.0155</ele>
        <time>2013-04-21T14:04:03Z</time>
      </trkpt>
      <trkpt lat="59.8751828" lon="17.6847964">
        <ele>28.4962</ele>
        <time>2013-04-21T14:04:04Z</time>
      </trkpt>
      <trkpt lat="59.8752272" lon="17.684703">
        <ele>28.4962</ele>
        <time>2013-04-21T14:04:05Z</time>
      </trkpt>
      <trkpt lat="59.8752728" lon="17.6846093">
        <ele>28.9769</ele>
        <time>2013-04-21T14:04:06Z</time>
      </trkpt>
      <trkpt lat="59.8753191" lon="17.6845172">
        <ele>29.4575</ele>
        <time>2013-04-21T14:04:07Z</time>
      </trkpt>
      <trkpt lat="59.8753655" lon="17.6844256">
        <ele>29.4575</ele>
        <time>2013-04-21T14:04:08Z</time>
      </trkpt>
      <trkpt lat="59.8754077" lon="17.6843321">
        <ele>28.9769</ele>
        <time>2013-04-21T14:04:09Z</time>
      </trkpt>
      <trkpt lat="59.8754568" lon="17.6842344">
        <ele>29.9381</ele>
        <time>2013-04-21T14:04:10Z</time>
      </trkpt>
      <trkpt lat="59.8755031" lon="17.6841381">
        <ele>30.8995</ele>
        <time>2013-04-21T14:04:11Z</time>
      </trkpt>
      <trkpt lat="59.8755521" lon="17.6840442">
        <ele>31.3801</ele>
        <time>2013-04-21T14:04:12Z</time>
      </trkpt>
      <trkpt lat="59.8756012" lon="17.6839532">
        <ele>31.8607</ele>
        <time>2013-04-21T14:04:13Z</time>
      </trkpt>
      <trkpt lat="59.8756484" lon="17.6838608">
        <ele>32.8223</ele>
        <time>2013-04-21T14:04:14Z</time>
      </trkpt>
      <trkpt lat="59.8756866" lon="17.6837644">
        <ele>32.8223</ele>
        <time>2013-04-21T14:04:15Z</time>
      </trkpt>
      <trkpt lat="59.8757148" lon="17.6836833">
        <ele>29.9381</ele>
        <time>2013-04-21T14:04:16Z</time>
      </trkpt>
      <trkpt lat="59.8757526" lon="17.6836045">
        <ele>29.4575</ele>
        <time>2013-04-21T14:04:17Z</time>
      </trkpt>
      <trkpt lat="59.8757966" lon="17.6835214">
        <ele>29.9381</ele>
        <time>2013-04-21T14:04:18Z</time>
      </trkpt>
      <trkpt lat="59.8758379" lon="17.6834377">
        <ele>30.8995</ele>
        <time>2013-04-21T14:04:19Z</time>
      </trkpt>
      <trkpt lat="59.875877" lon="17.6833559">
        <ele>30.8995</ele>
        <time>2013-04-21T14:04:20Z</time>
      </trkpt>
      <trkpt lat="59.8759153" lon="17.6832769">
        <ele>30.8995</ele>
        <time>2013-04-21T14:04:21Z</time>
      </trkpt>
      <trkpt lat="59.8759545" lon="17.6832">
        <ele>30.8995</ele>
        <time>2013-04-21T14:04:22Z</time>
      </trkpt>
      <trkpt lat="59.8759897" lon="17.6831244">
        <ele>30.8995</ele>
        <time>2013-04-21T14:04:23Z</time>
      </trkpt>
      <trkpt lat="59.8760246" lon="17.6830471">
        <ele>30.8995</ele>
        <time>2013-04-21T14:04:24Z</time>
      </trkpt>
      <trkpt lat="59.8760603" lon="17.6829713">
        <ele>30.4188</ele>
        <time>2013-04-21T14:04:25Z</time>
      </trkpt>
      <trkpt lat="59.8760972" lon="17.6828967">
        <ele>30.8995</ele>
        <time>2013-04-21T14:04:26Z</time>
      </trkpt>
      <trkpt lat="59.876133" lon="17.6828237">
        <ele>30.8995</ele>
        <time>2013-04-21T14:04:27Z</time>
      </trkpt>
      <trkpt lat="59.8761689" lon="17.6827491">
        <ele>30.8995</ele>
        <time>2013-04-21T14:04:28Z</time>
      </trkpt>
      <trkpt lat="59.8762043" lon="17.6826748">
        <ele>31.3801</ele>
        <time>2013-04-21T14:04:29Z</time>
      </trkpt>
      <trkpt lat="59.87624" lon="17.6826007">
        <ele>31.8607</ele>
        <time>2013-04-21T14:04:30Z</time>
      </trkpt>
      <trkpt lat="59.8762754" lon="17.6825291">
        <ele>31.8607</ele>
        <time>2013-04-21T14:04:31Z</time>
      </trkpt>
      <trkpt lat="59.8763101" lon="17.6824566">
        <ele>31.3801</ele>
        <time>2013-04-21T14:04:32Z</time>
      </trkpt>
      <trkpt lat="59.8763447" lon="17.6823809">
        <ele>31.3801</ele>
        <time>2013-04-21T14:04:33Z</time>
      </trkpt>
      <trkpt lat="59.8763787" lon="17.6823046">
        <ele>31.3801</ele>
        <time>2013-04-21T14:04:34Z</time>
      </trkpt>
      <trkpt lat="59.8764148" lon="17.6822271">
        <ele>31.3801</ele>
        <time>2013-04-21T14:04:35Z</time>
      </trkpt>
      <trkpt lat="59.8764529" lon="17.6821506">
        <ele>31.3801</ele>
        <time>2013-04-21T14:04:36Z</time>
      </trkpt>
      <trkpt lat="59.8764903" lon="17.6820718">
        <ele>30.8995</ele>
        <time>2013-04-21T14:04:37Z</time>
      </trkpt>
      <trkpt lat="59.8765264" lon="17.6819921">
        <ele>30.4188</ele>
        <time>2013-04-21T14:04:38Z</time>
      </trkpt>
      <trkpt lat="59.8765648" lon="17.6819102">
        <ele>30.8995</ele>
        <time>2013-04-21T14:04:39Z</time>
      </trkpt>
      <trkpt lat="59.8766018" lon="17.6818252">
        <ele>30.8995</ele>
        <time>2013-04-21T14:04:40Z</time>
      </trkpt>
      <trkpt lat="59.87664" lon="17.6817398">
        <ele>30.8995</ele>
        <time>2013-04-21T14:04:41Z</time>
      </trkpt>
      <trkpt lat="59.8766793" lon="17.681658">
        <ele>30.4188</ele>
        <time>2013-04-21T14:04:42Z</time>
      </trkpt>
      <trkpt lat="59.8767218" lon="17.6815776">
        <ele>30.4188</ele>
        <time>2013-04-21T14:04:43Z</time>
      </trkpt>
      <trkpt lat="59.876762" lon="17.6814926">
        <ele>30.4188</ele>
        <time>2013-04-21T14:04:44Z</time>
      </trkpt>
      <trkpt lat="59.8768004" lon="17.681404">
        <ele>30.4188</ele>
        <time>2013-04-21T14:04:45Z</time>
      </trkpt>
      <trkpt lat="59.8768388" lon="17.6813165">
        <ele>29.9381</ele>
        <time>2013-04-21T14:04:46Z</time>
      </trkpt>
      <trkpt lat="59.8768797" lon="17.6812314">
        <ele>29.9381</ele>
        <time>2013-04-21T14:04:47Z</time>
      </trkpt>
      <trkpt lat="59.8769193" lon="17.6811466">
        <ele>29.4575</ele>
        <time>2013-04-21T14:04:48Z</time>
      </trkpt>
      <trkpt lat="59.8769591" lon="17.6810602">
        <ele>29.4575</ele>
        <time>2013-04-21T14:04:49Z</time>
      </trkpt>
      <trkpt lat="59.8769953" lon="17.6809777">
        <ele>28.4962</ele>
        <time>2013-04-21T14:04:50Z</time>
      </trkpt>
      <trkpt lat="59.8770378" lon="17.6808907">
        <ele>28.4962</ele>
        <time>2013-04-21T14:04:51Z</time>
      </trkpt>
      <trkpt lat="59.8770839" lon="17.6808024">
        <ele>28.4962</ele>
        <time>2013-04-21T14:04:52Z</time>
      </trkpt>
      <trkpt lat="59.8771286" lon="17.6807129">
        <ele>28.4962</ele>
        <time>2013-04-21T14:04:53Z</time>
      </trkpt>
      <trkpt lat="59.8771719" lon="17.6806203">
        <ele>28.4962</ele>
        <time>2013-04-21T14:04:54Z</time>
      </trkpt>
      <trkpt lat="59.8772138" lon="17.6805275">
        <ele>28.9769</ele>
        <time>2013-04-21T14:04:55Z</time>
      </trkpt>
      <trkpt lat="59.8772554" lon="17.6804375">
        <ele>28.9769</ele>
        <time>2013-04-21T14:04:56Z</time>
      </trkpt>
      <trkpt lat="59.8772968" lon="17.6803536">
        <ele>28.9769</ele>
        <time>2013-04-21T14:04:57Z</time>
      </trkpt>
      <trkpt lat="59.8773425" lon="17.68028">
        <ele>29.4575</ele>
        <time>2013-04-21T14:04:58Z</time>
      </trkpt>
      <trkpt lat="59.8773952" lon="17.6802362">
        <ele>29.9381</ele>
        <time>2013-04-21T14:04:59Z</time>
      </trkpt>
      <trkpt lat="59.8774482" lon="17.6802391">
        <ele>28.9769</ele>
        <time>2013-04-21T14:05:00Z</time>
      </trkpt>
      <trkpt lat="59.8774993" lon="17.6802893">
        <ele>28.9769</ele>
        <time>2013-04-21T14:05:01Z</time>
      </trkpt>
      <trkpt lat="59.8775377" lon="17.6803691">
        <ele>28.0155</ele>
        <time>2013-04-21T14:05:02Z</time>
      </trkpt>
      <trkpt lat="59.8775769" lon="17.6804574">
        <ele>28.0155</ele>
        <time>2013-04-21T14:05:03Z</time>
      </trkpt>
      <trkpt lat="59.8776141" lon="17.6805487">
        <ele>28.0155</ele>
        <time>2013-04-21T14:05:04Z</time>
      </trkpt>
      <trkpt lat="59.8776502" lon="17.6806393">
        <ele>28.0155</ele>
        <time>2013-04-21T14:05:05Z</time>
      </trkpt>
      <trkpt lat="59.8776888" lon="17.6807269">
        <ele>28.0155</ele>
        <time>2013-04-21T14:05:06Z</time>
      </trkpt>
      <trkpt lat="59.8777262" lon="17.6808128">
        <ele>28.4962</ele>
        <time>2013-04-21T14:05:07Z</time>
      </trkpt>
      <trkpt lat="59.8777614" lon="17.6808995">
        <ele>28.4962</ele>
        <time>2013-04-21T14:05:08Z</time>
      </trkpt>
      <trkpt lat="59.8777937" lon="17.6809875">
        <ele>27.5349</ele>
        <time>2013-04-21T14:05:09Z</time>
      </trkpt>
      <trkpt lat="59.8778255" lon="17.6810738">
        <ele>27.0543</ele>
        <time>2013-04-21T14:05:10Z</time>
      </trkpt>
      <trkpt lat="59.8778593" lon="17.6811585">
        <ele>26.5736</ele>
        <time>2013-04-21T14:05:11Z</time>
      </trkpt>
      <trkpt lat="59.8778906" lon="17.6812429">
        <ele>25.6123</ele>
        <time>2013-04-21T14:05:12Z</time>
      </trkpt>
      <trkpt lat="59.8779236" lon="17.6813263">
        <ele>25.1317</ele>
        <time>2013-04-21T14:05:13Z</time>
      </trkpt>
      <trkpt lat="59.8779572" lon="17.6814072">
        <ele>24.651</ele>
        <time>2013-04-21T14:05:14Z</time>
      </trkpt>
      <trkpt lat="59.8779959" lon="17.6814801">
        <ele>25.6123</ele>
        <time>2013-04-21T14:05:15Z</time>
      </trkpt>
      <trkpt lat="59.8780339" lon="17.6815615">
        <ele>26.5736</ele>
        <time>2013-04-21T14:05:16Z</time>
      </trkpt>
      <trkpt lat="59.8780801" lon="17.6816375">
        <ele>29.4575</ele>
        <time>2013-04-21T14:05:17Z</time>
      </trkpt>
      <trkpt lat="59.8781085" lon="17.6817103">
        <ele>29.9381</ele>
        <time>2013-04-21T14:05:18Z</time>
      </trkpt>
      <trkpt lat="59.8781387" lon="17.6817802">
        <ele>30.8995</ele>
        <time>2013-04-21T14:05:19Z</time>
      </trkpt>
      <trkpt lat="59.8781685" lon="17.6818488">
        <ele>31.8607</ele>
        <time>2013-04-21T14:05:20Z</time>
      </trkpt>
      <trkpt lat="59.8782001" lon="17.6819262">
        <ele>33.3029</ele>
        <time>2013-04-21T14:05:21Z</time>
      </trkpt>
      <trkpt lat="59.8782292" lon="17.6820076">
        <ele>33.3029</ele>
        <time>2013-04-21T14:05:22Z</time>
      </trkpt>
      <trkpt lat="59.8782608" lon="17.6820883">
        <ele>34.2642</ele>
        <time>2013-04-21T14:05:23Z</time>
      </trkpt>
      <trkpt lat="59.8782941" lon="17.6821665">
        <ele>35.2255</ele>
        <time>2013-04-21T14:05:24Z</time>
      </trkpt>
      <trkpt lat="59.8783303" lon="17.682241">
        <ele>36.6675</ele>
        <time>2013-04-21T14:05:25Z</time>
      </trkpt>
      <trkpt lat="59.8783738" lon="17.6823199">
        <ele>38.5901</ele>
        <time>2013-04-21T14:05:26Z</time>
      </trkpt>
      <trkpt lat="59.8784145" lon="17.6823992">
        <ele>40.0321</ele>
        <time>2013-04-21T14:05:27Z</time>
      </trkpt>
      <trkpt lat="59.8784531" lon="17.6824797">
        <ele>40.9934</ele>
        <time>2013-04-21T14:05:28Z</time>
      </trkpt>
      <trkpt lat="59.8784945" lon="17.6825605">
        <ele>41.9547</ele>
        <time>2013-04-21T14:05:29Z</time>
      </trkpt>
      <trkpt lat="59.8785354" lon="17.6826415">
        <ele>42.4354</ele>
        <time>2013-04-21T14:05:30Z</time>
      </trkpt>
      <trkpt lat="59.8785764" lon="17.6827289">
        <ele>42.4354</ele>
        <time>2013-04-21T14:05:31Z</time>
      </trkpt>
      <trkpt lat="59.8786162" lon="17.6828118">
        <ele>41.9547</ele>
        <time>2013-04-21T14:05:32Z</time>
      </trkpt>
      <trkpt lat="59.8786588" lon="17.6828895">
        <ele>41.9547</ele>
        <time>2013-04-21T14:05:33Z</time>
      </trkpt>
      <trkpt lat="59.8787026" lon="17.6829669">
        <ele>41.474</ele>
        <time>2013-04-21T14:05:34Z</time>
      </trkpt>
      <trkpt lat="59.8787497" lon="17.6830403">
        <ele>40.9934</ele>
        <time>2013-04-21T14:05:35Z</time>
      </trkpt>
      <trkpt lat="59.8788004" lon="17.6831113">
        <ele>41.474</ele>
        <time>2013-04-21T14:05:36Z</time>
      </trkpt>
      <trkpt lat="59.8788515" lon="17.6831885">
        <ele>41.474</ele>
        <time>2013-04-21T14:05:37Z</time>
      </trkpt>
      <trkpt lat="59.8789025" lon="17.6832659">
        <ele>40.9934</ele>
        <time>2013-04-21T14:05:38Z</time>
      </trkpt>
      <trkpt lat="59.8789556" lon="17.6833418">
        <ele>40.9934</ele>
        <time>2013-04-21T14:05:39Z</time>
      </trkpt>
      <trkpt lat="59.87901" lon="17.6834171">
        <ele>40.9934</ele>
        <time>2013-04-21T14:05:40Z</time>
      </trkpt>
      <trkpt lat="59.8790632" lon="17.6834941">
        <ele>40.9934</ele>
        <time>2013-04-21T14:05:41Z</time>
      </trkpt>
      <trkpt lat="59.8791181" lon="17.6835679">
        <ele>40.5128</ele>
        <time>2013-04-21T14:05:42Z</time>
      </trkpt>
      <trkpt lat="59.8791811" lon="17.6836373">
        <ele>40.5128</ele>
        <time>2013-04-21T14:05:43Z</time>
      </trkpt>
      <trkpt lat="59.8792423" lon="17.6837085">
        <ele>40.5128</ele>
        <time>2013-04-21T14:05:44Z</time>
      </trkpt>
      <trkpt lat="59.8793034" lon="17.6837816">
        <ele>40.0321</ele>
        <time>2013-04-21T14:05:45Z</time>
      </trkpt>
      <trkpt lat="59.8793659" lon="17.6838564">
        <ele>39.5513</ele>
        <time>2013-04-21T14:05:46Z</time>
      </trkpt>
      <trkpt lat="59.8794322" lon="17.6839314">
        <ele>39.5513</ele>
        <time>2013-04-21T14:05:47Z</time>
      </trkpt>
      <trkpt lat="59.8795004" lon="17.6840086">
        <ele>40.0321</ele>
        <time>2013-04-21T14:05:48Z</time>
      </trkpt>
      <trkpt lat="59.8795693" lon="17.6840885">
        <ele>40.0321</ele>
        <time>2013-04-21T14:05:49Z</time>
      </trkpt>
      <trkpt lat="59.8796373" lon="17.684175">
        <ele>40.0321</ele>
        <time>2013-04-21T14:05:50Z</time>
      </trkpt>
      <trkpt lat="59.8797057" lon="17.6842643">
        <ele>39.5513</ele>
        <time>2013-04-21T14:05:51Z</time>
      </trkpt>
      <trkpt lat="59.879775" lon="17.6843555">
        <ele>39.5513</ele>
        <time>2013-04-21T14:05:52Z</time>
      </trkpt>
      <trkpt lat="59.8798444" lon="17.684451">
        <ele>39.0707</ele>
        <time>2013-04-21T14:05:53Z</time>
      </trkpt>
      <trkpt lat="59.8799148" lon="17.6845498">
        <ele>38.5901</ele>
        <time>2013-04-21T14:05:54Z</time>
      </trkpt>
      <trkpt lat="59.8799874" lon="17.6846495">
        <ele>38.5901</ele>
        <time>2013-04-21T14:05:55Z</time>
      </trkpt>
      <trkpt lat="59.8800619" lon="17.6847492">
        <ele>38.5901</ele>
        <time>2013-04-21T14:05:56Z</time>
      </trkpt>
      <trkpt lat="59.880137" lon="17.6848488">
        <ele>38.5901</ele>
        <time>2013-04-21T14:05:57Z</time>
      </trkpt>
      <trkpt lat="59.880213" lon="17.6849506">
        <ele>38.5901</ele>
        <time>2013-04-21T14:05:58Z</time>
      </trkpt>
      <trkpt lat="59.8802888" lon="17.6850561">
        <ele>38.5901</ele>
        <time>2013-04-21T14:05:59Z</time>
      </trkpt>
      <trkpt lat="59.8803645" lon="17.685162">
        <ele>38.1094</ele>
        <time>2013-04-21T14:06:00Z</time>
      </trkpt>
      <trkpt lat="59.880442" lon="17.685268">
        <ele>38.1094</ele>
        <time>2013-04-21T14:06:01Z</time>
      </trkpt>
      <trkpt lat="59.8805199" lon="17.6853742">
        <ele>38.1094</ele>
        <time>2013-04-21T14:06:02Z</time>
      </trkpt>
      <trkpt lat="59.8805979" lon="17.6854808">
        <ele>37.6287</ele>
        <time>2013-04-21T14:06:03Z</time>
      </trkpt>
      <trkpt lat="59.8806763" lon="17.685588">
        <ele>37.6287</ele>
        <time>2013-04-21T14:06:04Z</time>
      </trkpt>
      <trkpt lat="59.8807546" lon="17.6856951">
        <ele>37.6287</ele>
        <time>2013-04-21T14:06:05Z</time>
      </trkpt>
      <trkpt lat="59.8808333" lon="17.6858024">
        <ele>37.6287</ele>
        <time>2013-04-21T14:06:06Z</time>
      </trkpt>
      <trkpt lat="59.8809126" lon="17.6859086">
        <ele>37.6287</ele>
        <time>2013-04-21T14:06:07Z</time>
      </trkpt>
      <trkpt lat="59.8809914" lon="17.6860139">
        <ele>37.6287</ele>
        <time>2013-04-21T14:06:08Z</time>
      </trkpt>
      <trkpt lat="59.88107" lon="17.6861189">
        <ele>37.6287</ele>
        <time>2013-04-21T14:06:09Z</time>
      </trkpt>
      <trkpt lat="59.8811518" lon="17.6862203">
        <ele>38.1094</ele>
        <time>2013-04-21T14:06:10Z</time>
      </trkpt>
      <trkpt lat="59.8812271" lon="17.6863192">
        <ele>37.6287</ele>
        <time>2013-04-21T14:06:11Z</time>
      </trkpt>
      <trkpt lat="59.8813021" lon="17.6864173">
        <ele>37.6287</ele>
        <time>2013-04-21T14:06:12Z</time>
      </trkpt>
      <trkpt lat="59.8813772" lon="17.6865158">
        <ele>37.6287</ele>
        <time>2013-04-21T14:06:13Z</time>
      </trkpt>
      <trkpt lat="59.8814513" lon="17.6866157">
        <ele>37.6287</ele>
        <time>2013-04-21T14:06:14Z</time>
      </trkpt>
      <trkpt lat="59.8815257" lon="17.6867141">
        <ele>37.6287</ele>
        <time>2013-04-21T14:06:15Z</time>
      </trkpt>
      <trkpt lat="59.8816009" lon="17.6868129">
        <ele>38.1094</ele>
        <time>2013-04-21T14:06:16Z</time>
      </trkpt>
      <trkpt lat="59.8816761" lon="17.6869144">
        <ele>38.1094</ele>
        <time>2013-04-21T14:06:17Z</time>
      </trkpt>
      <trkpt lat="59.8817525" lon="17.6870161">
        <ele>38.1094</ele>
        <time>2013-04-21T14:06:18Z</time>
      </trkpt>
      <trkpt lat="59.8818293" lon="17.6871188">
        <ele>38.1094</ele>
        <time>2013-04-21T14:06:19Z</time>
      </trkpt>
      <trkpt lat="59.8819053" lon="17.6872231">
        <ele>38.1094</ele>
        <time>2013-04-21T14:06:20Z</time>
      </trkpt>
      <trkpt lat="59.8819826" lon="17.6873271">
        <ele>38.1094</ele>
        <time>2013-04-21T14:06:21Z</time>
      </trkpt>
      <trkpt lat="59.8820599" lon="17.6874326">
        <ele>38.1094</ele>
        <time>2013-04-21T14:06:22Z</time>
      </trkpt>
      <trkpt lat="59.8821391" lon="17.6875412">
        <ele>38.1094</ele>
        <time>2013-04-21T14:06:23Z</time>
      </trkpt>
      <trkpt lat="59.8822189" lon="17.687651">
        <ele>37.6287</ele>
        <time>2013-04-21T14:06:24Z</time>
      </trkpt>
      <trkpt lat="59.8822998" lon="17.6877613">
        <ele>37.6287</ele>
        <time>2013-04-21T14:06:25Z</time>
      </trkpt>
      <trkpt lat="59.8823802" lon="17.687871">
        <ele>37.6287</ele>
        <time>2013-04-21T14:06:26Z</time>
      </trkpt>
      <trkpt lat="59.8824619" lon="17.6879807">
        <ele>37.6287</ele>
        <time>2013-04-21T14:06:27Z</time>
      </trkpt>
      <trkpt lat="59.8825432" lon="17.6880931">
        <ele>37.6287</ele>
        <time>2013-04-21T14:06:28Z</time>
      </trkpt>
      <trkpt lat="59.8826251" lon="17.6882051">
        <ele>37.6287</ele>
        <time>2013-04-21T14:06:29Z</time>
      </trkpt>
      <trkpt lat="59.8827072" lon="17.6883164">
        <ele>37.1481</ele>
        <time>2013-04-21T14:06:30Z</time>
      </trkpt>
      <trkpt lat="59.8827891" lon="17.6884286">
        <ele>37.1481</ele>
        <time>2013-04-21T14:06:31Z</time>
      </trkpt>
      <trkpt lat="59.8828712" lon="17.6885397">
        <ele>37.1481</ele>
        <time>2013-04-21T14:06:32Z</time>
      </trkpt>
      <trkpt lat="59.8829533" lon="17.6886493">
        <ele>37.1481</ele>
        <time>2013-04-21T14:06:33Z</time>
      </trkpt>
      <trkpt lat="59.8830348" lon="17.6887578">
        <ele>37.1481</ele>
        <time>2013-04-21T14:06:34Z</time>
      </trkpt>
      <trkpt lat="59.8831152" lon="17.688867">
        <ele>37.1481</ele>
        <time>2013-04-21T14:06:35Z</time>
      </trkpt>
      <trkpt lat="59.8831945" lon="17.6889757">
        <ele>37.1481</ele>
        <time>2013-04-21T14:06:36Z</time>
      </trkpt>
      <trkpt lat="59.8832734" lon="17.6890826">
        <ele>37.1481</ele>
        <time>2013-04-21T14:06:37Z</time>
      </trkpt>
      <trkpt lat="59.8833508" lon="17.6891883">
        <ele>37.1481</ele>
        <time>2013-04-21T14:06:38Z</time>
      </trkpt>
      <trkpt lat="59.8834278" lon="17.6892919">
        <ele>37.1481</ele>
        <time>2013-04-21T14:06:39Z</time>
      </trkpt>
      <trkpt lat="59.8835139" lon="17.6893885">
        <ele>38.1094</ele>
        <time>2013-04-21T14:06:40Z</time>
      </trkpt>
      <trkpt lat="59.8835972" lon="17.6894835">
        <ele>39.0707</ele>
        <time>2013-04-21T14:06:41Z</time>
      </trkpt>
      <trkpt lat="59.8836734" lon="17.6895809">
        <ele>39.0707</ele>
        <time>2013-04-21T14:06:42Z</time>
      </trkpt>
      <trkpt lat="59.8837481" lon="17.6896807">
        <ele>39.5513</ele>
        <time>2013-04-21T14:06:43Z</time>
      </trkpt>
      <trkpt lat="59.8838231" lon="17.68978">
        <ele>39.0707</ele>
        <time>2013-04-21T14:06:44Z</time>
      </trkpt>
      <trkpt lat="59.8838978" lon="17.6898801">
        <ele>39.0707</ele>
        <time>2013-04-21T14:06:45Z</time>
      </trkpt>
      <trkpt lat="59.8839725" lon="17.6899805">
        <ele>39.0707</ele>
        <time>2013-04-21T14:06:46Z</time>
      </trkpt>
      <trkpt lat="59.8840536" lon="17.6900771">
        <ele>39.5513</ele>
        <time>2013-04-21T14:06:47Z</time>
      </trkpt>
      <trkpt lat="59.8841283" lon="17.6901761">
        <ele>39.5513</ele>
        <time>2013-04-21T14:06:48Z</time>
      </trkpt>
      <trkpt lat="59.8842045" lon="17.6902764">
        <ele>39.5513</ele>
        <time>2013-04-21T14:06:49Z</time>
      </trkpt>
      <trkpt lat="59.8842805" lon="17.6903758">
        <ele>39.5513</ele>
        <time>2013-04-21T14:06:50Z</time>
      </trkpt>
      <trkpt lat="59.8843546" lon="17.6904752">
        <ele>39.5513</ele>
        <time>2013-04-21T14:06:51Z</time>
      </trkpt>
      <trkpt lat="59.8844279" lon="17.6905759">
        <ele>39.5513</ele>
        <time>2013-04-21T14:06:52Z</time>
      </trkpt>
      <trkpt lat="59.8845018" lon="17.690677">
        <ele>40.0321</ele>
        <time>2013-04-21T14:06:53Z</time>
      </trkpt>
      <trkpt lat="59.8845763" lon="17.6907752">
        <ele>40.0321</ele>
        <time>2013-04-21T14:06:54Z</time>
      </trkpt>
      <trkpt lat="59.8846514" lon="17.6908736">
        <ele>40.0321</ele>
        <time>2013-04-21T14:06:55Z</time>
      </trkpt>
      <trkpt lat="59.8847264" lon="17.6909728">
        <ele>39.5513</ele>
        <time>2013-04-21T14:06:56Z</time>
      </trkpt>
      <trkpt lat="59.8848028" lon="17.6910701">
        <ele>39.5513</ele>
        <time>2013-04-21T14:06:57Z</time>
      </trkpt>
      <trkpt lat="59.8848801" lon="17.691166">
        <ele>39.5513</ele>
        <time>2013-04-21T14:06:58Z</time>
      </trkpt>
      <trkpt lat="59.8849556" lon="17.6912634">
        <ele>39.5513</ele>
        <time>2013-04-21T14:06:59Z</time>
      </trkpt>
      <trkpt lat="59.8850286" lon="17.6913594">
        <ele>39.0707</ele>
        <time>2013-04-21T14:07:00Z</time>
      </trkpt>
      <trkpt lat="59.8851009" lon="17.6914553">
        <ele>39.0707</ele>
        <time>2013-04-21T14:07:01Z</time>
      </trkpt>
      <trkpt lat="59.8851725" lon="17.6915518">
        <ele>38.5901</ele>
        <time>2013-04-21T14:07:02Z</time>
      </trkpt>
      <trkpt lat="59.8852427" lon="17.6916497">
        <ele>38.5901</ele>
        <time>2013-04-21T14:07:03Z</time>
      </trkpt>
      <trkpt lat="59.8853133" lon="17.6917476">
        <ele>38.1094</ele>
        <time>2013-04-21T14:07:04Z</time>
      </trkpt>
      <trkpt lat="59.8853836" lon="17.6918445">
        <ele>38.1094</ele>
        <time>2013-04-21T14:07:05Z</time>
      </trkpt>
      <trkpt lat="59.8854544" lon="17.6919419">
        <ele>38.1094</ele>
        <time>2013-04-21T14:07:06Z</time>
      </trkpt>
      <trkpt lat="59.8855254" lon="17.6920404">
        <ele>37.6287</ele>
        <time>2013-04-21T14:07:07Z</time>
      </trkpt>
      <trkpt lat="59.885598" lon="17.6921387">
        <ele>37.6287</ele>
        <time>2013-04-21T14:07:08Z</time>
      </trkpt>
      <trkpt lat="59.8856711" lon="17.6922362">
        <ele>37.6287</ele>
        <time>2013-04-21T14:07:09Z</time>
      </trkpt>
      <trkpt lat="59.8857443" lon="17.6923329">
        <ele>37.1481</ele>
        <time>2013-04-21T14:07:10Z</time>
      </trkpt>
      <trkpt lat="59.885817" lon="17.6924302">
        <ele>37.1481</ele>
        <time>2013-04-21T14:07:11Z</time>
      </trkpt>
      <trkpt lat="59.8858897" lon="17.6925288">
        <ele>36.6675</ele>
        <time>2013-04-21T14:07:12Z</time>
      </trkpt>
      <trkpt lat="59.8859635" lon="17.692625">
        <ele>36.1868</ele>
        <time>2013-04-21T14:07:13Z</time>
      </trkpt>
      <trkpt lat="59.8860365" lon="17.6927216">
        <ele>35.7061</ele>
        <time>2013-04-21T14:07:14Z</time>
      </trkpt>
      <trkpt lat="59.8861093" lon="17.6928174">
        <ele>35.7061</ele>
        <time>2013-04-21T14:07:15Z</time>
      </trkpt>
      <trkpt lat="59.8861797" lon="17.6929171">
        <ele>35.2255</ele>
        <time>2013-04-21T14:07:16Z</time>
      </trkpt>
      <trkpt lat="59.8862481" lon="17.6930127">
        <ele>34.7449</ele>
        <time>2013-04-21T14:07:17Z</time>
      </trkpt>
      <trkpt lat="59.8863169" lon="17.69311">
        <ele>34.2642</ele>
        <time>2013-04-21T14:07:18Z</time>
      </trkpt>
      <trkpt lat="59.8863872" lon="17.6932064">
        <ele>34.2642</ele>
        <time>2013-04-21T14:07:19Z</time>
      </trkpt>
      <trkpt lat="59.8864578" lon="17.6933018">
        <ele>33.7834</ele>
        <time>2013-04-21T14:07:20Z</time>
      </trkpt>
      <trkpt lat="59.8865286" lon="17.6933943">
        <ele>33.7834</ele>
        <time>2013-04-21T14:07:21Z</time>
      </trkpt>
      <trkpt lat="59.8865981" lon="17.6934834">
        <ele>33.7834</ele>
        <time>2013-04-21T14:07:22Z</time>
      </trkpt>
      <trkpt lat="59.8866666" lon="17.6935674">
        <ele>33.7834</ele>
        <time>2013-04-21T14:07:23Z</time>
      </trkpt>
      <trkpt lat="59.8867335" lon="17.6936477">
        <ele>33.3029</ele>
        <time>2013-04-21T14:07:24Z</time>
      </trkpt>
      <trkpt lat="59.886799" lon="17.6937263">
        <ele>33.3029</ele>
        <time>2013-04-21T14:07:25Z</time>
      </trkpt>
      <trkpt lat="59.8868562" lon="17.6938176">
        <ele>33.3029</ele>
        <time>2013-04-21T14:07:26Z</time>
      </trkpt>
      <trkpt lat="59.8868974" lon="17.6939337">
        <ele>33.3029</ele>
        <time>2013-04-21T14:07:27Z</time>
      </trkpt>
      <trkpt lat="59.8869167" lon="17.6940673">
        <ele>32.8223</ele>
        <time>2013-04-21T14:07:28Z</time>
      </trkpt>
      <trkpt lat="59.886921" lon="17.6942066">
        <ele>32.3416</ele>
        <time>2013-04-21T14:07:29Z</time>
      </trkpt>
      <trkpt lat="59.8869264" lon="17.694346">
        <ele>31.8607</ele>
        <time>2013-04-21T14:07:30Z</time>
      </trkpt>
      <trkpt lat="59.8869467" lon="17.6944777">
        <ele>31.8607</ele>
        <time>2013-04-21T14:07:31Z</time>
      </trkpt>
      <trkpt lat="59.8869832" lon="17.694597">
        <ele>31.8607</ele>
        <time>2013-04-21T14:07:32Z</time>
      </trkpt>
      <trkpt lat="59.8870338" lon="17.6946972">
        <ele>31.8607</ele>
        <time>2013-04-21T14:07:33Z</time>
      </trkpt>
      <trkpt lat="59.8870933" lon="17.6947721">
        <ele>30.8995</ele>
        <time>2013-04-21T14:07:34Z</time>
      </trkpt>
      <trkpt lat="59.8871618" lon="17.6948219">
        <ele>30.8995</ele>
        <time>2013-04-21T14:07:35Z</time>
      </trkpt>
      <trkpt lat="59.8872343" lon="17.6948607">
        <ele>30.8995</ele>
        <time>2013-04-21T14:07:36Z</time>
      </trkpt>
      <trkpt lat="59.8873098" lon="17.6948946">
        <ele>30.4188</ele>
        <time>2013-04-21T14:07:37Z</time>
      </trkpt>
      <trkpt lat="59.8873881" lon="17.6949313">
        <ele>30.4188</ele>
        <time>2013-04-21T14:07:38Z</time>
      </trkpt>
      <trkpt lat="59.8874678" lon="17.6949783">
        <ele>30.4188</ele>
        <time>2013-04-21T14:07:39Z</time>
      </trkpt>
      <trkpt lat="59.8875466" lon="17.6950355">
        <ele>29.9381</ele>
        <time>2013-04-21T14:07:40Z</time>
      </trkpt>
      <trkpt lat="59.8876258" lon="17.6951038">
        <ele>29.9381</ele>
        <time>2013-04-21T14:07:41Z</time>
      </trkpt>
      <trkpt lat="59.8877014" lon="17.695182">
        <ele>29.4575</ele>
        <time>2013-04-21T14:07:42Z</time>
      </trkpt>
      <trkpt lat="59.8877751" lon="17.6952671">
        <ele>28.4962</ele>
        <time>2013-04-21T14:07:43Z</time>
      </trkpt>
      <trkpt lat="59.8878476" lon="17.695356">
        <ele>28.0155</ele>
        <time>2013-04-21T14:07:44Z</time>
      </trkpt>
      <trkpt lat="59.8879182" lon="17.6954479">
        <ele>27.0543</ele>
        <time>2013-04-21T14:07:45Z</time>
      </trkpt>
      <trkpt lat="59.8879874" lon="17.6955429">
        <ele>26.5736</ele>
        <time>2013-04-21T14:07:46Z</time>
      </trkpt>
      <trkpt lat="59.8880547" lon="17.6956363">
        <ele>26.0929</ele>
        <time>2013-04-21T14:07:47Z</time>
      </trkpt>
      <trkpt lat="59.8881209" lon="17.6957275">
        <ele>25.1317</ele>
        <time>2013-04-21T14:07:48Z</time>
      </trkpt>
      <trkpt lat="59.8881878" lon="17.6958174">
        <ele>25.1317</ele>
        <time>2013-04-21T14:07:49Z</time>
      </trkpt>
      <trkpt lat="59.8882528" lon="17.6959065">
        <ele>25.1317</ele>
        <time>2013-04-21T14:07:50Z</time>
      </trkpt>
      <trkpt lat="59.888316" lon="17.6959932">
        <ele>25.1317</ele>
        <time>2013-04-21T14:07:51Z</time>
      </trkpt>
      <trkpt lat="59.8883795" lon="17.6960792">
        <ele>25.1317</ele>
        <time>2013-04-21T14:07:52Z</time>
      </trkpt>
      <trkpt lat="59.8884439" lon="17.6961643">
        <ele>25.6123</ele>
        <time>2013-04-21T14:07:53Z</time>
      </trkpt>
      <trkpt lat="59.8885076" lon="17.6962481">
        <ele>25.6123</ele>
        <time>2013-04-21T14:07:54Z</time>
      </trkpt>
      <trkpt lat="59.8885713" lon="17.6963313">
        <ele>25.6123</ele>
        <time>2013-04-21T14:07:55Z</time>
      </trkpt>
      <trkpt lat="59.888635" lon="17.6964135">
        <ele>26.0929</ele>
        <time>2013-04-21T14:07:56Z</time>
      </trkpt>
      <trkpt lat="59.8886976" lon="17.6964957">
        <ele>26.0929</ele>
        <time>2013-04-21T14:07:57Z</time>
      </trkpt>
      <trkpt lat="59.8887588" lon="17.6965799">
        <ele>26.0929</ele>
        <time>2013-04-21T14:07:58Z</time>
      </trkpt>
      <trkpt lat="59.8888194" lon="17.6966635">
        <ele>26.5736</ele>
        <time>2013-04-21T14:07:59Z</time>
      </trkpt>
      <trkpt lat="59.8888804" lon="17.6967445">
        <ele>26.5736</ele>
        <time>2013-04-21T14:08:00Z</time>
      </trkpt>
      <trkpt lat="59.8889405" lon="17.6968248">
        <ele>26.5736</ele>
        <time>2013-04-21T14:08:01Z</time>
      </trkpt>
      <trkpt lat="59.8890007" lon="17.696905">
        <ele>27.0543</ele>
        <time>2013-04-21T14:08:02Z</time>
      </trkpt>
      <trkpt lat="59.8890613" lon="17.6969832">
        <ele>27.0543</ele>
        <time>2013-04-21T14:08:03Z</time>
      </trkpt>
      <trkpt lat="59.8891219" lon="17.6970609">
        <ele>27.0543</ele>
        <time>2013-04-21T14:08:04Z</time>
      </trkpt>
      <trkpt lat="59.8891816" lon="17.6971407">
        <ele>27.5349</ele>
        <time>2013-04-21T14:08:05Z</time>
      </trkpt>
      <trkpt lat="59.8892395" lon="17.6972204">
        <ele>27.5349</ele>
        <time>2013-04-21T14:08:06Z</time>
      </trkpt>
      <trkpt lat="59.8892984" lon="17.6972976">
        <ele>28.0155</ele>
        <time>2013-04-21T14:08:07Z</time>
      </trkpt>
      <trkpt lat="59.8893554" lon="17.6973723">
        <ele>28.4962</ele>
        <time>2013-04-21T14:08:08Z</time>
      </trkpt>
      <trkpt lat="59.8894094" lon="17.6974468">
        <ele>28.4962</ele>
        <time>2013-04-21T14:08:09Z</time>
      </trkpt>
      <trkpt lat="59.8894642" lon="17.6975198">
        <ele>28.4962</ele>
        <time>2013-04-21T14:08:10Z</time>
      </trkpt>
      <trkpt lat="59.8895203" lon="17.6975924">
        <ele>28.4962</ele>
        <time>2013-04-21T14:08:11Z</time>
      </trkpt>
      <trkpt lat="59.8895778" lon="17.6976686">
        <ele>28.4962</ele>
        <time>2013-04-21T14:08:12Z</time>
      </trkpt>
      <trkpt lat="59.8896358" lon="17.6977489">
        <ele>28.4962</ele>
        <time>2013-04-21T14:08:13Z</time>
      </trkpt>
      <trkpt lat="59.8896937" lon="17.6978285">
        <ele>28.9769</ele>
        <time>2013-04-21T14:08:14Z</time>
      </trkpt>
      <trkpt lat="59.8897502" lon="17.6979061">
        <ele>28.9769</ele>
        <time>2013-04-21T14:08:15Z</time>
      </trkpt>
      <trkpt lat="59.8898062" lon="17.6979803">
        <ele>29.4575</ele>
        <time>2013-04-21T14:08:16Z</time>
      </trkpt>
      <trkpt lat="59.8898729" lon="17.6980343">
        <ele>30.4188</ele>
        <time>2013-04-21T14:08:17Z</time>
      </trkpt>
      <trkpt lat="59.8899351" lon="17.6980617">
        <ele>30.4188</ele>
        <time>2013-04-21T14:08:18Z</time>
      </trkpt>
      <trkpt lat="59.8899942" lon="17.6980851">
        <ele>30.4188</ele>
        <time>2013-04-21T14:08:19Z</time>
      </trkpt>
      <trkpt lat="59.8900513" lon="17.6981176">
        <ele>30.8995</ele>
        <time>2013-04-21T14:08:20Z</time>
      </trkpt>
      <trkpt lat="59.8901099" lon="17.6981558">
        <ele>30.8995</ele>
        <time>2013-04-21T14:08:21Z</time>
      </trkpt>
      <trkpt lat="59.8901713" lon="17.6982062">
        <ele>31.3801</ele>
        <time>2013-04-21T14:08:22Z</time>
      </trkpt>
      <trkpt lat="59.8902319" lon="17.6982703">
        <ele>31.3801</ele>
        <time>2013-04-21T14:08:23Z</time>
      </trkpt>
      <trkpt lat="59.8902901" lon="17.6983394">
        <ele>31.3801</ele>
        <time>2013-04-21T14:08:24Z</time>
      </trkpt>
      <trkpt lat="59.8903485" lon="17.6984047">
        <ele>31.3801</ele>
        <time>2013-04-21T14:08:25Z</time>
      </trkpt>
      <trkpt lat="59.8904078" lon="17.6984476">
        <ele>30.8995</ele>
        <time>2013-04-21T14:08:26Z</time>
      </trkpt>
      <trkpt lat="59.8904727" lon="17.6984393">
        <ele>30.8995</ele>
        <time>2013-04-21T14:08:27Z</time>
      </trkpt>
      <trkpt lat="59.8905293" lon="17.6983963">
        <ele>29.9381</ele>
        <time>2013-04-21T14:08:28Z</time>
      </trkpt>
      <trkpt lat="59.8905915" lon="17.6983146">
        <ele>30.8995</ele>
        <time>2013-04-21T14:08:29Z</time>
      </trkpt>
      <trkpt lat="59.8906469" lon="17.698212">
        <ele>30.8995</ele>
        <time>2013-04-21T14:08:30Z</time>
      </trkpt>
      <trkpt lat="59.8906877" lon="17.6981031">
        <ele>28.9769</ele>
        <time>2013-04-21T14:08:31Z</time>
      </trkpt>
      <trkpt lat="59.8907322" lon="17.6979943">
        <ele>27.5349</ele>
        <time>2013-04-21T14:08:32Z</time>
      </trkpt>
      <trkpt lat="59.8907889" lon="17.6979012">
        <ele>27.5349</ele>
        <time>2013-04-21T14:08:33Z</time>
      </trkpt>
      <trkpt lat="59.8908507" lon="17.6978279">
        <ele>27.0543</ele>
        <time>2013-04-21T14:08:34Z</time>
      </trkpt>
      <trkpt lat="59.8909179" lon="17.6977707">
        <ele>27.0543</ele>
        <time>2013-04-21T14:08:35Z</time>
      </trkpt>
      <trkpt lat="59.8909919" lon="17.6977334">
        <ele>27.0543</ele>
        <time>2013-04-21T14:08:36Z</time>
      </trkpt>
      <trkpt lat="59.8910689" lon="17.6977145">
        <ele>27.0543</ele>
        <time>2013-04-21T14:08:37Z</time>
      </trkpt>
      <trkpt lat="59.8911467" lon="17.6977146">
        <ele>26.5736</ele>
        <time>2013-04-21T14:08:38Z</time>
      </trkpt>
      <trkpt lat="59.8912236" lon="17.6977373">
        <ele>26.5736</ele>
        <time>2013-04-21T14:08:39Z</time>
      </trkpt>
      <trkpt lat="59.8912981" lon="17.6977819">
        <ele>26.5736</ele>
        <time>2013-04-21T14:08:40Z</time>
      </trkpt>
      <trkpt lat="59.8913702" lon="17.697845">
        <ele>26.5736</ele>
        <time>2013-04-21T14:08:41Z</time>
      </trkpt>
      <trkpt lat="59.8914396" lon="17.6979204">
        <ele>27.0543</ele>
        <time>2013-04-21T14:08:42Z</time>
      </trkpt>
      <trkpt lat="59.8915073" lon="17.6980024">
        <ele>27.0543</ele>
        <time>2013-04-21T14:08:43Z</time>
      </trkpt>
      <trkpt lat="59.8915763" lon="17.6980865">
        <ele>27.0543</ele>
        <time>2013-04-21T14:08:44Z</time>
      </trkpt>
      <trkpt lat="59.8916466" lon="17.6981718">
        <ele>27.5349</ele>
        <time>2013-04-21T14:08:45Z</time>
      </trkpt>
      <trkpt lat="59.8917175" lon="17.698257">
        <ele>28.0155</ele>
        <time>2013-04-21T14:08:46Z</time>
      </trkpt>
      <trkpt lat="59.8917875" lon="17.6983414">
        <ele>28.0155</ele>
        <time>2013-04-21T14:08:47Z</time>
      </trkpt>
      <trkpt lat="59.8918565" lon="17.6984248">
        <ele>28.4962</ele>
        <time>2013-04-21T14:08:48Z</time>
      </trkpt>
      <trkpt lat="59.891925" lon="17.6985071">
        <ele>28.4962</ele>
        <time>2013-04-21T14:08:49Z</time>
      </trkpt>
      <trkpt lat="59.8919958" lon="17.698589">
        <ele>28.9769</ele>
        <time>2013-04-21T14:08:50Z</time>
      </trkpt>
      <trkpt lat="59.8920657" lon="17.6986696">
        <ele>28.9769</ele>
        <time>2013-04-21T14:08:51Z</time>
      </trkpt>
      <trkpt lat="59.8921346" lon="17.6987491">
        <ele>29.4575</ele>
        <time>2013-04-21T14:08:52Z</time>
      </trkpt>
      <trkpt lat="59.8922053" lon="17.6988243">
        <ele>29.4575</ele>
        <time>2013-04-21T14:08:53Z</time>
      </trkpt>
      <trkpt lat="59.8922787" lon="17.6988905">
        <ele>29.9381</ele>
        <time>2013-04-21T14:08:54Z</time>
      </trkpt>
      <trkpt lat="59.8923558" lon="17.6989437">
        <ele>29.9381</ele>
        <time>2013-04-21T14:08:55Z</time>
      </trkpt>
      <trkpt lat="59.8924351" lon="17.6989851">
        <ele>30.4188</ele>
        <time>2013-04-21T14:08:56Z</time>
      </trkpt>
      <trkpt lat="59.8925161" lon="17.6990168">
        <ele>30.4188</ele>
        <time>2013-04-21T14:08:57Z</time>
      </trkpt>
      <trkpt lat="59.8925974" lon="17.6990384">
        <ele>30.8995</ele>
        <time>2013-04-21T14:08:58Z</time>
      </trkpt>
      <trkpt lat="59.8926795" lon="17.6990495">
        <ele>30.8995</ele>
        <time>2013-04-21T14:08:59Z</time>
      </trkpt>
      <trkpt lat="59.8927615" lon="17.6990501">
        <ele>30.8995</ele>
        <time>2013-04-21T14:09:00Z</time>
      </trkpt>
      <trkpt lat="59.8928431" lon="17.6990396">
        <ele>30.8995</ele>
        <time>2013-04-21T14:09:01Z</time>
      </trkpt>
      <trkpt lat="59.8929239" lon="17.6990147">
        <ele>30.8995</ele>
        <time>2013-04-21T14:09:02Z</time>
      </trkpt>
      <trkpt lat="59.8929997" lon="17.6989776">
        <ele>29.4575</ele>
        <time>2013-04-21T14:09:03Z</time>
      </trkpt>
      <trkpt lat="59.8930738" lon="17.6989287">
        <ele>28.4962</ele>
        <time>2013-04-21T14:09:04Z</time>
      </trkpt>
      <trkpt lat="59.8931453" lon="17.6988691">
        <ele>27.5349</ele>
        <time>2013-04-21T14:09:05Z</time>
      </trkpt>
      <trkpt lat="59.8932142" lon="17.6987978">
        <ele>26.5736</ele>
        <time>2013-04-21T14:09:06Z</time>
      </trkpt>
      <trkpt lat="59.8932801" lon="17.6987176">
        <ele>25.6123</ele>
        <time>2013-04-21T14:09:07Z</time>
      </trkpt>
      <trkpt lat="59.8933406" lon="17.6986335">
        <ele>24.651</ele>
        <time>2013-04-21T14:09:08Z</time>
      </trkpt>
      <trkpt lat="59.8933995" lon="17.6985398">
        <ele>24.1703</ele>
        <time>2013-04-21T14:09:09Z</time>
      </trkpt>
      <trkpt lat="59.8934509" lon="17.698437">
        <ele>22.7283</ele>
        <time>2013-04-21T14:09:10Z</time>
      </trkpt>
      <trkpt lat="59.8935043" lon="17.6983238">
        <ele>22.7283</ele>
        <time>2013-04-21T14:09:11Z</time>
      </trkpt>
      <trkpt lat="59.8935504" lon="17.6982047">
        <ele>22.2476</ele>
        <time>2013-04-21T14:09:12Z</time>
      </trkpt>
      <trkpt lat="59.893594" lon="17.6980806">
        <ele>21.767</ele>
        <time>2013-04-21T14:09:13Z</time>
      </trkpt>
      <trkpt lat="59.8936321" lon="17.6979512">
        <ele>21.767</ele>
        <time>2013-04-21T14:09:14Z</time>
      </trkpt>
      <trkpt lat="59.8936628" lon="17.6978177">
        <ele>21.2864</ele>
        <time>2013-04-21T14:09:15Z</time>
      </trkpt>
      <trkpt lat="59.8936866" lon="17.6976805">
        <ele>20.8057</ele>
        <time>2013-04-21T14:09:16Z</time>
      </trkpt>
      <trkpt lat="59.8937056" lon="17.6975427">
        <ele>20.8057</ele>
        <time>2013-04-21T14:09:17Z</time>
      </trkpt>
      <trkpt lat="59.8937271" lon="17.6974054">
        <ele>20.8057</ele>
        <time>2013-04-21T14:09:18Z</time>
      </trkpt>
      <trkpt lat="59.8937465" lon="17.6972696">
        <ele>20.8057</ele>
        <time>2013-04-21T14:09:19Z</time>
      </trkpt>
      <trkpt lat="59.8937592" lon="17.6971364">
        <ele>20.8057</ele>
        <time>2013-04-21T14:09:20Z</time>
      </trkpt>
      <trkpt lat="59.8937681" lon="17.6970045">
        <ele>20.8057</ele>
        <time>2013-04-21T14:09:21Z</time>
      </trkpt>
      <trkpt lat="59.8937737" lon="17.6968748">
        <ele>20.325</ele>
        <time>2013-04-21T14:09:22Z</time>
      </trkpt>
      <trkpt lat="59.8937773" lon="17.6967526">
        <ele>19.8444</ele>
        <time>2013-04-21T14:09:23Z</time>
      </trkpt>
      <trkpt lat="59.8937864" lon="17.6966421">
        <ele>20.8057</ele>
        <time>2013-04-21T14:09:24Z</time>
      </trkpt>
      <trkpt lat="59.8937994" lon="17.6965432">
        <ele>22.7283</ele>
        <time>2013-04-21T14:09:25Z</time>
      </trkpt>
      <trkpt lat="59.8938026" lon="17.696446">
        <ele>22.7283</ele>
        <time>2013-04-21T14:09:26Z</time>
      </trkpt>
      <trkpt lat="59.8938035" lon="17.6963506">
        <ele>22.2476</ele>
        <time>2013-04-21T14:09:27Z</time>
      </trkpt>
      <trkpt lat="59.8938018" lon="17.6962476">
        <ele>21.2864</ele>
        <time>2013-04-21T14:09:28Z</time>
      </trkpt>
      <trkpt lat="59.8938066" lon="17.6961466">
        <ele>21.2864</ele>
        <time>2013-04-21T14:09:29Z</time>
      </trkpt>
      <trkpt lat="59.8938095" lon="17.6960495">
        <ele>21.2864</ele>
        <time>2013-04-21T14:09:30Z</time>
      </trkpt>
      <trkpt lat="59.8938099" lon="17.6959575">
        <ele>20.8057</ele>
        <time>2013-04-21T14:09:31Z</time>
      </trkpt>
      <trkpt lat="59.893812" lon="17.6958617">
        <ele>20.325</ele>
        <time>2013-04-21T14:09:32Z</time>
      </trkpt>
      <trkpt lat="59.8938219" lon="17.6957599">
        <ele>20.8057</ele>
        <time>2013-04-21T14:09:33Z</time>
      </trkpt>
      <trkpt lat="59.8938312" lon="17.695651">
        <ele>20.8057</ele>
        <time>2013-04-21T14:09:34Z</time>
      </trkpt>
      <trkpt lat="59.8938359" lon="17.6955343">
        <ele>20.8057</ele>
        <time>2013-04-21T14:09:35Z</time>
      </trkpt>
      <trkpt lat="59.8938398" lon="17.6954108">
        <ele>20.8057</ele>
        <time>2013-04-21T14:09:36Z</time>
      </trkpt>
      <trkpt lat="59.8938453" lon="17.6952914">
        <ele>20.8057</ele>
        <time>2013-04-21T14:09:37Z</time>
      </trkpt>
      <trkpt lat="59.8938515" lon="17.6951664">
        <ele>21.2864</ele>
        <time>2013-04-21T14:09:38Z</time>
      </trkpt>
      <trkpt lat="59.8938519" lon="17.695039">
        <ele>20.8057</ele>
        <time>2013-04-21T14:09:39Z</time>
      </trkpt>
      <trkpt lat="59.8938535" lon="17.694909">
        <ele>20.325</ele>
        <time>2013-04-21T14:09:40Z</time>
      </trkpt>
      <trkpt lat="59.8938522" lon="17.6947754">
        <ele>19.8444</ele>
        <time>2013-04-21T14:09:41Z</time>
      </trkpt>
      <trkpt lat="59.893854" lon="17.6946361">
        <ele>20.325</ele>
        <time>2013-04-21T14:09:42Z</time>
      </trkpt>
      <trkpt lat="59.8938567" lon="17.6944976">
        <ele>20.8057</ele>
        <time>2013-04-21T14:09:43Z</time>
      </trkpt>
      <trkpt lat="59.8938638" lon="17.6943568">
        <ele>21.767</ele>
        <time>2013-04-21T14:09:44Z</time>
      </trkpt>
      <trkpt lat="59.8938703" lon="17.6942161">
        <ele>22.2476</ele>
        <time>2013-04-21T14:09:45Z</time>
      </trkpt>
      <trkpt lat="59.8938747" lon="17.6940744">
        <ele>22.2476</ele>
        <time>2013-04-21T14:09:46Z</time>
      </trkpt>
      <trkpt lat="59.8938788" lon="17.6939325">
        <ele>23.209</ele>
        <time>2013-04-21T14:09:47Z</time>
      </trkpt>
      <trkpt lat="59.8938807" lon="17.6937938">
        <ele>23.209</ele>
        <time>2013-04-21T14:09:48Z</time>
      </trkpt>
      <trkpt lat="59.8938846" lon="17.6936513">
        <ele>23.6896</ele>
        <time>2013-04-21T14:09:49Z</time>
      </trkpt>
      <trkpt lat="59.8938867" lon="17.6935115">
        <ele>23.6896</ele>
        <time>2013-04-21T14:09:50Z</time>
      </trkpt>
      <trkpt lat="59.8938854" lon="17.6933743">
        <ele>23.209</ele>
        <time>2013-04-21T14:09:51Z</time>
      </trkpt>
      <trkpt lat="59.8938845" lon="17.6932378">
        <ele>22.7283</ele>
        <time>2013-04-21T14:09:52Z</time>
      </trkpt>
      <trkpt lat="59.8938875" lon="17.6931027">
        <ele>23.209</ele>
        <time>2013-04-21T14:09:53Z</time>
      </trkpt>
      <trkpt lat="59.8938872" lon="17.6929679">
        <ele>22.7283</ele>
        <time>2013-04-21T14:09:54Z</time>
      </trkpt>
      <trkpt lat="59.8938852" lon="17.6928325">
        <ele>22.7283</ele>
        <time>2013-04-21T14:09:55Z</time>
      </trkpt>
      <trkpt lat="59.8938828" lon="17.6926997">
        <ele>22.7283</ele>
        <time>2013-04-21T14:09:56Z</time>
      </trkpt>
      <trkpt lat="59.8938783" lon="17.6925718">
        <ele>22.7283</ele>
        <time>2013-04-21T14:09:57Z</time>
      </trkpt>
      <trkpt lat="59.8938729" lon="17.6924496">
        <ele>22.2476</ele>
        <time>2013-04-21T14:09:58Z</time>
      </trkpt>
      <trkpt lat="59.8938663" lon="17.6923308">
        <ele>21.767</ele>
        <time>2013-04-21T14:09:59Z</time>
      </trkpt>
      <trkpt lat="59.8938644" lon="17.6922109">
        <ele>22.7283</ele>
        <time>2013-04-21T14:10:00Z</time>
      </trkpt>
      <trkpt lat="59.8938565" lon="17.6920931">
        <ele>21.2864</ele>
        <time>2013-04-21T14:10:01Z</time>
      </trkpt>
      <trkpt lat="59.8938627" lon="17.69199">
        <ele>23.209</ele>
        <time>2013-04-21T14:10:02Z</time>
      </trkpt>
      <trkpt lat="59.8938634" lon="17.6918897">
        <ele>24.1703</ele>
        <time>2013-04-21T14:10:03Z</time>
      </trkpt>
      <trkpt lat="59.8938724" lon="17.6917859">
        <ele>25.6123</ele>
        <time>2013-04-21T14:10:04Z</time>
      </trkpt>
      <trkpt lat="59.89387" lon="17.6916902">
        <ele>25.1317</ele>
        <time>2013-04-21T14:10:05Z</time>
      </trkpt>
      <trkpt lat="59.8938684" lon="17.6915986">
        <ele>24.1703</ele>
        <time>2013-04-21T14:10:06Z</time>
      </trkpt>
      <trkpt lat="59.8938764" lon="17.691501">
        <ele>25.1317</ele>
        <time>2013-04-21T14:10:07Z</time>
      </trkpt>
      <trkpt lat="59.8938871" lon="17.691396">
        <ele>26.0929</ele>
        <time>2013-04-21T14:10:08Z</time>
      </trkpt>
      <trkpt lat="59.893897" lon="17.6913032">
        <ele>26.0929</ele>
        <time>2013-04-21T14:10:09Z</time>
      </trkpt>
      <trkpt lat="59.8939151" lon="17.6912358">
        <ele>26.5736</ele>
        <time>2013-04-21T14:10:10Z</time>
      </trkpt>
      <trkpt lat="59.8939323" lon="17.6911596">
        <ele>26.5736</ele>
        <time>2013-04-21T14:10:11Z</time>
      </trkpt>
      <trkpt lat="59.8939514" lon="17.6910731">
        <ele>26.5736</ele>
        <time>2013-04-21T14:10:12Z</time>
      </trkpt>
      <trkpt lat="59.8939719" lon="17.6909857">
        <ele>26.5736</ele>
        <time>2013-04-21T14:10:13Z</time>
      </trkpt>
      <trkpt lat="59.8939973" lon="17.6908883">
        <ele>28.9769</ele>
        <time>2013-04-21T14:10:14Z</time>
      </trkpt>
      <trkpt lat="59.8940133" lon="17.6907883">
        <ele>29.4575</ele>
        <time>2013-04-21T14:10:15Z</time>
      </trkpt>
      <trkpt lat="59.8940325" lon="17.6906943">
        <ele>29.9381</ele>
        <time>2013-04-21T14:10:16Z</time>
      </trkpt>
      <trkpt lat="59.8940517" lon="17.6905957">
        <ele>30.4188</ele>
        <time>2013-04-21T14:10:17Z</time>
      </trkpt>
      <trkpt lat="59.8940741" lon="17.6905053">
        <ele>31.3801</ele>
        <time>2013-04-21T14:10:18Z</time>
      </trkpt>
      <trkpt lat="59.8940948" lon="17.6904025">
        <ele>32.3416</ele>
        <time>2013-04-21T14:10:19Z</time>
      </trkpt>
      <trkpt lat="59.894113" lon="17.6903018">
        <ele>32.3416</ele>
        <time>2013-04-21T14:10:20Z</time>
      </trkpt>
      <trkpt lat="59.8941338" lon="17.6902076">
        <ele>32.3416</ele>
        <time>2013-04-21T14:10:21Z</time>
      </trkpt>
      <trkpt lat="59.8941454" lon="17.6901045">
        <ele>31.3801</ele>
        <time>2013-04-21T14:10:22Z</time>
      </trkpt>
      <trkpt lat="59.8941591" lon="17.6899988">
        <ele>31.3801</ele>
        <time>2013-04-21T14:10:23Z</time>
      </trkpt>
      <trkpt lat="59.8941718" lon="17.6898947">
        <ele>31.3801</ele>
        <time>2013-04-21T14:10:24Z</time>
      </trkpt>
      <trkpt lat="59.8941824" lon="17.6897973">
        <ele>30.4188</ele>
        <time>2013-04-21T14:10:25Z</time>
      </trkpt>
      <trkpt lat="59.8941931" lon="17.6896978">
        <ele>30.4188</ele>
        <time>2013-04-21T14:10:26Z</time>
      </trkpt>
      <trkpt lat="59.8942046" lon="17.6895901">
        <ele>29.9381</ele>
        <time>2013-04-21T14:10:27Z</time>
      </trkpt>
      <trkpt lat="59.8942135" lon="17.6894798">
        <ele>29.9381</ele>
        <time>2013-04-21T14:10:28Z</time>
      </trkpt>
      <trkpt lat="59.8942243" lon="17.6893698">
        <ele>29.9381</ele>
        <time>2013-04-21T14:10:29Z</time>
      </trkpt>
      <trkpt lat="59.894235" lon="17.6892575">
        <ele>29.9381</ele>
        <time>2013-04-21T14:10:30Z</time>
      </trkpt>
      <trkpt lat="59.8942443" lon="17.6891398">
        <ele>30.4188</ele>
        <time>2013-04-21T14:10:31Z</time>
      </trkpt>
      <trkpt lat="59.894257" lon="17.6890209">
        <ele>30.8995</ele>
        <time>2013-04-21T14:10:32Z</time>
      </trkpt>
      <trkpt lat="59.8942684" lon="17.6889017">
        <ele>30.8995</ele>
        <time>2013-04-21T14:10:33Z</time>
      </trkpt>
      <trkpt lat="59.894286" lon="17.6887825">
        <ele>31.3801</ele>
        <time>2013-04-21T14:10:34Z</time>
      </trkpt>
      <trkpt lat="59.8942989" lon="17.6886623">
        <ele>30.8995</ele>
        <time>2013-04-21T14:10:35Z</time>
      </trkpt>
      <trkpt lat="59.8943186" lon="17.688542">
        <ele>30.4188</ele>
        <time>2013-04-21T14:10:36Z</time>
      </trkpt>
      <trkpt lat="59.8943449" lon="17.6884224">
        <ele>29.9381</ele>
        <time>2013-04-21T14:10:37Z</time>
      </trkpt>
      <trkpt lat="59.8943734" lon="17.6883033">
        <ele>29.4575</ele>
        <time>2013-04-21T14:10:38Z</time>
      </trkpt>
      <trkpt lat="59.8943968" lon="17.6881773">
        <ele>28.0155</ele>
        <time>2013-04-21T14:10:39Z</time>
      </trkpt>
      <trkpt lat="59.8944227" lon="17.6880442">
        <ele>26.5736</ele>
        <time>2013-04-21T14:10:40Z</time>
      </trkpt>
      <trkpt lat="59.8944498" lon="17.6879061">
        <ele>27.0543</ele>
        <time>2013-04-21T14:10:41Z</time>
      </trkpt>
      <trkpt lat="59.8944733" lon="17.6877134">
        <ele>27.0543</ele>
        <time>2013-04-21T14:10:42Z</time>
      </trkpt>
      <trkpt lat="59.8945025" lon="17.6875543">
        <ele>27.0543</ele>
        <time>2013-04-21T14:10:43Z</time>
      </trkpt>
      <trkpt lat="59.8945327" lon="17.6874094">
        <ele>27.0543</ele>
        <time>2013-04-21T14:10:44Z</time>
      </trkpt>
      <trkpt lat="59.8945657" lon="17.687267">
        <ele>27.5349</ele>
        <time>2013-04-21T14:10:45Z</time>
      </trkpt>
      <trkpt lat="59.8945953" lon="17.6871249">
        <ele>27.5349</ele>
        <time>2013-04-21T14:10:46Z</time>
      </trkpt>
      <trkpt lat="59.8946226" lon="17.6869872">
        <ele>27.5349</ele>
        <time>2013-04-21T14:10:47Z</time>
      </trkpt>
      <trkpt lat="59.8946481" lon="17.6868514">
        <ele>27.5349</ele>
        <time>2013-04-21T14:10:48Z</time>
      </trkpt>
      <trkpt lat="59.8946718" lon="17.6867135">
        <ele>28.0155</ele>
        <time>2013-04-21T14:10:49Z</time>
      </trkpt>
      <trkpt lat="59.8946895" lon="17.6865877">
        <ele>27.5349</ele>
        <time>2013-04-21T14:10:50Z</time>
      </trkpt>
      <trkpt lat="59.8947074" lon="17.6864589">
        <ele>27.5349</ele>
        <time>2013-04-21T14:10:51Z</time>
      </trkpt>
      <trkpt lat="59.8947228" lon="17.6863291">
        <ele>27.0543</ele>
        <time>2013-04-21T14:10:52Z</time>
      </trkpt>
      <trkpt lat="59.8947424" lon="17.6862023">
        <ele>27.5349</ele>
        <time>2013-04-21T14:10:53Z</time>
      </trkpt>
      <trkpt lat="59.8947558" lon="17.686076">
        <ele>27.5349</ele>
        <time>2013-04-21T14:10:54Z</time>
      </trkpt>
      <trkpt lat="59.8947686" lon="17.6859516">
        <ele>28.0155</ele>
        <time>2013-04-21T14:10:55Z</time>
      </trkpt>
      <trkpt lat="59.8947758" lon="17.6858242">
        <ele>28.0155</ele>
        <time>2013-04-21T14:10:56Z</time>
      </trkpt>
      <trkpt lat="59.8947817" lon="17.6857025">
        <ele>27.5349</ele>
        <time>2013-04-21T14:10:57Z</time>
      </trkpt>
      <trkpt lat="59.89479" lon="17.6856007">
        <ele>27.5349</ele>
        <time>2013-04-21T14:10:58Z</time>
      </trkpt>
      <trkpt lat="59.8948056" lon="17.685532">
        <ele>27.0543</ele>
        <time>2013-04-21T14:10:59Z</time>
      </trkpt>
      <trkpt lat="59.8948149" lon="17.6854264">
        <ele>26.5736</ele>
        <time>2013-04-21T14:11:00Z</time>
      </trkpt>
      <trkpt lat="59.8948216" lon="17.685315">
        <ele>26.0929</ele>
        <time>2013-04-21T14:11:01Z</time>
      </trkpt>
      <trkpt lat="59.8948299" lon="17.68523">
        <ele>25.1317</ele>
        <time>2013-04-21T14:11:02Z</time>
      </trkpt>
      <trkpt lat="59.8948402" lon="17.6851125">
        <ele>24.1703</ele>
        <time>2013-04-21T14:11:03Z</time>
      </trkpt>
      <trkpt lat="59.8948579" lon="17.6849969">
        <ele>24.1703</ele>
        <time>2013-04-21T14:11:04Z</time>
      </trkpt>
      <trkpt lat="59.8948711" lon="17.6849026">
        <ele>24.1703</ele>
        <time>2013-04-21T14:11:05Z</time>
      </trkpt>
      <trkpt lat="59.8948795" lon="17.6848073">
        <ele>23.209</ele>
        <time>2013-04-21T14:11:06Z</time>
      </trkpt>
      <trkpt lat="59.8948945" lon="17.6847057">
        <ele>24.1703</ele>
        <time>2013-04-21T14:11:07Z</time>
      </trkpt>
      <trkpt lat="59.8949008" lon="17.6845997">
        <ele>23.6896</ele>
        <time>2013-04-21T14:11:08Z</time>
      </trkpt>
      <trkpt lat="59.8949112" lon="17.6844934">
        <ele>23.6896</ele>
        <time>2013-04-21T14:11:09Z</time>
      </trkpt>
      <trkpt lat="59.8949217" lon="17.6843887">
        <ele>23.6896</ele>
        <time>2013-04-21T14:11:10Z</time>
      </trkpt>
      <trkpt lat="59.89492" lon="17.6842456">
        <ele>24.651</ele>
        <time>2013-04-21T14:11:11Z</time>
      </trkpt>
      <trkpt lat="59.8949231" lon="17.6841215">
        <ele>24.1703</ele>
        <time>2013-04-21T14:11:12Z</time>
      </trkpt>
      <trkpt lat="59.8949387" lon="17.6840136">
        <ele>23.6896</ele>
        <time>2013-04-21T14:11:13Z</time>
      </trkpt>
      <trkpt lat="59.8949614" lon="17.6839002">
        <ele>23.209</ele>
        <time>2013-04-21T14:11:14Z</time>
      </trkpt>
      <trkpt lat="59.8949842" lon="17.6837867">
        <ele>22.7283</ele>
        <time>2013-04-21T14:11:15Z</time>
      </trkpt>
      <trkpt lat="59.8950186" lon="17.68369">
        <ele>21.767</ele>
        <time>2013-04-21T14:11:16Z</time>
      </trkpt>
      <trkpt lat="59.8950602" lon="17.6835921">
        <ele>20.325</ele>
        <time>2013-04-21T14:11:17Z</time>
      </trkpt>
      <trkpt lat="59.8951084" lon="17.6834787">
        <ele>20.8057</ele>
        <time>2013-04-21T14:11:18Z</time>
      </trkpt>
      <trkpt lat="59.8951597" lon="17.6833989">
        <ele>20.8057</ele>
        <time>2013-04-21T14:11:19Z</time>
      </trkpt>
      <trkpt lat="59.8952122" lon="17.6833238">
        <ele>20.8057</ele>
        <time>2013-04-21T14:11:20Z</time>
      </trkpt>
      <trkpt lat="59.8952656" lon="17.6832459">
        <ele>21.2864</ele>
        <time>2013-04-21T14:11:21Z</time>
      </trkpt>
      <trkpt lat="59.8953174" lon="17.683176">
        <ele>21.2864</ele>
        <time>2013-04-21T14:11:22Z</time>
      </trkpt>
      <trkpt lat="59.8953674" lon="17.6831062">
        <ele>21.2864</ele>
        <time>2013-04-21T14:11:23Z</time>
      </trkpt>
      <trkpt lat="59.8954174" lon="17.683042">
        <ele>20.8057</ele>
        <time>2013-04-21T14:11:24Z</time>
      </trkpt>
      <trkpt lat="59.8954645" lon="17.6829751">
        <ele>21.2864</ele>
        <time>2013-04-21T14:11:25Z</time>
      </trkpt>
      <trkpt lat="59.895512" lon="17.6829124">
        <ele>20.8057</ele>
        <time>2013-04-21T14:11:26Z</time>
      </trkpt>
      <trkpt lat="59.8955629" lon="17.6828432">
        <ele>20.325</ele>
        <time>2013-04-21T14:11:27Z</time>
      </trkpt>
      <trkpt lat="59.89561" lon="17.6827777">
        <ele>19.3638</ele>
        <time>2013-04-21T14:11:28Z</time>
      </trkpt>
      <trkpt lat="59.8956613" lon="17.6827178">
        <ele>18.8831</ele>
        <time>2013-04-21T14:11:29Z</time>
      </trkpt>
      <trkpt lat="59.8957122" lon="17.6826778">
        <ele>18.8831</ele>
        <time>2013-04-21T14:11:30Z</time>
      </trkpt>
      <trkpt lat="59.8957596" lon="17.6826427">
        <ele>18.8831</ele>
        <time>2013-04-21T14:11:31Z</time>
      </trkpt>
      <trkpt lat="59.8958147" lon="17.682612">
        <ele>20.325</ele>
        <time>2013-04-21T14:11:32Z</time>
      </trkpt>
      <trkpt lat="59.8958636" lon="17.6825724">
        <ele>20.325</ele>
        <time>2013-04-21T14:11:33Z</time>
      </trkpt>
      <trkpt lat="59.8959145" lon="17.6825173">
        <ele>19.8444</ele>
        <time>2013-04-21T14:11:34Z</time>
      </trkpt>
      <trkpt lat="59.8959658" lon="17.6824635">
        <ele>20.325</ele>
        <time>2013-04-21T14:11:35Z</time>
      </trkpt>
      <trkpt lat="59.8960197" lon="17.6824044">
        <ele>19.8444</ele>
        <time>2013-04-21T14:11:36Z</time>
      </trkpt>
      <trkpt lat="59.8960742" lon="17.6823467">
        <ele>18.8831</ele>
        <time>2013-04-21T14:11:37Z</time>
      </trkpt>
      <trkpt lat="59.8961346" lon="17.6822774">
        <ele>18.8831</ele>
        <time>2013-04-21T14:11:38Z</time>
      </trkpt>
      <trkpt lat="59.8961944" lon="17.6822145">
        <ele>18.8831</ele>
        <time>2013-04-21T14:11:39Z</time>
      </trkpt>
      <trkpt lat="59.8962569" lon="17.6821489">
        <ele>17.9218</ele>
        <time>2013-04-21T14:11:40Z</time>
      </trkpt>
      <trkpt lat="59.8963217" lon="17.682085">
        <ele>17.4412</ele>
        <time>2013-04-21T14:11:41Z</time>
      </trkpt>
      <trkpt lat="59.89639" lon="17.6820202">
        <ele>17.4412</ele>
        <time>2013-04-21T14:11:42Z</time>
      </trkpt>
      <trkpt lat="59.8964581" lon="17.681955">
        <ele>17.4412</ele>
        <time>2013-04-21T14:11:43Z</time>
      </trkpt>
      <trkpt lat="59.8965249" lon="17.6818788">
        <ele>17.4412</ele>
        <time>2013-04-21T14:11:44Z</time>
      </trkpt>
      <trkpt lat="59.8965901" lon="17.6817918">
        <ele>17.9218</ele>
        <time>2013-04-21T14:11:45Z</time>
      </trkpt>
      <trkpt lat="59.8966536" lon="17.6817122">
        <ele>18.4023</ele>
        <time>2013-04-21T14:11:46Z</time>
      </trkpt>
      <trkpt lat="59.8967165" lon="17.6816339">
        <ele>18.4023</ele>
        <time>2013-04-21T14:11:47Z</time>
      </trkpt>
      <trkpt lat="59.8967748" lon="17.6815475">
        <ele>18.4023</ele>
        <time>2013-04-21T14:11:48Z</time>
      </trkpt>
      <trkpt lat="59.8968305" lon="17.6814523">
        <ele>18.4023</ele>
        <time>2013-04-21T14:11:49Z</time>
      </trkpt>
      <trkpt lat="59.8968841" lon="17.6813489">
        <ele>18.4023</ele>
        <time>2013-04-21T14:11:50Z</time>
      </trkpt>
      <trkpt lat="59.8969386" lon="17.6812259">
        <ele>18.8831</ele>
        <time>2013-04-21T14:11:51Z</time>
      </trkpt>
      <trkpt lat="59.8969916" lon="17.6811031">
        <ele>19.3638</ele>
        <time>2013-04-21T14:11:52Z</time>
      </trkpt>
      <trkpt lat="59.8970431" lon="17.6809825">
        <ele>19.8444</ele>
        <time>2013-04-21T14:11:53Z</time>
      </trkpt>
      <trkpt lat="59.8970956" lon="17.6808706">
        <ele>20.325</ele>
        <time>2013-04-21T14:11:54Z</time>
      </trkpt>
      <trkpt lat="59.8971481" lon="17.6807606">
        <ele>21.2864</ele>
        <time>2013-04-21T14:11:55Z</time>
      </trkpt>
      <trkpt lat="59.8971981" lon="17.6806534">
        <ele>22.2476</ele>
        <time>2013-04-21T14:11:56Z</time>
      </trkpt>
      <trkpt lat="59.8972455" lon="17.6805468">
        <ele>23.209</ele>
        <time>2013-04-21T14:11:57Z</time>
      </trkpt>
      <trkpt lat="59.8972909" lon="17.6804389">
        <ele>23.6896</ele>
        <time>2013-04-21T14:11:58Z</time>
      </trkpt>
      <trkpt lat="59.8973313" lon="17.6803276">
        <ele>24.1703</ele>
        <time>2013-04-21T14:11:59Z</time>
      </trkpt>
      <trkpt lat="59.8973743" lon="17.6802178">
        <ele>24.651</ele>
        <time>2013-04-21T14:12:00Z</time>
      </trkpt>
      <trkpt lat="59.8974183" lon="17.6801098">
        <ele>25.1317</ele>
        <time>2013-04-21T14:12:01Z</time>
      </trkpt>
      <trkpt lat="59.8974619" lon="17.6800026">
        <ele>25.6123</ele>
        <time>2013-04-21T14:12:02Z</time>
      </trkpt>
      <trkpt lat="59.8975039" lon="17.6798935">
        <ele>25.6123</ele>
        <time>2013-04-21T14:12:03Z</time>
      </trkpt>
      <trkpt lat="59.8975454" lon="17.6797837">
        <ele>26.0929</ele>
        <time>2013-04-21T14:12:04Z</time>
      </trkpt>
      <trkpt lat="59.8975877" lon="17.6796755">
        <ele>26.0929</ele>
        <time>2013-04-21T14:12:05Z</time>
      </trkpt>
      <trkpt lat="59.8976296" lon="17.6795676">
        <ele>26.0929</ele>
        <time>2013-04-21T14:12:06Z</time>
      </trkpt>
      <trkpt lat="59.8976715" lon="17.6794597">
        <ele>26.0929</ele>
        <time>2013-04-21T14:12:07Z</time>
      </trkpt>
      <trkpt lat="59.897714" lon="17.679352">
        <ele>26.0929</ele>
        <time>2013-04-21T14:12:08Z</time>
      </trkpt>
      <trkpt lat="59.8977556" lon="17.6792438">
        <ele>26.0929</ele>
        <time>2013-04-21T14:12:09Z</time>
      </trkpt>
      <trkpt lat="59.8977976" lon="17.6791372">
        <ele>26.0929</ele>
        <time>2013-04-21T14:12:10Z</time>
      </trkpt>
      <trkpt lat="59.8978369" lon="17.6790239">
        <ele>25.6123</ele>
        <time>2013-04-21T14:12:11Z</time>
      </trkpt>
      <trkpt lat="59.8978774" lon="17.6789104">
        <ele>25.6123</ele>
        <time>2013-04-21T14:12:12Z</time>
      </trkpt>
      <trkpt lat="59.8979189" lon="17.6788001">
        <ele>25.6123</ele>
        <time>2013-04-21T14:12:13Z</time>
      </trkpt>
      <trkpt lat="59.8979613" lon="17.6786908">
        <ele>25.1317</ele>
        <time>2013-04-21T14:12:14Z</time>
      </trkpt>
      <trkpt lat="59.8980028" lon="17.6785817">
        <ele>24.651</ele>
        <time>2013-04-21T14:12:15Z</time>
      </trkpt>
      <trkpt lat="59.8980431" lon="17.6784699">
        <ele>24.651</ele>
        <time>2013-04-21T14:12:16Z</time>
      </trkpt>
      <trkpt lat="59.8980803" lon="17.6783515">
        <ele>24.651</ele>
        <time>2013-04-21T14:12:17Z</time>
      </trkpt>
      <trkpt lat="59.8981132" lon="17.6782316">
        <ele>23.6896</ele>
        <time>2013-04-21T14:12:18Z</time>
      </trkpt>
      <trkpt lat="59.8981475" lon="17.6781078">
        <ele>23.209</ele>
        <time>2013-04-21T14:12:19Z</time>
      </trkpt>
      <trkpt lat="59.8981802" lon="17.67798">
        <ele>23.209</ele>
        <time>2013-04-21T14:12:20Z</time>
      </trkpt>
      <trkpt lat="59.8982109" lon="17.6778472">
        <ele>23.209</ele>
        <time>2013-04-21T14:12:21Z</time>
      </trkpt>
      <trkpt lat="59.8982385" lon="17.6777132">
        <ele>23.209</ele>
        <time>2013-04-21T14:12:22Z</time>
      </trkpt>
      <trkpt lat="59.8982638" lon="17.6775763">
        <ele>23.209</ele>
        <time>2013-04-21T14:12:23Z</time>
      </trkpt>
      <trkpt lat="59.8982908" lon="17.6774388">
        <ele>23.209</ele>
        <time>2013-04-21T14:12:24Z</time>
      </trkpt>
      <trkpt lat="59.8983151" lon="17.6773029">
        <ele>23.6896</ele>
        <time>2013-04-21T14:12:25Z</time>
      </trkpt>
      <trkpt lat="59.8983353" lon="17.6771673">
        <ele>23.6896</ele>
        <time>2013-04-21T14:12:26Z</time>
      </trkpt>
      <trkpt lat="59.8983508" lon="17.6770325">
        <ele>24.1703</ele>
        <time>2013-04-21T14:12:27Z</time>
      </trkpt>
      <trkpt lat="59.8983638" lon="17.6768999">
        <ele>24.1703</ele>
        <time>2013-04-21T14:12:28Z</time>
      </trkpt>
      <trkpt lat="59.8983729" lon="17.6767746">
        <ele>24.1703</ele>
        <time>2013-04-21T14:12:29Z</time>
      </trkpt>
      <trkpt lat="59.8983796" lon="17.6766539">
        <ele>23.6896</ele>
        <time>2013-04-21T14:12:30Z</time>
      </trkpt>
      <trkpt lat="59.898387" lon="17.6765364">
        <ele>23.209</ele>
        <time>2013-04-21T14:12:31Z</time>
      </trkpt>
      <trkpt lat="59.8983923" lon="17.67642">
        <ele>22.7283</ele>
        <time>2013-04-21T14:12:32Z</time>
      </trkpt>
      <trkpt lat="59.8983954" lon="17.6763027">
        <ele>22.7283</ele>
        <time>2013-04-21T14:12:33Z</time>
      </trkpt>
      <trkpt lat="59.8983993" lon="17.6761844">
        <ele>22.2476</ele>
        <time>2013-04-21T14:12:34Z</time>
      </trkpt>
      <trkpt lat="59.8984015" lon="17.6760681">
        <ele>22.2476</ele>
        <time>2013-04-21T14:12:35Z</time>
      </trkpt>
      <trkpt lat="59.8984066" lon="17.6759528">
        <ele>22.2476</ele>
        <time>2013-04-21T14:12:36Z</time>
      </trkpt>
      <trkpt lat="59.8984088" lon="17.6758697">
        <ele>22.7283</ele>
        <time>2013-04-21T14:12:37Z</time>
      </trkpt>
      <trkpt lat="59.8984188" lon="17.6757777">
        <ele>23.209</ele>
        <time>2013-04-21T14:12:38Z</time>
      </trkpt>
      <trkpt lat="59.8984447" lon="17.6756391">
        <ele>24.1703</ele>
        <time>2013-04-21T14:12:39Z</time>
      </trkpt>
      <trkpt lat="59.8984492" lon="17.6755384">
        <ele>24.651</ele>
        <time>2013-04-21T14:12:40Z</time>
      </trkpt>
      <trkpt lat="59.8984654" lon="17.6754164">
        <ele>25.1317</ele>
        <time>2013-04-21T14:12:41Z</time>
      </trkpt>
      <trkpt lat="59.898473" lon="17.6752754">
        <ele>26.5736</ele>
        <time>2013-04-21T14:12:42Z</time>
      </trkpt>
      <trkpt lat="59.8984827" lon="17.6751454">
        <ele>27.0543</ele>
        <time>2013-04-21T14:12:43Z</time>
      </trkpt>
      <trkpt lat="59.8985077" lon="17.6750408">
        <ele>27.0543</ele>
        <time>2013-04-21T14:12:44Z</time>
      </trkpt>
      <trkpt lat="59.8985363" lon="17.6749394">
        <ele>27.0543</ele>
        <time>2013-04-21T14:12:45Z</time>
      </trkpt>
      <trkpt lat="59.8985751" lon="17.6748515">
        <ele>27.5349</ele>
        <time>2013-04-21T14:12:46Z</time>
      </trkpt>
      <trkpt lat="59.8986146" lon="17.6747871">
        <ele>27.5349</ele>
        <time>2013-04-21T14:12:47Z</time>
      </trkpt>
      <trkpt lat="59.8986542" lon="17.6747301">
        <ele>27.5349</ele>
        <time>2013-04-21T14:12:48Z</time>
      </trkpt>
      <trkpt lat="59.8986937" lon="17.6746844">
        <ele>27.5349</ele>
        <time>2013-04-21T14:12:49Z</time>
      </trkpt>
      <trkpt lat="59.8987345" lon="17.6746314">
        <ele>27.0543</ele>
        <time>2013-04-21T14:12:50Z</time>
      </trkpt>
      <trkpt lat="59.8987719" lon="17.6745892">
        <ele>27.0543</ele>
        <time>2013-04-21T14:12:51Z</time>
      </trkpt>
      <trkpt lat="59.8988109" lon="17.674546">
        <ele>27.0543</ele>
        <time>2013-04-21T14:12:52Z</time>
      </trkpt>
      <trkpt lat="59.8988477" lon="17.6745057">
        <ele>27.0543</ele>
        <time>2013-04-21T14:12:53Z</time>
      </trkpt>
      <trkpt lat="59.8988776" lon="17.6744648">
        <ele>26.5736</ele>
        <time>2013-04-21T14:12:54Z</time>
      </trkpt>
      <trkpt lat="59.8989139" lon="17.6744228">
        <ele>27.5349</ele>
        <time>2013-04-21T14:12:55Z</time>
      </trkpt>
      <trkpt lat="59.898948" lon="17.6743786">
        <ele>27.5349</ele>
        <time>2013-04-21T14:12:56Z</time>
      </trkpt>
      <trkpt lat="59.8989855" lon="17.6743123">
        <ele>28.0155</ele>
        <time>2013-04-21T14:12:57Z</time>
      </trkpt>
      <trkpt lat="59.8990245" lon="17.6742477">
        <ele>28.4962</ele>
        <time>2013-04-21T14:12:58Z</time>
      </trkpt>
      <trkpt lat="59.8990662" lon="17.674171">
        <ele>29.4575</ele>
        <time>2013-04-21T14:12:59Z</time>
      </trkpt>
      <trkpt lat="59.8990997" lon="17.6740881">
        <ele>28.4962</ele>
        <time>2013-04-21T14:13:00Z</time>
      </trkpt>
      <trkpt lat="59.8991336" lon="17.674008">
        <ele>28.9769</ele>
        <time>2013-04-21T14:13:01Z</time>
      </trkpt>
      <trkpt lat="59.8991625" lon="17.6739253">
        <ele>29.4575</ele>
        <time>2013-04-21T14:13:02Z</time>
      </trkpt>
      <trkpt lat="59.8991805" lon="17.6738526">
        <ele>29.9381</ele>
        <time>2013-04-21T14:13:03Z</time>
      </trkpt>
      <trkpt lat="59.8991989" lon="17.6737725">
        <ele>31.3801</ele>
        <time>2013-04-21T14:13:04Z</time>
      </trkpt>
      <trkpt lat="59.8992103" lon="17.67368">
        <ele>32.3416</ele>
        <time>2013-04-21T14:13:05Z</time>
      </trkpt>
      <trkpt lat="59.899216" lon="17.6735954">
        <ele>32.8223</ele>
        <time>2013-04-21T14:13:06Z</time>
      </trkpt>
      <trkpt lat="59.8992185" lon="17.6735197">
        <ele>32.3416</ele>
        <time>2013-04-21T14:13:07Z</time>
      </trkpt>
      <trkpt lat="59.8992262" lon="17.6734492">
        <ele>31.3801</ele>
        <time>2013-04-21T14:13:08Z</time>
      </trkpt>
      <trkpt lat="59.8992428" lon="17.673375">
        <ele>31.3801</ele>
        <time>2013-04-21T14:13:09Z</time>
      </trkpt>
      <trkpt lat="59.8992592" lon="17.673295">
        <ele>30.8995</ele>
        <time>2013-04-21T14:13:10Z</time>
      </trkpt>
      <trkpt lat="59.8992641" lon="17.6732065">
        <ele>30.8995</ele>
        <time>2013-04-21T14:13:11Z</time>
      </trkpt>
      <trkpt lat="59.8992821" lon="17.6731167">
        <ele>31.8607</ele>
        <time>2013-04-21T14:13:12Z</time>
      </trkpt>
      <trkpt lat="59.899297" lon="17.673018">
        <ele>31.8607</ele>
        <time>2013-04-21T14:13:13Z</time>
      </trkpt>
      <trkpt lat="59.8993214" lon="17.6729288">
        <ele>31.3801</ele>
        <time>2013-04-21T14:13:14Z</time>
      </trkpt>
      <trkpt lat="59.8993431" lon="17.6728361">
        <ele>30.8995</ele>
        <time>2013-04-21T14:13:15Z</time>
      </trkpt>
      <trkpt lat="59.8993633" lon="17.6727468">
        <ele>29.9381</ele>
        <time>2013-04-21T14:13:16Z</time>
      </trkpt>
      <trkpt lat="59.8993852" lon="17.6726528">
        <ele>29.4575</ele>
        <time>2013-04-21T14:13:17Z</time>
      </trkpt>
      <trkpt lat="59.8994055" lon="17.6725451">
        <ele>29.9381</ele>
        <time>2013-04-21T14:13:18Z</time>
      </trkpt>
      <trkpt lat="59.8994131" lon="17.6724466">
        <ele>29.4575</ele>
        <time>2013-04-21T14:13:19Z</time>
      </trkpt>
      <trkpt lat="59.899408" lon="17.672306">
        <ele>28.4962</ele>
        <time>2013-04-21T14:13:20Z</time>
      </trkpt>
      <trkpt lat="59.8993956" lon="17.6721191">
        <ele>28.0155</ele>
        <time>2013-04-21T14:13:21Z</time>
      </trkpt>
      <trkpt lat="59.8993739" lon="17.6719519">
        <ele>27.5349</ele>
        <time>2013-04-21T14:13:22Z</time>
      </trkpt>
      <trkpt lat="59.8993537" lon="17.6717747">
        <ele>27.0543</ele>
        <time>2013-04-21T14:13:23Z</time>
      </trkpt>
      <trkpt lat="59.8993396" lon="17.6716209">
        <ele>26.0929</ele>
        <time>2013-04-21T14:13:24Z</time>
      </trkpt>
      <trkpt lat="59.8993345" lon="17.6714479">
        <ele>25.6123</ele>
        <time>2013-04-21T14:13:25Z</time>
      </trkpt>
      <trkpt lat="59.8993395" lon="17.6712962">
        <ele>26.0929</ele>
        <time>2013-04-21T14:13:26Z</time>
      </trkpt>
      <trkpt lat="59.8993411" lon="17.6711789">
        <ele>25.6123</ele>
        <time>2013-04-21T14:13:27Z</time>
      </trkpt>
      <trkpt lat="59.8993376" lon="17.6710495">
        <ele>24.651</ele>
        <time>2013-04-21T14:13:28Z</time>
      </trkpt>
      <trkpt lat="59.8993429" lon="17.6709231">
        <ele>24.1703</ele>
        <time>2013-04-21T14:13:29Z</time>
      </trkpt>
      <trkpt lat="59.8993555" lon="17.6707887">
        <ele>24.651</ele>
        <time>2013-04-21T14:13:30Z</time>
      </trkpt>
      <trkpt lat="59.8993761" lon="17.6706796">
        <ele>24.651</ele>
        <time>2013-04-21T14:13:31Z</time>
      </trkpt>
      <trkpt lat="59.8994133" lon="17.6705165">
        <ele>24.651</ele>
        <time>2013-04-21T14:13:32Z</time>
      </trkpt>
      <trkpt lat="59.8994392" lon="17.6703853">
        <ele>24.651</ele>
        <time>2013-04-21T14:13:33Z</time>
      </trkpt>
      <trkpt lat="59.8994672" lon="17.670243">
        <ele>25.6123</ele>
        <time>2013-04-21T14:13:34Z</time>
      </trkpt>
      <trkpt lat="59.899519" lon="17.6701842">
        <ele>26.0929</ele>
        <time>2013-04-21T14:13:35Z</time>
      </trkpt>
      <trkpt lat="59.8995703" lon="17.6701376">
        <ele>25.6123</ele>
        <time>2013-04-21T14:13:36Z</time>
      </trkpt>
      <trkpt lat="59.8996199" lon="17.6700985">
        <ele>25.6123</ele>
        <time>2013-04-21T14:13:37Z</time>
      </trkpt>
      <trkpt lat="59.8996736" lon="17.6700586">
        <ele>25.6123</ele>
        <time>2013-04-21T14:13:38Z</time>
      </trkpt>
      <trkpt lat="59.8997262" lon="17.6700398">
        <ele>26.5736</ele>
        <time>2013-04-21T14:13:39Z</time>
      </trkpt>
      <trkpt lat="59.8997739" lon="17.6700047">
        <ele>26.0929</ele>
        <time>2013-04-21T14:13:40Z</time>
      </trkpt>
      <trkpt lat="59.8998272" lon="17.6699864">
        <ele>26.0929</ele>
        <time>2013-04-21T14:13:41Z</time>
      </trkpt>
      <trkpt lat="59.8998774" lon="17.6699721">
        <ele>25.6123</ele>
        <time>2013-04-21T14:13:42Z</time>
      </trkpt>
      <trkpt lat="59.8999286" lon="17.669962">
        <ele>25.6123</ele>
        <time>2013-04-21T14:13:43Z</time>
      </trkpt>
      <trkpt lat="59.8999836" lon="17.6699398">
        <ele>26.0929</ele>
        <time>2013-04-21T14:13:44Z</time>
      </trkpt>
      <trkpt lat="59.9000456" lon="17.6699275">
        <ele>27.0543</ele>
        <time>2013-04-21T14:13:45Z</time>
      </trkpt>
      <trkpt lat="59.9001042" lon="17.6699114">
        <ele>26.0929</ele>
        <time>2013-04-21T14:13:46Z</time>
      </trkpt>
      <trkpt lat="59.9001753" lon="17.6698815">
        <ele>26.5736</ele>
        <time>2013-04-21T14:13:47Z</time>
      </trkpt>
      <trkpt lat="59.9002474" lon="17.6698637">
        <ele>27.0543</ele>
        <time>2013-04-21T14:13:48Z</time>
      </trkpt>
      <trkpt lat="59.9003207" lon="17.6698499">
        <ele>28.0155</ele>
        <time>2013-04-21T14:13:49Z</time>
      </trkpt>
      <trkpt lat="59.9003944" lon="17.6698363">
        <ele>28.0155</ele>
        <time>2013-04-21T14:13:50Z</time>
      </trkpt>
      <trkpt lat="59.9004664" lon="17.6698207">
        <ele>28.4962</ele>
        <time>2013-04-21T14:13:51Z</time>
      </trkpt>
      <trkpt lat="59.9005337" lon="17.6698041">
        <ele>28.4962</ele>
        <time>2013-04-21T14:13:52Z</time>
      </trkpt>
      <trkpt lat="59.9005978" lon="17.6697911">
        <ele>28.4962</ele>
        <time>2013-04-21T14:13:53Z</time>
      </trkpt>
      <trkpt lat="59.9006585" lon="17.6697829">
        <ele>28.4962</ele>
        <time>2013-04-21T14:13:54Z</time>
      </trkpt>
      <trkpt lat="59.900719" lon="17.6697691">
        <ele>28.9769</ele>
        <time>2013-04-21T14:13:55Z</time>
      </trkpt>
      <trkpt lat="59.900773" lon="17.669772">
        <ele>29.9381</ele>
        <time>2013-04-21T14:13:56Z</time>
      </trkpt>
      <trkpt lat="59.9008226" lon="17.6697622">
        <ele>29.9381</ele>
        <time>2013-04-21T14:13:57Z</time>
      </trkpt>
      <trkpt lat="59.9008751" lon="17.6697457">
        <ele>29.9381</ele>
        <time>2013-04-21T14:13:58Z</time>
      </trkpt>
      <trkpt lat="59.9009258" lon="17.6697306">
        <ele>29.9381</ele>
        <time>2013-04-21T14:13:59Z</time>
      </trkpt>
      <trkpt lat="59.9009698" lon="17.6697202">
        <ele>28.9769</ele>
        <time>2013-04-21T14:14:00Z</time>
      </trkpt>
      <trkpt lat="59.9010331" lon="17.6697022">
        <ele>30.4188</ele>
        <time>2013-04-21T14:14:01Z</time>
      </trkpt>
      <trkpt lat="59.901092" lon="17.6696968">
        <ele>31.3801</ele>
        <time>2013-04-21T14:14:02Z</time>
      </trkpt>
      <trkpt lat="59.9011598" lon="17.669685">
        <ele>31.8607</ele>
        <time>2013-04-21T14:14:03Z</time>
      </trkpt>
      <trkpt lat="59.9012262" lon="17.6696743">
        <ele>30.4188</ele>
        <time>2013-04-21T14:14:04Z</time>
      </trkpt>
      <trkpt lat="59.9012916" lon="17.6696721">
        <ele>30.8995</ele>
        <time>2013-04-21T14:14:05Z</time>
      </trkpt>
      <trkpt lat="59.9013615" lon="17.6696755">
        <ele>31.8607</ele>
        <time>2013-04-21T14:14:06Z</time>
      </trkpt>
      <trkpt lat="59.9014304" lon="17.6696694">
        <ele>31.3801</ele>
        <time>2013-04-21T14:14:07Z</time>
      </trkpt>
      <trkpt lat="59.9014939" lon="17.6696783">
        <ele>31.8607</ele>
        <time>2013-04-21T14:14:08Z</time>
      </trkpt>
      <trkpt lat="59.9015517" lon="17.6696989">
        <ele>31.3801</ele>
        <time>2013-04-21T14:14:09Z</time>
      </trkpt>
      <trkpt lat="59.9016079" lon="17.6697269">
        <ele>30.4188</ele>
        <time>2013-04-21T14:14:10Z</time>
      </trkpt>
      <trkpt lat="59.9016619" lon="17.6697572">
        <ele>29.4575</ele>
        <time>2013-04-21T14:14:11Z</time>
      </trkpt>
      <trkpt lat="59.9017128" lon="17.6697893">
        <ele>27.5349</ele>
        <time>2013-04-21T14:14:12Z</time>
      </trkpt>
      <trkpt lat="59.9017701" lon="17.6698199">
        <ele>26.0929</ele>
        <time>2013-04-21T14:14:13Z</time>
      </trkpt>
      <trkpt lat="59.9018225" lon="17.6698457">
        <ele>24.1703</ele>
        <time>2013-04-21T14:14:14Z</time>
      </trkpt>
      <trkpt lat="59.9018803" lon="17.6698887">
        <ele>23.209</ele>
        <time>2013-04-21T14:14:15Z</time>
      </trkpt>
      <trkpt lat="59.9019447" lon="17.6699344">
        <ele>22.2476</ele>
        <time>2013-04-21T14:14:16Z</time>
      </trkpt>
      <trkpt lat="59.9020101" lon="17.6699819">
        <ele>21.767</ele>
        <time>2013-04-21T14:14:17Z</time>
      </trkpt>
      <trkpt lat="59.9020805" lon="17.6700167">
        <ele>21.2864</ele>
        <time>2013-04-21T14:14:18Z</time>
      </trkpt>
      <trkpt lat="59.9021508" lon="17.6700358">
        <ele>20.8057</ele>
        <time>2013-04-21T14:14:19Z</time>
      </trkpt>
      <trkpt lat="59.9022219" lon="17.6700352">
        <ele>20.325</ele>
        <time>2013-04-21T14:14:20Z</time>
      </trkpt>
      <trkpt lat="59.9022974" lon="17.6700182">
        <ele>20.8057</ele>
        <time>2013-04-21T14:14:21Z</time>
      </trkpt>
      <trkpt lat="59.9023969" lon="17.6700055">
        <ele>24.1703</ele>
        <time>2013-04-21T14:14:22Z</time>
      </trkpt>
      <trkpt lat="59.9024799" lon="17.6699876">
        <ele>25.6123</ele>
        <time>2013-04-21T14:14:23Z</time>
      </trkpt>
      <trkpt lat="59.9025579" lon="17.6699607">
        <ele>26.5736</ele>
        <time>2013-04-21T14:14:24Z</time>
      </trkpt>
      <trkpt lat="59.9026249" lon="17.6699309">
        <ele>27.0543</ele>
        <time>2013-04-21T14:14:25Z</time>
      </trkpt>
      <trkpt lat="59.902688" lon="17.6698989">
        <ele>28.0155</ele>
        <time>2013-04-21T14:14:26Z</time>
      </trkpt>
      <trkpt lat="59.9027539" lon="17.6698767">
        <ele>28.4962</ele>
        <time>2013-04-21T14:14:27Z</time>
      </trkpt>
      <trkpt lat="59.902814" lon="17.6698735">
        <ele>28.9769</ele>
        <time>2013-04-21T14:14:28Z</time>
      </trkpt>
      <trkpt lat="59.902873" lon="17.669886">
        <ele>28.9769</ele>
        <time>2013-04-21T14:14:29Z</time>
      </trkpt>
      <trkpt lat="59.9029293" lon="17.6699126">
        <ele>28.9769</ele>
        <time>2013-04-21T14:14:30Z</time>
      </trkpt>
      <trkpt lat="59.9029974" lon="17.6699473">
        <ele>29.4575</ele>
        <time>2013-04-21T14:14:31Z</time>
      </trkpt>
      <trkpt lat="59.903061" lon="17.6699851">
        <ele>29.4575</ele>
        <time>2013-04-21T14:14:32Z</time>
      </trkpt>
      <trkpt lat="59.9031196" lon="17.6700099">
        <ele>28.9769</ele>
        <time>2013-04-21T14:14:33Z</time>
      </trkpt>
      <trkpt lat="59.903181" lon="17.6700166">
        <ele>28.0155</ele>
        <time>2013-04-21T14:14:34Z</time>
      </trkpt>
      <trkpt lat="59.903242" lon="17.6699969">
        <ele>27.0543</ele>
        <time>2013-04-21T14:14:35Z</time>
      </trkpt>
      <trkpt lat="59.9033035" lon="17.6699523">
        <ele>26.5736</ele>
        <time>2013-04-21T14:14:36Z</time>
      </trkpt>
      <trkpt lat="59.903363" lon="17.6698682">
        <ele>26.0929</ele>
        <time>2013-04-21T14:14:37Z</time>
      </trkpt>
      <trkpt lat="59.9034112" lon="17.669781">
        <ele>24.651</ele>
        <time>2013-04-21T14:14:38Z</time>
      </trkpt>
      <trkpt lat="59.9034481" lon="17.6696769">
        <ele>23.209</ele>
        <time>2013-04-21T14:14:39Z</time>
      </trkpt>
      <trkpt lat="59.9034766" lon="17.6695665">
        <ele>21.2864</ele>
        <time>2013-04-21T14:14:40Z</time>
      </trkpt>
      <trkpt lat="59.9035133" lon="17.6694512">
        <ele>20.8057</ele>
        <time>2013-04-21T14:14:41Z</time>
      </trkpt>
      <trkpt lat="59.9035496" lon="17.6693328">
        <ele>20.325</ele>
        <time>2013-04-21T14:14:42Z</time>
      </trkpt>
      <trkpt lat="59.9035858" lon="17.6692228">
        <ele>19.3638</ele>
        <time>2013-04-21T14:14:43Z</time>
      </trkpt>
      <trkpt lat="59.9036299" lon="17.6691123">
        <ele>18.8831</ele>
        <time>2013-04-21T14:14:44Z</time>
      </trkpt>
      <trkpt lat="59.9036797" lon="17.6689915">
        <ele>20.325</ele>
        <time>2013-04-21T14:14:45Z</time>
      </trkpt>
      <trkpt lat="59.9037262" lon="17.6688795">
        <ele>20.8057</ele>
        <time>2013-04-21T14:14:46Z</time>
      </trkpt>
      <trkpt lat="59.9037656" lon="17.6687748">
        <ele>20.325</ele>
        <time>2013-04-21T14:14:47Z</time>
      </trkpt>
      <trkpt lat="59.903804" lon="17.6686723">
        <ele>19.8444</ele>
        <time>2013-04-21T14:14:48Z</time>
      </trkpt>
      <trkpt lat="59.9038406" lon="17.668578">
        <ele>19.3638</ele>
        <time>2013-04-21T14:14:49Z</time>
      </trkpt>
      <trkpt lat="59.9038786" lon="17.6684972">
        <ele>18.8831</ele>
        <time>2013-04-21T14:14:50Z</time>
      </trkpt>
      <trkpt lat="59.903918" lon="17.6684185">
        <ele>18.4023</ele>
        <time>2013-04-21T14:14:51Z</time>
      </trkpt>
      <trkpt lat="59.9039562" lon="17.6683424">
        <ele>17.9218</ele>
        <time>2013-04-21T14:14:52Z</time>
      </trkpt>
      <trkpt lat="59.9039997" lon="17.6682801">
        <ele>17.4412</ele>
        <time>2013-04-21T14:14:53Z</time>
      </trkpt>
      <trkpt lat="59.904049" lon="17.6682238">
        <ele>17.9218</ele>
        <time>2013-04-21T14:14:54Z</time>
      </trkpt>
      <trkpt lat="59.9040997" lon="17.6681751">
        <ele>18.8831</ele>
        <time>2013-04-21T14:14:55Z</time>
      </trkpt>
      <trkpt lat="59.9041499" lon="17.6681265">
        <ele>19.3638</ele>
        <time>2013-04-21T14:14:56Z</time>
      </trkpt>
      <trkpt lat="59.9042001" lon="17.6680911">
        <ele>19.8444</ele>
        <time>2013-04-21T14:14:57Z</time>
      </trkpt>
      <trkpt lat="59.9042535" lon="17.6680601">
        <ele>20.8057</ele>
        <time>2013-04-21T14:14:58Z</time>
      </trkpt>
      <trkpt lat="59.9043091" lon="17.6680371">
        <ele>21.767</ele>
        <time>2013-04-21T14:14:59Z</time>
      </trkpt>
      <trkpt lat="59.9043691" lon="17.668027">
        <ele>23.209</ele>
        <time>2013-04-21T14:15:00Z</time>
      </trkpt>
      <trkpt lat="59.9044289" lon="17.6680058">
        <ele>23.209</ele>
        <time>2013-04-21T14:15:01Z</time>
      </trkpt>
      <trkpt lat="59.9044875" lon="17.6679845">
        <ele>22.7283</ele>
        <time>2013-04-21T14:15:02Z</time>
      </trkpt>
      <trkpt lat="59.9045471" lon="17.6679709">
        <ele>23.209</ele>
        <time>2013-04-21T14:15:03Z</time>
      </trkpt>
      <trkpt lat="59.9046093" lon="17.6679535">
        <ele>23.6896</ele>
        <time>2013-04-21T14:15:04Z</time>
      </trkpt>
      <trkpt lat="59.9046731" lon="17.6679508">
        <ele>24.651</ele>
        <time>2013-04-21T14:15:05Z</time>
      </trkpt>
      <trkpt lat="59.9047388" lon="17.6679547">
        <ele>24.1703</ele>
        <time>2013-04-21T14:15:06Z</time>
      </trkpt>
      <trkpt lat="59.9048154" lon="17.6679621">
        <ele>24.651</ele>
        <time>2013-04-21T14:15:07Z</time>
      </trkpt>
      <trkpt lat="59.9048943" lon="17.6679902">
        <ele>24.651</ele>
        <time>2013-04-21T14:15:08Z</time>
      </trkpt>
      <trkpt lat="59.9049726" lon="17.6680357">
        <ele>24.651</ele>
        <time>2013-04-21T14:15:09Z</time>
      </trkpt>
      <trkpt lat="59.9050518" lon="17.6680801">
        <ele>24.651</ele>
        <time>2013-04-21T14:15:10Z</time>
      </trkpt>
      <trkpt lat="59.9051317" lon="17.6681212">
        <ele>24.1703</ele>
        <time>2013-04-21T14:15:11Z</time>
      </trkpt>
      <trkpt lat="59.9052129" lon="17.6681657">
        <ele>24.1703</ele>
        <time>2013-04-21T14:15:12Z</time>
      </trkpt>
      <trkpt lat="59.9052914" lon="17.6682132">
        <ele>24.1703</ele>
        <time>2013-04-21T14:15:13Z</time>
      </trkpt>
      <trkpt lat="59.9053704" lon="17.6682581">
        <ele>24.1703</ele>
        <time>2013-04-21T14:15:14Z</time>
      </trkpt>
      <trkpt lat="59.9054468" lon="17.6682989">
        <ele>23.6896</ele>
        <time>2013-04-21T14:15:15Z</time>
      </trkpt>
      <trkpt lat="59.9055253" lon="17.6683378">
        <ele>23.6896</ele>
        <time>2013-04-21T14:15:16Z</time>
      </trkpt>
      <trkpt lat="59.9056055" lon="17.6683688">
        <ele>24.1703</ele>
        <time>2013-04-21T14:15:17Z</time>
      </trkpt>
      <trkpt lat="59.9056789" lon="17.6684002">
        <ele>24.1703</ele>
        <time>2013-04-21T14:15:18Z</time>
      </trkpt>
      <trkpt lat="59.905748" lon="17.6684342">
        <ele>23.6896</ele>
        <time>2013-04-21T14:15:19Z</time>
      </trkpt>
      <trkpt lat="59.9058216" lon="17.6684651">
        <ele>23.6896</ele>
        <time>2013-04-21T14:15:20Z</time>
      </trkpt>
      <trkpt lat="59.9059029" lon="17.6684885">
        <ele>24.651</ele>
        <time>2013-04-21T14:15:21Z</time>
      </trkpt>
      <trkpt lat="59.9059869" lon="17.668509">
        <ele>25.6123</ele>
        <time>2013-04-21T14:15:22Z</time>
      </trkpt>
      <trkpt lat="59.906063" lon="17.6685341">
        <ele>26.0929</ele>
        <time>2013-04-21T14:15:23Z</time>
      </trkpt>
      <trkpt lat="59.9061327" lon="17.66856">
        <ele>25.1317</ele>
        <time>2013-04-21T14:15:24Z</time>
      </trkpt>
      <trkpt lat="59.9062002" lon="17.6685823">
        <ele>25.1317</ele>
        <time>2013-04-21T14:15:25Z</time>
      </trkpt>
      <trkpt lat="59.9062645" lon="17.668602">
        <ele>24.1703</ele>
        <time>2013-04-21T14:15:26Z</time>
      </trkpt>
      <trkpt lat="59.9063305" lon="17.6686114">
        <ele>24.1703</ele>
        <time>2013-04-21T14:15:27Z</time>
      </trkpt>
      <trkpt lat="59.9064042" lon="17.6686143">
        <ele>24.1703</ele>
        <time>2013-04-21T14:15:28Z</time>
      </trkpt>
      <trkpt lat="59.9064699" lon="17.6686273">
        <ele>24.651</ele>
        <time>2013-04-21T14:15:29Z</time>
      </trkpt>
      <trkpt lat="59.9065381" lon="17.6686288">
        <ele>24.651</ele>
        <time>2013-04-21T14:15:30Z</time>
      </trkpt>
      <trkpt lat="59.9066064" lon="17.6686157">
        <ele>24.651</ele>
        <time>2013-04-21T14:15:31Z</time>
      </trkpt>
      <trkpt lat="59.9066747" lon="17.6685948">
        <ele>25.1317</ele>
        <time>2013-04-21T14:15:32Z</time>
      </trkpt>
      <trkpt lat="59.9067431" lon="17.6685668">
        <ele>24.651</ele>
        <time>2013-04-21T14:15:33Z</time>
      </trkpt>
      <trkpt lat="59.9068121" lon="17.6685347">
        <ele>24.651</ele>
        <time>2013-04-21T14:15:34Z</time>
      </trkpt>
      <trkpt lat="59.9068823" lon="17.668504">
        <ele>24.651</ele>
        <time>2013-04-21T14:15:35Z</time>
      </trkpt>
      <trkpt lat="59.9069483" lon="17.668479">
        <ele>24.1703</ele>
        <time>2013-04-21T14:15:36Z</time>
      </trkpt>
      <trkpt lat="59.9070221" lon="17.6684548">
        <ele>23.6896</ele>
        <time>2013-04-21T14:15:37Z</time>
      </trkpt>
      <trkpt lat="59.9071026" lon="17.6684272">
        <ele>23.6896</ele>
        <time>2013-04-21T14:15:38Z</time>
      </trkpt>
      <trkpt lat="59.9071851" lon="17.6683992">
        <ele>23.6896</ele>
        <time>2013-04-21T14:15:39Z</time>
      </trkpt>
      <trkpt lat="59.9072652" lon="17.6683734">
        <ele>24.1703</ele>
        <time>2013-04-21T14:15:40Z</time>
      </trkpt>
      <trkpt lat="59.9073451" lon="17.6683413">
        <ele>24.1703</ele>
        <time>2013-04-21T14:15:41Z</time>
      </trkpt>
      <trkpt lat="59.9074181" lon="17.6683207">
        <ele>24.1703</ele>
        <time>2013-04-21T14:15:42Z</time>
      </trkpt>
      <trkpt lat="59.9074919" lon="17.6682738">
        <ele>24.1703</ele>
        <time>2013-04-21T14:15:43Z</time>
      </trkpt>
      <trkpt lat="59.9075619" lon="17.6681931">
        <ele>24.651</ele>
        <time>2013-04-21T14:15:44Z</time>
      </trkpt>
      <trkpt lat="59.9076166" lon="17.6681036">
        <ele>24.1703</ele>
        <time>2013-04-21T14:15:45Z</time>
      </trkpt>
      <trkpt lat="59.907662" lon="17.6680062">
        <ele>24.1703</ele>
        <time>2013-04-21T14:15:46Z</time>
      </trkpt>
      <trkpt lat="59.9076968" lon="17.6678943">
        <ele>23.6896</ele>
        <time>2013-04-21T14:15:47Z</time>
      </trkpt>
      <trkpt lat="59.9077201" lon="17.6677858">
        <ele>23.6896</ele>
        <time>2013-04-21T14:15:48Z</time>
      </trkpt>
      <trkpt lat="59.9077345" lon="17.6676681">
        <ele>22.2476</ele>
        <time>2013-04-21T14:15:49Z</time>
      </trkpt>
      <trkpt lat="59.9077496" lon="17.6675541">
        <ele>21.767</ele>
        <time>2013-04-21T14:15:50Z</time>
      </trkpt>
      <trkpt lat="59.9077758" lon="17.6674515">
        <ele>23.6896</ele>
        <time>2013-04-21T14:15:51Z</time>
      </trkpt>
      <trkpt lat="59.9077966" lon="17.6673597">
        <ele>23.6896</ele>
        <time>2013-04-21T14:15:52Z</time>
      </trkpt>
      <trkpt lat="59.9077703" lon="17.6671675">
        <ele>24.1703</ele>
        <time>2013-04-21T14:15:53Z</time>
      </trkpt>
      <trkpt lat="59.9077578" lon="17.6670132">
        <ele>24.1703</ele>
        <time>2013-04-21T14:15:54Z</time>
      </trkpt>
      <trkpt lat="59.9077532" lon="17.6668711">
        <ele>24.1703</ele>
        <time>2013-04-21T14:15:55Z</time>
      </trkpt>
      <trkpt lat="59.9077658" lon="17.6667422">
        <ele>24.651</ele>
        <time>2013-04-21T14:15:56Z</time>
      </trkpt>
      <trkpt lat="59.9077807" lon="17.6666205">
        <ele>24.651</ele>
        <time>2013-04-21T14:15:57Z</time>
      </trkpt>
      <trkpt lat="59.9077746" lon="17.6665138">
        <ele>24.1703</ele>
        <time>2013-04-21T14:15:58Z</time>
      </trkpt>
      <trkpt lat="59.9077909" lon="17.6664308">
        <ele>25.1317</ele>
        <time>2013-04-21T14:15:59Z</time>
      </trkpt>
      <trkpt lat="59.9078128" lon="17.6663569">
        <ele>25.6123</ele>
        <time>2013-04-21T14:16:00Z</time>
      </trkpt>
      <trkpt lat="59.9078318" lon="17.6662722">
        <ele>26.0929</ele>
        <time>2013-04-21T14:16:01Z</time>
      </trkpt>
      <trkpt lat="59.9078623" lon="17.6661793">
        <ele>28.0155</ele>
        <time>2013-04-21T14:16:02Z</time>
      </trkpt>
      <trkpt lat="59.9078929" lon="17.6660869">
        <ele>29.4575</ele>
        <time>2013-04-21T14:16:03Z</time>
      </trkpt>
      <trkpt lat="59.9079137" lon="17.6659927">
        <ele>30.4188</ele>
        <time>2013-04-21T14:16:04Z</time>
      </trkpt>
      <trkpt lat="59.907934" lon="17.6659223">
        <ele>30.8995</ele>
        <time>2013-04-21T14:16:05Z</time>
      </trkpt>
      <trkpt lat="59.9079403" lon="17.6658249">
        <ele>31.3801</ele>
        <time>2013-04-21T14:16:06Z</time>
      </trkpt>
      <trkpt lat="59.9079442" lon="17.6657161">
        <ele>31.3801</ele>
        <time>2013-04-21T14:16:07Z</time>
      </trkpt>
      <trkpt lat="59.9079552" lon="17.6656037">
        <ele>32.3416</ele>
        <time>2013-04-21T14:16:08Z</time>
      </trkpt>
      <trkpt lat="59.9079696" lon="17.6655097">
        <ele>32.3416</ele>
        <time>2013-04-21T14:16:09Z</time>
      </trkpt>
      <trkpt lat="59.9079832" lon="17.6654093">
        <ele>31.8607</ele>
        <time>2013-04-21T14:16:10Z</time>
      </trkpt>
      <trkpt lat="59.907996" lon="17.6653124">
        <ele>31.3801</ele>
        <time>2013-04-21T14:16:11Z</time>
      </trkpt>
      <trkpt lat="59.9080107" lon="17.6652166">
        <ele>30.8995</ele>
        <time>2013-04-21T14:16:12Z</time>
      </trkpt>
      <trkpt lat="59.9080241" lon="17.6651115">
        <ele>30.4188</ele>
        <time>2013-04-21T14:16:13Z</time>
      </trkpt>
      <trkpt lat="59.9080312" lon="17.6649917">
        <ele>30.8995</ele>
        <time>2013-04-21T14:16:14Z</time>
      </trkpt>
      <trkpt lat="59.9080334" lon="17.6648674">
        <ele>30.8995</ele>
        <time>2013-04-21T14:16:15Z</time>
      </trkpt>
      <trkpt lat="59.9080354" lon="17.6647365">
        <ele>30.8995</ele>
        <time>2013-04-21T14:16:16Z</time>
      </trkpt>
      <trkpt lat="59.9080349" lon="17.6646101">
        <ele>30.4188</ele>
        <time>2013-04-21T14:16:17Z</time>
      </trkpt>
      <trkpt lat="59.9080346" lon="17.6644879">
        <ele>30.4188</ele>
        <time>2013-04-21T14:16:18Z</time>
      </trkpt>
      <trkpt lat="59.9080307" lon="17.6643646">
        <ele>29.9381</ele>
        <time>2013-04-21T14:16:19Z</time>
      </trkpt>
      <trkpt lat="59.9080239" lon="17.6642408">
        <ele>29.4575</ele>
        <time>2013-04-21T14:16:20Z</time>
      </trkpt>
      <trkpt lat="59.9080034" lon="17.6641149">
        <ele>27.0543</ele>
        <time>2013-04-21T14:16:21Z</time>
      </trkpt>
      <trkpt lat="59.9079861" lon="17.6639917">
        <ele>25.1317</ele>
        <time>2013-04-21T14:16:22Z</time>
      </trkpt>
      <trkpt lat="59.9079699" lon="17.6638723">
        <ele>24.1703</ele>
        <time>2013-04-21T14:16:23Z</time>
      </trkpt>
      <trkpt lat="59.9079519" lon="17.6637559">
        <ele>22.7283</ele>
        <time>2013-04-21T14:16:24Z</time>
      </trkpt>
      <trkpt lat="59.907935" lon="17.6636403">
        <ele>21.767</ele>
        <time>2013-04-21T14:16:25Z</time>
      </trkpt>
      <trkpt lat="59.9079205" lon="17.6635217">
        <ele>21.2864</ele>
        <time>2013-04-21T14:16:26Z</time>
      </trkpt>
      <trkpt lat="59.9079055" lon="17.6634021">
        <ele>20.325</ele>
        <time>2013-04-21T14:16:27Z</time>
      </trkpt>
      <trkpt lat="59.9078889" lon="17.663282">
        <ele>19.8444</ele>
        <time>2013-04-21T14:16:28Z</time>
      </trkpt>
      <trkpt lat="59.9078723" lon="17.6631622">
        <ele>19.3638</ele>
        <time>2013-04-21T14:16:29Z</time>
      </trkpt>
      <trkpt lat="59.9078551" lon="17.6630421">
        <ele>18.4023</ele>
        <time>2013-04-21T14:16:30Z</time>
      </trkpt>
      <trkpt lat="59.9078372" lon="17.6629205">
        <ele>17.4412</ele>
        <time>2013-04-21T14:16:31Z</time>
      </trkpt>
      <trkpt lat="59.9078184" lon="17.662796">
        <ele>16.9604</ele>
        <time>2013-04-21T14:16:32Z</time>
      </trkpt>
      <trkpt lat="59.9077988" lon="17.6626667">
        <ele>16.4797</ele>
        <time>2013-04-21T14:16:33Z</time>
      </trkpt>
      <trkpt lat="59.9077786" lon="17.6625354">
        <ele>15.999</ele>
        <time>2013-04-21T14:16:34Z</time>
      </trkpt>
      <trkpt lat="59.9077588" lon="17.662404">
        <ele>15.5184</ele>
        <time>2013-04-21T14:16:35Z</time>
      </trkpt>
      <trkpt lat="59.9077397" lon="17.6622717">
        <ele>15.0377</ele>
        <time>2013-04-21T14:16:36Z</time>
      </trkpt>
      <trkpt lat="59.9077245" lon="17.662136">
        <ele>15.5184</ele>
        <time>2013-04-21T14:16:37Z</time>
      </trkpt>
      <trkpt lat="59.9077128" lon="17.6620009">
        <ele>15.5184</ele>
        <time>2013-04-21T14:16:38Z</time>
      </trkpt>
      <trkpt lat="59.9077024" lon="17.6618683">
        <ele>15.999</ele>
        <time>2013-04-21T14:16:39Z</time>
      </trkpt>
      <trkpt lat="59.9076941" lon="17.6617402">
        <ele>15.999</ele>
        <time>2013-04-21T14:16:40Z</time>
      </trkpt>
      <trkpt lat="59.907686" lon="17.6616207">
        <ele>15.999</ele>
        <time>2013-04-21T14:16:41Z</time>
      </trkpt>
      <trkpt lat="59.90768" lon="17.6615087">
        <ele>15.999</ele>
        <time>2013-04-21T14:16:42Z</time>
      </trkpt>
      <trkpt lat="59.9076766" lon="17.6613984">
        <ele>16.4797</ele>
        <time>2013-04-21T14:16:43Z</time>
      </trkpt>
      <trkpt lat="59.9076743" lon="17.6612897">
        <ele>17.4412</ele>
        <time>2013-04-21T14:16:44Z</time>
      </trkpt>
      <trkpt lat="59.9076656" lon="17.6611774">
        <ele>17.9218</ele>
        <time>2013-04-21T14:16:45Z</time>
      </trkpt>
      <trkpt lat="59.9076532" lon="17.6610669">
        <ele>17.9218</ele>
        <time>2013-04-21T14:16:46Z</time>
      </trkpt>
      <trkpt lat="59.9076404" lon="17.6609534">
        <ele>17.4412</ele>
        <time>2013-04-21T14:16:47Z</time>
      </trkpt>
      <trkpt lat="59.9076299" lon="17.6608337">
        <ele>17.4412</ele>
        <time>2013-04-21T14:16:48Z</time>
      </trkpt>
      <trkpt lat="59.907614" lon="17.660724">
        <ele>16.4797</ele>
        <time>2013-04-21T14:16:49Z</time>
      </trkpt>
      <trkpt lat="59.9075957" lon="17.6606228">
        <ele>15.999</ele>
        <time>2013-04-21T14:16:50Z</time>
      </trkpt>
      <trkpt lat="59.9075736" lon="17.6605142">
        <ele>15.5184</ele>
        <time>2013-04-21T14:16:51Z</time>
      </trkpt>
      <trkpt lat="59.9075527" lon="17.6603998">
        <ele>15.0377</ele>
        <time>2013-04-21T14:16:52Z</time>
      </trkpt>
      <trkpt lat="59.9075303" lon="17.6602918">
        <ele>14.557</ele>
        <time>2013-04-21T14:16:53Z</time>
      </trkpt>
      <trkpt lat="59.9075097" lon="17.6601823">
        <ele>14.557</ele>
        <time>2013-04-21T14:16:54Z</time>
      </trkpt>
      <trkpt lat="59.907493" lon="17.6600751">
        <ele>14.0764</ele>
        <time>2013-04-21T14:16:55Z</time>
      </trkpt>
      <trkpt lat="59.9074777" lon="17.6599603">
        <ele>14.0764</ele>
        <time>2013-04-21T14:16:56Z</time>
      </trkpt>
      <trkpt lat="59.9074636" lon="17.6598455">
        <ele>14.0764</ele>
        <time>2013-04-21T14:16:57Z</time>
      </trkpt>
      <trkpt lat="59.9074486" lon="17.659733">
        <ele>14.0764</ele>
        <time>2013-04-21T14:16:58Z</time>
      </trkpt>
      <trkpt lat="59.9074342" lon="17.6596202">
        <ele>14.0764</ele>
        <time>2013-04-21T14:16:59Z</time>
      </trkpt>
      <trkpt lat="59.9074242" lon="17.6595046">
        <ele>14.0764</ele>
        <time>2013-04-21T14:17:00Z</time>
      </trkpt>
      <trkpt lat="59.9074133" lon="17.6593828">
        <ele>15.0377</ele>
        <time>2013-04-21T14:17:01Z</time>
      </trkpt>
      <trkpt lat="59.9074021" lon="17.6592535">
        <ele>16.4797</ele>
        <time>2013-04-21T14:17:02Z</time>
      </trkpt>
      <trkpt lat="59.9073907" lon="17.6591226">
        <ele>16.9604</ele>
        <time>2013-04-21T14:17:03Z</time>
      </trkpt>
      <trkpt lat="59.9073765" lon="17.6589957">
        <ele>17.9218</ele>
        <time>2013-04-21T14:17:04Z</time>
      </trkpt>
      <trkpt lat="59.9073632" lon="17.6588773">
        <ele>17.9218</ele>
        <time>2013-04-21T14:17:05Z</time>
      </trkpt>
      <trkpt lat="59.9073503" lon="17.6587567">
        <ele>18.4023</ele>
        <time>2013-04-21T14:17:06Z</time>
      </trkpt>
      <trkpt lat="59.9073356" lon="17.6586334">
        <ele>18.8831</ele>
        <time>2013-04-21T14:17:07Z</time>
      </trkpt>
      <trkpt lat="59.9073238" lon="17.6585126">
        <ele>19.3638</ele>
        <time>2013-04-21T14:17:08Z</time>
      </trkpt>
      <trkpt lat="59.9073098" lon="17.6583899">
        <ele>19.3638</ele>
        <time>2013-04-21T14:17:09Z</time>
      </trkpt>
      <trkpt lat="59.907291" lon="17.6582629">
        <ele>18.8831</ele>
        <time>2013-04-21T14:17:10Z</time>
      </trkpt>
      <trkpt lat="59.9072704" lon="17.6581384">
        <ele>17.9218</ele>
        <time>2013-04-21T14:17:11Z</time>
      </trkpt>
      <trkpt lat="59.9072506" lon="17.6580143">
        <ele>17.4412</ele>
        <time>2013-04-21T14:17:12Z</time>
      </trkpt>
      <trkpt lat="59.9072306" lon="17.6578945">
        <ele>16.4797</ele>
        <time>2013-04-21T14:17:13Z</time>
      </trkpt>
      <trkpt lat="59.9072109" lon="17.6577767">
        <ele>15.999</ele>
        <time>2013-04-21T14:17:14Z</time>
      </trkpt>
      <trkpt lat="59.9071886" lon="17.6576593">
        <ele>15.0377</ele>
        <time>2013-04-21T14:17:15Z</time>
      </trkpt>
      <trkpt lat="59.9071653" lon="17.6575436">
        <ele>14.557</ele>
        <time>2013-04-21T14:17:16Z</time>
      </trkpt>
      <trkpt lat="59.9071449" lon="17.6574286">
        <ele>14.557</ele>
        <time>2013-04-21T14:17:17Z</time>
      </trkpt>
      <trkpt lat="59.9071242" lon="17.6573106">
        <ele>14.557</ele>
        <time>2013-04-21T14:17:18Z</time>
      </trkpt>
      <trkpt lat="59.9071046" lon="17.6571927">
        <ele>14.557</ele>
        <time>2013-04-21T14:17:19Z</time>
      </trkpt>
      <trkpt lat="59.9070886" lon="17.6570796">
        <ele>14.557</ele>
        <time>2013-04-21T14:17:20Z</time>
      </trkpt>
      <trkpt lat="59.9070742" lon="17.656969">
        <ele>14.557</ele>
        <time>2013-04-21T14:17:21Z</time>
      </trkpt>
      <trkpt lat="59.9070643" lon="17.6568624">
        <ele>15.5184</ele>
        <time>2013-04-21T14:17:22Z</time>
      </trkpt>
      <trkpt lat="59.9070522" lon="17.6567549">
        <ele>15.0377</ele>
        <time>2013-04-21T14:17:23Z</time>
      </trkpt>
      <trkpt lat="59.9070425" lon="17.6566526">
        <ele>15.0377</ele>
        <time>2013-04-21T14:17:24Z</time>
      </trkpt>
      <trkpt lat="59.9070347" lon="17.6565497">
        <ele>15.5184</ele>
        <time>2013-04-21T14:17:25Z</time>
      </trkpt>
      <trkpt lat="59.9070279" lon="17.6564476">
        <ele>15.5184</ele>
        <time>2013-04-21T14:17:26Z</time>
      </trkpt>
      <trkpt lat="59.9070228" lon="17.6563442">
        <ele>15.999</ele>
        <time>2013-04-21T14:17:27Z</time>
      </trkpt>
      <trkpt lat="59.9070217" lon="17.6562396">
        <ele>16.9604</ele>
        <time>2013-04-21T14:17:28Z</time>
      </trkpt>
      <trkpt lat="59.9070205" lon="17.6561308">
        <ele>17.4412</ele>
        <time>2013-04-21T14:17:29Z</time>
      </trkpt>
      <trkpt lat="59.9070187" lon="17.6560192">
        <ele>17.4412</ele>
        <time>2013-04-21T14:17:30Z</time>
      </trkpt>
      <trkpt lat="59.9070171" lon="17.6559045">
        <ele>17.9218</ele>
        <time>2013-04-21T14:17:31Z</time>
      </trkpt>
      <trkpt lat="59.9070166" lon="17.6557854">
        <ele>17.9218</ele>
        <time>2013-04-21T14:17:32Z</time>
      </trkpt>
      <trkpt lat="59.9070161" lon="17.6556636">
        <ele>18.4023</ele>
        <time>2013-04-21T14:17:33Z</time>
      </trkpt>
      <trkpt lat="59.9070161" lon="17.6555408">
        <ele>18.4023</ele>
        <time>2013-04-21T14:17:34Z</time>
      </trkpt>
      <trkpt lat="59.9070165" lon="17.655416">
        <ele>18.4023</ele>
        <time>2013-04-21T14:17:35Z</time>
      </trkpt>
      <trkpt lat="59.9070175" lon="17.6552909">
        <ele>18.4023</ele>
        <time>2013-04-21T14:17:36Z</time>
      </trkpt>
      <trkpt lat="59.9070192" lon="17.6551646">
        <ele>18.8831</ele>
        <time>2013-04-21T14:17:37Z</time>
      </trkpt>
      <trkpt lat="59.9070207" lon="17.6550388">
        <ele>18.8831</ele>
        <time>2013-04-21T14:17:38Z</time>
      </trkpt>
      <trkpt lat="59.9070221" lon="17.6549151">
        <ele>18.8831</ele>
        <time>2013-04-21T14:17:39Z</time>
      </trkpt>
      <trkpt lat="59.9070239" lon="17.6547938">
        <ele>18.8831</ele>
        <time>2013-04-21T14:17:40Z</time>
      </trkpt>
      <trkpt lat="59.9070255" lon="17.6546731">
        <ele>18.8831</ele>
        <time>2013-04-21T14:17:41Z</time>
      </trkpt>
      <trkpt lat="59.9070285" lon="17.6545533">
        <ele>19.3638</ele>
        <time>2013-04-21T14:17:42Z</time>
      </trkpt>
      <trkpt lat="59.9070307" lon="17.6544339">
        <ele>18.8831</ele>
        <time>2013-04-21T14:17:43Z</time>
      </trkpt>
      <trkpt lat="59.9070321" lon="17.6543162">
        <ele>18.8831</ele>
        <time>2013-04-21T14:17:44Z</time>
      </trkpt>
      <trkpt lat="59.9070353" lon="17.6542028">
        <ele>18.8831</ele>
        <time>2013-04-21T14:17:45Z</time>
      </trkpt>
      <trkpt lat="59.9070394" lon="17.6540923">
        <ele>19.3638</ele>
        <time>2013-04-21T14:17:46Z</time>
      </trkpt>
      <trkpt lat="59.9070435" lon="17.6539831">
        <ele>19.3638</ele>
        <time>2013-04-21T14:17:47Z</time>
      </trkpt>
      <trkpt lat="59.9070472" lon="17.6538755">
        <ele>19.3638</ele>
        <time>2013-04-21T14:17:48Z</time>
      </trkpt>
      <trkpt lat="59.9070513" lon="17.6537704">
        <ele>19.8444</ele>
        <time>2013-04-21T14:17:49Z</time>
      </trkpt>
      <trkpt lat="59.9070554" lon="17.653667">
        <ele>19.8444</ele>
        <time>2013-04-21T14:17:50Z</time>
      </trkpt>
      <trkpt lat="59.9070591" lon="17.6535641">
        <ele>19.8444</ele>
        <time>2013-04-21T14:17:51Z</time>
      </trkpt>
      <trkpt lat="59.9070626" lon="17.6534626">
        <ele>20.325</ele>
        <time>2013-04-21T14:17:52Z</time>
      </trkpt>
      <trkpt lat="59.9070656" lon="17.6533617">
        <ele>20.325</ele>
        <time>2013-04-21T14:17:53Z</time>
      </trkpt>
      <trkpt lat="59.9070706" lon="17.6532559">
        <ele>20.325</ele>
        <time>2013-04-21T14:17:54Z</time>
      </trkpt>
      <trkpt lat="59.9070746" lon="17.6531534">
        <ele>20.325</ele>
        <time>2013-04-21T14:17:55Z</time>
      </trkpt>
      <trkpt lat="59.9070777" lon="17.653057">
        <ele>20.8057</ele>
        <time>2013-04-21T14:17:56Z</time>
      </trkpt>
      <trkpt lat="59.9070792" lon="17.6529617">
        <ele>20.8057</ele>
        <time>2013-04-21T14:17:57Z</time>
      </trkpt>
      <trkpt lat="59.9070814" lon="17.6528653">
        <ele>21.2864</ele>
        <time>2013-04-21T14:17:58Z</time>
      </trkpt>
      <trkpt lat="59.9070819" lon="17.6527684">
        <ele>21.2864</ele>
        <time>2013-04-21T14:17:59Z</time>
      </trkpt>
      <trkpt lat="59.9070824" lon="17.6526704">
        <ele>21.767</ele>
        <time>2013-04-21T14:18:00Z</time>
      </trkpt>
      <trkpt lat="59.9070824" lon="17.6525689">
        <ele>22.2476</ele>
        <time>2013-04-21T14:18:01Z</time>
      </trkpt>
      <trkpt lat="59.9070802" lon="17.6524659">
        <ele>22.2476</ele>
        <time>2013-04-21T14:18:02Z</time>
      </trkpt>
      <trkpt lat="59.9070778" lon="17.6523587">
        <ele>22.7283</ele>
        <time>2013-04-21T14:18:03Z</time>
      </trkpt>
      <trkpt lat="59.9070736" lon="17.6522499">
        <ele>23.209</ele>
        <time>2013-04-21T14:18:04Z</time>
      </trkpt>
      <trkpt lat="59.9070669" lon="17.652141">
        <ele>23.6896</ele>
        <time>2013-04-21T14:18:05Z</time>
      </trkpt>
      <trkpt lat="59.9070554" lon="17.6520339">
        <ele>23.209</ele>
        <time>2013-04-21T14:18:06Z</time>
      </trkpt>
      <trkpt lat="59.9070411" lon="17.6519271">
        <ele>23.209</ele>
        <time>2013-04-21T14:18:07Z</time>
      </trkpt>
      <trkpt lat="59.907025" lon="17.6518184">
        <ele>23.209</ele>
        <time>2013-04-21T14:18:08Z</time>
      </trkpt>
      <trkpt lat="59.9070069" lon="17.651709">
        <ele>22.7283</ele>
        <time>2013-04-21T14:18:09Z</time>
      </trkpt>
      <trkpt lat="59.9069876" lon="17.6515982">
        <ele>22.7283</ele>
        <time>2013-04-21T14:18:10Z</time>
      </trkpt>
      <trkpt lat="59.9069661" lon="17.6514858">
        <ele>23.209</ele>
        <time>2013-04-21T14:18:11Z</time>
      </trkpt>
      <trkpt lat="59.906943" lon="17.6513743">
        <ele>23.209</ele>
        <time>2013-04-21T14:18:12Z</time>
      </trkpt>
      <trkpt lat="59.9069198" lon="17.6512655">
        <ele>23.6896</ele>
        <time>2013-04-21T14:18:13Z</time>
      </trkpt>
      <trkpt lat="59.9068953" lon="17.6511568">
        <ele>23.6896</ele>
        <time>2013-04-21T14:18:14Z</time>
      </trkpt>
      <trkpt lat="59.9068705" lon="17.6510445">
        <ele>23.6896</ele>
        <time>2013-04-21T14:18:15Z</time>
      </trkpt>
      <trkpt lat="59.9068455" lon="17.6509303">
        <ele>23.6896</ele>
        <time>2013-04-21T14:18:16Z</time>
      </trkpt>
      <trkpt lat="59.9068203" lon="17.6508149">
        <ele>23.6896</ele>
        <time>2013-04-21T14:18:17Z</time>
      </trkpt>
      <trkpt lat="59.9067962" lon="17.6506954">
        <ele>24.1703</ele>
        <time>2013-04-21T14:18:18Z</time>
      </trkpt>
      <trkpt lat="59.9067715" lon="17.6505772">
        <ele>24.1703</ele>
        <time>2013-04-21T14:18:19Z</time>
      </trkpt>
      <trkpt lat="59.9067476" lon="17.6504574">
        <ele>24.1703</ele>
        <time>2013-04-21T14:18:20Z</time>
      </trkpt>
      <trkpt lat="59.9067224" lon="17.6503374">
        <ele>24.1703</ele>
        <time>2013-04-21T14:18:21Z</time>
      </trkpt>
      <trkpt lat="59.9066961" lon="17.6502177">
        <ele>24.651</ele>
        <time>2013-04-21T14:18:22Z</time>
      </trkpt>
      <trkpt lat="59.9066695" lon="17.6500991">
        <ele>24.1703</ele>
        <time>2013-04-21T14:18:23Z</time>
      </trkpt>
      <trkpt lat="59.9066415" lon="17.6499814">
        <ele>24.1703</ele>
        <time>2013-04-21T14:18:24Z</time>
      </trkpt>
      <trkpt lat="59.9066115" lon="17.6498639">
        <ele>23.6896</ele>
        <time>2013-04-21T14:18:25Z</time>
      </trkpt>
      <trkpt lat="59.9065813" lon="17.6497438">
        <ele>23.6896</ele>
        <time>2013-04-21T14:18:26Z</time>
      </trkpt>
      <trkpt lat="59.9065517" lon="17.6496194">
        <ele>23.6896</ele>
        <time>2013-04-21T14:18:27Z</time>
      </trkpt>
      <trkpt lat="59.9065219" lon="17.6494915">
        <ele>23.6896</ele>
        <time>2013-04-21T14:18:28Z</time>
      </trkpt>
      <trkpt lat="59.9064897" lon="17.6493637">
        <ele>23.209</ele>
        <time>2013-04-21T14:18:29Z</time>
      </trkpt>
      <trkpt lat="59.9064561" lon="17.6492341">
        <ele>23.209</ele>
        <time>2013-04-21T14:18:30Z</time>
      </trkpt>
      <trkpt lat="59.9064194" lon="17.6491078">
        <ele>23.209</ele>
        <time>2013-04-21T14:18:31Z</time>
      </trkpt>
      <trkpt lat="59.9063801" lon="17.6489848">
        <ele>23.209</ele>
        <time>2013-04-21T14:18:32Z</time>
      </trkpt>
      <trkpt lat="59.9063389" lon="17.6488643">
        <ele>23.209</ele>
        <time>2013-04-21T14:18:33Z</time>
      </trkpt>
      <trkpt lat="59.9062964" lon="17.6487457">
        <ele>23.209</ele>
        <time>2013-04-21T14:18:34Z</time>
      </trkpt>
      <trkpt lat="59.9062536" lon="17.6486279">
        <ele>23.209</ele>
        <time>2013-04-21T14:18:35Z</time>
      </trkpt>
      <trkpt lat="59.9062116" lon="17.6485092">
        <ele>23.6896</ele>
        <time>2013-04-21T14:18:36Z</time>
      </trkpt>
      <trkpt lat="59.9061706" lon="17.6483897">
        <ele>23.6896</ele>
        <time>2013-04-21T14:18:37Z</time>
      </trkpt>
      <trkpt lat="59.906132" lon="17.6482674">
        <ele>23.6896</ele>
        <time>2013-04-21T14:18:38Z</time>
      </trkpt>
      <trkpt lat="59.9060977" lon="17.6481439">
        <ele>23.6896</ele>
        <time>2013-04-21T14:18:39Z</time>
      </trkpt>
      <trkpt lat="59.9060684" lon="17.6480165">
        <ele>24.1703</ele>
        <time>2013-04-21T14:18:40Z</time>
      </trkpt>
      <trkpt lat="59.9060427" lon="17.6478871">
        <ele>24.1703</ele>
        <time>2013-04-21T14:18:41Z</time>
      </trkpt>
      <trkpt lat="59.9060208" lon="17.647754">
        <ele>24.1703</ele>
        <time>2013-04-21T14:18:42Z</time>
      </trkpt>
      <trkpt lat="59.9060007" lon="17.6476231">
        <ele>23.6896</ele>
        <time>2013-04-21T14:18:43Z</time>
      </trkpt>
      <trkpt lat="59.9059847" lon="17.6474921">
        <ele>23.6896</ele>
        <time>2013-04-21T14:18:44Z</time>
      </trkpt>
      <trkpt lat="59.9059726" lon="17.6473623">
        <ele>23.209</ele>
        <time>2013-04-21T14:18:45Z</time>
      </trkpt>
      <trkpt lat="59.9059649" lon="17.647233">
        <ele>22.7283</ele>
        <time>2013-04-21T14:18:46Z</time>
      </trkpt>
      <trkpt lat="59.905962" lon="17.6471048">
        <ele>22.2476</ele>
        <time>2013-04-21T14:18:47Z</time>
      </trkpt>
      <trkpt lat="59.9059607" lon="17.6469767">
        <ele>20.8057</ele>
        <time>2013-04-21T14:18:48Z</time>
      </trkpt>
      <trkpt lat="59.9059661" lon="17.6468502">
        <ele>20.325</ele>
        <time>2013-04-21T14:18:49Z</time>
      </trkpt>
      <trkpt lat="59.9059759" lon="17.6467248">
        <ele>19.8444</ele>
        <time>2013-04-21T14:18:50Z</time>
      </trkpt>
      <trkpt lat="59.9059859" lon="17.6466003">
        <ele>19.3638</ele>
        <time>2013-04-21T14:18:51Z</time>
      </trkpt>
      <trkpt lat="59.905997" lon="17.6464767">
        <ele>18.8831</ele>
        <time>2013-04-21T14:18:52Z</time>
      </trkpt>
      <trkpt lat="59.9060094" lon="17.6463528">
        <ele>18.4023</ele>
        <time>2013-04-21T14:18:53Z</time>
      </trkpt>
      <trkpt lat="59.9060231" lon="17.6462285">
        <ele>17.9218</ele>
        <time>2013-04-21T14:18:54Z</time>
      </trkpt>
      <trkpt lat="59.9060399" lon="17.6461038">
        <ele>17.9218</ele>
        <time>2013-04-21T14:18:55Z</time>
      </trkpt>
      <trkpt lat="59.9060548" lon="17.6459815">
        <ele>17.4412</ele>
        <time>2013-04-21T14:18:56Z</time>
      </trkpt>
      <trkpt lat="59.90607" lon="17.6458593">
        <ele>16.9604</ele>
        <time>2013-04-21T14:18:57Z</time>
      </trkpt>
      <trkpt lat="59.9060851" lon="17.6457371">
        <ele>16.4797</ele>
        <time>2013-04-21T14:18:58Z</time>
      </trkpt>
      <trkpt lat="59.9060987" lon="17.6456177">
        <ele>15.999</ele>
        <time>2013-04-21T14:18:59Z</time>
      </trkpt>
      <trkpt lat="59.9061141" lon="17.6454995">
        <ele>15.999</ele>
        <time>2013-04-21T14:19:00Z</time>
      </trkpt>
      <trkpt lat="59.906127" lon="17.645379">
        <ele>15.999</ele>
        <time>2013-04-21T14:19:01Z</time>
      </trkpt>
      <trkpt lat="59.9061364" lon="17.645256">
        <ele>15.999</ele>
        <time>2013-04-21T14:19:02Z</time>
      </trkpt>
      <trkpt lat="59.9061427" lon="17.6451323">
        <ele>15.999</ele>
        <time>2013-04-21T14:19:03Z</time>
      </trkpt>
      <trkpt lat="59.9061465" lon="17.645008">
        <ele>15.999</ele>
        <time>2013-04-21T14:19:04Z</time>
      </trkpt>
      <trkpt lat="59.9061452" lon="17.6448813">
        <ele>16.4797</ele>
        <time>2013-04-21T14:19:05Z</time>
      </trkpt>
      <trkpt lat="59.906137" lon="17.6447551">
        <ele>16.4797</ele>
        <time>2013-04-21T14:19:06Z</time>
      </trkpt>
      <trkpt lat="59.9061219" lon="17.6446314">
        <ele>16.4797</ele>
        <time>2013-04-21T14:19:07Z</time>
      </trkpt>
      <trkpt lat="59.9060983" lon="17.6445109">
        <ele>15.5184</ele>
        <time>2013-04-21T14:19:08Z</time>
      </trkpt>
      <trkpt lat="59.9060711" lon="17.6443977">
        <ele>15.0377</ele>
        <time>2013-04-21T14:19:09Z</time>
      </trkpt>
      <trkpt lat="59.9060391" lon="17.6442875">
        <ele>13.5958</ele>
        <time>2013-04-21T14:19:10Z</time>
      </trkpt>
      <trkpt lat="59.9060107" lon="17.6441777">
        <ele>13.1151</ele>
        <time>2013-04-21T14:19:11Z</time>
      </trkpt>
      <trkpt lat="59.9059854" lon="17.6440658">
        <ele>12.6344</ele>
        <time>2013-04-21T14:19:12Z</time>
      </trkpt>
      <trkpt lat="59.9059576" lon="17.6439693">
        <ele>12.6344</ele>
        <time>2013-04-21T14:19:13Z</time>
      </trkpt>
      <trkpt lat="59.9059288" lon="17.6438815">
        <ele>12.6344</ele>
        <time>2013-04-21T14:19:14Z</time>
      </trkpt>
      <trkpt lat="59.9059033" lon="17.6437875">
        <ele>12.6344</ele>
        <time>2013-04-21T14:19:15Z</time>
      </trkpt>
      <trkpt lat="59.9058816" lon="17.6436969">
        <ele>13.5958</ele>
        <time>2013-04-21T14:19:16Z</time>
      </trkpt>
      <trkpt lat="59.9058677" lon="17.6436152">
        <ele>13.5958</ele>
        <time>2013-04-21T14:19:17Z</time>
      </trkpt>
      <trkpt lat="59.9057292" lon="17.6429646">
        <ele>19.3638</ele>
        <time>2013-04-21T14:19:47Z</time>
      </trkpt>
      <trkpt lat="59.9057483" lon="17.6429747">
        <ele>19.3638</ele>
        <time>2013-04-21T14:19:48Z</time>
      </trkpt>
      <trkpt lat="59.905769" lon="17.6429906">
        <ele>18.8831</ele>
        <time>2013-04-21T14:19:49Z</time>
      </trkpt>
      <trkpt lat="59.9057925" lon="17.6430034">
        <ele>18.8831</ele>
        <time>2013-04-21T14:19:50Z</time>
      </trkpt>
      <trkpt lat="59.9058169" lon="17.6430113">
        <ele>18.8831</ele>
        <time>2013-04-21T14:19:51Z</time>
      </trkpt>
      <trkpt lat="59.9058448" lon="17.6430204">
        <ele>18.4023</ele>
        <time>2013-04-21T14:19:52Z</time>
      </trkpt>
      <trkpt lat="59.9058761" lon="17.6430402">
        <ele>18.4023</ele>
        <time>2013-04-21T14:19:53Z</time>
      </trkpt>
      <trkpt lat="59.9059095" lon="17.6430685">
        <ele>18.4023</ele>
        <time>2013-04-21T14:19:54Z</time>
      </trkpt>
      <trkpt lat="59.9059452" lon="17.6430976">
        <ele>18.4023</ele>
        <time>2013-04-21T14:19:55Z</time>
      </trkpt>
      <trkpt lat="59.9059858" lon="17.6431252">
        <ele>18.4023</ele>
        <time>2013-04-21T14:19:56Z</time>
      </trkpt>
      <trkpt lat="59.9060287" lon="17.6431517">
        <ele>18.4023</ele>
        <time>2013-04-21T14:19:57Z</time>
      </trkpt>
      <trkpt lat="59.9060743" lon="17.6431791">
        <ele>18.8831</ele>
        <time>2013-04-21T14:19:58Z</time>
      </trkpt>
      <trkpt lat="59.9061216" lon="17.6432034">
        <ele>18.8831</ele>
        <time>2013-04-21T14:19:59Z</time>
      </trkpt>
      <trkpt lat="59.9061711" lon="17.6432241">
        <ele>18.8831</ele>
        <time>2013-04-21T14:20:00Z</time>
      </trkpt>
      <trkpt lat="59.906222" lon="17.6432427">
        <ele>19.3638</ele>
        <time>2013-04-21T14:20:01Z</time>
      </trkpt>
      <trkpt lat="59.9062728" lon="17.6432624">
        <ele>19.3638</ele>
        <time>2013-04-21T14:20:02Z</time>
      </trkpt>
      <trkpt lat="59.9063239" lon="17.6432812">
        <ele>19.8444</ele>
        <time>2013-04-21T14:20:03Z</time>
      </trkpt>
      <trkpt lat="59.9063753" lon="17.6433022">
        <ele>19.8444</ele>
        <time>2013-04-21T14:20:04Z</time>
      </trkpt>
      <trkpt lat="59.9064274" lon="17.6433236">
        <ele>19.8444</ele>
        <time>2013-04-21T14:20:05Z</time>
      </trkpt>
      <trkpt lat="59.90648" lon="17.6433433">
        <ele>19.8444</ele>
        <time>2013-04-21T14:20:06Z</time>
      </trkpt>
      <trkpt lat="59.9065329" lon="17.6433618">
        <ele>20.325</ele>
        <time>2013-04-21T14:20:07Z</time>
      </trkpt>
      <trkpt lat="59.9065865" lon="17.6433799">
        <ele>20.325</ele>
        <time>2013-04-21T14:20:08Z</time>
      </trkpt>
      <trkpt lat="59.9066409" lon="17.6433964">
        <ele>20.325</ele>
        <time>2013-04-21T14:20:09Z</time>
      </trkpt>
      <trkpt lat="59.9066961" lon="17.6434124">
        <ele>20.8057</ele>
        <time>2013-04-21T14:20:10Z</time>
      </trkpt>
      <trkpt lat="59.9067522" lon="17.6434297">
        <ele>20.8057</ele>
        <time>2013-04-21T14:20:11Z</time>
      </trkpt>
      <trkpt lat="59.9068094" lon="17.6434467">
        <ele>20.8057</ele>
        <time>2013-04-21T14:20:12Z</time>
      </trkpt>
      <trkpt lat="59.906867" lon="17.6434625">
        <ele>21.2864</ele>
        <time>2013-04-21T14:20:13Z</time>
      </trkpt>
      <trkpt lat="59.906924" lon="17.6434748">
        <ele>21.2864</ele>
        <time>2013-04-21T14:20:14Z</time>
      </trkpt>
      <trkpt lat="59.9069804" lon="17.6434867">
        <ele>21.2864</ele>
        <time>2013-04-21T14:20:15Z</time>
      </trkpt>
      <trkpt lat="59.9070361" lon="17.643501">
        <ele>21.2864</ele>
        <time>2013-04-21T14:20:16Z</time>
      </trkpt>
      <trkpt lat="59.9070917" lon="17.6435145">
        <ele>21.2864</ele>
        <time>2013-04-21T14:20:17Z</time>
      </trkpt>
      <trkpt lat="59.9071483" lon="17.6435252">
        <ele>21.767</ele>
        <time>2013-04-21T14:20:18Z</time>
      </trkpt>
      <trkpt lat="59.9072053" lon="17.6435339">
        <ele>21.767</ele>
        <time>2013-04-21T14:20:19Z</time>
      </trkpt>
      <trkpt lat="59.9072622" lon="17.6435431">
        <ele>21.767</ele>
        <time>2013-04-21T14:20:20Z</time>
      </trkpt>
      <trkpt lat="59.9073194" lon="17.6435551">
        <ele>21.767</ele>
        <time>2013-04-21T14:20:21Z</time>
      </trkpt>
      <trkpt lat="59.9073774" lon="17.643569">
        <ele>22.2476</ele>
        <time>2013-04-21T14:20:22Z</time>
      </trkpt>
      <trkpt lat="59.9074363" lon="17.6435816">
        <ele>22.2476</ele>
        <time>2013-04-21T14:20:23Z</time>
      </trkpt>
      <trkpt lat="59.9074964" lon="17.6435929">
        <ele>22.7283</ele>
        <time>2013-04-21T14:20:24Z</time>
      </trkpt>
      <trkpt lat="59.9075574" lon="17.6436036">
        <ele>22.7283</ele>
        <time>2013-04-21T14:20:25Z</time>
      </trkpt>
      <trkpt lat="59.907619" lon="17.6436141">
        <ele>22.7283</ele>
        <time>2013-04-21T14:20:26Z</time>
      </trkpt>
      <trkpt lat="59.9076803" lon="17.6436246">
        <ele>23.209</ele>
        <time>2013-04-21T14:20:27Z</time>
      </trkpt>
      <trkpt lat="59.9077417" lon="17.643638">
        <ele>23.209</ele>
        <time>2013-04-21T14:20:28Z</time>
      </trkpt>
      <trkpt lat="59.9078035" lon="17.6436498">
        <ele>23.209</ele>
        <time>2013-04-21T14:20:29Z</time>
      </trkpt>
      <trkpt lat="59.9078659" lon="17.6436587">
        <ele>23.209</ele>
        <time>2013-04-21T14:20:30Z</time>
      </trkpt>
      <trkpt lat="59.9079288" lon="17.6436644">
        <ele>23.209</ele>
        <time>2013-04-21T14:20:31Z</time>
      </trkpt>
      <trkpt lat="59.9079916" lon="17.643672">
        <ele>23.6896</ele>
        <time>2013-04-21T14:20:32Z</time>
      </trkpt>
      <trkpt lat="59.9080557" lon="17.6436837">
        <ele>23.6896</ele>
        <time>2013-04-21T14:20:33Z</time>
      </trkpt>
      <trkpt lat="59.9081205" lon="17.6436919">
        <ele>23.209</ele>
        <time>2013-04-21T14:20:34Z</time>
      </trkpt>
      <trkpt lat="59.9081856" lon="17.6437007">
        <ele>23.209</ele>
        <time>2013-04-21T14:20:35Z</time>
      </trkpt>
      <trkpt lat="59.9082518" lon="17.6437085">
        <ele>23.209</ele>
        <time>2013-04-21T14:20:36Z</time>
      </trkpt>
      <trkpt lat="59.9083184" lon="17.6437125">
        <ele>23.209</ele>
        <time>2013-04-21T14:20:37Z</time>
      </trkpt>
      <trkpt lat="59.9083846" lon="17.6437137">
        <ele>22.7283</ele>
        <time>2013-04-21T14:20:38Z</time>
      </trkpt>
      <trkpt lat="59.9084516" lon="17.6437134">
        <ele>22.7283</ele>
        <time>2013-04-21T14:20:39Z</time>
      </trkpt>
      <trkpt lat="59.9085202" lon="17.6437126">
        <ele>22.2476</ele>
        <time>2013-04-21T14:20:40Z</time>
      </trkpt>
      <trkpt lat="59.9085901" lon="17.6437104">
        <ele>22.2476</ele>
        <time>2013-04-21T14:20:41Z</time>
      </trkpt>
      <trkpt lat="59.9086612" lon="17.6437047">
        <ele>21.767</ele>
        <time>2013-04-21T14:20:42Z</time>
      </trkpt>
      <trkpt lat="59.9087333" lon="17.6436987">
        <ele>21.2864</ele>
        <time>2013-04-21T14:20:43Z</time>
      </trkpt>
      <trkpt lat="59.9088067" lon="17.6436911">
        <ele>21.2864</ele>
        <time>2013-04-21T14:20:44Z</time>
      </trkpt>
      <trkpt lat="59.908881" lon="17.6436809">
        <ele>20.8057</ele>
        <time>2013-04-21T14:20:45Z</time>
      </trkpt>
      <trkpt lat="59.9089561" lon="17.6436714">
        <ele>20.8057</ele>
        <time>2013-04-21T14:20:46Z</time>
      </trkpt>
      <trkpt lat="59.9090316" lon="17.6436622">
        <ele>20.8057</ele>
        <time>2013-04-21T14:20:47Z</time>
      </trkpt>
      <trkpt lat="59.9091073" lon="17.6436512">
        <ele>20.325</ele>
        <time>2013-04-21T14:20:48Z</time>
      </trkpt>
      <trkpt lat="59.9091838" lon="17.6436376">
        <ele>20.325</ele>
        <time>2013-04-21T14:20:49Z</time>
      </trkpt>
      <trkpt lat="59.9092614" lon="17.6436226">
        <ele>20.325</ele>
        <time>2013-04-21T14:20:50Z</time>
      </trkpt>
      <trkpt lat="59.9093399" lon="17.6436069">
        <ele>19.8444</ele>
        <time>2013-04-21T14:20:51Z</time>
      </trkpt>
      <trkpt lat="59.9094192" lon="17.6435914">
        <ele>19.8444</ele>
        <time>2013-04-21T14:20:52Z</time>
      </trkpt>
      <trkpt lat="59.9094987" lon="17.6435739">
        <ele>19.3638</ele>
        <time>2013-04-21T14:20:53Z</time>
      </trkpt>
      <trkpt lat="59.9095776" lon="17.6435555">
        <ele>19.3638</ele>
        <time>2013-04-21T14:20:54Z</time>
      </trkpt>
      <trkpt lat="59.9096559" lon="17.6435339">
        <ele>18.8831</ele>
        <time>2013-04-21T14:20:55Z</time>
      </trkpt>
      <trkpt lat="59.9097331" lon="17.6435126">
        <ele>18.8831</ele>
        <time>2013-04-21T14:20:56Z</time>
      </trkpt>
      <trkpt lat="59.9098098" lon="17.6434998">
        <ele>18.8831</ele>
        <time>2013-04-21T14:20:57Z</time>
      </trkpt>
      <trkpt lat="59.9098858" lon="17.6435093">
        <ele>18.8831</ele>
        <time>2013-04-21T14:20:58Z</time>
      </trkpt>
      <trkpt lat="59.9099604" lon="17.6435388">
        <ele>18.8831</ele>
        <time>2013-04-21T14:20:59Z</time>
      </trkpt>
      <trkpt lat="59.9100309" lon="17.6435695">
        <ele>18.8831</ele>
        <time>2013-04-21T14:21:00Z</time>
      </trkpt>
      <trkpt lat="59.9100977" lon="17.6435846">
        <ele>18.8831</ele>
        <time>2013-04-21T14:21:01Z</time>
      </trkpt>
      <trkpt lat="59.9101624" lon="17.6435918">
        <ele>18.4023</ele>
        <time>2013-04-21T14:21:02Z</time>
      </trkpt>
      <trkpt lat="59.9102272" lon="17.6435887">
        <ele>18.4023</ele>
        <time>2013-04-21T14:21:03Z</time>
      </trkpt>
      <trkpt lat="59.9102919" lon="17.6435773">
        <ele>18.4023</ele>
        <time>2013-04-21T14:21:04Z</time>
      </trkpt>
      <trkpt lat="59.9103556" lon="17.6435628">
        <ele>18.4023</ele>
        <time>2013-04-21T14:21:05Z</time>
      </trkpt>
      <trkpt lat="59.9104199" lon="17.6435432">
        <ele>18.4023</ele>
        <time>2013-04-21T14:21:06Z</time>
      </trkpt>
      <trkpt lat="59.9104827" lon="17.6435148">
        <ele>18.8831</ele>
        <time>2013-04-21T14:21:07Z</time>
      </trkpt>
      <trkpt lat="59.9105499" lon="17.6434825">
        <ele>19.3638</ele>
        <time>2013-04-21T14:21:08Z</time>
      </trkpt>
      <trkpt lat="59.91062" lon="17.643451">
        <ele>19.8444</ele>
        <time>2013-04-21T14:21:09Z</time>
      </trkpt>
      <trkpt lat="59.9106901" lon="17.6434282">
        <ele>19.8444</ele>
        <time>2013-04-21T14:21:10Z</time>
      </trkpt>
      <trkpt lat="59.9107593" lon="17.6434116">
        <ele>19.3638</ele>
        <time>2013-04-21T14:21:11Z</time>
      </trkpt>
      <trkpt lat="59.910828" lon="17.6433966">
        <ele>18.8831</ele>
        <time>2013-04-21T14:21:12Z</time>
      </trkpt>
      <trkpt lat="59.9108949" lon="17.6433821">
        <ele>18.8831</ele>
        <time>2013-04-21T14:21:13Z</time>
      </trkpt>
      <trkpt lat="59.9109612" lon="17.643371">
        <ele>18.8831</ele>
        <time>2013-04-21T14:21:14Z</time>
      </trkpt>
      <trkpt lat="59.9110266" lon="17.6433617">
        <ele>18.4023</ele>
        <time>2013-04-21T14:21:15Z</time>
      </trkpt>
      <trkpt lat="59.9110921" lon="17.643351">
        <ele>18.4023</ele>
        <time>2013-04-21T14:21:16Z</time>
      </trkpt>
      <trkpt lat="59.911158" lon="17.6433391">
        <ele>18.4023</ele>
        <time>2013-04-21T14:21:17Z</time>
      </trkpt>
      <trkpt lat="59.9112249" lon="17.6433265">
        <ele>17.9218</ele>
        <time>2013-04-21T14:21:18Z</time>
      </trkpt>
      <trkpt lat="59.9112927" lon="17.6433089">
        <ele>17.9218</ele>
        <time>2013-04-21T14:21:19Z</time>
      </trkpt>
      <trkpt lat="59.9113604" lon="17.6432877">
        <ele>17.4412</ele>
        <time>2013-04-21T14:21:20Z</time>
      </trkpt>
      <trkpt lat="59.9114288" lon="17.6432685">
        <ele>17.4412</ele>
        <time>2013-04-21T14:21:21Z</time>
      </trkpt>
      <trkpt lat="59.9114984" lon="17.6432504">
        <ele>16.9604</ele>
        <time>2013-04-21T14:21:22Z</time>
      </trkpt>
      <trkpt lat="59.9115682" lon="17.6432358">
        <ele>16.9604</ele>
        <time>2013-04-21T14:21:23Z</time>
      </trkpt>
      <trkpt lat="59.9116383" lon="17.6432267">
        <ele>16.4797</ele>
        <time>2013-04-21T14:21:24Z</time>
      </trkpt>
      <trkpt lat="59.9117086" lon="17.6432174">
        <ele>16.4797</ele>
        <time>2013-04-21T14:21:25Z</time>
      </trkpt>
      <trkpt lat="59.9117787" lon="17.6432086">
        <ele>15.999</ele>
        <time>2013-04-21T14:21:26Z</time>
      </trkpt>
      <trkpt lat="59.9118469" lon="17.6432011">
        <ele>15.999</ele>
        <time>2013-04-21T14:21:27Z</time>
      </trkpt>
      <trkpt lat="59.9119138" lon="17.6431859">
        <ele>15.999</ele>
        <time>2013-04-21T14:21:28Z</time>
      </trkpt>
      <trkpt lat="59.9119811" lon="17.643169">
        <ele>15.5184</ele>
        <time>2013-04-21T14:21:29Z</time>
      </trkpt>
      <trkpt lat="59.9120487" lon="17.6431512">
        <ele>15.0377</ele>
        <time>2013-04-21T14:21:30Z</time>
      </trkpt>
      <trkpt lat="59.9121185" lon="17.6431272">
        <ele>15.0377</ele>
        <time>2013-04-21T14:21:31Z</time>
      </trkpt>
      <trkpt lat="59.9121877" lon="17.643102">
        <ele>14.557</ele>
        <time>2013-04-21T14:21:32Z</time>
      </trkpt>
      <trkpt lat="59.912262" lon="17.6430791">
        <ele>14.0764</ele>
        <time>2013-04-21T14:21:33Z</time>
      </trkpt>
      <trkpt lat="59.9123377" lon="17.6430607">
        <ele>13.5958</ele>
        <time>2013-04-21T14:21:34Z</time>
      </trkpt>
      <trkpt lat="59.9124148" lon="17.6430464">
        <ele>13.5958</ele>
        <time>2013-04-21T14:21:35Z</time>
      </trkpt>
      <trkpt lat="59.912492" lon="17.6430376">
        <ele>13.1151</ele>
        <time>2013-04-21T14:21:36Z</time>
      </trkpt>
      <trkpt lat="59.9125692" lon="17.6430428">
        <ele>13.1151</ele>
        <time>2013-04-21T14:21:37Z</time>
      </trkpt>
      <trkpt lat="59.9126441" lon="17.6430691">
        <ele>13.1151</ele>
        <time>2013-04-21T14:21:38Z</time>
      </trkpt>
      <trkpt lat="59.9127132" lon="17.6430991">
        <ele>13.1151</ele>
        <time>2013-04-21T14:21:39Z</time>
      </trkpt>
      <trkpt lat="59.9127779" lon="17.6431152">
        <ele>12.6344</ele>
        <time>2013-04-21T14:21:40Z</time>
      </trkpt>
      <trkpt lat="59.9128436" lon="17.6431161">
        <ele>12.6344</ele>
        <time>2013-04-21T14:21:41Z</time>
      </trkpt>
      <trkpt lat="59.9129106" lon="17.6431081">
        <ele>12.6344</ele>
        <time>2013-04-21T14:21:42Z</time>
      </trkpt>
      <trkpt lat="59.9129784" lon="17.6430965">
        <ele>12.6344</ele>
        <time>2013-04-21T14:21:43Z</time>
      </trkpt>
      <trkpt lat="59.9130467" lon="17.6430819">
        <ele>12.6344</ele>
        <time>2013-04-21T14:21:44Z</time>
      </trkpt>
      <trkpt lat="59.9131161" lon="17.6430674">
        <ele>12.1538</ele>
        <time>2013-04-21T14:21:45Z</time>
      </trkpt>
      <trkpt lat="59.9131892" lon="17.6430527">
        <ele>13.1151</ele>
        <time>2013-04-21T14:21:46Z</time>
      </trkpt>
      <trkpt lat="59.9132601" lon="17.6430351">
        <ele>13.1151</ele>
        <time>2013-04-21T14:21:47Z</time>
      </trkpt>
      <trkpt lat="59.9133311" lon="17.6430134">
        <ele>13.1151</ele>
        <time>2013-04-21T14:21:48Z</time>
      </trkpt>
      <trkpt lat="59.913404" lon="17.642988">
        <ele>13.5958</ele>
        <time>2013-04-21T14:21:49Z</time>
      </trkpt>
      <trkpt lat="59.913476" lon="17.6429734">
        <ele>13.5958</ele>
        <time>2013-04-21T14:21:50Z</time>
      </trkpt>
      <trkpt lat="59.9135488" lon="17.6429639">
        <ele>13.5958</ele>
        <time>2013-04-21T14:21:51Z</time>
      </trkpt>
      <trkpt lat="59.9136229" lon="17.6429507">
        <ele>13.5958</ele>
        <time>2013-04-21T14:21:52Z</time>
      </trkpt>
      <trkpt lat="59.9136983" lon="17.6429386">
        <ele>14.0764</ele>
        <time>2013-04-21T14:21:53Z</time>
      </trkpt>
      <trkpt lat="59.9137755" lon="17.6429216">
        <ele>14.557</ele>
        <time>2013-04-21T14:21:54Z</time>
      </trkpt>
      <trkpt lat="59.9138547" lon="17.6429013">
        <ele>15.5184</ele>
        <time>2013-04-21T14:21:55Z</time>
      </trkpt>
      <trkpt lat="59.9139337" lon="17.6428833">
        <ele>15.5184</ele>
        <time>2013-04-21T14:21:56Z</time>
      </trkpt>
      <trkpt lat="59.9140102" lon="17.6428682">
        <ele>15.5184</ele>
        <time>2013-04-21T14:21:57Z</time>
      </trkpt>
      <trkpt lat="59.9140874" lon="17.6428557">
        <ele>15.5184</ele>
        <time>2013-04-21T14:21:58Z</time>
      </trkpt>
      <trkpt lat="59.914164" lon="17.642844">
        <ele>15.0377</ele>
        <time>2013-04-21T14:21:59Z</time>
      </trkpt>
      <trkpt lat="59.9142416" lon="17.6428317">
        <ele>14.557</ele>
        <time>2013-04-21T14:22:00Z</time>
      </trkpt>
      <trkpt lat="59.9143191" lon="17.6428206">
        <ele>14.557</ele>
        <time>2013-04-21T14:22:01Z</time>
      </trkpt>
      <trkpt lat="59.9143963" lon="17.6428116">
        <ele>14.0764</ele>
        <time>2013-04-21T14:22:02Z</time>
      </trkpt>
      <trkpt lat="59.914475" lon="17.6427992">
        <ele>13.5958</ele>
        <time>2013-04-21T14:22:03Z</time>
      </trkpt>
      <trkpt lat="59.9145537" lon="17.6427862">
        <ele>13.5958</ele>
        <time>2013-04-21T14:22:04Z</time>
      </trkpt>
      <trkpt lat="59.9146324" lon="17.6427728">
        <ele>13.1151</ele>
        <time>2013-04-21T14:22:05Z</time>
      </trkpt>
      <trkpt lat="59.914711" lon="17.6427595">
        <ele>12.6344</ele>
        <time>2013-04-21T14:22:06Z</time>
      </trkpt>
      <trkpt lat="59.91479" lon="17.6427465">
        <ele>12.6344</ele>
        <time>2013-04-21T14:22:07Z</time>
      </trkpt>
      <trkpt lat="59.9148708" lon="17.6427308">
        <ele>12.1538</ele>
        <time>2013-04-21T14:22:08Z</time>
      </trkpt>
      <trkpt lat="59.9149509" lon="17.6427144">
        <ele>12.1538</ele>
        <time>2013-04-21T14:22:09Z</time>
      </trkpt>
      <trkpt lat="59.9150307" lon="17.6426942">
        <ele>12.1538</ele>
        <time>2013-04-21T14:22:10Z</time>
      </trkpt>
      <trkpt lat="59.9151079" lon="17.6426637">
        <ele>12.1538</ele>
        <time>2013-04-21T14:22:11Z</time>
      </trkpt>
      <trkpt lat="59.9151852" lon="17.6426154">
        <ele>12.1538</ele>
        <time>2013-04-21T14:22:12Z</time>
      </trkpt>
      <trkpt lat="59.915267" lon="17.6425578">
        <ele>12.1538</ele>
        <time>2013-04-21T14:22:13Z</time>
      </trkpt>
      <trkpt lat="59.9153575" lon="17.6425008">
        <ele>12.1538</ele>
        <time>2013-04-21T14:22:14Z</time>
      </trkpt>
      <trkpt lat="59.915448" lon="17.6424605">
        <ele>12.6344</ele>
        <time>2013-04-21T14:22:15Z</time>
      </trkpt>
      <trkpt lat="59.9155362" lon="17.6424379">
        <ele>12.6344</ele>
        <time>2013-04-21T14:22:16Z</time>
      </trkpt>
      <trkpt lat="59.9156229" lon="17.6424272">
        <ele>12.6344</ele>
        <time>2013-04-21T14:22:17Z</time>
      </trkpt>
      <trkpt lat="59.9157082" lon="17.6424199">
        <ele>12.6344</ele>
        <time>2013-04-21T14:22:18Z</time>
      </trkpt>
      <trkpt lat="59.9157927" lon="17.6424139">
        <ele>12.6344</ele>
        <time>2013-04-21T14:22:19Z</time>
      </trkpt>
      <trkpt lat="59.9158761" lon="17.6424119">
        <ele>12.6344</ele>
        <time>2013-04-21T14:22:20Z</time>
      </trkpt>
      <trkpt lat="59.9159581" lon="17.6424114">
        <ele>12.6344</ele>
        <time>2013-04-21T14:22:21Z</time>
      </trkpt>
      <trkpt lat="59.9160384" lon="17.6424113">
        <ele>12.6344</ele>
        <time>2013-04-21T14:22:22Z</time>
      </trkpt>
      <trkpt lat="59.9161196" lon="17.6424104">
        <ele>12.6344</ele>
        <time>2013-04-21T14:22:23Z</time>
      </trkpt>
      <trkpt lat="59.9161976" lon="17.6424082">
        <ele>12.6344</ele>
        <time>2013-04-21T14:22:24Z</time>
      </trkpt>
      <trkpt lat="59.9162748" lon="17.6424039">
        <ele>12.1538</ele>
        <time>2013-04-21T14:22:25Z</time>
      </trkpt>
      <trkpt lat="59.9163522" lon="17.6423953">
        <ele>12.1538</ele>
        <time>2013-04-21T14:22:26Z</time>
      </trkpt>
      <trkpt lat="59.9164312" lon="17.6423828">
        <ele>11.6732</ele>
        <time>2013-04-21T14:22:27Z</time>
      </trkpt>
      <trkpt lat="59.9165105" lon="17.6423694">
        <ele>11.6732</ele>
        <time>2013-04-21T14:22:28Z</time>
      </trkpt>
      <trkpt lat="59.9165905" lon="17.6423576">
        <ele>11.1925</ele>
        <time>2013-04-21T14:22:29Z</time>
      </trkpt>
      <trkpt lat="59.9166712" lon="17.6423466">
        <ele>11.1925</ele>
        <time>2013-04-21T14:22:30Z</time>
      </trkpt>
      <trkpt lat="59.9167532" lon="17.6423362">
        <ele>10.7118</ele>
        <time>2013-04-21T14:22:31Z</time>
      </trkpt>
      <trkpt lat="59.916837" lon="17.6423252">
        <ele>10.2312</ele>
        <time>2013-04-21T14:22:32Z</time>
      </trkpt>
      <trkpt lat="59.9169214" lon="17.6423113">
        <ele>10.2312</ele>
        <time>2013-04-21T14:22:33Z</time>
      </trkpt>
      <trkpt lat="59.9170059" lon="17.6422922">
        <ele>9.75061</ele>
        <time>2013-04-21T14:22:34Z</time>
      </trkpt>
      <trkpt lat="59.9170903" lon="17.6422669">
        <ele>9.75061</ele>
        <time>2013-04-21T14:22:35Z</time>
      </trkpt>
      <trkpt lat="59.9171766" lon="17.6422454">
        <ele>9.75061</ele>
        <time>2013-04-21T14:22:36Z</time>
      </trkpt>
      <trkpt lat="59.9172639" lon="17.6422388">
        <ele>9.75061</ele>
        <time>2013-04-21T14:22:37Z</time>
      </trkpt>
      <trkpt lat="59.9173497" lon="17.6422402">
        <ele>9.75061</ele>
        <time>2013-04-21T14:22:38Z</time>
      </trkpt>
      <trkpt lat="59.9174344" lon="17.6422386">
        <ele>9.75061</ele>
        <time>2013-04-21T14:22:39Z</time>
      </trkpt>
      <trkpt lat="59.9175182" lon="17.6422381">
        <ele>9.75061</ele>
        <time>2013-04-21T14:22:40Z</time>
      </trkpt>
      <trkpt lat="59.917601" lon="17.6422398">
        <ele>9.75061</ele>
        <time>2013-04-21T14:22:41Z</time>
      </trkpt>
      <trkpt lat="59.9176829" lon="17.6422399">
        <ele>9.75061</ele>
        <time>2013-04-21T14:22:42Z</time>
      </trkpt>
      <trkpt lat="59.9177643" lon="17.6422372">
        <ele>9.75061</ele>
        <time>2013-04-21T14:22:43Z</time>
      </trkpt>
      <trkpt lat="59.9178456" lon="17.6422342">
        <ele>9.75061</ele>
        <time>2013-04-21T14:22:44Z</time>
      </trkpt>
      <trkpt lat="59.917927" lon="17.6422321">
        <ele>9.75061</ele>
        <time>2013-04-21T14:22:45Z</time>
      </trkpt>
      <trkpt lat="59.9180084" lon="17.6422293">
        <ele>9.75061</ele>
        <time>2013-04-21T14:22:46Z</time>
      </trkpt>
      <trkpt lat="59.9180884" lon="17.6422267">
        <ele>9.75061</ele>
        <time>2013-04-21T14:22:47Z</time>
      </trkpt>
      <trkpt lat="59.9181678" lon="17.6422229">
        <ele>10.2312</ele>
        <time>2013-04-21T14:22:48Z</time>
      </trkpt>
      <trkpt lat="59.9182455" lon="17.6422197">
        <ele>10.2312</ele>
        <time>2013-04-21T14:22:49Z</time>
      </trkpt>
      <trkpt lat="59.9183222" lon="17.6422146">
        <ele>10.7118</ele>
        <time>2013-04-21T14:22:50Z</time>
      </trkpt>
      <trkpt lat="59.9183968" lon="17.6422079">
        <ele>10.7118</ele>
        <time>2013-04-21T14:22:51Z</time>
      </trkpt>
      <trkpt lat="59.9184725" lon="17.642199">
        <ele>10.7118</ele>
        <time>2013-04-21T14:22:52Z</time>
      </trkpt>
      <trkpt lat="59.918547" lon="17.6421882">
        <ele>10.7118</ele>
        <time>2013-04-21T14:22:53Z</time>
      </trkpt>
      <trkpt lat="59.9186217" lon="17.6421737">
        <ele>11.6732</ele>
        <time>2013-04-21T14:22:54Z</time>
      </trkpt>
      <trkpt lat="59.9186929" lon="17.6421576">
        <ele>11.6732</ele>
        <time>2013-04-21T14:22:55Z</time>
      </trkpt>
      <trkpt lat="59.9187626" lon="17.6421497">
        <ele>12.6344</ele>
        <time>2013-04-21T14:22:56Z</time>
      </trkpt>
      <trkpt lat="59.9188292" lon="17.642148">
        <ele>12.6344</ele>
        <time>2013-04-21T14:22:57Z</time>
      </trkpt>
      <trkpt lat="59.9188956" lon="17.642144">
        <ele>13.1151</ele>
        <time>2013-04-21T14:22:58Z</time>
      </trkpt>
      <trkpt lat="59.9189614" lon="17.6421389">
        <ele>13.5958</ele>
        <time>2013-04-21T14:22:59Z</time>
      </trkpt>
      <trkpt lat="59.9190276" lon="17.6421342">
        <ele>14.0764</ele>
        <time>2013-04-21T14:23:00Z</time>
      </trkpt>
      <trkpt lat="59.9190935" lon="17.642129">
        <ele>14.557</ele>
        <time>2013-04-21T14:23:01Z</time>
      </trkpt>
      <trkpt lat="59.9191602" lon="17.6421216">
        <ele>15.0377</ele>
        <time>2013-04-21T14:23:02Z</time>
      </trkpt>
      <trkpt lat="59.9192274" lon="17.6421149">
        <ele>15.5184</ele>
        <time>2013-04-21T14:23:03Z</time>
      </trkpt>
      <trkpt lat="59.919295" lon="17.6421102">
        <ele>15.999</ele>
        <time>2013-04-21T14:23:04Z</time>
      </trkpt>
      <trkpt lat="59.9193634" lon="17.6421078">
        <ele>16.4797</ele>
        <time>2013-04-21T14:23:05Z</time>
      </trkpt>
      <trkpt lat="59.9194323" lon="17.6421042">
        <ele>17.4412</ele>
        <time>2013-04-21T14:23:06Z</time>
      </trkpt>
      <trkpt lat="59.9195012" lon="17.6421021">
        <ele>17.4412</ele>
        <time>2013-04-21T14:23:07Z</time>
      </trkpt>
      <trkpt lat="59.9195709" lon="17.642099">
        <ele>17.9218</ele>
        <time>2013-04-21T14:23:08Z</time>
      </trkpt>
      <trkpt lat="59.9196388" lon="17.642098">
        <ele>18.4023</ele>
        <time>2013-04-21T14:23:09Z</time>
      </trkpt>
      <trkpt lat="59.9197071" lon="17.6420892">
        <ele>17.9218</ele>
        <time>2013-04-21T14:23:10Z</time>
      </trkpt>
      <trkpt lat="59.9197783" lon="17.6420736">
        <ele>18.4023</ele>
        <time>2013-04-21T14:23:11Z</time>
      </trkpt>
      <trkpt lat="59.9198498" lon="17.6420569">
        <ele>18.4023</ele>
        <time>2013-04-21T14:23:12Z</time>
      </trkpt>
      <trkpt lat="59.9199248" lon="17.6420376">
        <ele>18.8831</ele>
        <time>2013-04-21T14:23:13Z</time>
      </trkpt>
      <trkpt lat="59.9200014" lon="17.6420201">
        <ele>19.3638</ele>
        <time>2013-04-21T14:23:14Z</time>
      </trkpt>
      <trkpt lat="59.9200778" lon="17.64201">
        <ele>19.3638</ele>
        <time>2013-04-21T14:23:15Z</time>
      </trkpt>
      <trkpt lat="59.9201519" lon="17.6420088">
        <ele>19.3638</ele>
        <time>2013-04-21T14:23:16Z</time>
      </trkpt>
      <trkpt lat="59.9202247" lon="17.6420083">
        <ele>19.3638</ele>
        <time>2013-04-21T14:23:17Z</time>
      </trkpt>
      <trkpt lat="59.9202988" lon="17.6420053">
        <ele>18.8831</ele>
        <time>2013-04-21T14:23:18Z</time>
      </trkpt>
      <trkpt lat="59.9203745" lon="17.6420026">
        <ele>19.3638</ele>
        <time>2013-04-21T14:23:19Z</time>
      </trkpt>
      <trkpt lat="59.9204496" lon="17.641999">
        <ele>19.8444</ele>
        <time>2013-04-21T14:23:20Z</time>
      </trkpt>
      <trkpt lat="59.9205256" lon="17.641997">
        <ele>19.8444</ele>
        <time>2013-04-21T14:23:21Z</time>
      </trkpt>
      <trkpt lat="59.9206007" lon="17.6419989">
        <ele>19.8444</ele>
        <time>2013-04-21T14:23:22Z</time>
      </trkpt>
      <trkpt lat="59.9206755" lon="17.6420006">
        <ele>19.3638</ele>
        <time>2013-04-21T14:23:23Z</time>
      </trkpt>
      <trkpt lat="59.9207496" lon="17.6420038">
        <ele>19.3638</ele>
        <time>2013-04-21T14:23:24Z</time>
      </trkpt>
      <trkpt lat="59.9208248" lon="17.6420029">
        <ele>19.8444</ele>
        <time>2013-04-21T14:23:25Z</time>
      </trkpt>
      <trkpt lat="59.9208998" lon="17.6420024">
        <ele>19.8444</ele>
        <time>2013-04-21T14:23:26Z</time>
      </trkpt>
      <trkpt lat="59.9209765" lon="17.6419928">
        <ele>20.325</ele>
        <time>2013-04-21T14:23:27Z</time>
      </trkpt>
      <trkpt lat="59.9210489" lon="17.6419891">
        <ele>19.8444</ele>
        <time>2013-04-21T14:23:28Z</time>
      </trkpt>
      <trkpt lat="59.9211235" lon="17.6419736">
        <ele>19.8444</ele>
        <time>2013-04-21T14:23:29Z</time>
      </trkpt>
      <trkpt lat="59.921196" lon="17.6419612">
        <ele>19.8444</ele>
        <time>2013-04-21T14:23:30Z</time>
      </trkpt>
      <trkpt lat="59.9212723" lon="17.6419362">
        <ele>19.8444</ele>
        <time>2013-04-21T14:23:31Z</time>
      </trkpt>
      <trkpt lat="59.9213458" lon="17.6419212">
        <ele>19.8444</ele>
        <time>2013-04-21T14:23:32Z</time>
      </trkpt>
      <trkpt lat="59.9214223" lon="17.6419005">
        <ele>20.325</ele>
        <time>2013-04-21T14:23:33Z</time>
      </trkpt>
      <trkpt lat="59.9214919" lon="17.6418825">
        <ele>20.8057</ele>
        <time>2013-04-21T14:23:34Z</time>
      </trkpt>
      <trkpt lat="59.9215564" lon="17.6418735">
        <ele>21.767</ele>
        <time>2013-04-21T14:23:35Z</time>
      </trkpt>
      <trkpt lat="59.9216175" lon="17.6418632">
        <ele>22.7283</ele>
        <time>2013-04-21T14:23:36Z</time>
      </trkpt>
      <trkpt lat="59.92168" lon="17.6418472">
        <ele>22.2476</ele>
        <time>2013-04-21T14:23:37Z</time>
      </trkpt>
      <trkpt lat="59.9217497" lon="17.6418356">
        <ele>22.7283</ele>
        <time>2013-04-21T14:23:38Z</time>
      </trkpt>
      <trkpt lat="59.921827" lon="17.6418156">
        <ele>22.7283</ele>
        <time>2013-04-21T14:23:39Z</time>
      </trkpt>
      <trkpt lat="59.9219021" lon="17.6418073">
        <ele>23.209</ele>
        <time>2013-04-21T14:23:40Z</time>
      </trkpt>
      <trkpt lat="59.9219788" lon="17.641804">
        <ele>23.209</ele>
        <time>2013-04-21T14:23:41Z</time>
      </trkpt>
      <trkpt lat="59.922055" lon="17.6417997">
        <ele>23.209</ele>
        <time>2013-04-21T14:23:42Z</time>
      </trkpt>
      <trkpt lat="59.9221311" lon="17.6417962">
        <ele>23.209</ele>
        <time>2013-04-21T14:23:43Z</time>
      </trkpt>
      <trkpt lat="59.9222055" lon="17.6417944">
        <ele>23.6896</ele>
        <time>2013-04-21T14:23:44Z</time>
      </trkpt>
      <trkpt lat="59.9222798" lon="17.6417897">
        <ele>23.6896</ele>
        <time>2013-04-21T14:23:45Z</time>
      </trkpt>
      <trkpt lat="59.9223543" lon="17.6417836">
        <ele>23.6896</ele>
        <time>2013-04-21T14:23:46Z</time>
      </trkpt>
      <trkpt lat="59.9224291" lon="17.6417731">
        <ele>23.209</ele>
        <time>2013-04-21T14:23:47Z</time>
      </trkpt>
      <trkpt lat="59.922504" lon="17.6417613">
        <ele>23.209</ele>
        <time>2013-04-21T14:23:48Z</time>
      </trkpt>
      <trkpt lat="59.9225772" lon="17.6417508">
        <ele>23.6896</ele>
        <time>2013-04-21T14:23:49Z</time>
      </trkpt>
      <trkpt lat="59.9226486" lon="17.6417436">
        <ele>23.6896</ele>
        <time>2013-04-21T14:23:50Z</time>
      </trkpt>
      <trkpt lat="59.922723" lon="17.6417301">
        <ele>23.6896</ele>
        <time>2013-04-21T14:23:51Z</time>
      </trkpt>
      <trkpt lat="59.9227977" lon="17.6417186">
        <ele>23.209</ele>
        <time>2013-04-21T14:23:52Z</time>
      </trkpt>
      <trkpt lat="59.9228729" lon="17.6417105">
        <ele>23.209</ele>
        <time>2013-04-21T14:23:53Z</time>
      </trkpt>
      <trkpt lat="59.9229495" lon="17.6417031">
        <ele>22.7283</ele>
        <time>2013-04-21T14:23:54Z</time>
      </trkpt>
      <trkpt lat="59.9230273" lon="17.641694">
        <ele>22.7283</ele>
        <time>2013-04-21T14:23:55Z</time>
      </trkpt>
      <trkpt lat="59.9231068" lon="17.641684">
        <ele>22.2476</ele>
        <time>2013-04-21T14:23:56Z</time>
      </trkpt>
      <trkpt lat="59.9231869" lon="17.6416747">
        <ele>22.2476</ele>
        <time>2013-04-21T14:23:57Z</time>
      </trkpt>
      <trkpt lat="59.9232676" lon="17.6416653">
        <ele>21.767</ele>
        <time>2013-04-21T14:23:58Z</time>
      </trkpt>
      <trkpt lat="59.9233487" lon="17.6416523">
        <ele>21.767</ele>
        <time>2013-04-21T14:23:59Z</time>
      </trkpt>
      <trkpt lat="59.9234298" lon="17.6416385">
        <ele>21.2864</ele>
        <time>2013-04-21T14:24:00Z</time>
      </trkpt>
      <trkpt lat="59.9235121" lon="17.6416286">
        <ele>21.2864</ele>
        <time>2013-04-21T14:24:01Z</time>
      </trkpt>
      <trkpt lat="59.9235967" lon="17.6416175">
        <ele>20.8057</ele>
        <time>2013-04-21T14:24:02Z</time>
      </trkpt>
      <trkpt lat="59.9236825" lon="17.6416084">
        <ele>20.325</ele>
        <time>2013-04-21T14:24:03Z</time>
      </trkpt>
      <trkpt lat="59.9237701" lon="17.6415981">
        <ele>20.325</ele>
        <time>2013-04-21T14:24:04Z</time>
      </trkpt>
      <trkpt lat="59.9238596" lon="17.6415856">
        <ele>19.8444</ele>
        <time>2013-04-21T14:24:05Z</time>
      </trkpt>
      <trkpt lat="59.9239489" lon="17.6415735">
        <ele>19.8444</ele>
        <time>2013-04-21T14:24:06Z</time>
      </trkpt>
      <trkpt lat="59.9240385" lon="17.6415631">
        <ele>19.8444</ele>
        <time>2013-04-21T14:24:07Z</time>
      </trkpt>
      <trkpt lat="59.9241278" lon="17.6415562">
        <ele>19.8444</ele>
        <time>2013-04-21T14:24:08Z</time>
      </trkpt>
      <trkpt lat="59.9242167" lon="17.6415493">
        <ele>19.3638</ele>
        <time>2013-04-21T14:24:09Z</time>
      </trkpt>
      <trkpt lat="59.924306" lon="17.6415395">
        <ele>19.3638</ele>
        <time>2013-04-21T14:24:10Z</time>
      </trkpt>
      <trkpt lat="59.9243938" lon="17.6415326">
        <ele>19.3638</ele>
        <time>2013-04-21T14:24:11Z</time>
      </trkpt>
      <trkpt lat="59.9244809" lon="17.6415222">
        <ele>19.3638</ele>
        <time>2013-04-21T14:24:12Z</time>
      </trkpt>
      <trkpt lat="59.9245663" lon="17.6415085">
        <ele>18.8831</ele>
        <time>2013-04-21T14:24:13Z</time>
      </trkpt>
      <trkpt lat="59.9246508" lon="17.6414935">
        <ele>18.8831</ele>
        <time>2013-04-21T14:24:14Z</time>
      </trkpt>
      <trkpt lat="59.9247349" lon="17.6414795">
        <ele>18.8831</ele>
        <time>2013-04-21T14:24:15Z</time>
      </trkpt>
      <trkpt lat="59.9248175" lon="17.6414685">
        <ele>18.8831</ele>
        <time>2013-04-21T14:24:16Z</time>
      </trkpt>
      <trkpt lat="59.9249026" lon="17.6414556">
        <ele>18.8831</ele>
        <time>2013-04-21T14:24:17Z</time>
      </trkpt>
      <trkpt lat="59.9249893" lon="17.6414493">
        <ele>18.8831</ele>
        <time>2013-04-21T14:24:18Z</time>
      </trkpt>
      <trkpt lat="59.9250761" lon="17.6414458">
        <ele>18.8831</ele>
        <time>2013-04-21T14:24:19Z</time>
      </trkpt>
      <trkpt lat="59.9251636" lon="17.6414432">
        <ele>18.4023</ele>
        <time>2013-04-21T14:24:20Z</time>
      </trkpt>
      <trkpt lat="59.9252516" lon="17.6414416">
        <ele>18.4023</ele>
        <time>2013-04-21T14:24:21Z</time>
      </trkpt>
      <trkpt lat="59.9253395" lon="17.6414385">
        <ele>18.4023</ele>
        <time>2013-04-21T14:24:22Z</time>
      </trkpt>
      <trkpt lat="59.9254282" lon="17.6414316">
        <ele>18.4023</ele>
        <time>2013-04-21T14:24:23Z</time>
      </trkpt>
      <trkpt lat="59.9255178" lon="17.6414225">
        <ele>17.9218</ele>
        <time>2013-04-21T14:24:24Z</time>
      </trkpt>
      <trkpt lat="59.9256075" lon="17.6414136">
        <ele>17.9218</ele>
        <time>2013-04-21T14:24:25Z</time>
      </trkpt>
      <trkpt lat="59.9256966" lon="17.6414062">
        <ele>17.9218</ele>
        <time>2013-04-21T14:24:26Z</time>
      </trkpt>
      <trkpt lat="59.9257867" lon="17.6413941">
        <ele>17.9218</ele>
        <time>2013-04-21T14:24:27Z</time>
      </trkpt>
      <trkpt lat="59.9258762" lon="17.6413829">
        <ele>17.9218</ele>
        <time>2013-04-21T14:24:28Z</time>
      </trkpt>
      <trkpt lat="59.9259659" lon="17.6413718">
        <ele>17.9218</ele>
        <time>2013-04-21T14:24:29Z</time>
      </trkpt>
      <trkpt lat="59.9260562" lon="17.6413597">
        <ele>17.4412</ele>
        <time>2013-04-21T14:24:30Z</time>
      </trkpt>
      <trkpt lat="59.9261473" lon="17.6413483">
        <ele>17.4412</ele>
        <time>2013-04-21T14:24:31Z</time>
      </trkpt>
      <trkpt lat="59.9262388" lon="17.641338">
        <ele>17.4412</ele>
        <time>2013-04-21T14:24:32Z</time>
      </trkpt>
      <trkpt lat="59.9263305" lon="17.6413292">
        <ele>17.4412</ele>
        <time>2013-04-21T14:24:33Z</time>
      </trkpt>
      <trkpt lat="59.9264223" lon="17.6413195">
        <ele>17.4412</ele>
        <time>2013-04-21T14:24:34Z</time>
      </trkpt>
      <trkpt lat="59.926514" lon="17.6413072">
        <ele>17.4412</ele>
        <time>2013-04-21T14:24:35Z</time>
      </trkpt>
      <trkpt lat="59.9266057" lon="17.6412933">
        <ele>17.4412</ele>
        <time>2013-04-21T14:24:36Z</time>
      </trkpt>
      <trkpt lat="59.9266971" lon="17.641279">
        <ele>16.9604</ele>
        <time>2013-04-21T14:24:37Z</time>
      </trkpt>
      <trkpt lat="59.9267863" lon="17.6412722">
        <ele>17.4412</ele>
        <time>2013-04-21T14:24:38Z</time>
      </trkpt>
      <trkpt lat="59.9268761" lon="17.6412619">
        <ele>17.4412</ele>
        <time>2013-04-21T14:24:39Z</time>
      </trkpt>
      <trkpt lat="59.9269635" lon="17.6412541">
        <ele>17.4412</ele>
        <time>2013-04-21T14:24:40Z</time>
      </trkpt>
      <trkpt lat="59.9270489" lon="17.6412464">
        <ele>17.4412</ele>
        <time>2013-04-21T14:24:41Z</time>
      </trkpt>
      <trkpt lat="59.9271336" lon="17.641236">
        <ele>17.4412</ele>
        <time>2013-04-21T14:24:42Z</time>
      </trkpt>
      <trkpt lat="59.9272169" lon="17.6412282">
        <ele>17.4412</ele>
        <time>2013-04-21T14:24:43Z</time>
      </trkpt>
      <trkpt lat="59.9272991" lon="17.6412216">
        <ele>17.4412</ele>
        <time>2013-04-21T14:24:44Z</time>
      </trkpt>
      <trkpt lat="59.9273807" lon="17.6412142">
        <ele>17.4412</ele>
        <time>2013-04-21T14:24:45Z</time>
      </trkpt>
      <trkpt lat="59.9274622" lon="17.6412075">
        <ele>17.4412</ele>
        <time>2013-04-21T14:24:46Z</time>
      </trkpt>
      <trkpt lat="59.9275426" lon="17.6412008">
        <ele>17.4412</ele>
        <time>2013-04-21T14:24:47Z</time>
      </trkpt>
      <trkpt lat="59.927622" lon="17.641195">
        <ele>17.4412</ele>
        <time>2013-04-21T14:24:48Z</time>
      </trkpt>
      <trkpt lat="59.9277023" lon="17.6411879">
        <ele>17.4412</ele>
        <time>2013-04-21T14:24:49Z</time>
      </trkpt>
      <trkpt lat="59.927783" lon="17.6411805">
        <ele>17.4412</ele>
        <time>2013-04-21T14:24:50Z</time>
      </trkpt>
      <trkpt lat="59.9278638" lon="17.6411729">
        <ele>17.4412</ele>
        <time>2013-04-21T14:24:51Z</time>
      </trkpt>
      <trkpt lat="59.9279445" lon="17.6411651">
        <ele>17.4412</ele>
        <time>2013-04-21T14:24:52Z</time>
      </trkpt>
      <trkpt lat="59.928025" lon="17.6411583">
        <ele>17.4412</ele>
        <time>2013-04-21T14:24:53Z</time>
      </trkpt>
      <trkpt lat="59.9281063" lon="17.6411509">
        <ele>17.4412</ele>
        <time>2013-04-21T14:24:54Z</time>
      </trkpt>
      <trkpt lat="59.9281877" lon="17.6411427">
        <ele>17.4412</ele>
        <time>2013-04-21T14:24:55Z</time>
      </trkpt>
      <trkpt lat="59.9282696" lon="17.6411324">
        <ele>17.4412</ele>
        <time>2013-04-21T14:24:56Z</time>
      </trkpt>
      <trkpt lat="59.9283515" lon="17.6411223">
        <ele>17.4412</ele>
        <time>2013-04-21T14:24:57Z</time>
      </trkpt>
      <trkpt lat="59.9284332" lon="17.6411121">
        <ele>17.4412</ele>
        <time>2013-04-21T14:24:58Z</time>
      </trkpt>
      <trkpt lat="59.9285156" lon="17.6411002">
        <ele>17.4412</ele>
        <time>2013-04-21T14:24:59Z</time>
      </trkpt>
      <trkpt lat="59.9285949" lon="17.6410918">
        <ele>17.4412</ele>
        <time>2013-04-21T14:25:00Z</time>
      </trkpt>
      <trkpt lat="59.9286739" lon="17.6410825">
        <ele>17.4412</ele>
        <time>2013-04-21T14:25:01Z</time>
      </trkpt>
      <trkpt lat="59.9287527" lon="17.6410723">
        <ele>16.9604</ele>
        <time>2013-04-21T14:25:02Z</time>
      </trkpt>
      <trkpt lat="59.9288352" lon="17.6410531">
        <ele>16.9604</ele>
        <time>2013-04-21T14:25:03Z</time>
      </trkpt>
      <trkpt lat="59.9289197" lon="17.6410337">
        <ele>16.9604</ele>
        <time>2013-04-21T14:25:04Z</time>
      </trkpt>
      <trkpt lat="59.9290046" lon="17.6410196">
        <ele>16.9604</ele>
        <time>2013-04-21T14:25:05Z</time>
      </trkpt>
      <trkpt lat="59.9290895" lon="17.6410096">
        <ele>16.9604</ele>
        <time>2013-04-21T14:25:06Z</time>
      </trkpt>
      <trkpt lat="59.9291744" lon="17.6410029">
        <ele>17.4412</ele>
        <time>2013-04-21T14:25:07Z</time>
      </trkpt>
      <trkpt lat="59.9292584" lon="17.6409992">
        <ele>17.4412</ele>
        <time>2013-04-21T14:25:08Z</time>
      </trkpt>
      <trkpt lat="59.9293418" lon="17.6409961">
        <ele>17.9218</ele>
        <time>2013-04-21T14:25:09Z</time>
      </trkpt>
      <trkpt lat="59.9294243" lon="17.6409903">
        <ele>17.9218</ele>
        <time>2013-04-21T14:25:10Z</time>
      </trkpt>
      <trkpt lat="59.9295065" lon="17.6409833">
        <ele>18.4023</ele>
        <time>2013-04-21T14:25:11Z</time>
      </trkpt>
      <trkpt lat="59.9295872" lon="17.6409736">
        <ele>18.4023</ele>
        <time>2013-04-21T14:25:12Z</time>
      </trkpt>
      <trkpt lat="59.9296664" lon="17.6409619">
        <ele>18.8831</ele>
        <time>2013-04-21T14:25:13Z</time>
      </trkpt>
      <trkpt lat="59.9297438" lon="17.640951">
        <ele>18.8831</ele>
        <time>2013-04-21T14:25:14Z</time>
      </trkpt>
      <trkpt lat="59.9298229" lon="17.6409379">
        <ele>18.8831</ele>
        <time>2013-04-21T14:25:15Z</time>
      </trkpt>
      <trkpt lat="59.9299028" lon="17.6409319">
        <ele>18.8831</ele>
        <time>2013-04-21T14:25:16Z</time>
      </trkpt>
      <trkpt lat="59.929984" lon="17.6409309">
        <ele>18.8831</ele>
        <time>2013-04-21T14:25:17Z</time>
      </trkpt>
      <trkpt lat="59.9300644" lon="17.6409309">
        <ele>18.8831</ele>
        <time>2013-04-21T14:25:18Z</time>
      </trkpt>
      <trkpt lat="59.9301452" lon="17.6409294">
        <ele>18.8831</ele>
        <time>2013-04-21T14:25:19Z</time>
      </trkpt>
      <trkpt lat="59.9302248" lon="17.6409313">
        <ele>18.8831</ele>
        <time>2013-04-21T14:25:20Z</time>
      </trkpt>
      <trkpt lat="59.9303022" lon="17.6409372">
        <ele>18.8831</ele>
        <time>2013-04-21T14:25:21Z</time>
      </trkpt>
      <trkpt lat="59.9303789" lon="17.640942">
        <ele>18.8831</ele>
        <time>2013-04-21T14:25:22Z</time>
      </trkpt>
      <trkpt lat="59.9304523" lon="17.6409494">
        <ele>18.8831</ele>
        <time>2013-04-21T14:25:23Z</time>
      </trkpt>
      <trkpt lat="59.9305239" lon="17.6409452">
        <ele>19.8444</ele>
        <time>2013-04-21T14:25:24Z</time>
      </trkpt>
      <trkpt lat="59.9305901" lon="17.6409458">
        <ele>19.8444</ele>
        <time>2013-04-21T14:25:25Z</time>
      </trkpt>
      <trkpt lat="59.9306601" lon="17.6409319">
        <ele>20.325</ele>
        <time>2013-04-21T14:25:26Z</time>
      </trkpt>
      <trkpt lat="59.9307267" lon="17.6409309">
        <ele>20.325</ele>
        <time>2013-04-21T14:25:27Z</time>
      </trkpt>
      <trkpt lat="59.930798" lon="17.6409288">
        <ele>20.325</ele>
        <time>2013-04-21T14:25:28Z</time>
      </trkpt>
      <trkpt lat="59.93087" lon="17.6409411">
        <ele>19.8444</ele>
        <time>2013-04-21T14:25:29Z</time>
      </trkpt>
      <trkpt lat="59.9309414" lon="17.6409707">
        <ele>20.325</ele>
        <time>2013-04-21T14:25:30Z</time>
      </trkpt>
      <trkpt lat="59.9310119" lon="17.6410127">
        <ele>20.325</ele>
        <time>2013-04-21T14:25:31Z</time>
      </trkpt>
      <trkpt lat="59.9310813" lon="17.64106">
        <ele>20.8057</ele>
        <time>2013-04-21T14:25:32Z</time>
      </trkpt>
      <trkpt lat="59.9311487" lon="17.6411042">
        <ele>21.2864</ele>
        <time>2013-04-21T14:25:33Z</time>
      </trkpt>
      <trkpt lat="59.9312126" lon="17.6411432">
        <ele>21.2864</ele>
        <time>2013-04-21T14:25:34Z</time>
      </trkpt>
      <trkpt lat="59.9312719" lon="17.641185">
        <ele>21.2864</ele>
        <time>2013-04-21T14:25:35Z</time>
      </trkpt>
      <trkpt lat="59.9313256" lon="17.6412299">
        <ele>21.2864</ele>
        <time>2013-04-21T14:25:36Z</time>
      </trkpt>
      <trkpt lat="59.9313771" lon="17.6412722">
        <ele>21.2864</ele>
        <time>2013-04-21T14:25:37Z</time>
      </trkpt>
      <trkpt lat="59.9314313" lon="17.641312">
        <ele>21.2864</ele>
        <time>2013-04-21T14:25:38Z</time>
      </trkpt>
      <trkpt lat="59.9314874" lon="17.6413459">
        <ele>20.8057</ele>
        <time>2013-04-21T14:25:39Z</time>
      </trkpt>
      <trkpt lat="59.9315445" lon="17.6413889">
        <ele>21.2864</ele>
        <time>2013-04-21T14:25:40Z</time>
      </trkpt>
      <trkpt lat="59.9316024" lon="17.6414302">
        <ele>21.2864</ele>
        <time>2013-04-21T14:25:41Z</time>
      </trkpt>
      <trkpt lat="59.931662" lon="17.6414723">
        <ele>21.2864</ele>
        <time>2013-04-21T14:25:42Z</time>
      </trkpt>
      <trkpt lat="59.9317227" lon="17.6415179">
        <ele>21.767</ele>
        <time>2013-04-21T14:25:43Z</time>
      </trkpt>
      <trkpt lat="59.9317835" lon="17.6415591">
        <ele>21.767</ele>
        <time>2013-04-21T14:25:44Z</time>
      </trkpt>
      <trkpt lat="59.9318443" lon="17.6415938">
        <ele>21.767</ele>
        <time>2013-04-21T14:25:45Z</time>
      </trkpt>
      <trkpt lat="59.9319044" lon="17.641626">
        <ele>22.2476</ele>
        <time>2013-04-21T14:25:46Z</time>
      </trkpt>
      <trkpt lat="59.9319604" lon="17.6416644">
        <ele>22.2476</ele>
        <time>2013-04-21T14:25:47Z</time>
      </trkpt>
      <trkpt lat="59.9320124" lon="17.6417097">
        <ele>22.7283</ele>
        <time>2013-04-21T14:25:48Z</time>
      </trkpt>
      <trkpt lat="59.9320645" lon="17.6417575">
        <ele>22.7283</ele>
        <time>2013-04-21T14:25:49Z</time>
      </trkpt>
      <trkpt lat="59.9321203" lon="17.6418082">
        <ele>22.2476</ele>
        <time>2013-04-21T14:25:50Z</time>
      </trkpt>
      <trkpt lat="59.9321774" lon="17.6418622">
        <ele>22.2476</ele>
        <time>2013-04-21T14:25:51Z</time>
      </trkpt>
      <trkpt lat="59.9322364" lon="17.641915">
        <ele>21.767</ele>
        <time>2013-04-21T14:25:52Z</time>
      </trkpt>
      <trkpt lat="59.9322977" lon="17.6419651">
        <ele>21.767</ele>
        <time>2013-04-21T14:25:53Z</time>
      </trkpt>
      <trkpt lat="59.9323578" lon="17.6420183">
        <ele>21.2864</ele>
        <time>2013-04-21T14:25:54Z</time>
      </trkpt>
      <trkpt lat="59.9324162" lon="17.6420777">
        <ele>21.2864</ele>
        <time>2013-04-21T14:25:55Z</time>
      </trkpt>
      <trkpt lat="59.9324747" lon="17.6421359">
        <ele>21.2864</ele>
        <time>2013-04-21T14:25:56Z</time>
      </trkpt>
      <trkpt lat="59.9325338" lon="17.6421925">
        <ele>21.2864</ele>
        <time>2013-04-21T14:25:57Z</time>
      </trkpt>
      <trkpt lat="59.9325916" lon="17.6422511">
        <ele>21.2864</ele>
        <time>2013-04-21T14:25:58Z</time>
      </trkpt>
      <trkpt lat="59.9326467" lon="17.6423151">
        <ele>21.2864</ele>
        <time>2013-04-21T14:25:59Z</time>
      </trkpt>
      <trkpt lat="59.9326963" lon="17.6423865">
        <ele>20.8057</ele>
        <time>2013-04-21T14:26:00Z</time>
      </trkpt>
      <trkpt lat="59.9327378" lon="17.6424673">
        <ele>20.325</ele>
        <time>2013-04-21T14:26:01Z</time>
      </trkpt>
      <trkpt lat="59.932777" lon="17.6425471">
        <ele>19.3638</ele>
        <time>2013-04-21T14:26:02Z</time>
      </trkpt>
      <trkpt lat="59.9328209" lon="17.6426263">
        <ele>18.8831</ele>
        <time>2013-04-21T14:26:03Z</time>
      </trkpt>
      <trkpt lat="59.9328653" lon="17.6426995">
        <ele>18.4023</ele>
        <time>2013-04-21T14:26:04Z</time>
      </trkpt>
      <trkpt lat="59.9329135" lon="17.6427677">
        <ele>18.4023</ele>
        <time>2013-04-21T14:26:05Z</time>
      </trkpt>
      <trkpt lat="59.9329627" lon="17.6428287">
        <ele>18.4023</ele>
        <time>2013-04-21T14:26:06Z</time>
      </trkpt>
      <trkpt lat="59.9330161" lon="17.64289">
        <ele>18.8831</ele>
        <time>2013-04-21T14:26:07Z</time>
      </trkpt>
      <trkpt lat="59.933063" lon="17.6429542">
        <ele>18.8831</ele>
        <time>2013-04-21T14:26:08Z</time>
      </trkpt>
      <trkpt lat="59.9331037" lon="17.6430157">
        <ele>19.3638</ele>
        <time>2013-04-21T14:26:09Z</time>
      </trkpt>
      <trkpt lat="59.9331433" lon="17.6430754">
        <ele>18.8831</ele>
        <time>2013-04-21T14:26:10Z</time>
      </trkpt>
      <trkpt lat="59.9331803" lon="17.6431385">
        <ele>18.8831</ele>
        <time>2013-04-21T14:26:11Z</time>
      </trkpt>
      <trkpt lat="59.9332242" lon="17.6432052">
        <ele>21.2864</ele>
        <time>2013-04-21T14:26:12Z</time>
      </trkpt>
      <trkpt lat="59.9332634" lon="17.6432658">
        <ele>22.2476</ele>
        <time>2013-04-21T14:26:13Z</time>
      </trkpt>
      <trkpt lat="59.9332959" lon="17.6433223">
        <ele>22.2476</ele>
        <time>2013-04-21T14:26:14Z</time>
      </trkpt>
      <trkpt lat="59.9333268" lon="17.64338">
        <ele>21.767</ele>
        <time>2013-04-21T14:26:15Z</time>
      </trkpt>
      <trkpt lat="59.9333647" lon="17.6434357">
        <ele>22.2476</ele>
        <time>2013-04-21T14:26:16Z</time>
      </trkpt>
      <trkpt lat="59.9334047" lon="17.6434898">
        <ele>22.7283</ele>
        <time>2013-04-21T14:26:17Z</time>
      </trkpt>
      <trkpt lat="59.9334443" lon="17.6435411">
        <ele>22.7283</ele>
        <time>2013-04-21T14:26:18Z</time>
      </trkpt>
      <trkpt lat="59.9334864" lon="17.6435878">
        <ele>22.7283</ele>
        <time>2013-04-21T14:26:19Z</time>
      </trkpt>
      <trkpt lat="59.9335272" lon="17.6436435">
        <ele>21.767</ele>
        <time>2013-04-21T14:26:20Z</time>
      </trkpt>
      <trkpt lat="59.9335709" lon="17.643699">
        <ele>21.2864</ele>
        <time>2013-04-21T14:26:21Z</time>
      </trkpt>
      <trkpt lat="59.9336159" lon="17.6437492">
        <ele>20.325</ele>
        <time>2013-04-21T14:26:22Z</time>
      </trkpt>
      <trkpt lat="59.9336642" lon="17.643798">
        <ele>19.8444</ele>
        <time>2013-04-21T14:26:23Z</time>
      </trkpt>
      <trkpt lat="59.9337142" lon="17.6438431">
        <ele>19.8444</ele>
        <time>2013-04-21T14:26:24Z</time>
      </trkpt>
      <trkpt lat="59.9337639" lon="17.643881">
        <ele>19.3638</ele>
        <time>2013-04-21T14:26:25Z</time>
      </trkpt>
      <trkpt lat="59.9338225" lon="17.6439239">
        <ele>20.8057</ele>
        <time>2013-04-21T14:26:26Z</time>
      </trkpt>
      <trkpt lat="59.9338702" lon="17.6439703">
        <ele>20.325</ele>
        <time>2013-04-21T14:26:27Z</time>
      </trkpt>
      <trkpt lat="59.9339168" lon="17.644023">
        <ele>19.8444</ele>
        <time>2013-04-21T14:26:28Z</time>
      </trkpt>
      <trkpt lat="59.9339597" lon="17.644081">
        <ele>18.8831</ele>
        <time>2013-04-21T14:26:29Z</time>
      </trkpt>
      <trkpt lat="59.9340065" lon="17.6441375">
        <ele>18.8831</ele>
        <time>2013-04-21T14:26:30Z</time>
      </trkpt>
      <trkpt lat="59.9340531" lon="17.644192">
        <ele>18.8831</ele>
        <time>2013-04-21T14:26:31Z</time>
      </trkpt>
      <trkpt lat="59.9340988" lon="17.6442457">
        <ele>18.4023</ele>
        <time>2013-04-21T14:26:32Z</time>
      </trkpt>
      <trkpt lat="59.9341412" lon="17.6443005">
        <ele>17.9218</ele>
        <time>2013-04-21T14:26:33Z</time>
      </trkpt>
      <trkpt lat="59.9341848" lon="17.6443566">
        <ele>17.9218</ele>
        <time>2013-04-21T14:26:34Z</time>
      </trkpt>
      <trkpt lat="59.9342308" lon="17.6444138">
        <ele>17.9218</ele>
        <time>2013-04-21T14:26:35Z</time>
      </trkpt>
      <trkpt lat="59.934273" lon="17.6444746">
        <ele>17.9218</ele>
        <time>2013-04-21T14:26:36Z</time>
      </trkpt>
      <trkpt lat="59.9343111" lon="17.6445393">
        <ele>17.4412</ele>
        <time>2013-04-21T14:26:37Z</time>
      </trkpt>
      <trkpt lat="59.9343461" lon="17.6445987">
        <ele>16.9604</ele>
        <time>2013-04-21T14:26:38Z</time>
      </trkpt>
      <trkpt lat="59.934378" lon="17.6446533">
        <ele>16.4797</ele>
        <time>2013-04-21T14:26:39Z</time>
      </trkpt>
      <trkpt lat="59.9344067" lon="17.6447056">
        <ele>16.4797</ele>
        <time>2013-04-21T14:26:40Z</time>
      </trkpt>
      <trkpt lat="59.9344379" lon="17.6447558">
        <ele>15.999</ele>
        <time>2013-04-21T14:26:41Z</time>
      </trkpt>
      <trkpt lat="59.9344712" lon="17.6448035">
        <ele>15.999</ele>
        <time>2013-04-21T14:26:42Z</time>
      </trkpt>
      <trkpt lat="59.9345054" lon="17.6448494">
        <ele>15.999</ele>
        <time>2013-04-21T14:26:43Z</time>
      </trkpt>
      <trkpt lat="59.9345401" lon="17.6448947">
        <ele>15.999</ele>
        <time>2013-04-21T14:26:44Z</time>
      </trkpt>
      <trkpt lat="59.9345773" lon="17.6449383">
        <ele>15.5184</ele>
        <time>2013-04-21T14:26:45Z</time>
      </trkpt>
      <trkpt lat="59.9346316" lon="17.6449844">
        <ele>18.4023</ele>
        <time>2013-04-21T14:26:46Z</time>
      </trkpt>
      <trkpt lat="59.9346721" lon="17.6450313">
        <ele>18.8831</ele>
        <time>2013-04-21T14:26:47Z</time>
      </trkpt>
      <trkpt lat="59.9347187" lon="17.6450858">
        <ele>20.8057</ele>
        <time>2013-04-21T14:26:48Z</time>
      </trkpt>
      <trkpt lat="59.934775" lon="17.6451371">
        <ele>23.209</ele>
        <time>2013-04-21T14:26:49Z</time>
      </trkpt>
      <trkpt lat="59.9348172" lon="17.6451888">
        <ele>24.1703</ele>
        <time>2013-04-21T14:26:50Z</time>
      </trkpt>
      <trkpt lat="59.9348608" lon="17.6452421">
        <ele>25.1317</ele>
        <time>2013-04-21T14:26:51Z</time>
      </trkpt>
      <trkpt lat="59.934905" lon="17.6452905">
        <ele>26.0929</ele>
        <time>2013-04-21T14:26:52Z</time>
      </trkpt>
      <trkpt lat="59.9349473" lon="17.6453427">
        <ele>26.5736</ele>
        <time>2013-04-21T14:26:53Z</time>
      </trkpt>
      <trkpt lat="59.9349804" lon="17.6454096">
        <ele>26.5736</ele>
        <time>2013-04-21T14:26:54Z</time>
      </trkpt>
      <trkpt lat="59.9350104" lon="17.6454837">
        <ele>26.5736</ele>
        <time>2013-04-21T14:26:55Z</time>
      </trkpt>
      <trkpt lat="59.9350404" lon="17.645565">
        <ele>27.0543</ele>
        <time>2013-04-21T14:26:56Z</time>
      </trkpt>
      <trkpt lat="59.93507" lon="17.6456525">
        <ele>27.0543</ele>
        <time>2013-04-21T14:26:57Z</time>
      </trkpt>
      <trkpt lat="59.9351057" lon="17.6457375">
        <ele>27.0543</ele>
        <time>2013-04-21T14:26:58Z</time>
      </trkpt>
      <trkpt lat="59.9351469" lon="17.6458132">
        <ele>26.5736</ele>
        <time>2013-04-21T14:26:59Z</time>
      </trkpt>
      <trkpt lat="59.9351907" lon="17.6458787">
        <ele>26.0929</ele>
        <time>2013-04-21T14:27:00Z</time>
      </trkpt>
      <trkpt lat="59.9352418" lon="17.6459395">
        <ele>26.5736</ele>
        <time>2013-04-21T14:27:01Z</time>
      </trkpt>
      <trkpt lat="59.9352909" lon="17.6459979">
        <ele>26.0929</ele>
        <time>2013-04-21T14:27:02Z</time>
      </trkpt>
      <trkpt lat="59.9353404" lon="17.6460575">
        <ele>25.6123</ele>
        <time>2013-04-21T14:27:03Z</time>
      </trkpt>
      <trkpt lat="59.935389" lon="17.6461182">
        <ele>24.651</ele>
        <time>2013-04-21T14:27:04Z</time>
      </trkpt>
      <trkpt lat="59.9354383" lon="17.6461807">
        <ele>24.1703</ele>
        <time>2013-04-21T14:27:05Z</time>
      </trkpt>
      <trkpt lat="59.9354878" lon="17.6462446">
        <ele>23.6896</ele>
        <time>2013-04-21T14:27:06Z</time>
      </trkpt>
      <trkpt lat="59.9355363" lon="17.646309">
        <ele>22.7283</ele>
        <time>2013-04-21T14:27:07Z</time>
      </trkpt>
      <trkpt lat="59.9355808" lon="17.6463731">
        <ele>21.2864</ele>
        <time>2013-04-21T14:27:08Z</time>
      </trkpt>
      <trkpt lat="59.9356273" lon="17.6464381">
        <ele>20.325</ele>
        <time>2013-04-21T14:27:09Z</time>
      </trkpt>
      <trkpt lat="59.9356759" lon="17.6465014">
        <ele>19.3638</ele>
        <time>2013-04-21T14:27:10Z</time>
      </trkpt>
      <trkpt lat="59.9357232" lon="17.6465653">
        <ele>17.9218</ele>
        <time>2013-04-21T14:27:11Z</time>
      </trkpt>
      <trkpt lat="59.9357734" lon="17.6466304">
        <ele>17.4412</ele>
        <time>2013-04-21T14:27:12Z</time>
      </trkpt>
      <trkpt lat="59.9358215" lon="17.6466956">
        <ele>15.999</ele>
        <time>2013-04-21T14:27:13Z</time>
      </trkpt>
      <trkpt lat="59.9358724" lon="17.6467588">
        <ele>15.5184</ele>
        <time>2013-04-21T14:27:14Z</time>
      </trkpt>
      <trkpt lat="59.9359236" lon="17.6468232">
        <ele>15.0377</ele>
        <time>2013-04-21T14:27:15Z</time>
      </trkpt>
      <trkpt lat="59.9359753" lon="17.6468925">
        <ele>14.557</ele>
        <time>2013-04-21T14:27:16Z</time>
      </trkpt>
      <trkpt lat="59.9360292" lon="17.6469636">
        <ele>15.0377</ele>
        <time>2013-04-21T14:27:17Z</time>
      </trkpt>
      <trkpt lat="59.9360847" lon="17.6470354">
        <ele>15.0377</ele>
        <time>2013-04-21T14:27:18Z</time>
      </trkpt>
      <trkpt lat="59.9361396" lon="17.6471072">
        <ele>15.0377</ele>
        <time>2013-04-21T14:27:19Z</time>
      </trkpt>
      <trkpt lat="59.936194" lon="17.6471796">
        <ele>15.0377</ele>
        <time>2013-04-21T14:27:20Z</time>
      </trkpt>
      <trkpt lat="59.9362484" lon="17.6472532">
        <ele>15.0377</ele>
        <time>2013-04-21T14:27:21Z</time>
      </trkpt>
      <trkpt lat="59.9363039" lon="17.6473268">
        <ele>14.557</ele>
        <time>2013-04-21T14:27:22Z</time>
      </trkpt>
      <trkpt lat="59.9363593" lon="17.6473993">
        <ele>14.557</ele>
        <time>2013-04-21T14:27:23Z</time>
      </trkpt>
      <trkpt lat="59.9364187" lon="17.6474718">
        <ele>14.557</ele>
        <time>2013-04-21T14:27:24Z</time>
      </trkpt>
      <trkpt lat="59.9364783" lon="17.6475444">
        <ele>14.557</ele>
        <time>2013-04-21T14:27:25Z</time>
      </trkpt>
      <trkpt lat="59.9365383" lon="17.6476194">
        <ele>14.557</ele>
        <time>2013-04-21T14:27:26Z</time>
      </trkpt>
      <trkpt lat="59.9365984" lon="17.6476964">
        <ele>14.557</ele>
        <time>2013-04-21T14:27:27Z</time>
      </trkpt>
      <trkpt lat="59.9366557" lon="17.6477738">
        <ele>14.0764</ele>
        <time>2013-04-21T14:27:28Z</time>
      </trkpt>
      <trkpt lat="59.9367145" lon="17.647852">
        <ele>14.0764</ele>
        <time>2013-04-21T14:27:29Z</time>
      </trkpt>
      <trkpt lat="59.9367727" lon="17.6479287">
        <ele>14.0764</ele>
        <time>2013-04-21T14:27:30Z</time>
      </trkpt>
      <trkpt lat="59.9368318" lon="17.648002">
        <ele>14.0764</ele>
        <time>2013-04-21T14:27:31Z</time>
      </trkpt>
      <trkpt lat="59.9368906" lon="17.6480768">
        <ele>14.0764</ele>
        <time>2013-04-21T14:27:32Z</time>
      </trkpt>
      <trkpt lat="59.9369434" lon="17.6481458">
        <ele>12.6344</ele>
        <time>2013-04-21T14:27:33Z</time>
      </trkpt>
      <trkpt lat="59.9370001" lon="17.6482186">
        <ele>12.1538</ele>
        <time>2013-04-21T14:27:34Z</time>
      </trkpt>
      <trkpt lat="59.937056" lon="17.6482939">
        <ele>11.6732</ele>
        <time>2013-04-21T14:27:35Z</time>
      </trkpt>
      <trkpt lat="59.9371162" lon="17.64837">
        <ele>11.6732</ele>
        <time>2013-04-21T14:27:36Z</time>
      </trkpt>
      <trkpt lat="59.9371761" lon="17.6484493">
        <ele>11.1925</ele>
        <time>2013-04-21T14:27:37Z</time>
      </trkpt>
      <trkpt lat="59.9372359" lon="17.6485326">
        <ele>11.1925</ele>
        <time>2013-04-21T14:27:38Z</time>
      </trkpt>
      <trkpt lat="59.9372949" lon="17.6486206">
        <ele>10.7118</ele>
        <time>2013-04-21T14:27:39Z</time>
      </trkpt>
      <trkpt lat="59.9373544" lon="17.6487115">
        <ele>10.7118</ele>
        <time>2013-04-21T14:27:40Z</time>
      </trkpt>
      <trkpt lat="59.937415" lon="17.6488031">
        <ele>10.2312</ele>
        <time>2013-04-21T14:27:41Z</time>
      </trkpt>
      <trkpt lat="59.9374756" lon="17.6488979">
        <ele>10.2312</ele>
        <time>2013-04-21T14:27:42Z</time>
      </trkpt>
      <trkpt lat="59.9375355" lon="17.6489978">
        <ele>9.75061</ele>
        <time>2013-04-21T14:27:43Z</time>
      </trkpt>
      <trkpt lat="59.9375937" lon="17.6491045">
        <ele>9.75061</ele>
        <time>2013-04-21T14:27:44Z</time>
      </trkpt>
      <trkpt lat="59.9376487" lon="17.6492211">
        <ele>9.2699</ele>
        <time>2013-04-21T14:27:45Z</time>
      </trkpt>
      <trkpt lat="59.9377008" lon="17.6493536">
        <ele>9.2699</ele>
        <time>2013-04-21T14:27:46Z</time>
      </trkpt>
      <trkpt lat="59.9377496" lon="17.6494931">
        <ele>9.75061</ele>
        <time>2013-04-21T14:27:47Z</time>
      </trkpt>
      <trkpt lat="59.9378004" lon="17.6496306">
        <ele>9.75061</ele>
        <time>2013-04-21T14:27:48Z</time>
      </trkpt>
      <trkpt lat="59.9378544" lon="17.6497625">
        <ele>10.7118</ele>
        <time>2013-04-21T14:27:49Z</time>
      </trkpt>
      <trkpt lat="59.9379082" lon="17.6498959">
        <ele>11.1925</ele>
        <time>2013-04-21T14:27:50Z</time>
      </trkpt>
      <trkpt lat="59.9379604" lon="17.6500277">
        <ele>11.6732</ele>
        <time>2013-04-21T14:27:51Z</time>
      </trkpt>
      <trkpt lat="59.9380107" lon="17.6501618">
        <ele>11.1925</ele>
        <time>2013-04-21T14:27:52Z</time>
      </trkpt>
      <trkpt lat="59.9380594" lon="17.6502997">
        <ele>11.1925</ele>
        <time>2013-04-21T14:27:53Z</time>
      </trkpt>
      <trkpt lat="59.9381072" lon="17.6504379">
        <ele>11.1925</ele>
        <time>2013-04-21T14:27:54Z</time>
      </trkpt>
      <trkpt lat="59.9381758" lon="17.6505793">
        <ele>14.557</ele>
        <time>2013-04-21T14:27:55Z</time>
      </trkpt>
      <trkpt lat="59.9382256" lon="17.6507103">
        <ele>14.0764</ele>
        <time>2013-04-21T14:27:56Z</time>
      </trkpt>
      <trkpt lat="59.9382791" lon="17.6508381">
        <ele>14.0764</ele>
        <time>2013-04-21T14:27:57Z</time>
      </trkpt>
      <trkpt lat="59.9383354" lon="17.6509619">
        <ele>14.0764</ele>
        <time>2013-04-21T14:27:58Z</time>
      </trkpt>
      <trkpt lat="59.9383904" lon="17.6510859">
        <ele>14.0764</ele>
        <time>2013-04-21T14:27:59Z</time>
      </trkpt>
      <trkpt lat="59.9384379" lon="17.6512153">
        <ele>14.0764</ele>
        <time>2013-04-21T14:28:00Z</time>
      </trkpt>
      <trkpt lat="59.93848" lon="17.6513466">
        <ele>14.0764</ele>
        <time>2013-04-21T14:28:01Z</time>
      </trkpt>
      <trkpt lat="59.9385204" lon="17.6514766">
        <ele>14.0764</ele>
        <time>2013-04-21T14:28:02Z</time>
      </trkpt>
      <trkpt lat="59.9385613" lon="17.6516039">
        <ele>15.0377</ele>
        <time>2013-04-21T14:28:03Z</time>
      </trkpt>
      <trkpt lat="59.9386006" lon="17.651733">
        <ele>15.0377</ele>
        <time>2013-04-21T14:28:04Z</time>
      </trkpt>
      <trkpt lat="59.9386431" lon="17.6518614">
        <ele>15.999</ele>
        <time>2013-04-21T14:28:05Z</time>
      </trkpt>
      <trkpt lat="59.9386836" lon="17.6519862">
        <ele>16.4797</ele>
        <time>2013-04-21T14:28:06Z</time>
      </trkpt>
      <trkpt lat="59.9387222" lon="17.6521112">
        <ele>16.9604</ele>
        <time>2013-04-21T14:28:07Z</time>
      </trkpt>
      <trkpt lat="59.9387626" lon="17.652237">
        <ele>17.9218</ele>
        <time>2013-04-21T14:28:08Z</time>
      </trkpt>
      <trkpt lat="59.9388041" lon="17.6523614">
        <ele>18.8831</ele>
        <time>2013-04-21T14:28:09Z</time>
      </trkpt>
      <trkpt lat="59.9388421" lon="17.6524872">
        <ele>18.8831</ele>
        <time>2013-04-21T14:28:10Z</time>
      </trkpt>
      <trkpt lat="59.9388804" lon="17.6526145">
        <ele>19.8444</ele>
        <time>2013-04-21T14:28:11Z</time>
      </trkpt>
      <trkpt lat="59.9389141" lon="17.652741">
        <ele>19.8444</ele>
        <time>2013-04-21T14:28:12Z</time>
      </trkpt>
      <trkpt lat="59.9389492" lon="17.6528685">
        <ele>20.8057</ele>
        <time>2013-04-21T14:28:13Z</time>
      </trkpt>
      <trkpt lat="59.9389844" lon="17.6529956">
        <ele>21.2864</ele>
        <time>2013-04-21T14:28:14Z</time>
      </trkpt>
      <trkpt lat="59.9390176" lon="17.6531222">
        <ele>21.767</ele>
        <time>2013-04-21T14:28:15Z</time>
      </trkpt>
      <trkpt lat="59.939052" lon="17.6532481">
        <ele>22.7283</ele>
        <time>2013-04-21T14:28:16Z</time>
      </trkpt>
      <trkpt lat="59.9390841" lon="17.6533727">
        <ele>22.7283</ele>
        <time>2013-04-21T14:28:17Z</time>
      </trkpt>
      <trkpt lat="59.9391141" lon="17.6534961">
        <ele>23.209</ele>
        <time>2013-04-21T14:28:18Z</time>
      </trkpt>
      <trkpt lat="59.9391451" lon="17.6536191">
        <ele>23.6896</ele>
        <time>2013-04-21T14:28:19Z</time>
      </trkpt>
      <trkpt lat="59.9391762" lon="17.6537436">
        <ele>23.6896</ele>
        <time>2013-04-21T14:28:20Z</time>
      </trkpt>
      <trkpt lat="59.9392092" lon="17.6538671">
        <ele>24.651</ele>
        <time>2013-04-21T14:28:21Z</time>
      </trkpt>
      <trkpt lat="59.9392384" lon="17.6539914">
        <ele>25.1317</ele>
        <time>2013-04-21T14:28:22Z</time>
      </trkpt>
      <trkpt lat="59.9392714" lon="17.6541194">
        <ele>26.5736</ele>
        <time>2013-04-21T14:28:23Z</time>
      </trkpt>
      <trkpt lat="59.9392989" lon="17.6542467">
        <ele>27.0543</ele>
        <time>2013-04-21T14:28:24Z</time>
      </trkpt>
      <trkpt lat="59.9393275" lon="17.6543717">
        <ele>27.5349</ele>
        <time>2013-04-21T14:28:25Z</time>
      </trkpt>
      <trkpt lat="59.9393527" lon="17.6544963">
        <ele>27.5349</ele>
        <time>2013-04-21T14:28:26Z</time>
      </trkpt>
      <trkpt lat="59.9393804" lon="17.6546213">
        <ele>28.0155</ele>
        <time>2013-04-21T14:28:27Z</time>
      </trkpt>
      <trkpt lat="59.9394047" lon="17.6547488">
        <ele>28.4962</ele>
        <time>2013-04-21T14:28:28Z</time>
      </trkpt>
      <trkpt lat="59.9394305" lon="17.654876">
        <ele>28.4962</ele>
        <time>2013-04-21T14:28:29Z</time>
      </trkpt>
      <trkpt lat="59.9394531" lon="17.6550053">
        <ele>28.9769</ele>
        <time>2013-04-21T14:28:30Z</time>
      </trkpt>
      <trkpt lat="59.9394786" lon="17.6551357">
        <ele>28.9769</ele>
        <time>2013-04-21T14:28:31Z</time>
      </trkpt>
      <trkpt lat="59.9395041" lon="17.6552673">
        <ele>28.9769</ele>
        <time>2013-04-21T14:28:32Z</time>
      </trkpt>
      <trkpt lat="59.9395316" lon="17.6554009">
        <ele>29.4575</ele>
        <time>2013-04-21T14:28:33Z</time>
      </trkpt>
      <trkpt lat="59.939561" lon="17.6555356">
        <ele>29.4575</ele>
        <time>2013-04-21T14:28:34Z</time>
      </trkpt>
      <trkpt lat="59.9395899" lon="17.6556706">
        <ele>29.4575</ele>
        <time>2013-04-21T14:28:35Z</time>
      </trkpt>
      <trkpt lat="59.9396194" lon="17.6558071">
        <ele>29.4575</ele>
        <time>2013-04-21T14:28:36Z</time>
      </trkpt>
      <trkpt lat="59.9396481" lon="17.6559448">
        <ele>29.9381</ele>
        <time>2013-04-21T14:28:37Z</time>
      </trkpt>
      <trkpt lat="59.9396761" lon="17.6560833">
        <ele>29.9381</ele>
        <time>2013-04-21T14:28:38Z</time>
      </trkpt>
      <trkpt lat="59.9397039" lon="17.656223">
        <ele>29.9381</ele>
        <time>2013-04-21T14:28:39Z</time>
      </trkpt>
      <trkpt lat="59.9397314" lon="17.6563645">
        <ele>29.9381</ele>
        <time>2013-04-21T14:28:40Z</time>
      </trkpt>
      <trkpt lat="59.9397598" lon="17.6565085">
        <ele>29.9381</ele>
        <time>2013-04-21T14:28:41Z</time>
      </trkpt>
      <trkpt lat="59.9397901" lon="17.6566524">
        <ele>29.4575</ele>
        <time>2013-04-21T14:28:42Z</time>
      </trkpt>
      <trkpt lat="59.9398209" lon="17.6567963">
        <ele>29.4575</ele>
        <time>2013-04-21T14:28:43Z</time>
      </trkpt>
      <trkpt lat="59.9398515" lon="17.6569413">
        <ele>29.4575</ele>
        <time>2013-04-21T14:28:44Z</time>
      </trkpt>
      <trkpt lat="59.9398818" lon="17.6570877">
        <ele>29.9381</ele>
        <time>2013-04-21T14:28:45Z</time>
      </trkpt>
      <trkpt lat="59.9399118" lon="17.6572352">
        <ele>29.9381</ele>
        <time>2013-04-21T14:28:46Z</time>
      </trkpt>
      <trkpt lat="59.9399413" lon="17.6573844">
        <ele>29.4575</ele>
        <time>2013-04-21T14:28:47Z</time>
      </trkpt>
      <trkpt lat="59.9399715" lon="17.6575358">
        <ele>29.4575</ele>
        <time>2013-04-21T14:28:48Z</time>
      </trkpt>
      <trkpt lat="59.9400045" lon="17.6576869">
        <ele>29.4575</ele>
        <time>2013-04-21T14:28:49Z</time>
      </trkpt>
      <trkpt lat="59.9400371" lon="17.6578401">
        <ele>29.4575</ele>
        <time>2013-04-21T14:28:50Z</time>
      </trkpt>
      <trkpt lat="59.9400677" lon="17.6579957">
        <ele>29.4575</ele>
        <time>2013-04-21T14:28:51Z</time>
      </trkpt>
      <trkpt lat="59.9400993" lon="17.6581524">
        <ele>29.4575</ele>
        <time>2013-04-21T14:28:52Z</time>
      </trkpt>
      <trkpt lat="59.9401339" lon="17.6583101">
        <ele>29.4575</ele>
        <time>2013-04-21T14:28:53Z</time>
      </trkpt>
      <trkpt lat="59.9401692" lon="17.6584687">
        <ele>29.4575</ele>
        <time>2013-04-21T14:28:54Z</time>
      </trkpt>
      <trkpt lat="59.9402071" lon="17.6586291">
        <ele>29.4575</ele>
        <time>2013-04-21T14:28:55Z</time>
      </trkpt>
      <trkpt lat="59.9402444" lon="17.6587865">
        <ele>28.9769</ele>
        <time>2013-04-21T14:28:56Z</time>
      </trkpt>
      <trkpt lat="59.9402805" lon="17.6589419">
        <ele>28.9769</ele>
        <time>2013-04-21T14:28:57Z</time>
      </trkpt>
      <trkpt lat="59.9403127" lon="17.6590963">
        <ele>28.9769</ele>
        <time>2013-04-21T14:28:58Z</time>
      </trkpt>
      <trkpt lat="59.9403402" lon="17.6592472">
        <ele>29.4575</ele>
        <time>2013-04-21T14:28:59Z</time>
      </trkpt>
      <trkpt lat="59.9403648" lon="17.6593963">
        <ele>29.4575</ele>
        <time>2013-04-21T14:29:00Z</time>
      </trkpt>
      <trkpt lat="59.9403847" lon="17.6595408">
        <ele>29.4575</ele>
        <time>2013-04-21T14:29:01Z</time>
      </trkpt>
      <trkpt lat="59.9403941" lon="17.6596764">
        <ele>27.5349</ele>
        <time>2013-04-21T14:29:02Z</time>
      </trkpt>
      <trkpt lat="59.9404174" lon="17.6598124">
        <ele>27.0543</ele>
        <time>2013-04-21T14:29:03Z</time>
      </trkpt>
      <trkpt lat="59.9404631" lon="17.6599908">
        <ele>26.5736</ele>
        <time>2013-04-21T14:29:04Z</time>
      </trkpt>
      <trkpt lat="59.9404609" lon="17.6601074">
        <ele>27.0543</ele>
        <time>2013-04-21T14:29:05Z</time>
      </trkpt>
      <trkpt lat="59.9404904" lon="17.6601937">
        <ele>26.5736</ele>
        <time>2013-04-21T14:29:06Z</time>
      </trkpt>
      <trkpt lat="59.9404914" lon="17.6603136">
        <ele>26.5736</ele>
        <time>2013-04-21T14:29:07Z</time>
      </trkpt>
      <trkpt lat="59.9404944" lon="17.6604954">
        <ele>26.0929</ele>
        <time>2013-04-21T14:29:08Z</time>
      </trkpt>
      <trkpt lat="59.9404908" lon="17.6606931">
        <ele>25.6123</ele>
        <time>2013-04-21T14:29:09Z</time>
      </trkpt>
      <trkpt lat="59.940464" lon="17.660858">
        <ele>26.0929</ele>
        <time>2013-04-21T14:29:10Z</time>
      </trkpt>
      <trkpt lat="59.9404313" lon="17.6610105">
        <ele>26.5736</ele>
        <time>2013-04-21T14:29:11Z</time>
      </trkpt>
      <trkpt lat="59.9404076" lon="17.6611689">
        <ele>26.5736</ele>
        <time>2013-04-21T14:29:12Z</time>
      </trkpt>
      <trkpt lat="59.9404023" lon="17.6613178">
        <ele>27.0543</ele>
        <time>2013-04-21T14:29:13Z</time>
      </trkpt>
      <trkpt lat="59.9403945" lon="17.6614796">
        <ele>27.5349</ele>
        <time>2013-04-21T14:29:14Z</time>
      </trkpt>
      <trkpt lat="59.9403972" lon="17.6616386">
        <ele>27.5349</ele>
        <time>2013-04-21T14:29:15Z</time>
      </trkpt>
      <trkpt lat="59.9404149" lon="17.6617861">
        <ele>27.5349</ele>
        <time>2013-04-21T14:29:16Z</time>
      </trkpt>
      <trkpt lat="59.9404505" lon="17.6619099">
        <ele>28.0155</ele>
        <time>2013-04-21T14:29:17Z</time>
      </trkpt>
      <trkpt lat="59.9404992" lon="17.6620126">
        <ele>28.4962</ele>
        <time>2013-04-21T14:29:18Z</time>
      </trkpt>
      <trkpt lat="59.9405573" lon="17.6620956">
        <ele>28.4962</ele>
        <time>2013-04-21T14:29:19Z</time>
      </trkpt>
      <trkpt lat="59.9406205" lon="17.6621632">
        <ele>28.9769</ele>
        <time>2013-04-21T14:29:20Z</time>
      </trkpt>
      <trkpt lat="59.940687" lon="17.6622031">
        <ele>29.4575</ele>
        <time>2013-04-21T14:29:21Z</time>
      </trkpt>
      <trkpt lat="59.9407565" lon="17.6622238">
        <ele>29.4575</ele>
        <time>2013-04-21T14:29:22Z</time>
      </trkpt>
      <trkpt lat="59.9408264" lon="17.662234">
        <ele>29.4575</ele>
        <time>2013-04-21T14:29:23Z</time>
      </trkpt>
      <trkpt lat="59.9408997" lon="17.6622429">
        <ele>29.4575</ele>
        <time>2013-04-21T14:29:24Z</time>
      </trkpt>
      <trkpt lat="59.940973" lon="17.6622588">
        <ele>29.4575</ele>
        <time>2013-04-21T14:29:25Z</time>
      </trkpt>
      <trkpt lat="59.9410487" lon="17.6622852">
        <ele>29.9381</ele>
        <time>2013-04-21T14:29:26Z</time>
      </trkpt>
      <trkpt lat="59.9411218" lon="17.6623247">
        <ele>29.9381</ele>
        <time>2013-04-21T14:29:27Z</time>
      </trkpt>
      <trkpt lat="59.9411974" lon="17.6623726">
        <ele>30.4188</ele>
        <time>2013-04-21T14:29:28Z</time>
      </trkpt>
      <trkpt lat="59.9412716" lon="17.6624287">
        <ele>30.4188</ele>
        <time>2013-04-21T14:29:29Z</time>
      </trkpt>
      <trkpt lat="59.9413446" lon="17.6624926">
        <ele>30.4188</ele>
        <time>2013-04-21T14:29:30Z</time>
      </trkpt>
      <trkpt lat="59.9414165" lon="17.6625685">
        <ele>30.8995</ele>
        <time>2013-04-21T14:29:31Z</time>
      </trkpt>
      <trkpt lat="59.9414875" lon="17.6626593">
        <ele>31.8607</ele>
        <time>2013-04-21T14:29:32Z</time>
      </trkpt>
      <trkpt lat="59.9415529" lon="17.6627475">
        <ele>31.8607</ele>
        <time>2013-04-21T14:29:33Z</time>
      </trkpt>
      <trkpt lat="59.9416149" lon="17.6628437">
        <ele>31.3801</ele>
        <time>2013-04-21T14:29:34Z</time>
      </trkpt>
      <trkpt lat="59.9416724" lon="17.6629471">
        <ele>31.8607</ele>
        <time>2013-04-21T14:29:35Z</time>
      </trkpt>
      <trkpt lat="59.9417264" lon="17.663053">
        <ele>31.3801</ele>
        <time>2013-04-21T14:29:36Z</time>
      </trkpt>
      <trkpt lat="59.9417782" lon="17.6631602">
        <ele>31.3801</ele>
        <time>2013-04-21T14:29:37Z</time>
      </trkpt>
      <trkpt lat="59.9418331" lon="17.6632642">
        <ele>30.8995</ele>
        <time>2013-04-21T14:29:38Z</time>
      </trkpt>
      <trkpt lat="59.9418889" lon="17.6633639">
        <ele>30.4188</ele>
        <time>2013-04-21T14:29:39Z</time>
      </trkpt>
      <trkpt lat="59.941946" lon="17.6634626">
        <ele>30.4188</ele>
        <time>2013-04-21T14:29:40Z</time>
      </trkpt>
      <trkpt lat="59.942003" lon="17.6635606">
        <ele>29.9381</ele>
        <time>2013-04-21T14:29:41Z</time>
      </trkpt>
      <trkpt lat="59.9420593" lon="17.6636521">
        <ele>28.4962</ele>
        <time>2013-04-21T14:29:42Z</time>
      </trkpt>
      <trkpt lat="59.9421184" lon="17.6637418">
        <ele>27.5349</ele>
        <time>2013-04-21T14:29:43Z</time>
      </trkpt>
      <trkpt lat="59.9421807" lon="17.663828">
        <ele>26.5736</ele>
        <time>2013-04-21T14:29:44Z</time>
      </trkpt>
      <trkpt lat="59.9422439" lon="17.6639161">
        <ele>26.0929</ele>
        <time>2013-04-21T14:29:45Z</time>
      </trkpt>
      <trkpt lat="59.9423065" lon="17.6640035">
        <ele>25.1317</ele>
        <time>2013-04-21T14:29:46Z</time>
      </trkpt>
      <trkpt lat="59.9423723" lon="17.66409">
        <ele>24.651</ele>
        <time>2013-04-21T14:29:47Z</time>
      </trkpt>
      <trkpt lat="59.9424391" lon="17.6641739">
        <ele>24.1703</ele>
        <time>2013-04-21T14:29:48Z</time>
      </trkpt>
      <trkpt lat="59.942507" lon="17.6642574">
        <ele>23.6896</ele>
        <time>2013-04-21T14:29:49Z</time>
      </trkpt>
      <trkpt lat="59.9425775" lon="17.6643406">
        <ele>23.209</ele>
        <time>2013-04-21T14:29:50Z</time>
      </trkpt>
      <trkpt lat="59.9426489" lon="17.6644215">
        <ele>22.7283</ele>
        <time>2013-04-21T14:29:51Z</time>
      </trkpt>
      <trkpt lat="59.9427204" lon="17.6645019">
        <ele>22.2476</ele>
        <time>2013-04-21T14:29:52Z</time>
      </trkpt>
      <trkpt lat="59.942793" lon="17.6645817">
        <ele>21.2864</ele>
        <time>2013-04-21T14:29:53Z</time>
      </trkpt>
      <trkpt lat="59.9428671" lon="17.6646609">
        <ele>20.325</ele>
        <time>2013-04-21T14:29:54Z</time>
      </trkpt>
      <trkpt lat="59.9429436" lon="17.6647385">
        <ele>19.8444</ele>
        <time>2013-04-21T14:29:55Z</time>
      </trkpt>
      <trkpt lat="59.9430209" lon="17.6648097">
        <ele>19.3638</ele>
        <time>2013-04-21T14:29:56Z</time>
      </trkpt>
      <trkpt lat="59.9430992" lon="17.6648821">
        <ele>19.3638</ele>
        <time>2013-04-21T14:29:57Z</time>
      </trkpt>
      <trkpt lat="59.9431787" lon="17.6649572">
        <ele>19.3638</ele>
        <time>2013-04-21T14:29:58Z</time>
      </trkpt>
      <trkpt lat="59.9432611" lon="17.6650271">
        <ele>19.8444</ele>
        <time>2013-04-21T14:29:59Z</time>
      </trkpt>
      <trkpt lat="59.9433446" lon="17.6650941">
        <ele>19.8444</ele>
        <time>2013-04-21T14:30:00Z</time>
      </trkpt>
      <trkpt lat="59.9434338" lon="17.6651611">
        <ele>21.2864</ele>
        <time>2013-04-21T14:30:01Z</time>
      </trkpt>
      <trkpt lat="59.9435223" lon="17.665223">
        <ele>21.767</ele>
        <time>2013-04-21T14:30:02Z</time>
      </trkpt>
      <trkpt lat="59.9436119" lon="17.6652842">
        <ele>23.209</ele>
        <time>2013-04-21T14:30:03Z</time>
      </trkpt>
      <trkpt lat="59.9436991" lon="17.665342">
        <ele>23.6896</ele>
        <time>2013-04-21T14:30:04Z</time>
      </trkpt>
      <trkpt lat="59.9437869" lon="17.6653965">
        <ele>24.1703</ele>
        <time>2013-04-21T14:30:05Z</time>
      </trkpt>
      <trkpt lat="59.9438764" lon="17.6654431">
        <ele>24.651</ele>
        <time>2013-04-21T14:30:06Z</time>
      </trkpt>
      <trkpt lat="59.9439647" lon="17.6654923">
        <ele>25.1317</ele>
        <time>2013-04-21T14:30:07Z</time>
      </trkpt>
      <trkpt lat="59.9440541" lon="17.6655394">
        <ele>25.6123</ele>
        <time>2013-04-21T14:30:08Z</time>
      </trkpt>
      <trkpt lat="59.944146" lon="17.665585">
        <ele>26.5736</ele>
        <time>2013-04-21T14:30:09Z</time>
      </trkpt>
      <trkpt lat="59.9442361" lon="17.6656289">
        <ele>26.5736</ele>
        <time>2013-04-21T14:30:10Z</time>
      </trkpt>
      <trkpt lat="59.9443303" lon="17.6656612">
        <ele>27.0543</ele>
        <time>2013-04-21T14:30:11Z</time>
      </trkpt>
      <trkpt lat="59.9444214" lon="17.6656905">
        <ele>26.0929</ele>
        <time>2013-04-21T14:30:12Z</time>
      </trkpt>
      <trkpt lat="59.9445123" lon="17.6657276">
        <ele>26.0929</ele>
        <time>2013-04-21T14:30:13Z</time>
      </trkpt>
      <trkpt lat="59.9446009" lon="17.6657674">
        <ele>25.6123</ele>
        <time>2013-04-21T14:30:14Z</time>
      </trkpt>
      <trkpt lat="59.9446933" lon="17.6658016">
        <ele>25.6123</ele>
        <time>2013-04-21T14:30:15Z</time>
      </trkpt>
      <trkpt lat="59.9447855" lon="17.6658376">
        <ele>25.6123</ele>
        <time>2013-04-21T14:30:16Z</time>
      </trkpt>
      <trkpt lat="59.9448775" lon="17.6658744">
        <ele>26.0929</ele>
        <time>2013-04-21T14:30:17Z</time>
      </trkpt>
      <trkpt lat="59.9449663" lon="17.6659148">
        <ele>25.6123</ele>
        <time>2013-04-21T14:30:18Z</time>
      </trkpt>
      <trkpt lat="59.9450557" lon="17.6659498">
        <ele>25.6123</ele>
        <time>2013-04-21T14:30:19Z</time>
      </trkpt>
      <trkpt lat="59.9451458" lon="17.6659816">
        <ele>25.1317</ele>
        <time>2013-04-21T14:30:20Z</time>
      </trkpt>
      <trkpt lat="59.9452344" lon="17.6660165">
        <ele>25.1317</ele>
        <time>2013-04-21T14:30:21Z</time>
      </trkpt>
      <trkpt lat="59.9453258" lon="17.6660485">
        <ele>25.1317</ele>
        <time>2013-04-21T14:30:22Z</time>
      </trkpt>
      <trkpt lat="59.9454187" lon="17.6660792">
        <ele>25.6123</ele>
        <time>2013-04-21T14:30:23Z</time>
      </trkpt>
      <trkpt lat="59.9455076" lon="17.6661112">
        <ele>25.6123</ele>
        <time>2013-04-21T14:30:24Z</time>
      </trkpt>
      <trkpt lat="59.9455984" lon="17.6661393">
        <ele>26.0929</ele>
        <time>2013-04-21T14:30:25Z</time>
      </trkpt>
      <trkpt lat="59.9456907" lon="17.6661651">
        <ele>26.5736</ele>
        <time>2013-04-21T14:30:26Z</time>
      </trkpt>
      <trkpt lat="59.9457824" lon="17.6661912">
        <ele>27.0543</ele>
        <time>2013-04-21T14:30:27Z</time>
      </trkpt>
      <trkpt lat="59.9458694" lon="17.6662237">
        <ele>27.0543</ele>
        <time>2013-04-21T14:30:28Z</time>
      </trkpt>
      <trkpt lat="59.9459562" lon="17.6662565">
        <ele>27.0543</ele>
        <time>2013-04-21T14:30:29Z</time>
      </trkpt>
      <trkpt lat="59.9460408" lon="17.6662943">
        <ele>26.5736</ele>
        <time>2013-04-21T14:30:30Z</time>
      </trkpt>
      <trkpt lat="59.9461258" lon="17.6663321">
        <ele>26.0929</ele>
        <time>2013-04-21T14:30:31Z</time>
      </trkpt>
      <trkpt lat="59.9462111" lon="17.6663745">
        <ele>25.6123</ele>
        <time>2013-04-21T14:30:32Z</time>
      </trkpt>
      <trkpt lat="59.9462957" lon="17.6664315">
        <ele>25.6123</ele>
        <time>2013-04-21T14:30:33Z</time>
      </trkpt>
      <trkpt lat="59.9463807" lon="17.6664915">
        <ele>25.1317</ele>
        <time>2013-04-21T14:30:34Z</time>
      </trkpt>
      <trkpt lat="59.9464689" lon="17.6665391">
        <ele>25.1317</ele>
        <time>2013-04-21T14:30:35Z</time>
      </trkpt>
      <trkpt lat="59.9465609" lon="17.6665698">
        <ele>25.1317</ele>
        <time>2013-04-21T14:30:36Z</time>
      </trkpt>
      <trkpt lat="59.9466527" lon="17.6665915">
        <ele>25.6123</ele>
        <time>2013-04-21T14:30:37Z</time>
      </trkpt>
      <trkpt lat="59.9467432" lon="17.6666136">
        <ele>25.1317</ele>
        <time>2013-04-21T14:30:38Z</time>
      </trkpt>
      <trkpt lat="59.946838" lon="17.6666387">
        <ele>25.1317</ele>
        <time>2013-04-21T14:30:39Z</time>
      </trkpt>
      <trkpt lat="59.9469315" lon="17.666673">
        <ele>25.1317</ele>
        <time>2013-04-21T14:30:40Z</time>
      </trkpt>
      <trkpt lat="59.9470247" lon="17.6667112">
        <ele>25.1317</ele>
        <time>2013-04-21T14:30:41Z</time>
      </trkpt>
      <trkpt lat="59.9471182" lon="17.6667507">
        <ele>24.651</ele>
        <time>2013-04-21T14:30:42Z</time>
      </trkpt>
      <trkpt lat="59.9472112" lon="17.6667956">
        <ele>24.1703</ele>
        <time>2013-04-21T14:30:43Z</time>
      </trkpt>
      <trkpt lat="59.9473034" lon="17.6668458">
        <ele>23.6896</ele>
        <time>2013-04-21T14:30:44Z</time>
      </trkpt>
      <trkpt lat="59.9473979" lon="17.6668946">
        <ele>24.1703</ele>
        <time>2013-04-21T14:30:45Z</time>
      </trkpt>
      <trkpt lat="59.9474934" lon="17.6669421">
        <ele>24.1703</ele>
        <time>2013-04-21T14:30:46Z</time>
      </trkpt>
      <trkpt lat="59.947589" lon="17.6669883">
        <ele>24.651</ele>
        <time>2013-04-21T14:30:47Z</time>
      </trkpt>
      <trkpt lat="59.9476845" lon="17.6670339">
        <ele>24.651</ele>
        <time>2013-04-21T14:30:48Z</time>
      </trkpt>
      <trkpt lat="59.9477814" lon="17.6670809">
        <ele>25.1317</ele>
        <time>2013-04-21T14:30:49Z</time>
      </trkpt>
      <trkpt lat="59.9478772" lon="17.6671334">
        <ele>25.1317</ele>
        <time>2013-04-21T14:30:50Z</time>
      </trkpt>
      <trkpt lat="59.9479745" lon="17.6671837">
        <ele>25.1317</ele>
        <time>2013-04-21T14:30:51Z</time>
      </trkpt>
      <trkpt lat="59.9480719" lon="17.6672307">
        <ele>25.1317</ele>
        <time>2013-04-21T14:30:52Z</time>
      </trkpt>
      <trkpt lat="59.9481698" lon="17.6672825">
        <ele>25.1317</ele>
        <time>2013-04-21T14:30:53Z</time>
      </trkpt>
      <trkpt lat="59.9482676" lon="17.6673364">
        <ele>25.6123</ele>
        <time>2013-04-21T14:30:54Z</time>
      </trkpt>
      <trkpt lat="59.9483658" lon="17.6673893">
        <ele>25.6123</ele>
        <time>2013-04-21T14:30:55Z</time>
      </trkpt>
      <trkpt lat="59.9484657" lon="17.6674388">
        <ele>26.0929</ele>
        <time>2013-04-21T14:30:56Z</time>
      </trkpt>
      <trkpt lat="59.9485641" lon="17.6674914">
        <ele>26.0929</ele>
        <time>2013-04-21T14:30:57Z</time>
      </trkpt>
      <trkpt lat="59.9486623" lon="17.6675452">
        <ele>26.5736</ele>
        <time>2013-04-21T14:30:58Z</time>
      </trkpt>
      <trkpt lat="59.9487562" lon="17.6676079">
        <ele>26.0929</ele>
        <time>2013-04-21T14:30:59Z</time>
      </trkpt>
      <trkpt lat="59.9488495" lon="17.6676704">
        <ele>25.6123</ele>
        <time>2013-04-21T14:31:00Z</time>
      </trkpt>
      <trkpt lat="59.9489448" lon="17.667727">
        <ele>25.6123</ele>
        <time>2013-04-21T14:31:01Z</time>
      </trkpt>
      <trkpt lat="59.9490397" lon="17.6677834">
        <ele>25.1317</ele>
        <time>2013-04-21T14:31:02Z</time>
      </trkpt>
      <trkpt lat="59.9491345" lon="17.6678384">
        <ele>24.651</ele>
        <time>2013-04-21T14:31:03Z</time>
      </trkpt>
      <trkpt lat="59.9492292" lon="17.6678944">
        <ele>24.651</ele>
        <time>2013-04-21T14:31:04Z</time>
      </trkpt>
      <trkpt lat="59.9493235" lon="17.6679533">
        <ele>24.1703</ele>
        <time>2013-04-21T14:31:05Z</time>
      </trkpt>
      <trkpt lat="59.9494174" lon="17.6680115">
        <ele>23.6896</ele>
        <time>2013-04-21T14:31:06Z</time>
      </trkpt>
      <trkpt lat="59.949512" lon="17.6680687">
        <ele>23.209</ele>
        <time>2013-04-21T14:31:07Z</time>
      </trkpt>
      <trkpt lat="59.949607" lon="17.668122">
        <ele>23.6896</ele>
        <time>2013-04-21T14:31:08Z</time>
      </trkpt>
      <trkpt lat="59.9497009" lon="17.6681715">
        <ele>22.7283</ele>
        <time>2013-04-21T14:31:09Z</time>
      </trkpt>
      <trkpt lat="59.9497962" lon="17.6682148">
        <ele>22.7283</ele>
        <time>2013-04-21T14:31:10Z</time>
      </trkpt>
      <trkpt lat="59.9498938" lon="17.6682507">
        <ele>23.209</ele>
        <time>2013-04-21T14:31:11Z</time>
      </trkpt>
      <trkpt lat="59.9499907" lon="17.6682823">
        <ele>23.6896</ele>
        <time>2013-04-21T14:31:12Z</time>
      </trkpt>
      <trkpt lat="59.9500835" lon="17.6683099">
        <ele>23.6896</ele>
        <time>2013-04-21T14:31:13Z</time>
      </trkpt>
      <trkpt lat="59.9501758" lon="17.6683331">
        <ele>23.6896</ele>
        <time>2013-04-21T14:31:14Z</time>
      </trkpt>
      <trkpt lat="59.9502695" lon="17.6683433">
        <ele>24.1703</ele>
        <time>2013-04-21T14:31:15Z</time>
      </trkpt>
      <trkpt lat="59.9503612" lon="17.6683501">
        <ele>24.1703</ele>
        <time>2013-04-21T14:31:16Z</time>
      </trkpt>
      <trkpt lat="59.9504524" lon="17.6683551">
        <ele>24.1703</ele>
        <time>2013-04-21T14:31:17Z</time>
      </trkpt>
      <trkpt lat="59.9505434" lon="17.6683553">
        <ele>24.651</ele>
        <time>2013-04-21T14:31:18Z</time>
      </trkpt>
      <trkpt lat="59.9506326" lon="17.6683496">
        <ele>24.651</ele>
        <time>2013-04-21T14:31:19Z</time>
      </trkpt>
      <trkpt lat="59.9507206" lon="17.6683361">
        <ele>24.651</ele>
        <time>2013-04-21T14:31:20Z</time>
      </trkpt>
      <trkpt lat="59.9508092" lon="17.6683165">
        <ele>24.651</ele>
        <time>2013-04-21T14:31:21Z</time>
      </trkpt>
      <trkpt lat="59.9508962" lon="17.6682916">
        <ele>24.651</ele>
        <time>2013-04-21T14:31:22Z</time>
      </trkpt>
      <trkpt lat="59.9509832" lon="17.6682631">
        <ele>24.651</ele>
        <time>2013-04-21T14:31:23Z</time>
      </trkpt>
      <trkpt lat="59.9510698" lon="17.6682367">
        <ele>24.651</ele>
        <time>2013-04-21T14:31:24Z</time>
      </trkpt>
      <trkpt lat="59.9511568" lon="17.6682118">
        <ele>24.1703</ele>
        <time>2013-04-21T14:31:25Z</time>
      </trkpt>
      <trkpt lat="59.9512434" lon="17.668186">
        <ele>23.6896</ele>
        <time>2013-04-21T14:31:26Z</time>
      </trkpt>
      <trkpt lat="59.9513299" lon="17.6681578">
        <ele>23.6896</ele>
        <time>2013-04-21T14:31:27Z</time>
      </trkpt>
      <trkpt lat="59.9514157" lon="17.668133">
        <ele>23.209</ele>
        <time>2013-04-21T14:31:28Z</time>
      </trkpt>
      <trkpt lat="59.9515006" lon="17.6681246">
        <ele>22.7283</ele>
        <time>2013-04-21T14:31:29Z</time>
      </trkpt>
      <trkpt lat="59.9515835" lon="17.6681514">
        <ele>22.2476</ele>
        <time>2013-04-21T14:31:30Z</time>
      </trkpt>
      <trkpt lat="59.9516582" lon="17.6682216">
        <ele>22.7283</ele>
        <time>2013-04-21T14:31:31Z</time>
      </trkpt>
      <trkpt lat="59.9517162" lon="17.6683321">
        <ele>22.7283</ele>
        <time>2013-04-21T14:31:32Z</time>
      </trkpt>
      <trkpt lat="59.9517588" lon="17.6684678">
        <ele>22.2476</ele>
        <time>2013-04-21T14:31:33Z</time>
      </trkpt>
      <trkpt lat="59.9517901" lon="17.6686134">
        <ele>22.2476</ele>
        <time>2013-04-21T14:31:34Z</time>
      </trkpt>
      <trkpt lat="59.951813" lon="17.6687611">
        <ele>22.7283</ele>
        <time>2013-04-21T14:31:35Z</time>
      </trkpt>
      <trkpt lat="59.9518275" lon="17.66891">
        <ele>22.7283</ele>
        <time>2013-04-21T14:31:36Z</time>
      </trkpt>
      <trkpt lat="59.9518292" lon="17.6690555">
        <ele>22.7283</ele>
        <time>2013-04-21T14:31:37Z</time>
      </trkpt>
      <trkpt lat="59.9518239" lon="17.6691966">
        <ele>22.7283</ele>
        <time>2013-04-21T14:31:38Z</time>
      </trkpt>
      <trkpt lat="59.951814" lon="17.6693357">
        <ele>22.2476</ele>
        <time>2013-04-21T14:31:39Z</time>
      </trkpt>
      <trkpt lat="59.9518052" lon="17.6694748">
        <ele>21.767</ele>
        <time>2013-04-21T14:31:40Z</time>
      </trkpt>
      <trkpt lat="59.9517974" lon="17.6696146">
        <ele>21.767</ele>
        <time>2013-04-21T14:31:41Z</time>
      </trkpt>
      <trkpt lat="59.9517908" lon="17.6697544">
        <ele>21.767</ele>
        <time>2013-04-21T14:31:42Z</time>
      </trkpt>
      <trkpt lat="59.951784" lon="17.6698921">
        <ele>21.2864</ele>
        <time>2013-04-21T14:31:43Z</time>
      </trkpt>
      <trkpt lat="59.9517757" lon="17.670027">
        <ele>21.2864</ele>
        <time>2013-04-21T14:31:44Z</time>
      </trkpt>
      <trkpt lat="59.9517654" lon="17.6701625">
        <ele>20.8057</ele>
        <time>2013-04-21T14:31:45Z</time>
      </trkpt>
      <trkpt lat="59.9517567" lon="17.6702948">
        <ele>20.325</ele>
        <time>2013-04-21T14:31:46Z</time>
      </trkpt>
      <trkpt lat="59.9517376" lon="17.6704028">
        <ele>20.8057</ele>
        <time>2013-04-21T14:31:47Z</time>
      </trkpt>
      <trkpt lat="59.9517188" lon="17.67053">
        <ele>21.2864</ele>
        <time>2013-04-21T14:31:48Z</time>
      </trkpt>
      <trkpt lat="59.9517038" lon="17.6706588">
        <ele>22.2476</ele>
        <time>2013-04-21T14:31:49Z</time>
      </trkpt>
      <trkpt lat="59.9516989" lon="17.6707822">
        <ele>22.7283</ele>
        <time>2013-04-21T14:31:50Z</time>
      </trkpt>
      <trkpt lat="59.9516955" lon="17.6708951">
        <ele>23.6896</ele>
        <time>2013-04-21T14:31:51Z</time>
      </trkpt>
      <trkpt lat="59.9517036" lon="17.6710101">
        <ele>23.6896</ele>
        <time>2013-04-21T14:31:52Z</time>
      </trkpt>
      <trkpt lat="59.9517183" lon="17.6711221">
        <ele>23.6896</ele>
        <time>2013-04-21T14:31:53Z</time>
      </trkpt>
      <trkpt lat="59.9517421" lon="17.6712237">
        <ele>23.209</ele>
        <time>2013-04-21T14:31:54Z</time>
      </trkpt>
      <trkpt lat="59.9517621" lon="17.6713154">
        <ele>23.6896</ele>
        <time>2013-04-21T14:31:55Z</time>
      </trkpt>
      <trkpt lat="59.951775" lon="17.6714071">
        <ele>23.6896</ele>
        <time>2013-04-21T14:31:56Z</time>
      </trkpt>
      <trkpt lat="59.9517811" lon="17.6715003">
        <ele>23.209</ele>
        <time>2013-04-21T14:31:57Z</time>
      </trkpt>
      <trkpt lat="59.9517862" lon="17.6715965">
        <ele>23.209</ele>
        <time>2013-04-21T14:31:58Z</time>
      </trkpt>
      <trkpt lat="59.9517914" lon="17.6716856">
        <ele>23.209</ele>
        <time>2013-04-21T14:31:59Z</time>
      </trkpt>
      <trkpt lat="59.9518105" lon="17.6717688">
        <ele>23.209</ele>
        <time>2013-04-21T14:32:00Z</time>
      </trkpt>
      <trkpt lat="59.9518339" lon="17.6718509">
        <ele>23.209</ele>
        <time>2013-04-21T14:32:01Z</time>
      </trkpt>
      <trkpt lat="59.9518527" lon="17.6719436">
        <ele>23.209</ele>
        <time>2013-04-21T14:32:02Z</time>
      </trkpt>
      <trkpt lat="59.9518663" lon="17.6720468">
        <ele>23.209</ele>
        <time>2013-04-21T14:32:03Z</time>
      </trkpt>
      <trkpt lat="59.9518763" lon="17.6721549">
        <ele>23.209</ele>
        <time>2013-04-21T14:32:04Z</time>
      </trkpt>
      <trkpt lat="59.9518838" lon="17.6722649">
        <ele>22.7283</ele>
        <time>2013-04-21T14:32:05Z</time>
      </trkpt>
      <trkpt lat="59.9518918" lon="17.6723747">
        <ele>22.7283</ele>
        <time>2013-04-21T14:32:06Z</time>
      </trkpt>
      <trkpt lat="59.9519022" lon="17.6724883">
        <ele>22.7283</ele>
        <time>2013-04-21T14:32:07Z</time>
      </trkpt>
      <trkpt lat="59.9519115" lon="17.6726039">
        <ele>22.2476</ele>
        <time>2013-04-21T14:32:08Z</time>
      </trkpt>
      <trkpt lat="59.9519239" lon="17.6727237">
        <ele>22.2476</ele>
        <time>2013-04-21T14:32:09Z</time>
      </trkpt>
      <trkpt lat="59.9519374" lon="17.6728464">
        <ele>22.7283</ele>
        <time>2013-04-21T14:32:10Z</time>
      </trkpt>
      <trkpt lat="59.9519498" lon="17.6729651">
        <ele>22.7283</ele>
        <time>2013-04-21T14:32:11Z</time>
      </trkpt>
      <trkpt lat="59.9519624" lon="17.6730797">
        <ele>22.7283</ele>
        <time>2013-04-21T14:32:12Z</time>
      </trkpt>
      <trkpt lat="59.9519747" lon="17.673191">
        <ele>22.2476</ele>
        <time>2013-04-21T14:32:13Z</time>
      </trkpt>
      <trkpt lat="59.9519897" lon="17.6733003">
        <ele>22.2476</ele>
        <time>2013-04-21T14:32:14Z</time>
      </trkpt>
      <trkpt lat="59.9520059" lon="17.6734083">
        <ele>22.2476</ele>
        <time>2013-04-21T14:32:15Z</time>
      </trkpt>
      <trkpt lat="59.9520217" lon="17.6735163">
        <ele>22.2476</ele>
        <time>2013-04-21T14:32:16Z</time>
      </trkpt>
      <trkpt lat="59.952038" lon="17.6736243">
        <ele>22.2476</ele>
        <time>2013-04-21T14:32:17Z</time>
      </trkpt>
      <trkpt lat="59.9520535" lon="17.673731">
        <ele>21.767</ele>
        <time>2013-04-21T14:32:18Z</time>
      </trkpt>
      <trkpt lat="59.952072" lon="17.6738378">
        <ele>22.2476</ele>
        <time>2013-04-21T14:32:19Z</time>
      </trkpt>
      <trkpt lat="59.9520893" lon="17.6739436">
        <ele>21.767</ele>
        <time>2013-04-21T14:32:20Z</time>
      </trkpt>
      <trkpt lat="59.9521082" lon="17.6740503">
        <ele>22.2476</ele>
        <time>2013-04-21T14:32:21Z</time>
      </trkpt>
      <trkpt lat="59.9521285" lon="17.6741571">
        <ele>22.2476</ele>
        <time>2013-04-21T14:32:22Z</time>
      </trkpt>
      <trkpt lat="59.9521488" lon="17.6742639">
        <ele>21.767</ele>
        <time>2013-04-21T14:32:23Z</time>
      </trkpt>
      <trkpt lat="59.9521704" lon="17.674371">
        <ele>21.767</ele>
        <time>2013-04-21T14:32:24Z</time>
      </trkpt>
      <trkpt lat="59.9522047" lon="17.674478">
        <ele>22.2476</ele>
        <time>2013-04-21T14:32:25Z</time>
      </trkpt>
      <trkpt lat="59.952231" lon="17.6745843">
        <ele>22.2476</ele>
        <time>2013-04-21T14:32:26Z</time>
      </trkpt>
      <trkpt lat="59.9522563" lon="17.6746916">
        <ele>22.2476</ele>
        <time>2013-04-21T14:32:27Z</time>
      </trkpt>
      <trkpt lat="59.9522824" lon="17.6747999">
        <ele>22.2476</ele>
        <time>2013-04-21T14:32:28Z</time>
      </trkpt>
      <trkpt lat="59.9523112" lon="17.6749087">
        <ele>22.7283</ele>
        <time>2013-04-21T14:32:29Z</time>
      </trkpt>
      <trkpt lat="59.952343" lon="17.6750169">
        <ele>23.209</ele>
        <time>2013-04-21T14:32:30Z</time>
      </trkpt>
      <trkpt lat="59.9523751" lon="17.6751251">
        <ele>23.209</ele>
        <time>2013-04-21T14:32:31Z</time>
      </trkpt>
      <trkpt lat="59.9524066" lon="17.6752329">
        <ele>23.209</ele>
        <time>2013-04-21T14:32:32Z</time>
      </trkpt>
      <trkpt lat="59.9524374" lon="17.6753369">
        <ele>22.7283</ele>
        <time>2013-04-21T14:32:33Z</time>
      </trkpt>
      <trkpt lat="59.9524719" lon="17.6754448">
        <ele>22.7283</ele>
        <time>2013-04-21T14:32:34Z</time>
      </trkpt>
      <trkpt lat="59.9525056" lon="17.675551">
        <ele>22.2476</ele>
        <time>2013-04-21T14:32:35Z</time>
      </trkpt>
      <trkpt lat="59.9525415" lon="17.6756557">
        <ele>21.767</ele>
        <time>2013-04-21T14:32:36Z</time>
      </trkpt>
      <trkpt lat="59.9525823" lon="17.6757646">
        <ele>21.767</ele>
        <time>2013-04-21T14:32:37Z</time>
      </trkpt>
      <trkpt lat="59.9526248" lon="17.6758737">
        <ele>22.2476</ele>
        <time>2013-04-21T14:32:38Z</time>
      </trkpt>
      <trkpt lat="59.9526662" lon="17.6759828">
        <ele>22.2476</ele>
        <time>2013-04-21T14:32:39Z</time>
      </trkpt>
      <trkpt lat="59.9527205" lon="17.676096">
        <ele>24.1703</ele>
        <time>2013-04-21T14:32:40Z</time>
      </trkpt>
      <trkpt lat="59.9527697" lon="17.6762087">
        <ele>25.1317</ele>
        <time>2013-04-21T14:32:41Z</time>
      </trkpt>
      <trkpt lat="59.9528173" lon="17.6763221">
        <ele>26.0929</ele>
        <time>2013-04-21T14:32:42Z</time>
      </trkpt>
      <trkpt lat="59.9528589" lon="17.6764347">
        <ele>26.0929</ele>
        <time>2013-04-21T14:32:43Z</time>
      </trkpt>
      <trkpt lat="59.9529003" lon="17.6765503">
        <ele>26.5736</ele>
        <time>2013-04-21T14:32:44Z</time>
      </trkpt>
      <trkpt lat="59.9529434" lon="17.6766668">
        <ele>27.0543</ele>
        <time>2013-04-21T14:32:45Z</time>
      </trkpt>
      <trkpt lat="59.9529859" lon="17.6767842">
        <ele>27.0543</ele>
        <time>2013-04-21T14:32:46Z</time>
      </trkpt>
      <trkpt lat="59.9530319" lon="17.6769035">
        <ele>27.5349</ele>
        <time>2013-04-21T14:32:47Z</time>
      </trkpt>
      <trkpt lat="59.953078" lon="17.6770235">
        <ele>28.4962</ele>
        <time>2013-04-21T14:32:48Z</time>
      </trkpt>
      <trkpt lat="59.9531212" lon="17.6771417">
        <ele>28.4962</ele>
        <time>2013-04-21T14:32:49Z</time>
      </trkpt>
      <trkpt lat="59.9531655" lon="17.6772614">
        <ele>28.9769</ele>
        <time>2013-04-21T14:32:50Z</time>
      </trkpt>
      <trkpt lat="59.9532099" lon="17.6773842">
        <ele>28.9769</ele>
        <time>2013-04-21T14:32:51Z</time>
      </trkpt>
      <trkpt lat="59.9532541" lon="17.6775091">
        <ele>28.9769</ele>
        <time>2013-04-21T14:32:52Z</time>
      </trkpt>
      <trkpt lat="59.953299" lon="17.6776334">
        <ele>28.9769</ele>
        <time>2013-04-21T14:32:53Z</time>
      </trkpt>
      <trkpt lat="59.9533438" lon="17.6777575">
        <ele>28.4962</ele>
        <time>2013-04-21T14:32:54Z</time>
      </trkpt>
      <trkpt lat="59.953389" lon="17.6778825">
        <ele>28.9769</ele>
        <time>2013-04-21T14:32:55Z</time>
      </trkpt>
      <trkpt lat="59.9534337" lon="17.6780088">
        <ele>28.4962</ele>
        <time>2013-04-21T14:32:56Z</time>
      </trkpt>
      <trkpt lat="59.9534801" lon="17.6781348">
        <ele>28.9769</ele>
        <time>2013-04-21T14:32:57Z</time>
      </trkpt>
      <trkpt lat="59.9535275" lon="17.6782598">
        <ele>28.9769</ele>
        <time>2013-04-21T14:32:58Z</time>
      </trkpt>
      <trkpt lat="59.9535738" lon="17.6783861">
        <ele>28.9769</ele>
        <time>2013-04-21T14:32:59Z</time>
      </trkpt>
      <trkpt lat="59.9536204" lon="17.6785144">
        <ele>28.9769</ele>
        <time>2013-04-21T14:33:00Z</time>
      </trkpt>
      <trkpt lat="59.9536679" lon="17.6786441">
        <ele>28.9769</ele>
        <time>2013-04-21T14:33:01Z</time>
      </trkpt>
      <trkpt lat="59.9537157" lon="17.6787741">
        <ele>28.9769</ele>
        <time>2013-04-21T14:33:02Z</time>
      </trkpt>
      <trkpt lat="59.9537632" lon="17.6789051">
        <ele>28.9769</ele>
        <time>2013-04-21T14:33:03Z</time>
      </trkpt>
      <trkpt lat="59.9538104" lon="17.6790382">
        <ele>28.9769</ele>
        <time>2013-04-21T14:33:04Z</time>
      </trkpt>
      <trkpt lat="59.9538587" lon="17.6791719">
        <ele>28.9769</ele>
        <time>2013-04-21T14:33:05Z</time>
      </trkpt>
      <trkpt lat="59.9539041" lon="17.6793031">
        <ele>28.0155</ele>
        <time>2013-04-21T14:33:06Z</time>
      </trkpt>
      <trkpt lat="59.9539495" lon="17.6794345">
        <ele>27.5349</ele>
        <time>2013-04-21T14:33:07Z</time>
      </trkpt>
      <trkpt lat="59.9539966" lon="17.6795666">
        <ele>27.0543</ele>
        <time>2013-04-21T14:33:08Z</time>
      </trkpt>
      <trkpt lat="59.9540444" lon="17.6797002">
        <ele>26.5736</ele>
        <time>2013-04-21T14:33:09Z</time>
      </trkpt>
      <trkpt lat="59.954096" lon="17.6798396">
        <ele>26.5736</ele>
        <time>2013-04-21T14:33:10Z</time>
      </trkpt>
      <trkpt lat="59.9541432" lon="17.6799748">
        <ele>26.0929</ele>
        <time>2013-04-21T14:33:11Z</time>
      </trkpt>
      <trkpt lat="59.9541916" lon="17.6801111">
        <ele>25.6123</ele>
        <time>2013-04-21T14:33:12Z</time>
      </trkpt>
      <trkpt lat="59.9542409" lon="17.6802486">
        <ele>25.6123</ele>
        <time>2013-04-21T14:33:13Z</time>
      </trkpt>
      <trkpt lat="59.9542881" lon="17.6803835">
        <ele>24.651</ele>
        <time>2013-04-21T14:33:14Z</time>
      </trkpt>
      <trkpt lat="59.9543364" lon="17.680519">
        <ele>24.1703</ele>
        <time>2013-04-21T14:33:15Z</time>
      </trkpt>
      <trkpt lat="59.9543843" lon="17.6806543">
        <ele>23.6896</ele>
        <time>2013-04-21T14:33:16Z</time>
      </trkpt>
      <trkpt lat="59.9544326" lon="17.6807906">
        <ele>23.6896</ele>
        <time>2013-04-21T14:33:17Z</time>
      </trkpt>
      <trkpt lat="59.9544775" lon="17.6809201">
        <ele>22.7283</ele>
        <time>2013-04-21T14:33:18Z</time>
      </trkpt>
      <trkpt lat="59.9545217" lon="17.6810526">
        <ele>22.7283</ele>
        <time>2013-04-21T14:33:19Z</time>
      </trkpt>
      <trkpt lat="59.9545664" lon="17.6811839">
        <ele>22.2476</ele>
        <time>2013-04-21T14:33:20Z</time>
      </trkpt>
      <trkpt lat="59.9546096" lon="17.6813129">
        <ele>21.767</ele>
        <time>2013-04-21T14:33:21Z</time>
      </trkpt>
      <trkpt lat="59.9546549" lon="17.6814403">
        <ele>21.767</ele>
        <time>2013-04-21T14:33:22Z</time>
      </trkpt>
      <trkpt lat="59.9547003" lon="17.6815667">
        <ele>21.767</ele>
        <time>2013-04-21T14:33:23Z</time>
      </trkpt>
      <trkpt lat="59.9547408" lon="17.6816873">
        <ele>20.8057</ele>
        <time>2013-04-21T14:33:24Z</time>
      </trkpt>
      <trkpt lat="59.9547821" lon="17.6818131">
        <ele>20.8057</ele>
        <time>2013-04-21T14:33:25Z</time>
      </trkpt>
      <trkpt lat="59.9548241" lon="17.6819427">
        <ele>20.8057</ele>
        <time>2013-04-21T14:33:26Z</time>
      </trkpt>
      <trkpt lat="59.9548651" lon="17.6820669">
        <ele>20.8057</ele>
        <time>2013-04-21T14:33:27Z</time>
      </trkpt>
      <trkpt lat="59.9549038" lon="17.6821857">
        <ele>20.325</ele>
        <time>2013-04-21T14:33:28Z</time>
      </trkpt>
      <trkpt lat="59.9549411" lon="17.6823027">
        <ele>20.325</ele>
        <time>2013-04-21T14:33:29Z</time>
      </trkpt>
      <trkpt lat="59.9549761" lon="17.6824292">
        <ele>19.8444</ele>
        <time>2013-04-21T14:33:30Z</time>
      </trkpt>
      <trkpt lat="59.9550109" lon="17.6825566">
        <ele>19.8444</ele>
        <time>2013-04-21T14:33:31Z</time>
      </trkpt>
      <trkpt lat="59.9550448" lon="17.6826778">
        <ele>19.8444</ele>
        <time>2013-04-21T14:33:32Z</time>
      </trkpt>
      <trkpt lat="59.9550765" lon="17.6828042">
        <ele>19.8444</ele>
        <time>2013-04-21T14:33:33Z</time>
      </trkpt>
      <trkpt lat="59.9551081" lon="17.6829311">
        <ele>20.325</ele>
        <time>2013-04-21T14:33:34Z</time>
      </trkpt>
      <trkpt lat="59.9551371" lon="17.6830559">
        <ele>20.325</ele>
        <time>2013-04-21T14:33:35Z</time>
      </trkpt>
      <trkpt lat="59.9551665" lon="17.6831798">
        <ele>20.8057</ele>
        <time>2013-04-21T14:33:36Z</time>
      </trkpt>
      <trkpt lat="59.9551953" lon="17.6833042">
        <ele>20.8057</ele>
        <time>2013-04-21T14:33:37Z</time>
      </trkpt>
      <trkpt lat="59.9552222" lon="17.6834294">
        <ele>20.8057</ele>
        <time>2013-04-21T14:33:38Z</time>
      </trkpt>
      <trkpt lat="59.9552491" lon="17.6835543">
        <ele>20.8057</ele>
        <time>2013-04-21T14:33:39Z</time>
      </trkpt>
      <trkpt lat="59.9552752" lon="17.6836794">
        <ele>20.8057</ele>
        <time>2013-04-21T14:33:40Z</time>
      </trkpt>
      <trkpt lat="59.9552996" lon="17.6838027">
        <ele>20.8057</ele>
        <time>2013-04-21T14:33:41Z</time>
      </trkpt>
      <trkpt lat="59.9553211" lon="17.6839215">
        <ele>20.8057</ele>
        <time>2013-04-21T14:33:42Z</time>
      </trkpt>
      <trkpt lat="59.9553418" lon="17.6840376">
        <ele>20.8057</ele>
        <time>2013-04-21T14:33:43Z</time>
      </trkpt>
      <trkpt lat="59.9553718" lon="17.6841588">
        <ele>22.2476</ele>
        <time>2013-04-21T14:33:44Z</time>
      </trkpt>
      <trkpt lat="59.9554016" lon="17.6842799">
        <ele>23.209</ele>
        <time>2013-04-21T14:33:45Z</time>
      </trkpt>
      <trkpt lat="59.9554293" lon="17.6843981">
        <ele>23.6896</ele>
        <time>2013-04-21T14:33:46Z</time>
      </trkpt>
      <trkpt lat="59.9554562" lon="17.6845161">
        <ele>24.651</ele>
        <time>2013-04-21T14:33:47Z</time>
      </trkpt>
      <trkpt lat="59.9554821" lon="17.6846349">
        <ele>25.1317</ele>
        <time>2013-04-21T14:33:48Z</time>
      </trkpt>
      <trkpt lat="59.9555059" lon="17.6847536">
        <ele>25.1317</ele>
        <time>2013-04-21T14:33:49Z</time>
      </trkpt>
      <trkpt lat="59.9555304" lon="17.684874">
        <ele>25.6123</ele>
        <time>2013-04-21T14:33:50Z</time>
      </trkpt>
      <trkpt lat="59.9555514" lon="17.6849947">
        <ele>25.1317</ele>
        <time>2013-04-21T14:33:51Z</time>
      </trkpt>
      <trkpt lat="59.9555718" lon="17.6851165">
        <ele>25.1317</ele>
        <time>2013-04-21T14:33:52Z</time>
      </trkpt>
      <trkpt lat="59.9555969" lon="17.6852399">
        <ele>25.6123</ele>
        <time>2013-04-21T14:33:53Z</time>
      </trkpt>
      <trkpt lat="59.955621" lon="17.6853658">
        <ele>26.0929</ele>
        <time>2013-04-21T14:33:54Z</time>
      </trkpt>
      <trkpt lat="59.9556432" lon="17.6854914">
        <ele>26.5736</ele>
        <time>2013-04-21T14:33:55Z</time>
      </trkpt>
      <trkpt lat="59.955664" lon="17.685617">
        <ele>26.0929</ele>
        <time>2013-04-21T14:33:56Z</time>
      </trkpt>
      <trkpt lat="59.955684" lon="17.6857421">
        <ele>26.0929</ele>
        <time>2013-04-21T14:33:57Z</time>
      </trkpt>
      <trkpt lat="59.9557031" lon="17.6858666">
        <ele>26.0929</ele>
        <time>2013-04-21T14:33:58Z</time>
      </trkpt>
      <trkpt lat="59.9557181" lon="17.6859905">
        <ele>25.6123</ele>
        <time>2013-04-21T14:33:59Z</time>
      </trkpt>
      <trkpt lat="59.955734" lon="17.6861161">
        <ele>25.1317</ele>
        <time>2013-04-21T14:34:00Z</time>
      </trkpt>
      <trkpt lat="59.9557516" lon="17.6862421">
        <ele>24.651</ele>
        <time>2013-04-21T14:34:01Z</time>
      </trkpt>
      <trkpt lat="59.9557715" lon="17.6863691">
        <ele>24.1703</ele>
        <time>2013-04-21T14:34:02Z</time>
      </trkpt>
      <trkpt lat="59.9557904" lon="17.6864961">
        <ele>23.6896</ele>
        <time>2013-04-21T14:34:03Z</time>
      </trkpt>
      <trkpt lat="59.9558104" lon="17.6866226">
        <ele>23.6896</ele>
        <time>2013-04-21T14:34:04Z</time>
      </trkpt>
      <trkpt lat="59.9558286" lon="17.6867479">
        <ele>23.209</ele>
        <time>2013-04-21T14:34:05Z</time>
      </trkpt>
      <trkpt lat="59.9558489" lon="17.6868743">
        <ele>23.209</ele>
        <time>2013-04-21T14:34:06Z</time>
      </trkpt>
      <trkpt lat="59.9558684" lon="17.6870045">
        <ele>22.7283</ele>
        <time>2013-04-21T14:34:07Z</time>
      </trkpt>
      <trkpt lat="59.9558886" lon="17.6871359">
        <ele>22.7283</ele>
        <time>2013-04-21T14:34:08Z</time>
      </trkpt>
      <trkpt lat="59.9559079" lon="17.6872711">
        <ele>22.2476</ele>
        <time>2013-04-21T14:34:09Z</time>
      </trkpt>
      <trkpt lat="59.9559271" lon="17.6874083">
        <ele>22.2476</ele>
        <time>2013-04-21T14:34:10Z</time>
      </trkpt>
      <trkpt lat="59.9559476" lon="17.6875398">
        <ele>21.767</ele>
        <time>2013-04-21T14:34:11Z</time>
      </trkpt>
      <trkpt lat="59.9559711" lon="17.6876745">
        <ele>22.2476</ele>
        <time>2013-04-21T14:34:12Z</time>
      </trkpt>
      <trkpt lat="59.9559951" lon="17.6878082">
        <ele>22.2476</ele>
        <time>2013-04-21T14:34:13Z</time>
      </trkpt>
      <trkpt lat="59.9560183" lon="17.6879411">
        <ele>22.2476</ele>
        <time>2013-04-21T14:34:14Z</time>
      </trkpt>
      <trkpt lat="59.9560394" lon="17.6880733">
        <ele>22.7283</ele>
        <time>2013-04-21T14:34:15Z</time>
      </trkpt>
      <trkpt lat="59.9560583" lon="17.6882045">
        <ele>23.209</ele>
        <time>2013-04-21T14:34:16Z</time>
      </trkpt>
      <trkpt lat="59.9560787" lon="17.6883351">
        <ele>23.209</ele>
        <time>2013-04-21T14:34:17Z</time>
      </trkpt>
      <trkpt lat="59.9560973" lon="17.6884669">
        <ele>23.209</ele>
        <time>2013-04-21T14:34:18Z</time>
      </trkpt>
      <trkpt lat="59.9561172" lon="17.6885956">
        <ele>23.209</ele>
        <time>2013-04-21T14:34:19Z</time>
      </trkpt>
      <trkpt lat="59.9561419" lon="17.6887198">
        <ele>23.209</ele>
        <time>2013-04-21T14:34:20Z</time>
      </trkpt>
      <trkpt lat="59.9561617" lon="17.6888419">
        <ele>22.2476</ele>
        <time>2013-04-21T14:34:21Z</time>
      </trkpt>
      <trkpt lat="59.9561847" lon="17.6889683">
        <ele>22.7283</ele>
        <time>2013-04-21T14:34:22Z</time>
      </trkpt>
      <trkpt lat="59.9562097" lon="17.6890968">
        <ele>23.209</ele>
        <time>2013-04-21T14:34:23Z</time>
      </trkpt>
      <trkpt lat="59.9562313" lon="17.6892239">
        <ele>22.7283</ele>
        <time>2013-04-21T14:34:24Z</time>
      </trkpt>
      <trkpt lat="59.9562576" lon="17.6893504">
        <ele>23.6896</ele>
        <time>2013-04-21T14:34:25Z</time>
      </trkpt>
      <trkpt lat="59.9562821" lon="17.6894741">
        <ele>24.1703</ele>
        <time>2013-04-21T14:34:26Z</time>
      </trkpt>
      <trkpt lat="59.9563078" lon="17.6895947">
        <ele>24.1703</ele>
        <time>2013-04-21T14:34:27Z</time>
      </trkpt>
      <trkpt lat="59.9563383" lon="17.6897155">
        <ele>25.1317</ele>
        <time>2013-04-21T14:34:28Z</time>
      </trkpt>
      <trkpt lat="59.9563663" lon="17.6898335">
        <ele>25.1317</ele>
        <time>2013-04-21T14:34:29Z</time>
      </trkpt>
      <trkpt lat="59.9563955" lon="17.6899518">
        <ele>25.6123</ele>
        <time>2013-04-21T14:34:30Z</time>
      </trkpt>
      <trkpt lat="59.9564255" lon="17.6900709">
        <ele>26.0929</ele>
        <time>2013-04-21T14:34:31Z</time>
      </trkpt>
      <trkpt lat="59.9564601" lon="17.6901796">
        <ele>25.6123</ele>
        <time>2013-04-21T14:34:32Z</time>
      </trkpt>
      <trkpt lat="59.9564972" lon="17.6902842">
        <ele>25.6123</ele>
        <time>2013-04-21T14:34:33Z</time>
      </trkpt>
      <trkpt lat="59.9565368" lon="17.6903811">
        <ele>25.1317</ele>
        <time>2013-04-21T14:34:34Z</time>
      </trkpt>
      <trkpt lat="59.9565727" lon="17.6904873">
        <ele>25.1317</ele>
        <time>2013-04-21T14:34:35Z</time>
      </trkpt>
      <trkpt lat="59.9566065" lon="17.6905957">
        <ele>24.1703</ele>
        <time>2013-04-21T14:34:36Z</time>
      </trkpt>
      <trkpt lat="59.9566423" lon="17.6907106">
        <ele>23.6896</ele>
        <time>2013-04-21T14:34:37Z</time>
      </trkpt>
      <trkpt lat="59.9566798" lon="17.6908313">
        <ele>23.209</ele>
        <time>2013-04-21T14:34:38Z</time>
      </trkpt>
      <trkpt lat="59.9567181" lon="17.6909533">
        <ele>23.209</ele>
        <time>2013-04-21T14:34:39Z</time>
      </trkpt>
      <trkpt lat="59.9567593" lon="17.6910789">
        <ele>23.209</ele>
        <time>2013-04-21T14:34:40Z</time>
      </trkpt>
      <trkpt lat="59.9568015" lon="17.6912085">
        <ele>22.7283</ele>
        <time>2013-04-21T14:34:41Z</time>
      </trkpt>
      <trkpt lat="59.956845" lon="17.6913413">
        <ele>22.7283</ele>
        <time>2013-04-21T14:34:42Z</time>
      </trkpt>
      <trkpt lat="59.9568884" lon="17.6914762">
        <ele>22.2476</ele>
        <time>2013-04-21T14:34:43Z</time>
      </trkpt>
      <trkpt lat="59.9569316" lon="17.6916115">
        <ele>21.767</ele>
        <time>2013-04-21T14:34:44Z</time>
      </trkpt>
      <trkpt lat="59.9569749" lon="17.6917471">
        <ele>21.767</ele>
        <time>2013-04-21T14:34:45Z</time>
      </trkpt>
      <trkpt lat="59.957018" lon="17.6918814">
        <ele>21.767</ele>
        <time>2013-04-21T14:34:46Z</time>
      </trkpt>
      <trkpt lat="59.9570617" lon="17.6920119">
        <ele>21.767</ele>
        <time>2013-04-21T14:34:47Z</time>
      </trkpt>
      <trkpt lat="59.957104" lon="17.6921413">
        <ele>21.767</ele>
        <time>2013-04-21T14:34:48Z</time>
      </trkpt>
      <trkpt lat="59.9571455" lon="17.6922704">
        <ele>21.767</ele>
        <time>2013-04-21T14:34:49Z</time>
      </trkpt>
      <trkpt lat="59.957188" lon="17.6923965">
        <ele>21.767</ele>
        <time>2013-04-21T14:34:50Z</time>
      </trkpt>
      <trkpt lat="59.957229" lon="17.6925174">
        <ele>21.767</ele>
        <time>2013-04-21T14:34:51Z</time>
      </trkpt>
      <trkpt lat="59.9572702" lon="17.6926365">
        <ele>21.767</ele>
        <time>2013-04-21T14:34:52Z</time>
      </trkpt>
      <trkpt lat="59.9573108" lon="17.6927687">
        <ele>21.767</ele>
        <time>2013-04-21T14:34:53Z</time>
      </trkpt>
      <trkpt lat="59.9573527" lon="17.6928912">
        <ele>21.767</ele>
        <time>2013-04-21T14:34:54Z</time>
      </trkpt>
      <trkpt lat="59.9573939" lon="17.6930093">
        <ele>21.767</ele>
        <time>2013-04-21T14:34:55Z</time>
      </trkpt>
      <trkpt lat="59.9574364" lon="17.6931275">
        <ele>21.767</ele>
        <time>2013-04-21T14:34:56Z</time>
      </trkpt>
      <trkpt lat="59.9574785" lon="17.6932467">
        <ele>21.767</ele>
        <time>2013-04-21T14:34:57Z</time>
      </trkpt>
      <trkpt lat="59.9575203" lon="17.6933669">
        <ele>21.767</ele>
        <time>2013-04-21T14:34:58Z</time>
      </trkpt>
      <trkpt lat="59.9575615" lon="17.6934875">
        <ele>21.767</ele>
        <time>2013-04-21T14:34:59Z</time>
      </trkpt>
      <trkpt lat="59.9576034" lon="17.6936076">
        <ele>22.2476</ele>
        <time>2013-04-21T14:35:00Z</time>
      </trkpt>
      <trkpt lat="59.9576442" lon="17.6937288">
        <ele>22.2476</ele>
        <time>2013-04-21T14:35:01Z</time>
      </trkpt>
      <trkpt lat="59.9576847" lon="17.6938502">
        <ele>22.2476</ele>
        <time>2013-04-21T14:35:02Z</time>
      </trkpt>
      <trkpt lat="59.9577262" lon="17.6939709">
        <ele>22.2476</ele>
        <time>2013-04-21T14:35:03Z</time>
      </trkpt>
      <trkpt lat="59.9577682" lon="17.6940904">
        <ele>22.2476</ele>
        <time>2013-04-21T14:35:04Z</time>
      </trkpt>
      <trkpt lat="59.95781" lon="17.6942102">
        <ele>22.2476</ele>
        <time>2013-04-21T14:35:05Z</time>
      </trkpt>
      <trkpt lat="59.9578514" lon="17.694331">
        <ele>22.7283</ele>
        <time>2013-04-21T14:35:06Z</time>
      </trkpt>
      <trkpt lat="59.9578913" lon="17.6944522">
        <ele>22.2476</ele>
        <time>2013-04-21T14:35:07Z</time>
      </trkpt>
      <trkpt lat="59.9579316" lon="17.6945713">
        <ele>22.7283</ele>
        <time>2013-04-21T14:35:08Z</time>
      </trkpt>
      <trkpt lat="59.9579716" lon="17.694691">
        <ele>22.7283</ele>
        <time>2013-04-21T14:35:09Z</time>
      </trkpt>
      <trkpt lat="59.9580122" lon="17.6948101">
        <ele>22.7283</ele>
        <time>2013-04-21T14:35:10Z</time>
      </trkpt>
      <trkpt lat="59.9580529" lon="17.6949287">
        <ele>22.7283</ele>
        <time>2013-04-21T14:35:11Z</time>
      </trkpt>
      <trkpt lat="59.9580945" lon="17.6950459">
        <ele>22.7283</ele>
        <time>2013-04-21T14:35:12Z</time>
      </trkpt>
      <trkpt lat="59.9581374" lon="17.6951618">
        <ele>22.7283</ele>
        <time>2013-04-21T14:35:13Z</time>
      </trkpt>
      <trkpt lat="59.9581799" lon="17.6952778">
        <ele>22.7283</ele>
        <time>2013-04-21T14:35:14Z</time>
      </trkpt>
      <trkpt lat="59.9582234" lon="17.6953937">
        <ele>22.7283</ele>
        <time>2013-04-21T14:35:15Z</time>
      </trkpt>
      <trkpt lat="59.9582671" lon="17.6955084">
        <ele>22.7283</ele>
        <time>2013-04-21T14:35:16Z</time>
      </trkpt>
      <trkpt lat="59.9583114" lon="17.6956219">
        <ele>22.7283</ele>
        <time>2013-04-21T14:35:17Z</time>
      </trkpt>
      <trkpt lat="59.9583561" lon="17.6957356">
        <ele>22.7283</ele>
        <time>2013-04-21T14:35:18Z</time>
      </trkpt>
      <trkpt lat="59.958402" lon="17.6958494">
        <ele>22.7283</ele>
        <time>2013-04-21T14:35:19Z</time>
      </trkpt>
      <trkpt lat="59.9584482" lon="17.6959622">
        <ele>22.7283</ele>
        <time>2013-04-21T14:35:20Z</time>
      </trkpt>
      <trkpt lat="59.9584948" lon="17.6960745">
        <ele>22.7283</ele>
        <time>2013-04-21T14:35:21Z</time>
      </trkpt>
      <trkpt lat="59.9585409" lon="17.6961881">
        <ele>23.209</ele>
        <time>2013-04-21T14:35:22Z</time>
      </trkpt>
      <trkpt lat="59.9585876" lon="17.696303">
        <ele>23.209</ele>
        <time>2013-04-21T14:35:23Z</time>
      </trkpt>
      <trkpt lat="59.9586337" lon="17.6964196">
        <ele>23.209</ele>
        <time>2013-04-21T14:35:24Z</time>
      </trkpt>
      <trkpt lat="59.9586767" lon="17.6965392">
        <ele>23.6896</ele>
        <time>2013-04-21T14:35:25Z</time>
      </trkpt>
      <trkpt lat="59.9587182" lon="17.6966625">
        <ele>23.6896</ele>
        <time>2013-04-21T14:35:26Z</time>
      </trkpt>
      <trkpt lat="59.9587552" lon="17.696789">
        <ele>23.6896</ele>
        <time>2013-04-21T14:35:27Z</time>
      </trkpt>
      <trkpt lat="59.9587885" lon="17.6969196">
        <ele>23.6896</ele>
        <time>2013-04-21T14:35:28Z</time>
      </trkpt>
      <trkpt lat="59.958818" lon="17.6970521">
        <ele>24.1703</ele>
        <time>2013-04-21T14:35:29Z</time>
      </trkpt>
      <trkpt lat="59.9588451" lon="17.6971857">
        <ele>24.1703</ele>
        <time>2013-04-21T14:35:30Z</time>
      </trkpt>
      <trkpt lat="59.9588714" lon="17.6973181">
        <ele>24.1703</ele>
        <time>2013-04-21T14:35:31Z</time>
      </trkpt>
      <trkpt lat="59.9588974" lon="17.6974482">
        <ele>24.651</ele>
        <time>2013-04-21T14:35:32Z</time>
      </trkpt>
      <trkpt lat="59.9589213" lon="17.6975753">
        <ele>24.651</ele>
        <time>2013-04-21T14:35:33Z</time>
      </trkpt>
      <trkpt lat="59.9589435" lon="17.6976996">
        <ele>25.1317</ele>
        <time>2013-04-21T14:35:34Z</time>
      </trkpt>
      <trkpt lat="59.958963" lon="17.697819">
        <ele>25.6123</ele>
        <time>2013-04-21T14:35:35Z</time>
      </trkpt>
      <trkpt lat="59.9589764" lon="17.6979326">
        <ele>26.0929</ele>
        <time>2013-04-21T14:35:36Z</time>
      </trkpt>
      <trkpt lat="59.9589861" lon="17.6980446">
        <ele>26.5736</ele>
        <time>2013-04-21T14:35:37Z</time>
      </trkpt>
      <trkpt lat="59.9589937" lon="17.6981533">
        <ele>27.0543</ele>
        <time>2013-04-21T14:35:38Z</time>
      </trkpt>
      <trkpt lat="59.9589993" lon="17.6982625">
        <ele>27.5349</ele>
        <time>2013-04-21T14:35:39Z</time>
      </trkpt>
      <trkpt lat="59.9590039" lon="17.6983741">
        <ele>27.5349</ele>
        <time>2013-04-21T14:35:40Z</time>
      </trkpt>
      <trkpt lat="59.9590061" lon="17.6984875">
        <ele>27.0543</ele>
        <time>2013-04-21T14:35:41Z</time>
      </trkpt>
      <trkpt lat="59.9590096" lon="17.6985978">
        <ele>27.5349</ele>
        <time>2013-04-21T14:35:42Z</time>
      </trkpt>
      <trkpt lat="59.9590103" lon="17.6987049">
        <ele>27.0543</ele>
        <time>2013-04-21T14:35:43Z</time>
      </trkpt>
      <trkpt lat="59.9590108" lon="17.6988198">
        <ele>27.0543</ele>
        <time>2013-04-21T14:35:44Z</time>
      </trkpt>
      <trkpt lat="59.9590119" lon="17.6989338">
        <ele>27.0543</ele>
        <time>2013-04-21T14:35:45Z</time>
      </trkpt>
      <trkpt lat="59.9590144" lon="17.6990469">
        <ele>27.5349</ele>
        <time>2013-04-21T14:35:46Z</time>
      </trkpt>
      <trkpt lat="59.959016" lon="17.6991636">
        <ele>27.0543</ele>
        <time>2013-04-21T14:35:47Z</time>
      </trkpt>
      <trkpt lat="59.9590191" lon="17.699285">
        <ele>27.5349</ele>
        <time>2013-04-21T14:35:48Z</time>
      </trkpt>
      <trkpt lat="59.9590231" lon="17.699409">
        <ele>27.5349</ele>
        <time>2013-04-21T14:35:49Z</time>
      </trkpt>
      <trkpt lat="59.9590296" lon="17.6995348">
        <ele>27.5349</ele>
        <time>2013-04-21T14:35:50Z</time>
      </trkpt>
      <trkpt lat="59.9590375" lon="17.6996604">
        <ele>27.0543</ele>
        <time>2013-04-21T14:35:51Z</time>
      </trkpt>
      <trkpt lat="59.9590466" lon="17.6997882">
        <ele>27.0543</ele>
        <time>2013-04-21T14:35:52Z</time>
      </trkpt>
      <trkpt lat="59.9590568" lon="17.6999176">
        <ele>27.0543</ele>
        <time>2013-04-21T14:35:53Z</time>
      </trkpt>
      <trkpt lat="59.9590658" lon="17.7000476">
        <ele>27.0543</ele>
        <time>2013-04-21T14:35:54Z</time>
      </trkpt>
      <trkpt lat="59.9590744" lon="17.7001777">
        <ele>27.0543</ele>
        <time>2013-04-21T14:35:55Z</time>
      </trkpt>
      <trkpt lat="59.9590832" lon="17.7003079">
        <ele>27.0543</ele>
        <time>2013-04-21T14:35:56Z</time>
      </trkpt>
      <trkpt lat="59.9590935" lon="17.7004393">
        <ele>27.0543</ele>
        <time>2013-04-21T14:35:57Z</time>
      </trkpt>
      <trkpt lat="59.9591046" lon="17.7005705">
        <ele>27.0543</ele>
        <time>2013-04-21T14:35:58Z</time>
      </trkpt>
      <trkpt lat="59.9591158" lon="17.7007004">
        <ele>27.0543</ele>
        <time>2013-04-21T14:35:59Z</time>
      </trkpt>
      <trkpt lat="59.9591282" lon="17.7008276">
        <ele>27.5349</ele>
        <time>2013-04-21T14:36:00Z</time>
      </trkpt>
      <trkpt lat="59.9591411" lon="17.700952">
        <ele>27.5349</ele>
        <time>2013-04-21T14:36:01Z</time>
      </trkpt>
      <trkpt lat="59.9591544" lon="17.7010717">
        <ele>27.5349</ele>
        <time>2013-04-21T14:36:02Z</time>
      </trkpt>
      <trkpt lat="59.9591678" lon="17.7011884">
        <ele>28.0155</ele>
        <time>2013-04-21T14:36:03Z</time>
      </trkpt>
      <trkpt lat="59.9591823" lon="17.7013013">
        <ele>28.4962</ele>
        <time>2013-04-21T14:36:04Z</time>
      </trkpt>
      <trkpt lat="59.9591988" lon="17.7014111">
        <ele>28.4962</ele>
        <time>2013-04-21T14:36:05Z</time>
      </trkpt>
      <trkpt lat="59.959217" lon="17.7015198">
        <ele>28.4962</ele>
        <time>2013-04-21T14:36:06Z</time>
      </trkpt>
      <trkpt lat="59.9592377" lon="17.7016297">
        <ele>28.9769</ele>
        <time>2013-04-21T14:36:07Z</time>
      </trkpt>
      <trkpt lat="59.9592622" lon="17.7017402">
        <ele>28.9769</ele>
        <time>2013-04-21T14:36:08Z</time>
      </trkpt>
      <trkpt lat="59.9592895" lon="17.701853">
        <ele>29.4575</ele>
        <time>2013-04-21T14:36:09Z</time>
      </trkpt>
      <trkpt lat="59.9593194" lon="17.7019619">
        <ele>30.4188</ele>
        <time>2013-04-21T14:36:10Z</time>
      </trkpt>
      <trkpt lat="59.9593478" lon="17.7020822">
        <ele>29.4575</ele>
        <time>2013-04-21T14:36:11Z</time>
      </trkpt>
      <trkpt lat="59.9593771" lon="17.7022012">
        <ele>28.9769</ele>
        <time>2013-04-21T14:36:12Z</time>
      </trkpt>
      <trkpt lat="59.95941" lon="17.7023136">
        <ele>28.9769</ele>
        <time>2013-04-21T14:36:13Z</time>
      </trkpt>
      <trkpt lat="59.9594438" lon="17.7024239">
        <ele>28.9769</ele>
        <time>2013-04-21T14:36:14Z</time>
      </trkpt>
      <trkpt lat="59.9594769" lon="17.7025321">
        <ele>28.9769</ele>
        <time>2013-04-21T14:36:15Z</time>
      </trkpt>
      <trkpt lat="59.959512" lon="17.7026393">
        <ele>29.4575</ele>
        <time>2013-04-21T14:36:16Z</time>
      </trkpt>
      <trkpt lat="59.9595468" lon="17.7027433">
        <ele>29.9381</ele>
        <time>2013-04-21T14:36:17Z</time>
      </trkpt>
      <trkpt lat="59.9595817" lon="17.7028485">
        <ele>30.4188</ele>
        <time>2013-04-21T14:36:18Z</time>
      </trkpt>
      <trkpt lat="59.9596153" lon="17.702957">
        <ele>30.4188</ele>
        <time>2013-04-21T14:36:19Z</time>
      </trkpt>
      <trkpt lat="59.9596489" lon="17.7030728">
        <ele>30.4188</ele>
        <time>2013-04-21T14:36:20Z</time>
      </trkpt>
      <trkpt lat="59.9596827" lon="17.7031909">
        <ele>29.9381</ele>
        <time>2013-04-21T14:36:21Z</time>
      </trkpt>
      <trkpt lat="59.9597172" lon="17.7033138">
        <ele>29.9381</ele>
        <time>2013-04-21T14:36:22Z</time>
      </trkpt>
      <trkpt lat="59.9597567" lon="17.7034386">
        <ele>29.9381</ele>
        <time>2013-04-21T14:36:23Z</time>
      </trkpt>
      <trkpt lat="59.9598052" lon="17.7035857">
        <ele>29.9381</ele>
        <time>2013-04-21T14:36:24Z</time>
      </trkpt>
      <trkpt lat="59.9598495" lon="17.7037143">
        <ele>29.9381</ele>
        <time>2013-04-21T14:36:25Z</time>
      </trkpt>
      <trkpt lat="59.959894" lon="17.7038285">
        <ele>29.4575</ele>
        <time>2013-04-21T14:36:26Z</time>
      </trkpt>
      <trkpt lat="59.9599344" lon="17.7039587">
        <ele>28.4962</ele>
        <time>2013-04-21T14:36:27Z</time>
      </trkpt>
      <trkpt lat="59.9599729" lon="17.7040711">
        <ele>28.0155</ele>
        <time>2013-04-21T14:36:28Z</time>
      </trkpt>
      <trkpt lat="59.9600209" lon="17.7041897">
        <ele>28.0155</ele>
        <time>2013-04-21T14:36:29Z</time>
      </trkpt>
      <trkpt lat="59.9600674" lon="17.7042892">
        <ele>28.0155</ele>
        <time>2013-04-21T14:36:30Z</time>
      </trkpt>
      <trkpt lat="59.9601199" lon="17.7043758">
        <ele>27.5349</ele>
        <time>2013-04-21T14:36:31Z</time>
      </trkpt>
      <trkpt lat="59.9601784" lon="17.7044528">
        <ele>27.0543</ele>
        <time>2013-04-21T14:36:32Z</time>
      </trkpt>
      <trkpt lat="59.9602399" lon="17.7045294">
        <ele>27.0543</ele>
        <time>2013-04-21T14:36:33Z</time>
      </trkpt>
      <trkpt lat="59.9603012" lon="17.704604">
        <ele>27.0543</ele>
        <time>2013-04-21T14:36:34Z</time>
      </trkpt>
      <trkpt lat="59.9603627" lon="17.7046853">
        <ele>26.5736</ele>
        <time>2013-04-21T14:36:35Z</time>
      </trkpt>
      <trkpt lat="59.9604249" lon="17.7047614">
        <ele>26.5736</ele>
        <time>2013-04-21T14:36:36Z</time>
      </trkpt>
      <trkpt lat="59.9604873" lon="17.7048418">
        <ele>26.5736</ele>
        <time>2013-04-21T14:36:37Z</time>
      </trkpt>
      <trkpt lat="59.9605498" lon="17.7049207">
        <ele>26.5736</ele>
        <time>2013-04-21T14:36:38Z</time>
      </trkpt>
      <trkpt lat="59.9606111" lon="17.7049948">
        <ele>26.0929</ele>
        <time>2013-04-21T14:36:39Z</time>
      </trkpt>
      <trkpt lat="59.9606722" lon="17.7050759">
        <ele>26.0929</ele>
        <time>2013-04-21T14:36:40Z</time>
      </trkpt>
      <trkpt lat="59.9607363" lon="17.7051579">
        <ele>26.0929</ele>
        <time>2013-04-21T14:36:41Z</time>
      </trkpt>
      <trkpt lat="59.9607974" lon="17.7052401">
        <ele>26.0929</ele>
        <time>2013-04-21T14:36:42Z</time>
      </trkpt>
      <trkpt lat="59.9608553" lon="17.7053236">
        <ele>26.0929</ele>
        <time>2013-04-21T14:36:43Z</time>
      </trkpt>
      <trkpt lat="59.9609129" lon="17.7054125">
        <ele>26.0929</ele>
        <time>2013-04-21T14:36:44Z</time>
      </trkpt>
      <trkpt lat="59.960972" lon="17.7055029">
        <ele>26.0929</ele>
        <time>2013-04-21T14:36:45Z</time>
      </trkpt>
      <trkpt lat="59.9610317" lon="17.705593">
        <ele>26.5736</ele>
        <time>2013-04-21T14:36:46Z</time>
      </trkpt>
      <trkpt lat="59.9610886" lon="17.7056877">
        <ele>26.5736</ele>
        <time>2013-04-21T14:36:47Z</time>
      </trkpt>
      <trkpt lat="59.9611445" lon="17.7057863">
        <ele>27.0543</ele>
        <time>2013-04-21T14:36:48Z</time>
      </trkpt>
      <trkpt lat="59.9612003" lon="17.7058832">
        <ele>27.0543</ele>
        <time>2013-04-21T14:36:49Z</time>
      </trkpt>
      <trkpt lat="59.9612552" lon="17.7059808">
        <ele>27.0543</ele>
        <time>2013-04-21T14:36:50Z</time>
      </trkpt>
      <trkpt lat="59.9613082" lon="17.7060834">
        <ele>27.0543</ele>
        <time>2013-04-21T14:36:51Z</time>
      </trkpt>
      <trkpt lat="59.9613626" lon="17.7061855">
        <ele>27.0543</ele>
        <time>2013-04-21T14:36:52Z</time>
      </trkpt>
      <trkpt lat="59.9614174" lon="17.7062809">
        <ele>27.0543</ele>
        <time>2013-04-21T14:36:53Z</time>
      </trkpt>
      <trkpt lat="59.9614739" lon="17.7063734">
        <ele>27.5349</ele>
        <time>2013-04-21T14:36:54Z</time>
      </trkpt>
      <trkpt lat="59.9615318" lon="17.7064598">
        <ele>27.0543</ele>
        <time>2013-04-21T14:36:55Z</time>
      </trkpt>
      <trkpt lat="59.9615939" lon="17.7065387">
        <ele>27.0543</ele>
        <time>2013-04-21T14:36:56Z</time>
      </trkpt>
      <trkpt lat="59.9616559" lon="17.7066171">
        <ele>27.5349</ele>
        <time>2013-04-21T14:36:57Z</time>
      </trkpt>
      <trkpt lat="59.9617179" lon="17.7066903">
        <ele>27.5349</ele>
        <time>2013-04-21T14:36:58Z</time>
      </trkpt>
      <trkpt lat="59.9617898" lon="17.7067565">
        <ele>28.0155</ele>
        <time>2013-04-21T14:36:59Z</time>
      </trkpt>
      <trkpt lat="59.961864" lon="17.7068144">
        <ele>28.0155</ele>
        <time>2013-04-21T14:37:00Z</time>
      </trkpt>
      <trkpt lat="59.9619412" lon="17.7068654">
        <ele>28.4962</ele>
        <time>2013-04-21T14:37:01Z</time>
      </trkpt>
      <trkpt lat="59.9620168" lon="17.7069132">
        <ele>28.9769</ele>
        <time>2013-04-21T14:37:02Z</time>
      </trkpt>
      <trkpt lat="59.9620898" lon="17.7069565">
        <ele>28.9769</ele>
        <time>2013-04-21T14:37:03Z</time>
      </trkpt>
      <trkpt lat="59.9621544" lon="17.7069963">
        <ele>28.4962</ele>
        <time>2013-04-21T14:37:04Z</time>
      </trkpt>
      <trkpt lat="59.9622226" lon="17.7070347">
        <ele>28.0155</ele>
        <time>2013-04-21T14:37:05Z</time>
      </trkpt>
      <trkpt lat="59.9622898" lon="17.7070692">
        <ele>27.5349</ele>
        <time>2013-04-21T14:37:06Z</time>
      </trkpt>
      <trkpt lat="59.9623632" lon="17.707103">
        <ele>28.0155</ele>
        <time>2013-04-21T14:37:07Z</time>
      </trkpt>
      <trkpt lat="59.9624327" lon="17.7071341">
        <ele>27.5349</ele>
        <time>2013-04-21T14:37:08Z</time>
      </trkpt>
      <trkpt lat="59.9625034" lon="17.707159">
        <ele>27.5349</ele>
        <time>2013-04-21T14:37:09Z</time>
      </trkpt>
      <trkpt lat="59.9625717" lon="17.7071801">
        <ele>27.0543</ele>
        <time>2013-04-21T14:37:10Z</time>
      </trkpt>
      <trkpt lat="59.9626416" lon="17.7072029">
        <ele>26.0929</ele>
        <time>2013-04-21T14:37:11Z</time>
      </trkpt>
      <trkpt lat="59.9627149" lon="17.7072154">
        <ele>26.0929</ele>
        <time>2013-04-21T14:37:12Z</time>
      </trkpt>
      <trkpt lat="59.9627814" lon="17.7072237">
        <ele>24.651</ele>
        <time>2013-04-21T14:37:13Z</time>
      </trkpt>
      <trkpt lat="59.9628518" lon="17.7072303">
        <ele>23.6896</ele>
        <time>2013-04-21T14:37:14Z</time>
      </trkpt>
      <trkpt lat="59.9629262" lon="17.7072287">
        <ele>22.7283</ele>
        <time>2013-04-21T14:37:15Z</time>
      </trkpt>
      <trkpt lat="59.9630032" lon="17.7072274">
        <ele>22.2476</ele>
        <time>2013-04-21T14:37:16Z</time>
      </trkpt>
      <trkpt lat="59.9630835" lon="17.7072258">
        <ele>22.7283</ele>
        <time>2013-04-21T14:37:17Z</time>
      </trkpt>
      <trkpt lat="59.9631643" lon="17.7072283">
        <ele>22.2476</ele>
        <time>2013-04-21T14:37:18Z</time>
      </trkpt>
      <trkpt lat="59.9632472" lon="17.7072256">
        <ele>22.2476</ele>
        <time>2013-04-21T14:37:19Z</time>
      </trkpt>
      <trkpt lat="59.9633293" lon="17.707223">
        <ele>22.2476</ele>
        <time>2013-04-21T14:37:20Z</time>
      </trkpt>
      <trkpt lat="59.9634127" lon="17.7072196">
        <ele>22.2476</ele>
        <time>2013-04-21T14:37:21Z</time>
      </trkpt>
      <trkpt lat="59.9634956" lon="17.7072216">
        <ele>21.767</ele>
        <time>2013-04-21T14:37:22Z</time>
      </trkpt>
      <trkpt lat="59.9635779" lon="17.7072267">
        <ele>21.2864</ele>
        <time>2013-04-21T14:37:23Z</time>
      </trkpt>
      <trkpt lat="59.9636619" lon="17.7072309">
        <ele>21.767</ele>
        <time>2013-04-21T14:37:24Z</time>
      </trkpt>
      <trkpt lat="59.9637449" lon="17.7072375">
        <ele>21.767</ele>
        <time>2013-04-21T14:37:25Z</time>
      </trkpt>
      <trkpt lat="59.9638268" lon="17.707246">
        <ele>21.767</ele>
        <time>2013-04-21T14:37:26Z</time>
      </trkpt>
      <trkpt lat="59.9639072" lon="17.707261">
        <ele>21.767</ele>
        <time>2013-04-21T14:37:27Z</time>
      </trkpt>
      <trkpt lat="59.9639893" lon="17.7072751">
        <ele>21.767</ele>
        <time>2013-04-21T14:37:28Z</time>
      </trkpt>
      <trkpt lat="59.9640702" lon="17.7072921">
        <ele>21.2864</ele>
        <time>2013-04-21T14:37:29Z</time>
      </trkpt>
      <trkpt lat="59.9641516" lon="17.7073106">
        <ele>21.2864</ele>
        <time>2013-04-21T14:37:30Z</time>
      </trkpt>
      <trkpt lat="59.9642338" lon="17.7073331">
        <ele>20.8057</ele>
        <time>2013-04-21T14:37:31Z</time>
      </trkpt>
      <trkpt lat="59.9643159" lon="17.707362">
        <ele>20.8057</ele>
        <time>2013-04-21T14:37:32Z</time>
      </trkpt>
      <trkpt lat="59.9643993" lon="17.7073984">
        <ele>20.8057</ele>
        <time>2013-04-21T14:37:33Z</time>
      </trkpt>
      <trkpt lat="59.9644823" lon="17.7074376">
        <ele>20.8057</ele>
        <time>2013-04-21T14:37:34Z</time>
      </trkpt>
      <trkpt lat="59.9645642" lon="17.7074815">
        <ele>20.8057</ele>
        <time>2013-04-21T14:37:35Z</time>
      </trkpt>
      <trkpt lat="59.9646453" lon="17.7075313">
        <ele>20.8057</ele>
        <time>2013-04-21T14:37:36Z</time>
      </trkpt>
      <trkpt lat="59.9647246" lon="17.7075848">
        <ele>20.8057</ele>
        <time>2013-04-21T14:37:37Z</time>
      </trkpt>
      <trkpt lat="59.9648037" lon="17.7076407">
        <ele>20.8057</ele>
        <time>2013-04-21T14:37:38Z</time>
      </trkpt>
      <trkpt lat="59.9648824" lon="17.7076982">
        <ele>20.8057</ele>
        <time>2013-04-21T14:37:39Z</time>
      </trkpt>
      <trkpt lat="59.9649596" lon="17.7077591">
        <ele>20.325</ele>
        <time>2013-04-21T14:37:40Z</time>
      </trkpt>
      <trkpt lat="59.9650378" lon="17.707821">
        <ele>20.325</ele>
        <time>2013-04-21T14:37:41Z</time>
      </trkpt>
      <trkpt lat="59.9651165" lon="17.7078811">
        <ele>20.325</ele>
        <time>2013-04-21T14:37:42Z</time>
      </trkpt>
      <trkpt lat="59.9651953" lon="17.7079441">
        <ele>19.8444</ele>
        <time>2013-04-21T14:37:43Z</time>
      </trkpt>
      <trkpt lat="59.965272" lon="17.7080115">
        <ele>19.3638</ele>
        <time>2013-04-21T14:37:44Z</time>
      </trkpt>
      <trkpt lat="59.9653466" lon="17.7080814">
        <ele>19.3638</ele>
        <time>2013-04-21T14:37:45Z</time>
      </trkpt>
      <trkpt lat="59.9654192" lon="17.7081531">
        <ele>19.3638</ele>
        <time>2013-04-21T14:37:46Z</time>
      </trkpt>
      <trkpt lat="59.9654899" lon="17.7082293">
        <ele>19.3638</ele>
        <time>2013-04-21T14:37:47Z</time>
      </trkpt>
      <trkpt lat="59.9655572" lon="17.7083131">
        <ele>19.3638</ele>
        <time>2013-04-21T14:37:48Z</time>
      </trkpt>
      <trkpt lat="59.9656211" lon="17.7084047">
        <ele>19.3638</ele>
        <time>2013-04-21T14:37:49Z</time>
      </trkpt>
      <trkpt lat="59.9656802" lon="17.7085062">
        <ele>19.3638</ele>
        <time>2013-04-21T14:37:50Z</time>
      </trkpt>
      <trkpt lat="59.9657349" lon="17.7086152">
        <ele>19.3638</ele>
        <time>2013-04-21T14:37:51Z</time>
      </trkpt>
      <trkpt lat="59.9657842" lon="17.7087336">
        <ele>19.3638</ele>
        <time>2013-04-21T14:37:52Z</time>
      </trkpt>
      <trkpt lat="59.9658314" lon="17.7088518">
        <ele>19.3638</ele>
        <time>2013-04-21T14:37:53Z</time>
      </trkpt>
      <trkpt lat="59.9658748" lon="17.7089733">
        <ele>19.3638</ele>
        <time>2013-04-21T14:37:54Z</time>
      </trkpt>
      <trkpt lat="59.9659169" lon="17.7091021">
        <ele>19.3638</ele>
        <time>2013-04-21T14:37:55Z</time>
      </trkpt>
      <trkpt lat="59.9659582" lon="17.7092358">
        <ele>19.8444</ele>
        <time>2013-04-21T14:37:56Z</time>
      </trkpt>
      <trkpt lat="59.965998" lon="17.7093714">
        <ele>19.8444</ele>
        <time>2013-04-21T14:37:57Z</time>
      </trkpt>
      <trkpt lat="59.9660377" lon="17.7095087">
        <ele>19.8444</ele>
        <time>2013-04-21T14:37:58Z</time>
      </trkpt>
      <trkpt lat="59.9660779" lon="17.7096464">
        <ele>20.325</ele>
        <time>2013-04-21T14:37:59Z</time>
      </trkpt>
      <trkpt lat="59.9661174" lon="17.7097857">
        <ele>20.8057</ele>
        <time>2013-04-21T14:38:00Z</time>
      </trkpt>
      <trkpt lat="59.9661599" lon="17.7099277">
        <ele>20.8057</ele>
        <time>2013-04-21T14:38:01Z</time>
      </trkpt>
      <trkpt lat="59.9662012" lon="17.7100671">
        <ele>20.8057</ele>
        <time>2013-04-21T14:38:02Z</time>
      </trkpt>
      <trkpt lat="59.9662405" lon="17.7102026">
        <ele>20.8057</ele>
        <time>2013-04-21T14:38:03Z</time>
      </trkpt>
      <trkpt lat="59.9662805" lon="17.7103365">
        <ele>21.2864</ele>
        <time>2013-04-21T14:38:04Z</time>
      </trkpt>
      <trkpt lat="59.9663172" lon="17.7104654">
        <ele>21.2864</ele>
        <time>2013-04-21T14:38:05Z</time>
      </trkpt>
      <trkpt lat="59.9663532" lon="17.7105911">
        <ele>20.8057</ele>
        <time>2013-04-21T14:38:06Z</time>
      </trkpt>
      <trkpt lat="59.9663886" lon="17.710711">
        <ele>20.8057</ele>
        <time>2013-04-21T14:38:07Z</time>
      </trkpt>
      <trkpt lat="59.9664223" lon="17.7108235">
        <ele>20.8057</ele>
        <time>2013-04-21T14:38:08Z</time>
      </trkpt>
      <trkpt lat="59.9664539" lon="17.7109326">
        <ele>20.8057</ele>
        <time>2013-04-21T14:38:09Z</time>
      </trkpt>
      <trkpt lat="59.9664846" lon="17.7110378">
        <ele>20.8057</ele>
        <time>2013-04-21T14:38:10Z</time>
      </trkpt>
      <trkpt lat="59.9665218" lon="17.7111531">
        <ele>21.2864</ele>
        <time>2013-04-21T14:38:11Z</time>
      </trkpt>
      <trkpt lat="59.9665603" lon="17.7112181">
        <ele>21.2864</ele>
        <time>2013-04-21T14:38:12Z</time>
      </trkpt>
      <trkpt lat="59.9665951" lon="17.7113066">
        <ele>21.2864</ele>
        <time>2013-04-21T14:38:13Z</time>
      </trkpt>
      <trkpt lat="59.9666191" lon="17.7114132">
        <ele>21.2864</ele>
        <time>2013-04-21T14:38:14Z</time>
      </trkpt>
      <trkpt lat="59.9666478" lon="17.7115145">
        <ele>21.767</ele>
        <time>2013-04-21T14:38:15Z</time>
      </trkpt>
      <trkpt lat="59.96667" lon="17.7116">
        <ele>21.2864</ele>
        <time>2013-04-21T14:38:16Z</time>
      </trkpt>
      <trkpt lat="59.9666981" lon="17.7116939">
        <ele>20.8057</ele>
        <time>2013-04-21T14:38:17Z</time>
      </trkpt>
      <trkpt lat="59.966725" lon="17.7117899">
        <ele>20.8057</ele>
        <time>2013-04-21T14:38:18Z</time>
      </trkpt>
      <trkpt lat="59.966759" lon="17.7118887">
        <ele>21.2864</ele>
        <time>2013-04-21T14:38:19Z</time>
      </trkpt>
      <trkpt lat="59.9667887" lon="17.7119759">
        <ele>22.2476</ele>
        <time>2013-04-21T14:38:20Z</time>
      </trkpt>
      <trkpt lat="59.9668187" lon="17.7120681">
        <ele>22.2476</ele>
        <time>2013-04-21T14:38:21Z</time>
      </trkpt>
      <trkpt lat="59.9668616" lon="17.7121655">
        <ele>23.209</ele>
        <time>2013-04-21T14:38:22Z</time>
      </trkpt>
      <trkpt lat="59.9668989" lon="17.7122598">
        <ele>23.6896</ele>
        <time>2013-04-21T14:38:23Z</time>
      </trkpt>
      <trkpt lat="59.9669408" lon="17.7123573">
        <ele>24.1703</ele>
        <time>2013-04-21T14:38:24Z</time>
      </trkpt>
      <trkpt lat="59.9669826" lon="17.7124592">
        <ele>24.651</ele>
        <time>2013-04-21T14:38:25Z</time>
      </trkpt>
      <trkpt lat="59.9670222" lon="17.7125643">
        <ele>25.1317</ele>
        <time>2013-04-21T14:38:26Z</time>
      </trkpt>
      <trkpt lat="59.9670567" lon="17.7126724">
        <ele>24.651</ele>
        <time>2013-04-21T14:38:27Z</time>
      </trkpt>
      <trkpt lat="59.9670864" lon="17.7127866">
        <ele>24.651</ele>
        <time>2013-04-21T14:38:28Z</time>
      </trkpt>
      <trkpt lat="59.9671172" lon="17.7129056">
        <ele>24.651</ele>
        <time>2013-04-21T14:38:29Z</time>
      </trkpt>
      <trkpt lat="59.9671473" lon="17.7130249">
        <ele>24.1703</ele>
        <time>2013-04-21T14:38:30Z</time>
      </trkpt>
      <trkpt lat="59.9671791" lon="17.7131517">
        <ele>24.1703</ele>
        <time>2013-04-21T14:38:31Z</time>
      </trkpt>
      <trkpt lat="59.9672036" lon="17.7132844">
        <ele>23.209</ele>
        <time>2013-04-21T14:38:32Z</time>
      </trkpt>
      <trkpt lat="59.9672271" lon="17.7134284">
        <ele>23.209</ele>
        <time>2013-04-21T14:38:33Z</time>
      </trkpt>
      <trkpt lat="59.9672493" lon="17.7135797">
        <ele>22.7283</ele>
        <time>2013-04-21T14:38:34Z</time>
      </trkpt>
      <trkpt lat="59.9672792" lon="17.7137398">
        <ele>22.7283</ele>
        <time>2013-04-21T14:38:35Z</time>
      </trkpt>
      <trkpt lat="59.9673022" lon="17.7139097">
        <ele>21.767</ele>
        <time>2013-04-21T14:38:36Z</time>
      </trkpt>
      <trkpt lat="59.9673263" lon="17.7140861">
        <ele>21.767</ele>
        <time>2013-04-21T14:38:37Z</time>
      </trkpt>
      <trkpt lat="59.9673519" lon="17.7142933">
        <ele>21.767</ele>
        <time>2013-04-21T14:38:38Z</time>
      </trkpt>
      <trkpt lat="59.9673729" lon="17.7144991">
        <ele>22.2476</ele>
        <time>2013-04-21T14:38:39Z</time>
      </trkpt>
      <trkpt lat="59.9674035" lon="17.714697">
        <ele>22.2476</ele>
        <time>2013-04-21T14:38:40Z</time>
      </trkpt>
      <trkpt lat="59.9674373" lon="17.7149052">
        <ele>22.7283</ele>
        <time>2013-04-21T14:38:41Z</time>
      </trkpt>
      <trkpt lat="59.9674625" lon="17.7151135">
        <ele>20.8057</ele>
        <time>2013-04-21T14:38:42Z</time>
      </trkpt>
      <trkpt lat="59.9674948" lon="17.7153808">
        <ele>21.2864</ele>
        <time>2013-04-21T14:38:43Z</time>
      </trkpt>
      <trkpt lat="59.9675368" lon="17.7156065">
        <ele>20.8057</ele>
        <time>2013-04-21T14:38:44Z</time>
      </trkpt>
      <trkpt lat="59.9675833" lon="17.7158039">
        <ele>19.8444</ele>
        <time>2013-04-21T14:38:45Z</time>
      </trkpt>
      <trkpt lat="59.967633" lon="17.7159805">
        <ele>19.3638</ele>
        <time>2013-04-21T14:38:46Z</time>
      </trkpt>
      <trkpt lat="59.9676881" lon="17.7161376">
        <ele>19.3638</ele>
        <time>2013-04-21T14:38:47Z</time>
      </trkpt>
      <trkpt lat="59.9677456" lon="17.7162785">
        <ele>19.8444</ele>
        <time>2013-04-21T14:38:48Z</time>
      </trkpt>
      <trkpt lat="59.967803" lon="17.7164008">
        <ele>20.325</ele>
        <time>2013-04-21T14:38:49Z</time>
      </trkpt>
      <trkpt lat="59.9678583" lon="17.7165084">
        <ele>20.325</ele>
        <time>2013-04-21T14:38:50Z</time>
      </trkpt>
      <trkpt lat="59.9679128" lon="17.7166059">
        <ele>20.325</ele>
        <time>2013-04-21T14:38:51Z</time>
      </trkpt>
      <trkpt lat="59.9679657" lon="17.716692">
        <ele>20.8057</ele>
        <time>2013-04-21T14:38:52Z</time>
      </trkpt>
      <trkpt lat="59.968015" lon="17.7167705">
        <ele>20.8057</ele>
        <time>2013-04-21T14:38:53Z</time>
      </trkpt>
      <trkpt lat="59.9680651" lon="17.7168409">
        <ele>21.2864</ele>
        <time>2013-04-21T14:38:54Z</time>
      </trkpt>
      <trkpt lat="59.9681143" lon="17.7169016">
        <ele>21.2864</ele>
        <time>2013-04-21T14:38:55Z</time>
      </trkpt>
      <trkpt lat="59.9681635" lon="17.7169607">
        <ele>21.2864</ele>
        <time>2013-04-21T14:38:56Z</time>
      </trkpt>
      <trkpt lat="59.9682122" lon="17.7170146">
        <ele>21.767</ele>
        <time>2013-04-21T14:38:57Z</time>
      </trkpt>
      <trkpt lat="59.9682624" lon="17.7170586">
        <ele>21.767</ele>
        <time>2013-04-21T14:38:58Z</time>
      </trkpt>
      <trkpt lat="59.9683139" lon="17.717098">
        <ele>21.767</ele>
        <time>2013-04-21T14:38:59Z</time>
      </trkpt>
      <trkpt lat="59.9683677" lon="17.7171347">
        <ele>22.2476</ele>
        <time>2013-04-21T14:39:00Z</time>
      </trkpt>
      <trkpt lat="59.9684215" lon="17.7171722">
        <ele>22.2476</ele>
        <time>2013-04-21T14:39:01Z</time>
      </trkpt>
      <trkpt lat="59.9684758" lon="17.7172081">
        <ele>22.7283</ele>
        <time>2013-04-21T14:39:02Z</time>
      </trkpt>
      <trkpt lat="59.9685328" lon="17.7172385">
        <ele>23.209</ele>
        <time>2013-04-21T14:39:03Z</time>
      </trkpt>
      <trkpt lat="59.9685894" lon="17.7172663">
        <ele>23.209</ele>
        <time>2013-04-21T14:39:04Z</time>
      </trkpt>
      <trkpt lat="59.9686473" lon="17.7172918">
        <ele>23.209</ele>
        <time>2013-04-21T14:39:05Z</time>
      </trkpt>
      <trkpt lat="59.9687052" lon="17.7173196">
        <ele>23.209</ele>
        <time>2013-04-21T14:39:06Z</time>
      </trkpt>
      <trkpt lat="59.9687637" lon="17.7173467">
        <ele>23.209</ele>
        <time>2013-04-21T14:39:07Z</time>
      </trkpt>
      <trkpt lat="59.9688233" lon="17.7173708">
        <ele>23.209</ele>
        <time>2013-04-21T14:39:08Z</time>
      </trkpt>
      <trkpt lat="59.9688844" lon="17.7173942">
        <ele>22.7283</ele>
        <time>2013-04-21T14:39:09Z</time>
      </trkpt>
      <trkpt lat="59.9689433" lon="17.7174136">
        <ele>22.7283</ele>
        <time>2013-04-21T14:39:10Z</time>
      </trkpt>
      <trkpt lat="59.9690017" lon="17.7174319">
        <ele>22.7283</ele>
        <time>2013-04-21T14:39:11Z</time>
      </trkpt>
      <trkpt lat="59.9690591" lon="17.7174537">
        <ele>22.7283</ele>
        <time>2013-04-21T14:39:12Z</time>
      </trkpt>
      <trkpt lat="59.9691155" lon="17.7174755">
        <ele>22.2476</ele>
        <time>2013-04-21T14:39:13Z</time>
      </trkpt>
      <trkpt lat="59.9691727" lon="17.7174977">
        <ele>22.2476</ele>
        <time>2013-04-21T14:39:14Z</time>
      </trkpt>
      <trkpt lat="59.9692307" lon="17.7175238">
        <ele>22.2476</ele>
        <time>2013-04-21T14:39:15Z</time>
      </trkpt>
      <trkpt lat="59.9692898" lon="17.7175547">
        <ele>21.767</ele>
        <time>2013-04-21T14:39:16Z</time>
      </trkpt>
      <trkpt lat="59.9693498" lon="17.7175874">
        <ele>21.767</ele>
        <time>2013-04-21T14:39:17Z</time>
      </trkpt>
      <trkpt lat="59.9694117" lon="17.7176212">
        <ele>21.2864</ele>
        <time>2013-04-21T14:39:18Z</time>
      </trkpt>
      <trkpt lat="59.9694752" lon="17.7176563">
        <ele>21.2864</ele>
        <time>2013-04-21T14:39:19Z</time>
      </trkpt>
      <trkpt lat="59.9695394" lon="17.7176935">
        <ele>21.2864</ele>
        <time>2013-04-21T14:39:20Z</time>
      </trkpt>
      <trkpt lat="59.9696031" lon="17.7177365">
        <ele>20.8057</ele>
        <time>2013-04-21T14:39:21Z</time>
      </trkpt>
      <trkpt lat="59.9696658" lon="17.7177839">
        <ele>20.8057</ele>
        <time>2013-04-21T14:39:22Z</time>
      </trkpt>
      <trkpt lat="59.9697283" lon="17.7178326">
        <ele>20.325</ele>
        <time>2013-04-21T14:39:23Z</time>
      </trkpt>
      <trkpt lat="59.969792" lon="17.717881">
        <ele>20.325</ele>
        <time>2013-04-21T14:39:24Z</time>
      </trkpt>
      <trkpt lat="59.9698568" lon="17.7179328">
        <ele>20.325</ele>
        <time>2013-04-21T14:39:25Z</time>
      </trkpt>
      <trkpt lat="59.9699218" lon="17.7179893">
        <ele>20.325</ele>
        <time>2013-04-21T14:39:26Z</time>
      </trkpt>
      <trkpt lat="59.9699872" lon="17.7180492">
        <ele>19.8444</ele>
        <time>2013-04-21T14:39:27Z</time>
      </trkpt>
      <trkpt lat="59.9700533" lon="17.7181105">
        <ele>19.8444</ele>
        <time>2013-04-21T14:39:28Z</time>
      </trkpt>
      <trkpt lat="59.9701195" lon="17.7181718">
        <ele>19.8444</ele>
        <time>2013-04-21T14:39:29Z</time>
      </trkpt>
      <trkpt lat="59.9701872" lon="17.7182335">
        <ele>19.8444</ele>
        <time>2013-04-21T14:39:30Z</time>
      </trkpt>
      <trkpt lat="59.9702556" lon="17.7182951">
        <ele>19.8444</ele>
        <time>2013-04-21T14:39:31Z</time>
      </trkpt>
      <trkpt lat="59.9703242" lon="17.7183578">
        <ele>19.8444</ele>
        <time>2013-04-21T14:39:32Z</time>
      </trkpt>
      <trkpt lat="59.9703946" lon="17.7184241">
        <ele>19.8444</ele>
        <time>2013-04-21T14:39:33Z</time>
      </trkpt>
      <trkpt lat="59.9704662" lon="17.718492">
        <ele>19.8444</ele>
        <time>2013-04-21T14:39:34Z</time>
      </trkpt>
      <trkpt lat="59.9705385" lon="17.7185588">
        <ele>19.3638</ele>
        <time>2013-04-21T14:39:35Z</time>
      </trkpt>
      <trkpt lat="59.9706117" lon="17.7186235">
        <ele>19.3638</ele>
        <time>2013-04-21T14:39:36Z</time>
      </trkpt>
      <trkpt lat="59.9706867" lon="17.7186881">
        <ele>19.3638</ele>
        <time>2013-04-21T14:39:37Z</time>
      </trkpt>
      <trkpt lat="59.9707614" lon="17.7187537">
        <ele>19.3638</ele>
        <time>2013-04-21T14:39:38Z</time>
      </trkpt>
      <trkpt lat="59.9708374" lon="17.7188225">
        <ele>19.3638</ele>
        <time>2013-04-21T14:39:39Z</time>
      </trkpt>
      <trkpt lat="59.9709131" lon="17.7188929">
        <ele>19.3638</ele>
        <time>2013-04-21T14:39:40Z</time>
      </trkpt>
      <trkpt lat="59.9709898" lon="17.7189633">
        <ele>18.8831</ele>
        <time>2013-04-21T14:39:41Z</time>
      </trkpt>
      <trkpt lat="59.9710675" lon="17.7190341">
        <ele>18.8831</ele>
        <time>2013-04-21T14:39:42Z</time>
      </trkpt>
      <trkpt lat="59.9711468" lon="17.7191044">
        <ele>18.8831</ele>
        <time>2013-04-21T14:39:43Z</time>
      </trkpt>
      <trkpt lat="59.9712269" lon="17.7191752">
        <ele>18.8831</ele>
        <time>2013-04-21T14:39:44Z</time>
      </trkpt>
      <trkpt lat="59.9713073" lon="17.7192475">
        <ele>18.8831</ele>
        <time>2013-04-21T14:39:45Z</time>
      </trkpt>
      <trkpt lat="59.9713891" lon="17.7193216">
        <ele>18.8831</ele>
        <time>2013-04-21T14:39:46Z</time>
      </trkpt>
      <trkpt lat="59.9714715" lon="17.719398">
        <ele>18.8831</ele>
        <time>2013-04-21T14:39:47Z</time>
      </trkpt>
      <trkpt lat="59.9715547" lon="17.7194741">
        <ele>18.8831</ele>
        <time>2013-04-21T14:39:48Z</time>
      </trkpt>
      <trkpt lat="59.9716397" lon="17.7195499">
        <ele>18.8831</ele>
        <time>2013-04-21T14:39:49Z</time>
      </trkpt>
      <trkpt lat="59.9717254" lon="17.7196259">
        <ele>18.8831</ele>
        <time>2013-04-21T14:39:50Z</time>
      </trkpt>
      <trkpt lat="59.9718108" lon="17.7197011">
        <ele>18.8831</ele>
        <time>2013-04-21T14:39:51Z</time>
      </trkpt>
      <trkpt lat="59.9718951" lon="17.7197772">
        <ele>18.4023</ele>
        <time>2013-04-21T14:39:52Z</time>
      </trkpt>
      <trkpt lat="59.9719812" lon="17.7198548">
        <ele>18.4023</ele>
        <time>2013-04-21T14:39:53Z</time>
      </trkpt>
      <trkpt lat="59.9720681" lon="17.7199329">
        <ele>18.4023</ele>
        <time>2013-04-21T14:39:54Z</time>
      </trkpt>
      <trkpt lat="59.9721543" lon="17.7200122">
        <ele>18.4023</ele>
        <time>2013-04-21T14:39:55Z</time>
      </trkpt>
      <trkpt lat="59.9722411" lon="17.7200919">
        <ele>18.4023</ele>
        <time>2013-04-21T14:39:56Z</time>
      </trkpt>
      <trkpt lat="59.97233" lon="17.7201719">
        <ele>18.4023</ele>
        <time>2013-04-21T14:39:57Z</time>
      </trkpt>
      <trkpt lat="59.9724196" lon="17.7202527">
        <ele>18.4023</ele>
        <time>2013-04-21T14:39:58Z</time>
      </trkpt>
      <trkpt lat="59.9725098" lon="17.7203355">
        <ele>18.4023</ele>
        <time>2013-04-21T14:39:59Z</time>
      </trkpt>
      <trkpt lat="59.9725996" lon="17.72042">
        <ele>17.9218</ele>
        <time>2013-04-21T14:40:00Z</time>
      </trkpt>
      <trkpt lat="59.9726892" lon="17.7205079">
        <ele>17.9218</ele>
        <time>2013-04-21T14:40:01Z</time>
      </trkpt>
      <trkpt lat="59.9727772" lon="17.7206014">
        <ele>17.9218</ele>
        <time>2013-04-21T14:40:02Z</time>
      </trkpt>
      <trkpt lat="59.9728628" lon="17.7207018">
        <ele>17.9218</ele>
        <time>2013-04-21T14:40:03Z</time>
      </trkpt>
      <trkpt lat="59.9729463" lon="17.7208094">
        <ele>17.9218</ele>
        <time>2013-04-21T14:40:04Z</time>
      </trkpt>
      <trkpt lat="59.9730285" lon="17.720924">
        <ele>17.9218</ele>
        <time>2013-04-21T14:40:05Z</time>
      </trkpt>
      <trkpt lat="59.9731095" lon="17.7210446">
        <ele>17.9218</ele>
        <time>2013-04-21T14:40:06Z</time>
      </trkpt>
      <trkpt lat="59.9731882" lon="17.7211711">
        <ele>17.9218</ele>
        <time>2013-04-21T14:40:07Z</time>
      </trkpt>
      <trkpt lat="59.973265" lon="17.7213035">
        <ele>17.9218</ele>
        <time>2013-04-21T14:40:08Z</time>
      </trkpt>
      <trkpt lat="59.9733393" lon="17.7214401">
        <ele>17.9218</ele>
        <time>2013-04-21T14:40:09Z</time>
      </trkpt>
      <trkpt lat="59.9734103" lon="17.7215812">
        <ele>17.9218</ele>
        <time>2013-04-21T14:40:10Z</time>
      </trkpt>
      <trkpt lat="59.9734781" lon="17.7217275">
        <ele>17.9218</ele>
        <time>2013-04-21T14:40:11Z</time>
      </trkpt>
      <trkpt lat="59.9735425" lon="17.7218807">
        <ele>17.9218</ele>
        <time>2013-04-21T14:40:12Z</time>
      </trkpt>
      <trkpt lat="59.9736037" lon="17.7220397">
        <ele>17.9218</ele>
        <time>2013-04-21T14:40:13Z</time>
      </trkpt>
      <trkpt lat="59.9736617" lon="17.7222025">
        <ele>17.9218</ele>
        <time>2013-04-21T14:40:14Z</time>
      </trkpt>
      <trkpt lat="59.9737176" lon="17.7223688">
        <ele>17.9218</ele>
        <time>2013-04-21T14:40:15Z</time>
      </trkpt>
      <trkpt lat="59.9737706" lon="17.7225379">
        <ele>17.9218</ele>
        <time>2013-04-21T14:40:16Z</time>
      </trkpt>
      <trkpt lat="59.9738213" lon="17.7227086">
        <ele>17.9218</ele>
        <time>2013-04-21T14:40:17Z</time>
      </trkpt>
      <trkpt lat="59.9738673" lon="17.7228825">
        <ele>17.9218</ele>
        <time>2013-04-21T14:40:18Z</time>
      </trkpt>
      <trkpt lat="59.9739088" lon="17.7230591">
        <ele>18.4023</ele>
        <time>2013-04-21T14:40:19Z</time>
      </trkpt>
      <trkpt lat="59.9739487" lon="17.7232385">
        <ele>18.4023</ele>
        <time>2013-04-21T14:40:20Z</time>
      </trkpt>
      <trkpt lat="59.9739844" lon="17.7234209">
        <ele>18.4023</ele>
        <time>2013-04-21T14:40:21Z</time>
      </trkpt>
      <trkpt lat="59.9740145" lon="17.7236053">
        <ele>18.4023</ele>
        <time>2013-04-21T14:40:22Z</time>
      </trkpt>
      <trkpt lat="59.9740427" lon="17.7237886">
        <ele>18.8831</ele>
        <time>2013-04-21T14:40:23Z</time>
      </trkpt>
      <trkpt lat="59.9740709" lon="17.7239699">
        <ele>18.8831</ele>
        <time>2013-04-21T14:40:24Z</time>
      </trkpt>
      <trkpt lat="59.9740982" lon="17.7241498">
        <ele>18.8831</ele>
        <time>2013-04-21T14:40:25Z</time>
      </trkpt>
      <trkpt lat="59.9741254" lon="17.7243293">
        <ele>18.8831</ele>
        <time>2013-04-21T14:40:26Z</time>
      </trkpt>
      <trkpt lat="59.9741521" lon="17.7245092">
        <ele>18.8831</ele>
        <time>2013-04-21T14:40:27Z</time>
      </trkpt>
      <trkpt lat="59.9741771" lon="17.7246885">
        <ele>19.3638</ele>
        <time>2013-04-21T14:40:28Z</time>
      </trkpt>
      <trkpt lat="59.9742021" lon="17.7248669">
        <ele>19.3638</ele>
        <time>2013-04-21T14:40:29Z</time>
      </trkpt>
      <trkpt lat="59.9742279" lon="17.7250442">
        <ele>19.3638</ele>
        <time>2013-04-21T14:40:30Z</time>
      </trkpt>
      <trkpt lat="59.9742533" lon="17.725221">
        <ele>19.8444</ele>
        <time>2013-04-21T14:40:31Z</time>
      </trkpt>
      <trkpt lat="59.974275" lon="17.7253982">
        <ele>19.8444</ele>
        <time>2013-04-21T14:40:32Z</time>
      </trkpt>
      <trkpt lat="59.9742926" lon="17.7255758">
        <ele>19.8444</ele>
        <time>2013-04-21T14:40:33Z</time>
      </trkpt>
      <trkpt lat="59.9743071" lon="17.7257529">
        <ele>19.8444</ele>
        <time>2013-04-21T14:40:34Z</time>
      </trkpt>
      <trkpt lat="59.9743196" lon="17.725928">
        <ele>19.8444</ele>
        <time>2013-04-21T14:40:35Z</time>
      </trkpt>
      <trkpt lat="59.9743305" lon="17.7261011">
        <ele>19.8444</ele>
        <time>2013-04-21T14:40:36Z</time>
      </trkpt>
      <trkpt lat="59.9743404" lon="17.7262739">
        <ele>19.8444</ele>
        <time>2013-04-21T14:40:37Z</time>
      </trkpt>
      <trkpt lat="59.9743486" lon="17.7264449">
        <ele>19.8444</ele>
        <time>2013-04-21T14:40:38Z</time>
      </trkpt>
      <trkpt lat="59.9743541" lon="17.7266174">
        <ele>19.8444</ele>
        <time>2013-04-21T14:40:39Z</time>
      </trkpt>
      <trkpt lat="59.97436" lon="17.7267904">
        <ele>20.325</ele>
        <time>2013-04-21T14:40:40Z</time>
      </trkpt>
      <trkpt lat="59.974365" lon="17.7269676">
        <ele>20.325</ele>
        <time>2013-04-21T14:40:41Z</time>
      </trkpt>
      <trkpt lat="59.9743699" lon="17.7271436">
        <ele>20.325</ele>
        <time>2013-04-21T14:40:42Z</time>
      </trkpt>
      <trkpt lat="59.9743738" lon="17.7273198">
        <ele>20.8057</ele>
        <time>2013-04-21T14:40:43Z</time>
      </trkpt>
      <trkpt lat="59.9743761" lon="17.7274981">
        <ele>20.325</ele>
        <time>2013-04-21T14:40:44Z</time>
      </trkpt>
      <trkpt lat="59.9743781" lon="17.7276768">
        <ele>20.325</ele>
        <time>2013-04-21T14:40:45Z</time>
      </trkpt>
      <trkpt lat="59.9743807" lon="17.7278549">
        <ele>20.325</ele>
        <time>2013-04-21T14:40:46Z</time>
      </trkpt>
      <trkpt lat="59.9743853" lon="17.728032">
        <ele>19.8444</ele>
        <time>2013-04-21T14:40:47Z</time>
      </trkpt>
      <trkpt lat="59.9743879" lon="17.7282087">
        <ele>19.3638</ele>
        <time>2013-04-21T14:40:48Z</time>
      </trkpt>
      <trkpt lat="59.9743899" lon="17.7283838">
        <ele>18.8831</ele>
        <time>2013-04-21T14:40:49Z</time>
      </trkpt>
      <trkpt lat="59.9743921" lon="17.7285575">
        <ele>18.4023</ele>
        <time>2013-04-21T14:40:50Z</time>
      </trkpt>
      <trkpt lat="59.9743974" lon="17.7287283">
        <ele>18.4023</ele>
        <time>2013-04-21T14:40:51Z</time>
      </trkpt>
      <trkpt lat="59.9744033" lon="17.7288981">
        <ele>18.4023</ele>
        <time>2013-04-21T14:40:52Z</time>
      </trkpt>
      <trkpt lat="59.9744088" lon="17.7290672">
        <ele>18.4023</ele>
        <time>2013-04-21T14:40:53Z</time>
      </trkpt>
      <trkpt lat="59.9744127" lon="17.729235">
        <ele>18.4023</ele>
        <time>2013-04-21T14:40:54Z</time>
      </trkpt>
      <trkpt lat="59.9744148" lon="17.7294011">
        <ele>18.8831</ele>
        <time>2013-04-21T14:40:55Z</time>
      </trkpt>
      <trkpt lat="59.9744134" lon="17.729567">
        <ele>18.8831</ele>
        <time>2013-04-21T14:40:56Z</time>
      </trkpt>
      <trkpt lat="59.974407" lon="17.7297274">
        <ele>18.8831</ele>
        <time>2013-04-21T14:40:57Z</time>
      </trkpt>
      <trkpt lat="59.9743958" lon="17.7298814">
        <ele>18.8831</ele>
        <time>2013-04-21T14:40:58Z</time>
      </trkpt>
      <trkpt lat="59.9743826" lon="17.730031">
        <ele>18.8831</ele>
        <time>2013-04-21T14:40:59Z</time>
      </trkpt>
      <trkpt lat="59.9743692" lon="17.7301777">
        <ele>19.3638</ele>
        <time>2013-04-21T14:41:00Z</time>
      </trkpt>
      <trkpt lat="59.9743563" lon="17.7303229">
        <ele>19.3638</ele>
        <time>2013-04-21T14:41:01Z</time>
      </trkpt>
      <trkpt lat="59.9743505" lon="17.7304667">
        <ele>20.325</ele>
        <time>2013-04-21T14:41:02Z</time>
      </trkpt>
      <trkpt lat="59.9743439" lon="17.7306073">
        <ele>21.2864</ele>
        <time>2013-04-21T14:41:03Z</time>
      </trkpt>
      <trkpt lat="59.9743349" lon="17.7307516">
        <ele>21.767</ele>
        <time>2013-04-21T14:41:04Z</time>
      </trkpt>
      <trkpt lat="59.9743253" lon="17.7308977">
        <ele>22.2476</ele>
        <time>2013-04-21T14:41:05Z</time>
      </trkpt>
      <trkpt lat="59.9743165" lon="17.7310444">
        <ele>22.2476</ele>
        <time>2013-04-21T14:41:06Z</time>
      </trkpt>
      <trkpt lat="59.9743095" lon="17.7311915">
        <ele>22.2476</ele>
        <time>2013-04-21T14:41:07Z</time>
      </trkpt>
      <trkpt lat="59.9743039" lon="17.7313401">
        <ele>22.2476</ele>
        <time>2013-04-21T14:41:08Z</time>
      </trkpt>
      <trkpt lat="59.9742997" lon="17.7314909">
        <ele>22.2476</ele>
        <time>2013-04-21T14:41:09Z</time>
      </trkpt>
      <trkpt lat="59.9742981" lon="17.7316438">
        <ele>22.7283</ele>
        <time>2013-04-21T14:41:10Z</time>
      </trkpt>
      <trkpt lat="59.9742994" lon="17.731798">
        <ele>22.7283</ele>
        <time>2013-04-21T14:41:11Z</time>
      </trkpt>
      <trkpt lat="59.9743031" lon="17.7319528">
        <ele>22.7283</ele>
        <time>2013-04-21T14:41:12Z</time>
      </trkpt>
      <trkpt lat="59.9743066" lon="17.7321087">
        <ele>22.7283</ele>
        <time>2013-04-21T14:41:13Z</time>
      </trkpt>
      <trkpt lat="59.9743112" lon="17.7322612">
        <ele>22.7283</ele>
        <time>2013-04-21T14:41:14Z</time>
      </trkpt>
      <trkpt lat="59.9743164" lon="17.7324145">
        <ele>23.209</ele>
        <time>2013-04-21T14:41:15Z</time>
      </trkpt>
      <trkpt lat="59.9743209" lon="17.7325678">
        <ele>23.209</ele>
        <time>2013-04-21T14:41:16Z</time>
      </trkpt>
      <trkpt lat="59.9743225" lon="17.7327216">
        <ele>23.6896</ele>
        <time>2013-04-21T14:41:17Z</time>
      </trkpt>
      <trkpt lat="59.9743197" lon="17.7328797">
        <ele>23.6896</ele>
        <time>2013-04-21T14:41:18Z</time>
      </trkpt>
      <trkpt lat="59.9743154" lon="17.7330393">
        <ele>23.6896</ele>
        <time>2013-04-21T14:41:19Z</time>
      </trkpt>
      <trkpt lat="59.9743102" lon="17.7331993">
        <ele>23.6896</ele>
        <time>2013-04-21T14:41:20Z</time>
      </trkpt>
      <trkpt lat="59.9743035" lon="17.7333589">
        <ele>23.6896</ele>
        <time>2013-04-21T14:41:21Z</time>
      </trkpt>
      <trkpt lat="59.9742964" lon="17.7335183">
        <ele>23.6896</ele>
        <time>2013-04-21T14:41:22Z</time>
      </trkpt>
      <trkpt lat="59.9742884" lon="17.7336772">
        <ele>24.1703</ele>
        <time>2013-04-21T14:41:23Z</time>
      </trkpt>
      <trkpt lat="59.9742797" lon="17.7338344">
        <ele>24.1703</ele>
        <time>2013-04-21T14:41:24Z</time>
      </trkpt>
      <trkpt lat="59.974274" lon="17.7339911">
        <ele>24.651</ele>
        <time>2013-04-21T14:41:25Z</time>
      </trkpt>
      <trkpt lat="59.9742692" lon="17.7341476">
        <ele>25.1317</ele>
        <time>2013-04-21T14:41:26Z</time>
      </trkpt>
      <trkpt lat="59.9742657" lon="17.7343035">
        <ele>25.6123</ele>
        <time>2013-04-21T14:41:27Z</time>
      </trkpt>
      <trkpt lat="59.9742647" lon="17.7344591">
        <ele>26.0929</ele>
        <time>2013-04-21T14:41:28Z</time>
      </trkpt>
      <trkpt lat="59.9742668" lon="17.7346135">
        <ele>26.5736</ele>
        <time>2013-04-21T14:41:29Z</time>
      </trkpt>
      <trkpt lat="59.9742698" lon="17.7347649">
        <ele>27.0543</ele>
        <time>2013-04-21T14:41:30Z</time>
      </trkpt>
      <trkpt lat="59.974278" lon="17.7349156">
        <ele>27.5349</ele>
        <time>2013-04-21T14:41:31Z</time>
      </trkpt>
      <trkpt lat="59.9742859" lon="17.7350642">
        <ele>27.5349</ele>
        <time>2013-04-21T14:41:32Z</time>
      </trkpt>
      <trkpt lat="59.9742972" lon="17.7352113">
        <ele>28.0155</ele>
        <time>2013-04-21T14:41:33Z</time>
      </trkpt>
      <trkpt lat="59.9743098" lon="17.7353568">
        <ele>28.0155</ele>
        <time>2013-04-21T14:41:34Z</time>
      </trkpt>
      <trkpt lat="59.9743242" lon="17.7355001">
        <ele>28.0155</ele>
        <time>2013-04-21T14:41:35Z</time>
      </trkpt>
      <trkpt lat="59.9743409" lon="17.735641">
        <ele>28.4962</ele>
        <time>2013-04-21T14:41:36Z</time>
      </trkpt>
      <trkpt lat="59.974359" lon="17.7357798">
        <ele>28.4962</ele>
        <time>2013-04-21T14:41:37Z</time>
      </trkpt>
      <trkpt lat="59.9743808" lon="17.7359159">
        <ele>28.4962</ele>
        <time>2013-04-21T14:41:38Z</time>
      </trkpt>
      <trkpt lat="59.9744057" lon="17.7360509">
        <ele>28.4962</ele>
        <time>2013-04-21T14:41:39Z</time>
      </trkpt>
      <trkpt lat="59.9744351" lon="17.7361839">
        <ele>28.4962</ele>
        <time>2013-04-21T14:41:40Z</time>
      </trkpt>
      <trkpt lat="59.9744675" lon="17.7363158">
        <ele>28.4962</ele>
        <time>2013-04-21T14:41:41Z</time>
      </trkpt>
      <trkpt lat="59.9745004" lon="17.7364489">
        <ele>28.4962</ele>
        <time>2013-04-21T14:41:42Z</time>
      </trkpt>
      <trkpt lat="59.974536" lon="17.7365817">
        <ele>28.9769</ele>
        <time>2013-04-21T14:41:43Z</time>
      </trkpt>
      <trkpt lat="59.9745744" lon="17.7367124">
        <ele>28.9769</ele>
        <time>2013-04-21T14:41:44Z</time>
      </trkpt>
      <trkpt lat="59.9746159" lon="17.7368395">
        <ele>29.4575</ele>
        <time>2013-04-21T14:41:45Z</time>
      </trkpt>
      <trkpt lat="59.9746598" lon="17.7369642">
        <ele>29.4575</ele>
        <time>2013-04-21T14:41:46Z</time>
      </trkpt>
      <trkpt lat="59.9747058" lon="17.7370878">
        <ele>29.4575</ele>
        <time>2013-04-21T14:41:47Z</time>
      </trkpt>
      <trkpt lat="59.9747522" lon="17.7372087">
        <ele>29.4575</ele>
        <time>2013-04-21T14:41:48Z</time>
      </trkpt>
      <trkpt lat="59.9748016" lon="17.7373263">
        <ele>29.9381</ele>
        <time>2013-04-21T14:41:49Z</time>
      </trkpt>
      <trkpt lat="59.9748521" lon="17.7374414">
        <ele>29.9381</ele>
        <time>2013-04-21T14:41:50Z</time>
      </trkpt>
      <trkpt lat="59.9749042" lon="17.7375512">
        <ele>30.4188</ele>
        <time>2013-04-21T14:41:51Z</time>
      </trkpt>
      <trkpt lat="59.9749583" lon="17.7376553">
        <ele>30.4188</ele>
        <time>2013-04-21T14:41:52Z</time>
      </trkpt>
      <trkpt lat="59.9750136" lon="17.7377536">
        <ele>30.4188</ele>
        <time>2013-04-21T14:41:53Z</time>
      </trkpt>
      <trkpt lat="59.9750702" lon="17.7378495">
        <ele>30.4188</ele>
        <time>2013-04-21T14:41:54Z</time>
      </trkpt>
      <trkpt lat="59.9751266" lon="17.7379437">
        <ele>30.4188</ele>
        <time>2013-04-21T14:41:55Z</time>
      </trkpt>
      <trkpt lat="59.9751822" lon="17.7380384">
        <ele>30.4188</ele>
        <time>2013-04-21T14:41:56Z</time>
      </trkpt>
      <trkpt lat="59.9752379" lon="17.7381349">
        <ele>30.4188</ele>
        <time>2013-04-21T14:41:57Z</time>
      </trkpt>
      <trkpt lat="59.9752933" lon="17.7382323">
        <ele>30.4188</ele>
        <time>2013-04-21T14:41:58Z</time>
      </trkpt>
      <trkpt lat="59.9753512" lon="17.7383302">
        <ele>30.4188</ele>
        <time>2013-04-21T14:41:59Z</time>
      </trkpt>
      <trkpt lat="59.9754095" lon="17.7384281">
        <ele>30.4188</ele>
        <time>2013-04-21T14:42:00Z</time>
      </trkpt>
      <trkpt lat="59.9754676" lon="17.7385271">
        <ele>30.4188</ele>
        <time>2013-04-21T14:42:01Z</time>
      </trkpt>
      <trkpt lat="59.9755249" lon="17.738627">
        <ele>30.4188</ele>
        <time>2013-04-21T14:42:02Z</time>
      </trkpt>
      <trkpt lat="59.975582" lon="17.738727">
        <ele>30.8995</ele>
        <time>2013-04-21T14:42:03Z</time>
      </trkpt>
      <trkpt lat="59.9756374" lon="17.738828">
        <ele>30.4188</ele>
        <time>2013-04-21T14:42:04Z</time>
      </trkpt>
      <trkpt lat="59.9756922" lon="17.7389291">
        <ele>30.8995</ele>
        <time>2013-04-21T14:42:05Z</time>
      </trkpt>
      <trkpt lat="59.9757462" lon="17.7390291">
        <ele>30.8995</ele>
        <time>2013-04-21T14:42:06Z</time>
      </trkpt>
      <trkpt lat="59.9758006" lon="17.7391269">
        <ele>30.4188</ele>
        <time>2013-04-21T14:42:07Z</time>
      </trkpt>
      <trkpt lat="59.9758549" lon="17.7392194">
        <ele>30.4188</ele>
        <time>2013-04-21T14:42:08Z</time>
      </trkpt>
      <trkpt lat="59.9759089" lon="17.7393104">
        <ele>30.4188</ele>
        <time>2013-04-21T14:42:09Z</time>
      </trkpt>
      <trkpt lat="59.975962" lon="17.7394">
        <ele>30.4188</ele>
        <time>2013-04-21T14:42:10Z</time>
      </trkpt>
      <trkpt lat="59.9760115" lon="17.7394843">
        <ele>30.8995</ele>
        <time>2013-04-21T14:42:11Z</time>
      </trkpt>
      <trkpt lat="59.9760611" lon="17.7395641">
        <ele>31.3801</ele>
        <time>2013-04-21T14:42:12Z</time>
      </trkpt>
      <trkpt lat="59.9761107" lon="17.7396344">
        <ele>31.3801</ele>
        <time>2013-04-21T14:42:13Z</time>
      </trkpt>
      <trkpt lat="59.976159" lon="17.7396948">
        <ele>31.8607</ele>
        <time>2013-04-21T14:42:14Z</time>
      </trkpt>
      <trkpt lat="59.9762071" lon="17.7397428">
        <ele>32.3416</ele>
        <time>2013-04-21T14:42:15Z</time>
      </trkpt>
      <trkpt lat="59.976258" lon="17.7397784">
        <ele>32.3416</ele>
        <time>2013-04-21T14:42:16Z</time>
      </trkpt>
      <trkpt lat="59.9763107" lon="17.739793">
        <ele>32.8223</ele>
        <time>2013-04-21T14:42:17Z</time>
      </trkpt>
      <trkpt lat="59.9763652" lon="17.7397781">
        <ele>32.8223</ele>
        <time>2013-04-21T14:42:18Z</time>
      </trkpt>
      <trkpt lat="59.9764191" lon="17.7397351">
        <ele>32.8223</ele>
        <time>2013-04-21T14:42:19Z</time>
      </trkpt>
      <trkpt lat="59.9764729" lon="17.7396813">
        <ele>32.8223</ele>
        <time>2013-04-21T14:42:20Z</time>
      </trkpt>
      <trkpt lat="59.9765285" lon="17.7396235">
        <ele>32.3416</ele>
        <time>2013-04-21T14:42:21Z</time>
      </trkpt>
      <trkpt lat="59.9765854" lon="17.7395693">
        <ele>32.3416</ele>
        <time>2013-04-21T14:42:22Z</time>
      </trkpt>
      <trkpt lat="59.9766434" lon="17.7395221">
        <ele>32.3416</ele>
        <time>2013-04-21T14:42:23Z</time>
      </trkpt>
      <trkpt lat="59.9767034" lon="17.7394813">
        <ele>31.8607</ele>
        <time>2013-04-21T14:42:24Z</time>
      </trkpt>
      <trkpt lat="59.9767621" lon="17.7394543">
        <ele>31.8607</ele>
        <time>2013-04-21T14:42:25Z</time>
      </trkpt>
      <trkpt lat="59.9768146" lon="17.7394311">
        <ele>31.3801</ele>
        <time>2013-04-21T14:42:26Z</time>
      </trkpt>
      <trkpt lat="59.976863" lon="17.7394029">
        <ele>30.8995</ele>
        <time>2013-04-21T14:42:27Z</time>
      </trkpt>
      <trkpt lat="59.9769101" lon="17.7393792">
        <ele>30.4188</ele>
        <time>2013-04-21T14:42:28Z</time>
      </trkpt>
      <trkpt lat="59.9769535" lon="17.7393522">
        <ele>29.9381</ele>
        <time>2013-04-21T14:42:29Z</time>
      </trkpt>
      <trkpt lat="59.9769971" lon="17.7393267">
        <ele>29.4575</ele>
        <time>2013-04-21T14:42:30Z</time>
      </trkpt>
      <trkpt lat="59.9770381" lon="17.7393064">
        <ele>29.4575</ele>
        <time>2013-04-21T14:42:31Z</time>
      </trkpt>
      <trkpt lat="59.9770783" lon="17.739287">
        <ele>28.9769</ele>
        <time>2013-04-21T14:42:32Z</time>
      </trkpt>
      <trkpt lat="59.9771172" lon="17.7392652">
        <ele>28.4962</ele>
        <time>2013-04-21T14:42:33Z</time>
      </trkpt>
      <trkpt lat="59.9771546" lon="17.7392401">
        <ele>28.4962</ele>
        <time>2013-04-21T14:42:34Z</time>
      </trkpt>
      <trkpt lat="59.9771915" lon="17.7392159">
        <ele>28.0155</ele>
        <time>2013-04-21T14:42:35Z</time>
      </trkpt>
      <trkpt lat="59.9772298" lon="17.7391943">
        <ele>28.0155</ele>
        <time>2013-04-21T14:42:36Z</time>
      </trkpt>
      <trkpt lat="59.9772679" lon="17.7391725">
        <ele>27.5349</ele>
        <time>2013-04-21T14:42:37Z</time>
      </trkpt>
      <trkpt lat="59.9773052" lon="17.7391476">
        <ele>27.5349</ele>
        <time>2013-04-21T14:42:38Z</time>
      </trkpt>
      <trkpt lat="59.9773407" lon="17.739131">
        <ele>27.0543</ele>
        <time>2013-04-21T14:42:39Z</time>
      </trkpt>
      <trkpt lat="59.977377" lon="17.7391197">
        <ele>27.0543</ele>
        <time>2013-04-21T14:42:40Z</time>
      </trkpt>
      <trkpt lat="59.9774132" lon="17.7391115">
        <ele>27.0543</ele>
        <time>2013-04-21T14:42:41Z</time>
      </trkpt>
      <trkpt lat="59.977449" lon="17.7391018">
        <ele>27.0543</ele>
        <time>2013-04-21T14:42:42Z</time>
      </trkpt>
      <trkpt lat="59.9774852" lon="17.739086">
        <ele>27.5349</ele>
        <time>2013-04-21T14:42:43Z</time>
      </trkpt>
      <trkpt lat="59.9775183" lon="17.7390715">
        <ele>27.5349</ele>
        <time>2013-04-21T14:42:44Z</time>
      </trkpt>
      <trkpt lat="59.9775498" lon="17.7390579">
        <ele>28.0155</ele>
        <time>2013-04-21T14:42:45Z</time>
      </trkpt>
      <trkpt lat="59.9775806" lon="17.7390486">
        <ele>28.0155</ele>
        <time>2013-04-21T14:42:46Z</time>
      </trkpt>
      <trkpt lat="59.9776118" lon="17.739044">
        <ele>28.0155</ele>
        <time>2013-04-21T14:42:47Z</time>
      </trkpt>
      <trkpt lat="59.9776409" lon="17.739042">
        <ele>28.0155</ele>
        <time>2013-04-21T14:42:48Z</time>
      </trkpt>
      <trkpt lat="59.9776673" lon="17.7390429">
        <ele>27.5349</ele>
        <time>2013-04-21T14:42:49Z</time>
      </trkpt>
      <trkpt lat="59.9776933" lon="17.7390488">
        <ele>27.5349</ele>
        <time>2013-04-21T14:42:50Z</time>
      </trkpt>
      <trkpt lat="59.9777183" lon="17.7390642">
        <ele>27.0543</ele>
        <time>2013-04-21T14:42:51Z</time>
      </trkpt>
      <trkpt lat="59.9777446" lon="17.7390709">
        <ele>27.5349</ele>
        <time>2013-04-21T14:42:52Z</time>
      </trkpt>
      <trkpt lat="59.9777729" lon="17.7390695">
        <ele>27.5349</ele>
        <time>2013-04-21T14:42:53Z</time>
      </trkpt>
      <trkpt lat="59.9778027" lon="17.7390715">
        <ele>28.0155</ele>
        <time>2013-04-21T14:42:54Z</time>
      </trkpt>
      <trkpt lat="59.9778327" lon="17.7390823">
        <ele>28.9769</ele>
        <time>2013-04-21T14:42:55Z</time>
      </trkpt>
      <trkpt lat="59.9778618" lon="17.739105">
        <ele>29.4575</ele>
        <time>2013-04-21T14:42:56Z</time>
      </trkpt>
      <trkpt lat="59.9778914" lon="17.7391241">
        <ele>29.9381</ele>
        <time>2013-04-21T14:42:57Z</time>
      </trkpt>
      <trkpt lat="59.9779228" lon="17.7391451">
        <ele>30.4188</ele>
        <time>2013-04-21T14:42:58Z</time>
      </trkpt>
      <trkpt lat="59.9779601" lon="17.7391544">
        <ele>31.3801</ele>
        <time>2013-04-21T14:42:59Z</time>
      </trkpt>
      <trkpt lat="59.9779913" lon="17.7391751">
        <ele>31.8607</ele>
        <time>2013-04-21T14:43:00Z</time>
      </trkpt>
      <trkpt lat="59.9780234" lon="17.7391961">
        <ele>32.3416</ele>
        <time>2013-04-21T14:43:01Z</time>
      </trkpt>
      <trkpt lat="59.9780585" lon="17.7392158">
        <ele>32.8223</ele>
        <time>2013-04-21T14:43:02Z</time>
      </trkpt>
      <trkpt lat="59.9780948" lon="17.739229">
        <ele>32.8223</ele>
        <time>2013-04-21T14:43:03Z</time>
      </trkpt>
      <trkpt lat="59.9781273" lon="17.7392475">
        <ele>32.8223</ele>
        <time>2013-04-21T14:43:04Z</time>
      </trkpt>
      <trkpt lat="59.9781612" lon="17.7392723">
        <ele>32.8223</ele>
        <time>2013-04-21T14:43:05Z</time>
      </trkpt>
      <trkpt lat="59.9781952" lon="17.739289">
        <ele>32.8223</ele>
        <time>2013-04-21T14:43:06Z</time>
      </trkpt>
      <trkpt lat="59.9782305" lon="17.7393013">
        <ele>33.3029</ele>
        <time>2013-04-21T14:43:07Z</time>
      </trkpt>
      <trkpt lat="59.9782653" lon="17.7393164">
        <ele>33.7834</ele>
        <time>2013-04-21T14:43:08Z</time>
      </trkpt>
      <trkpt lat="59.9783057" lon="17.7393287">
        <ele>33.7834</ele>
        <time>2013-04-21T14:43:09Z</time>
      </trkpt>
      <trkpt lat="59.9783533" lon="17.7393341">
        <ele>33.3029</ele>
        <time>2013-04-21T14:43:10Z</time>
      </trkpt>
      <trkpt lat="59.9784028" lon="17.7393363">
        <ele>33.3029</ele>
        <time>2013-04-21T14:43:11Z</time>
      </trkpt>
      <trkpt lat="59.9784491" lon="17.7393403">
        <ele>33.7834</ele>
        <time>2013-04-21T14:43:12Z</time>
      </trkpt>
      <trkpt lat="59.9784942" lon="17.7393491">
        <ele>33.3029</ele>
        <time>2013-04-21T14:43:13Z</time>
      </trkpt>
      <trkpt lat="59.9785377" lon="17.7393667">
        <ele>33.3029</ele>
        <time>2013-04-21T14:43:14Z</time>
      </trkpt>
      <trkpt lat="59.9785802" lon="17.7393839">
        <ele>33.3029</ele>
        <time>2013-04-21T14:43:15Z</time>
      </trkpt>
      <trkpt lat="59.9786251" lon="17.7394009">
        <ele>33.3029</ele>
        <time>2013-04-21T14:43:16Z</time>
      </trkpt>
      <trkpt lat="59.9786697" lon="17.739404">
        <ele>32.8223</ele>
        <time>2013-04-21T14:43:17Z</time>
      </trkpt>
      <trkpt lat="59.9787075" lon="17.7394051">
        <ele>32.8223</ele>
        <time>2013-04-21T14:43:18Z</time>
      </trkpt>
    </trkseg>
  </trk>
</gpx>